<?xml version="1.0" encoding="UTF-8" standalone="no" ?>
<gpx xmlns="http://www.topografix.com/GPX/1/1" xmlns:xsi="http://www.w3.org/2001/XMLSchema-instance" xsi:schemaLocation="http://www.topografix.com/GPX/1/1 http://www.topografix.com/GPX/1/1/gpx.xsd" version="1.1" creator="VisuGPX - https://www.visugpx.com">
  <metadata>
    <name>Depuis Hendaye BkPk</name>
  </metadata>
  <trk>
    <name><![CDATA[Hendaye à Saint-Palais]]></name>
    <extensions>
      <line xmlns="http://www.topografix.com/GPX/gpx_style/0/2">
        <color>02008a</color>
        <width>4</width>
      </line>
    </extensions>
    <trkseg>
      <trkpt lat="43.35281" lon="-1.7815">
        <ele>23.558623</ele>
        <time>2022-07-19T12:56:01.223Z</time>
      </trkpt>
      <trkpt lat="43.35275" lon="-1.78158">
        <ele>23.558623</ele>
        <time>2022-07-19T12:56:03.287Z</time>
      </trkpt>
      <trkpt lat="43.35254" lon="-1.78188">
        <ele>23.558623</ele>
        <time>2022-07-19T12:56:10.994Z</time>
      </trkpt>
      <trkpt lat="43.35255" lon="-1.78135">
        <ele>23.558623</ele>
        <time>2022-07-19T12:56:21.582Z</time>
      </trkpt>
      <trkpt lat="43.35255" lon="-1.78118">
        <ele>23.558623</ele>
        <time>2022-07-19T12:56:25.242Z</time>
      </trkpt>
      <trkpt lat="43.35269" lon="-1.78062">
        <ele>24.797821</ele>
        <time>2022-07-19T12:56:38.704Z</time>
      </trkpt>
      <trkpt lat="43.35272" lon="-1.78056">
        <ele>24.93161</ele>
        <time>2022-07-19T12:56:40.125Z</time>
      </trkpt>
      <trkpt lat="43.35298" lon="-1.77987">
        <ele>26.552375</ele>
        <time>2022-07-19T12:56:58.218Z</time>
      </trkpt>
      <trkpt lat="43.35314" lon="-1.77938">
        <ele>27.672113</ele>
        <time>2022-07-19T12:57:10.667Z</time>
      </trkpt>
      <trkpt lat="43.35326" lon="-1.77893">
        <ele>28.68069</ele>
        <time>2022-07-19T12:57:21.036Z</time>
      </trkpt>
      <trkpt lat="43.35174" lon="-1.77816">
        <ele>28.543908</ele>
        <time>2022-07-19T12:57:52.355Z</time>
      </trkpt>
      <trkpt lat="43.35168" lon="-1.77797">
        <ele>28.526468</ele>
        <time>2022-07-19T12:57:54.630Z</time>
      </trkpt>
      <trkpt lat="43.35167" lon="-1.77797">
        <ele>28.525246</ele>
        <time>2022-07-19T12:57:54.774Z</time>
      </trkpt>
      <trkpt lat="43.35158" lon="-1.77792">
        <ele>28.175707</ele>
        <time>2022-07-19T12:57:56.060Z</time>
      </trkpt>
      <trkpt lat="43.35143" lon="-1.77784">
        <ele>27.2879</ele>
        <time>2022-07-19T12:57:58.338Z</time>
      </trkpt>
      <trkpt lat="43.35126" lon="-1.77772">
        <ele>26.273394</ele>
        <time>2022-07-19T12:58:00.857Z</time>
      </trkpt>
      <trkpt lat="43.3512" lon="-1.77763">
        <ele>25.823897</ele>
        <time>2022-07-19T12:58:01.940Z</time>
      </trkpt>
      <trkpt lat="43.35117" lon="-1.77758">
        <ele>25.586188</ele>
        <time>2022-07-19T12:58:02.509Z</time>
      </trkpt>
      <trkpt lat="43.35092" lon="-1.77709">
        <ele>23.212871</ele>
        <time>2022-07-19T12:58:08.046Z</time>
      </trkpt>
      <trkpt lat="43.35045" lon="-1.77614">
        <ele>18.692535</ele>
        <time>2022-07-19T12:58:18.009Z</time>
      </trkpt>
      <trkpt lat="43.35016" lon="-1.77557">
        <ele>15.901449</ele>
        <time>2022-07-19T12:58:23.973Z</time>
      </trkpt>
      <trkpt lat="43.34988" lon="-1.77499">
        <ele>13.042439</ele>
        <time>2022-07-19T12:58:30.257Z</time>
      </trkpt>
      <trkpt lat="43.34972" lon="-1.77494">
        <ele>12.10839</ele>
        <time>2022-07-19T12:58:32.334Z</time>
      </trkpt>
      <trkpt lat="43.34965" lon="-1.77494">
        <ele>11.704564</ele>
        <time>2022-07-19T12:58:33.232Z</time>
      </trkpt>
      <trkpt lat="43.34963" lon="-1.77458">
        <ele>10.218535</ele>
        <time>2022-07-19T12:58:36.634Z</time>
      </trkpt>
      <trkpt lat="43.34963" lon="-1.77439">
        <ele>9.447408</ele>
        <time>2022-07-19T12:58:38.415Z</time>
      </trkpt>
      <trkpt lat="43.34966" lon="-1.77378">
        <ele>8.291648</ele>
        <time>2022-07-19T12:58:44.391Z</time>
      </trkpt>
      <trkpt lat="43.34983" lon="-1.77301">
        <ele>7.438803</ele>
        <time>2022-07-19T12:58:52.995Z</time>
      </trkpt>
      <trkpt lat="43.3499" lon="-1.77265">
        <ele>7.044468</ele>
        <time>2022-07-19T12:58:57.604Z</time>
      </trkpt>
      <trkpt lat="43.34987" lon="-1.77242">
        <ele>6.793499</ele>
        <time>2022-07-19T12:59:00.685Z</time>
      </trkpt>
      <trkpt lat="43.34954" lon="-1.77164">
        <ele>6.203757</ele>
        <time>2022-07-19T12:59:12.802Z</time>
      </trkpt>
      <trkpt lat="43.34935" lon="-1.77121">
        <ele>6.322755</ele>
        <time>2022-07-19T12:59:20.189Z</time>
      </trkpt>
      <trkpt lat="43.34912" lon="-1.77035">
        <ele>6.535093</ele>
        <time>2022-07-19T12:59:33.614Z</time>
      </trkpt>
      <trkpt lat="43.34907" lon="-1.77029">
        <ele>6.556144</ele>
        <time>2022-07-19T12:59:34.701Z</time>
      </trkpt>
      <trkpt lat="43.34905" lon="-1.77015">
        <ele>6.588729</ele>
        <time>2022-07-19T12:59:36.603Z</time>
      </trkpt>
      <trkpt lat="43.34915" lon="-1.77005">
        <ele>6.628471</ele>
        <time>2022-07-19T12:59:39.058Z</time>
      </trkpt>
      <trkpt lat="43.3492" lon="-1.76984">
        <ele>6.680614</ele>
        <time>2022-07-19T12:59:41.734Z</time>
      </trkpt>
      <trkpt lat="43.34912" lon="-1.76927">
        <ele>6.917446</ele>
        <time>2022-07-19T12:59:49.673Z</time>
      </trkpt>
      <trkpt lat="43.34899" lon="-1.76886">
        <ele>7.127568</ele>
        <time>2022-07-19T12:59:56.037Z</time>
      </trkpt>
      <trkpt lat="43.34906" lon="-1.76885">
        <ele>7.173177</ele>
        <time>2022-07-19T12:59:57.775Z</time>
      </trkpt>
      <trkpt lat="43.34907" lon="-1.76882">
        <ele>7.188003</ele>
        <time>2022-07-19T12:59:58.329Z</time>
      </trkpt>
      <trkpt lat="43.34903" lon="-1.76866">
        <ele>7.267988</ele>
        <time>2022-07-19T13:00:00.939Z</time>
      </trkpt>
      <trkpt lat="43.34876" lon="-1.7681">
        <ele>7.582839</ele>
        <time>2022-07-19T13:00:11.164Z</time>
      </trkpt>
      <trkpt lat="43.34855" lon="-1.76772">
        <ele>7.804943</ele>
        <time>2022-07-19T13:00:18.867Z</time>
      </trkpt>
      <trkpt lat="43.34836" lon="-1.7674">
        <ele>8.030716</ele>
        <time>2022-07-19T13:00:25.646Z</time>
      </trkpt>
      <trkpt lat="43.3483" lon="-1.76727">
        <ele>8.11866</ele>
        <time>2022-07-19T13:00:27.962Z</time>
      </trkpt>
      <trkpt lat="43.34792" lon="-1.76682">
        <ele>8.523852</ele>
        <time>2022-07-19T13:00:38.548Z</time>
      </trkpt>
      <trkpt lat="43.34737" lon="-1.76646">
        <ele>9.021017</ele>
        <time>2022-07-19T13:00:51.725Z</time>
      </trkpt>
      <trkpt lat="43.34724" lon="-1.76636">
        <ele>9.141408</ele>
        <time>2022-07-19T13:00:54.957Z</time>
      </trkpt>
      <trkpt lat="43.34699" lon="-1.76613">
        <ele>9.264157</ele>
        <time>2022-07-19T13:01:01.146Z</time>
      </trkpt>
      <trkpt lat="43.34645" lon="-1.76552">
        <ele>8.723665</ele>
        <time>2022-07-19T13:01:13.378Z</time>
      </trkpt>
      <trkpt lat="43.3462" lon="-1.7647">
        <ele>8.225114</ele>
        <time>2022-07-19T13:01:23.451Z</time>
      </trkpt>
      <trkpt lat="43.34602" lon="-1.764">
        <ele>7.637711</ele>
        <time>2022-07-19T13:01:31.525Z</time>
      </trkpt>
      <trkpt lat="43.346" lon="-1.76395">
        <ele>7.562374</ele>
        <time>2022-07-19T13:01:32.124Z</time>
      </trkpt>
      <trkpt lat="43.34594" lon="-1.7637">
        <ele>7.206088</ele>
        <time>2022-07-19T13:01:34.939Z</time>
      </trkpt>
      <trkpt lat="43.34586" lon="-1.76341">
        <ele>6.787713</ele>
        <time>2022-07-19T13:01:38.133Z</time>
      </trkpt>
      <trkpt lat="43.34574" lon="-1.76278">
        <ele>5.906639</ele>
        <time>2022-07-19T13:01:44.971Z</time>
      </trkpt>
      <trkpt lat="43.34559" lon="-1.76266">
        <ele>5.579114</ele>
        <time>2022-07-19T13:01:47.476Z</time>
      </trkpt>
      <trkpt lat="43.34549" lon="-1.76251">
        <ele>5.321512</ele>
        <time>2022-07-19T13:01:49.562Z</time>
      </trkpt>
      <trkpt lat="43.34544" lon="-1.76249">
        <ele>5.228232</ele>
        <time>2022-07-19T13:01:50.314Z</time>
      </trkpt>
      <trkpt lat="43.3452" lon="-1.76247">
        <ele>4.767929</ele>
        <time>2022-07-19T13:01:54.198Z</time>
      </trkpt>
      <trkpt lat="43.34483" lon="-1.76235">
        <ele>4.936246</ele>
        <time>2022-07-19T13:02:00.091Z</time>
      </trkpt>
      <trkpt lat="43.34468" lon="-1.76222">
        <ele>5.144524</ele>
        <time>2022-07-19T13:02:03.151Z</time>
      </trkpt>
      <trkpt lat="43.34451" lon="-1.76162">
        <ele>5.693262</ele>
        <time>2022-07-19T13:02:13.901Z</time>
      </trkpt>
      <trkpt lat="43.34449" lon="-1.76153">
        <ele>5.768577</ele>
        <time>2022-07-19T13:02:15.712Z</time>
      </trkpt>
      <trkpt lat="43.34442" lon="-1.76146">
        <ele>5.869379</ele>
        <time>2022-07-19T13:02:18.139Z</time>
      </trkpt>
      <trkpt lat="43.3444" lon="-1.76137">
        <ele>5.946315</ele>
        <time>2022-07-19T13:02:19.796Z</time>
      </trkpt>
      <trkpt lat="43.34444" lon="-1.76125">
        <ele>6.058607</ele>
        <time>2022-07-19T13:02:22.265Z</time>
      </trkpt>
      <trkpt lat="43.34447" lon="-1.76123">
        <ele>6.104762</ele>
        <time>2022-07-19T13:02:23.230Z</time>
      </trkpt>
      <trkpt lat="43.34452" lon="-1.76101">
        <ele>6.295768</ele>
        <time>2022-07-19T13:02:27.635Z</time>
      </trkpt>
      <trkpt lat="43.34446" lon="-1.76045">
        <ele>6.855824</ele>
        <time>2022-07-19T13:02:39.270Z</time>
      </trkpt>
      <trkpt lat="43.34446" lon="-1.76007">
        <ele>7.530595</ele>
        <time>2022-07-19T13:02:47.759Z</time>
      </trkpt>
      <trkpt lat="43.34446" lon="-1.75986">
        <ele>7.914552</ele>
        <time>2022-07-19T13:02:52.533Z</time>
      </trkpt>
      <trkpt lat="43.34448" lon="-1.75949">
        <ele>8.570802</ele>
        <time>2022-07-19T13:03:00.675Z</time>
      </trkpt>
      <trkpt lat="43.34455" lon="-1.75842">
        <ele>10.49329</ele>
        <time>2022-07-19T13:03:22.567Z</time>
      </trkpt>
      <trkpt lat="43.34452" lon="-1.75812">
        <ele>11.031588</ele>
        <time>2022-07-19T13:03:28.460Z</time>
      </trkpt>
      <trkpt lat="43.34439" lon="-1.75763">
        <ele>11.204424</ele>
        <time>2022-07-19T13:03:36.762Z</time>
      </trkpt>
      <trkpt lat="43.34403" lon="-1.75672">
        <ele>11.407335</ele>
        <time>2022-07-19T13:03:49.387Z</time>
      </trkpt>
      <trkpt lat="43.34301" lon="-1.75509">
        <ele>11.614874</ele>
        <time>2022-07-19T13:04:17.838Z</time>
      </trkpt>
      <trkpt lat="43.34292" lon="-1.75496">
        <ele>11.617575</ele>
        <time>2022-07-19T13:04:20.750Z</time>
      </trkpt>
      <trkpt lat="43.34191" lon="-1.7534">
        <ele>11.360832</ele>
        <time>2022-07-19T13:04:47.107Z</time>
      </trkpt>
      <trkpt lat="43.34121" lon="-1.75258">
        <ele>11.007683</ele>
        <time>2022-07-19T13:05:02.194Z</time>
      </trkpt>
      <trkpt lat="43.34101" lon="-1.75241">
        <ele>10.974855</ele>
        <time>2022-07-19T13:05:06.553Z</time>
      </trkpt>
      <trkpt lat="43.34065" lon="-1.75226">
        <ele>11.134115</ele>
        <time>2022-07-19T13:05:13.090Z</time>
      </trkpt>
      <trkpt lat="43.34057" lon="-1.75229">
        <ele>11.169261</ele>
        <time>2022-07-19T13:05:14.442Z</time>
      </trkpt>
      <trkpt lat="43.34048" lon="-1.75222">
        <ele>11.214072</ele>
        <time>2022-07-19T13:05:16.155Z</time>
      </trkpt>
      <trkpt lat="43.34046" lon="-1.75209">
        <ele>11.254485</ele>
        <time>2022-07-19T13:05:18.058Z</time>
      </trkpt>
      <trkpt lat="43.34058" lon="-1.75196">
        <ele>11.319381</ele>
        <time>2022-07-19T13:05:20.733Z</time>
      </trkpt>
      <trkpt lat="43.34082" lon="-1.75142">
        <ele>11.513231</ele>
        <time>2022-07-19T13:05:30.029Z</time>
      </trkpt>
      <trkpt lat="43.34095" lon="-1.75128">
        <ele>11.584602</ele>
        <time>2022-07-19T13:05:34.082Z</time>
      </trkpt>
      <trkpt lat="43.34106" lon="-1.75106">
        <ele>11.665418</ele>
        <time>2022-07-19T13:05:38.599Z</time>
      </trkpt>
      <trkpt lat="43.34125" lon="-1.75059">
        <ele>12.118546</ele>
        <time>2022-07-19T13:05:49.106Z</time>
      </trkpt>
      <trkpt lat="43.34187" lon="-1.74928">
        <ele>13.702408</ele>
        <time>2022-07-19T13:06:17.119Z</time>
      </trkpt>
      <trkpt lat="43.34225" lon="-1.74866">
        <ele>14.592756</ele>
        <time>2022-07-19T13:06:30.405Z</time>
      </trkpt>
      <trkpt lat="43.34235" lon="-1.74838">
        <ele>14.967922</ele>
        <time>2022-07-19T13:06:35.433Z</time>
      </trkpt>
      <trkpt lat="43.34234" lon="-1.74819">
        <ele>15.19122</ele>
        <time>2022-07-19T13:06:38.339Z</time>
      </trkpt>
      <trkpt lat="43.34221" lon="-1.74769">
        <ele>15.848985</ele>
        <time>2022-07-19T13:06:46.595Z</time>
      </trkpt>
      <trkpt lat="43.34223" lon="-1.74732">
        <ele>16.301087</ele>
        <time>2022-07-19T13:06:52.312Z</time>
      </trkpt>
      <trkpt lat="43.34249" lon="-1.74649">
        <ele>17.692086</ele>
        <time>2022-07-19T13:07:12.634Z</time>
      </trkpt>
      <trkpt lat="43.34257" lon="-1.74588">
        <ele>19.736847</ele>
        <time>2022-07-19T13:07:27.858Z</time>
      </trkpt>
      <trkpt lat="43.34254" lon="-1.7458">
        <ele>20.029817</ele>
        <time>2022-07-19T13:07:30.427Z</time>
      </trkpt>
      <trkpt lat="43.34249" lon="-1.7457">
        <ele>20.421387</ele>
        <time>2022-07-19T13:07:34.013Z</time>
      </trkpt>
      <trkpt lat="43.34236" lon="-1.74545">
        <ele>21.424081</ele>
        <time>2022-07-19T13:07:41.924Z</time>
      </trkpt>
      <trkpt lat="43.3422" lon="-1.74523">
        <ele>22.433138</ele>
        <time>2022-07-19T13:07:51.562Z</time>
      </trkpt>
      <trkpt lat="43.34194" lon="-1.7446">
        <ele>24.80012</ele>
        <time>2022-07-19T13:08:11.776Z</time>
      </trkpt>
      <trkpt lat="43.34184" lon="-1.74419">
        <ele>25.872819</ele>
        <time>2022-07-19T13:08:24.119Z</time>
      </trkpt>
      <trkpt lat="43.3418" lon="-1.74315">
        <ele>27.897702</ele>
        <time>2022-07-19T13:08:52.207Z</time>
      </trkpt>
      <trkpt lat="43.34182" lon="-1.74292">
        <ele>28.362464</ele>
        <time>2022-07-19T13:08:56.597Z</time>
      </trkpt>
      <trkpt lat="43.34221" lon="-1.74203">
        <ele>30.271792</ele>
        <time>2022-07-19T13:09:11.420Z</time>
      </trkpt>
      <trkpt lat="43.3424" lon="-1.74194">
        <ele>30.518116</ele>
        <time>2022-07-19T13:09:14.832Z</time>
      </trkpt>
      <trkpt lat="43.34256" lon="-1.74174">
        <ele>30.79151</ele>
        <time>2022-07-19T13:09:18.468Z</time>
      </trkpt>
      <trkpt lat="43.34262" lon="-1.74158">
        <ele>30.945285</ele>
        <time>2022-07-19T13:09:20.607Z</time>
      </trkpt>
      <trkpt lat="43.34262" lon="-1.74098">
        <ele>31.489477</ele>
        <time>2022-07-19T13:09:28.865Z</time>
      </trkpt>
      <trkpt lat="43.34261" lon="-1.74065">
        <ele>31.784374</ele>
        <time>2022-07-19T13:09:34.573Z</time>
      </trkpt>
      <trkpt lat="43.34252" lon="-1.7402">
        <ele>32.208948</ele>
        <time>2022-07-19T13:09:44.678Z</time>
      </trkpt>
      <trkpt lat="43.34256" lon="-1.73973">
        <ele>33.885711</ele>
        <time>2022-07-19T13:09:56.439Z</time>
      </trkpt>
      <trkpt lat="43.34261" lon="-1.73939">
        <ele>35.848441</ele>
        <time>2022-07-19T13:10:06.341Z</time>
      </trkpt>
      <trkpt lat="43.34239" lon="-1.73847">
        <ele>41.341847</ele>
        <time>2022-07-19T13:10:40.144Z</time>
      </trkpt>
      <trkpt lat="43.34218" lon="-1.73638">
        <ele>56.040248</ele>
        <time>2022-07-19T13:12:17.305Z</time>
      </trkpt>
      <trkpt lat="43.3421" lon="-1.73584">
        <ele>60.42238</ele>
        <time>2022-07-19T13:12:44.182Z</time>
      </trkpt>
      <trkpt lat="43.3421" lon="-1.73463">
        <ele>69.427265</ele>
        <time>2022-07-19T13:13:34.836Z</time>
      </trkpt>
      <trkpt lat="43.34208" lon="-1.73432">
        <ele>71.520226</ele>
        <time>2022-07-19T13:13:48.925Z</time>
      </trkpt>
      <trkpt lat="43.34197" lon="-1.73397">
        <ele>74.116202</ele>
        <time>2022-07-19T13:14:03.842Z</time>
      </trkpt>
      <trkpt lat="43.34163" lon="-1.73367">
        <ele>77.835985</ele>
        <time>2022-07-19T13:14:25.742Z</time>
      </trkpt>
      <trkpt lat="43.34148" lon="-1.73336">
        <ele>80.367761</ele>
        <time>2022-07-19T13:14:39.990Z</time>
      </trkpt>
      <trkpt lat="43.34149" lon="-1.73283">
        <ele>83.904203</ele>
        <time>2022-07-19T13:15:02.233Z</time>
      </trkpt>
      <trkpt lat="43.34167" lon="-1.73119">
        <ele>94.252514</ele>
        <time>2022-07-19T13:16:02.287Z</time>
      </trkpt>
      <trkpt lat="43.34184" lon="-1.73021">
        <ele>99.813608</ele>
        <time>2022-07-19T13:16:44.041Z</time>
      </trkpt>
      <trkpt lat="43.34196" lon="-1.72984">
        <ele>101.563205</ele>
        <time>2022-07-19T13:17:02.395Z</time>
      </trkpt>
      <trkpt lat="43.34198" lon="-1.72938">
        <ele>103.518206</ele>
        <time>2022-07-19T13:17:19.511Z</time>
      </trkpt>
      <trkpt lat="43.34192" lon="-1.72905">
        <ele>104.987113</ele>
        <time>2022-07-19T13:17:30.103Z</time>
      </trkpt>
      <trkpt lat="43.34185" lon="-1.72889">
        <ele>105.792069</ele>
        <time>2022-07-19T13:17:35.743Z</time>
      </trkpt>
      <trkpt lat="43.34157" lon="-1.72813">
        <ele>108.366632</ele>
        <time>2022-07-19T13:17:51.109Z</time>
      </trkpt>
      <trkpt lat="43.34152" lon="-1.72798">
        <ele>107.808814</ele>
        <time>2022-07-19T13:17:53.617Z</time>
      </trkpt>
      <trkpt lat="43.34157" lon="-1.72629">
        <ele>102.064857</ele>
        <time>2022-07-19T13:18:11.043Z</time>
      </trkpt>
      <trkpt lat="43.34156" lon="-1.7261">
        <ele>101.419384</ele>
        <time>2022-07-19T13:18:12.668Z</time>
      </trkpt>
      <trkpt lat="43.34144" lon="-1.7258">
        <ele>100.026987</ele>
        <time>2022-07-19T13:18:15.497Z</time>
      </trkpt>
      <trkpt lat="43.34147" lon="-1.72574">
        <ele>99.388138</ele>
        <time>2022-07-19T13:18:16.097Z</time>
      </trkpt>
      <trkpt lat="43.34153" lon="-1.72572">
        <ele>98.598459</ele>
        <time>2022-07-19T13:18:16.831Z</time>
      </trkpt>
      <trkpt lat="43.34167" lon="-1.72576">
        <ele>96.876691</ele>
        <time>2022-07-19T13:18:18.480Z</time>
      </trkpt>
      <trkpt lat="43.34188" lon="-1.72572">
        <ele>94.368916</ele>
        <time>2022-07-19T13:18:20.832Z</time>
      </trkpt>
      <trkpt lat="43.342" lon="-1.72557">
        <ele>92.389024</ele>
        <time>2022-07-19T13:18:22.732Z</time>
      </trkpt>
      <trkpt lat="43.34243" lon="-1.72476">
        <ele>83.69871</ele>
        <time>2022-07-19T13:18:31.093Z</time>
      </trkpt>
      <trkpt lat="43.3428" lon="-1.72413">
        <ele>77.034747</ele>
        <time>2022-07-19T13:18:38.021Z</time>
      </trkpt>
      <trkpt lat="43.3434" lon="-1.72272">
        <ele>65.790667</ele>
        <time>2022-07-19T13:18:52.036Z</time>
      </trkpt>
      <trkpt lat="43.34373" lon="-1.72231">
        <ele>61.653258</ele>
        <time>2022-07-19T13:18:57.648Z</time>
      </trkpt>
      <trkpt lat="43.34396" lon="-1.7219">
        <ele>59.735968</ele>
        <time>2022-07-19T13:19:02.578Z</time>
      </trkpt>
      <trkpt lat="43.34405" lon="-1.7216">
        <ele>58.527414</ele>
        <time>2022-07-19T13:19:05.736Z</time>
      </trkpt>
      <trkpt lat="43.34415" lon="-1.72111">
        <ele>56.672525</ele>
        <time>2022-07-19T13:19:10.589Z</time>
      </trkpt>
      <trkpt lat="43.3442" lon="-1.72097">
        <ele>56.089935</ele>
        <time>2022-07-19T13:19:12.109Z</time>
      </trkpt>
      <trkpt lat="43.34448" lon="-1.72025">
        <ele>53.084886</ele>
        <time>2022-07-19T13:19:20.380Z</time>
      </trkpt>
      <trkpt lat="43.34523" lon="-1.71871">
        <ele>49.296336</ele>
        <time>2022-07-19T13:19:39.612Z</time>
      </trkpt>
      <trkpt lat="43.34538" lon="-1.71829">
        <ele>48.398339</ele>
        <time>2022-07-19T13:19:44.858Z</time>
      </trkpt>
      <trkpt lat="43.34547" lon="-1.71807">
        <ele>47.902246</ele>
        <time>2022-07-19T13:19:47.895Z</time>
      </trkpt>
      <trkpt lat="43.34565" lon="-1.71768">
        <ele>48.132364</ele>
        <time>2022-07-19T13:19:53.743Z</time>
      </trkpt>
      <trkpt lat="43.34609" lon="-1.7174">
        <ele>48.512961</ele>
        <time>2022-07-19T13:20:02.663Z</time>
      </trkpt>
      <trkpt lat="43.34593" lon="-1.71669">
        <ele>48.937766</ele>
        <time>2022-07-19T13:20:14.873Z</time>
      </trkpt>
      <trkpt lat="43.34595" lon="-1.71622">
        <ele>49.205398</ele>
        <time>2022-07-19T13:20:25.026Z</time>
      </trkpt>
      <trkpt lat="43.34603" lon="-1.71581">
        <ele>49.672552</ele>
        <time>2022-07-19T13:20:35.394Z</time>
      </trkpt>
      <trkpt lat="43.34602" lon="-1.71464">
        <ele>51.263136</ele>
        <time>2022-07-19T13:20:59.118Z</time>
      </trkpt>
      <trkpt lat="43.34574" lon="-1.71383">
        <ele>52.466792</ele>
        <time>2022-07-19T13:21:13.570Z</time>
      </trkpt>
      <trkpt lat="43.34538" lon="-1.7127">
        <ele>53.65853</ele>
        <time>2022-07-19T13:21:33.608Z</time>
      </trkpt>
      <trkpt lat="43.34529" lon="-1.71199">
        <ele>54.317942</ele>
        <time>2022-07-19T13:21:45.833Z</time>
      </trkpt>
      <trkpt lat="43.34528" lon="-1.71179">
        <ele>54.501286</ele>
        <time>2022-07-19T13:21:49.131Z</time>
      </trkpt>
      <trkpt lat="43.34522" lon="-1.7116">
        <ele>54.688111</ele>
        <time>2022-07-19T13:21:52.340Z</time>
      </trkpt>
      <trkpt lat="43.34483" lon="-1.71061">
        <ele>56.533202</ele>
        <time>2022-07-19T13:22:15.250Z</time>
      </trkpt>
      <trkpt lat="43.34449" lon="-1.70994">
        <ele>58.020682</ele>
        <time>2022-07-19T13:22:34.352Z</time>
      </trkpt>
      <trkpt lat="43.34452" lon="-1.70978">
        <ele>58.328416</ele>
        <time>2022-07-19T13:22:37.740Z</time>
      </trkpt>
      <trkpt lat="43.34496" lon="-1.70861">
        <ele>60.42803</ele>
        <time>2022-07-19T13:23:03.959Z</time>
      </trkpt>
      <trkpt lat="43.34506" lon="-1.70764">
        <ele>61.812235</ele>
        <time>2022-07-19T13:23:21.199Z</time>
      </trkpt>
      <trkpt lat="43.34506" lon="-1.70756">
        <ele>61.926144</ele>
        <time>2022-07-19T13:23:22.532Z</time>
      </trkpt>
      <trkpt lat="43.34506" lon="-1.70739">
        <ele>62.162373</ele>
        <time>2022-07-19T13:23:25.482Z</time>
      </trkpt>
      <trkpt lat="43.3447" lon="-1.70724">
        <ele>62.892755</ele>
        <time>2022-07-19T13:23:35.353Z</time>
      </trkpt>
      <trkpt lat="43.34451" lon="-1.70708">
        <ele>63.730727</ele>
        <time>2022-07-19T13:23:41.597Z</time>
      </trkpt>
      <trkpt lat="43.34397" lon="-1.70602">
        <ele>67.284007</ele>
        <time>2022-07-19T13:24:12.449Z</time>
      </trkpt>
      <trkpt lat="43.3431" lon="-1.7056">
        <ele>70.722782</ele>
        <time>2022-07-19T13:24:48.002Z</time>
      </trkpt>
      <trkpt lat="43.34284" lon="-1.70542">
        <ele>71.79254</ele>
        <time>2022-07-19T13:24:58.896Z</time>
      </trkpt>
      <trkpt lat="43.34271" lon="-1.70513">
        <ele>72.695306</ele>
        <time>2022-07-19T13:25:08.240Z</time>
      </trkpt>
      <trkpt lat="43.34249" lon="-1.70461">
        <ele>74.296241</ele>
        <time>2022-07-19T13:25:22.822Z</time>
      </trkpt>
      <trkpt lat="43.34232" lon="-1.704">
        <ele>76.036839</ele>
        <time>2022-07-19T13:25:36.538Z</time>
      </trkpt>
      <trkpt lat="43.34229" lon="-1.70337">
        <ele>76.273159</ele>
        <time>2022-07-19T13:25:48.130Z</time>
      </trkpt>
      <trkpt lat="43.34236" lon="-1.70192">
        <ele>76.275685</ele>
        <time>2022-07-19T13:26:06.812Z</time>
      </trkpt>
      <trkpt lat="43.34243" lon="-1.70173">
        <ele>76.276049</ele>
        <time>2022-07-19T13:26:09.171Z</time>
      </trkpt>
      <trkpt lat="43.34257" lon="-1.70147">
        <ele>76.227044</ele>
        <time>2022-07-19T13:26:13.152Z</time>
      </trkpt>
      <trkpt lat="43.34255" lon="-1.70034">
        <ele>75.284918</ele>
        <time>2022-07-19T13:26:26.287Z</time>
      </trkpt>
      <trkpt lat="43.3427" lon="-1.6994">
        <ele>74.488354</ele>
        <time>2022-07-19T13:26:38.430Z</time>
      </trkpt>
      <trkpt lat="43.3428" lon="-1.69928">
        <ele>74.334284</ele>
        <time>2022-07-19T13:26:40.885Z</time>
      </trkpt>
      <trkpt lat="43.34402" lon="-1.6981">
        <ele>70.637169</ele>
        <time>2022-07-19T13:27:03.427Z</time>
      </trkpt>
      <trkpt lat="43.34427" lon="-1.69787">
        <ele>69.859046</ele>
        <time>2022-07-19T13:27:07.628Z</time>
      </trkpt>
      <trkpt lat="43.34441" lon="-1.69752">
        <ele>68.666463</ele>
        <time>2022-07-19T13:27:11.641Z</time>
      </trkpt>
      <trkpt lat="43.34446" lon="-1.69672">
        <ele>65.757559</ele>
        <time>2022-07-19T13:27:19.573Z</time>
      </trkpt>
      <trkpt lat="43.34474" lon="-1.69601">
        <ele>62.796962</ele>
        <time>2022-07-19T13:27:27.180Z</time>
      </trkpt>
      <trkpt lat="43.34468" lon="-1.69449">
        <ele>57.209033</ele>
        <time>2022-07-19T13:27:41.776Z</time>
      </trkpt>
      <trkpt lat="43.34474" lon="-1.69415">
        <ele>55.91727</ele>
        <time>2022-07-19T13:27:45.099Z</time>
      </trkpt>
      <trkpt lat="43.34477" lon="-1.69392">
        <ele>55.060933</ele>
        <time>2022-07-19T13:27:47.415Z</time>
      </trkpt>
      <trkpt lat="43.34479" lon="-1.69371">
        <ele>54.291784</ele>
        <time>2022-07-19T13:27:49.423Z</time>
      </trkpt>
      <trkpt lat="43.34481" lon="-1.69339">
        <ele>53.084765</ele>
        <time>2022-07-19T13:27:52.638Z</time>
      </trkpt>
      <trkpt lat="43.34527" lon="-1.69256">
        <ele>49.705318</ele>
        <time>2022-07-19T13:28:02.770Z</time>
      </trkpt>
      <trkpt lat="43.34558" lon="-1.69203">
        <ele>47.750795</ele>
        <time>2022-07-19T13:28:09.499Z</time>
      </trkpt>
      <trkpt lat="43.34564" lon="-1.69182">
        <ele>47.08893</ele>
        <time>2022-07-19T13:28:11.827Z</time>
      </trkpt>
      <trkpt lat="43.34585" lon="-1.69101">
        <ele>44.576889</ele>
        <time>2022-07-19T13:28:20.762Z</time>
      </trkpt>
      <trkpt lat="43.34612" lon="-1.69061">
        <ele>43.613316</ele>
        <time>2022-07-19T13:28:26.443Z</time>
      </trkpt>
      <trkpt lat="43.34661" lon="-1.68989">
        <ele>42.188379</ele>
        <time>2022-07-19T13:28:36.683Z</time>
      </trkpt>
      <trkpt lat="43.34677" lon="-1.68942">
        <ele>41.440668</ele>
        <time>2022-07-19T13:28:42.600Z</time>
      </trkpt>
      <trkpt lat="43.34675" lon="-1.68927">
        <ele>41.221736</ele>
        <time>2022-07-19T13:28:44.413Z</time>
      </trkpt>
      <trkpt lat="43.34745" lon="-1.68882">
        <ele>41.871539</ele>
        <time>2022-07-19T13:29:00.118Z</time>
      </trkpt>
      <trkpt lat="43.34736" lon="-1.6886">
        <ele>42.314099</ele>
        <time>2022-07-19T13:29:04.805Z</time>
      </trkpt>
      <trkpt lat="43.34716" lon="-1.68818">
        <ele>43.220969</ele>
        <time>2022-07-19T13:29:14.619Z</time>
      </trkpt>
      <trkpt lat="43.34658" lon="-1.68744">
        <ele>45.256301</ele>
        <time>2022-07-19T13:29:41.501Z</time>
      </trkpt>
      <trkpt lat="43.34609" lon="-1.68716">
        <ele>48.19286</ele>
        <time>2022-07-19T13:30:03.340Z</time>
      </trkpt>
      <trkpt lat="43.34596" lon="-1.68693">
        <ele>49.371531</ele>
        <time>2022-07-19T13:30:11.983Z</time>
      </trkpt>
      <trkpt lat="43.34592" lon="-1.68674">
        <ele>50.159607</ele>
        <time>2022-07-19T13:30:18.076Z</time>
      </trkpt>
      <trkpt lat="43.34589" lon="-1.68658">
        <ele>50.863884</ele>
        <time>2022-07-19T13:30:23.282Z</time>
      </trkpt>
      <trkpt lat="43.34611" lon="-1.68522">
        <ele>56.890378</ele>
        <time>2022-07-19T13:31:04.678Z</time>
      </trkpt>
      <trkpt lat="43.34609" lon="-1.68386">
        <ele>64.041551</ele>
        <time>2022-07-19T13:31:52.115Z</time>
      </trkpt>
      <trkpt lat="43.34605" lon="-1.68353">
        <ele>65.840984</ele>
        <time>2022-07-19T13:32:04.382Z</time>
      </trkpt>
      <trkpt lat="43.34593" lon="-1.6824">
        <ele>71.632949</ele>
        <time>2022-07-19T13:32:47.217Z</time>
      </trkpt>
      <trkpt lat="43.34583" lon="-1.68189">
        <ele>74.289695</ele>
        <time>2022-07-19T13:33:07.849Z</time>
      </trkpt>
      <trkpt lat="43.3451" lon="-1.67949">
        <ele>83.016054</ele>
        <time>2022-07-19T13:34:23.227Z</time>
      </trkpt>
      <trkpt lat="43.34523" lon="-1.67857">
        <ele>84.776846</ele>
        <time>2022-07-19T13:34:35.444Z</time>
      </trkpt>
      <trkpt lat="43.34587" lon="-1.67697">
        <ele>83.984372</ele>
        <time>2022-07-19T13:34:56.511Z</time>
      </trkpt>
      <trkpt lat="43.34643" lon="-1.67572">
        <ele>83.142852</ele>
        <time>2022-07-19T13:35:15.945Z</time>
      </trkpt>
      <trkpt lat="43.34687" lon="-1.67505">
        <ele>82.744352</ele>
        <time>2022-07-19T13:35:27.930Z</time>
      </trkpt>
      <trkpt lat="43.34723" lon="-1.67408">
        <ele>82.085956</ele>
        <time>2022-07-19T13:35:41.111Z</time>
      </trkpt>
      <trkpt lat="43.34739" lon="-1.67351">
        <ele>81.211098</ele>
        <time>2022-07-19T13:35:47.757Z</time>
      </trkpt>
      <trkpt lat="43.34778" lon="-1.67346">
        <ele>80.441452</ele>
        <time>2022-07-19T13:35:53.571Z</time>
      </trkpt>
      <trkpt lat="43.34815" lon="-1.67331">
        <ele>79.668699</ele>
        <time>2022-07-19T13:35:59.448Z</time>
      </trkpt>
      <trkpt lat="43.34823" lon="-1.67308">
        <ele>79.311951</ele>
        <time>2022-07-19T13:36:02.142Z</time>
      </trkpt>
      <trkpt lat="43.34831" lon="-1.67263">
        <ele>78.733815</ele>
        <time>2022-07-19T13:36:07.280Z</time>
      </trkpt>
      <trkpt lat="43.34832" lon="-1.67161">
        <ele>78.344455</ele>
        <time>2022-07-19T13:36:19.459Z</time>
      </trkpt>
      <trkpt lat="43.34896" lon="-1.66924">
        <ele>78.715591</ele>
        <time>2022-07-19T13:36:55.767Z</time>
      </trkpt>
      <trkpt lat="43.34917" lon="-1.66871">
        <ele>79.186337</ele>
        <time>2022-07-19T13:37:06.436Z</time>
      </trkpt>
      <trkpt lat="43.34943" lon="-1.66881">
        <ele>79.46965</ele>
        <time>2022-07-19T13:37:13.194Z</time>
      </trkpt>
      <trkpt lat="43.34966" lon="-1.66875">
        <ele>79.714067</ele>
        <time>2022-07-19T13:37:18.782Z</time>
      </trkpt>
      <trkpt lat="43.34972" lon="-1.66863">
        <ele>79.970009</ele>
        <time>2022-07-19T13:37:21.621Z</time>
      </trkpt>
      <trkpt lat="43.34978" lon="-1.66826">
        <ele>80.632583</ele>
        <time>2022-07-19T13:37:28.439Z</time>
      </trkpt>
      <trkpt lat="43.34986" lon="-1.66811">
        <ele>80.959836</ele>
        <time>2022-07-19T13:37:32.489Z</time>
      </trkpt>
      <trkpt lat="43.35014" lon="-1.668">
        <ele>81.660393</ele>
        <time>2022-07-19T13:37:40.809Z</time>
      </trkpt>
      <trkpt lat="43.35074" lon="-1.66852">
        <ele>83.392805</ele>
        <time>2022-07-19T13:38:01.432Z</time>
      </trkpt>
      <trkpt lat="43.35089" lon="-1.66859">
        <ele>83.784045</ele>
        <time>2022-07-19T13:38:06.324Z</time>
      </trkpt>
      <trkpt lat="43.35109" lon="-1.66858">
        <ele>84.153207</ele>
        <time>2022-07-19T13:38:11.075Z</time>
      </trkpt>
      <trkpt lat="43.35124" lon="-1.66845">
        <ele>84.308699</ele>
        <time>2022-07-19T13:38:16.425Z</time>
      </trkpt>
      <trkpt lat="43.35181" lon="-1.66752">
        <ele>85.073754</ele>
        <time>2022-07-19T13:38:37.414Z</time>
      </trkpt>
      <trkpt lat="43.35196" lon="-1.66737">
        <ele>85.232908</ele>
        <time>2022-07-19T13:38:41.219Z</time>
      </trkpt>
      <trkpt lat="43.35213" lon="-1.66731">
        <ele>85.385318</ele>
        <time>2022-07-19T13:38:44.156Z</time>
      </trkpt>
      <trkpt lat="43.35247" lon="-1.66735">
        <ele>85.554545</ele>
        <time>2022-07-19T13:38:49.937Z</time>
      </trkpt>
      <trkpt lat="43.35275" lon="-1.66726">
        <ele>84.727997</ele>
        <time>2022-07-19T13:38:54.135Z</time>
      </trkpt>
      <trkpt lat="43.3529" lon="-1.66717">
        <ele>84.252517</ele>
        <time>2022-07-19T13:38:56.510Z</time>
      </trkpt>
      <trkpt lat="43.35239" lon="-1.6672">
        <ele>82.780444</ele>
        <time>2022-07-19T13:39:03.776Z</time>
      </trkpt>
      <trkpt lat="43.35217" lon="-1.66696">
        <ele>81.963642</ele>
        <time>2022-07-19T13:39:07.739Z</time>
      </trkpt>
      <trkpt lat="43.35198" lon="-1.6665">
        <ele>80.834177</ele>
        <time>2022-07-19T13:39:13.070Z</time>
      </trkpt>
      <trkpt lat="43.35154" lon="-1.66584">
        <ele>79.533373</ele>
        <time>2022-07-19T13:39:21.976Z</time>
      </trkpt>
      <trkpt lat="43.35126" lon="-1.66517">
        <ele>78.547785</ele>
        <time>2022-07-19T13:39:30.805Z</time>
      </trkpt>
      <trkpt lat="43.3512" lon="-1.66486">
        <ele>78.134855</ele>
        <time>2022-07-19T13:39:34.858Z</time>
      </trkpt>
      <trkpt lat="43.35122" lon="-1.66456">
        <ele>77.758815</ele>
        <time>2022-07-19T13:39:38.786Z</time>
      </trkpt>
      <trkpt lat="43.35136" lon="-1.66387">
        <ele>77.373482</ele>
        <time>2022-07-19T13:39:48.536Z</time>
      </trkpt>
      <trkpt lat="43.35142" lon="-1.66337">
        <ele>77.530216</ele>
        <time>2022-07-19T13:39:56.568Z</time>
      </trkpt>
      <trkpt lat="43.35139" lon="-1.66302">
        <ele>77.640511</ele>
        <time>2022-07-19T13:40:03.151Z</time>
      </trkpt>
      <trkpt lat="43.35129" lon="-1.66285">
        <ele>77.711078</ele>
        <time>2022-07-19T13:40:06.372Z</time>
      </trkpt>
      <trkpt lat="43.35111" lon="-1.6627">
        <ele>77.799657</ele>
        <time>2022-07-19T13:40:11.839Z</time>
      </trkpt>
      <trkpt lat="43.35074" lon="-1.66252">
        <ele>77.968644</ele>
        <time>2022-07-19T13:40:19.911Z</time>
      </trkpt>
      <trkpt lat="43.35045" lon="-1.66212">
        <ele>77.410535</ele>
        <time>2022-07-19T13:40:26.795Z</time>
      </trkpt>
      <trkpt lat="43.35037" lon="-1.66181">
        <ele>76.786943</ele>
        <time>2022-07-19T13:40:30.742Z</time>
      </trkpt>
      <trkpt lat="43.35049" lon="-1.66143">
        <ele>75.993355</ele>
        <time>2022-07-19T13:40:35.208Z</time>
      </trkpt>
      <trkpt lat="43.3505" lon="-1.66079">
        <ele>74.77239</ele>
        <time>2022-07-19T13:40:42.116Z</time>
      </trkpt>
      <trkpt lat="43.35068" lon="-1.66051">
        <ele>74.069896</ele>
        <time>2022-07-19T13:40:45.834Z</time>
      </trkpt>
      <trkpt lat="43.35101" lon="-1.66027">
        <ele>72.913121</ele>
        <time>2022-07-19T13:40:50.925Z</time>
      </trkpt>
      <trkpt lat="43.35153" lon="-1.66029">
        <ele>70.560732</ele>
        <time>2022-07-19T13:40:57.785Z</time>
      </trkpt>
      <trkpt lat="43.35178" lon="-1.6601">
        <ele>69.301735</ele>
        <time>2022-07-19T13:41:01.385Z</time>
      </trkpt>
      <trkpt lat="43.35271" lon="-1.65874">
        <ele>65.1454</ele>
        <time>2022-07-19T13:41:20.187Z</time>
      </trkpt>
      <trkpt lat="43.35279" lon="-1.65852">
        <ele>65.110416</ele>
        <time>2022-07-19T13:41:22.944Z</time>
      </trkpt>
      <trkpt lat="43.35294" lon="-1.6573">
        <ele>64.930391</ele>
        <time>2022-07-19T13:41:41.344Z</time>
      </trkpt>
      <trkpt lat="43.35278" lon="-1.65619">
        <ele>66.165164</ele>
        <time>2022-07-19T13:42:10.200Z</time>
      </trkpt>
      <trkpt lat="43.35278" lon="-1.6559">
        <ele>66.646301</ele>
        <time>2022-07-19T13:42:17.228Z</time>
      </trkpt>
      <trkpt lat="43.35287" lon="-1.65568">
        <ele>67.07092</ele>
        <time>2022-07-19T13:42:22.457Z</time>
      </trkpt>
      <trkpt lat="43.35307" lon="-1.6554">
        <ele>67.730614</ele>
        <time>2022-07-19T13:42:31.400Z</time>
      </trkpt>
      <trkpt lat="43.35312" lon="-1.65527">
        <ele>67.971211</ele>
        <time>2022-07-19T13:42:34.170Z</time>
      </trkpt>
      <trkpt lat="43.35313" lon="-1.65498">
        <ele>68.45634</ele>
        <time>2022-07-19T13:42:40.588Z</time>
      </trkpt>
      <trkpt lat="43.35297" lon="-1.65491">
        <ele>68.851604</ele>
        <time>2022-07-19T13:42:44.015Z</time>
      </trkpt>
      <trkpt lat="43.35292" lon="-1.65472">
        <ele>68.692433</ele>
        <time>2022-07-19T13:42:46.978Z</time>
      </trkpt>
      <trkpt lat="43.3529" lon="-1.6541">
        <ele>66.87602</ele>
        <time>2022-07-19T13:42:53.857Z</time>
      </trkpt>
      <trkpt lat="43.35282" lon="-1.65347">
        <ele>65.025661</ele>
        <time>2022-07-19T13:43:00.372Z</time>
      </trkpt>
      <trkpt lat="43.35273" lon="-1.65303">
        <ele>63.688245</ele>
        <time>2022-07-19T13:43:04.874Z</time>
      </trkpt>
      <trkpt lat="43.35267" lon="-1.65293">
        <ele>63.298225</ele>
        <time>2022-07-19T13:43:06.094Z</time>
      </trkpt>
      <trkpt lat="43.35216" lon="-1.65252">
        <ele>59.725558</ele>
        <time>2022-07-19T13:43:13.486Z</time>
      </trkpt>
      <trkpt lat="43.35205" lon="-1.65237">
        <ele>58.371349</ele>
        <time>2022-07-19T13:43:15.258Z</time>
      </trkpt>
      <trkpt lat="43.35194" lon="-1.65151">
        <ele>52.378132</ele>
        <time>2022-07-19T13:43:22.897Z</time>
      </trkpt>
      <trkpt lat="43.35131" lon="-1.64968">
        <ele>37.918092</ele>
        <time>2022-07-19T13:43:40.329Z</time>
      </trkpt>
      <trkpt lat="43.35098" lon="-1.64928">
        <ele>33.347721</ele>
        <time>2022-07-19T13:43:45.511Z</time>
      </trkpt>
      <trkpt lat="43.35076" lon="-1.6487">
        <ele>28.375178</ele>
        <time>2022-07-19T13:43:51.081Z</time>
      </trkpt>
      <trkpt lat="43.3504" lon="-1.6475">
        <ele>21.421757</ele>
        <time>2022-07-19T13:44:02.610Z</time>
      </trkpt>
      <trkpt lat="43.35041" lon="-1.64717">
        <ele>19.879332</ele>
        <time>2022-07-19T13:44:05.473Z</time>
      </trkpt>
      <trkpt lat="43.35004" lon="-1.64591">
        <ele>14.955588</ele>
        <time>2022-07-19T13:44:19.027Z</time>
      </trkpt>
      <trkpt lat="43.35004" lon="-1.64515">
        <ele>16.320949</ele>
        <time>2022-07-19T13:44:29.240Z</time>
      </trkpt>
      <trkpt lat="43.35005" lon="-1.645">
        <ele>16.583661</ele>
        <time>2022-07-19T13:44:33.039Z</time>
      </trkpt>
      <trkpt lat="43.35002" lon="-1.64443">
        <ele>17.607146</ele>
        <time>2022-07-19T13:44:48.326Z</time>
      </trkpt>
      <trkpt lat="43.34986" lon="-1.6438">
        <ele>18.813904</ele>
        <time>2022-07-19T13:45:08.092Z</time>
      </trkpt>
      <trkpt lat="43.34996" lon="-1.64374">
        <ele>19.296703</ele>
        <time>2022-07-19T13:45:12.400Z</time>
      </trkpt>
      <trkpt lat="43.34991" lon="-1.64358">
        <ele>20.193345</ele>
        <time>2022-07-19T13:45:19.770Z</time>
      </trkpt>
      <trkpt lat="43.3495" lon="-1.64343">
        <ele>23.141952</ele>
        <time>2022-07-19T13:45:40.655Z</time>
      </trkpt>
      <trkpt lat="43.34939" lon="-1.64329">
        <ele>24.154994</ele>
        <time>2022-07-19T13:45:47.543Z</time>
      </trkpt>
      <trkpt lat="43.34935" lon="-1.64167">
        <ele>32.051408</ele>
        <time>2022-07-19T13:46:43.872Z</time>
      </trkpt>
      <trkpt lat="43.34948" lon="-1.64106">
        <ele>34.426294</ele>
        <time>2022-07-19T13:47:00.993Z</time>
      </trkpt>
      <trkpt lat="43.34947" lon="-1.64084">
        <ele>35.232468</ele>
        <time>2022-07-19T13:47:06.597Z</time>
      </trkpt>
      <trkpt lat="43.3493" lon="-1.64075">
        <ele>36.205212</ele>
        <time>2022-07-19T13:47:13.458Z</time>
      </trkpt>
      <trkpt lat="43.34881" lon="-1.64114">
        <ele>39.08111</ele>
        <time>2022-07-19T13:47:33.548Z</time>
      </trkpt>
      <trkpt lat="43.34859" lon="-1.64124">
        <ele>40.251697</ele>
        <time>2022-07-19T13:47:42.603Z</time>
      </trkpt>
      <trkpt lat="43.3484" lon="-1.6412">
        <ele>41.33038</ele>
        <time>2022-07-19T13:47:51.354Z</time>
      </trkpt>
      <trkpt lat="43.34818" lon="-1.64106">
        <ele>42.724612</ele>
        <time>2022-07-19T13:48:00.732Z</time>
      </trkpt>
      <trkpt lat="43.34846" lon="-1.6401">
        <ele>47.133605</ele>
        <time>2022-07-19T13:48:31.505Z</time>
      </trkpt>
      <trkpt lat="43.34857" lon="-1.63985">
        <ele>48.361753</ele>
        <time>2022-07-19T13:48:40.477Z</time>
      </trkpt>
      <trkpt lat="43.34854" lon="-1.63953">
        <ele>49.740632</ele>
        <time>2022-07-19T13:48:51.522Z</time>
      </trkpt>
      <trkpt lat="43.34833" lon="-1.63892">
        <ele>52.241617</ele>
        <time>2022-07-19T13:49:13.040Z</time>
      </trkpt>
      <trkpt lat="43.34802" lon="-1.6383">
        <ele>54.801903</ele>
        <time>2022-07-19T13:49:37.001Z</time>
      </trkpt>
      <trkpt lat="43.34743" lon="-1.63753">
        <ele>58.553451</ele>
        <time>2022-07-19T13:50:04.369Z</time>
      </trkpt>
      <trkpt lat="43.34663" lon="-1.6359">
        <ele>60.693638</ele>
        <time>2022-07-19T13:50:42.007Z</time>
      </trkpt>
      <trkpt lat="43.34601" lon="-1.63502">
        <ele>59.897008</ele>
        <time>2022-07-19T13:50:56.952Z</time>
      </trkpt>
      <trkpt lat="43.34589" lon="-1.635">
        <ele>59.460115</ele>
        <time>2022-07-19T13:50:58.645Z</time>
      </trkpt>
      <trkpt lat="43.34581" lon="-1.63499">
        <ele>59.111926</ele>
        <time>2022-07-19T13:50:59.923Z</time>
      </trkpt>
      <trkpt lat="43.34561" lon="-1.63513">
        <ele>58.261551</ele>
        <time>2022-07-19T13:51:02.965Z</time>
      </trkpt>
      <trkpt lat="43.34522" lon="-1.63421">
        <ele>55.235513</ele>
        <time>2022-07-19T13:51:13.430Z</time>
      </trkpt>
      <trkpt lat="43.34496" lon="-1.63377">
        <ele>52.82445</ele>
        <time>2022-07-19T13:51:18.661Z</time>
      </trkpt>
      <trkpt lat="43.34483" lon="-1.63336">
        <ele>49.809597</ele>
        <time>2022-07-19T13:51:22.717Z</time>
      </trkpt>
      <trkpt lat="43.3448" lon="-1.63283">
        <ele>46.273631</ele>
        <time>2022-07-19T13:51:27.327Z</time>
      </trkpt>
      <trkpt lat="43.3447" lon="-1.63244">
        <ele>43.479997</ele>
        <time>2022-07-19T13:51:30.926Z</time>
      </trkpt>
      <trkpt lat="43.34457" lon="-1.63214">
        <ele>41.169967</ele>
        <time>2022-07-19T13:51:33.888Z</time>
      </trkpt>
      <trkpt lat="43.34422" lon="-1.63185">
        <ele>37.349396</ele>
        <time>2022-07-19T13:51:38.757Z</time>
      </trkpt>
      <trkpt lat="43.34342" lon="-1.63069">
        <ele>26.509198</ele>
        <time>2022-07-19T13:51:52.456Z</time>
      </trkpt>
      <trkpt lat="43.34325" lon="-1.63063">
        <ele>24.86917</ele>
        <time>2022-07-19T13:51:54.574Z</time>
      </trkpt>
      <trkpt lat="43.34344" lon="-1.62964">
        <ele>20.145116</ele>
        <time>2022-07-19T13:52:03.380Z</time>
      </trkpt>
      <trkpt lat="43.3436" lon="-1.628">
        <ele>17.258322</ele>
        <time>2022-07-19T13:52:21.085Z</time>
      </trkpt>
      <trkpt lat="43.34361" lon="-1.62649">
        <ele>18.340548</ele>
        <time>2022-07-19T13:52:50.722Z</time>
      </trkpt>
      <trkpt lat="43.34361" lon="-1.62626">
        <ele>18.700467</ele>
        <time>2022-07-19T13:52:55.774Z</time>
      </trkpt>
      <trkpt lat="43.34367" lon="-1.6258">
        <ele>19.426069</ele>
        <time>2022-07-19T13:53:05.263Z</time>
      </trkpt>
      <trkpt lat="43.34386" lon="-1.62512">
        <ele>20.500694</ele>
        <time>2022-07-19T13:53:19.459Z</time>
      </trkpt>
      <trkpt lat="43.3441" lon="-1.62438">
        <ele>21.265481</ele>
        <time>2022-07-19T13:53:35.001Z</time>
      </trkpt>
      <trkpt lat="43.34446" lon="-1.6238">
        <ele>21.973859</ele>
        <time>2022-07-19T13:53:47.251Z</time>
      </trkpt>
      <trkpt lat="43.34448" lon="-1.62357">
        <ele>22.195463</ele>
        <time>2022-07-19T13:53:51.050Z</time>
      </trkpt>
      <trkpt lat="43.34445" lon="-1.6231">
        <ele>22.632492</ele>
        <time>2022-07-19T13:53:57.881Z</time>
      </trkpt>
      <trkpt lat="43.3446" lon="-1.62219">
        <ele>22.201853</ele>
        <time>2022-07-19T13:54:10.318Z</time>
      </trkpt>
      <trkpt lat="43.34506" lon="-1.62209">
        <ele>21.776282</ele>
        <time>2022-07-19T13:54:18.410Z</time>
      </trkpt>
      <trkpt lat="43.34522" lon="-1.62189">
        <ele>21.583848</ele>
        <time>2022-07-19T13:54:21.745Z</time>
      </trkpt>
      <trkpt lat="43.34527" lon="-1.62169">
        <ele>21.445766</ele>
        <time>2022-07-19T13:54:24.203Z</time>
      </trkpt>
      <trkpt lat="43.34531" lon="-1.62111">
        <ele>21.018825</ele>
        <time>2022-07-19T13:54:30.680Z</time>
      </trkpt>
      <trkpt lat="43.34539" lon="-1.62084">
        <ele>20.65645</ele>
        <time>2022-07-19T13:54:33.765Z</time>
      </trkpt>
      <trkpt lat="43.3455" lon="-1.62071">
        <ele>20.417173</ele>
        <time>2022-07-19T13:54:36.078Z</time>
      </trkpt>
      <trkpt lat="43.34556" lon="-1.62046">
        <ele>20.098914</ele>
        <time>2022-07-19T13:54:38.761Z</time>
      </trkpt>
      <trkpt lat="43.34573" lon="-1.6196">
        <ele>19.000906</ele>
        <time>2022-07-19T13:54:48.581Z</time>
      </trkpt>
      <trkpt lat="43.34591" lon="-1.61849">
        <ele>19.005999</ele>
        <time>2022-07-19T13:55:02.598Z</time>
      </trkpt>
      <trkpt lat="43.34593" lon="-1.6183">
        <ele>19.455041</ele>
        <time>2022-07-19T13:55:05.645Z</time>
      </trkpt>
      <trkpt lat="43.34595" lon="-1.61817">
        <ele>19.782243</ele>
        <time>2022-07-19T13:55:08.403Z</time>
      </trkpt>
      <trkpt lat="43.34597" lon="-1.61804">
        <ele>20.095405</ele>
        <time>2022-07-19T13:55:11.256Z</time>
      </trkpt>
      <trkpt lat="43.34597" lon="-1.618">
        <ele>20.181964</ele>
        <time>2022-07-19T13:55:12.062Z</time>
      </trkpt>
      <trkpt lat="43.34613" lon="-1.61725">
        <ele>22.037905</ele>
        <time>2022-07-19T13:55:29.289Z</time>
      </trkpt>
      <trkpt lat="43.3461" lon="-1.61685">
        <ele>22.981651</ele>
        <time>2022-07-19T13:55:40.785Z</time>
      </trkpt>
      <trkpt lat="43.34595" lon="-1.6166">
        <ele>23.755014</ele>
        <time>2022-07-19T13:55:52.592Z</time>
      </trkpt>
      <trkpt lat="43.34586" lon="-1.61591">
        <ele>26.511358</ele>
        <time>2022-07-19T13:56:17.892Z</time>
      </trkpt>
      <trkpt lat="43.34567" lon="-1.61553">
        <ele>28.431593</ele>
        <time>2022-07-19T13:56:33.223Z</time>
      </trkpt>
      <trkpt lat="43.34564" lon="-1.61518">
        <ele>29.887252</ele>
        <time>2022-07-19T13:56:44.757Z</time>
      </trkpt>
      <trkpt lat="43.34566" lon="-1.61392">
        <ele>34.201796</ele>
        <time>2022-07-19T13:57:19.098Z</time>
      </trkpt>
      <trkpt lat="43.34579" lon="-1.61386">
        <ele>34.25663</ele>
        <time>2022-07-19T13:57:21.527Z</time>
      </trkpt>
      <trkpt lat="43.34618" lon="-1.61421">
        <ele>34.441047</ele>
        <time>2022-07-19T13:57:34.059Z</time>
      </trkpt>
      <trkpt lat="43.34684" lon="-1.61467">
        <ele>34.737761</ele>
        <time>2022-07-19T13:57:46.544Z</time>
      </trkpt>
      <trkpt lat="43.34705" lon="-1.61494">
        <ele>34.851259</ele>
        <time>2022-07-19T13:57:50.535Z</time>
      </trkpt>
      <trkpt lat="43.34715" lon="-1.61533">
        <ele>34.280183</ele>
        <time>2022-07-19T13:57:55.303Z</time>
      </trkpt>
      <trkpt lat="43.34733" lon="-1.61542">
        <ele>33.931209</ele>
        <time>2022-07-19T13:57:58.230Z</time>
      </trkpt>
      <trkpt lat="43.34869" lon="-1.61565">
        <ele>31.292569</ele>
        <time>2022-07-19T13:58:19.351Z</time>
      </trkpt>
      <trkpt lat="43.34877" lon="-1.61534">
        <ele>30.760215</ele>
        <time>2022-07-19T13:58:23.115Z</time>
      </trkpt>
      <trkpt lat="43.34915" lon="-1.61527">
        <ele>29.896795</ele>
        <time>2022-07-19T13:58:29.224Z</time>
      </trkpt>
      <trkpt lat="43.34972" lon="-1.61557">
        <ele>28.505918</ele>
        <time>2022-07-19T13:58:38.142Z</time>
      </trkpt>
      <trkpt lat="43.3502" lon="-1.61567">
        <ele>27.406932</ele>
        <time>2022-07-19T13:58:45.265Z</time>
      </trkpt>
      <trkpt lat="43.35048" lon="-1.61542">
        <ele>27.477174</ele>
        <time>2022-07-19T13:58:50.405Z</time>
      </trkpt>
      <trkpt lat="43.35086" lon="-1.6149">
        <ele>27.713896</ele>
        <time>2022-07-19T13:58:58.990Z</time>
      </trkpt>
      <trkpt lat="43.35092" lon="-1.61439">
        <ele>27.877145</ele>
        <time>2022-07-19T13:59:06.680Z</time>
      </trkpt>
      <trkpt lat="43.35107" lon="-1.61362">
        <ele>28.13216</ele>
        <time>2022-07-19T13:59:23.348Z</time>
      </trkpt>
      <trkpt lat="43.35119" lon="-1.6133">
        <ele>29.630572</ele>
        <time>2022-07-19T13:59:32.521Z</time>
      </trkpt>
      <trkpt lat="43.35182" lon="-1.61245">
        <ele>34.739318</ele>
        <time>2022-07-19T14:00:13.440Z</time>
      </trkpt>
      <trkpt lat="43.35221" lon="-1.61155">
        <ele>38.722977</ele>
        <time>2022-07-19T14:00:49.213Z</time>
      </trkpt>
      <trkpt lat="43.35328" lon="-1.61062">
        <ele>41.231766</ele>
        <time>2022-07-19T14:01:27.606Z</time>
      </trkpt>
      <trkpt lat="43.35332" lon="-1.6105">
        <ele>41.414864</ele>
        <time>2022-07-19T14:01:28.904Z</time>
      </trkpt>
      <trkpt lat="43.3537" lon="-1.61016">
        <ele>41.502317</ele>
        <time>2022-07-19T14:01:35.847Z</time>
      </trkpt>
      <trkpt lat="43.35386" lon="-1.61009">
        <ele>40.774241</ele>
        <time>2022-07-19T14:01:38.410Z</time>
      </trkpt>
      <trkpt lat="43.354" lon="-1.61012">
        <ele>40.182395</ele>
        <time>2022-07-19T14:01:40.206Z</time>
      </trkpt>
      <trkpt lat="43.35471" lon="-1.61054">
        <ele>36.865497</ele>
        <time>2022-07-19T14:01:50.580Z</time>
      </trkpt>
      <trkpt lat="43.35493" lon="-1.61071">
        <ele>35.778594</ele>
        <time>2022-07-19T14:01:53.876Z</time>
      </trkpt>
      <trkpt lat="43.35505" lon="-1.61073">
        <ele>35.245124</ele>
        <time>2022-07-19T14:01:55.501Z</time>
      </trkpt>
      <trkpt lat="43.3554" lon="-1.61066">
        <ele>33.826163</ele>
        <time>2022-07-19T14:02:00.036Z</time>
      </trkpt>
      <trkpt lat="43.35568" lon="-1.61079">
        <ele>32.735186</ele>
        <time>2022-07-19T14:02:04.054Z</time>
      </trkpt>
      <trkpt lat="43.35581" lon="-1.61055">
        <ele>31.950581</ele>
        <time>2022-07-19T14:02:06.923Z</time>
      </trkpt>
      <trkpt lat="43.35583" lon="-1.60935">
        <ele>28.784941</ele>
        <time>2022-07-19T14:02:19.256Z</time>
      </trkpt>
      <trkpt lat="43.35595" lon="-1.60901">
        <ele>27.797014</ele>
        <time>2022-07-19T14:02:23.399Z</time>
      </trkpt>
      <trkpt lat="43.35606" lon="-1.60824">
        <ele>28.73081</ele>
        <time>2022-07-19T14:02:33.971Z</time>
      </trkpt>
      <trkpt lat="43.35623" lon="-1.60759">
        <ele>29.555778</ele>
        <time>2022-07-19T14:02:46.721Z</time>
      </trkpt>
      <trkpt lat="43.35621" lon="-1.60721">
        <ele>30.008377</ele>
        <time>2022-07-19T14:02:55.103Z</time>
      </trkpt>
      <trkpt lat="43.3565" lon="-1.60636">
        <ele>31.384295</ele>
        <time>2022-07-19T14:03:19.217Z</time>
      </trkpt>
      <trkpt lat="43.35663" lon="-1.60574">
        <ele>32.647677</ele>
        <time>2022-07-19T14:03:36.134Z</time>
      </trkpt>
      <trkpt lat="43.35736" lon="-1.60487">
        <ele>35.282406</ele>
        <time>2022-07-19T14:04:04.524Z</time>
      </trkpt>
      <trkpt lat="43.35773" lon="-1.60432">
        <ele>34.752938</ele>
        <time>2022-07-19T14:04:14.266Z</time>
      </trkpt>
      <trkpt lat="43.35829" lon="-1.60296">
        <ele>32.359404</ele>
        <time>2022-07-19T14:04:30.903Z</time>
      </trkpt>
      <trkpt lat="43.35843" lon="-1.60222">
        <ele>30.920211</ele>
        <time>2022-07-19T14:04:38.515Z</time>
      </trkpt>
      <trkpt lat="43.35834" lon="-1.60127">
        <ele>28.818104</ele>
        <time>2022-07-19T14:04:48.321Z</time>
      </trkpt>
      <trkpt lat="43.35831" lon="-1.60093">
        <ele>28.050647</ele>
        <time>2022-07-19T14:04:51.963Z</time>
      </trkpt>
      <trkpt lat="43.3584" lon="-1.6">
        <ele>26.274266</ele>
        <time>2022-07-19T14:05:02.135Z</time>
      </trkpt>
      <trkpt lat="43.35885" lon="-1.5991">
        <ele>25.501859</ele>
        <time>2022-07-19T14:05:15.336Z</time>
      </trkpt>
      <trkpt lat="43.35908" lon="-1.5988">
        <ele>25.190937</ele>
        <time>2022-07-19T14:05:21.129Z</time>
      </trkpt>
      <trkpt lat="43.35939" lon="-1.59862">
        <ele>24.861778</ele>
        <time>2022-07-19T14:05:27.022Z</time>
      </trkpt>
      <trkpt lat="43.35982" lon="-1.59778">
        <ele>24.399131</ele>
        <time>2022-07-19T14:05:40.054Z</time>
      </trkpt>
      <trkpt lat="43.3599" lon="-1.59768">
        <ele>24.351356</ele>
        <time>2022-07-19T14:05:41.642Z</time>
      </trkpt>
      <trkpt lat="43.3604" lon="-1.59741">
        <ele>24.095997</ele>
        <time>2022-07-19T14:05:51.204Z</time>
      </trkpt>
      <trkpt lat="43.36089" lon="-1.59686">
        <ele>23.789556</ele>
        <time>2022-07-19T14:06:02.427Z</time>
      </trkpt>
      <trkpt lat="43.36104" lon="-1.5965">
        <ele>23.572224</ele>
        <time>2022-07-19T14:06:07.586Z</time>
      </trkpt>
      <trkpt lat="43.36106" lon="-1.5963">
        <ele>23.464136</ele>
        <time>2022-07-19T14:06:10.245Z</time>
      </trkpt>
      <trkpt lat="43.36099" lon="-1.59568">
        <ele>23.137022</ele>
        <time>2022-07-19T14:06:18.376Z</time>
      </trkpt>
      <trkpt lat="43.36175" lon="-1.59493">
        <ele>22.346219</ele>
        <time>2022-07-19T14:06:34.287Z</time>
      </trkpt>
      <trkpt lat="43.36223" lon="-1.59462">
        <ele>20.786038</ele>
        <time>2022-07-19T14:06:42.452Z</time>
      </trkpt>
      <trkpt lat="43.36243" lon="-1.59437">
        <ele>19.976262</ele>
        <time>2022-07-19T14:06:46.385Z</time>
      </trkpt>
      <trkpt lat="43.36274" lon="-1.59389">
        <ele>18.581866</ele>
        <time>2022-07-19T14:06:52.999Z</time>
      </trkpt>
      <trkpt lat="43.36292" lon="-1.59363">
        <ele>17.820989</ele>
        <time>2022-07-19T14:06:56.476Z</time>
      </trkpt>
      <trkpt lat="43.36396" lon="-1.59207">
        <ele>12.964585</ele>
        <time>2022-07-19T14:07:17.675Z</time>
      </trkpt>
      <trkpt lat="43.36451" lon="-1.59101">
        <ele>11.848119</ele>
        <time>2022-07-19T14:07:33.308Z</time>
      </trkpt>
      <trkpt lat="43.36464" lon="-1.59075">
        <ele>12.052047</ele>
        <time>2022-07-19T14:07:38.065Z</time>
      </trkpt>
      <trkpt lat="43.36483" lon="-1.59044">
        <ele>12.31361</ele>
        <time>2022-07-19T14:07:45.024Z</time>
      </trkpt>
      <trkpt lat="43.36461" lon="-1.58976">
        <ele>12.794575</ele>
        <time>2022-07-19T14:07:59.496Z</time>
      </trkpt>
      <trkpt lat="43.36427" lon="-1.58913">
        <ele>13.137939</ele>
        <time>2022-07-19T14:08:14.968Z</time>
      </trkpt>
      <trkpt lat="43.36403" lon="-1.58885">
        <ele>13.255779</ele>
        <time>2022-07-19T14:08:22.871Z</time>
      </trkpt>
      <trkpt lat="43.36309" lon="-1.588">
        <ele>13.669156</ele>
        <time>2022-07-19T14:08:42.042Z</time>
      </trkpt>
      <trkpt lat="43.3628" lon="-1.58766">
        <ele>13.310269</ele>
        <time>2022-07-19T14:08:47.862Z</time>
      </trkpt>
      <trkpt lat="43.36258" lon="-1.58723">
        <ele>12.862486</ele>
        <time>2022-07-19T14:08:53.547Z</time>
      </trkpt>
      <trkpt lat="43.36233" lon="-1.58645">
        <ele>12.131923</ele>
        <time>2022-07-19T14:09:02.831Z</time>
      </trkpt>
      <trkpt lat="43.3614" lon="-1.58363">
        <ele>10.979279</ele>
        <time>2022-07-19T14:09:41.064Z</time>
      </trkpt>
      <trkpt lat="43.36129" lon="-1.58341">
        <ele>11.005554</ele>
        <time>2022-07-19T14:09:44.762Z</time>
      </trkpt>
      <trkpt lat="43.36109" lon="-1.58302">
        <ele>11.069433</ele>
        <time>2022-07-19T14:09:51.347Z</time>
      </trkpt>
      <trkpt lat="43.36004" lon="-1.58147">
        <ele>11.328451</ele>
        <time>2022-07-19T14:10:20.253Z</time>
      </trkpt>
      <trkpt lat="43.35991" lon="-1.5813">
        <ele>11.34293</ele>
        <time>2022-07-19T14:10:23.504Z</time>
      </trkpt>
      <trkpt lat="43.35895" lon="-1.57993">
        <ele>11.4576</ele>
        <time>2022-07-19T14:10:48.355Z</time>
      </trkpt>
      <trkpt lat="43.35853" lon="-1.57913">
        <ele>11.542824</ele>
        <time>2022-07-19T14:11:01.029Z</time>
      </trkpt>
      <trkpt lat="43.35839" lon="-1.57869">
        <ele>11.584307</ele>
        <time>2022-07-19T14:11:07.336Z</time>
      </trkpt>
      <trkpt lat="43.35808" lon="-1.57719">
        <ele>11.917732</ele>
        <time>2022-07-19T14:11:29.054Z</time>
      </trkpt>
      <trkpt lat="43.35783" lon="-1.57586">
        <ele>12.502685</ele>
        <time>2022-07-19T14:11:49.272Z</time>
      </trkpt>
      <trkpt lat="43.35779" lon="-1.57525">
        <ele>12.76314</ele>
        <time>2022-07-19T14:11:58.447Z</time>
      </trkpt>
      <trkpt lat="43.35774" lon="-1.5748">
        <ele>12.965632</ele>
        <time>2022-07-19T14:12:05.511Z</time>
      </trkpt>
      <trkpt lat="43.35769" lon="-1.57469">
        <ele>13.022917</ele>
        <time>2022-07-19T14:12:07.520Z</time>
      </trkpt>
      <trkpt lat="43.35772" lon="-1.57458">
        <ele>13.070598</ele>
        <time>2022-07-19T14:12:09.152Z</time>
      </trkpt>
      <trkpt lat="43.35767" lon="-1.57433">
        <ele>13.186395</ele>
        <time>2022-07-19T14:12:13.171Z</time>
      </trkpt>
      <trkpt lat="43.35756" lon="-1.57342">
        <ele>13.591792</ele>
        <time>2022-07-19T14:12:26.541Z</time>
      </trkpt>
      <trkpt lat="43.35751" lon="-1.57286">
        <ele>13.839011</ele>
        <time>2022-07-19T14:12:34.274Z</time>
      </trkpt>
      <trkpt lat="43.35745" lon="-1.57225">
        <ele>14.12192</ele>
        <time>2022-07-19T14:12:42.957Z</time>
      </trkpt>
      <trkpt lat="43.35734" lon="-1.5716">
        <ele>14.430452</ele>
        <time>2022-07-19T14:12:53.017Z</time>
      </trkpt>
      <trkpt lat="43.35724" lon="-1.57131">
        <ele>14.57529</ele>
        <time>2022-07-19T14:12:57.762Z</time>
      </trkpt>
      <trkpt lat="43.35682" lon="-1.57042">
        <ele>15.140969</ele>
        <time>2022-07-19T14:13:14.033Z</time>
      </trkpt>
      <trkpt lat="43.35665" lon="-1.57006">
        <ele>15.457964</ele>
        <time>2022-07-19T14:13:20.430Z</time>
      </trkpt>
      <trkpt lat="43.35626" lon="-1.56922">
        <ele>16.196646</ele>
        <time>2022-07-19T14:13:36.151Z</time>
      </trkpt>
      <trkpt lat="43.35618" lon="-1.56909">
        <ele>16.318178</ele>
        <time>2022-07-19T14:13:38.806Z</time>
      </trkpt>
      <trkpt lat="43.35589" lon="-1.5685">
        <ele>16.821901</ele>
        <time>2022-07-19T14:13:50.938Z</time>
      </trkpt>
      <trkpt lat="43.35586" lon="-1.56813">
        <ele>17.005839</ele>
        <time>2022-07-19T14:13:57.336Z</time>
      </trkpt>
      <trkpt lat="43.3559" lon="-1.56787">
        <ele>17.136541</ele>
        <time>2022-07-19T14:14:01.593Z</time>
      </trkpt>
      <trkpt lat="43.35618" lon="-1.56692">
        <ele>17.638289</ele>
        <time>2022-07-19T14:14:16.655Z</time>
      </trkpt>
      <trkpt lat="43.3562" lon="-1.56681">
        <ele>17.692827</ele>
        <time>2022-07-19T14:14:18.202Z</time>
      </trkpt>
      <trkpt lat="43.35626" lon="-1.56626">
        <ele>17.965011</ele>
        <time>2022-07-19T14:14:25.771Z</time>
      </trkpt>
      <trkpt lat="43.35625" lon="-1.56614">
        <ele>17.965222</ele>
        <time>2022-07-19T14:14:27.243Z</time>
      </trkpt>
      <trkpt lat="43.35616" lon="-1.56601">
        <ele>17.921067</ele>
        <time>2022-07-19T14:14:29.735Z</time>
      </trkpt>
      <trkpt lat="43.35625" lon="-1.56587">
        <ele>17.875582</ele>
        <time>2022-07-19T14:14:32.351Z</time>
      </trkpt>
      <trkpt lat="43.35624" lon="-1.56576">
        <ele>17.848906</ele>
        <time>2022-07-19T14:14:33.743Z</time>
      </trkpt>
      <trkpt lat="43.35622" lon="-1.56509">
        <ele>17.687825</ele>
        <time>2022-07-19T14:14:42.256Z</time>
      </trkpt>
      <trkpt lat="43.35617" lon="-1.56498">
        <ele>17.65579</ele>
        <time>2022-07-19T14:14:45.093Z</time>
      </trkpt>
      <trkpt lat="43.35613" lon="-1.56369">
        <ele>17.295456</ele>
        <time>2022-07-19T14:15:11.427Z</time>
      </trkpt>
      <trkpt lat="43.3561" lon="-1.56264">
        <ele>16.753987</ele>
        <time>2022-07-19T14:15:32.687Z</time>
      </trkpt>
      <trkpt lat="43.35611" lon="-1.56201">
        <ele>16.425868</ele>
        <time>2022-07-19T14:15:45.585Z</time>
      </trkpt>
      <trkpt lat="43.35619" lon="-1.56124">
        <ele>16.073282</ele>
        <time>2022-07-19T14:16:01.520Z</time>
      </trkpt>
      <trkpt lat="43.35649" lon="-1.56079">
        <ele>15.943223</ele>
        <time>2022-07-19T14:16:14.198Z</time>
      </trkpt>
      <trkpt lat="43.35642" lon="-1.56065">
        <ele>15.906589</ele>
        <time>2022-07-19T14:16:16.273Z</time>
      </trkpt>
      <trkpt lat="43.35629" lon="-1.56039">
        <ele>15.839433</ele>
        <time>2022-07-19T14:16:21.457Z</time>
      </trkpt>
      <trkpt lat="43.35606" lon="-1.56001">
        <ele>15.733619</ele>
        <time>2022-07-19T14:16:27.808Z</time>
      </trkpt>
      <trkpt lat="43.356" lon="-1.55993">
        <ele>15.709772</ele>
        <time>2022-07-19T14:16:29.274Z</time>
      </trkpt>
      <trkpt lat="43.35597" lon="-1.55987">
        <ele>15.694561</ele>
        <time>2022-07-19T14:16:30.296Z</time>
      </trkpt>
      <trkpt lat="43.35591" lon="-1.55957">
        <ele>15.628182</ele>
        <time>2022-07-19T14:16:34.845Z</time>
      </trkpt>
      <trkpt lat="43.35585" lon="-1.55953">
        <ele>15.608068</ele>
        <time>2022-07-19T14:16:36.086Z</time>
      </trkpt>
      <trkpt lat="43.35548" lon="-1.55943">
        <ele>15.738925</ele>
        <time>2022-07-19T14:16:43.631Z</time>
      </trkpt>
      <trkpt lat="43.35482" lon="-1.55936">
        <ele>16.116097</ele>
        <time>2022-07-19T14:16:56.973Z</time>
      </trkpt>
      <trkpt lat="43.35463" lon="-1.55919">
        <ele>16.2435</ele>
        <time>2022-07-19T14:17:02.069Z</time>
      </trkpt>
      <trkpt lat="43.35475" lon="-1.55903">
        <ele>16.336628</ele>
        <time>2022-07-19T14:17:05.275Z</time>
      </trkpt>
      <trkpt lat="43.35463" lon="-1.55863">
        <ele>16.517227</ele>
        <time>2022-07-19T14:17:12.084Z</time>
      </trkpt>
      <trkpt lat="43.3544" lon="-1.55828">
        <ele>16.739107</ele>
        <time>2022-07-19T14:17:19.699Z</time>
      </trkpt>
      <trkpt lat="43.35411" lon="-1.55801">
        <ele>16.991914</ele>
        <time>2022-07-19T14:17:27.748Z</time>
      </trkpt>
      <trkpt lat="43.35396" lon="-1.55777">
        <ele>17.148937</ele>
        <time>2022-07-19T14:17:33.049Z</time>
      </trkpt>
      <trkpt lat="43.35364" lon="-1.55678">
        <ele>17.708374</ele>
        <time>2022-07-19T14:17:49.119Z</time>
      </trkpt>
      <trkpt lat="43.35343" lon="-1.55598">
        <ele>17.894047</ele>
        <time>2022-07-19T14:18:02.040Z</time>
      </trkpt>
      <trkpt lat="43.35325" lon="-1.55557">
        <ele>17.911266</ele>
        <time>2022-07-19T14:18:09.287Z</time>
      </trkpt>
      <trkpt lat="43.35285" lon="-1.55483">
        <ele>17.944547</ele>
        <time>2022-07-19T14:18:21.708Z</time>
      </trkpt>
      <trkpt lat="43.35257" lon="-1.55333">
        <ele>17.588154</ele>
        <time>2022-07-19T14:18:40.880Z</time>
      </trkpt>
      <trkpt lat="43.35248" lon="-1.55318">
        <ele>17.511047</ele>
        <time>2022-07-19T14:18:43.330Z</time>
      </trkpt>
      <trkpt lat="43.35214" lon="-1.55254">
        <ele>17.215534</ele>
        <time>2022-07-19T14:18:53.520Z</time>
      </trkpt>
      <trkpt lat="43.35199" lon="-1.55244">
        <ele>17.131122</ele>
        <time>2022-07-19T14:18:56.286Z</time>
      </trkpt>
      <trkpt lat="43.35105" lon="-1.55262">
        <ele>17.638526</ele>
        <time>2022-07-19T14:19:13.897Z</time>
      </trkpt>
      <trkpt lat="43.34994" lon="-1.55257">
        <ele>18.740994</ele>
        <time>2022-07-19T14:19:39.093Z</time>
      </trkpt>
      <trkpt lat="43.34963" lon="-1.55249">
        <ele>19.955214</ele>
        <time>2022-07-19T14:19:48.421Z</time>
      </trkpt>
      <trkpt lat="43.34858" lon="-1.55229">
        <ele>24.020312</ele>
        <time>2022-07-19T14:20:26.401Z</time>
      </trkpt>
      <trkpt lat="43.34859" lon="-1.55221">
        <ele>24.252035</ele>
        <time>2022-07-19T14:20:28.449Z</time>
      </trkpt>
      <trkpt lat="43.34866" lon="-1.55185">
        <ele>25.286298</ele>
        <time>2022-07-19T14:20:39.864Z</time>
      </trkpt>
      <trkpt lat="43.34869" lon="-1.55176">
        <ele>25.608107</ele>
        <time>2022-07-19T14:20:42.379Z</time>
      </trkpt>
      <trkpt lat="43.34863" lon="-1.55171">
        <ele>25.910438</ele>
        <time>2022-07-19T14:20:44.680Z</time>
      </trkpt>
      <trkpt lat="43.34846" lon="-1.55155">
        <ele>26.830538</ele>
        <time>2022-07-19T14:20:53.413Z</time>
      </trkpt>
      <trkpt lat="43.34846" lon="-1.55138">
        <ele>27.378167</ele>
        <time>2022-07-19T14:20:57.134Z</time>
      </trkpt>
      <trkpt lat="43.34855" lon="-1.55117">
        <ele>28.174172</ele>
        <time>2022-07-19T14:21:04.451Z</time>
      </trkpt>
      <trkpt lat="43.34874" lon="-1.55101">
        <ele>29.140149</ele>
        <time>2022-07-19T14:21:12.174Z</time>
      </trkpt>
      <trkpt lat="43.34904" lon="-1.55034">
        <ele>31.652609</ele>
        <time>2022-07-19T14:21:35.009Z</time>
      </trkpt>
      <trkpt lat="43.34915" lon="-1.54986">
        <ele>33.210046</ele>
        <time>2022-07-19T14:21:47.005Z</time>
      </trkpt>
      <trkpt lat="43.34925" lon="-1.54965">
        <ele>33.339335</ele>
        <time>2022-07-19T14:21:51.085Z</time>
      </trkpt>
      <trkpt lat="43.34904" lon="-1.54965">
        <ele>33.490761</ele>
        <time>2022-07-19T14:21:57.455Z</time>
      </trkpt>
      <trkpt lat="43.34873" lon="-1.54919">
        <ele>33.806579</ele>
        <time>2022-07-19T14:22:08.316Z</time>
      </trkpt>
      <trkpt lat="43.34778" lon="-1.54836">
        <ele>34.072908</ele>
        <time>2022-07-19T14:22:27.766Z</time>
      </trkpt>
      <trkpt lat="43.34755" lon="-1.54793">
        <ele>33.284801</ele>
        <time>2022-07-19T14:22:33.891Z</time>
      </trkpt>
      <trkpt lat="43.34744" lon="-1.5475">
        <ele>32.614996</ele>
        <time>2022-07-19T14:22:38.824Z</time>
      </trkpt>
      <trkpt lat="43.3472" lon="-1.54693">
        <ele>31.643153</ele>
        <time>2022-07-19T14:22:45.779Z</time>
      </trkpt>
      <trkpt lat="43.34693" lon="-1.54605">
        <ele>30.629724</ele>
        <time>2022-07-19T14:22:56.304Z</time>
      </trkpt>
      <trkpt lat="43.34685" lon="-1.54548">
        <ele>30.388984</ele>
        <time>2022-07-19T14:23:02.752Z</time>
      </trkpt>
      <trkpt lat="43.34678" lon="-1.54494">
        <ele>30.157355</ele>
        <time>2022-07-19T14:23:09.822Z</time>
      </trkpt>
      <trkpt lat="43.34688" lon="-1.54482">
        <ele>30.077825</ele>
        <time>2022-07-19T14:23:12.884Z</time>
      </trkpt>
      <trkpt lat="43.34678" lon="-1.5443">
        <ele>29.853224</ele>
        <time>2022-07-19T14:23:21.355Z</time>
      </trkpt>
      <trkpt lat="43.34674" lon="-1.54364">
        <ele>30.129182</ele>
        <time>2022-07-19T14:23:31.520Z</time>
      </trkpt>
      <trkpt lat="43.34673" lon="-1.54279">
        <ele>30.843518</ele>
        <time>2022-07-19T14:23:46.863Z</time>
      </trkpt>
      <trkpt lat="43.34667" lon="-1.54235">
        <ele>31.219909</ele>
        <time>2022-07-19T14:23:54.621Z</time>
      </trkpt>
      <trkpt lat="43.3465" lon="-1.54177">
        <ele>31.744072</ele>
        <time>2022-07-19T14:24:04.341Z</time>
      </trkpt>
      <trkpt lat="43.34591" lon="-1.54058">
        <ele>32.239995</ele>
        <time>2022-07-19T14:24:24.924Z</time>
      </trkpt>
      <trkpt lat="43.34579" lon="-1.54024">
        <ele>32.349951</ele>
        <time>2022-07-19T14:24:29.598Z</time>
      </trkpt>
      <trkpt lat="43.34568" lon="-1.53959">
        <ele>32.552069</ele>
        <time>2022-07-19T14:24:38.775Z</time>
      </trkpt>
      <trkpt lat="43.34568" lon="-1.53905">
        <ele>32.891625</ele>
        <time>2022-07-19T14:24:46.365Z</time>
      </trkpt>
      <trkpt lat="43.34565" lon="-1.53861">
        <ele>33.200108</ele>
        <time>2022-07-19T14:24:52.738Z</time>
      </trkpt>
      <trkpt lat="43.34524" lon="-1.53674">
        <ele>34.603984</ele>
        <time>2022-07-19T14:25:25.582Z</time>
      </trkpt>
      <trkpt lat="43.34488" lon="-1.53413">
        <ele>36.231068</ele>
        <time>2022-07-19T14:26:08.537Z</time>
      </trkpt>
      <trkpt lat="43.34462" lon="-1.53096">
        <ele>35.91678</ele>
        <time>2022-07-19T14:26:47.445Z</time>
      </trkpt>
      <trkpt lat="43.34452" lon="-1.53016">
        <ele>35.775273</ele>
        <time>2022-07-19T14:26:57.596Z</time>
      </trkpt>
      <trkpt lat="43.3444" lon="-1.5296">
        <ele>35.884736</ele>
        <time>2022-07-19T14:27:05.248Z</time>
      </trkpt>
      <trkpt lat="43.34412" lon="-1.52904">
        <ele>36.514534</ele>
        <time>2022-07-19T14:27:15.470Z</time>
      </trkpt>
      <trkpt lat="43.3436" lon="-1.52813">
        <ele>37.601106</ele>
        <time>2022-07-19T14:27:35.653Z</time>
      </trkpt>
      <trkpt lat="43.34345" lon="-1.52803">
        <ele>37.817456</ele>
        <time>2022-07-19T14:27:40.118Z</time>
      </trkpt>
      <trkpt lat="43.34331" lon="-1.52804">
        <ele>37.996378</ele>
        <time>2022-07-19T14:27:43.768Z</time>
      </trkpt>
      <trkpt lat="43.3432" lon="-1.52788">
        <ele>38.278637</ele>
        <time>2022-07-19T14:27:47.989Z</time>
      </trkpt>
      <trkpt lat="43.34323" lon="-1.52766">
        <ele>38.591679</ele>
        <time>2022-07-19T14:27:52.303Z</time>
      </trkpt>
      <trkpt lat="43.34321" lon="-1.52744">
        <ele>38.901848</ele>
        <time>2022-07-19T14:27:56.642Z</time>
      </trkpt>
      <trkpt lat="43.34317" lon="-1.52737">
        <ele>39.037187</ele>
        <time>2022-07-19T14:27:58.610Z</time>
      </trkpt>
      <trkpt lat="43.3431" lon="-1.52726">
        <ele>39.239648</ele>
        <time>2022-07-19T14:28:01.298Z</time>
      </trkpt>
      <trkpt lat="43.34276" lon="-1.52667">
        <ele>40.297476</ele>
        <time>2022-07-19T14:28:15.774Z</time>
      </trkpt>
      <trkpt lat="43.34271" lon="-1.5266">
        <ele>40.435697</ele>
        <time>2022-07-19T14:28:17.724Z</time>
      </trkpt>
      <trkpt lat="43.34244" lon="-1.52613">
        <ele>41.269113</ele>
        <time>2022-07-19T14:28:28.486Z</time>
      </trkpt>
      <trkpt lat="43.34167" lon="-1.52488">
        <ele>42.299893</ele>
        <time>2022-07-19T14:28:54.968Z</time>
      </trkpt>
      <trkpt lat="43.34149" lon="-1.52453">
        <ele>42.531635</ele>
        <time>2022-07-19T14:29:00.856Z</time>
      </trkpt>
      <trkpt lat="43.34142" lon="-1.52436">
        <ele>42.634292</ele>
        <time>2022-07-19T14:29:03.347Z</time>
      </trkpt>
      <trkpt lat="43.3409" lon="-1.52312">
        <ele>42.838167</ele>
        <time>2022-07-19T14:29:21.769Z</time>
      </trkpt>
      <trkpt lat="43.34079" lon="-1.52288">
        <ele>42.838888</ele>
        <time>2022-07-19T14:29:25.378Z</time>
      </trkpt>
      <trkpt lat="43.3398" lon="-1.52055">
        <ele>43.146325</ele>
        <time>2022-07-19T14:30:00.447Z</time>
      </trkpt>
      <trkpt lat="43.33975" lon="-1.5204">
        <ele>43.177752</ele>
        <time>2022-07-19T14:30:02.633Z</time>
      </trkpt>
      <trkpt lat="43.3397" lon="-1.52028">
        <ele>43.20486</ele>
        <time>2022-07-19T14:30:04.639Z</time>
      </trkpt>
      <trkpt lat="43.33846" lon="-1.51736">
        <ele>45.23605</ele>
        <time>2022-07-19T14:30:56.727Z</time>
      </trkpt>
      <trkpt lat="43.33835" lon="-1.5171">
        <ele>45.559333</ele>
        <time>2022-07-19T14:31:01.750Z</time>
      </trkpt>
      <trkpt lat="43.33773" lon="-1.51561">
        <ele>47.454047</ele>
        <time>2022-07-19T14:31:32.535Z</time>
      </trkpt>
      <trkpt lat="43.33748" lon="-1.51497">
        <ele>48.259453</ele>
        <time>2022-07-19T14:31:45.621Z</time>
      </trkpt>
      <trkpt lat="43.33643" lon="-1.51157">
        <ele>52.899686</ele>
        <time>2022-07-19T14:32:49.353Z</time>
      </trkpt>
      <trkpt lat="43.33624" lon="-1.5104">
        <ele>55.570541</ele>
        <time>2022-07-19T14:33:13.995Z</time>
      </trkpt>
      <trkpt lat="43.33587" lon="-1.50738">
        <ele>66.118595</ele>
        <time>2022-07-19T14:34:40.015Z</time>
      </trkpt>
      <trkpt lat="43.33598" lon="-1.50734">
        <ele>66.681821</ele>
        <time>2022-07-19T14:34:46.671Z</time>
      </trkpt>
      <trkpt lat="43.33602" lon="-1.50724">
        <ele>67.112771</ele>
        <time>2022-07-19T14:34:49.320Z</time>
      </trkpt>
      <trkpt lat="43.33604" lon="-1.50681">
        <ele>68.711334</ele>
        <time>2022-07-19T14:35:01.709Z</time>
      </trkpt>
      <trkpt lat="43.33613" lon="-1.50644">
        <ele>70.150085</ele>
        <time>2022-07-19T14:35:11.772Z</time>
      </trkpt>
      <trkpt lat="43.33631" lon="-1.50638">
        <ele>71.102026</ele>
        <time>2022-07-19T14:35:18.230Z</time>
      </trkpt>
      <trkpt lat="43.33656" lon="-1.50646">
        <ele>72.135096</ele>
        <time>2022-07-19T14:35:28.538Z</time>
      </trkpt>
      <trkpt lat="43.33733" lon="-1.50752">
        <ele>76.418838</ele>
        <time>2022-07-19T14:36:00.549Z</time>
      </trkpt>
      <trkpt lat="43.33736" lon="-1.50773">
        <ele>77.036941</ele>
        <time>2022-07-19T14:36:05.991Z</time>
      </trkpt>
      <trkpt lat="43.33732" lon="-1.50834">
        <ele>79.191373</ele>
        <time>2022-07-19T14:36:24.703Z</time>
      </trkpt>
      <trkpt lat="43.33739" lon="-1.50877">
        <ele>81.326024</ele>
        <time>2022-07-19T14:36:38.474Z</time>
      </trkpt>
      <trkpt lat="43.33762" lon="-1.5091">
        <ele>83.523115</ele>
        <time>2022-07-19T14:36:52.736Z</time>
      </trkpt>
      <trkpt lat="43.33799" lon="-1.50933">
        <ele>86.242539</ele>
        <time>2022-07-19T14:37:11.348Z</time>
      </trkpt>
      <trkpt lat="43.33824" lon="-1.50929">
        <ele>87.902958</ele>
        <time>2022-07-19T14:37:23.738Z</time>
      </trkpt>
      <trkpt lat="43.33831" lon="-1.50913">
        <ele>88.848408</ele>
        <time>2022-07-19T14:37:30.132Z</time>
      </trkpt>
      <trkpt lat="43.33832" lon="-1.50843">
        <ele>92.365379</ele>
        <time>2022-07-19T14:37:56.494Z</time>
      </trkpt>
      <trkpt lat="43.33835" lon="-1.5082">
        <ele>93.578876</ele>
        <time>2022-07-19T14:38:05.676Z</time>
      </trkpt>
      <trkpt lat="43.33879" lon="-1.50651">
        <ele>102.859315</ele>
        <time>2022-07-19T14:39:06.333Z</time>
      </trkpt>
      <trkpt lat="43.33889" lon="-1.50634">
        <ele>103.591803</ele>
        <time>2022-07-19T14:39:13.201Z</time>
      </trkpt>
      <trkpt lat="43.339" lon="-1.50625">
        <ele>104.112439</ele>
        <time>2022-07-19T14:39:18.255Z</time>
      </trkpt>
      <trkpt lat="43.33947" lon="-1.50617">
        <ele>106.06204</ele>
        <time>2022-07-19T14:39:36.268Z</time>
      </trkpt>
      <trkpt lat="43.33971" lon="-1.50605">
        <ele>107.089705</ele>
        <time>2022-07-19T14:39:44.903Z</time>
      </trkpt>
      <trkpt lat="43.33988" lon="-1.50594">
        <ele>107.876244</ele>
        <time>2022-07-19T14:39:51.157Z</time>
      </trkpt>
      <trkpt lat="43.34009" lon="-1.50567">
        <ele>109.069616</ele>
        <time>2022-07-19T14:39:59.822Z</time>
      </trkpt>
      <trkpt lat="43.34016" lon="-1.50545">
        <ele>109.791885</ele>
        <time>2022-07-19T14:40:04.962Z</time>
      </trkpt>
      <trkpt lat="43.34017" lon="-1.50525">
        <ele>110.401745</ele>
        <time>2022-07-19T14:40:08.933Z</time>
      </trkpt>
      <trkpt lat="43.34006" lon="-1.50366">
        <ele>114.309341</ele>
        <time>2022-07-19T14:40:40.832Z</time>
      </trkpt>
      <trkpt lat="43.34032" lon="-1.50217">
        <ele>119.584906</ele>
        <time>2022-07-19T14:41:23.649Z</time>
      </trkpt>
      <trkpt lat="43.34055" lon="-1.50153">
        <ele>123.04874</ele>
        <time>2022-07-19T14:41:50.049Z</time>
      </trkpt>
      <trkpt lat="43.34115" lon="-1.50049">
        <ele>128.778119</ele>
        <time>2022-07-19T14:42:35.632Z</time>
      </trkpt>
      <trkpt lat="43.34131" lon="-1.49987">
        <ele>130.125093</ele>
        <time>2022-07-19T14:42:56.848Z</time>
      </trkpt>
      <trkpt lat="43.34252" lon="-1.49764">
        <ele>130.743999</ele>
        <time>2022-07-19T14:43:38.288Z</time>
      </trkpt>
      <trkpt lat="43.34261" lon="-1.49738">
        <ele>130.095784</ele>
        <time>2022-07-19T14:43:41.166Z</time>
      </trkpt>
      <trkpt lat="43.34282" lon="-1.49654">
        <ele>128.142965</ele>
        <time>2022-07-19T14:43:49.473Z</time>
      </trkpt>
      <trkpt lat="43.34299" lon="-1.49515">
        <ele>119.73622</ele>
        <time>2022-07-19T14:44:02.037Z</time>
      </trkpt>
      <trkpt lat="43.34286" lon="-1.49419">
        <ele>113.582844</ele>
        <time>2022-07-19T14:44:10.542Z</time>
      </trkpt>
      <trkpt lat="43.34226" lon="-1.4917">
        <ele>97.686263</ele>
        <time>2022-07-19T14:44:33.739Z</time>
      </trkpt>
      <trkpt lat="43.34232" lon="-1.49127">
        <ele>96.010752</ele>
        <time>2022-07-19T14:44:37.864Z</time>
      </trkpt>
      <trkpt lat="43.34243" lon="-1.49108">
        <ele>95.14359</ele>
        <time>2022-07-19T14:44:40.198Z</time>
      </trkpt>
      <trkpt lat="43.34278" lon="-1.49074">
        <ele>93.017008</ele>
        <time>2022-07-19T14:44:46.000Z</time>
      </trkpt>
      <trkpt lat="43.34307" lon="-1.48998">
        <ele>89.909501</ele>
        <time>2022-07-19T14:44:54.565Z</time>
      </trkpt>
      <trkpt lat="43.34356" lon="-1.48972">
        <ele>87.656371</ele>
        <time>2022-07-19T14:45:01.903Z</time>
      </trkpt>
      <trkpt lat="43.34335" lon="-1.48834">
        <ele>84.033432</ele>
        <time>2022-07-19T14:45:15.990Z</time>
      </trkpt>
      <trkpt lat="43.34285" lon="-1.48566">
        <ele>79.536807</ele>
        <time>2022-07-19T14:45:45.518Z</time>
      </trkpt>
      <trkpt lat="43.34279" lon="-1.48545">
        <ele>79.255556</ele>
        <time>2022-07-19T14:45:48.486Z</time>
      </trkpt>
      <trkpt lat="43.34222" lon="-1.48304">
        <ele>82.743179</ele>
        <time>2022-07-19T14:46:41.947Z</time>
      </trkpt>
      <trkpt lat="43.34179" lon="-1.48031">
        <ele>86.500984</ele>
        <time>2022-07-19T14:47:40.933Z</time>
      </trkpt>
      <trkpt lat="43.34179" lon="-1.48009">
        <ele>85.914793</ele>
        <time>2022-07-19T14:47:43.484Z</time>
      </trkpt>
      <trkpt lat="43.34173" lon="-1.47998">
        <ele>85.530707</ele>
        <time>2022-07-19T14:47:45.224Z</time>
      </trkpt>
      <trkpt lat="43.34177" lon="-1.47989">
        <ele>85.264546</ele>
        <time>2022-07-19T14:47:46.728Z</time>
      </trkpt>
      <trkpt lat="43.34167" lon="-1.47961">
        <ele>84.43474</ele>
        <time>2022-07-19T14:47:49.888Z</time>
      </trkpt>
      <trkpt lat="43.34163" lon="-1.47901">
        <ele>82.775844</ele>
        <time>2022-07-19T14:47:55.906Z</time>
      </trkpt>
      <trkpt lat="43.34121" lon="-1.47821">
        <ele>80.064004</ele>
        <time>2022-07-19T14:48:04.905Z</time>
      </trkpt>
      <trkpt lat="43.34114" lon="-1.47798">
        <ele>79.156794</ele>
        <time>2022-07-19T14:48:07.155Z</time>
      </trkpt>
      <trkpt lat="43.34107" lon="-1.47703">
        <ele>75.735808</ele>
        <time>2022-07-19T14:48:16.067Z</time>
      </trkpt>
      <trkpt lat="43.34101" lon="-1.47564">
        <ele>71.22981</ele>
        <time>2022-07-19T14:48:30.229Z</time>
      </trkpt>
      <trkpt lat="43.34104" lon="-1.47551">
        <ele>71.144789</ele>
        <time>2022-07-19T14:48:31.593Z</time>
      </trkpt>
      <trkpt lat="43.34089" lon="-1.47538">
        <ele>70.988215</ele>
        <time>2022-07-19T14:48:34.538Z</time>
      </trkpt>
      <trkpt lat="43.34081" lon="-1.47547">
        <ele>70.900488</ele>
        <time>2022-07-19T14:48:36.035Z</time>
      </trkpt>
      <trkpt lat="43.34072" lon="-1.47542">
        <ele>70.812218</ele>
        <time>2022-07-19T14:48:37.680Z</time>
      </trkpt>
      <trkpt lat="43.34069" lon="-1.47529">
        <ele>70.721504</ele>
        <time>2022-07-19T14:48:40.040Z</time>
      </trkpt>
      <trkpt lat="43.3408" lon="-1.47518">
        <ele>70.605317</ele>
        <time>2022-07-19T14:48:42.525Z</time>
      </trkpt>
      <trkpt lat="43.34084" lon="-1.47434">
        <ele>70.055136</ele>
        <time>2022-07-19T14:48:54.435Z</time>
      </trkpt>
      <trkpt lat="43.34081" lon="-1.47417">
        <ele>69.941557</ele>
        <time>2022-07-19T14:48:56.361Z</time>
      </trkpt>
      <trkpt lat="43.34071" lon="-1.47328">
        <ele>69.025479</ele>
        <time>2022-07-19T14:49:07.115Z</time>
      </trkpt>
      <trkpt lat="43.34071" lon="-1.47314">
        <ele>68.850751</ele>
        <time>2022-07-19T14:49:08.579Z</time>
      </trkpt>
      <trkpt lat="43.34069" lon="-1.47299">
        <ele>68.673384</ele>
        <time>2022-07-19T14:49:10.155Z</time>
      </trkpt>
      <trkpt lat="43.34064" lon="-1.47292">
        <ele>68.549989</ele>
        <time>2022-07-19T14:49:11.440Z</time>
      </trkpt>
      <trkpt lat="43.34065" lon="-1.47273">
        <ele>68.319577</ele>
        <time>2022-07-19T14:49:13.413Z</time>
      </trkpt>
      <trkpt lat="43.34063" lon="-1.47256">
        <ele>68.104103</ele>
        <time>2022-07-19T14:49:15.259Z</time>
      </trkpt>
      <trkpt lat="43.34062" lon="-1.47249">
        <ele>68.018209</ele>
        <time>2022-07-19T14:49:16.047Z</time>
      </trkpt>
      <trkpt lat="43.34059" lon="-1.47242">
        <ele>67.918465</ele>
        <time>2022-07-19T14:49:17.014Z</time>
      </trkpt>
      <trkpt lat="43.34043" lon="-1.47206">
        <ele>67.402702</ele>
        <time>2022-07-19T14:49:21.280Z</time>
      </trkpt>
      <trkpt lat="43.33979" lon="-1.47069">
        <ele>66.153629</ele>
        <time>2022-07-19T14:49:38.595Z</time>
      </trkpt>
      <trkpt lat="43.33961" lon="-1.47042">
        <ele>65.963657</ele>
        <time>2022-07-19T14:49:42.879Z</time>
      </trkpt>
      <trkpt lat="43.33898" lon="-1.46973">
        <ele>65.458932</ele>
        <time>2022-07-19T14:49:59.073Z</time>
      </trkpt>
      <trkpt lat="43.33766" lon="-1.46878">
        <ele>66.912756</ele>
        <time>2022-07-19T14:50:33.055Z</time>
      </trkpt>
      <trkpt lat="43.33729" lon="-1.46825">
        <ele>66.942771</ele>
        <time>2022-07-19T14:50:43.788Z</time>
      </trkpt>
      <trkpt lat="43.33702" lon="-1.46745">
        <ele>66.390259</ele>
        <time>2022-07-19T14:50:54.800Z</time>
      </trkpt>
      <trkpt lat="43.33698" lon="-1.46717">
        <ele>66.20871</ele>
        <time>2022-07-19T14:50:58.129Z</time>
      </trkpt>
      <trkpt lat="43.337" lon="-1.46591">
        <ele>64.985734</ele>
        <time>2022-07-19T14:51:11.540Z</time>
      </trkpt>
      <trkpt lat="43.33699" lon="-1.46577">
        <ele>64.698183</ele>
        <time>2022-07-19T14:51:13.008Z</time>
      </trkpt>
      <trkpt lat="43.33696" lon="-1.46537">
        <ele>63.902404</ele>
        <time>2022-07-19T14:51:17.050Z</time>
      </trkpt>
      <trkpt lat="43.33649" lon="-1.46259">
        <ele>60.758288</ele>
        <time>2022-07-19T14:51:45.886Z</time>
      </trkpt>
      <trkpt lat="43.33638" lon="-1.46214">
        <ele>60.770624</ele>
        <time>2022-07-19T14:51:52.031Z</time>
      </trkpt>
      <trkpt lat="43.33638" lon="-1.46212">
        <ele>60.771146</ele>
        <time>2022-07-19T14:51:52.326Z</time>
      </trkpt>
      <trkpt lat="43.33583" lon="-1.46106">
        <ele>63.38244</ele>
        <time>2022-07-19T14:52:25.676Z</time>
      </trkpt>
      <trkpt lat="43.33557" lon="-1.46026">
        <ele>67.349189</ele>
        <time>2022-07-19T14:52:56.903Z</time>
      </trkpt>
      <trkpt lat="43.33547" lon="-1.45974">
        <ele>69.784526</ele>
        <time>2022-07-19T14:53:15.256Z</time>
      </trkpt>
      <trkpt lat="43.33547" lon="-1.45937">
        <ele>71.476662</ele>
        <time>2022-07-19T14:53:27.838Z</time>
      </trkpt>
      <trkpt lat="43.33549" lon="-1.45923">
        <ele>72.023349</ele>
        <time>2022-07-19T14:53:31.978Z</time>
      </trkpt>
      <trkpt lat="43.33558" lon="-1.45893">
        <ele>72.270693</ele>
        <time>2022-07-19T14:53:42.416Z</time>
      </trkpt>
      <trkpt lat="43.33574" lon="-1.45862">
        <ele>72.569485</ele>
        <time>2022-07-19T14:53:53.624Z</time>
      </trkpt>
      <trkpt lat="43.33767" lon="-1.45573">
        <ele>71.013724</ele>
        <time>2022-07-19T14:54:37.422Z</time>
      </trkpt>
      <trkpt lat="43.33793" lon="-1.45523">
        <ele>70.024648</ele>
        <time>2022-07-19T14:54:43.316Z</time>
      </trkpt>
      <trkpt lat="43.33839" lon="-1.45406">
        <ele>67.552469</ele>
        <time>2022-07-19T14:54:56.644Z</time>
      </trkpt>
      <trkpt lat="43.33877" lon="-1.45358">
        <ele>66.227063</ele>
        <time>2022-07-19T14:55:04.148Z</time>
      </trkpt>
      <trkpt lat="43.33926" lon="-1.45309">
        <ele>66.214232</ele>
        <time>2022-07-19T14:55:13.664Z</time>
      </trkpt>
      <trkpt lat="43.33938" lon="-1.45298">
        <ele>66.272631</ele>
        <time>2022-07-19T14:55:16.026Z</time>
      </trkpt>
      <trkpt lat="43.33973" lon="-1.45255">
        <ele>66.45637</ele>
        <time>2022-07-19T14:55:24.191Z</time>
      </trkpt>
      <trkpt lat="43.33984" lon="-1.45229">
        <ele>66.537854</ele>
        <time>2022-07-19T14:55:28.674Z</time>
      </trkpt>
      <trkpt lat="43.3399" lon="-1.45195">
        <ele>66.638863</ele>
        <time>2022-07-19T14:55:35.976Z</time>
      </trkpt>
      <trkpt lat="43.33993" lon="-1.45165">
        <ele>66.812148</ele>
        <time>2022-07-19T14:55:42.379Z</time>
      </trkpt>
      <trkpt lat="43.33991" lon="-1.45146">
        <ele>67.337056</ele>
        <time>2022-07-19T14:55:46.981Z</time>
      </trkpt>
      <trkpt lat="43.33999" lon="-1.45135">
        <ele>67.785079</ele>
        <time>2022-07-19T14:55:50.875Z</time>
      </trkpt>
      <trkpt lat="43.34009" lon="-1.45136">
        <ele>68.155773</ele>
        <time>2022-07-19T14:55:54.281Z</time>
      </trkpt>
      <trkpt lat="43.3401" lon="-1.45137">
        <ele>68.197698</ele>
        <time>2022-07-19T14:55:54.686Z</time>
      </trkpt>
      <trkpt lat="43.34029" lon="-1.45131">
        <ele>68.918381</ele>
        <time>2022-07-19T14:56:01.249Z</time>
      </trkpt>
      <trkpt lat="43.34055" lon="-1.45077">
        <ele>70.680409</ele>
        <time>2022-07-19T14:56:18.164Z</time>
      </trkpt>
      <trkpt lat="43.34093" lon="-1.44985">
        <ele>73.511879</ele>
        <time>2022-07-19T14:56:44.400Z</time>
      </trkpt>
      <trkpt lat="43.34117" lon="-1.44943">
        <ele>74.359265</ele>
        <time>2022-07-19T14:56:57.376Z</time>
      </trkpt>
      <trkpt lat="43.34117" lon="-1.44941">
        <ele>74.396575</ele>
        <time>2022-07-19T14:56:57.889Z</time>
      </trkpt>
      <trkpt lat="43.34113" lon="-1.44927">
        <ele>74.626437</ele>
        <time>2022-07-19T14:57:01.316Z</time>
      </trkpt>
      <trkpt lat="43.34075" lon="-1.44899">
        <ele>75.580303</ele>
        <time>2022-07-19T14:57:14.582Z</time>
      </trkpt>
      <trkpt lat="43.34067" lon="-1.44895">
        <ele>75.747116</ele>
        <time>2022-07-19T14:57:16.722Z</time>
      </trkpt>
      <trkpt lat="43.3402" lon="-1.4488">
        <ele>76.804516</ele>
        <time>2022-07-19T14:57:28.196Z</time>
      </trkpt>
      <trkpt lat="43.34" lon="-1.44868">
        <ele>77.286504</ele>
        <time>2022-07-19T14:57:32.439Z</time>
      </trkpt>
      <trkpt lat="43.33988" lon="-1.4486">
        <ele>77.277134</ele>
        <time>2022-07-19T14:57:34.943Z</time>
      </trkpt>
      <trkpt lat="43.33977" lon="-1.44854">
        <ele>77.182973</ele>
        <time>2022-07-19T14:57:36.992Z</time>
      </trkpt>
      <trkpt lat="43.33974" lon="-1.44851">
        <ele>77.156023</ele>
        <time>2022-07-19T14:57:37.571Z</time>
      </trkpt>
      <trkpt lat="43.33933" lon="-1.4482">
        <ele>76.775265</ele>
        <time>2022-07-19T14:57:45.842Z</time>
      </trkpt>
      <trkpt lat="43.33915" lon="-1.44803">
        <ele>76.605761</ele>
        <time>2022-07-19T14:57:49.598Z</time>
      </trkpt>
      <trkpt lat="43.33946" lon="-1.44717">
        <ele>76.046452</ele>
        <time>2022-07-19T14:58:01.227Z</time>
      </trkpt>
      <trkpt lat="43.33948" lon="-1.44704">
        <ele>75.967736</ele>
        <time>2022-07-19T14:58:02.780Z</time>
      </trkpt>
      <trkpt lat="43.33959" lon="-1.44711">
        <ele>75.74427</ele>
        <time>2022-07-19T14:58:04.623Z</time>
      </trkpt>
      <trkpt lat="43.34012" lon="-1.44741">
        <ele>73.793763</ele>
        <time>2022-07-19T14:58:12.916Z</time>
      </trkpt>
      <trkpt lat="43.34021" lon="-1.44686">
        <ele>72.39393</ele>
        <time>2022-07-19T14:58:18.687Z</time>
      </trkpt>
      <trkpt lat="43.34024" lon="-1.4467">
        <ele>71.967841</ele>
        <time>2022-07-19T14:58:20.404Z</time>
      </trkpt>
      <trkpt lat="43.34038" lon="-1.44623">
        <ele>70.706108</ele>
        <time>2022-07-19T14:58:25.450Z</time>
      </trkpt>
      <trkpt lat="43.34045" lon="-1.44616">
        <ele>70.41022</ele>
        <time>2022-07-19T14:58:26.637Z</time>
      </trkpt>
      <trkpt lat="43.34045" lon="-1.44576">
        <ele>69.487943</ele>
        <time>2022-07-19T14:58:30.436Z</time>
      </trkpt>
      <trkpt lat="43.34037" lon="-1.44556">
        <ele>69.004513</ele>
        <time>2022-07-19T14:58:32.809Z</time>
      </trkpt>
      <trkpt lat="43.33982" lon="-1.44525">
        <ele>67.314163</ele>
        <time>2022-07-19T14:58:40.975Z</time>
      </trkpt>
      <trkpt lat="43.33958" lon="-1.44499">
        <ele>66.448668</ele>
        <time>2022-07-19T14:58:45.324Z</time>
      </trkpt>
      <trkpt lat="43.33946" lon="-1.44485">
        <ele>66.001893</ele>
        <time>2022-07-19T14:58:47.761Z</time>
      </trkpt>
      <trkpt lat="43.33953" lon="-1.4446">
        <ele>65.450028</ele>
        <time>2022-07-19T14:58:50.485Z</time>
      </trkpt>
      <trkpt lat="43.33958" lon="-1.44444">
        <ele>65.072872</ele>
        <time>2022-07-19T14:58:52.777Z</time>
      </trkpt>
      <trkpt lat="43.33961" lon="-1.44437">
        <ele>64.912444</ele>
        <time>2022-07-19T14:58:53.824Z</time>
      </trkpt>
      <trkpt lat="43.33972" lon="-1.44409">
        <ele>64.84642</ele>
        <time>2022-07-19T14:58:57.637Z</time>
      </trkpt>
      <trkpt lat="43.33993" lon="-1.44381">
        <ele>65.317748</ele>
        <time>2022-07-19T14:59:03.282Z</time>
      </trkpt>
      <trkpt lat="43.34031" lon="-1.44352">
        <ele>66.021533</ele>
        <time>2022-07-19T14:59:13.258Z</time>
      </trkpt>
      <trkpt lat="43.34072" lon="-1.44337">
        <ele>66.700538</ele>
        <time>2022-07-19T14:59:23.961Z</time>
      </trkpt>
      <trkpt lat="43.34068" lon="-1.44326">
        <ele>66.847597</ele>
        <time>2022-07-19T14:59:26.738Z</time>
      </trkpt>
      <trkpt lat="43.34046" lon="-1.44308">
        <ele>67.250189</ele>
        <time>2022-07-19T14:59:33.850Z</time>
      </trkpt>
      <trkpt lat="43.34006" lon="-1.44317">
        <ele>68.973653</ele>
        <time>2022-07-19T14:59:46.350Z</time>
      </trkpt>
      <trkpt lat="43.33917" lon="-1.44299">
        <ele>74.444742</ele>
        <time>2022-07-19T15:00:23.697Z</time>
      </trkpt>
      <trkpt lat="43.33884" lon="-1.44253">
        <ele>77.310674</ele>
        <time>2022-07-19T15:00:44.535Z</time>
      </trkpt>
      <trkpt lat="43.33841" lon="-1.44224">
        <ele>81.641153</ele>
        <time>2022-07-19T15:01:12.211Z</time>
      </trkpt>
      <trkpt lat="43.33806" lon="-1.44173">
        <ele>87.230897</ele>
        <time>2022-07-19T15:01:43.853Z</time>
      </trkpt>
      <trkpt lat="43.33782" lon="-1.4412">
        <ele>92.218517</ele>
        <time>2022-07-19T15:02:12.806Z</time>
      </trkpt>
      <trkpt lat="43.33771" lon="-1.44084">
        <ele>95.379098</ele>
        <time>2022-07-19T15:02:32.744Z</time>
      </trkpt>
      <trkpt lat="43.33758" lon="-1.44052">
        <ele>98.314971</ele>
        <time>2022-07-19T15:02:51.017Z</time>
      </trkpt>
      <trkpt lat="43.33676" lon="-1.43926">
        <ele>113.293018</ele>
        <time>2022-07-19T15:04:14.525Z</time>
      </trkpt>
      <trkpt lat="43.33606" lon="-1.43783">
        <ele>129.454625</ele>
        <time>2022-07-19T15:05:37.387Z</time>
      </trkpt>
      <trkpt lat="43.33574" lon="-1.43699">
        <ele>138.652186</ele>
        <time>2022-07-19T15:06:31.378Z</time>
      </trkpt>
      <trkpt lat="43.33544" lon="-1.43651">
        <ele>144.865963</ele>
        <time>2022-07-19T15:07:06.393Z</time>
      </trkpt>
      <trkpt lat="43.33527" lon="-1.43646">
        <ele>147.246408</ele>
        <time>2022-07-19T15:07:19.026Z</time>
      </trkpt>
      <trkpt lat="43.33505" lon="-1.43649">
        <ele>150.323434</ele>
        <time>2022-07-19T15:07:34.266Z</time>
      </trkpt>
      <trkpt lat="43.33453" lon="-1.43679">
        <ele>158.087164</ele>
        <time>2022-07-19T15:08:14.399Z</time>
      </trkpt>
      <trkpt lat="43.3343" lon="-1.43687">
        <ele>161.386793</ele>
        <time>2022-07-19T15:08:32.625Z</time>
      </trkpt>
      <trkpt lat="43.33351" lon="-1.43702">
        <ele>171.708361</ele>
        <time>2022-07-19T15:09:33.430Z</time>
      </trkpt>
      <trkpt lat="43.33327" lon="-1.43696">
        <ele>174.347451</ele>
        <time>2022-07-19T15:09:50.875Z</time>
      </trkpt>
      <trkpt lat="43.33317" lon="-1.43677">
        <ele>176.32428</ele>
        <time>2022-07-19T15:10:03.072Z</time>
      </trkpt>
      <trkpt lat="43.33285" lon="-1.43528">
        <ele>188.901055</ele>
        <time>2022-07-19T15:11:08.885Z</time>
      </trkpt>
      <trkpt lat="43.33289" lon="-1.43498">
        <ele>190.015171</ele>
        <time>2022-07-19T15:11:21.479Z</time>
      </trkpt>
      <trkpt lat="43.33308" lon="-1.43439">
        <ele>192.043087</ele>
        <time>2022-07-19T15:11:44.645Z</time>
      </trkpt>
      <trkpt lat="43.33334" lon="-1.43378">
        <ele>194.266072</ele>
        <time>2022-07-19T15:12:03.562Z</time>
      </trkpt>
      <trkpt lat="43.33365" lon="-1.43364">
        <ele>195.684827</ele>
        <time>2022-07-19T15:12:12.028Z</time>
      </trkpt>
      <trkpt lat="43.33365" lon="-1.43307">
        <ele>196.344993</ele>
        <time>2022-07-19T15:12:19.548Z</time>
      </trkpt>
      <trkpt lat="43.33336" lon="-1.43098">
        <ele>189.288581</ele>
        <time>2022-07-19T15:12:40.395Z</time>
      </trkpt>
      <trkpt lat="43.33306" lon="-1.43007">
        <ele>183.409498</ele>
        <time>2022-07-19T15:12:49.078Z</time>
      </trkpt>
      <trkpt lat="43.33287" lon="-1.42922">
        <ele>177.675842</ele>
        <time>2022-07-19T15:12:56.760Z</time>
      </trkpt>
      <trkpt lat="43.33287" lon="-1.42902">
        <ele>176.348187</ele>
        <time>2022-07-19T15:12:58.548Z</time>
      </trkpt>
      <trkpt lat="43.33299" lon="-1.42857">
        <ele>173.280379</ele>
        <time>2022-07-19T15:13:02.697Z</time>
      </trkpt>
      <trkpt lat="43.33339" lon="-1.42814">
        <ele>171.862619</ele>
        <time>2022-07-19T15:13:09.004Z</time>
      </trkpt>
      <trkpt lat="43.3337" lon="-1.42766">
        <ele>170.887033</ele>
        <time>2022-07-19T15:13:15.712Z</time>
      </trkpt>
      <trkpt lat="43.33402" lon="-1.42739">
        <ele>170.122533</ele>
        <time>2022-07-19T15:13:24.643Z</time>
      </trkpt>
      <trkpt lat="43.33427" lon="-1.42649">
        <ele>169.4638</ele>
        <time>2022-07-19T15:13:44.252Z</time>
      </trkpt>
      <trkpt lat="43.3351" lon="-1.42623">
        <ele>171.249921</ele>
        <time>2022-07-19T15:14:10.682Z</time>
      </trkpt>
      <trkpt lat="43.33555" lon="-1.42522">
        <ele>172.491218</ele>
        <time>2022-07-19T15:14:33.002Z</time>
      </trkpt>
      <trkpt lat="43.33579" lon="-1.42478">
        <ele>171.355233</ele>
        <time>2022-07-19T15:14:39.682Z</time>
      </trkpt>
      <trkpt lat="43.33591" lon="-1.42418">
        <ele>170.049794</ele>
        <time>2022-07-19T15:14:46.130Z</time>
      </trkpt>
      <trkpt lat="43.33581" lon="-1.4237">
        <ele>168.993487</ele>
        <time>2022-07-19T15:14:51.151Z</time>
      </trkpt>
      <trkpt lat="43.33577" lon="-1.423">
        <ele>167.359228</ele>
        <time>2022-07-19T15:14:57.984Z</time>
      </trkpt>
      <trkpt lat="43.33583" lon="-1.4219">
        <ele>160.828796</ele>
        <time>2022-07-19T15:15:08.315Z</time>
      </trkpt>
      <trkpt lat="43.33574" lon="-1.42119">
        <ele>156.590561</ele>
        <time>2022-07-19T15:15:14.683Z</time>
      </trkpt>
      <trkpt lat="43.33572" lon="-1.42071">
        <ele>153.799307</ele>
        <time>2022-07-19T15:15:18.780Z</time>
      </trkpt>
      <trkpt lat="43.33571" lon="-1.4203">
        <ele>150.46196</ele>
        <time>2022-07-19T15:15:22.281Z</time>
      </trkpt>
      <trkpt lat="43.33599" lon="-1.41856">
        <ele>134.452848</ele>
        <time>2022-07-19T15:15:37.129Z</time>
      </trkpt>
      <trkpt lat="43.33623" lon="-1.4174">
        <ele>124.739242</ele>
        <time>2022-07-19T15:15:47.236Z</time>
      </trkpt>
      <trkpt lat="43.3362" lon="-1.41721">
        <ele>123.237598</ele>
        <time>2022-07-19T15:15:48.914Z</time>
      </trkpt>
      <trkpt lat="43.33606" lon="-1.41709">
        <ele>121.518834</ele>
        <time>2022-07-19T15:15:50.822Z</time>
      </trkpt>
      <trkpt lat="43.33501" lon="-1.41733">
        <ele>111.086054</ele>
        <time>2022-07-19T15:16:03.684Z</time>
      </trkpt>
      <trkpt lat="43.33489" lon="-1.41731">
        <ele>110.361906</ele>
        <time>2022-07-19T15:16:05.203Z</time>
      </trkpt>
      <trkpt lat="43.33483" lon="-1.41723">
        <ele>109.881956</ele>
        <time>2022-07-19T15:16:06.170Z</time>
      </trkpt>
      <trkpt lat="43.3348" lon="-1.41714">
        <ele>109.396035</ele>
        <time>2022-07-19T15:16:07.153Z</time>
      </trkpt>
      <trkpt lat="43.33487" lon="-1.41617">
        <ele>105.079013</ele>
        <time>2022-07-19T15:16:16.287Z</time>
      </trkpt>
      <trkpt lat="43.33485" lon="-1.41581">
        <ele>103.485608</ele>
        <time>2022-07-19T15:16:19.720Z</time>
      </trkpt>
      <trkpt lat="43.33404" lon="-1.41417">
        <ele>97.229432</ele>
        <time>2022-07-19T15:16:39.754Z</time>
      </trkpt>
      <trkpt lat="43.33356" lon="-1.413">
        <ele>93.856222</ele>
        <time>2022-07-19T15:16:53.801Z</time>
      </trkpt>
      <trkpt lat="43.33289" lon="-1.41199">
        <ele>91.025978</ele>
        <time>2022-07-19T15:17:08.572Z</time>
      </trkpt>
      <trkpt lat="43.33276" lon="-1.41196">
        <ele>90.666083</ele>
        <time>2022-07-19T15:17:10.402Z</time>
      </trkpt>
      <trkpt lat="43.3327" lon="-1.41133">
        <ele>89.365143</ele>
        <time>2022-07-19T15:17:16.824Z</time>
      </trkpt>
      <trkpt lat="43.33265" lon="-1.41036">
        <ele>87.069659</ele>
        <time>2022-07-19T15:17:26.452Z</time>
      </trkpt>
      <trkpt lat="43.33264" lon="-1.4093">
        <ele>84.562537</ele>
        <time>2022-07-19T15:17:36.820Z</time>
      </trkpt>
      <trkpt lat="43.33276" lon="-1.40871">
        <ele>83.202404</ele>
        <time>2022-07-19T15:17:42.918Z</time>
      </trkpt>
      <trkpt lat="43.33276" lon="-1.4085">
        <ele>82.80196</ele>
        <time>2022-07-19T15:17:45.018Z</time>
      </trkpt>
      <trkpt lat="43.33268" lon="-1.40816">
        <ele>82.117737</ele>
        <time>2022-07-19T15:17:48.687Z</time>
      </trkpt>
      <trkpt lat="43.33254" lon="-1.40735">
        <ele>80.529574</ele>
        <time>2022-07-19T15:17:57.312Z</time>
      </trkpt>
      <trkpt lat="43.33245" lon="-1.40644">
        <ele>78.788443</ele>
        <time>2022-07-19T15:18:06.961Z</time>
      </trkpt>
      <trkpt lat="43.33242" lon="-1.40575">
        <ele>77.384739</ele>
        <time>2022-07-19T15:18:14.191Z</time>
      </trkpt>
      <trkpt lat="43.33232" lon="-1.40488">
        <ele>75.583427</ele>
        <time>2022-07-19T15:18:23.316Z</time>
      </trkpt>
      <trkpt lat="43.33233" lon="-1.4037">
        <ele>72.680165</ele>
        <time>2022-07-19T15:18:35.035Z</time>
      </trkpt>
      <trkpt lat="43.33208" lon="-1.40242">
        <ele>67.894937</ele>
        <time>2022-07-19T15:18:47.281Z</time>
      </trkpt>
      <trkpt lat="43.33214" lon="-1.40129">
        <ele>63.677181</ele>
        <time>2022-07-19T15:18:57.501Z</time>
      </trkpt>
      <trkpt lat="43.33201" lon="-1.40051">
        <ele>60.536342</ele>
        <time>2022-07-19T15:19:04.668Z</time>
      </trkpt>
      <trkpt lat="43.33203" lon="-1.40012">
        <ele>58.999092</ele>
        <time>2022-07-19T15:19:08.148Z</time>
      </trkpt>
      <trkpt lat="43.33175" lon="-1.39923">
        <ele>55.190687</ele>
        <time>2022-07-19T15:19:17.047Z</time>
      </trkpt>
      <trkpt lat="43.33155" lon="-1.39894">
        <ele>54.816235</ele>
        <time>2022-07-19T15:19:21.002Z</time>
      </trkpt>
      <trkpt lat="43.33109" lon="-1.39848">
        <ele>54.095956</ele>
        <time>2022-07-19T15:19:29.375Z</time>
      </trkpt>
      <trkpt lat="43.33103" lon="-1.3984">
        <ele>53.985591</ele>
        <time>2022-07-19T15:19:30.868Z</time>
      </trkpt>
      <trkpt lat="43.33023" lon="-1.39762">
        <ele>52.838277</ele>
        <time>2022-07-19T15:19:49.958Z</time>
      </trkpt>
      <trkpt lat="43.32958" lon="-1.39701">
        <ele>52.474842</ele>
        <time>2022-07-19T15:20:04.959Z</time>
      </trkpt>
      <trkpt lat="43.32949" lon="-1.39695">
        <ele>52.429191</ele>
        <time>2022-07-19T15:20:06.926Z</time>
      </trkpt>
      <trkpt lat="43.32915" lon="-1.39673">
        <ele>52.259503</ele>
        <time>2022-07-19T15:20:13.214Z</time>
      </trkpt>
      <trkpt lat="43.32854" lon="-1.39628">
        <ele>51.066053</ele>
        <time>2022-07-19T15:20:23.559Z</time>
      </trkpt>
      <trkpt lat="43.32844" lon="-1.39612">
        <ele>50.516814</ele>
        <time>2022-07-19T15:20:25.711Z</time>
      </trkpt>
      <trkpt lat="43.32827" lon="-1.39552">
        <ele>48.849574</ele>
        <time>2022-07-19T15:20:31.934Z</time>
      </trkpt>
      <trkpt lat="43.32797" lon="-1.39521">
        <ele>47.516957</ele>
        <time>2022-07-19T15:20:36.703Z</time>
      </trkpt>
      <trkpt lat="43.32767" lon="-1.39492">
        <ele>46.21609</ele>
        <time>2022-07-19T15:20:41.436Z</time>
      </trkpt>
      <trkpt lat="43.32734" lon="-1.39462">
        <ele>45.1229</ele>
        <time>2022-07-19T15:20:46.696Z</time>
      </trkpt>
      <trkpt lat="43.32705" lon="-1.39428">
        <ele>44.252378</ele>
        <time>2022-07-19T15:20:51.818Z</time>
      </trkpt>
      <trkpt lat="43.32699" lon="-1.39408">
        <ele>43.897746</ele>
        <time>2022-07-19T15:20:53.882Z</time>
      </trkpt>
      <trkpt lat="43.32697" lon="-1.39376">
        <ele>43.356203</ele>
        <time>2022-07-19T15:20:57.109Z</time>
      </trkpt>
      <trkpt lat="43.32702" lon="-1.39176">
        <ele>44.897627</ele>
        <time>2022-07-19T15:21:21.774Z</time>
      </trkpt>
      <trkpt lat="43.32714" lon="-1.39122">
        <ele>46.914592</ele>
        <time>2022-07-19T15:21:39.421Z</time>
      </trkpt>
      <trkpt lat="43.32737" lon="-1.3906">
        <ele>49.413241</ele>
        <time>2022-07-19T15:22:06.790Z</time>
      </trkpt>
      <trkpt lat="43.3277" lon="-1.38981">
        <ele>53.782467</ele>
        <time>2022-07-19T15:22:43.836Z</time>
      </trkpt>
      <trkpt lat="43.32773" lon="-1.38975">
        <ele>54.158353</ele>
        <time>2022-07-19T15:22:46.584Z</time>
      </trkpt>
      <trkpt lat="43.32778" lon="-1.3896">
        <ele>55.027681</ele>
        <time>2022-07-19T15:22:53.158Z</time>
      </trkpt>
      <trkpt lat="43.32782" lon="-1.38926">
        <ele>56.855107</ele>
        <time>2022-07-19T15:23:06.513Z</time>
      </trkpt>
      <trkpt lat="43.32783" lon="-1.38879">
        <ele>59.375995</ele>
        <time>2022-07-19T15:23:23.551Z</time>
      </trkpt>
      <trkpt lat="43.3278" lon="-1.38804">
        <ele>63.376003</ele>
        <time>2022-07-19T15:23:46.049Z</time>
      </trkpt>
      <trkpt lat="43.32758" lon="-1.38727">
        <ele>64.204525</ele>
        <time>2022-07-19T15:24:02.582Z</time>
      </trkpt>
      <trkpt lat="43.32756" lon="-1.38653">
        <ele>64.770156</ele>
        <time>2022-07-19T15:24:11.218Z</time>
      </trkpt>
      <trkpt lat="43.3266" lon="-1.38509">
        <ele>67.146708</ele>
        <time>2022-07-19T15:24:37.477Z</time>
      </trkpt>
      <trkpt lat="43.32532" lon="-1.38271">
        <ele>73.506847</ele>
        <time>2022-07-19T15:25:47.710Z</time>
      </trkpt>
      <trkpt lat="43.3245" lon="-1.38051">
        <ele>79.519054</ele>
        <time>2022-07-19T15:26:44.913Z</time>
      </trkpt>
      <trkpt lat="43.32385" lon="-1.37806">
        <ele>85.324391</ele>
        <time>2022-07-19T15:27:38.702Z</time>
      </trkpt>
      <trkpt lat="43.32346" lon="-1.37682">
        <ele>89.085161</ele>
        <time>2022-07-19T15:28:09.673Z</time>
      </trkpt>
      <trkpt lat="43.32281" lon="-1.37578">
        <ele>94.305931</ele>
        <time>2022-07-19T15:28:49.587Z</time>
      </trkpt>
      <trkpt lat="43.32231" lon="-1.37463">
        <ele>100.794227</ele>
        <time>2022-07-19T15:29:31.155Z</time>
      </trkpt>
      <trkpt lat="43.32169" lon="-1.37301">
        <ele>111.237715</ele>
        <time>2022-07-19T15:30:39.871Z</time>
      </trkpt>
      <trkpt lat="43.32106" lon="-1.37188">
        <ele>120.546195</ele>
        <time>2022-07-19T15:31:35.970Z</time>
      </trkpt>
      <trkpt lat="43.32083" lon="-1.37131">
        <ele>124.77223</ele>
        <time>2022-07-19T15:32:02.927Z</time>
      </trkpt>
      <trkpt lat="43.3208" lon="-1.37123">
        <ele>125.338615</ele>
        <time>2022-07-19T15:32:06.622Z</time>
      </trkpt>
      <trkpt lat="43.32042" lon="-1.3701">
        <ele>131.584569</ele>
        <time>2022-07-19T15:32:52.375Z</time>
      </trkpt>
      <trkpt lat="43.3203" lon="-1.36978">
        <ele>133.248583</ele>
        <time>2022-07-19T15:33:03.602Z</time>
      </trkpt>
      <trkpt lat="43.31994" lon="-1.36817">
        <ele>140.009201</ele>
        <time>2022-07-19T15:33:47.481Z</time>
      </trkpt>
      <trkpt lat="43.31989" lon="-1.36746">
        <ele>142.018448</ele>
        <time>2022-07-19T15:34:05.849Z</time>
      </trkpt>
      <trkpt lat="43.31994" lon="-1.36659">
        <ele>144.479297</ele>
        <time>2022-07-19T15:34:26.137Z</time>
      </trkpt>
      <trkpt lat="43.31979" lon="-1.3665">
        <ele>145.107439</ele>
        <time>2022-07-19T15:34:31.328Z</time>
      </trkpt>
      <trkpt lat="43.31957" lon="-1.36592">
        <ele>145.369865</ele>
        <time>2022-07-19T15:34:45.756Z</time>
      </trkpt>
      <trkpt lat="43.31946" lon="-1.36516">
        <ele>145.53047</ele>
        <time>2022-07-19T15:34:59.688Z</time>
      </trkpt>
      <trkpt lat="43.31908" lon="-1.36387">
        <ele>144.634675</ele>
        <time>2022-07-19T15:35:15.613Z</time>
      </trkpt>
      <trkpt lat="43.31906" lon="-1.36383">
        <ele>144.445654</ele>
        <time>2022-07-19T15:35:16.105Z</time>
      </trkpt>
      <trkpt lat="43.3188" lon="-1.36266">
        <ele>139.916786</ele>
        <time>2022-07-19T15:35:27.740Z</time>
      </trkpt>
      <trkpt lat="43.31869" lon="-1.36166">
        <ele>136.25295</ele>
        <time>2022-07-19T15:35:37.045Z</time>
      </trkpt>
      <trkpt lat="43.3187" lon="-1.36153">
        <ele>135.844272</ele>
        <time>2022-07-19T15:35:38.245Z</time>
      </trkpt>
      <trkpt lat="43.31879" lon="-1.36142">
        <ele>135.300402</ele>
        <time>2022-07-19T15:35:39.865Z</time>
      </trkpt>
      <trkpt lat="43.31854" lon="-1.36085">
        <ele>133.19342</ele>
        <time>2022-07-19T15:35:45.853Z</time>
      </trkpt>
      <trkpt lat="43.31794" lon="-1.35973">
        <ele>128.759061</ele>
        <time>2022-07-19T15:35:59.431Z</time>
      </trkpt>
      <trkpt lat="43.31768" lon="-1.35899">
        <ele>127.577621</ele>
        <time>2022-07-19T15:36:08.187Z</time>
      </trkpt>
      <trkpt lat="43.31728" lon="-1.358">
        <ele>125.990891</ele>
        <time>2022-07-19T15:36:21.271Z</time>
      </trkpt>
      <trkpt lat="43.31679" lon="-1.35708">
        <ele>123.753179</ele>
        <time>2022-07-19T15:36:33.191Z</time>
      </trkpt>
      <trkpt lat="43.31664" lon="-1.3568">
        <ele>122.924422</ele>
        <time>2022-07-19T15:36:36.670Z</time>
      </trkpt>
      <trkpt lat="43.31664" lon="-1.35656">
        <ele>122.319207</ele>
        <time>2022-07-19T15:36:39.107Z</time>
      </trkpt>
      <trkpt lat="43.31663" lon="-1.35647">
        <ele>122.095928</ele>
        <time>2022-07-19T15:36:40.022Z</time>
      </trkpt>
      <trkpt lat="43.31661" lon="-1.35624">
        <ele>121.532762</ele>
        <time>2022-07-19T15:36:42.328Z</time>
      </trkpt>
      <trkpt lat="43.31654" lon="-1.35551">
        <ele>119.745662</ele>
        <time>2022-07-19T15:36:49.355Z</time>
      </trkpt>
      <trkpt lat="43.31655" lon="-1.35427">
        <ele>115.706782</ele>
        <time>2022-07-19T15:37:00.821Z</time>
      </trkpt>
      <trkpt lat="43.31646" lon="-1.35272">
        <ele>110.589429</ele>
        <time>2022-07-19T15:37:15.281Z</time>
      </trkpt>
      <trkpt lat="43.31645" lon="-1.3526">
        <ele>110.364073</ele>
        <time>2022-07-19T15:37:16.464Z</time>
      </trkpt>
      <trkpt lat="43.31644" lon="-1.35251">
        <ele>110.21027</ele>
        <time>2022-07-19T15:37:17.265Z</time>
      </trkpt>
      <trkpt lat="43.31638" lon="-1.35151">
        <ele>108.361753</ele>
        <time>2022-07-19T15:37:27.166Z</time>
      </trkpt>
      <trkpt lat="43.31629" lon="-1.35099">
        <ele>107.398711</ele>
        <time>2022-07-19T15:37:32.680Z</time>
      </trkpt>
      <trkpt lat="43.31614" lon="-1.35035">
        <ele>106.382948</ele>
        <time>2022-07-19T15:37:40.551Z</time>
      </trkpt>
      <trkpt lat="43.31596" lon="-1.34958">
        <ele>107.939854</ele>
        <time>2022-07-19T15:37:53.759Z</time>
      </trkpt>
      <trkpt lat="43.31574" lon="-1.34865">
        <ele>109.840552</ele>
        <time>2022-07-19T15:38:15.932Z</time>
      </trkpt>
      <trkpt lat="43.3156" lon="-1.34808">
        <ele>111.007765</ele>
        <time>2022-07-19T15:38:32.202Z</time>
      </trkpt>
      <trkpt lat="43.31555" lon="-1.34791">
        <ele>111.551298</ele>
        <time>2022-07-19T15:38:37.355Z</time>
      </trkpt>
      <trkpt lat="43.31552" lon="-1.34776">
        <ele>112.075883</ele>
        <time>2022-07-19T15:38:42.043Z</time>
      </trkpt>
      <trkpt lat="43.31511" lon="-1.3458">
        <ele>118.664616</ele>
        <time>2022-07-19T15:39:36.608Z</time>
      </trkpt>
      <trkpt lat="43.31503" lon="-1.3451">
        <ele>120.07209</ele>
        <time>2022-07-19T15:39:51.149Z</time>
      </trkpt>
      <trkpt lat="43.31502" lon="-1.345">
        <ele>120.24605</ele>
        <time>2022-07-19T15:39:53.188Z</time>
      </trkpt>
      <trkpt lat="43.31495" lon="-1.34446">
        <ele>121.217441</ele>
        <time>2022-07-19T15:40:04.236Z</time>
      </trkpt>
      <trkpt lat="43.31487" lon="-1.34387">
        <ele>122.259879</ele>
        <time>2022-07-19T15:40:15.606Z</time>
      </trkpt>
      <trkpt lat="43.31475" lon="-1.34331">
        <ele>123.290267</ele>
        <time>2022-07-19T15:40:25.977Z</time>
      </trkpt>
      <trkpt lat="43.31441" lon="-1.3425">
        <ele>125.307497</ele>
        <time>2022-07-19T15:40:42.302Z</time>
      </trkpt>
      <trkpt lat="43.31406" lon="-1.3418">
        <ele>127.172563</ele>
        <time>2022-07-19T15:40:59.823Z</time>
      </trkpt>
      <trkpt lat="43.31374" lon="-1.34074">
        <ele>130.316252</ele>
        <time>2022-07-19T15:41:30.707Z</time>
      </trkpt>
      <trkpt lat="43.3135" lon="-1.34025">
        <ele>132.518964</ele>
        <time>2022-07-19T15:41:49.151Z</time>
      </trkpt>
      <trkpt lat="43.31284" lon="-1.33887">
        <ele>137.839794</ele>
        <time>2022-07-19T15:42:36.370Z</time>
      </trkpt>
      <trkpt lat="43.31268" lon="-1.33828">
        <ele>137.373693</ele>
        <time>2022-07-19T15:42:49.936Z</time>
      </trkpt>
      <trkpt lat="43.3127" lon="-1.33742">
        <ele>136.736075</ele>
        <time>2022-07-19T15:43:00.212Z</time>
      </trkpt>
      <trkpt lat="43.31251" lon="-1.33603">
        <ele>133.490666</ele>
        <time>2022-07-19T15:43:12.719Z</time>
      </trkpt>
      <trkpt lat="43.31252" lon="-1.33565">
        <ele>131.862448</ele>
        <time>2022-07-19T15:43:15.966Z</time>
      </trkpt>
      <trkpt lat="43.31257" lon="-1.33541">
        <ele>130.77106</ele>
        <time>2022-07-19T15:43:18.129Z</time>
      </trkpt>
      <trkpt lat="43.3131" lon="-1.3343">
        <ele>125.361046</ele>
        <time>2022-07-19T15:43:30.141Z</time>
      </trkpt>
      <trkpt lat="43.31319" lon="-1.33399">
        <ele>125.104963</ele>
        <time>2022-07-19T15:43:33.407Z</time>
      </trkpt>
      <trkpt lat="43.31326" lon="-1.33283">
        <ele>124.187856</ele>
        <time>2022-07-19T15:43:46.468Z</time>
      </trkpt>
      <trkpt lat="43.31331" lon="-1.33265">
        <ele>124.041887</ele>
        <time>2022-07-19T15:43:49.787Z</time>
      </trkpt>
      <trkpt lat="43.31378" lon="-1.33182">
        <ele>124.066354</ele>
        <time>2022-07-19T15:44:08.165Z</time>
      </trkpt>
      <trkpt lat="43.31385" lon="-1.33151">
        <ele>124.5688</ele>
        <time>2022-07-19T15:44:14.478Z</time>
      </trkpt>
      <trkpt lat="43.31386" lon="-1.33074">
        <ele>125.73676</ele>
        <time>2022-07-19T15:44:29.759Z</time>
      </trkpt>
      <trkpt lat="43.31396" lon="-1.33017">
        <ele>126.620274</ele>
        <time>2022-07-19T15:44:41.207Z</time>
      </trkpt>
      <trkpt lat="43.31406" lon="-1.32972">
        <ele>127.336276</ele>
        <time>2022-07-19T15:44:50.502Z</time>
      </trkpt>
      <trkpt lat="43.31415" lon="-1.32933">
        <ele>127.928573</ele>
        <time>2022-07-19T15:44:58.279Z</time>
      </trkpt>
      <trkpt lat="43.31416" lon="-1.32806">
        <ele>129.795142</ele>
        <time>2022-07-19T15:45:22.438Z</time>
      </trkpt>
      <trkpt lat="43.31444" lon="-1.32666">
        <ele>132.032674</ele>
        <time>2022-07-19T15:45:48.208Z</time>
      </trkpt>
      <trkpt lat="43.31448" lon="-1.32606">
        <ele>133.029023</ele>
        <time>2022-07-19T15:45:59.906Z</time>
      </trkpt>
      <trkpt lat="43.31445" lon="-1.32563">
        <ele>133.734642</ele>
        <time>2022-07-19T15:46:08.885Z</time>
      </trkpt>
      <trkpt lat="43.31442" lon="-1.3249">
        <ele>134.923563</ele>
        <time>2022-07-19T15:46:23.732Z</time>
      </trkpt>
      <trkpt lat="43.31453" lon="-1.32453">
        <ele>135.947005</ele>
        <time>2022-07-19T15:46:31.872Z</time>
      </trkpt>
      <trkpt lat="43.31481" lon="-1.3239">
        <ele>137.823587</ele>
        <time>2022-07-19T15:46:48.241Z</time>
      </trkpt>
      <trkpt lat="43.31559" lon="-1.3226">
        <ele>141.934292</ele>
        <time>2022-07-19T15:47:30.537Z</time>
      </trkpt>
      <trkpt lat="43.31576" lon="-1.32216">
        <ele>142.986894</ele>
        <time>2022-07-19T15:47:41.181Z</time>
      </trkpt>
      <trkpt lat="43.31577" lon="-1.32164">
        <ele>144.092718</ele>
        <time>2022-07-19T15:47:51.615Z</time>
      </trkpt>
      <trkpt lat="43.31567" lon="-1.32136">
        <ele>144.750212</ele>
        <time>2022-07-19T15:47:57.788Z</time>
      </trkpt>
      <trkpt lat="43.31532" lon="-1.32076">
        <ele>146.400843</ele>
        <time>2022-07-19T15:48:14.067Z</time>
      </trkpt>
      <trkpt lat="43.31506" lon="-1.32017">
        <ele>147.363173</ele>
        <time>2022-07-19T15:48:27.600Z</time>
      </trkpt>
      <trkpt lat="43.31435" lon="-1.31829">
        <ele>150.526316</ele>
        <time>2022-07-19T15:49:04.712Z</time>
      </trkpt>
      <trkpt lat="43.3142" lon="-1.31765">
        <ele>151.923197</ele>
        <time>2022-07-19T15:49:18.120Z</time>
      </trkpt>
      <trkpt lat="43.31375" lon="-1.31537">
        <ele>157.915496</ele>
        <time>2022-07-19T15:50:12.622Z</time>
      </trkpt>
      <trkpt lat="43.3137" lon="-1.31465">
        <ele>160.269069</ele>
        <time>2022-07-19T15:50:31.819Z</time>
      </trkpt>
      <trkpt lat="43.31371" lon="-1.31399">
        <ele>162.43278</ele>
        <time>2022-07-19T15:50:50.426Z</time>
      </trkpt>
      <trkpt lat="43.31401" lon="-1.31275">
        <ele>167.345866</ele>
        <time>2022-07-19T15:51:28.531Z</time>
      </trkpt>
      <trkpt lat="43.31402" lon="-1.31252">
        <ele>168.232542</ele>
        <time>2022-07-19T15:51:35.974Z</time>
      </trkpt>
      <trkpt lat="43.31401" lon="-1.31232">
        <ele>169.031895</ele>
        <time>2022-07-19T15:51:41.966Z</time>
      </trkpt>
      <trkpt lat="43.31383" lon="-1.31197">
        <ele>170.666888</ele>
        <time>2022-07-19T15:51:54.193Z</time>
      </trkpt>
      <trkpt lat="43.31349" lon="-1.31131">
        <ele>173.441125</ele>
        <time>2022-07-19T15:52:15.196Z</time>
      </trkpt>
      <trkpt lat="43.31346" lon="-1.31116">
        <ele>173.857326</ele>
        <time>2022-07-19T15:52:18.756Z</time>
      </trkpt>
      <trkpt lat="43.31345" lon="-1.31082">
        <ele>174.769883</ele>
        <time>2022-07-19T15:52:27.070Z</time>
      </trkpt>
      <trkpt lat="43.31339" lon="-1.31056">
        <ele>175.526903</ele>
        <time>2022-07-19T15:52:33.406Z</time>
      </trkpt>
      <trkpt lat="43.31326" lon="-1.31039">
        <ele>176.200047</ele>
        <time>2022-07-19T15:52:39.479Z</time>
      </trkpt>
      <trkpt lat="43.31263" lon="-1.30987">
        <ele>178.91693</ele>
        <time>2022-07-19T15:53:01.324Z</time>
      </trkpt>
      <trkpt lat="43.31244" lon="-1.30963">
        <ele>180.274084</ele>
        <time>2022-07-19T15:53:09.871Z</time>
      </trkpt>
      <trkpt lat="43.31217" lon="-1.30905">
        <ele>183.380936</ele>
        <time>2022-07-19T15:53:26.231Z</time>
      </trkpt>
      <trkpt lat="43.31204" lon="-1.30854">
        <ele>185.871949</ele>
        <time>2022-07-19T15:53:42.230Z</time>
      </trkpt>
      <trkpt lat="43.31206" lon="-1.30759">
        <ele>190.249331</ele>
        <time>2022-07-19T15:54:17.006Z</time>
      </trkpt>
      <trkpt lat="43.31221" lon="-1.3059">
        <ele>202.258007</ele>
        <time>2022-07-19T15:55:30.673Z</time>
      </trkpt>
      <trkpt lat="43.31221" lon="-1.30525">
        <ele>206.939024</ele>
        <time>2022-07-19T15:55:59.086Z</time>
      </trkpt>
      <trkpt lat="43.31207" lon="-1.30471">
        <ele>210.679072</ele>
        <time>2022-07-19T15:56:22.249Z</time>
      </trkpt>
      <trkpt lat="43.3117" lon="-1.30423">
        <ele>214.99628</ele>
        <time>2022-07-19T15:56:48.009Z</time>
      </trkpt>
      <trkpt lat="43.3115" lon="-1.3039">
        <ele>217.57857</ele>
        <time>2022-07-19T15:57:02.290Z</time>
      </trkpt>
      <trkpt lat="43.3114" lon="-1.3034">
        <ele>220.780171</ele>
        <time>2022-07-19T15:57:22.149Z</time>
      </trkpt>
      <trkpt lat="43.31163" lon="-1.30189">
        <ele>230.706192</ele>
        <time>2022-07-19T15:58:18.725Z</time>
      </trkpt>
      <trkpt lat="43.31173" lon="-1.30143">
        <ele>233.866236</ele>
        <time>2022-07-19T15:58:39.242Z</time>
      </trkpt>
      <trkpt lat="43.31188" lon="-1.301">
        <ele>237.01268</ele>
        <time>2022-07-19T15:58:59.775Z</time>
      </trkpt>
      <trkpt lat="43.31247" lon="-1.30019">
        <ele>243.122609</ele>
        <time>2022-07-19T15:59:43.844Z</time>
      </trkpt>
      <trkpt lat="43.31255" lon="-1.2999">
        <ele>244.550162</ele>
        <time>2022-07-19T15:59:56.911Z</time>
      </trkpt>
      <trkpt lat="43.31248" lon="-1.29942">
        <ele>246.822474</ele>
        <time>2022-07-19T16:00:10.886Z</time>
      </trkpt>
      <trkpt lat="43.31223" lon="-1.29889">
        <ele>249.781451</ele>
        <time>2022-07-19T16:00:26.277Z</time>
      </trkpt>
      <trkpt lat="43.31213" lon="-1.29848">
        <ele>251.500474</ele>
        <time>2022-07-19T16:00:37.755Z</time>
      </trkpt>
      <trkpt lat="43.31211" lon="-1.2973">
        <ele>253.785276</ele>
        <time>2022-07-19T16:01:02.872Z</time>
      </trkpt>
      <trkpt lat="43.31217" lon="-1.29596">
        <ele>256.341757</ele>
        <time>2022-07-19T16:01:27.493Z</time>
      </trkpt>
      <trkpt lat="43.31215" lon="-1.29533">
        <ele>257.492962</ele>
        <time>2022-07-19T16:01:39.864Z</time>
      </trkpt>
      <trkpt lat="43.3118" lon="-1.2925">
        <ele>263.501795</ele>
        <time>2022-07-19T16:02:39.741Z</time>
      </trkpt>
      <trkpt lat="43.31169" lon="-1.29202">
        <ele>264.768247</ele>
        <time>2022-07-19T16:02:51.610Z</time>
      </trkpt>
      <trkpt lat="43.31152" lon="-1.29165">
        <ele>265.869486</ele>
        <time>2022-07-19T16:03:02.410Z</time>
      </trkpt>
      <trkpt lat="43.31136" lon="-1.29131">
        <ele>266.897242</ele>
        <time>2022-07-19T16:03:12.435Z</time>
      </trkpt>
      <trkpt lat="43.31091" lon="-1.28952">
        <ele>273.036255</ele>
        <time>2022-07-19T16:04:02.409Z</time>
      </trkpt>
      <trkpt lat="43.31085" lon="-1.28911">
        <ele>274.396637</ele>
        <time>2022-07-19T16:04:13.243Z</time>
      </trkpt>
      <trkpt lat="43.31081" lon="-1.28809">
        <ele>277.497189</ele>
        <time>2022-07-19T16:04:38.955Z</time>
      </trkpt>
      <trkpt lat="43.31075" lon="-1.28773">
        <ele>278.605844</ele>
        <time>2022-07-19T16:04:47.924Z</time>
      </trkpt>
      <trkpt lat="43.31051" lon="-1.28684">
        <ele>281.479233</ele>
        <time>2022-07-19T16:05:11.044Z</time>
      </trkpt>
      <trkpt lat="43.30996" lon="-1.28521">
        <ele>287.610269</ele>
        <time>2022-07-19T16:05:58.135Z</time>
      </trkpt>
      <trkpt lat="43.30951" lon="-1.28353">
        <ele>293.337156</ele>
        <time>2022-07-19T16:06:48.572Z</time>
      </trkpt>
      <trkpt lat="43.30939" lon="-1.28307">
        <ele>294.76557</ele>
        <time>2022-07-19T16:07:02.193Z</time>
      </trkpt>
      <trkpt lat="43.30892" lon="-1.28137">
        <ele>298.391595</ele>
        <time>2022-07-19T16:07:40.204Z</time>
      </trkpt>
      <trkpt lat="43.30885" lon="-1.28101">
        <ele>298.598112</ele>
        <time>2022-07-19T16:07:45.880Z</time>
      </trkpt>
      <trkpt lat="43.30853" lon="-1.27943">
        <ele>299.195742</ele>
        <time>2022-07-19T16:08:06.370Z</time>
      </trkpt>
      <trkpt lat="43.30818" lon="-1.27762">
        <ele>297.999491</ele>
        <time>2022-07-19T16:08:28.235Z</time>
      </trkpt>
      <trkpt lat="43.30805" lon="-1.27599">
        <ele>295.331797</ele>
        <time>2022-07-19T16:08:46.589Z</time>
      </trkpt>
      <trkpt lat="43.30769" lon="-1.27361">
        <ele>289.119354</ele>
        <time>2022-07-19T16:09:09.960Z</time>
      </trkpt>
      <trkpt lat="43.30768" lon="-1.27017">
        <ele>277.994786</ele>
        <time>2022-07-19T16:09:41.898Z</time>
      </trkpt>
      <trkpt lat="43.30755" lon="-1.26946">
        <ele>276.351416</ele>
        <time>2022-07-19T16:09:49.184Z</time>
      </trkpt>
      <trkpt lat="43.30742" lon="-1.26904">
        <ele>275.584643</ele>
        <time>2022-07-19T16:09:53.774Z</time>
      </trkpt>
      <trkpt lat="43.30724" lon="-1.26867">
        <ele>274.836792</ele>
        <time>2022-07-19T16:09:58.384Z</time>
      </trkpt>
      <trkpt lat="43.30701" lon="-1.26841">
        <ele>274.143691</ele>
        <time>2022-07-19T16:10:02.807Z</time>
      </trkpt>
      <trkpt lat="43.30623" lon="-1.26772">
        <ele>273.142701</ele>
        <time>2022-07-19T16:10:17.455Z</time>
      </trkpt>
      <trkpt lat="43.30564" lon="-1.26714">
        <ele>273.393618</ele>
        <time>2022-07-19T16:10:29.788Z</time>
      </trkpt>
      <trkpt lat="43.30554" lon="-1.267">
        <ele>273.44509</ele>
        <time>2022-07-19T16:10:32.879Z</time>
      </trkpt>
      <trkpt lat="43.30542" lon="-1.26663">
        <ele>273.546404</ele>
        <time>2022-07-19T16:10:40.076Z</time>
      </trkpt>
      <trkpt lat="43.30541" lon="-1.26557">
        <ele>274.797413</ele>
        <time>2022-07-19T16:11:02.548Z</time>
      </trkpt>
      <trkpt lat="43.30553" lon="-1.26501">
        <ele>275.691103</ele>
        <time>2022-07-19T16:11:15.762Z</time>
      </trkpt>
      <trkpt lat="43.30573" lon="-1.2644">
        <ele>276.700288</ele>
        <time>2022-07-19T16:11:28.787Z</time>
      </trkpt>
      <trkpt lat="43.3058" lon="-1.26402">
        <ele>277.299077</ele>
        <time>2022-07-19T16:11:34.970Z</time>
      </trkpt>
      <trkpt lat="43.30559" lon="-1.26291">
        <ele>275.719477</ele>
        <time>2022-07-19T16:11:49.096Z</time>
      </trkpt>
      <trkpt lat="43.30558" lon="-1.2628">
        <ele>275.556626</ele>
        <time>2022-07-19T16:11:50.281Z</time>
      </trkpt>
      <trkpt lat="43.30558" lon="-1.26244">
        <ele>275.013616</ele>
        <time>2022-07-19T16:11:53.891Z</time>
      </trkpt>
      <trkpt lat="43.30578" lon="-1.26138">
        <ele>272.948069</ele>
        <time>2022-07-19T16:12:04.382Z</time>
      </trkpt>
      <trkpt lat="43.3058" lon="-1.26096">
        <ele>271.381613</ele>
        <time>2022-07-19T16:12:08.177Z</time>
      </trkpt>
      <trkpt lat="43.30567" lon="-1.25964">
        <ele>266.430198</ele>
        <time>2022-07-19T16:12:20.252Z</time>
      </trkpt>
      <trkpt lat="43.30567" lon="-1.25882">
        <ele>263.444906</ele>
        <time>2022-07-19T16:12:27.793Z</time>
      </trkpt>
      <trkpt lat="43.30568" lon="-1.25855">
        <ele>262.473573</ele>
        <time>2022-07-19T16:12:30.451Z</time>
      </trkpt>
      <trkpt lat="43.30587" lon="-1.25498">
        <ele>250.864128</ele>
        <time>2022-07-19T16:13:03.759Z</time>
      </trkpt>
      <trkpt lat="43.30577" lon="-1.25429">
        <ele>248.766227</ele>
        <time>2022-07-19T16:13:10.676Z</time>
      </trkpt>
      <trkpt lat="43.30561" lon="-1.25392">
        <ele>248.357926</ele>
        <time>2022-07-19T16:13:15.127Z</time>
      </trkpt>
      <trkpt lat="43.30553" lon="-1.2536">
        <ele>248.25944</ele>
        <time>2022-07-19T16:13:18.800Z</time>
      </trkpt>
      <trkpt lat="43.30546" lon="-1.25352">
        <ele>248.223683</ele>
        <time>2022-07-19T16:13:20.232Z</time>
      </trkpt>
      <trkpt lat="43.3055" lon="-1.25341">
        <ele>248.188232</ele>
        <time>2022-07-19T16:13:21.718Z</time>
      </trkpt>
      <trkpt lat="43.30533" lon="-1.25318">
        <ele>248.092207</ele>
        <time>2022-07-19T16:13:25.646Z</time>
      </trkpt>
      <trkpt lat="43.30426" lon="-1.25226">
        <ele>248.357746</ele>
        <time>2022-07-19T16:13:52.929Z</time>
      </trkpt>
      <trkpt lat="43.30367" lon="-1.25163">
        <ele>249.637912</ele>
        <time>2022-07-19T16:14:16.026Z</time>
      </trkpt>
      <trkpt lat="43.3035" lon="-1.2513">
        <ele>250.130229</ele>
        <time>2022-07-19T16:14:23.488Z</time>
      </trkpt>
      <trkpt lat="43.30329" lon="-1.25047">
        <ele>250.925968</ele>
        <time>2022-07-19T16:14:35.496Z</time>
      </trkpt>
      <trkpt lat="43.30309" lon="-1.2501">
        <ele>251.106872</ele>
        <time>2022-07-19T16:14:40.936Z</time>
      </trkpt>
      <trkpt lat="43.30291" lon="-1.24989">
        <ele>251.232974</ele>
        <time>2022-07-19T16:14:45.496Z</time>
      </trkpt>
      <trkpt lat="43.30303" lon="-1.24964">
        <ele>251.349703</ele>
        <time>2022-07-19T16:14:49.074Z</time>
      </trkpt>
      <trkpt lat="43.30363" lon="-1.24885">
        <ele>252.045401</ele>
        <time>2022-07-19T16:15:07.349Z</time>
      </trkpt>
      <trkpt lat="43.30402" lon="-1.24834">
        <ele>254.297022</ele>
        <time>2022-07-19T16:15:20.707Z</time>
      </trkpt>
      <trkpt lat="43.30426" lon="-1.24818">
        <ele>255.416518</ele>
        <time>2022-07-19T16:15:28.017Z</time>
      </trkpt>
      <trkpt lat="43.30538" lon="-1.24767">
        <ele>260.610313</ele>
        <time>2022-07-19T16:16:19.561Z</time>
      </trkpt>
      <trkpt lat="43.30556" lon="-1.24731">
        <ele>262.215481</ele>
        <time>2022-07-19T16:16:35.319Z</time>
      </trkpt>
      <trkpt lat="43.30617" lon="-1.24522">
        <ele>268.580774</ele>
        <time>2022-07-19T16:17:33.937Z</time>
      </trkpt>
      <trkpt lat="43.30641" lon="-1.24438">
        <ele>268.668233</ele>
        <time>2022-07-19T16:17:44.786Z</time>
      </trkpt>
      <trkpt lat="43.30651" lon="-1.24409">
        <ele>268.699149</ele>
        <time>2022-07-19T16:17:48.074Z</time>
      </trkpt>
      <trkpt lat="43.30668" lon="-1.24381">
        <ele>268.734648</ele>
        <time>2022-07-19T16:17:51.906Z</time>
      </trkpt>
      <trkpt lat="43.30671" lon="-1.24355">
        <ele>268.7601</ele>
        <time>2022-07-19T16:17:54.700Z</time>
      </trkpt>
      <trkpt lat="43.30666" lon="-1.2434">
        <ele>268.846065</ele>
        <time>2022-07-19T16:17:56.480Z</time>
      </trkpt>
      <trkpt lat="43.30649" lon="-1.24311">
        <ele>269.095475</ele>
        <time>2022-07-19T16:18:00.476Z</time>
      </trkpt>
      <trkpt lat="43.30622" lon="-1.24268">
        <ele>269.469339</ele>
        <time>2022-07-19T16:18:07.057Z</time>
      </trkpt>
      <trkpt lat="43.30582" lon="-1.24222">
        <ele>269.945653</ele>
        <time>2022-07-19T16:18:19.515Z</time>
      </trkpt>
      <trkpt lat="43.30552" lon="-1.2418">
        <ele>270.342598</ele>
        <time>2022-07-19T16:18:33.158Z</time>
      </trkpt>
      <trkpt lat="43.30529" lon="-1.2413">
        <ele>271.64949</ele>
        <time>2022-07-19T16:18:48.354Z</time>
      </trkpt>
      <trkpt lat="43.30507" lon="-1.24078">
        <ele>273.139413</ele>
        <time>2022-07-19T16:19:04.252Z</time>
      </trkpt>
      <trkpt lat="43.30505" lon="-1.24053">
        <ele>273.781534</ele>
        <time>2022-07-19T16:19:10.867Z</time>
      </trkpt>
      <trkpt lat="43.30508" lon="-1.24033">
        <ele>274.298899</ele>
        <time>2022-07-19T16:19:16.345Z</time>
      </trkpt>
      <trkpt lat="43.30526" lon="-1.23994">
        <ele>275.45516</ele>
        <time>2022-07-19T16:19:27.473Z</time>
      </trkpt>
      <trkpt lat="43.3053" lon="-1.2396">
        <ele>276.31581</ele>
        <time>2022-07-19T16:19:34.866Z</time>
      </trkpt>
      <trkpt lat="43.30535" lon="-1.23867">
        <ele>275.55678</ele>
        <time>2022-07-19T16:19:46.863Z</time>
      </trkpt>
      <trkpt lat="43.30541" lon="-1.2385">
        <ele>275.303547</ele>
        <time>2022-07-19T16:19:48.933Z</time>
      </trkpt>
      <trkpt lat="43.30567" lon="-1.23815">
        <ele>274.632902</ele>
        <time>2022-07-19T16:19:54.170Z</time>
      </trkpt>
      <trkpt lat="43.30603" lon="-1.23792">
        <ele>273.895531</ele>
        <time>2022-07-19T16:19:59.736Z</time>
      </trkpt>
      <trkpt lat="43.30619" lon="-1.23773">
        <ele>273.508272</ele>
        <time>2022-07-19T16:20:02.446Z</time>
      </trkpt>
      <trkpt lat="43.30626" lon="-1.23751">
        <ele>272.889877</ele>
        <time>2022-07-19T16:20:04.816Z</time>
      </trkpt>
      <trkpt lat="43.30621" lon="-1.23637">
        <ele>268.007457</ele>
        <time>2022-07-19T16:20:15.022Z</time>
      </trkpt>
      <trkpt lat="43.30619" lon="-1.23582">
        <ele>265.643995</ele>
        <time>2022-07-19T16:20:19.866Z</time>
      </trkpt>
      <trkpt lat="43.30617" lon="-1.23532">
        <ele>263.511504</ele>
        <time>2022-07-19T16:20:24.286Z</time>
      </trkpt>
      <trkpt lat="43.30617" lon="-1.23501">
        <ele>262.203745</ele>
        <time>2022-07-19T16:20:27.016Z</time>
      </trkpt>
      <trkpt lat="43.30608" lon="-1.23475">
        <ele>261.031039</ele>
        <time>2022-07-19T16:20:29.648Z</time>
      </trkpt>
      <trkpt lat="43.30559" lon="-1.23427">
        <ele>257.721599</ele>
        <time>2022-07-19T16:20:36.974Z</time>
      </trkpt>
      <trkpt lat="43.30492" lon="-1.23344">
        <ele>252.76893</ele>
        <time>2022-07-19T16:20:48.218Z</time>
      </trkpt>
      <trkpt lat="43.30461" lon="-1.23316">
        <ele>252.479994</ele>
        <time>2022-07-19T16:20:53.571Z</time>
      </trkpt>
      <trkpt lat="43.30441" lon="-1.23283">
        <ele>252.247861</ele>
        <time>2022-07-19T16:20:58.092Z</time>
      </trkpt>
      <trkpt lat="43.30438" lon="-1.23277">
        <ele>252.205506</ele>
        <time>2022-07-19T16:20:59.034Z</time>
      </trkpt>
      <trkpt lat="43.30357" lon="-1.23043">
        <ele>251.863814</ele>
        <time>2022-07-19T16:21:39.421Z</time>
      </trkpt>
      <trkpt lat="43.30353" lon="-1.23022">
        <ele>251.950919</ele>
        <time>2022-07-19T16:21:43.632Z</time>
      </trkpt>
      <trkpt lat="43.30363" lon="-1.22919">
        <ele>252.368552</ele>
        <time>2022-07-19T16:21:59.411Z</time>
      </trkpt>
      <trkpt lat="43.30391" lon="-1.22805">
        <ele>250.432198</ele>
        <time>2022-07-19T16:22:12.157Z</time>
      </trkpt>
      <trkpt lat="43.30388" lon="-1.22764">
        <ele>249.724696</ele>
        <time>2022-07-19T16:22:16.289Z</time>
      </trkpt>
      <trkpt lat="43.30374" lon="-1.22734">
        <ele>249.106113</ele>
        <time>2022-07-19T16:22:19.913Z</time>
      </trkpt>
      <trkpt lat="43.30371" lon="-1.22709">
        <ele>248.662313</ele>
        <time>2022-07-19T16:22:22.598Z</time>
      </trkpt>
      <trkpt lat="43.30382" lon="-1.22691">
        <ele>248.273025</ele>
        <time>2022-07-19T16:22:24.794Z</time>
      </trkpt>
      <trkpt lat="43.30464" lon="-1.22626">
        <ele>243.948723</ele>
        <time>2022-07-19T16:22:37.355Z</time>
      </trkpt>
      <trkpt lat="43.30479" lon="-1.22603">
        <ele>242.9273</ele>
        <time>2022-07-19T16:22:40.112Z</time>
      </trkpt>
      <trkpt lat="43.30569" lon="-1.22265">
        <ele>229.257128</ele>
        <time>2022-07-19T16:23:12.688Z</time>
      </trkpt>
      <trkpt lat="43.30583" lon="-1.22245">
        <ele>228.434164</ele>
        <time>2022-07-19T16:23:15.323Z</time>
      </trkpt>
      <trkpt lat="43.30607" lon="-1.22226">
        <ele>227.282818</ele>
        <time>2022-07-19T16:23:19.012Z</time>
      </trkpt>
      <trkpt lat="43.30618" lon="-1.22209">
        <ele>226.622393</ele>
        <time>2022-07-19T16:23:21.065Z</time>
      </trkpt>
      <trkpt lat="43.30622" lon="-1.22181">
        <ele>225.751519</ele>
        <time>2022-07-19T16:23:23.998Z</time>
      </trkpt>
      <trkpt lat="43.30618" lon="-1.22148">
        <ele>224.769187</ele>
        <time>2022-07-19T16:23:27.131Z</time>
      </trkpt>
      <trkpt lat="43.30588" lon="-1.22106">
        <ele>223.025243</ele>
        <time>2022-07-19T16:23:32.974Z</time>
      </trkpt>
      <trkpt lat="43.30498" lon="-1.22085">
        <ele>218.61848</ele>
        <time>2022-07-19T16:23:45.091Z</time>
      </trkpt>
      <trkpt lat="43.30459" lon="-1.22015">
        <ele>215.431527</ele>
        <time>2022-07-19T16:23:52.995Z</time>
      </trkpt>
      <trkpt lat="43.30405" lon="-1.21973">
        <ele>212.07592</ele>
        <time>2022-07-19T16:24:00.653Z</time>
      </trkpt>
      <trkpt lat="43.30352" lon="-1.21917">
        <ele>208.075741</ele>
        <time>2022-07-19T16:24:08.785Z</time>
      </trkpt>
      <trkpt lat="43.30328" lon="-1.2191">
        <ele>206.572256</ele>
        <time>2022-07-19T16:24:11.867Z</time>
      </trkpt>
      <trkpt lat="43.30261" lon="-1.21909">
        <ele>202.570926</ele>
        <time>2022-07-19T16:24:20.116Z</time>
      </trkpt>
      <trkpt lat="43.30245" lon="-1.21887">
        <ele>201.484587</ele>
        <time>2022-07-19T16:24:22.906Z</time>
      </trkpt>
      <trkpt lat="43.30241" lon="-1.21844">
        <ele>199.968096</ele>
        <time>2022-07-19T16:24:26.873Z</time>
      </trkpt>
      <trkpt lat="43.30272" lon="-1.21759">
        <ele>196.672068</ele>
        <time>2022-07-19T16:24:35.805Z</time>
      </trkpt>
      <trkpt lat="43.30277" lon="-1.21734">
        <ele>195.768168</ele>
        <time>2022-07-19T16:24:38.255Z</time>
      </trkpt>
      <trkpt lat="43.30258" lon="-1.21638">
        <ele>192.407778</ele>
        <time>2022-07-19T16:24:47.634Z</time>
      </trkpt>
      <trkpt lat="43.30259" lon="-1.2161">
        <ele>191.488801</ele>
        <time>2022-07-19T16:24:50.262Z</time>
      </trkpt>
      <trkpt lat="43.30271" lon="-1.21553">
        <ele>189.539093</ele>
        <time>2022-07-19T16:24:55.871Z</time>
      </trkpt>
      <trkpt lat="43.30261" lon="-1.21475">
        <ele>186.958649</ele>
        <time>2022-07-19T16:25:03.231Z</time>
      </trkpt>
      <trkpt lat="43.30262" lon="-1.21447">
        <ele>186.035466</ele>
        <time>2022-07-19T16:25:05.831Z</time>
      </trkpt>
      <trkpt lat="43.30275" lon="-1.21414">
        <ele>185.079282</ele>
        <time>2022-07-19T16:25:09.365Z</time>
      </trkpt>
      <trkpt lat="43.30309" lon="-1.21359">
        <ele>183.356855</ele>
        <time>2022-07-19T16:25:16.241Z</time>
      </trkpt>
      <trkpt lat="43.30334" lon="-1.21258">
        <ele>180.795304</ele>
        <time>2022-07-19T16:25:26.927Z</time>
      </trkpt>
      <trkpt lat="43.30334" lon="-1.21253">
        <ele>180.670166</ele>
        <time>2022-07-19T16:25:27.475Z</time>
      </trkpt>
      <trkpt lat="43.3033" lon="-1.21234">
        <ele>180.202582</ele>
        <time>2022-07-19T16:25:29.577Z</time>
      </trkpt>
      <trkpt lat="43.30314" lon="-1.2119">
        <ele>179.941863</ele>
        <time>2022-07-19T16:25:35.176Z</time>
      </trkpt>
      <trkpt lat="43.30277" lon="-1.21122">
        <ele>179.900717</ele>
        <time>2022-07-19T16:25:45.233Z</time>
      </trkpt>
      <trkpt lat="43.30258" lon="-1.21071">
        <ele>179.873003</ele>
        <time>2022-07-19T16:25:53.689Z</time>
      </trkpt>
      <trkpt lat="43.30256" lon="-1.21009">
        <ele>179.842723</ele>
        <time>2022-07-19T16:26:04.518Z</time>
      </trkpt>
      <trkpt lat="43.30224" lon="-1.20909">
        <ele>180.829696</ele>
        <time>2022-07-19T16:26:23.179Z</time>
      </trkpt>
      <trkpt lat="43.30149" lon="-1.20795">
        <ele>182.284323</ele>
        <time>2022-07-19T16:26:48.411Z</time>
      </trkpt>
      <trkpt lat="43.30076" lon="-1.20663">
        <ele>184.004749</ele>
        <time>2022-07-19T16:27:16.830Z</time>
      </trkpt>
      <trkpt lat="43.30045" lon="-1.20624">
        <ele>184.601547</ele>
        <time>2022-07-19T16:27:26.903Z</time>
      </trkpt>
      <trkpt lat="43.30007" lon="-1.20599">
        <ele>184.968015</ele>
        <time>2022-07-19T16:27:36.998Z</time>
      </trkpt>
      <trkpt lat="43.29993" lon="-1.20579">
        <ele>185.114715</ele>
        <time>2022-07-19T16:27:41.751Z</time>
      </trkpt>
      <trkpt lat="43.29875" lon="-1.20352">
        <ele>185.38556</ele>
        <time>2022-07-19T16:28:20.817Z</time>
      </trkpt>
      <trkpt lat="43.29876" lon="-1.20331">
        <ele>185.257733</ele>
        <time>2022-07-19T16:28:23.158Z</time>
      </trkpt>
      <trkpt lat="43.29858" lon="-1.20162">
        <ele>184.028902</ele>
        <time>2022-07-19T16:28:41.720Z</time>
      </trkpt>
      <trkpt lat="43.29817" lon="-1.20068">
        <ele>182.92954</ele>
        <time>2022-07-19T16:28:53.410Z</time>
      </trkpt>
      <trkpt lat="43.29814" lon="-1.20017">
        <ele>182.418509</ele>
        <time>2022-07-19T16:28:59.389Z</time>
      </trkpt>
      <trkpt lat="43.2982" lon="-1.19958">
        <ele>182.152325</ele>
        <time>2022-07-19T16:29:06.891Z</time>
      </trkpt>
      <trkpt lat="43.29817" lon="-1.19936">
        <ele>182.236589</ele>
        <time>2022-07-19T16:29:09.819Z</time>
      </trkpt>
      <trkpt lat="43.29793" lon="-1.19877">
        <ele>182.496719</ele>
        <time>2022-07-19T16:29:19.710Z</time>
      </trkpt>
      <trkpt lat="43.29788" lon="-1.19825">
        <ele>182.698252</ele>
        <time>2022-07-19T16:29:27.974Z</time>
      </trkpt>
      <trkpt lat="43.29823" lon="-1.19723">
        <ele>182.857542</ele>
        <time>2022-07-19T16:29:45.933Z</time>
      </trkpt>
      <trkpt lat="43.29836" lon="-1.19697">
        <ele>182.697906</ele>
        <time>2022-07-19T16:29:50.492Z</time>
      </trkpt>
      <trkpt lat="43.29892" lon="-1.19623">
        <ele>182.161784</ele>
        <time>2022-07-19T16:30:03.362Z</time>
      </trkpt>
      <trkpt lat="43.29922" lon="-1.19546">
        <ele>181.625317</ele>
        <time>2022-07-19T16:30:12.673Z</time>
      </trkpt>
      <trkpt lat="43.29934" lon="-1.19496">
        <ele>180.821429</ele>
        <time>2022-07-19T16:30:18.217Z</time>
      </trkpt>
      <trkpt lat="43.29938" lon="-1.194">
        <ele>179.351552</ele>
        <time>2022-07-19T16:30:28.204Z</time>
      </trkpt>
      <trkpt lat="43.29947" lon="-1.19377">
        <ele>178.941914</ele>
        <time>2022-07-19T16:30:31.020Z</time>
      </trkpt>
      <trkpt lat="43.29977" lon="-1.19333">
        <ele>178.019685</ele>
        <time>2022-07-19T16:30:37.396Z</time>
      </trkpt>
      <trkpt lat="43.30093" lon="-1.19229">
        <ele>176.030089</ele>
        <time>2022-07-19T16:30:58.891Z</time>
      </trkpt>
      <trkpt lat="43.30109" lon="-1.19205">
        <ele>175.697931</ele>
        <time>2022-07-19T16:31:02.507Z</time>
      </trkpt>
      <trkpt lat="43.30124" lon="-1.19171">
        <ele>175.254526</ele>
        <time>2022-07-19T16:31:06.957Z</time>
      </trkpt>
      <trkpt lat="43.30129" lon="-1.19132">
        <ele>174.770687</ele>
        <time>2022-07-19T16:31:11.363Z</time>
      </trkpt>
      <trkpt lat="43.30122" lon="-1.19089">
        <ele>174.219288</ele>
        <time>2022-07-19T16:31:16.263Z</time>
      </trkpt>
      <trkpt lat="43.30084" lon="-1.19018">
        <ele>173.119126</ele>
        <time>2022-07-19T16:31:25.911Z</time>
      </trkpt>
      <trkpt lat="43.30052" lon="-1.18932">
        <ele>171.842804</ele>
        <time>2022-07-19T16:31:36.070Z</time>
      </trkpt>
      <trkpt lat="43.3001" lon="-1.18869">
        <ele>170.590398</ele>
        <time>2022-07-19T16:31:45.053Z</time>
      </trkpt>
      <trkpt lat="43.29989" lon="-1.18788">
        <ele>169.343717</ele>
        <time>2022-07-19T16:31:54.238Z</time>
      </trkpt>
      <trkpt lat="43.29969" lon="-1.18665">
        <ele>167.6796</ele>
        <time>2022-07-19T16:32:08.317Z</time>
      </trkpt>
      <trkpt lat="43.29941" lon="-1.18583">
        <ele>166.551297</ele>
        <time>2022-07-19T16:32:18.404Z</time>
      </trkpt>
      <trkpt lat="43.29916" lon="-1.18556">
        <ele>166.010657</ele>
        <time>2022-07-19T16:32:23.109Z</time>
      </trkpt>
      <trkpt lat="43.29863" lon="-1.18521">
        <ele>164.15241</ele>
        <time>2022-07-19T16:32:31.490Z</time>
      </trkpt>
      <trkpt lat="43.29829" lon="-1.18485">
        <ele>162.469279</ele>
        <time>2022-07-19T16:32:37.321Z</time>
      </trkpt>
      <trkpt lat="43.29806" lon="-1.18449">
        <ele>161.09385</ele>
        <time>2022-07-19T16:32:41.821Z</time>
      </trkpt>
      <trkpt lat="43.29766" lon="-1.18337">
        <ele>157.58664</ele>
        <time>2022-07-19T16:32:53.244Z</time>
      </trkpt>
      <trkpt lat="43.29759" lon="-1.18254">
        <ele>155.284409</ele>
        <time>2022-07-19T16:33:01.037Z</time>
      </trkpt>
      <trkpt lat="43.29757" lon="-1.18218">
        <ele>154.285623</ele>
        <time>2022-07-19T16:33:04.564Z</time>
      </trkpt>
      <trkpt lat="43.2976" lon="-1.18184">
        <ele>153.335468</ele>
        <time>2022-07-19T16:33:07.986Z</time>
      </trkpt>
      <trkpt lat="43.29789" lon="-1.18094">
        <ele>151.553367</ele>
        <time>2022-07-19T16:33:18.239Z</time>
      </trkpt>
      <trkpt lat="43.29833" lon="-1.17879">
        <ele>150.160474</ele>
        <time>2022-07-19T16:33:46.348Z</time>
      </trkpt>
      <trkpt lat="43.29836" lon="-1.17869">
        <ele>150.077201</ele>
        <time>2022-07-19T16:33:47.547Z</time>
      </trkpt>
      <trkpt lat="43.29857" lon="-1.1781">
        <ele>149.537829</ele>
        <time>2022-07-19T16:33:55.286Z</time>
      </trkpt>
      <trkpt lat="43.29878" lon="-1.17768">
        <ele>149.122602</ele>
        <time>2022-07-19T16:34:01.022Z</time>
      </trkpt>
      <trkpt lat="43.29892" lon="-1.17703">
        <ele>148.566162</ele>
        <time>2022-07-19T16:34:08.664Z</time>
      </trkpt>
      <trkpt lat="43.29892" lon="-1.17688">
        <ele>148.442073</ele>
        <time>2022-07-19T16:34:10.266Z</time>
      </trkpt>
      <trkpt lat="43.29892" lon="-1.17645">
        <ele>148.083934</ele>
        <time>2022-07-19T16:34:14.956Z</time>
      </trkpt>
      <trkpt lat="43.29918" lon="-1.17588">
        <ele>147.509839</ele>
        <time>2022-07-19T16:34:22.361Z</time>
      </trkpt>
      <trkpt lat="43.2995" lon="-1.17565">
        <ele>147.085686</ele>
        <time>2022-07-19T16:34:27.899Z</time>
      </trkpt>
      <trkpt lat="43.30015" lon="-1.17489">
        <ele>146.209236</ele>
        <time>2022-07-19T16:34:41.629Z</time>
      </trkpt>
      <trkpt lat="43.30042" lon="-1.17439">
        <ele>146.239783</ele>
        <time>2022-07-19T16:34:49.739Z</time>
      </trkpt>
      <trkpt lat="43.30069" lon="-1.17378">
        <ele>146.274265</ele>
        <time>2022-07-19T16:34:59.292Z</time>
      </trkpt>
      <trkpt lat="43.30072" lon="-1.17369">
        <ele>146.27916</ele>
        <time>2022-07-19T16:35:00.640Z</time>
      </trkpt>
      <trkpt lat="43.30091" lon="-1.17344">
        <ele>146.296407</ele>
        <time>2022-07-19T16:35:05.772Z</time>
      </trkpt>
      <trkpt lat="43.3014" lon="-1.17301">
        <ele>146.242948</ele>
        <time>2022-07-19T16:35:17.147Z</time>
      </trkpt>
      <trkpt lat="43.30153" lon="-1.17282">
        <ele>146.161346</ele>
        <time>2022-07-19T16:35:20.969Z</time>
      </trkpt>
      <trkpt lat="43.30176" lon="-1.17247">
        <ele>146.015531</ele>
        <time>2022-07-19T16:35:27.323Z</time>
      </trkpt>
      <trkpt lat="43.30191" lon="-1.17233">
        <ele>145.935655</ele>
        <time>2022-07-19T16:35:30.576Z</time>
      </trkpt>
      <trkpt lat="43.30215" lon="-1.17223">
        <ele>145.828108</ele>
        <time>2022-07-19T16:35:34.977Z</time>
      </trkpt>
      <trkpt lat="43.30303" lon="-1.17052">
        <ele>143.841786</ele>
        <time>2022-07-19T16:35:58.107Z</time>
      </trkpt>
      <trkpt lat="43.30328" lon="-1.1698">
        <ele>142.699189</ele>
        <time>2022-07-19T16:36:06.475Z</time>
      </trkpt>
      <trkpt lat="43.30348" lon="-1.16916">
        <ele>141.772297</ele>
        <time>2022-07-19T16:36:13.674Z</time>
      </trkpt>
      <trkpt lat="43.30364" lon="-1.16849">
        <ele>140.94669</ele>
        <time>2022-07-19T16:36:21.078Z</time>
      </trkpt>
      <trkpt lat="43.30384" lon="-1.16815">
        <ele>140.438371</ele>
        <time>2022-07-19T16:36:25.744Z</time>
      </trkpt>
      <trkpt lat="43.3042" lon="-1.16766">
        <ele>139.624339</ele>
        <time>2022-07-19T16:36:33.830Z</time>
      </trkpt>
      <trkpt lat="43.30429" lon="-1.16765">
        <ele>139.475789</ele>
        <time>2022-07-19T16:36:35.242Z</time>
      </trkpt>
      <trkpt lat="43.3045" lon="-1.16761">
        <ele>139.148798</ele>
        <time>2022-07-19T16:36:38.796Z</time>
      </trkpt>
      <trkpt lat="43.30497" lon="-1.16775">
        <ele>138.912001</ele>
        <time>2022-07-19T16:36:46.762Z</time>
      </trkpt>
      <trkpt lat="43.3054" lon="-1.16774">
        <ele>138.699306</ele>
        <time>2022-07-19T16:36:53.957Z</time>
      </trkpt>
      <trkpt lat="43.30679" lon="-1.16749">
        <ele>137.819017</ele>
        <time>2022-07-19T16:37:17.822Z</time>
      </trkpt>
      <trkpt lat="43.30719" lon="-1.16735">
        <ele>137.470534</ele>
        <time>2022-07-19T16:37:24.402Z</time>
      </trkpt>
      <trkpt lat="43.30768" lon="-1.16683">
        <ele>136.947688</ele>
        <time>2022-07-19T16:37:34.060Z</time>
      </trkpt>
      <trkpt lat="43.30893" lon="-1.16637">
        <ele>135.917662</ele>
        <time>2022-07-19T16:37:54.490Z</time>
      </trkpt>
      <trkpt lat="43.30944" lon="-1.16615">
        <ele>135.49604</ele>
        <time>2022-07-19T16:38:03.310Z</time>
      </trkpt>
      <trkpt lat="43.31053" lon="-1.16544">
        <ele>135.629366</ele>
        <time>2022-07-19T16:38:24.930Z</time>
      </trkpt>
      <trkpt lat="43.3109" lon="-1.16515">
        <ele>135.759019</ele>
        <time>2022-07-19T16:38:33.549Z</time>
      </trkpt>
      <trkpt lat="43.31147" lon="-1.16459">
        <ele>136.079321</ele>
        <time>2022-07-19T16:38:48.245Z</time>
      </trkpt>
      <trkpt lat="43.31227" lon="-1.16417">
        <ele>136.634155</ele>
        <time>2022-07-19T16:39:07.268Z</time>
      </trkpt>
      <trkpt lat="43.31271" lon="-1.16374">
        <ele>136.981963</ele>
        <time>2022-07-19T16:39:18.659Z</time>
      </trkpt>
      <trkpt lat="43.31328" lon="-1.1635">
        <ele>136.252222</ele>
        <time>2022-07-19T16:39:28.434Z</time>
      </trkpt>
      <trkpt lat="43.31409" lon="-1.16334">
        <ele>135.020977</ele>
        <time>2022-07-19T16:39:40.584Z</time>
      </trkpt>
      <trkpt lat="43.31418" lon="-1.16334">
        <ele>134.884527</ele>
        <time>2022-07-19T16:39:41.858Z</time>
      </trkpt>
      <trkpt lat="43.3148" lon="-1.1633">
        <ele>133.807072</ele>
        <time>2022-07-19T16:39:50.620Z</time>
      </trkpt>
      <trkpt lat="43.3152" lon="-1.16316">
        <ele>132.942827</ele>
        <time>2022-07-19T16:39:56.332Z</time>
      </trkpt>
      <trkpt lat="43.31551" lon="-1.16285">
        <ele>132.156519</ele>
        <time>2022-07-19T16:40:01.600Z</time>
      </trkpt>
      <trkpt lat="43.31568" lon="-1.16261">
        <ele>131.63862</ele>
        <time>2022-07-19T16:40:05.112Z</time>
      </trkpt>
      <trkpt lat="43.31576" lon="-1.16233">
        <ele>131.185226</ele>
        <time>2022-07-19T16:40:08.395Z</time>
      </trkpt>
      <trkpt lat="43.31575" lon="-1.1616">
        <ele>130.491698</ele>
        <time>2022-07-19T16:40:17.185Z</time>
      </trkpt>
      <trkpt lat="43.3162" lon="-1.16059">
        <ele>130.237868</ele>
        <time>2022-07-19T16:40:34.190Z</time>
      </trkpt>
      <trkpt lat="43.31719" lon="-1.15933">
        <ele>128.812992</ele>
        <time>2022-07-19T16:40:56.314Z</time>
      </trkpt>
      <trkpt lat="43.31836" lon="-1.1584">
        <ele>126.236159</ele>
        <time>2022-07-19T16:41:15.563Z</time>
      </trkpt>
      <trkpt lat="43.31883" lon="-1.15794">
        <ele>125.126128</ele>
        <time>2022-07-19T16:41:23.449Z</time>
      </trkpt>
      <trkpt lat="43.31934" lon="-1.15727">
        <ele>123.767162</ele>
        <time>2022-07-19T16:41:33.776Z</time>
      </trkpt>
      <trkpt lat="43.31956" lon="-1.15698">
        <ele>123.179312</ele>
        <time>2022-07-19T16:41:38.762Z</time>
      </trkpt>
      <trkpt lat="43.32028" lon="-1.15567">
        <ele>124.126835</ele>
        <time>2022-07-19T16:42:03.479Z</time>
      </trkpt>
      <trkpt lat="43.32076" lon="-1.1545">
        <ele>124.994227</ele>
        <time>2022-07-19T16:42:27.315Z</time>
      </trkpt>
      <trkpt lat="43.32108" lon="-1.15402">
        <ele>125.473053</ele>
        <time>2022-07-19T16:42:38.856Z</time>
      </trkpt>
      <trkpt lat="43.32162" lon="-1.15335">
        <ele>126.198292</ele>
        <time>2022-07-19T16:42:54.789Z</time>
      </trkpt>
      <trkpt lat="43.32165" lon="-1.15317">
        <ele>126.337439</ele>
        <time>2022-07-19T16:42:57.353Z</time>
      </trkpt>
      <trkpt lat="43.32168" lon="-1.15298">
        <ele>126.391304</ele>
        <time>2022-07-19T16:42:59.777Z</time>
      </trkpt>
      <trkpt lat="43.32185" lon="-1.15211">
        <ele>125.483505</ele>
        <time>2022-07-19T16:43:10.315Z</time>
      </trkpt>
      <trkpt lat="43.32291" lon="-1.14782">
        <ele>121.321261</ele>
        <time>2022-07-19T16:43:58.631Z</time>
      </trkpt>
      <trkpt lat="43.32307" lon="-1.14716">
        <ele>122.326011</ele>
        <time>2022-07-19T16:44:10.107Z</time>
      </trkpt>
      <trkpt lat="43.324" lon="-1.14344">
        <ele>131.727662</ele>
        <time>2022-07-19T16:45:52.245Z</time>
      </trkpt>
      <trkpt lat="43.32403" lon="-1.14316">
        <ele>131.655294</ele>
        <time>2022-07-19T16:45:58.411Z</time>
      </trkpt>
      <trkpt lat="43.32393" lon="-1.14274">
        <ele>131.542686</ele>
        <time>2022-07-19T16:46:05.833Z</time>
      </trkpt>
      <trkpt lat="43.3239" lon="-1.14258">
        <ele>131.499355</ele>
        <time>2022-07-19T16:46:07.878Z</time>
      </trkpt>
      <trkpt lat="43.32396" lon="-1.14116">
        <ele>130.969249</ele>
        <time>2022-07-19T16:46:22.849Z</time>
      </trkpt>
      <trkpt lat="43.32396" lon="-1.13949">
        <ele>125.994619</ele>
        <time>2022-07-19T16:46:38.336Z</time>
      </trkpt>
      <trkpt lat="43.32406" lon="-1.13866">
        <ele>123.663457</ele>
        <time>2022-07-19T16:46:46.374Z</time>
      </trkpt>
      <trkpt lat="43.32433" lon="-1.13826">
        <ele>122.888592</ele>
        <time>2022-07-19T16:46:52.073Z</time>
      </trkpt>
      <trkpt lat="43.32466" lon="-1.13807">
        <ele>122.219979</ele>
        <time>2022-07-19T16:46:57.199Z</time>
      </trkpt>
      <trkpt lat="43.32521" lon="-1.1379">
        <ele>121.127539</ele>
        <time>2022-07-19T16:47:06.091Z</time>
      </trkpt>
      <trkpt lat="43.32568" lon="-1.13805">
        <ele>120.236526</ele>
        <time>2022-07-19T16:47:13.893Z</time>
      </trkpt>
      <trkpt lat="43.32712" lon="-1.13801">
        <ele>118.121675</ele>
        <time>2022-07-19T16:47:35.649Z</time>
      </trkpt>
      <trkpt lat="43.32767" lon="-1.13773">
        <ele>117.825495</ele>
        <time>2022-07-19T16:47:44.433Z</time>
      </trkpt>
      <trkpt lat="43.32759" lon="-1.13701">
        <ele>118.027701</ele>
        <time>2022-07-19T16:47:53.697Z</time>
      </trkpt>
      <trkpt lat="43.32754" lon="-1.13545">
        <ele>118.828668</ele>
        <time>2022-07-19T16:48:19.998Z</time>
      </trkpt>
      <trkpt lat="43.32759" lon="-1.13517">
        <ele>119.340548</ele>
        <time>2022-07-19T16:48:26.379Z</time>
      </trkpt>
      <trkpt lat="43.32729" lon="-1.13486">
        <ele>120.260589</ele>
        <time>2022-07-19T16:48:36.866Z</time>
      </trkpt>
      <trkpt lat="43.32673" lon="-1.13447">
        <ele>121.813444</ele>
        <time>2022-07-19T16:48:54.885Z</time>
      </trkpt>
      <trkpt lat="43.32587" lon="-1.13352">
        <ele>125.945497</ele>
        <time>2022-07-19T16:49:28.197Z</time>
      </trkpt>
      <trkpt lat="43.32546" lon="-1.13289">
        <ele>128.689032</ele>
        <time>2022-07-19T16:49:49.035Z</time>
      </trkpt>
      <trkpt lat="43.32519" lon="-1.13255">
        <ele>130.326481</ele>
        <time>2022-07-19T16:50:03.679Z</time>
      </trkpt>
      <trkpt lat="43.32479" lon="-1.13164">
        <ele>136.886844</ele>
        <time>2022-07-19T16:50:45.649Z</time>
      </trkpt>
      <trkpt lat="43.32473" lon="-1.13099">
        <ele>141.19865</ele>
        <time>2022-07-19T16:51:13.787Z</time>
      </trkpt>
      <trkpt lat="43.32498" lon="-1.13029">
        <ele>146.334291</ele>
        <time>2022-07-19T16:51:45.795Z</time>
      </trkpt>
      <trkpt lat="43.32554" lon="-1.12923">
        <ele>154.902119</ele>
        <time>2022-07-19T16:52:41.590Z</time>
      </trkpt>
      <trkpt lat="43.32552" lon="-1.12902">
        <ele>156.308693</ele>
        <time>2022-07-19T16:52:49.511Z</time>
      </trkpt>
      <trkpt lat="43.32484" lon="-1.12673">
        <ele>173.264294</ele>
        <time>2022-07-19T16:54:20.840Z</time>
      </trkpt>
      <trkpt lat="43.32482" lon="-1.12627">
        <ele>176.570484</ele>
        <time>2022-07-19T16:54:42.404Z</time>
      </trkpt>
      <trkpt lat="43.32496" lon="-1.12377">
        <ele>197.086661</ele>
        <time>2022-07-19T16:56:47.353Z</time>
      </trkpt>
      <trkpt lat="43.32495" lon="-1.12271">
        <ele>204.90907</ele>
        <time>2022-07-19T16:57:34.033Z</time>
      </trkpt>
      <trkpt lat="43.32489" lon="-1.1214">
        <ele>212.61279</ele>
        <time>2022-07-19T16:58:20.474Z</time>
      </trkpt>
      <trkpt lat="43.32472" lon="-1.12055">
        <ele>217.536574</ele>
        <time>2022-07-19T16:58:50.436Z</time>
      </trkpt>
      <trkpt lat="43.32463" lon="-1.11825">
        <ele>227.980344</ele>
        <time>2022-07-19T17:00:03.337Z</time>
      </trkpt>
      <trkpt lat="43.32474" lon="-1.11745">
        <ele>230.039049</ele>
        <time>2022-07-19T17:00:27.293Z</time>
      </trkpt>
      <trkpt lat="43.32513" lon="-1.11666">
        <ele>232.471552</ele>
        <time>2022-07-19T17:00:49.940Z</time>
      </trkpt>
      <trkpt lat="43.32534" lon="-1.11596">
        <ele>234.214718</ele>
        <time>2022-07-19T17:01:02.954Z</time>
      </trkpt>
      <trkpt lat="43.32551" lon="-1.11574">
        <ele>234.166495</ele>
        <time>2022-07-19T17:01:07.386Z</time>
      </trkpt>
      <trkpt lat="43.32606" lon="-1.1152">
        <ele>234.025413</ele>
        <time>2022-07-19T17:01:20.135Z</time>
      </trkpt>
      <trkpt lat="43.3264" lon="-1.11449">
        <ele>233.897428</ele>
        <time>2022-07-19T17:01:30.618Z</time>
      </trkpt>
      <trkpt lat="43.32663" lon="-1.11419">
        <ele>233.740849</ele>
        <time>2022-07-19T17:01:35.673Z</time>
      </trkpt>
      <trkpt lat="43.32704" lon="-1.11379">
        <ele>233.171467</ele>
        <time>2022-07-19T17:01:43.848Z</time>
      </trkpt>
      <trkpt lat="43.32722" lon="-1.11335">
        <ele>232.756575</ele>
        <time>2022-07-19T17:01:49.915Z</time>
      </trkpt>
      <trkpt lat="43.32765" lon="-1.11149">
        <ele>230.915497</ele>
        <time>2022-07-19T17:02:13.534Z</time>
      </trkpt>
      <trkpt lat="43.32761" lon="-1.11097">
        <ele>230.343008</ele>
        <time>2022-07-19T17:02:19.598Z</time>
      </trkpt>
      <trkpt lat="43.32743" lon="-1.11055">
        <ele>229.80044</ele>
        <time>2022-07-19T17:02:25.212Z</time>
      </trkpt>
      <trkpt lat="43.32725" lon="-1.10945">
        <ele>228.329479</ele>
        <time>2022-07-19T17:02:37.758Z</time>
      </trkpt>
      <trkpt lat="43.32732" lon="-1.1088">
        <ele>227.310932</ele>
        <time>2022-07-19T17:02:44.896Z</time>
      </trkpt>
      <trkpt lat="43.32747" lon="-1.10827">
        <ele>226.413374</ele>
        <time>2022-07-19T17:02:51.208Z</time>
      </trkpt>
      <trkpt lat="43.32789" lon="-1.10747">
        <ele>224.940977</ele>
        <time>2022-07-19T17:03:02.143Z</time>
      </trkpt>
      <trkpt lat="43.32783" lon="-1.10482">
        <ele>221.102623</ele>
        <time>2022-07-19T17:03:32.558Z</time>
      </trkpt>
      <trkpt lat="43.32762" lon="-1.10396">
        <ele>218.846757</ele>
        <time>2022-07-19T17:03:42.553Z</time>
      </trkpt>
      <trkpt lat="43.32752" lon="-1.10338">
        <ele>217.383051</ele>
        <time>2022-07-19T17:03:48.515Z</time>
      </trkpt>
      <trkpt lat="43.3272" lon="-1.10264">
        <ele>214.522225</ele>
        <time>2022-07-19T17:03:56.882Z</time>
      </trkpt>
      <trkpt lat="43.32715" lon="-1.10235">
        <ele>212.992919</ele>
        <time>2022-07-19T17:03:59.588Z</time>
      </trkpt>
      <trkpt lat="43.32715" lon="-1.10148">
        <ele>208.557745</ele>
        <time>2022-07-19T17:04:07.586Z</time>
      </trkpt>
      <trkpt lat="43.32725" lon="-1.1008">
        <ele>205.057059</ele>
        <time>2022-07-19T17:04:13.803Z</time>
      </trkpt>
      <trkpt lat="43.32722" lon="-1.10045">
        <ele>203.307202</ele>
        <time>2022-07-19T17:04:16.917Z</time>
      </trkpt>
      <trkpt lat="43.32701" lon="-1.09957">
        <ele>199.953239</ele>
        <time>2022-07-19T17:04:25.468Z</time>
      </trkpt>
      <trkpt lat="43.32696" lon="-1.09913">
        <ele>198.363838</ele>
        <time>2022-07-19T17:04:29.606Z</time>
      </trkpt>
      <trkpt lat="43.327" lon="-1.09817">
        <ele>194.873688</ele>
        <time>2022-07-19T17:04:39.431Z</time>
      </trkpt>
      <trkpt lat="43.32686" lon="-1.09695">
        <ele>195.788804</ele>
        <time>2022-07-19T17:04:55.238Z</time>
      </trkpt>
      <trkpt lat="43.32672" lon="-1.09658">
        <ele>196.256247</ele>
        <time>2022-07-19T17:05:02.868Z</time>
      </trkpt>
      <trkpt lat="43.32639" lon="-1.0961">
        <ele>197.0204</ele>
        <time>2022-07-19T17:05:20.018Z</time>
      </trkpt>
      <trkpt lat="43.32626" lon="-1.09574">
        <ele>197.868658</ele>
        <time>2022-07-19T17:05:31.479Z</time>
      </trkpt>
      <trkpt lat="43.32615" lon="-1.09521">
        <ele>200.00952</ele>
        <time>2022-07-19T17:05:48.162Z</time>
      </trkpt>
      <trkpt lat="43.32599" lon="-1.09483">
        <ele>201.764461</ele>
        <time>2022-07-19T17:06:02.448Z</time>
      </trkpt>
      <trkpt lat="43.32564" lon="-1.09442">
        <ele>204.243821</ele>
        <time>2022-07-19T17:06:22.174Z</time>
      </trkpt>
      <trkpt lat="43.32512" lon="-1.09408">
        <ele>207.038106</ele>
        <time>2022-07-19T17:06:44.636Z</time>
      </trkpt>
      <trkpt lat="43.32478" lon="-1.09372">
        <ele>207.180654</ele>
        <time>2022-07-19T17:07:00.149Z</time>
      </trkpt>
      <trkpt lat="43.32421" lon="-1.09327">
        <ele>207.398761</ele>
        <time>2022-07-19T17:07:14.029Z</time>
      </trkpt>
      <trkpt lat="43.32368" lon="-1.09325">
        <ele>207.575267</ele>
        <time>2022-07-19T17:07:21.871Z</time>
      </trkpt>
      <trkpt lat="43.32351" lon="-1.09317">
        <ele>207.336135</ele>
        <time>2022-07-19T17:07:24.363Z</time>
      </trkpt>
      <trkpt lat="43.32226" lon="-1.09224">
        <ele>199.927763</ele>
        <time>2022-07-19T17:07:43.154Z</time>
      </trkpt>
      <trkpt lat="43.32204" lon="-1.09183">
        <ele>197.932663</ele>
        <time>2022-07-19T17:07:47.848Z</time>
      </trkpt>
      <trkpt lat="43.3217" lon="-1.09036">
        <ele>190.3142</ele>
        <time>2022-07-19T17:08:02.249Z</time>
      </trkpt>
      <trkpt lat="43.32148" lon="-1.08979">
        <ele>187.141773</ele>
        <time>2022-07-19T17:08:08.069Z</time>
      </trkpt>
      <trkpt lat="43.32089" lon="-1.08913">
        <ele>181.549381</ele>
        <time>2022-07-19T17:08:17.495Z</time>
      </trkpt>
      <trkpt lat="43.32044" lon="-1.08846">
        <ele>176.659085</ele>
        <time>2022-07-19T17:08:25.598Z</time>
      </trkpt>
      <trkpt lat="43.31978" lon="-1.08766">
        <ele>171.435529</ele>
        <time>2022-07-19T17:08:36.752Z</time>
      </trkpt>
      <trkpt lat="43.31891" lon="-1.08697">
        <ele>167.852765</ele>
        <time>2022-07-19T17:08:50.976Z</time>
      </trkpt>
      <trkpt lat="43.31861" lon="-1.08675">
        <ele>166.645819</ele>
        <time>2022-07-19T17:08:56.541Z</time>
      </trkpt>
      <trkpt lat="43.31788" lon="-1.0866">
        <ele>165.153954</ele>
        <time>2022-07-19T17:09:09.880Z</time>
      </trkpt>
      <trkpt lat="43.31716" lon="-1.08659">
        <ele>163.879037</ele>
        <time>2022-07-19T17:09:21.274Z</time>
      </trkpt>
      <trkpt lat="43.31633" lon="-1.08641">
        <ele>161.454073</ele>
        <time>2022-07-19T17:09:33.255Z</time>
      </trkpt>
      <trkpt lat="43.3157" lon="-1.08659">
        <ele>158.826729</ele>
        <time>2022-07-19T17:09:41.930Z</time>
      </trkpt>
      <trkpt lat="43.31482" lon="-1.08657">
        <ele>155.344521</ele>
        <time>2022-07-19T17:09:53.843Z</time>
      </trkpt>
      <trkpt lat="43.31461" lon="-1.08651">
        <ele>154.741329</ele>
        <time>2022-07-19T17:09:56.702Z</time>
      </trkpt>
      <trkpt lat="43.31387" lon="-1.08558">
        <ele>151.929776</ele>
        <time>2022-07-19T17:10:11.460Z</time>
      </trkpt>
      <trkpt lat="43.31299" lon="-1.0833">
        <ele>149.474496</ele>
        <time>2022-07-19T17:10:42.134Z</time>
      </trkpt>
      <trkpt lat="43.31298" lon="-1.08316">
        <ele>149.389944</ele>
        <time>2022-07-19T17:10:43.870Z</time>
      </trkpt>
      <trkpt lat="43.31286" lon="-1.08259">
        <ele>149.314425</ele>
        <time>2022-07-19T17:10:52.029Z</time>
      </trkpt>
      <trkpt lat="43.31236" lon="-1.08179">
        <ele>150.123381</ele>
        <time>2022-07-19T17:11:09.968Z</time>
      </trkpt>
      <trkpt lat="43.312" lon="-1.08146">
        <ele>150.586287</ele>
        <time>2022-07-19T17:11:21.011Z</time>
      </trkpt>
      <trkpt lat="43.31182" lon="-1.0812">
        <ele>150.865306</ele>
        <time>2022-07-19T17:11:27.418Z</time>
      </trkpt>
      <trkpt lat="43.31174" lon="-1.08099">
        <ele>151.04296</ele>
        <time>2022-07-19T17:11:31.697Z</time>
      </trkpt>
      <trkpt lat="43.31168" lon="-1.08069">
        <ele>150.813964</ele>
        <time>2022-07-19T17:11:36.853Z</time>
      </trkpt>
      <trkpt lat="43.31137" lon="-1.07991">
        <ele>150.073578</ele>
        <time>2022-07-19T17:11:50.619Z</time>
      </trkpt>
      <trkpt lat="43.31077" lon="-1.07924">
        <ele>149.187245</ele>
        <time>2022-07-19T17:12:02.069Z</time>
      </trkpt>
      <trkpt lat="43.31038" lon="-1.07868">
        <ele>145.784379</ele>
        <time>2022-07-19T17:12:09.242Z</time>
      </trkpt>
      <trkpt lat="43.31028" lon="-1.07847">
        <ele>144.230067</ele>
        <time>2022-07-19T17:12:11.435Z</time>
      </trkpt>
      <trkpt lat="43.31017" lon="-1.0781">
        <ele>141.860086</ele>
        <time>2022-07-19T17:12:14.838Z</time>
      </trkpt>
      <trkpt lat="43.31006" lon="-1.07723">
        <ele>136.568817</ele>
        <time>2022-07-19T17:12:22.167Z</time>
      </trkpt>
      <trkpt lat="43.30996" lon="-1.07558">
        <ele>125.767613</ele>
        <time>2022-07-19T17:12:35.619Z</time>
      </trkpt>
      <trkpt lat="43.31059" lon="-1.0734">
        <ele>112.70584</ele>
        <time>2022-07-19T17:12:55.897Z</time>
      </trkpt>
      <trkpt lat="43.31065" lon="-1.07296">
        <ele>110.773825</ele>
        <time>2022-07-19T17:13:00.099Z</time>
      </trkpt>
      <trkpt lat="43.31078" lon="-1.07249">
        <ele>108.539092</ele>
        <time>2022-07-19T17:13:04.936Z</time>
      </trkpt>
      <trkpt lat="43.31085" lon="-1.07212">
        <ele>106.904388</ele>
        <time>2022-07-19T17:13:08.437Z</time>
      </trkpt>
      <trkpt lat="43.3109" lon="-1.07067">
        <ele>100.387596</ele>
        <time>2022-07-19T17:13:21.442Z</time>
      </trkpt>
      <trkpt lat="43.31154" lon="-1.06856">
        <ele>90.626756</ele>
        <time>2022-07-19T17:13:41.527Z</time>
      </trkpt>
      <trkpt lat="43.31162" lon="-1.06804">
        <ele>88.448544</ele>
        <time>2022-07-19T17:13:46.331Z</time>
      </trkpt>
      <trkpt lat="43.31164" lon="-1.06649">
        <ele>84.327386</ele>
        <time>2022-07-19T17:14:01.596Z</time>
      </trkpt>
      <trkpt lat="43.31157" lon="-1.06622">
        <ele>83.886753</ele>
        <time>2022-07-19T17:14:04.636Z</time>
      </trkpt>
      <trkpt lat="43.31365" lon="-1.0642">
        <ele>79.408573</ele>
        <time>2022-07-19T17:14:44.436Z</time>
      </trkpt>
      <trkpt lat="43.31465" lon="-1.06339">
        <ele>75.737772</ele>
        <time>2022-07-19T17:15:00.545Z</time>
      </trkpt>
      <trkpt lat="43.3156" lon="-1.0626">
        <ele>71.646089</ele>
        <time>2022-07-19T17:15:14.904Z</time>
      </trkpt>
      <trkpt lat="43.31586" lon="-1.06231">
        <ele>70.221536</ele>
        <time>2022-07-19T17:15:19.137Z</time>
      </trkpt>
      <trkpt lat="43.316" lon="-1.06205">
        <ele>69.201422</ele>
        <time>2022-07-19T17:15:22.172Z</time>
      </trkpt>
      <trkpt lat="43.31608" lon="-1.06174">
        <ele>68.19517</ele>
        <time>2022-07-19T17:15:25.239Z</time>
      </trkpt>
      <trkpt lat="43.31609" lon="-1.06138">
        <ele>67.090358</ele>
        <time>2022-07-19T17:15:28.660Z</time>
      </trkpt>
      <trkpt lat="43.31586" lon="-1.06069">
        <ele>64.988668</ele>
        <time>2022-07-19T17:15:36.081Z</time>
      </trkpt>
      <trkpt lat="43.3158" lon="-1.06033">
        <ele>64.530422</ele>
        <time>2022-07-19T17:15:39.873Z</time>
      </trkpt>
      <trkpt lat="43.31583" lon="-1.05997">
        <ele>64.069856</ele>
        <time>2022-07-19T17:15:43.839Z</time>
      </trkpt>
      <trkpt lat="43.31598" lon="-1.0596">
        <ele>63.531099</ele>
        <time>2022-07-19T17:15:48.430Z</time>
      </trkpt>
      <trkpt lat="43.31631" lon="-1.05928">
        <ele>62.837968</ele>
        <time>2022-07-19T17:15:54.431Z</time>
      </trkpt>
      <trkpt lat="43.31778" lon="-1.05854">
        <ele>61.578931</ele>
        <time>2022-07-19T17:16:20.580Z</time>
      </trkpt>
      <trkpt lat="43.31809" lon="-1.05819">
        <ele>61.415885</ele>
        <time>2022-07-19T17:16:27.411Z</time>
      </trkpt>
      <trkpt lat="43.31824" lon="-1.05788">
        <ele>61.304356</ele>
        <time>2022-07-19T17:16:32.180Z</time>
      </trkpt>
      <trkpt lat="43.31832" lon="-1.05744">
        <ele>61.344249</ele>
        <time>2022-07-19T17:16:38.042Z</time>
      </trkpt>
      <trkpt lat="43.31848" lon="-1.0553">
        <ele>61.601562</ele>
        <time>2022-07-19T17:17:07.338Z</time>
      </trkpt>
      <trkpt lat="43.31845" lon="-1.05479">
        <ele>61.653887</ele>
        <time>2022-07-19T17:17:14.404Z</time>
      </trkpt>
      <trkpt lat="43.31825" lon="-1.05378">
        <ele>61.76194</ele>
        <time>2022-07-19T17:17:29.234Z</time>
      </trkpt>
      <trkpt lat="43.31791" lon="-1.05201">
        <ele>60.896978</ele>
        <time>2022-07-19T17:17:52.340Z</time>
      </trkpt>
      <trkpt lat="43.31794" lon="-1.05157">
        <ele>60.491867</ele>
        <time>2022-07-19T17:17:57.418Z</time>
      </trkpt>
      <trkpt lat="43.3181" lon="-1.0513">
        <ele>60.162885</ele>
        <time>2022-07-19T17:18:01.292Z</time>
      </trkpt>
      <trkpt lat="43.3187" lon="-1.05069">
        <ele>59.114971</ele>
        <time>2022-07-19T17:18:11.533Z</time>
      </trkpt>
      <trkpt lat="43.31922" lon="-1.05029">
        <ele>58.1201</ele>
        <time>2022-07-19T17:18:20.010Z</time>
      </trkpt>
      <trkpt lat="43.31946" lon="-1.04986">
        <ele>57.464358</ele>
        <time>2022-07-19T17:18:26.083Z</time>
      </trkpt>
      <trkpt lat="43.3196" lon="-1.04955">
        <ele>57.017074</ele>
        <time>2022-07-19T17:18:30.298Z</time>
      </trkpt>
      <trkpt lat="43.31977" lon="-1.04914">
        <ele>56.581012</ele>
        <time>2022-07-19T17:18:36.009Z</time>
      </trkpt>
      <trkpt lat="43.31988" lon="-1.04881">
        <ele>56.767157</ele>
        <time>2022-07-19T17:18:40.613Z</time>
      </trkpt>
      <trkpt lat="43.31996" lon="-1.04826">
        <ele>57.058572</ele>
        <time>2022-07-19T17:18:48.393Z</time>
      </trkpt>
      <trkpt lat="43.32015" lon="-1.04536">
        <ele>57.87756</ele>
        <time>2022-07-19T17:19:37.286Z</time>
      </trkpt>
      <trkpt lat="43.32027" lon="-1.04438">
        <ele>57.924559</ele>
        <time>2022-07-19T17:19:48.587Z</time>
      </trkpt>
      <trkpt lat="43.32121" lon="-1.04153">
        <ele>52.98124</ele>
        <time>2022-07-19T17:20:20.687Z</time>
      </trkpt>
      <trkpt lat="43.32131" lon="-1.04129">
        <ele>52.734925</ele>
        <time>2022-07-19T17:20:23.632Z</time>
      </trkpt>
      <trkpt lat="43.32149" lon="-1.04092">
        <ele>52.340216</ele>
        <time>2022-07-19T17:20:28.509Z</time>
      </trkpt>
      <trkpt lat="43.32187" lon="-1.04051">
        <ele>51.744649</ele>
        <time>2022-07-19T17:20:36.327Z</time>
      </trkpt>
      <trkpt lat="43.32271" lon="-1.04002">
        <ele>51.961316</ele>
        <time>2022-07-19T17:20:54.519Z</time>
      </trkpt>
      <trkpt lat="43.32281" lon="-1.03997">
        <ele>52.082072</ele>
        <time>2022-07-19T17:20:56.922Z</time>
      </trkpt>
      <trkpt lat="43.32473" lon="-1.03889">
        <ele>54.350961</ele>
        <time>2022-07-19T17:21:46.576Z</time>
      </trkpt>
      <trkpt lat="43.32487" lon="-1.03886">
        <ele>54.502017</ele>
        <time>2022-07-19T17:21:49.702Z</time>
      </trkpt>
      <trkpt lat="43.32499" lon="-1.03885">
        <ele>54.631965</ele>
        <time>2022-07-19T17:21:52.222Z</time>
      </trkpt>
      <trkpt lat="43.32508" lon="-1.03867">
        <ele>54.805764</ele>
        <time>2022-07-19T17:21:55.809Z</time>
      </trkpt>
      <trkpt lat="43.32521" lon="-1.03861">
        <ele>54.95185</ele>
        <time>2022-07-19T17:21:58.502Z</time>
      </trkpt>
      <trkpt lat="43.32549" lon="-1.03836">
        <ele>55.232842</ele>
        <time>2022-07-19T17:22:05.023Z</time>
      </trkpt>
      <trkpt lat="43.32624" lon="-1.03768">
        <ele>54.949971</ele>
        <time>2022-07-19T17:22:20.700Z</time>
      </trkpt>
      <trkpt lat="43.32682" lon="-1.03713">
        <ele>54.729966</ele>
        <time>2022-07-19T17:22:32.276Z</time>
      </trkpt>
      <trkpt lat="43.32678" lon="-1.03702">
        <ele>54.70207</ele>
        <time>2022-07-19T17:22:33.765Z</time>
      </trkpt>
      <trkpt lat="43.32645" lon="-1.03623">
        <ele>54.07032</ele>
        <time>2022-07-19T17:22:44.924Z</time>
      </trkpt>
      <trkpt lat="43.32629" lon="-1.03569">
        <ele>53.648016</ele>
        <time>2022-07-19T17:22:52.015Z</time>
      </trkpt>
      <trkpt lat="43.3263" lon="-1.03557">
        <ele>53.560418</ele>
        <time>2022-07-19T17:22:53.471Z</time>
      </trkpt>
      <trkpt lat="43.32657" lon="-1.03541">
        <ele>53.264562</ele>
        <time>2022-07-19T17:22:58.192Z</time>
      </trkpt>
      <trkpt lat="43.32661" lon="-1.03539">
        <ele>53.219222</ele>
        <time>2022-07-19T17:22:58.942Z</time>
      </trkpt>
      <trkpt lat="43.32668" lon="-1.03535">
        <ele>53.143744</ele>
        <time>2022-07-19T17:23:00.196Z</time>
      </trkpt>
      <trkpt lat="43.32676" lon="-1.03531">
        <ele>53.054646</ele>
        <time>2022-07-19T17:23:01.662Z</time>
      </trkpt>
      <trkpt lat="43.32661" lon="-1.03494">
        <ele>52.882166</ele>
        <time>2022-07-19T17:23:06.440Z</time>
      </trkpt>
      <trkpt lat="43.32659" lon="-1.0349">
        <ele>52.882166</ele>
        <time>2022-07-19T17:23:06.952Z</time>
      </trkpt>
      <trkpt lat="43.32652" lon="-1.03473">
        <ele>52.882166</ele>
        <time>2022-07-19T17:23:09.146Z</time>
      </trkpt>
      <trkpt lat="43.32641" lon="-1.03449">
        <ele>52.882166</ele>
        <time>2022-07-19T17:23:12.251Z</time>
      </trkpt>
      <trkpt lat="43.32645" lon="-1.03444">
        <ele>52.882166</ele>
        <time>2022-07-19T17:23:13.117Z</time>
      </trkpt>
      <trkpt lat="43.32683" lon="-1.03398">
        <ele>52.882166</ele>
        <time>2022-07-19T17:23:20.386Z</time>
      </trkpt>
      <trkpt lat="43.32704" lon="-1.03369">
        <ele>52.882166</ele>
        <time>2022-07-19T17:23:24.747Z</time>
      </trkpt>
      <trkpt lat="43.32725" lon="-1.03342">
        <ele>52.882166</ele>
        <time>2022-07-19T17:23:28.843Z</time>
      </trkpt>
      <trkpt lat="43.32729" lon="-1.03336">
        <ele>52.882166</ele>
        <time>2022-07-19T17:23:29.788Z</time>
      </trkpt>
      <trkpt lat="43.32744" lon="-1.03318">
        <ele>52.882166</ele>
        <time>2022-07-19T17:23:32.602Z</time>
      </trkpt>
      <trkpt lat="43.32746" lon="-1.03295">
        <ele>52.882166</ele>
        <time>2022-07-19T17:23:35.064Z</time>
      </trkpt>
      <trkpt lat="43.32732" lon="-1.0327">
        <ele>52.882166</ele>
        <time>2022-07-19T17:23:38.454Z</time>
      </trkpt>
      <trkpt lat="43.32723" lon="-1.03254">
        <ele>52.882166</ele>
        <time>2022-07-19T17:23:40.618Z</time>
      </trkpt>
      <trkpt lat="43.32717" lon="-1.03244">
        <ele>52.882166</ele>
        <time>2022-07-19T17:23:42.015Z</time>
      </trkpt>
      <trkpt lat="43.32715" lon="-1.0324">
        <ele>52.882166</ele>
        <time>2022-07-19T17:23:42.525Z</time>
      </trkpt>
    </trkseg>
  </trk>
  <trk>
    <name><![CDATA[Depuis Hendaye BkPk_2]]></name>
    <trkseg>
      <trkpt lat="43.32727" lon="-1.03233">
        <ele>47</ele>
      </trkpt>
      <trkpt lat="43.32733" lon="-1.03228">
        <ele>47</ele>
      </trkpt>
      <trkpt lat="43.3275" lon="-1.03216">
        <ele>46.8</ele>
      </trkpt>
      <trkpt lat="43.32769" lon="-1.03207">
        <ele>46.4</ele>
      </trkpt>
      <trkpt lat="43.32778" lon="-1.03202">
        <ele>46.3</ele>
      </trkpt>
      <trkpt lat="43.32788" lon="-1.03198">
        <ele>46.1</ele>
      </trkpt>
      <trkpt lat="43.32813" lon="-1.03191">
        <ele>46</ele>
      </trkpt>
      <trkpt lat="43.32833" lon="-1.03187">
        <ele>46</ele>
      </trkpt>
      <trkpt lat="43.32849" lon="-1.03184">
        <ele>46</ele>
      </trkpt>
      <trkpt lat="43.32852" lon="-1.03183">
        <ele>46</ele>
      </trkpt>
      <trkpt lat="43.3289" lon="-1.03168">
        <ele>45.1</ele>
      </trkpt>
      <trkpt lat="43.32909" lon="-1.03161">
        <ele>46.1</ele>
      </trkpt>
      <trkpt lat="43.32927" lon="-1.03157">
        <ele>46</ele>
      </trkpt>
      <trkpt lat="43.32955" lon="-1.03153">
        <ele>45.9</ele>
      </trkpt>
      <trkpt lat="43.32998" lon="-1.03146">
        <ele>46.5</ele>
      </trkpt>
      <trkpt lat="43.33009" lon="-1.03143">
        <ele>46.3</ele>
      </trkpt>
      <trkpt lat="43.33074" lon="-1.03125">
        <ele>48</ele>
      </trkpt>
      <trkpt lat="43.33117" lon="-1.03123">
        <ele>47.8</ele>
      </trkpt>
      <trkpt lat="43.33149" lon="-1.03124">
        <ele>47.6</ele>
      </trkpt>
      <trkpt lat="43.33164" lon="-1.03128">
        <ele>48.1</ele>
      </trkpt>
      <trkpt lat="43.33183" lon="-1.0312">
        <ele>48</ele>
      </trkpt>
      <trkpt lat="43.33225" lon="-1.03092">
        <ele>47</ele>
      </trkpt>
      <trkpt lat="43.3329" lon="-1.03046">
        <ele>45.5</ele>
      </trkpt>
      <trkpt lat="43.33306" lon="-1.03033">
        <ele>45.4</ele>
      </trkpt>
      <trkpt lat="43.33344" lon="-1.03003">
        <ele>43.9</ele>
      </trkpt>
      <trkpt lat="43.33363" lon="-1.02988">
        <ele>44.2</ele>
      </trkpt>
      <trkpt lat="43.33453" lon="-1.02915">
        <ele>42.7</ele>
      </trkpt>
      <trkpt lat="43.33489" lon="-1.02886">
        <ele>42.9</ele>
      </trkpt>
      <trkpt lat="43.33492" lon="-1.02899">
        <ele>42.6</ele>
      </trkpt>
      <trkpt lat="43.33496" lon="-1.0291">
        <ele>42.2</ele>
      </trkpt>
      <trkpt lat="43.33502" lon="-1.02917">
        <ele>42</ele>
      </trkpt>
      <trkpt lat="43.3352" lon="-1.02926">
        <ele>42.3</ele>
      </trkpt>
      <trkpt lat="43.33537" lon="-1.02941">
        <ele>42.9</ele>
      </trkpt>
      <trkpt lat="43.33555" lon="-1.02973">
        <ele>43</ele>
      </trkpt>
      <trkpt lat="43.33571" lon="-1.03003">
        <ele>44</ele>
      </trkpt>
      <trkpt lat="43.33575" lon="-1.03021">
        <ele>44.2</ele>
      </trkpt>
      <trkpt lat="43.33581" lon="-1.03048">
        <ele>43.4</ele>
      </trkpt>
      <trkpt lat="43.33582" lon="-1.03051">
        <ele>43.3</ele>
      </trkpt>
      <trkpt lat="43.33586" lon="-1.03064">
        <ele>42.7</ele>
      </trkpt>
      <trkpt lat="43.3364" lon="-1.03023">
        <ele>43.2</ele>
      </trkpt>
      <trkpt lat="43.33774" lon="-1.02918">
        <ele>42.8</ele>
      </trkpt>
      <trkpt lat="43.339" lon="-1.02826">
        <ele>41.2</ele>
      </trkpt>
      <trkpt lat="43.34037" lon="-1.02723">
        <ele>42</ele>
      </trkpt>
      <trkpt lat="43.34071" lon="-1.02698">
        <ele>39.9</ele>
      </trkpt>
      <trkpt lat="43.34101" lon="-1.02676">
        <ele>40.9</ele>
      </trkpt>
      <trkpt lat="43.34117" lon="-1.02665">
        <ele>42.2</ele>
      </trkpt>
      <trkpt lat="43.34152" lon="-1.02643">
        <ele>41.6</ele>
      </trkpt>
      <trkpt lat="43.34179" lon="-1.02626">
        <ele>41.3</ele>
      </trkpt>
      <trkpt lat="43.34213" lon="-1.02609">
        <ele>41.5</ele>
      </trkpt>
      <trkpt lat="43.3422" lon="-1.02606">
        <ele>40.8</ele>
      </trkpt>
      <trkpt lat="43.3426" lon="-1.02588">
        <ele>39.1</ele>
      </trkpt>
      <trkpt lat="43.34281" lon="-1.02579">
        <ele>41.3</ele>
      </trkpt>
      <trkpt lat="43.34301" lon="-1.0257">
        <ele>43.1</ele>
      </trkpt>
      <trkpt lat="43.34336" lon="-1.02553">
        <ele>45.1</ele>
      </trkpt>
      <trkpt lat="43.34411" lon="-1.0252">
        <ele>47.9</ele>
      </trkpt>
      <trkpt lat="43.3456" lon="-1.02451">
        <ele>48.8</ele>
      </trkpt>
      <trkpt lat="43.34704" lon="-1.02382">
        <ele>50.2</ele>
      </trkpt>
      <trkpt lat="43.34707" lon="-1.02352">
        <ele>50.5</ele>
      </trkpt>
      <trkpt lat="43.34717" lon="-1.0229">
        <ele>51.2</ele>
      </trkpt>
      <trkpt lat="43.3472" lon="-1.02261">
        <ele>50.5</ele>
      </trkpt>
      <trkpt lat="43.34735" lon="-1.02244">
        <ele>49.5</ele>
      </trkpt>
      <trkpt lat="43.34752" lon="-1.02219">
        <ele>49.2</ele>
      </trkpt>
      <trkpt lat="43.34753" lon="-1.02212">
        <ele>49.4</ele>
      </trkpt>
      <trkpt lat="43.34755" lon="-1.02172">
        <ele>50.3</ele>
      </trkpt>
      <trkpt lat="43.34762" lon="-1.0209">
        <ele>53.6</ele>
      </trkpt>
      <trkpt lat="43.34765" lon="-1.02046">
        <ele>55.7</ele>
      </trkpt>
      <trkpt lat="43.34767" lon="-1.02029">
        <ele>56.9</ele>
      </trkpt>
      <trkpt lat="43.34774" lon="-1.02009">
        <ele>57.1</ele>
      </trkpt>
      <trkpt lat="43.34793" lon="-1.01966">
        <ele>59.1</ele>
      </trkpt>
      <trkpt lat="43.34803" lon="-1.01932">
        <ele>59.5</ele>
      </trkpt>
      <trkpt lat="43.34812" lon="-1.01894">
        <ele>61</ele>
      </trkpt>
      <trkpt lat="43.34819" lon="-1.0186">
        <ele>63.5</ele>
      </trkpt>
      <trkpt lat="43.34822" lon="-1.01809">
        <ele>65.8</ele>
      </trkpt>
      <trkpt lat="43.34826" lon="-1.01766">
        <ele>67.8</ele>
      </trkpt>
      <trkpt lat="43.34828" lon="-1.01759">
        <ele>68.2</ele>
      </trkpt>
      <trkpt lat="43.34831" lon="-1.01755">
        <ele>68.6</ele>
      </trkpt>
      <trkpt lat="43.34871" lon="-1.01754">
        <ele>68.7</ele>
      </trkpt>
      <trkpt lat="43.34938" lon="-1.01746">
        <ele>70.5</ele>
      </trkpt>
      <trkpt lat="43.34956" lon="-1.0174">
        <ele>71.1</ele>
      </trkpt>
      <trkpt lat="43.34965" lon="-1.01733">
        <ele>71.6</ele>
      </trkpt>
      <trkpt lat="43.34971" lon="-1.01724">
        <ele>71.9</ele>
      </trkpt>
      <trkpt lat="43.34978" lon="-1.01703">
        <ele>73.6</ele>
      </trkpt>
      <trkpt lat="43.3499" lon="-1.01642">
        <ele>77.5</ele>
      </trkpt>
      <trkpt lat="43.34999" lon="-1.01612">
        <ele>80</ele>
      </trkpt>
      <trkpt lat="43.3501" lon="-1.01583">
        <ele>80.6</ele>
      </trkpt>
      <trkpt lat="43.35025" lon="-1.01556">
        <ele>82.2</ele>
      </trkpt>
      <trkpt lat="43.35042" lon="-1.01533">
        <ele>86.1</ele>
      </trkpt>
      <trkpt lat="43.3505" lon="-1.01518">
        <ele>87.8</ele>
      </trkpt>
      <trkpt lat="43.35055" lon="-1.015">
        <ele>89</ele>
      </trkpt>
      <trkpt lat="43.35064" lon="-1.01441">
        <ele>90.8</ele>
      </trkpt>
      <trkpt lat="43.35091" lon="-1.01446">
        <ele>90</ele>
      </trkpt>
      <trkpt lat="43.3512" lon="-1.01457">
        <ele>90</ele>
      </trkpt>
      <trkpt lat="43.35163" lon="-1.01478">
        <ele>90</ele>
      </trkpt>
      <trkpt lat="43.352" lon="-1.01501">
        <ele>88.8</ele>
      </trkpt>
      <trkpt lat="43.35241" lon="-1.01527">
        <ele>88.6</ele>
      </trkpt>
      <trkpt lat="43.35248" lon="-1.0153">
        <ele>88.2</ele>
      </trkpt>
      <trkpt lat="43.3527" lon="-1.01534">
        <ele>87.5</ele>
      </trkpt>
      <trkpt lat="43.3532" lon="-1.01536">
        <ele>84.9</ele>
      </trkpt>
      <trkpt lat="43.35346" lon="-1.01539">
        <ele>84.9</ele>
      </trkpt>
      <trkpt lat="43.35362" lon="-1.01544">
        <ele>85</ele>
      </trkpt>
      <trkpt lat="43.35381" lon="-1.0155">
        <ele>84.6</ele>
      </trkpt>
      <trkpt lat="43.35402" lon="-1.01553">
        <ele>83.8</ele>
      </trkpt>
      <trkpt lat="43.3544" lon="-1.01553">
        <ele>82.5</ele>
      </trkpt>
      <trkpt lat="43.35507" lon="-1.01545">
        <ele>83.1</ele>
      </trkpt>
      <trkpt lat="43.3552" lon="-1.01542">
        <ele>83.1</ele>
      </trkpt>
      <trkpt lat="43.35529" lon="-1.01534">
        <ele>83.5</ele>
      </trkpt>
      <trkpt lat="43.35535" lon="-1.01524">
        <ele>84</ele>
      </trkpt>
      <trkpt lat="43.35536" lon="-1.01514">
        <ele>84.1</ele>
      </trkpt>
      <trkpt lat="43.35536" lon="-1.01505">
        <ele>84.3</ele>
      </trkpt>
      <trkpt lat="43.35535" lon="-1.01497">
        <ele>84.3</ele>
      </trkpt>
      <trkpt lat="43.35533" lon="-1.0149">
        <ele>84.5</ele>
      </trkpt>
      <trkpt lat="43.3553" lon="-1.01485">
        <ele>84.6</ele>
      </trkpt>
      <trkpt lat="43.35516" lon="-1.01471">
        <ele>84.9</ele>
      </trkpt>
      <trkpt lat="43.35503" lon="-1.01463">
        <ele>84.1</ele>
      </trkpt>
      <trkpt lat="43.35482" lon="-1.0146">
        <ele>84</ele>
      </trkpt>
      <trkpt lat="43.35459" lon="-1.01455">
        <ele>83.6</ele>
      </trkpt>
      <trkpt lat="43.35446" lon="-1.01449">
        <ele>82.6</ele>
      </trkpt>
      <trkpt lat="43.35438" lon="-1.01442">
        <ele>82.6</ele>
      </trkpt>
      <trkpt lat="43.35433" lon="-1.01433">
        <ele>82.7</ele>
      </trkpt>
      <trkpt lat="43.3543" lon="-1.01422">
        <ele>82.3</ele>
      </trkpt>
      <trkpt lat="43.35431" lon="-1.01406">
        <ele>81</ele>
      </trkpt>
      <trkpt lat="43.35438" lon="-1.01363">
        <ele>77.6</ele>
      </trkpt>
      <trkpt lat="43.35448" lon="-1.01318">
        <ele>73.4</ele>
      </trkpt>
      <trkpt lat="43.35454" lon="-1.01297">
        <ele>72.6</ele>
      </trkpt>
      <trkpt lat="43.35456" lon="-1.0128">
        <ele>72.2</ele>
      </trkpt>
      <trkpt lat="43.35456" lon="-1.0127">
        <ele>72</ele>
      </trkpt>
      <trkpt lat="43.35456" lon="-1.01234">
        <ele>70.8</ele>
      </trkpt>
      <trkpt lat="43.35455" lon="-1.01227">
        <ele>70.5</ele>
      </trkpt>
      <trkpt lat="43.35437" lon="-1.0119">
        <ele>69.3</ele>
      </trkpt>
      <trkpt lat="43.3542" lon="-1.01163">
        <ele>68.8</ele>
      </trkpt>
      <trkpt lat="43.35409" lon="-1.01148">
        <ele>68.2</ele>
      </trkpt>
      <trkpt lat="43.35405" lon="-1.01137">
        <ele>67.4</ele>
      </trkpt>
      <trkpt lat="43.35394" lon="-1.01088">
        <ele>64.3</ele>
      </trkpt>
      <trkpt lat="43.35392" lon="-1.01071">
        <ele>63.3</ele>
      </trkpt>
      <trkpt lat="43.35389" lon="-1.01044">
        <ele>61.2</ele>
      </trkpt>
      <trkpt lat="43.35385" lon="-1.01029">
        <ele>60.4</ele>
      </trkpt>
      <trkpt lat="43.35376" lon="-1.01012">
        <ele>60.4</ele>
      </trkpt>
      <trkpt lat="43.35365" lon="-1.00999">
        <ele>60</ele>
      </trkpt>
      <trkpt lat="43.35343" lon="-1.00977">
        <ele>60.5</ele>
      </trkpt>
      <trkpt lat="43.3532" lon="-1.00951">
        <ele>63.2</ele>
      </trkpt>
      <trkpt lat="43.35308" lon="-1.00932">
        <ele>63.9</ele>
      </trkpt>
      <trkpt lat="43.35296" lon="-1.00908">
        <ele>62.9</ele>
      </trkpt>
      <trkpt lat="43.35287" lon="-1.00886">
        <ele>61.9</ele>
      </trkpt>
      <trkpt lat="43.35279" lon="-1.00862">
        <ele>61</ele>
      </trkpt>
      <trkpt lat="43.3526" lon="-1.00788">
        <ele>59</ele>
      </trkpt>
      <trkpt lat="43.35244" lon="-1.00725">
        <ele>55.6</ele>
      </trkpt>
      <trkpt lat="43.35235" lon="-1.00695">
        <ele>56.1</ele>
      </trkpt>
      <trkpt lat="43.35222" lon="-1.00661">
        <ele>56</ele>
      </trkpt>
      <trkpt lat="43.35211" lon="-1.00636">
        <ele>57.2</ele>
      </trkpt>
      <trkpt lat="43.35201" lon="-1.00608">
        <ele>57.2</ele>
      </trkpt>
      <trkpt lat="43.35192" lon="-1.00579">
        <ele>57.2</ele>
      </trkpt>
      <trkpt lat="43.35171" lon="-1.00526">
        <ele>57.4</ele>
      </trkpt>
      <trkpt lat="43.3516" lon="-1.005">
        <ele>56.9</ele>
      </trkpt>
      <trkpt lat="43.35155" lon="-1.00485">
        <ele>56.6</ele>
      </trkpt>
      <trkpt lat="43.3515" lon="-1.00465">
        <ele>56</ele>
      </trkpt>
      <trkpt lat="43.35141" lon="-1.00426">
        <ele>55.2</ele>
      </trkpt>
      <trkpt lat="43.35128" lon="-1.00372">
        <ele>56.2</ele>
      </trkpt>
      <trkpt lat="43.35123" lon="-1.00359">
        <ele>56.5</ele>
      </trkpt>
      <trkpt lat="43.35105" lon="-1.0033">
        <ele>56.4</ele>
      </trkpt>
      <trkpt lat="43.35078" lon="-1.00287">
        <ele>57.3</ele>
      </trkpt>
      <trkpt lat="43.35057" lon="-1.0025">
        <ele>58</ele>
      </trkpt>
      <trkpt lat="43.35041" lon="-1.00218">
        <ele>59.4</ele>
      </trkpt>
      <trkpt lat="43.3502" lon="-1.00178">
        <ele>59.2</ele>
      </trkpt>
      <trkpt lat="43.35011" lon="-1.00166">
        <ele>59.8</ele>
      </trkpt>
      <trkpt lat="43.35013" lon="-1.00121">
        <ele>58.7</ele>
      </trkpt>
      <trkpt lat="43.35015" lon="-1.00068">
        <ele>58.3</ele>
      </trkpt>
      <trkpt lat="43.35017" lon="-1.00055">
        <ele>58.6</ele>
      </trkpt>
      <trkpt lat="43.35021" lon="-1.00045">
        <ele>59.1</ele>
      </trkpt>
      <trkpt lat="43.35031" lon="-1.00032">
        <ele>60.1</ele>
      </trkpt>
      <trkpt lat="43.35035" lon="-1.00029">
        <ele>60.7</ele>
      </trkpt>
      <trkpt lat="43.35053" lon="-1.00018">
        <ele>63.1</ele>
      </trkpt>
      <trkpt lat="43.35061" lon="-1.00014">
        <ele>63.9</ele>
      </trkpt>
      <trkpt lat="43.35096" lon="-0.99998">
        <ele>66.5</ele>
      </trkpt>
      <trkpt lat="43.35133" lon="-0.99976">
        <ele>69.3</ele>
      </trkpt>
      <trkpt lat="43.35176" lon="-0.99944">
        <ele>73</ele>
      </trkpt>
      <trkpt lat="43.35208" lon="-0.99916">
        <ele>74</ele>
      </trkpt>
      <trkpt lat="43.35227" lon="-0.99897">
        <ele>74.7</ele>
      </trkpt>
      <trkpt lat="43.35246" lon="-0.99882">
        <ele>75.5</ele>
      </trkpt>
      <trkpt lat="43.35269" lon="-0.99868">
        <ele>75.4</ele>
      </trkpt>
      <trkpt lat="43.35282" lon="-0.9986">
        <ele>75</ele>
      </trkpt>
      <trkpt lat="43.35305" lon="-0.99847">
        <ele>74.5</ele>
      </trkpt>
      <trkpt lat="43.35327" lon="-0.99831">
        <ele>74.8</ele>
      </trkpt>
      <trkpt lat="43.35391" lon="-0.99777">
        <ele>77</ele>
      </trkpt>
      <trkpt lat="43.35425" lon="-0.99751">
        <ele>77.6</ele>
      </trkpt>
      <trkpt lat="43.35399" lon="-0.99699">
        <ele>74.8</ele>
      </trkpt>
      <trkpt lat="43.35392" lon="-0.99688">
        <ele>73.9</ele>
      </trkpt>
      <trkpt lat="43.35385" lon="-0.99681">
        <ele>73.4</ele>
      </trkpt>
      <trkpt lat="43.35332" lon="-0.99638">
        <ele>70</ele>
      </trkpt>
      <trkpt lat="43.35314" lon="-0.99624">
        <ele>70</ele>
      </trkpt>
      <trkpt lat="43.3529" lon="-0.99605">
        <ele>73.4</ele>
      </trkpt>
      <trkpt lat="43.35282" lon="-0.99594">
        <ele>75.4</ele>
      </trkpt>
      <trkpt lat="43.35269" lon="-0.99568">
        <ele>78.9</ele>
      </trkpt>
      <trkpt lat="43.3526" lon="-0.99548">
        <ele>80.7</ele>
      </trkpt>
      <trkpt lat="43.35259" lon="-0.99538">
        <ele>81.7</ele>
      </trkpt>
      <trkpt lat="43.3526" lon="-0.99528">
        <ele>82.7</ele>
      </trkpt>
      <trkpt lat="43.35261" lon="-0.99523">
        <ele>82.9</ele>
      </trkpt>
      <trkpt lat="43.35282" lon="-0.99483">
        <ele>85.2</ele>
      </trkpt>
      <trkpt lat="43.35292" lon="-0.9947">
        <ele>86.2</ele>
      </trkpt>
      <trkpt lat="43.35325" lon="-0.99436">
        <ele>87.9</ele>
      </trkpt>
      <trkpt lat="43.35328" lon="-0.99431">
        <ele>88.2</ele>
      </trkpt>
      <trkpt lat="43.3535" lon="-0.9937">
        <ele>91.3</ele>
      </trkpt>
      <trkpt lat="43.35356" lon="-0.99352">
        <ele>91.9</ele>
      </trkpt>
      <trkpt lat="43.35363" lon="-0.99329">
        <ele>91.9</ele>
      </trkpt>
      <trkpt lat="43.35373" lon="-0.99276">
        <ele>92.8</ele>
      </trkpt>
      <trkpt lat="43.35376" lon="-0.99243">
        <ele>94.5</ele>
      </trkpt>
      <trkpt lat="43.35377" lon="-0.99212">
        <ele>96.3</ele>
      </trkpt>
      <trkpt lat="43.35378" lon="-0.992">
        <ele>96.9</ele>
      </trkpt>
      <trkpt lat="43.3538" lon="-0.99191">
        <ele>97.4</ele>
      </trkpt>
      <trkpt lat="43.35386" lon="-0.99176">
        <ele>97.8</ele>
      </trkpt>
      <trkpt lat="43.35403" lon="-0.99137">
        <ele>96.5</ele>
      </trkpt>
      <trkpt lat="43.3542" lon="-0.99096">
        <ele>96.8</ele>
      </trkpt>
      <trkpt lat="43.35443" lon="-0.99042">
        <ele>96.9</ele>
      </trkpt>
      <trkpt lat="43.35455" lon="-0.99012">
        <ele>97.7</ele>
      </trkpt>
      <trkpt lat="43.35459" lon="-0.98991">
        <ele>98.9</ele>
      </trkpt>
      <trkpt lat="43.35464" lon="-0.98962">
        <ele>100.6</ele>
      </trkpt>
      <trkpt lat="43.35478" lon="-0.98883">
        <ele>105.4</ele>
      </trkpt>
      <trkpt lat="43.35484" lon="-0.98847">
        <ele>107.1</ele>
      </trkpt>
      <trkpt lat="43.35492" lon="-0.98784">
        <ele>108.1</ele>
      </trkpt>
      <trkpt lat="43.35501" lon="-0.98725">
        <ele>107.1</ele>
      </trkpt>
      <trkpt lat="43.35507" lon="-0.98703">
        <ele>106.6</ele>
      </trkpt>
      <trkpt lat="43.35519" lon="-0.98666">
        <ele>108.1</ele>
      </trkpt>
      <trkpt lat="43.35539" lon="-0.98618">
        <ele>109.1</ele>
      </trkpt>
      <trkpt lat="43.35559" lon="-0.98566">
        <ele>112.7</ele>
      </trkpt>
      <trkpt lat="43.35565" lon="-0.98555">
        <ele>113.4</ele>
      </trkpt>
      <trkpt lat="43.35569" lon="-0.98551">
        <ele>113.5</ele>
      </trkpt>
      <trkpt lat="43.35578" lon="-0.98547">
        <ele>113.8</ele>
      </trkpt>
      <trkpt lat="43.35604" lon="-0.98535">
        <ele>113.8</ele>
      </trkpt>
      <trkpt lat="43.35638" lon="-0.98521">
        <ele>115.4</ele>
      </trkpt>
      <trkpt lat="43.35671" lon="-0.98511">
        <ele>117.3</ele>
      </trkpt>
      <trkpt lat="43.35687" lon="-0.98508">
        <ele>117.1</ele>
      </trkpt>
      <trkpt lat="43.3569" lon="-0.98519">
        <ele>117.1</ele>
      </trkpt>
      <trkpt lat="43.35694" lon="-0.98534">
        <ele>117.4</ele>
      </trkpt>
      <trkpt lat="43.35701" lon="-0.98548">
        <ele>118.5</ele>
      </trkpt>
      <trkpt lat="43.35706" lon="-0.98557">
        <ele>119</ele>
      </trkpt>
      <trkpt lat="43.35713" lon="-0.98564">
        <ele>119</ele>
      </trkpt>
      <trkpt lat="43.35724" lon="-0.98572">
        <ele>119</ele>
      </trkpt>
      <trkpt lat="43.35744" lon="-0.98581">
        <ele>119</ele>
      </trkpt>
      <trkpt lat="43.35779" lon="-0.98594">
        <ele>119</ele>
      </trkpt>
      <trkpt lat="43.35848" lon="-0.98626">
        <ele>116.5</ele>
      </trkpt>
      <trkpt lat="43.3586" lon="-0.98628">
        <ele>116.1</ele>
      </trkpt>
      <trkpt lat="43.35881" lon="-0.98631">
        <ele>115.3</ele>
      </trkpt>
      <trkpt lat="43.35897" lon="-0.98632">
        <ele>114.9</ele>
      </trkpt>
      <trkpt lat="43.35908" lon="-0.9863">
        <ele>114.8</ele>
      </trkpt>
      <trkpt lat="43.35916" lon="-0.98627">
        <ele>114.6</ele>
      </trkpt>
      <trkpt lat="43.35927" lon="-0.98624">
        <ele>113.9</ele>
      </trkpt>
      <trkpt lat="43.35939" lon="-0.98623">
        <ele>113.2</ele>
      </trkpt>
      <trkpt lat="43.3595" lon="-0.98624">
        <ele>112.5</ele>
      </trkpt>
      <trkpt lat="43.3596" lon="-0.98626">
        <ele>111.9</ele>
      </trkpt>
      <trkpt lat="43.35969" lon="-0.98629">
        <ele>111.5</ele>
      </trkpt>
      <trkpt lat="43.3598" lon="-0.98631">
        <ele>110.7</ele>
      </trkpt>
      <trkpt lat="43.36005" lon="-0.98633">
        <ele>108.4</ele>
      </trkpt>
      <trkpt lat="43.36034" lon="-0.98635">
        <ele>106.6</ele>
      </trkpt>
      <trkpt lat="43.36076" lon="-0.98637">
        <ele>105.2</ele>
      </trkpt>
      <trkpt lat="43.3609" lon="-0.98638">
        <ele>104.5</ele>
      </trkpt>
      <trkpt lat="43.36105" lon="-0.98638">
        <ele>103.5</ele>
      </trkpt>
      <trkpt lat="43.36119" lon="-0.98637">
        <ele>102.2</ele>
      </trkpt>
      <trkpt lat="43.36147" lon="-0.98635">
        <ele>99.5</ele>
      </trkpt>
      <trkpt lat="43.36172" lon="-0.98634">
        <ele>97.3</ele>
      </trkpt>
      <trkpt lat="43.36184" lon="-0.98634">
        <ele>96.1</ele>
      </trkpt>
      <trkpt lat="43.36193" lon="-0.98634">
        <ele>95.1</ele>
      </trkpt>
      <trkpt lat="43.36203" lon="-0.98633">
        <ele>94.4</ele>
      </trkpt>
      <trkpt lat="43.36214" lon="-0.98631">
        <ele>93.6</ele>
      </trkpt>
      <trkpt lat="43.36227" lon="-0.98626">
        <ele>92.7</ele>
      </trkpt>
      <trkpt lat="43.36268" lon="-0.98609">
        <ele>90.8</ele>
      </trkpt>
      <trkpt lat="43.36279" lon="-0.98607">
        <ele>90.3</ele>
      </trkpt>
      <trkpt lat="43.36294" lon="-0.98608">
        <ele>90.2</ele>
      </trkpt>
      <trkpt lat="43.36305" lon="-0.98609">
        <ele>90.1</ele>
      </trkpt>
      <trkpt lat="43.36317" lon="-0.98611">
        <ele>90.4</ele>
      </trkpt>
      <trkpt lat="43.3633" lon="-0.9861">
        <ele>90.9</ele>
      </trkpt>
      <trkpt lat="43.36346" lon="-0.98604">
        <ele>91.3</ele>
      </trkpt>
      <trkpt lat="43.36356" lon="-0.98598">
        <ele>91.4</ele>
      </trkpt>
      <trkpt lat="43.36365" lon="-0.98592">
        <ele>91.5</ele>
      </trkpt>
      <trkpt lat="43.36386" lon="-0.98576">
        <ele>92.6</ele>
      </trkpt>
      <trkpt lat="43.36396" lon="-0.98569">
        <ele>93.5</ele>
      </trkpt>
      <trkpt lat="43.36407" lon="-0.98561">
        <ele>94.3</ele>
      </trkpt>
      <trkpt lat="43.36428" lon="-0.98551">
        <ele>95.9</ele>
      </trkpt>
      <trkpt lat="43.36439" lon="-0.98546">
        <ele>96.6</ele>
      </trkpt>
      <trkpt lat="43.36451" lon="-0.98542">
        <ele>97</ele>
      </trkpt>
      <trkpt lat="43.36466" lon="-0.98538">
        <ele>97.4</ele>
      </trkpt>
      <trkpt lat="43.3648" lon="-0.98534">
        <ele>97.8</ele>
      </trkpt>
      <trkpt lat="43.36495" lon="-0.9853">
        <ele>98.1</ele>
      </trkpt>
      <trkpt lat="43.36506" lon="-0.98525">
        <ele>98.3</ele>
      </trkpt>
      <trkpt lat="43.3654" lon="-0.9851">
        <ele>99.9</ele>
      </trkpt>
      <trkpt lat="43.36551" lon="-0.98502">
        <ele>99.9</ele>
      </trkpt>
      <trkpt lat="43.36559" lon="-0.98495">
        <ele>100.3</ele>
      </trkpt>
      <trkpt lat="43.36569" lon="-0.9848">
        <ele>101.5</ele>
      </trkpt>
      <trkpt lat="43.36572" lon="-0.98461">
        <ele>100.4</ele>
      </trkpt>
      <trkpt lat="43.36578" lon="-0.98434">
        <ele>98</ele>
      </trkpt>
      <trkpt lat="43.36583" lon="-0.98424">
        <ele>97</ele>
      </trkpt>
      <trkpt lat="43.36591" lon="-0.98415">
        <ele>96.4</ele>
      </trkpt>
      <trkpt lat="43.36599" lon="-0.98407">
        <ele>96.9</ele>
      </trkpt>
      <trkpt lat="43.36609" lon="-0.98397">
        <ele>97</ele>
      </trkpt>
      <trkpt lat="43.36616" lon="-0.98383">
        <ele>97.4</ele>
      </trkpt>
      <trkpt lat="43.36622" lon="-0.9837">
        <ele>97.9</ele>
      </trkpt>
      <trkpt lat="43.36629" lon="-0.98355">
        <ele>98.3</ele>
      </trkpt>
      <trkpt lat="43.36641" lon="-0.98337">
        <ele>99.5</ele>
      </trkpt>
      <trkpt lat="43.36657" lon="-0.98316">
        <ele>99.5</ele>
      </trkpt>
      <trkpt lat="43.36665" lon="-0.98305">
        <ele>99.2</ele>
      </trkpt>
      <trkpt lat="43.36685" lon="-0.98293">
        <ele>99.7</ele>
      </trkpt>
      <trkpt lat="43.36724" lon="-0.98267">
        <ele>101.5</ele>
      </trkpt>
      <trkpt lat="43.368" lon="-0.98231">
        <ele>102.4</ele>
      </trkpt>
      <trkpt lat="43.36829" lon="-0.98229">
        <ele>102.5</ele>
      </trkpt>
      <trkpt lat="43.36854" lon="-0.98233">
        <ele>103.2</ele>
      </trkpt>
      <trkpt lat="43.3688" lon="-0.98236">
        <ele>103.7</ele>
      </trkpt>
      <trkpt lat="43.36903" lon="-0.9823">
        <ele>103.8</ele>
      </trkpt>
      <trkpt lat="43.36922" lon="-0.98224">
        <ele>103.1</ele>
      </trkpt>
      <trkpt lat="43.36941" lon="-0.98219">
        <ele>104.1</ele>
      </trkpt>
      <trkpt lat="43.36956" lon="-0.98209">
        <ele>104.8</ele>
      </trkpt>
      <trkpt lat="43.36972" lon="-0.98195">
        <ele>105</ele>
      </trkpt>
      <trkpt lat="43.36987" lon="-0.98181">
        <ele>105.7</ele>
      </trkpt>
      <trkpt lat="43.37006" lon="-0.98178">
        <ele>105.8</ele>
      </trkpt>
      <trkpt lat="43.37024" lon="-0.98174">
        <ele>106.2</ele>
      </trkpt>
      <trkpt lat="43.37045" lon="-0.98159">
        <ele>107</ele>
      </trkpt>
      <trkpt lat="43.37065" lon="-0.98144">
        <ele>108</ele>
      </trkpt>
      <trkpt lat="43.37136" lon="-0.98095">
        <ele>110.2</ele>
      </trkpt>
      <trkpt lat="43.37154" lon="-0.9808">
        <ele>110.4</ele>
      </trkpt>
      <trkpt lat="43.37171" lon="-0.98065">
        <ele>110.7</ele>
      </trkpt>
      <trkpt lat="43.37193" lon="-0.9804">
        <ele>110.8</ele>
      </trkpt>
      <trkpt lat="43.37205" lon="-0.98025">
        <ele>110.7</ele>
      </trkpt>
      <trkpt lat="43.37216" lon="-0.98009">
        <ele>111</ele>
      </trkpt>
      <trkpt lat="43.37232" lon="-0.97979">
        <ele>111.7</ele>
      </trkpt>
      <trkpt lat="43.37249" lon="-0.9795">
        <ele>112.1</ele>
      </trkpt>
      <trkpt lat="43.37276" lon="-0.97912">
        <ele>113</ele>
      </trkpt>
      <trkpt lat="43.37289" lon="-0.97893">
        <ele>113.9</ele>
      </trkpt>
      <trkpt lat="43.37315" lon="-0.97859">
        <ele>114.4</ele>
      </trkpt>
      <trkpt lat="43.37329" lon="-0.9785">
        <ele>114.6</ele>
      </trkpt>
      <trkpt lat="43.37343" lon="-0.9784">
        <ele>114.9</ele>
      </trkpt>
      <trkpt lat="43.37345" lon="-0.97805">
        <ele>116.2</ele>
      </trkpt>
      <trkpt lat="43.37351" lon="-0.97785">
        <ele>117.9</ele>
      </trkpt>
      <trkpt lat="43.3736" lon="-0.97768">
        <ele>117.3</ele>
      </trkpt>
      <trkpt lat="43.37378" lon="-0.97745">
        <ele>117.9</ele>
      </trkpt>
      <trkpt lat="43.37395" lon="-0.97727">
        <ele>117.7</ele>
      </trkpt>
      <trkpt lat="43.37413" lon="-0.9771">
        <ele>119.4</ele>
      </trkpt>
      <trkpt lat="43.37431" lon="-0.97693">
        <ele>121.3</ele>
      </trkpt>
      <trkpt lat="43.37461" lon="-0.97655">
        <ele>124.1</ele>
      </trkpt>
      <trkpt lat="43.37466" lon="-0.97642">
        <ele>125.1</ele>
      </trkpt>
      <trkpt lat="43.3747" lon="-0.97614">
        <ele>127.1</ele>
      </trkpt>
      <trkpt lat="43.37471" lon="-0.97589">
        <ele>128.8</ele>
      </trkpt>
      <trkpt lat="43.37471" lon="-0.97564">
        <ele>129.9</ele>
      </trkpt>
      <trkpt lat="43.37477" lon="-0.97537">
        <ele>129.6</ele>
      </trkpt>
      <trkpt lat="43.37493" lon="-0.97519">
        <ele>129.1</ele>
      </trkpt>
      <trkpt lat="43.37509" lon="-0.975">
        <ele>129.4</ele>
      </trkpt>
      <trkpt lat="43.37516" lon="-0.97474">
        <ele>129.8</ele>
      </trkpt>
      <trkpt lat="43.37534" lon="-0.97429">
        <ele>131.2</ele>
      </trkpt>
      <trkpt lat="43.37539" lon="-0.97404">
        <ele>132.8</ele>
      </trkpt>
      <trkpt lat="43.37555" lon="-0.97351">
        <ele>135.4</ele>
      </trkpt>
      <trkpt lat="43.37554" lon="-0.97336">
        <ele>135.9</ele>
      </trkpt>
      <trkpt lat="43.37539" lon="-0.97312">
        <ele>136.9</ele>
      </trkpt>
      <trkpt lat="43.37524" lon="-0.97288">
        <ele>137.1</ele>
      </trkpt>
      <trkpt lat="43.3751" lon="-0.97265">
        <ele>137.2</ele>
      </trkpt>
      <trkpt lat="43.375" lon="-0.97244">
        <ele>137.5</ele>
      </trkpt>
      <trkpt lat="43.37507" lon="-0.97224">
        <ele>134.9</ele>
      </trkpt>
      <trkpt lat="43.37516" lon="-0.97211">
        <ele>131.1</ele>
      </trkpt>
      <trkpt lat="43.37529" lon="-0.97202">
        <ele>127.5</ele>
      </trkpt>
      <trkpt lat="43.37562" lon="-0.97174">
        <ele>121.6</ele>
      </trkpt>
      <trkpt lat="43.37571" lon="-0.97165">
        <ele>119</ele>
      </trkpt>
      <trkpt lat="43.37586" lon="-0.97136">
        <ele>114.6</ele>
      </trkpt>
      <trkpt lat="43.37592" lon="-0.97131">
        <ele>114.2</ele>
      </trkpt>
      <trkpt lat="43.37613" lon="-0.97122">
        <ele>115</ele>
      </trkpt>
      <trkpt lat="43.37635" lon="-0.97074">
        <ele>115.3</ele>
      </trkpt>
      <trkpt lat="43.37623" lon="-0.97055">
        <ele>112.1</ele>
      </trkpt>
      <trkpt lat="43.37614" lon="-0.97029">
        <ele>110.2</ele>
      </trkpt>
      <trkpt lat="43.37609" lon="-0.96999">
        <ele>106.4</ele>
      </trkpt>
      <trkpt lat="43.37604" lon="-0.96969">
        <ele>101.1</ele>
      </trkpt>
      <trkpt lat="43.37606" lon="-0.96956">
        <ele>99.6</ele>
      </trkpt>
      <trkpt lat="43.3761" lon="-0.96934">
        <ele>96.9</ele>
      </trkpt>
      <trkpt lat="43.37623" lon="-0.96892">
        <ele>93.1</ele>
      </trkpt>
      <trkpt lat="43.37634" lon="-0.96868">
        <ele>92.7</ele>
      </trkpt>
      <trkpt lat="43.37644" lon="-0.96845">
        <ele>88.4</ele>
      </trkpt>
      <trkpt lat="43.37654" lon="-0.96821">
        <ele>84.2</ele>
      </trkpt>
      <trkpt lat="43.37664" lon="-0.96797">
        <ele>81.5</ele>
      </trkpt>
      <trkpt lat="43.37672" lon="-0.96737">
        <ele>82.1</ele>
      </trkpt>
      <trkpt lat="43.37674" lon="-0.96702">
        <ele>80.7</ele>
      </trkpt>
      <trkpt lat="43.37677" lon="-0.96667">
        <ele>78.6</ele>
      </trkpt>
      <trkpt lat="43.37678" lon="-0.96637">
        <ele>77.4</ele>
      </trkpt>
      <trkpt lat="43.3769" lon="-0.96606">
        <ele>76.3</ele>
      </trkpt>
      <trkpt lat="43.37699" lon="-0.96578">
        <ele>74.7</ele>
      </trkpt>
      <trkpt lat="43.37708" lon="-0.96549">
        <ele>74.6</ele>
      </trkpt>
      <trkpt lat="43.37728" lon="-0.96485">
        <ele>73</ele>
      </trkpt>
      <trkpt lat="43.37735" lon="-0.96458">
        <ele>72.8</ele>
      </trkpt>
      <trkpt lat="43.37742" lon="-0.96432">
        <ele>71.8</ele>
      </trkpt>
      <trkpt lat="43.37747" lon="-0.96356">
        <ele>70.1</ele>
      </trkpt>
      <trkpt lat="43.37749" lon="-0.96319">
        <ele>70</ele>
      </trkpt>
      <trkpt lat="43.37751" lon="-0.96291">
        <ele>69.4</ele>
      </trkpt>
      <trkpt lat="43.37755" lon="-0.96235">
        <ele>68.5</ele>
      </trkpt>
      <trkpt lat="43.37757" lon="-0.96224">
        <ele>68.1</ele>
      </trkpt>
      <trkpt lat="43.37764" lon="-0.96196">
        <ele>68</ele>
      </trkpt>
      <trkpt lat="43.37771" lon="-0.96168">
        <ele>68</ele>
      </trkpt>
      <trkpt lat="43.37779" lon="-0.96137">
        <ele>67.9</ele>
      </trkpt>
      <trkpt lat="43.37787" lon="-0.96105">
        <ele>67</ele>
      </trkpt>
      <trkpt lat="43.37788" lon="-0.96091">
        <ele>67</ele>
      </trkpt>
      <trkpt lat="43.37786" lon="-0.96077">
        <ele>67</ele>
      </trkpt>
      <trkpt lat="43.37774" lon="-0.96058">
        <ele>67</ele>
      </trkpt>
      <trkpt lat="43.37763" lon="-0.96045">
        <ele>67</ele>
      </trkpt>
      <trkpt lat="43.37765" lon="-0.96027">
        <ele>67</ele>
      </trkpt>
      <trkpt lat="43.3777" lon="-0.96007">
        <ele>67</ele>
      </trkpt>
      <trkpt lat="43.37786" lon="-0.95964">
        <ele>67</ele>
      </trkpt>
      <trkpt lat="43.37795" lon="-0.95944">
        <ele>67</ele>
      </trkpt>
      <trkpt lat="43.37804" lon="-0.95923">
        <ele>67</ele>
      </trkpt>
      <trkpt lat="43.37814" lon="-0.95908">
        <ele>67</ele>
      </trkpt>
      <trkpt lat="43.37824" lon="-0.95893">
        <ele>67</ele>
      </trkpt>
      <trkpt lat="43.37845" lon="-0.95863">
        <ele>67</ele>
      </trkpt>
      <trkpt lat="43.37861" lon="-0.95852">
        <ele>67</ele>
      </trkpt>
      <trkpt lat="43.37886" lon="-0.95843">
        <ele>67</ele>
      </trkpt>
      <trkpt lat="43.37877" lon="-0.95827">
        <ele>66.9</ele>
      </trkpt>
      <trkpt lat="43.37869" lon="-0.95812">
        <ele>66.4</ele>
      </trkpt>
      <trkpt lat="43.37842" lon="-0.95773">
        <ele>65.9</ele>
      </trkpt>
      <trkpt lat="43.37828" lon="-0.95753">
        <ele>65.3</ele>
      </trkpt>
      <trkpt lat="43.37819" lon="-0.95734">
        <ele>64.9</ele>
      </trkpt>
      <trkpt lat="43.37816" lon="-0.95713">
        <ele>62.5</ele>
      </trkpt>
      <trkpt lat="43.37809" lon="-0.95687">
        <ele>55.3</ele>
      </trkpt>
      <trkpt lat="43.37796" lon="-0.95635">
        <ele>52.4</ele>
      </trkpt>
      <trkpt lat="43.37786" lon="-0.95605">
        <ele>53.7</ele>
      </trkpt>
      <trkpt lat="43.37787" lon="-0.95584">
        <ele>53.7</ele>
      </trkpt>
      <trkpt lat="43.3779" lon="-0.95573">
        <ele>54.8</ele>
      </trkpt>
      <trkpt lat="43.37799" lon="-0.95562">
        <ele>54.8</ele>
      </trkpt>
      <trkpt lat="43.37819" lon="-0.9554">
        <ele>56</ele>
      </trkpt>
      <trkpt lat="43.37839" lon="-0.95517">
        <ele>59.3</ele>
      </trkpt>
      <trkpt lat="43.37844" lon="-0.95505">
        <ele>61.3</ele>
      </trkpt>
      <trkpt lat="43.37847" lon="-0.95471">
        <ele>65.5</ele>
      </trkpt>
      <trkpt lat="43.37851" lon="-0.95438">
        <ele>65.4</ele>
      </trkpt>
      <trkpt lat="43.37851" lon="-0.95416">
        <ele>65.3</ele>
      </trkpt>
      <trkpt lat="43.37852" lon="-0.95394">
        <ele>63.8</ele>
      </trkpt>
      <trkpt lat="43.37848" lon="-0.95378">
        <ele>62.1</ele>
      </trkpt>
      <trkpt lat="43.37836" lon="-0.95357">
        <ele>64.5</ele>
      </trkpt>
      <trkpt lat="43.37824" lon="-0.95337">
        <ele>64.3</ele>
      </trkpt>
      <trkpt lat="43.37802" lon="-0.95297">
        <ele>66.1</ele>
      </trkpt>
      <trkpt lat="43.37806" lon="-0.95271">
        <ele>65.8</ele>
      </trkpt>
      <trkpt lat="43.37806" lon="-0.95241">
        <ele>65.9</ele>
      </trkpt>
      <trkpt lat="43.37806" lon="-0.95211">
        <ele>66</ele>
      </trkpt>
      <trkpt lat="43.3781" lon="-0.95159">
        <ele>64.7</ele>
      </trkpt>
      <trkpt lat="43.37812" lon="-0.95134">
        <ele>65.1</ele>
      </trkpt>
      <trkpt lat="43.37814" lon="-0.95109">
        <ele>64.7</ele>
      </trkpt>
      <trkpt lat="43.37822" lon="-0.95063">
        <ele>65.2</ele>
      </trkpt>
      <trkpt lat="43.37833" lon="-0.95037">
        <ele>64.4</ele>
      </trkpt>
      <trkpt lat="43.37846" lon="-0.9501">
        <ele>61.8</ele>
      </trkpt>
      <trkpt lat="43.37859" lon="-0.94981">
        <ele>58.9</ele>
      </trkpt>
      <trkpt lat="43.37859" lon="-0.94955">
        <ele>59</ele>
      </trkpt>
      <trkpt lat="43.37864" lon="-0.94939">
        <ele>59.2</ele>
      </trkpt>
      <trkpt lat="43.37878" lon="-0.94923">
        <ele>58.5</ele>
      </trkpt>
      <trkpt lat="43.37898" lon="-0.94934">
        <ele>56.6</ele>
      </trkpt>
      <trkpt lat="43.37918" lon="-0.94945">
        <ele>55.7</ele>
      </trkpt>
      <trkpt lat="43.37963" lon="-0.94965">
        <ele>52.6</ele>
      </trkpt>
      <trkpt lat="43.38002" lon="-0.94969">
        <ele>52.9</ele>
      </trkpt>
      <trkpt lat="43.38021" lon="-0.94972">
        <ele>53</ele>
      </trkpt>
      <trkpt lat="43.38029" lon="-0.94951">
        <ele>52.9</ele>
      </trkpt>
      <trkpt lat="43.38052" lon="-0.94912">
        <ele>52.6</ele>
      </trkpt>
      <trkpt lat="43.38061" lon="-0.94908">
        <ele>52</ele>
      </trkpt>
      <trkpt lat="43.3807" lon="-0.94909">
        <ele>51.3</ele>
      </trkpt>
      <trkpt lat="43.38083" lon="-0.94915">
        <ele>50.1</ele>
      </trkpt>
      <trkpt lat="43.38119" lon="-0.94934">
        <ele>50.7</ele>
      </trkpt>
      <trkpt lat="43.38136" lon="-0.94943">
        <ele>55.2</ele>
      </trkpt>
      <trkpt lat="43.38141" lon="-0.9495">
        <ele>56.4</ele>
      </trkpt>
      <trkpt lat="43.38143" lon="-0.94968">
        <ele>57.2</ele>
      </trkpt>
      <trkpt lat="43.38164" lon="-0.94967">
        <ele>58.6</ele>
      </trkpt>
      <trkpt lat="43.38184" lon="-0.94962">
        <ele>61.7</ele>
      </trkpt>
      <trkpt lat="43.38206" lon="-0.94951">
        <ele>63.4</ele>
      </trkpt>
      <trkpt lat="43.38228" lon="-0.9494">
        <ele>64</ele>
      </trkpt>
      <trkpt lat="43.38235" lon="-0.94959">
        <ele>65</ele>
      </trkpt>
      <trkpt lat="43.38241" lon="-0.94978">
        <ele>65.2</ele>
      </trkpt>
      <trkpt lat="43.38248" lon="-0.94975">
        <ele>65.1</ele>
      </trkpt>
      <trkpt lat="43.3827" lon="-0.94957">
        <ele>65.9</ele>
      </trkpt>
      <trkpt lat="43.38282" lon="-0.94927">
        <ele>66.2</ele>
      </trkpt>
      <trkpt lat="43.38292" lon="-0.94893">
        <ele>67.4</ele>
      </trkpt>
      <trkpt lat="43.3832" lon="-0.94871">
        <ele>68.3</ele>
      </trkpt>
      <trkpt lat="43.38358" lon="-0.94844">
        <ele>69</ele>
      </trkpt>
      <trkpt lat="43.38377" lon="-0.94831">
        <ele>69.1</ele>
      </trkpt>
      <trkpt lat="43.38401" lon="-0.94821">
        <ele>69.2</ele>
      </trkpt>
      <trkpt lat="43.38426" lon="-0.94812">
        <ele>69</ele>
      </trkpt>
      <trkpt lat="43.3845" lon="-0.94802">
        <ele>69</ele>
      </trkpt>
      <trkpt lat="43.3847" lon="-0.94788">
        <ele>69</ele>
      </trkpt>
      <trkpt lat="43.38503" lon="-0.94749">
        <ele>69</ele>
      </trkpt>
      <trkpt lat="43.3852" lon="-0.94729">
        <ele>69</ele>
      </trkpt>
      <trkpt lat="43.38537" lon="-0.94708">
        <ele>69</ele>
      </trkpt>
      <trkpt lat="43.3857" lon="-0.94666">
        <ele>69</ele>
      </trkpt>
      <trkpt lat="43.38602" lon="-0.94635">
        <ele>69.2</ele>
      </trkpt>
      <trkpt lat="43.38617" lon="-0.94619">
        <ele>69.6</ele>
      </trkpt>
      <trkpt lat="43.38632" lon="-0.94606">
        <ele>69.3</ele>
      </trkpt>
      <trkpt lat="43.38647" lon="-0.94593">
        <ele>69</ele>
      </trkpt>
      <trkpt lat="43.38668" lon="-0.94577">
        <ele>69</ele>
      </trkpt>
      <trkpt lat="43.38711" lon="-0.94546">
        <ele>69.3</ele>
      </trkpt>
      <trkpt lat="43.38872" lon="-0.94441">
        <ele>69.6</ele>
      </trkpt>
      <trkpt lat="43.38895" lon="-0.94426">
        <ele>69</ele>
      </trkpt>
      <trkpt lat="43.3892" lon="-0.94415">
        <ele>69</ele>
      </trkpt>
      <trkpt lat="43.38942" lon="-0.94384">
        <ele>69.2</ele>
      </trkpt>
      <trkpt lat="43.38954" lon="-0.94381">
        <ele>69.2</ele>
      </trkpt>
      <trkpt lat="43.38963" lon="-0.94367">
        <ele>69.3</ele>
      </trkpt>
      <trkpt lat="43.38965" lon="-0.94358">
        <ele>69.3</ele>
      </trkpt>
      <trkpt lat="43.38988" lon="-0.94342">
        <ele>69</ele>
      </trkpt>
      <trkpt lat="43.39034" lon="-0.94314">
        <ele>69</ele>
      </trkpt>
      <trkpt lat="43.3906" lon="-0.94306">
        <ele>68.8</ele>
      </trkpt>
      <trkpt lat="43.39086" lon="-0.94299">
        <ele>68</ele>
      </trkpt>
      <trkpt lat="43.39112" lon="-0.94293">
        <ele>68</ele>
      </trkpt>
      <trkpt lat="43.39165" lon="-0.94282">
        <ele>68</ele>
      </trkpt>
      <trkpt lat="43.39181" lon="-0.94283">
        <ele>68</ele>
      </trkpt>
      <trkpt lat="43.39197" lon="-0.94284">
        <ele>68</ele>
      </trkpt>
      <trkpt lat="43.39208" lon="-0.94289">
        <ele>67.8</ele>
      </trkpt>
      <trkpt lat="43.39225" lon="-0.94304">
        <ele>67.1</ele>
      </trkpt>
      <trkpt lat="43.39274" lon="-0.94348">
        <ele>64.3</ele>
      </trkpt>
      <trkpt lat="43.39342" lon="-0.94409">
        <ele>57.8</ele>
      </trkpt>
      <trkpt lat="43.3936" lon="-0.94424">
        <ele>55.5</ele>
      </trkpt>
      <trkpt lat="43.39395" lon="-0.94444">
        <ele>53.9</ele>
      </trkpt>
      <trkpt lat="43.39413" lon="-0.94453">
        <ele>47.8</ele>
      </trkpt>
      <trkpt lat="43.39438" lon="-0.94463">
        <ele>46.1</ele>
      </trkpt>
      <trkpt lat="43.39463" lon="-0.94473">
        <ele>52.5</ele>
      </trkpt>
      <trkpt lat="43.39488" lon="-0.94482">
        <ele>53.9</ele>
      </trkpt>
      <trkpt lat="43.39512" lon="-0.94495">
        <ele>54.7</ele>
      </trkpt>
      <trkpt lat="43.39537" lon="-0.94508">
        <ele>54.8</ele>
      </trkpt>
      <trkpt lat="43.39561" lon="-0.94521">
        <ele>55.5</ele>
      </trkpt>
      <trkpt lat="43.39583" lon="-0.94509">
        <ele>55.3</ele>
      </trkpt>
      <trkpt lat="43.39591" lon="-0.94493">
        <ele>55.2</ele>
      </trkpt>
      <trkpt lat="43.39574" lon="-0.94467">
        <ele>51.8</ele>
      </trkpt>
      <trkpt lat="43.39507" lon="-0.94424">
        <ele>48.6</ele>
      </trkpt>
      <trkpt lat="43.39517" lon="-0.94394">
        <ele>48.9</ele>
      </trkpt>
      <trkpt lat="43.39519" lon="-0.94363">
        <ele>48.4</ele>
      </trkpt>
      <trkpt lat="43.39521" lon="-0.94333">
        <ele>48.5</ele>
      </trkpt>
      <trkpt lat="43.39523" lon="-0.94302">
        <ele>48.6</ele>
      </trkpt>
      <trkpt lat="43.39536" lon="-0.94248">
        <ele>47.9</ele>
      </trkpt>
      <trkpt lat="43.39562" lon="-0.9419">
        <ele>48.3</ele>
      </trkpt>
      <trkpt lat="43.39574" lon="-0.94161">
        <ele>48.9</ele>
      </trkpt>
      <trkpt lat="43.39598" lon="-0.94134">
        <ele>49.3</ele>
      </trkpt>
      <trkpt lat="43.396" lon="-0.94132">
        <ele>49.2</ele>
      </trkpt>
      <trkpt lat="43.39602" lon="-0.94131">
        <ele>49.2</ele>
      </trkpt>
      <trkpt lat="43.39606" lon="-0.94129">
        <ele>49.2</ele>
      </trkpt>
      <trkpt lat="43.3962" lon="-0.94124">
        <ele>49.1</ele>
      </trkpt>
      <trkpt lat="43.39629" lon="-0.9412">
        <ele>49.1</ele>
      </trkpt>
      <trkpt lat="43.39636" lon="-0.94119">
        <ele>49.2</ele>
      </trkpt>
      <trkpt lat="43.39645" lon="-0.94117">
        <ele>50.3</ele>
      </trkpt>
      <trkpt lat="43.39675" lon="-0.94105">
        <ele>53.4</ele>
      </trkpt>
      <trkpt lat="43.39677" lon="-0.94104">
        <ele>53.5</ele>
      </trkpt>
      <trkpt lat="43.39684" lon="-0.94101">
        <ele>53.7</ele>
      </trkpt>
      <trkpt lat="43.3967" lon="-0.94134">
        <ele>59.1</ele>
      </trkpt>
      <trkpt lat="43.39666" lon="-0.94145">
        <ele>60.7</ele>
      </trkpt>
      <trkpt lat="43.39662" lon="-0.94156">
        <ele>62</ele>
      </trkpt>
      <trkpt lat="43.39656" lon="-0.94179">
        <ele>62.4</ele>
      </trkpt>
      <trkpt lat="43.3965" lon="-0.94202">
        <ele>61.5</ele>
      </trkpt>
      <trkpt lat="43.39677" lon="-0.94195">
        <ele>69.4</ele>
      </trkpt>
      <trkpt lat="43.39687" lon="-0.94193">
        <ele>69.7</ele>
      </trkpt>
      <trkpt lat="43.39696" lon="-0.9419">
        <ele>70.1</ele>
      </trkpt>
      <trkpt lat="43.39718" lon="-0.94183">
        <ele>71.7</ele>
      </trkpt>
      <trkpt lat="43.39725" lon="-0.9418">
        <ele>72.4</ele>
      </trkpt>
      <trkpt lat="43.39733" lon="-0.94174">
        <ele>73.7</ele>
      </trkpt>
      <trkpt lat="43.3974" lon="-0.94169">
        <ele>75.1</ele>
      </trkpt>
      <trkpt lat="43.39753" lon="-0.9416">
        <ele>77.3</ele>
      </trkpt>
      <trkpt lat="43.3976" lon="-0.94155">
        <ele>78.4</ele>
      </trkpt>
      <trkpt lat="43.39769" lon="-0.94155">
        <ele>80.2</ele>
      </trkpt>
      <trkpt lat="43.39788" lon="-0.94155">
        <ele>81.9</ele>
      </trkpt>
      <trkpt lat="43.39798" lon="-0.94155">
        <ele>82</ele>
      </trkpt>
      <trkpt lat="43.39807" lon="-0.94154">
        <ele>82.1</ele>
      </trkpt>
      <trkpt lat="43.39817" lon="-0.94154">
        <ele>82.4</ele>
      </trkpt>
      <trkpt lat="43.39819" lon="-0.94143">
        <ele>82.5</ele>
      </trkpt>
      <trkpt lat="43.39821" lon="-0.94131">
        <ele>82.7</ele>
      </trkpt>
      <trkpt lat="43.39823" lon="-0.9412">
        <ele>82.9</ele>
      </trkpt>
      <trkpt lat="43.39825" lon="-0.94108">
        <ele>83</ele>
      </trkpt>
      <trkpt lat="43.39827" lon="-0.94097">
        <ele>83</ele>
      </trkpt>
      <trkpt lat="43.39831" lon="-0.94074">
        <ele>83</ele>
      </trkpt>
      <trkpt lat="43.39839" lon="-0.94044">
        <ele>83.2</ele>
      </trkpt>
      <trkpt lat="43.39846" lon="-0.94024">
        <ele>83.3</ele>
      </trkpt>
      <trkpt lat="43.3986" lon="-0.93984">
        <ele>83</ele>
      </trkpt>
      <trkpt lat="43.39854" lon="-0.93978">
        <ele>82.8</ele>
      </trkpt>
      <trkpt lat="43.39836" lon="-0.93961">
        <ele>82.1</ele>
      </trkpt>
      <trkpt lat="43.39829" lon="-0.93966">
        <ele>78.5</ele>
      </trkpt>
      <trkpt lat="43.39818" lon="-0.93963">
        <ele>71</ele>
      </trkpt>
      <trkpt lat="43.39806" lon="-0.93946">
        <ele>59.6</ele>
      </trkpt>
      <trkpt lat="43.398" lon="-0.93917">
        <ele>55.7</ele>
      </trkpt>
      <trkpt lat="43.398" lon="-0.93913">
        <ele>56</ele>
      </trkpt>
      <trkpt lat="43.398" lon="-0.9391">
        <ele>56.3</ele>
      </trkpt>
      <trkpt lat="43.39799" lon="-0.93907">
        <ele>56.1</ele>
      </trkpt>
      <trkpt lat="43.39798" lon="-0.93904">
        <ele>56</ele>
      </trkpt>
      <trkpt lat="43.39793" lon="-0.93896">
        <ele>55.5</ele>
      </trkpt>
      <trkpt lat="43.39779" lon="-0.93866">
        <ele>53.1</ele>
      </trkpt>
      <trkpt lat="43.39778" lon="-0.93864">
        <ele>52.9</ele>
      </trkpt>
      <trkpt lat="43.39768" lon="-0.93844">
        <ele>52.4</ele>
      </trkpt>
      <trkpt lat="43.39765" lon="-0.93838">
        <ele>52.4</ele>
      </trkpt>
      <trkpt lat="43.3976" lon="-0.93826">
        <ele>52.5</ele>
      </trkpt>
      <trkpt lat="43.39758" lon="-0.93824">
        <ele>52.5</ele>
      </trkpt>
      <trkpt lat="43.39744" lon="-0.93809">
        <ele>52.6</ele>
      </trkpt>
      <trkpt lat="43.39734" lon="-0.93798">
        <ele>52.6</ele>
      </trkpt>
      <trkpt lat="43.39721" lon="-0.93771">
        <ele>53</ele>
      </trkpt>
      <trkpt lat="43.39715" lon="-0.93751">
        <ele>53</ele>
      </trkpt>
      <trkpt lat="43.39702" lon="-0.93711">
        <ele>53</ele>
      </trkpt>
      <trkpt lat="43.39695" lon="-0.93693">
        <ele>53</ele>
      </trkpt>
      <trkpt lat="43.39687" lon="-0.93675">
        <ele>53.2</ele>
      </trkpt>
      <trkpt lat="43.3968" lon="-0.93657">
        <ele>53.5</ele>
      </trkpt>
      <trkpt lat="43.39672" lon="-0.93639">
        <ele>53.2</ele>
      </trkpt>
      <trkpt lat="43.39665" lon="-0.93621">
        <ele>53</ele>
      </trkpt>
      <trkpt lat="43.39659" lon="-0.93604">
        <ele>53.2</ele>
      </trkpt>
      <trkpt lat="43.39653" lon="-0.93587">
        <ele>53.4</ele>
      </trkpt>
      <trkpt lat="43.39647" lon="-0.9357">
        <ele>53.6</ele>
      </trkpt>
      <trkpt lat="43.39636" lon="-0.93536">
        <ele>54</ele>
      </trkpt>
      <trkpt lat="43.3963" lon="-0.93519">
        <ele>54</ele>
      </trkpt>
      <trkpt lat="43.39625" lon="-0.9351">
        <ele>54</ele>
      </trkpt>
      <trkpt lat="43.39621" lon="-0.935">
        <ele>54</ele>
      </trkpt>
      <trkpt lat="43.39595" lon="-0.93438">
        <ele>55.1</ele>
      </trkpt>
      <trkpt lat="43.39591" lon="-0.93419">
        <ele>55.7</ele>
      </trkpt>
      <trkpt lat="43.39583" lon="-0.93379">
        <ele>57.6</ele>
      </trkpt>
      <trkpt lat="43.39585" lon="-0.9336">
        <ele>59.2</ele>
      </trkpt>
      <trkpt lat="43.39569" lon="-0.93363">
        <ele>57.9</ele>
      </trkpt>
      <trkpt lat="43.39558" lon="-0.93369">
        <ele>56.9</ele>
      </trkpt>
      <trkpt lat="43.39547" lon="-0.93375">
        <ele>56.3</ele>
      </trkpt>
      <trkpt lat="43.39536" lon="-0.9338">
        <ele>56.4</ele>
      </trkpt>
      <trkpt lat="43.39525" lon="-0.93386">
        <ele>56.6</ele>
      </trkpt>
      <trkpt lat="43.39516" lon="-0.93377">
        <ele>55.9</ele>
      </trkpt>
      <trkpt lat="43.39509" lon="-0.93365">
        <ele>55.7</ele>
      </trkpt>
      <trkpt lat="43.39493" lon="-0.93341">
        <ele>55.2</ele>
      </trkpt>
      <trkpt lat="43.39484" lon="-0.93327">
        <ele>55</ele>
      </trkpt>
      <trkpt lat="43.39466" lon="-0.93299">
        <ele>55</ele>
      </trkpt>
      <trkpt lat="43.39437" lon="-0.93234">
        <ele>55</ele>
      </trkpt>
      <trkpt lat="43.39423" lon="-0.93202">
        <ele>55</ele>
      </trkpt>
      <trkpt lat="43.39415" lon="-0.93183">
        <ele>55</ele>
      </trkpt>
      <trkpt lat="43.39408" lon="-0.93165">
        <ele>55</ele>
      </trkpt>
      <trkpt lat="43.394" lon="-0.93146">
        <ele>55</ele>
      </trkpt>
      <trkpt lat="43.39393" lon="-0.93127">
        <ele>55.1</ele>
      </trkpt>
      <trkpt lat="43.39375" lon="-0.93094">
        <ele>55.3</ele>
      </trkpt>
      <trkpt lat="43.39367" lon="-0.93078">
        <ele>55.4</ele>
      </trkpt>
      <trkpt lat="43.39332" lon="-0.93014">
        <ele>55</ele>
      </trkpt>
      <trkpt lat="43.39323" lon="-0.92998">
        <ele>55</ele>
      </trkpt>
      <trkpt lat="43.39305" lon="-0.92966">
        <ele>55.2</ele>
      </trkpt>
      <trkpt lat="43.39292" lon="-0.92922">
        <ele>55.6</ele>
      </trkpt>
      <trkpt lat="43.39292" lon="-0.92915">
        <ele>55.5</ele>
      </trkpt>
      <trkpt lat="43.39294" lon="-0.92909">
        <ele>55.7</ele>
      </trkpt>
      <trkpt lat="43.39299" lon="-0.92896">
        <ele>55.9</ele>
      </trkpt>
      <trkpt lat="43.39305" lon="-0.92884">
        <ele>56</ele>
      </trkpt>
      <trkpt lat="43.39308" lon="-0.92869">
        <ele>56.8</ele>
      </trkpt>
      <trkpt lat="43.39308" lon="-0.92852">
        <ele>57.5</ele>
      </trkpt>
      <trkpt lat="43.39308" lon="-0.92834">
        <ele>58.6</ele>
      </trkpt>
      <trkpt lat="43.39307" lon="-0.92817">
        <ele>59.5</ele>
      </trkpt>
      <trkpt lat="43.39306" lon="-0.928">
        <ele>60.5</ele>
      </trkpt>
      <trkpt lat="43.39302" lon="-0.92785">
        <ele>60.9</ele>
      </trkpt>
      <trkpt lat="43.39299" lon="-0.92771">
        <ele>61.3</ele>
      </trkpt>
      <trkpt lat="43.39294" lon="-0.92759">
        <ele>61.3</ele>
      </trkpt>
      <trkpt lat="43.39289" lon="-0.92748">
        <ele>61.3</ele>
      </trkpt>
      <trkpt lat="43.39285" lon="-0.92736">
        <ele>61.3</ele>
      </trkpt>
      <trkpt lat="43.39284" lon="-0.92706">
        <ele>64</ele>
      </trkpt>
      <trkpt lat="43.39283" lon="-0.92692">
        <ele>65.6</ele>
      </trkpt>
      <trkpt lat="43.39284" lon="-0.92663">
        <ele>69.1</ele>
      </trkpt>
      <trkpt lat="43.39284" lon="-0.92635">
        <ele>70.7</ele>
      </trkpt>
      <trkpt lat="43.39288" lon="-0.92627">
        <ele>71.4</ele>
      </trkpt>
      <trkpt lat="43.39292" lon="-0.92619">
        <ele>72.1</ele>
      </trkpt>
      <trkpt lat="43.39298" lon="-0.92608">
        <ele>72.8</ele>
      </trkpt>
      <trkpt lat="43.39319" lon="-0.92574">
        <ele>73.6</ele>
      </trkpt>
      <trkpt lat="43.39326" lon="-0.92561">
        <ele>73.9</ele>
      </trkpt>
      <trkpt lat="43.39341" lon="-0.92535">
        <ele>74.3</ele>
      </trkpt>
      <trkpt lat="43.39371" lon="-0.92484">
        <ele>75</ele>
      </trkpt>
      <trkpt lat="43.39391" lon="-0.92435">
        <ele>75.1</ele>
      </trkpt>
      <trkpt lat="43.39396" lon="-0.92408">
        <ele>75.5</ele>
      </trkpt>
      <trkpt lat="43.39396" lon="-0.92391">
        <ele>76</ele>
      </trkpt>
      <trkpt lat="43.39397" lon="-0.92358">
        <ele>76</ele>
      </trkpt>
      <trkpt lat="43.39399" lon="-0.92309">
        <ele>76.9</ele>
      </trkpt>
      <trkpt lat="43.394" lon="-0.92293">
        <ele>77</ele>
      </trkpt>
      <trkpt lat="43.39406" lon="-0.92281">
        <ele>77</ele>
      </trkpt>
      <trkpt lat="43.39417" lon="-0.9228">
        <ele>77</ele>
      </trkpt>
      <trkpt lat="43.39427" lon="-0.92279">
        <ele>77.4</ele>
      </trkpt>
      <trkpt lat="43.39436" lon="-0.92276">
        <ele>77.7</ele>
      </trkpt>
      <trkpt lat="43.39446" lon="-0.92273">
        <ele>78</ele>
      </trkpt>
      <trkpt lat="43.39479" lon="-0.92255">
        <ele>79.6</ele>
      </trkpt>
      <trkpt lat="43.3949" lon="-0.92246">
        <ele>80.3</ele>
      </trkpt>
      <trkpt lat="43.39485" lon="-0.9222">
        <ele>79.9</ele>
      </trkpt>
      <trkpt lat="43.39483" lon="-0.92158">
        <ele>80.5</ele>
      </trkpt>
      <trkpt lat="43.39478" lon="-0.92123">
        <ele>80.7</ele>
      </trkpt>
      <trkpt lat="43.39458" lon="-0.9205">
        <ele>80.7</ele>
      </trkpt>
      <trkpt lat="43.39409" lon="-0.91881">
        <ele>80.3</ele>
      </trkpt>
      <trkpt lat="43.39402" lon="-0.91846">
        <ele>80.6</ele>
      </trkpt>
      <trkpt lat="43.39402" lon="-0.91819">
        <ele>81.3</ele>
      </trkpt>
      <trkpt lat="43.39403" lon="-0.91766">
        <ele>81.8</ele>
      </trkpt>
      <trkpt lat="43.39408" lon="-0.91742">
        <ele>82.6</ele>
      </trkpt>
      <trkpt lat="43.39437" lon="-0.91607">
        <ele>85.3</ele>
      </trkpt>
      <trkpt lat="43.39439" lon="-0.91582">
        <ele>85.9</ele>
      </trkpt>
      <trkpt lat="43.39444" lon="-0.91482">
        <ele>88.2</ele>
      </trkpt>
      <trkpt lat="43.39442" lon="-0.91351">
        <ele>89.5</ele>
      </trkpt>
      <trkpt lat="43.39433" lon="-0.91288">
        <ele>88.1</ele>
      </trkpt>
      <trkpt lat="43.39422" lon="-0.91241">
        <ele>90.2</ele>
      </trkpt>
      <trkpt lat="43.39408" lon="-0.91206">
        <ele>86.9</ele>
      </trkpt>
      <trkpt lat="43.39403" lon="-0.91184">
        <ele>86.6</ele>
      </trkpt>
      <trkpt lat="43.39405" lon="-0.91176">
        <ele>86.5</ele>
      </trkpt>
      <trkpt lat="43.39407" lon="-0.9117">
        <ele>86.5</ele>
      </trkpt>
      <trkpt lat="43.39419" lon="-0.9116">
        <ele>85.3</ele>
      </trkpt>
      <trkpt lat="43.39435" lon="-0.91149">
        <ele>83.9</ele>
      </trkpt>
      <trkpt lat="43.39448" lon="-0.91138">
        <ele>83.4</ele>
      </trkpt>
      <trkpt lat="43.39451" lon="-0.91122">
        <ele>81.7</ele>
      </trkpt>
      <trkpt lat="43.39453" lon="-0.91107">
        <ele>79.9</ele>
      </trkpt>
      <trkpt lat="43.39453" lon="-0.91084">
        <ele>75.4</ele>
      </trkpt>
      <trkpt lat="43.39446" lon="-0.91063">
        <ele>77.8</ele>
      </trkpt>
      <trkpt lat="43.39435" lon="-0.91049">
        <ele>80.7</ele>
      </trkpt>
      <trkpt lat="43.39398" lon="-0.91024">
        <ele>83.2</ele>
      </trkpt>
      <trkpt lat="43.39362" lon="-0.90991">
        <ele>87.4</ele>
      </trkpt>
      <trkpt lat="43.39342" lon="-0.9095">
        <ele>88.9</ele>
      </trkpt>
      <trkpt lat="43.39327" lon="-0.90912">
        <ele>90.1</ele>
      </trkpt>
      <trkpt lat="43.39306" lon="-0.90889">
        <ele>89</ele>
      </trkpt>
      <trkpt lat="43.39275" lon="-0.90854">
        <ele>89</ele>
      </trkpt>
      <trkpt lat="43.39243" lon="-0.90796">
        <ele>87.7</ele>
      </trkpt>
      <trkpt lat="43.39199" lon="-0.90686">
        <ele>87.7</ele>
      </trkpt>
      <trkpt lat="43.39157" lon="-0.90533">
        <ele>84.5</ele>
      </trkpt>
      <trkpt lat="43.39133" lon="-0.90423">
        <ele>83.3</ele>
      </trkpt>
      <trkpt lat="43.39132" lon="-0.90364">
        <ele>84.7</ele>
      </trkpt>
      <trkpt lat="43.39139" lon="-0.9028">
        <ele>84.9</ele>
      </trkpt>
      <trkpt lat="43.39153" lon="-0.90176">
        <ele>85.4</ele>
      </trkpt>
      <trkpt lat="43.39159" lon="-0.90124">
        <ele>85.2</ele>
      </trkpt>
      <trkpt lat="43.39169" lon="-0.89998">
        <ele>85.2</ele>
      </trkpt>
      <trkpt lat="43.39191" lon="-0.89998">
        <ele>87.1</ele>
      </trkpt>
      <trkpt lat="43.39206" lon="-0.89996">
        <ele>89.6</ele>
      </trkpt>
      <trkpt lat="43.39215" lon="-0.89988">
        <ele>91.6</ele>
      </trkpt>
      <trkpt lat="43.39232" lon="-0.89954">
        <ele>97.2</ele>
      </trkpt>
      <trkpt lat="43.39245" lon="-0.89915">
        <ele>100.2</ele>
      </trkpt>
      <trkpt lat="43.39255" lon="-0.89894">
        <ele>101.8</ele>
      </trkpt>
      <trkpt lat="43.39263" lon="-0.89888">
        <ele>102.8</ele>
      </trkpt>
      <trkpt lat="43.3932" lon="-0.89861">
        <ele>109</ele>
      </trkpt>
      <trkpt lat="43.39369" lon="-0.89861">
        <ele>111.9</ele>
      </trkpt>
      <trkpt lat="43.39446" lon="-0.89863">
        <ele>113.1</ele>
      </trkpt>
      <trkpt lat="43.39457" lon="-0.89871">
        <ele>113.5</ele>
      </trkpt>
      <trkpt lat="43.39581" lon="-0.89969">
        <ele>122.8</ele>
      </trkpt>
      <trkpt lat="43.3969" lon="-0.90055">
        <ele>137.7</ele>
      </trkpt>
      <trkpt lat="43.39713" lon="-0.90059">
        <ele>142.3</ele>
      </trkpt>
      <trkpt lat="43.39726" lon="-0.90065">
        <ele>145.1</ele>
      </trkpt>
      <trkpt lat="43.39741" lon="-0.90077">
        <ele>147.6</ele>
      </trkpt>
      <trkpt lat="43.39793" lon="-0.90124">
        <ele>156.9</ele>
      </trkpt>
      <trkpt lat="43.3983" lon="-0.9015">
        <ele>162.2</ele>
      </trkpt>
      <trkpt lat="43.39852" lon="-0.90147">
        <ele>161.8</ele>
      </trkpt>
      <trkpt lat="43.39912" lon="-0.90143">
        <ele>161.2</ele>
      </trkpt>
      <trkpt lat="43.39947" lon="-0.90137">
        <ele>161</ele>
      </trkpt>
      <trkpt lat="43.39978" lon="-0.90124">
        <ele>161.2</ele>
      </trkpt>
      <trkpt lat="43.40048" lon="-0.90094">
        <ele>161.1</ele>
      </trkpt>
      <trkpt lat="43.40071" lon="-0.90087">
        <ele>162.9</ele>
      </trkpt>
      <trkpt lat="43.40137" lon="-0.90086">
        <ele>170.6</ele>
      </trkpt>
      <trkpt lat="43.40186" lon="-0.90074">
        <ele>176.5</ele>
      </trkpt>
      <trkpt lat="43.40215" lon="-0.90057">
        <ele>177.8</ele>
      </trkpt>
      <trkpt lat="43.40255" lon="-0.90039">
        <ele>179.1</ele>
      </trkpt>
      <trkpt lat="43.40309" lon="-0.90017">
        <ele>179.8</ele>
      </trkpt>
      <trkpt lat="43.40326" lon="-0.90006">
        <ele>178</ele>
      </trkpt>
      <trkpt lat="43.40336" lon="-0.89995">
        <ele>176.8</ele>
      </trkpt>
      <trkpt lat="43.40367" lon="-0.89946">
        <ele>173.1</ele>
      </trkpt>
      <trkpt lat="43.40382" lon="-0.89926">
        <ele>172.1</ele>
      </trkpt>
      <trkpt lat="43.40421" lon="-0.89897">
        <ele>171</ele>
      </trkpt>
      <trkpt lat="43.40455" lon="-0.89882">
        <ele>172.6</ele>
      </trkpt>
      <trkpt lat="43.40503" lon="-0.89867">
        <ele>178.8</ele>
      </trkpt>
      <trkpt lat="43.40534" lon="-0.89856">
        <ele>183.9</ele>
      </trkpt>
      <trkpt lat="43.40536" lon="-0.89855">
        <ele>184.2</ele>
      </trkpt>
      <trkpt lat="43.40565" lon="-0.89836">
        <ele>187.2</ele>
      </trkpt>
      <trkpt lat="43.40609" lon="-0.89807">
        <ele>188.9</ele>
      </trkpt>
      <trkpt lat="43.40642" lon="-0.89789">
        <ele>188.7</ele>
      </trkpt>
      <trkpt lat="43.40697" lon="-0.89773">
        <ele>183.5</ele>
      </trkpt>
      <trkpt lat="43.40754" lon="-0.89757">
        <ele>176.4</ele>
      </trkpt>
      <trkpt lat="43.4079" lon="-0.89742">
        <ele>174</ele>
      </trkpt>
      <trkpt lat="43.4083" lon="-0.89716">
        <ele>170.5</ele>
      </trkpt>
      <trkpt lat="43.40861" lon="-0.89689">
        <ele>170.8</ele>
      </trkpt>
      <trkpt lat="43.40923" lon="-0.8963">
        <ele>172.8</ele>
      </trkpt>
      <trkpt lat="43.40987" lon="-0.89565">
        <ele>177.4</ele>
      </trkpt>
      <trkpt lat="43.41018" lon="-0.89535">
        <ele>181.1</ele>
      </trkpt>
      <trkpt lat="43.41032" lon="-0.8951">
        <ele>183.2</ele>
      </trkpt>
      <trkpt lat="43.41044" lon="-0.89476">
        <ele>185.8</ele>
      </trkpt>
      <trkpt lat="43.41059" lon="-0.89426">
        <ele>190.5</ele>
      </trkpt>
      <trkpt lat="43.41064" lon="-0.89418">
        <ele>191.2</ele>
      </trkpt>
      <trkpt lat="43.41075" lon="-0.89414">
        <ele>192</ele>
      </trkpt>
      <trkpt lat="43.41089" lon="-0.89413">
        <ele>193</ele>
      </trkpt>
      <trkpt lat="43.41113" lon="-0.89417">
        <ele>194.1</ele>
      </trkpt>
      <trkpt lat="43.41137" lon="-0.89438">
        <ele>194.5</ele>
      </trkpt>
      <trkpt lat="43.41164" lon="-0.8946">
        <ele>196</ele>
      </trkpt>
      <trkpt lat="43.41162" lon="-0.89395">
        <ele>201.1</ele>
      </trkpt>
      <trkpt lat="43.41146" lon="-0.89336">
        <ele>206.9</ele>
      </trkpt>
      <trkpt lat="43.41134" lon="-0.89281">
        <ele>213.3</ele>
      </trkpt>
      <trkpt lat="43.41131" lon="-0.89256">
        <ele>214.2</ele>
      </trkpt>
      <trkpt lat="43.41131" lon="-0.89191">
        <ele>213.7</ele>
      </trkpt>
      <trkpt lat="43.41135" lon="-0.89151">
        <ele>212.3</ele>
      </trkpt>
      <trkpt lat="43.41148" lon="-0.89103">
        <ele>209.6</ele>
      </trkpt>
      <trkpt lat="43.41163" lon="-0.89052">
        <ele>208.8</ele>
      </trkpt>
      <trkpt lat="43.41184" lon="-0.89025">
        <ele>207.4</ele>
      </trkpt>
      <trkpt lat="43.412" lon="-0.89">
        <ele>207.4</ele>
      </trkpt>
      <trkpt lat="43.41224" lon="-0.88974">
        <ele>208.5</ele>
      </trkpt>
      <trkpt lat="43.41256" lon="-0.88953">
        <ele>207.4</ele>
      </trkpt>
      <trkpt lat="43.41265" lon="-0.8894">
        <ele>207.5</ele>
      </trkpt>
      <trkpt lat="43.41268" lon="-0.88929">
        <ele>207.4</ele>
      </trkpt>
      <trkpt lat="43.41271" lon="-0.88911">
        <ele>206.9</ele>
      </trkpt>
      <trkpt lat="43.41271" lon="-0.88896">
        <ele>205.9</ele>
      </trkpt>
      <trkpt lat="43.41262" lon="-0.88873">
        <ele>206</ele>
      </trkpt>
      <trkpt lat="43.41253" lon="-0.88838">
        <ele>205.7</ele>
      </trkpt>
      <trkpt lat="43.41254" lon="-0.8879">
        <ele>205.8</ele>
      </trkpt>
      <trkpt lat="43.41263" lon="-0.88744">
        <ele>207</ele>
      </trkpt>
      <trkpt lat="43.41277" lon="-0.88717">
        <ele>205.7</ele>
      </trkpt>
      <trkpt lat="43.413" lon="-0.88688">
        <ele>207.2</ele>
      </trkpt>
      <trkpt lat="43.41317" lon="-0.88667">
        <ele>206.6</ele>
      </trkpt>
      <trkpt lat="43.41322" lon="-0.88657">
        <ele>205.2</ele>
      </trkpt>
      <trkpt lat="43.41335" lon="-0.88643">
        <ele>202.6</ele>
      </trkpt>
      <trkpt lat="43.41357" lon="-0.88633">
        <ele>200.1</ele>
      </trkpt>
      <trkpt lat="43.41378" lon="-0.88625">
        <ele>197</ele>
      </trkpt>
      <trkpt lat="43.41399" lon="-0.88621">
        <ele>194.1</ele>
      </trkpt>
      <trkpt lat="43.41424" lon="-0.88619">
        <ele>190.8</ele>
      </trkpt>
      <trkpt lat="43.41435" lon="-0.88617">
        <ele>189.5</ele>
      </trkpt>
      <trkpt lat="43.41463" lon="-0.88605">
        <ele>185.2</ele>
      </trkpt>
      <trkpt lat="43.41476" lon="-0.88594">
        <ele>182.9</ele>
      </trkpt>
      <trkpt lat="43.415" lon="-0.88572">
        <ele>179.2</ele>
      </trkpt>
      <trkpt lat="43.41546" lon="-0.88511">
        <ele>169.7</ele>
      </trkpt>
      <trkpt lat="43.41558" lon="-0.88492">
        <ele>167.3</ele>
      </trkpt>
      <trkpt lat="43.41597" lon="-0.88426">
        <ele>160.5</ele>
      </trkpt>
      <trkpt lat="43.41612" lon="-0.88391">
        <ele>156.1</ele>
      </trkpt>
      <trkpt lat="43.41633" lon="-0.88344">
        <ele>147.6</ele>
      </trkpt>
      <trkpt lat="43.41651" lon="-0.88311">
        <ele>140.8</ele>
      </trkpt>
      <trkpt lat="43.41657" lon="-0.88298">
        <ele>138.4</ele>
      </trkpt>
      <trkpt lat="43.41659" lon="-0.88238">
        <ele>134.7</ele>
      </trkpt>
      <trkpt lat="43.41665" lon="-0.88194">
        <ele>133.1</ele>
      </trkpt>
      <trkpt lat="43.41719" lon="-0.88148">
        <ele>136.4</ele>
      </trkpt>
      <trkpt lat="43.41767" lon="-0.88107">
        <ele>145.2</ele>
      </trkpt>
      <trkpt lat="43.41822" lon="-0.88065">
        <ele>153.6</ele>
      </trkpt>
      <trkpt lat="43.41832" lon="-0.88053">
        <ele>155.2</ele>
      </trkpt>
      <trkpt lat="43.41871" lon="-0.87976">
        <ele>162.4</ele>
      </trkpt>
      <trkpt lat="43.41882" lon="-0.87951">
        <ele>163</ele>
      </trkpt>
      <trkpt lat="43.41898" lon="-0.87925">
        <ele>163.1</ele>
      </trkpt>
      <trkpt lat="43.41912" lon="-0.87908">
        <ele>163.3</ele>
      </trkpt>
      <trkpt lat="43.41958" lon="-0.87864">
        <ele>166.3</ele>
      </trkpt>
      <trkpt lat="43.41968" lon="-0.87854">
        <ele>166.8</ele>
      </trkpt>
      <trkpt lat="43.41993" lon="-0.87829">
        <ele>169.9</ele>
      </trkpt>
      <trkpt lat="43.4208" lon="-0.8774">
        <ele>177.8</ele>
      </trkpt>
      <trkpt lat="43.42105" lon="-0.87703">
        <ele>180.1</ele>
      </trkpt>
      <trkpt lat="43.42114" lon="-0.87682">
        <ele>182.7</ele>
      </trkpt>
      <trkpt lat="43.42129" lon="-0.87641">
        <ele>188.5</ele>
      </trkpt>
      <trkpt lat="43.42145" lon="-0.87615">
        <ele>190.8</ele>
      </trkpt>
      <trkpt lat="43.42155" lon="-0.87607">
        <ele>191.4</ele>
      </trkpt>
      <trkpt lat="43.42164" lon="-0.87596">
        <ele>191.7</ele>
      </trkpt>
      <trkpt lat="43.42244" lon="-0.87458">
        <ele>201.2</ele>
      </trkpt>
      <trkpt lat="43.42288" lon="-0.87389">
        <ele>208.6</ele>
      </trkpt>
      <trkpt lat="43.42305" lon="-0.87378">
        <ele>205.7</ele>
      </trkpt>
      <trkpt lat="43.42351" lon="-0.87375">
        <ele>194.4</ele>
      </trkpt>
      <trkpt lat="43.4238" lon="-0.87363">
        <ele>189.2</ele>
      </trkpt>
      <trkpt lat="43.42446" lon="-0.87322">
        <ele>177.4</ele>
      </trkpt>
      <trkpt lat="43.425" lon="-0.87293">
        <ele>168.5</ele>
      </trkpt>
      <trkpt lat="43.42549" lon="-0.87253">
        <ele>159.1</ele>
      </trkpt>
      <trkpt lat="43.42582" lon="-0.87235">
        <ele>152.3</ele>
      </trkpt>
      <trkpt lat="43.42621" lon="-0.8719">
        <ele>148.3</ele>
      </trkpt>
      <trkpt lat="43.42646" lon="-0.87151">
        <ele>152.7</ele>
      </trkpt>
      <trkpt lat="43.42678" lon="-0.87096">
        <ele>161.5</ele>
      </trkpt>
      <trkpt lat="43.42698" lon="-0.87066">
        <ele>166.8</ele>
      </trkpt>
      <trkpt lat="43.42723" lon="-0.87015">
        <ele>172.5</ele>
      </trkpt>
      <trkpt lat="43.42772" lon="-0.86973">
        <ele>180.3</ele>
      </trkpt>
      <trkpt lat="43.42888" lon="-0.86883">
        <ele>198.4</ele>
      </trkpt>
      <trkpt lat="43.42946" lon="-0.86836">
        <ele>198.5</ele>
      </trkpt>
      <trkpt lat="43.42974" lon="-0.86827">
        <ele>195.6</ele>
      </trkpt>
      <trkpt lat="43.42984" lon="-0.8682">
        <ele>195</ele>
      </trkpt>
      <trkpt lat="43.43003" lon="-0.86794">
        <ele>194</ele>
      </trkpt>
      <trkpt lat="43.43036" lon="-0.8675">
        <ele>193.1</ele>
      </trkpt>
      <trkpt lat="43.43072" lon="-0.86723">
        <ele>192.3</ele>
      </trkpt>
      <trkpt lat="43.43079" lon="-0.86715">
        <ele>192.2</ele>
      </trkpt>
      <trkpt lat="43.43083" lon="-0.86694">
        <ele>192</ele>
      </trkpt>
      <trkpt lat="43.43123" lon="-0.86693">
        <ele>192.4</ele>
      </trkpt>
      <trkpt lat="43.43225" lon="-0.86691">
        <ele>196.1</ele>
      </trkpt>
      <trkpt lat="43.43252" lon="-0.86694">
        <ele>196.9</ele>
      </trkpt>
      <trkpt lat="43.43283" lon="-0.86684">
        <ele>194.4</ele>
      </trkpt>
      <trkpt lat="43.43311" lon="-0.86673">
        <ele>192.6</ele>
      </trkpt>
      <trkpt lat="43.43332" lon="-0.86657">
        <ele>193.2</ele>
      </trkpt>
      <trkpt lat="43.43369" lon="-0.86626">
        <ele>193</ele>
      </trkpt>
      <trkpt lat="43.4339" lon="-0.86599">
        <ele>191.5</ele>
      </trkpt>
      <trkpt lat="43.43423" lon="-0.86542">
        <ele>189.7</ele>
      </trkpt>
      <trkpt lat="43.43469" lon="-0.86467">
        <ele>188</ele>
      </trkpt>
      <trkpt lat="43.4351" lon="-0.86396">
        <ele>187.2</ele>
      </trkpt>
      <trkpt lat="43.4353" lon="-0.86351">
        <ele>185.8</ele>
      </trkpt>
      <trkpt lat="43.43556" lon="-0.86266">
        <ele>185.2</ele>
      </trkpt>
      <trkpt lat="43.43571" lon="-0.86204">
        <ele>182.5</ele>
      </trkpt>
      <trkpt lat="43.43574" lon="-0.86136">
        <ele>178.5</ele>
      </trkpt>
      <trkpt lat="43.43578" lon="-0.86014">
        <ele>169.5</ele>
      </trkpt>
      <trkpt lat="43.43574" lon="-0.85987">
        <ele>168.2</ele>
      </trkpt>
      <trkpt lat="43.43552" lon="-0.85914">
        <ele>164.6</ele>
      </trkpt>
      <trkpt lat="43.43535" lon="-0.85905">
        <ele>163.6</ele>
      </trkpt>
      <trkpt lat="43.4352" lon="-0.85892">
        <ele>162.5</ele>
      </trkpt>
      <trkpt lat="43.43481" lon="-0.85851">
        <ele>158.1</ele>
      </trkpt>
      <trkpt lat="43.43464" lon="-0.85825">
        <ele>155.4</ele>
      </trkpt>
      <trkpt lat="43.43428" lon="-0.85735">
        <ele>145.3</ele>
      </trkpt>
      <trkpt lat="43.43411" lon="-0.85668">
        <ele>144.1</ele>
      </trkpt>
      <trkpt lat="43.43416" lon="-0.85604">
        <ele>137.5</ele>
      </trkpt>
      <trkpt lat="43.43435" lon="-0.85498">
        <ele>132</ele>
      </trkpt>
      <trkpt lat="43.43467" lon="-0.85324">
        <ele>116</ele>
      </trkpt>
      <trkpt lat="43.43496" lon="-0.85177">
        <ele>105.1</ele>
      </trkpt>
      <trkpt lat="43.43495" lon="-0.85157">
        <ele>103.9</ele>
      </trkpt>
      <trkpt lat="43.43501" lon="-0.85118">
        <ele>101.2</ele>
      </trkpt>
      <trkpt lat="43.43514" lon="-0.85082">
        <ele>95.8</ele>
      </trkpt>
      <trkpt lat="43.43525" lon="-0.85051">
        <ele>92.7</ele>
      </trkpt>
      <trkpt lat="43.43525" lon="-0.85028">
        <ele>90.8</ele>
      </trkpt>
      <trkpt lat="43.43525" lon="-0.8501">
        <ele>88.9</ele>
      </trkpt>
      <trkpt lat="43.43503" lon="-0.84931">
        <ele>81.5</ele>
      </trkpt>
      <trkpt lat="43.43526" lon="-0.84906">
        <ele>81</ele>
      </trkpt>
      <trkpt lat="43.43555" lon="-0.84887">
        <ele>81.9</ele>
      </trkpt>
      <trkpt lat="43.43574" lon="-0.84888">
        <ele>82</ele>
      </trkpt>
      <trkpt lat="43.43599" lon="-0.84893">
        <ele>81.7</ele>
      </trkpt>
      <trkpt lat="43.43619" lon="-0.849">
        <ele>81.7</ele>
      </trkpt>
      <trkpt lat="43.43644" lon="-0.84917">
        <ele>81.8</ele>
      </trkpt>
      <trkpt lat="43.43661" lon="-0.84873">
        <ele>80.1</ele>
      </trkpt>
      <trkpt lat="43.43691" lon="-0.84807">
        <ele>79.8</ele>
      </trkpt>
      <trkpt lat="43.43708" lon="-0.84773">
        <ele>79.1</ele>
      </trkpt>
      <trkpt lat="43.43755" lon="-0.84693">
        <ele>79.6</ele>
      </trkpt>
      <trkpt lat="43.43742" lon="-0.84678">
        <ele>80</ele>
      </trkpt>
      <trkpt lat="43.43738" lon="-0.84668">
        <ele>80</ele>
      </trkpt>
      <trkpt lat="43.43739" lon="-0.84642">
        <ele>80.5</ele>
      </trkpt>
      <trkpt lat="43.43754" lon="-0.84589">
        <ele>81.8</ele>
      </trkpt>
      <trkpt lat="43.43766" lon="-0.8455">
        <ele>85.8</ele>
      </trkpt>
      <trkpt lat="43.43785" lon="-0.84493">
        <ele>93.3</ele>
      </trkpt>
      <trkpt lat="43.43793" lon="-0.84474">
        <ele>96.5</ele>
      </trkpt>
      <trkpt lat="43.43801" lon="-0.84456">
        <ele>99.1</ele>
      </trkpt>
      <trkpt lat="43.43826" lon="-0.84402">
        <ele>106</ele>
      </trkpt>
      <trkpt lat="43.43835" lon="-0.84386">
        <ele>107.5</ele>
      </trkpt>
      <trkpt lat="43.43845" lon="-0.8437">
        <ele>109.5</ele>
      </trkpt>
      <trkpt lat="43.43855" lon="-0.84353">
        <ele>111.3</ele>
      </trkpt>
      <trkpt lat="43.43864" lon="-0.84337">
        <ele>113.5</ele>
      </trkpt>
      <trkpt lat="43.43874" lon="-0.84321">
        <ele>115.8</ele>
      </trkpt>
      <trkpt lat="43.43906" lon="-0.84268">
        <ele>121.1</ele>
      </trkpt>
      <trkpt lat="43.43916" lon="-0.8425">
        <ele>123</ele>
      </trkpt>
      <trkpt lat="43.43937" lon="-0.84214">
        <ele>126.9</ele>
      </trkpt>
      <trkpt lat="43.43958" lon="-0.84179">
        <ele>130.2</ele>
      </trkpt>
      <trkpt lat="43.43968" lon="-0.84161">
        <ele>131.5</ele>
      </trkpt>
      <trkpt lat="43.43979" lon="-0.84143">
        <ele>132.5</ele>
      </trkpt>
      <trkpt lat="43.43989" lon="-0.84126">
        <ele>133.4</ele>
      </trkpt>
      <trkpt lat="43.44" lon="-0.84109">
        <ele>135.1</ele>
      </trkpt>
      <trkpt lat="43.4401" lon="-0.84092">
        <ele>135.6</ele>
      </trkpt>
      <trkpt lat="43.44029" lon="-0.84058">
        <ele>137.8</ele>
      </trkpt>
      <trkpt lat="43.44039" lon="-0.84041">
        <ele>139</ele>
      </trkpt>
      <trkpt lat="43.44075" lon="-0.83917">
        <ele>146.7</ele>
      </trkpt>
      <trkpt lat="43.44113" lon="-0.83786">
        <ele>154.8</ele>
      </trkpt>
      <trkpt lat="43.44119" lon="-0.83768">
        <ele>156</ele>
      </trkpt>
      <trkpt lat="43.4413" lon="-0.8373">
        <ele>158.6</ele>
      </trkpt>
      <trkpt lat="43.44144" lon="-0.837">
        <ele>161.2</ele>
      </trkpt>
      <trkpt lat="43.44151" lon="-0.83686">
        <ele>162</ele>
      </trkpt>
      <trkpt lat="43.44158" lon="-0.8367">
        <ele>163</ele>
      </trkpt>
      <trkpt lat="43.44173" lon="-0.8364">
        <ele>164.5</ele>
      </trkpt>
      <trkpt lat="43.44193" lon="-0.8361">
        <ele>166.8</ele>
      </trkpt>
      <trkpt lat="43.44203" lon="-0.83595">
        <ele>166.7</ele>
      </trkpt>
      <trkpt lat="43.44229" lon="-0.83585">
        <ele>167.6</ele>
      </trkpt>
      <trkpt lat="43.44275" lon="-0.83553">
        <ele>169.5</ele>
      </trkpt>
      <trkpt lat="43.443" lon="-0.83542">
        <ele>171</ele>
      </trkpt>
      <trkpt lat="43.4432" lon="-0.83537">
        <ele>172.5</ele>
      </trkpt>
      <trkpt lat="43.44335" lon="-0.83534">
        <ele>173.9</ele>
      </trkpt>
      <trkpt lat="43.44369" lon="-0.83581">
        <ele>174.4</ele>
      </trkpt>
      <trkpt lat="43.44391" lon="-0.83601">
        <ele>173.7</ele>
      </trkpt>
      <trkpt lat="43.44415" lon="-0.83612">
        <ele>173</ele>
      </trkpt>
      <trkpt lat="43.44459" lon="-0.83624">
        <ele>173.2</ele>
      </trkpt>
      <trkpt lat="43.44538" lon="-0.83638">
        <ele>175.4</ele>
      </trkpt>
      <trkpt lat="43.44624" lon="-0.83649">
        <ele>180.2</ele>
      </trkpt>
      <trkpt lat="43.44652" lon="-0.83658">
        <ele>179</ele>
      </trkpt>
      <trkpt lat="43.44663" lon="-0.8367">
        <ele>179.5</ele>
      </trkpt>
      <trkpt lat="43.44677" lon="-0.83698">
        <ele>180.2</ele>
      </trkpt>
      <trkpt lat="43.44687" lon="-0.83697">
        <ele>179.4</ele>
      </trkpt>
      <trkpt lat="43.44708" lon="-0.83685">
        <ele>177.3</ele>
      </trkpt>
      <trkpt lat="43.44733" lon="-0.83666">
        <ele>174.8</ele>
      </trkpt>
      <trkpt lat="43.4474" lon="-0.83653">
        <ele>173.7</ele>
      </trkpt>
      <trkpt lat="43.44751" lon="-0.836">
        <ele>171.2</ele>
      </trkpt>
      <trkpt lat="43.44778" lon="-0.83579">
        <ele>169.8</ele>
      </trkpt>
      <trkpt lat="43.44837" lon="-0.83522">
        <ele>166.6</ele>
      </trkpt>
      <trkpt lat="43.44896" lon="-0.83541">
        <ele>160.5</ele>
      </trkpt>
      <trkpt lat="43.44904" lon="-0.83541">
        <ele>159.4</ele>
      </trkpt>
      <trkpt lat="43.44908" lon="-0.83535">
        <ele>158.7</ele>
      </trkpt>
      <trkpt lat="43.44938" lon="-0.83479">
        <ele>153.5</ele>
      </trkpt>
      <trkpt lat="43.4496" lon="-0.83432">
        <ele>151.1</ele>
      </trkpt>
      <trkpt lat="43.44982" lon="-0.83377">
        <ele>151.5</ele>
      </trkpt>
      <trkpt lat="43.44999" lon="-0.83369">
        <ele>151.5</ele>
      </trkpt>
      <trkpt lat="43.45059" lon="-0.83334">
        <ele>146.7</ele>
      </trkpt>
      <trkpt lat="43.45105" lon="-0.83294">
        <ele>144.4</ele>
      </trkpt>
      <trkpt lat="43.45129" lon="-0.83261">
        <ele>143.5</ele>
      </trkpt>
      <trkpt lat="43.45147" lon="-0.83228">
        <ele>141.9</ele>
      </trkpt>
      <trkpt lat="43.4519" lon="-0.83145">
        <ele>136.3</ele>
      </trkpt>
      <trkpt lat="43.45211" lon="-0.83097">
        <ele>133.8</ele>
      </trkpt>
      <trkpt lat="43.45219" lon="-0.83085">
        <ele>132.4</ele>
      </trkpt>
      <trkpt lat="43.45227" lon="-0.83081">
        <ele>131.2</ele>
      </trkpt>
      <trkpt lat="43.45241" lon="-0.83087">
        <ele>129.4</ele>
      </trkpt>
      <trkpt lat="43.45253" lon="-0.83099">
        <ele>128.1</ele>
      </trkpt>
      <trkpt lat="43.45263" lon="-0.83115">
        <ele>126.8</ele>
      </trkpt>
      <trkpt lat="43.45271" lon="-0.83142">
        <ele>125.2</ele>
      </trkpt>
      <trkpt lat="43.45288" lon="-0.83191">
        <ele>120.9</ele>
      </trkpt>
      <trkpt lat="43.45294" lon="-0.83193">
        <ele>119.6</ele>
      </trkpt>
      <trkpt lat="43.45299" lon="-0.83192">
        <ele>118.5</ele>
      </trkpt>
      <trkpt lat="43.45305" lon="-0.83181">
        <ele>117.6</ele>
      </trkpt>
      <trkpt lat="43.45312" lon="-0.83158">
        <ele>116.6</ele>
      </trkpt>
      <trkpt lat="43.45342" lon="-0.83066">
        <ele>110.6</ele>
      </trkpt>
      <trkpt lat="43.45354" lon="-0.83032">
        <ele>108.4</ele>
      </trkpt>
      <trkpt lat="43.45364" lon="-0.83013">
        <ele>106</ele>
      </trkpt>
      <trkpt lat="43.45391" lon="-0.82943">
        <ele>102.8</ele>
      </trkpt>
      <trkpt lat="43.45392" lon="-0.82934">
        <ele>102.3</ele>
      </trkpt>
      <trkpt lat="43.45397" lon="-0.82839">
        <ele>97.9</ele>
      </trkpt>
      <trkpt lat="43.45394" lon="-0.82742">
        <ele>96.5</ele>
      </trkpt>
      <trkpt lat="43.45399" lon="-0.82721">
        <ele>95.6</ele>
      </trkpt>
      <trkpt lat="43.45424" lon="-0.82674">
        <ele>94.6</ele>
      </trkpt>
      <trkpt lat="43.4543" lon="-0.82669">
        <ele>94.6</ele>
      </trkpt>
      <trkpt lat="43.45459" lon="-0.82665">
        <ele>96</ele>
      </trkpt>
      <trkpt lat="43.45494" lon="-0.82652">
        <ele>97.6</ele>
      </trkpt>
      <trkpt lat="43.45525" lon="-0.82631">
        <ele>99.6</ele>
      </trkpt>
      <trkpt lat="43.45524" lon="-0.82626">
        <ele>100</ele>
      </trkpt>
      <trkpt lat="43.45499" lon="-0.8245">
        <ele>107.4</ele>
      </trkpt>
      <trkpt lat="43.45498" lon="-0.82425">
        <ele>108.8</ele>
      </trkpt>
      <trkpt lat="43.45499" lon="-0.824">
        <ele>109.1</ele>
      </trkpt>
      <trkpt lat="43.45534" lon="-0.82293">
        <ele>118.1</ele>
      </trkpt>
      <trkpt lat="43.45549" lon="-0.8226">
        <ele>121.1</ele>
      </trkpt>
      <trkpt lat="43.45566" lon="-0.82233">
        <ele>123.1</ele>
      </trkpt>
      <trkpt lat="43.45579" lon="-0.82223">
        <ele>124.3</ele>
      </trkpt>
      <trkpt lat="43.45614" lon="-0.82197">
        <ele>124.5</ele>
      </trkpt>
      <trkpt lat="43.45624" lon="-0.82193">
        <ele>124.1</ele>
      </trkpt>
      <trkpt lat="43.45672" lon="-0.82186">
        <ele>124.8</ele>
      </trkpt>
      <trkpt lat="43.45684" lon="-0.82181">
        <ele>124.5</ele>
      </trkpt>
      <trkpt lat="43.45693" lon="-0.82174">
        <ele>124</ele>
      </trkpt>
      <trkpt lat="43.45719" lon="-0.82155">
        <ele>124.8</ele>
      </trkpt>
      <trkpt lat="43.45761" lon="-0.82113">
        <ele>126.4</ele>
      </trkpt>
      <trkpt lat="43.45772" lon="-0.82094">
        <ele>127.4</ele>
      </trkpt>
      <trkpt lat="43.45781" lon="-0.82069">
        <ele>128.9</ele>
      </trkpt>
      <trkpt lat="43.45811" lon="-0.81984">
        <ele>131.5</ele>
      </trkpt>
      <trkpt lat="43.45834" lon="-0.81934">
        <ele>131.3</ele>
      </trkpt>
      <trkpt lat="43.45879" lon="-0.81836">
        <ele>126.5</ele>
      </trkpt>
      <trkpt lat="43.45931" lon="-0.81697">
        <ele>113.2</ele>
      </trkpt>
      <trkpt lat="43.45933" lon="-0.81681">
        <ele>111.4</ele>
      </trkpt>
      <trkpt lat="43.45934" lon="-0.81655">
        <ele>108.9</ele>
      </trkpt>
      <trkpt lat="43.45937" lon="-0.81591">
        <ele>104.3</ele>
      </trkpt>
      <trkpt lat="43.45948" lon="-0.81588">
        <ele>103.9</ele>
      </trkpt>
      <trkpt lat="43.4596" lon="-0.8159">
        <ele>103.3</ele>
      </trkpt>
      <trkpt lat="43.45974" lon="-0.81595">
        <ele>102.6</ele>
      </trkpt>
      <trkpt lat="43.45994" lon="-0.81605">
        <ele>100.8</ele>
      </trkpt>
      <trkpt lat="43.46009" lon="-0.81618">
        <ele>99.8</ele>
      </trkpt>
      <trkpt lat="43.46035" lon="-0.81651">
        <ele>98.1</ele>
      </trkpt>
      <trkpt lat="43.46074" lon="-0.81708">
        <ele>93.7</ele>
      </trkpt>
      <trkpt lat="43.461" lon="-0.81743">
        <ele>91.1</ele>
      </trkpt>
      <trkpt lat="43.46103" lon="-0.81754">
        <ele>90.9</ele>
      </trkpt>
      <trkpt lat="43.4611" lon="-0.81807">
        <ele>90.1</ele>
      </trkpt>
      <trkpt lat="43.46117" lon="-0.81829">
        <ele>90.9</ele>
      </trkpt>
      <trkpt lat="43.4612" lon="-0.81862">
        <ele>92.7</ele>
      </trkpt>
      <trkpt lat="43.46118" lon="-0.81902">
        <ele>93.7</ele>
      </trkpt>
      <trkpt lat="43.46111" lon="-0.81965">
        <ele>96.5</ele>
      </trkpt>
      <trkpt lat="43.46114" lon="-0.81989">
        <ele>98.3</ele>
      </trkpt>
      <trkpt lat="43.46092" lon="-0.82044">
        <ele>104.6</ele>
      </trkpt>
      <trkpt lat="43.46086" lon="-0.82073">
        <ele>108.3</ele>
      </trkpt>
      <trkpt lat="43.46086" lon="-0.82101">
        <ele>110.9</ele>
      </trkpt>
      <trkpt lat="43.46094" lon="-0.82104">
        <ele>109.9</ele>
      </trkpt>
      <trkpt lat="43.46106" lon="-0.82101">
        <ele>108</ele>
      </trkpt>
      <trkpt lat="43.46121" lon="-0.82103">
        <ele>106.2</ele>
      </trkpt>
      <trkpt lat="43.46124" lon="-0.82111">
        <ele>106.1</ele>
      </trkpt>
      <trkpt lat="43.46132" lon="-0.82091">
        <ele>104.6</ele>
      </trkpt>
      <trkpt lat="43.46134" lon="-0.82065">
        <ele>103.7</ele>
      </trkpt>
      <trkpt lat="43.46132" lon="-0.82027">
        <ele>101.5</ele>
      </trkpt>
      <trkpt lat="43.46161" lon="-0.82021">
        <ele>100</ele>
      </trkpt>
      <trkpt lat="43.46188" lon="-0.8201">
        <ele>97</ele>
      </trkpt>
      <trkpt lat="43.46202" lon="-0.81999">
        <ele>95.2</ele>
      </trkpt>
      <trkpt lat="43.46227" lon="-0.8197">
        <ele>91.4</ele>
      </trkpt>
      <trkpt lat="43.46256" lon="-0.81931">
        <ele>88.4</ele>
      </trkpt>
      <trkpt lat="43.4628" lon="-0.81897">
        <ele>88.1</ele>
      </trkpt>
      <trkpt lat="43.46303" lon="-0.81868">
        <ele>86.1</ele>
      </trkpt>
      <trkpt lat="43.46326" lon="-0.81832">
        <ele>84.8</ele>
      </trkpt>
      <trkpt lat="43.46337" lon="-0.81823">
        <ele>84.2</ele>
      </trkpt>
      <trkpt lat="43.46348" lon="-0.8181">
        <ele>83.9</ele>
      </trkpt>
      <trkpt lat="43.46356" lon="-0.81796">
        <ele>82.8</ele>
      </trkpt>
      <trkpt lat="43.46368" lon="-0.81769">
        <ele>80.8</ele>
      </trkpt>
      <trkpt lat="43.46377" lon="-0.81759">
        <ele>80.2</ele>
      </trkpt>
      <trkpt lat="43.46399" lon="-0.81732">
        <ele>79.2</ele>
      </trkpt>
      <trkpt lat="43.46443" lon="-0.81694">
        <ele>77.1</ele>
      </trkpt>
      <trkpt lat="43.46471" lon="-0.81663">
        <ele>78.1</ele>
      </trkpt>
      <trkpt lat="43.46513" lon="-0.816">
        <ele>81.9</ele>
      </trkpt>
      <trkpt lat="43.46554" lon="-0.81536">
        <ele>80.7</ele>
      </trkpt>
      <trkpt lat="43.46576" lon="-0.81499">
        <ele>80.2</ele>
      </trkpt>
      <trkpt lat="43.46616" lon="-0.81435">
        <ele>78.4</ele>
      </trkpt>
      <trkpt lat="43.46641" lon="-0.81401">
        <ele>78</ele>
      </trkpt>
      <trkpt lat="43.46691" lon="-0.81331">
        <ele>75.1</ele>
      </trkpt>
      <trkpt lat="43.4672" lon="-0.81295">
        <ele>75.2</ele>
      </trkpt>
      <trkpt lat="43.46757" lon="-0.81233">
        <ele>74.6</ele>
      </trkpt>
      <trkpt lat="43.46782" lon="-0.81193">
        <ele>73.2</ele>
      </trkpt>
      <trkpt lat="43.46798" lon="-0.81179">
        <ele>73.1</ele>
      </trkpt>
      <trkpt lat="43.46834" lon="-0.8115">
        <ele>72</ele>
      </trkpt>
      <trkpt lat="43.46842" lon="-0.81135">
        <ele>72.3</ele>
      </trkpt>
      <trkpt lat="43.46858" lon="-0.81104">
        <ele>72.9</ele>
      </trkpt>
      <trkpt lat="43.4689" lon="-0.81032">
        <ele>76.1</ele>
      </trkpt>
      <trkpt lat="43.46904" lon="-0.80994">
        <ele>79</ele>
      </trkpt>
      <trkpt lat="43.46913" lon="-0.80967">
        <ele>79.2</ele>
      </trkpt>
      <trkpt lat="43.46924" lon="-0.80954">
        <ele>81.3</ele>
      </trkpt>
      <trkpt lat="43.46947" lon="-0.80939">
        <ele>84.8</ele>
      </trkpt>
      <trkpt lat="43.46964" lon="-0.80923">
        <ele>87</ele>
      </trkpt>
      <trkpt lat="43.46978" lon="-0.80907">
        <ele>88.1</ele>
      </trkpt>
      <trkpt lat="43.47027" lon="-0.8084">
        <ele>85.8</ele>
      </trkpt>
      <trkpt lat="43.47039" lon="-0.8083">
        <ele>85</ele>
      </trkpt>
      <trkpt lat="43.47068" lon="-0.80819">
        <ele>83.6</ele>
      </trkpt>
      <trkpt lat="43.47096" lon="-0.80818">
        <ele>81.6</ele>
      </trkpt>
      <trkpt lat="43.47122" lon="-0.80818">
        <ele>81.1</ele>
      </trkpt>
      <trkpt lat="43.47137" lon="-0.8081">
        <ele>81.1</ele>
      </trkpt>
      <trkpt lat="43.47169" lon="-0.80779">
        <ele>81.3</ele>
      </trkpt>
      <trkpt lat="43.47179" lon="-0.80764">
        <ele>81.4</ele>
      </trkpt>
      <trkpt lat="43.4719" lon="-0.80756">
        <ele>80.9</ele>
      </trkpt>
      <trkpt lat="43.47213" lon="-0.80744">
        <ele>80.1</ele>
      </trkpt>
      <trkpt lat="43.47245" lon="-0.8074">
        <ele>79.9</ele>
      </trkpt>
      <trkpt lat="43.47345" lon="-0.80731">
        <ele>77.2</ele>
      </trkpt>
      <trkpt lat="43.47377" lon="-0.80727">
        <ele>74.8</ele>
      </trkpt>
      <trkpt lat="43.47398" lon="-0.80719">
        <ele>72.3</ele>
      </trkpt>
      <trkpt lat="43.47428" lon="-0.80701">
        <ele>69</ele>
      </trkpt>
      <trkpt lat="43.47448" lon="-0.80699">
        <ele>67.9</ele>
      </trkpt>
      <trkpt lat="43.47492" lon="-0.80694">
        <ele>64.6</ele>
      </trkpt>
      <trkpt lat="43.47531" lon="-0.80681">
        <ele>62.2</ele>
      </trkpt>
      <trkpt lat="43.4757" lon="-0.80656">
        <ele>59.9</ele>
      </trkpt>
      <trkpt lat="43.47596" lon="-0.80631">
        <ele>58</ele>
      </trkpt>
      <trkpt lat="43.47624" lon="-0.80609">
        <ele>55.5</ele>
      </trkpt>
      <trkpt lat="43.47645" lon="-0.80603">
        <ele>55</ele>
      </trkpt>
      <trkpt lat="43.4767" lon="-0.80597">
        <ele>58.5</ele>
      </trkpt>
      <trkpt lat="43.47693" lon="-0.80591">
        <ele>62</ele>
      </trkpt>
      <trkpt lat="43.47736" lon="-0.80567">
        <ele>64.2</ele>
      </trkpt>
      <trkpt lat="43.47755" lon="-0.80519">
        <ele>66.3</ele>
      </trkpt>
      <trkpt lat="43.47771" lon="-0.8049">
        <ele>67</ele>
      </trkpt>
      <trkpt lat="43.47803" lon="-0.80464">
        <ele>67</ele>
      </trkpt>
      <trkpt lat="43.4786" lon="-0.80436">
        <ele>68.3</ele>
      </trkpt>
      <trkpt lat="43.47882" lon="-0.80426">
        <ele>69.6</ele>
      </trkpt>
      <trkpt lat="43.47941" lon="-0.80389">
        <ele>72.9</ele>
      </trkpt>
      <trkpt lat="43.47999" lon="-0.80347">
        <ele>73.8</ele>
      </trkpt>
      <trkpt lat="43.48052" lon="-0.80305">
        <ele>77.9</ele>
      </trkpt>
      <trkpt lat="43.48082" lon="-0.80274">
        <ele>78.2</ele>
      </trkpt>
      <trkpt lat="43.48103" lon="-0.80245">
        <ele>79.8</ele>
      </trkpt>
      <trkpt lat="43.48118" lon="-0.80218">
        <ele>80.5</ele>
      </trkpt>
      <trkpt lat="43.48143" lon="-0.80169">
        <ele>80.1</ele>
      </trkpt>
      <trkpt lat="43.48169" lon="-0.80128">
        <ele>80.6</ele>
      </trkpt>
      <trkpt lat="43.48192" lon="-0.80099">
        <ele>79.1</ele>
      </trkpt>
      <trkpt lat="43.48162" lon="-0.80054">
        <ele>83.4</ele>
      </trkpt>
      <trkpt lat="43.48113" lon="-0.79982">
        <ele>91</ele>
      </trkpt>
      <trkpt lat="43.48102" lon="-0.79963">
        <ele>92</ele>
      </trkpt>
      <trkpt lat="43.48091" lon="-0.79932">
        <ele>92.3</ele>
      </trkpt>
      <trkpt lat="43.48063" lon="-0.79897">
        <ele>91.2</ele>
      </trkpt>
      <trkpt lat="43.48014" lon="-0.79862">
        <ele>95</ele>
      </trkpt>
      <trkpt lat="43.48022" lon="-0.7983">
        <ele>98.1</ele>
      </trkpt>
      <trkpt lat="43.48028" lon="-0.79799">
        <ele>99.4</ele>
      </trkpt>
      <trkpt lat="43.48027" lon="-0.79782">
        <ele>100.7</ele>
      </trkpt>
      <trkpt lat="43.48029" lon="-0.79734">
        <ele>102</ele>
      </trkpt>
      <trkpt lat="43.48037" lon="-0.79718">
        <ele>102.6</ele>
      </trkpt>
      <trkpt lat="43.48051" lon="-0.79683">
        <ele>104.7</ele>
      </trkpt>
      <trkpt lat="43.4805" lon="-0.79668">
        <ele>105.5</ele>
      </trkpt>
      <trkpt lat="43.48042" lon="-0.79656">
        <ele>105.8</ele>
      </trkpt>
      <trkpt lat="43.48025" lon="-0.79614">
        <ele>106.4</ele>
      </trkpt>
      <trkpt lat="43.48013" lon="-0.79561">
        <ele>108.2</ele>
      </trkpt>
      <trkpt lat="43.47998" lon="-0.79522">
        <ele>109.2</ele>
      </trkpt>
      <trkpt lat="43.47991" lon="-0.79492">
        <ele>110.8</ele>
      </trkpt>
      <trkpt lat="43.47986" lon="-0.79455">
        <ele>112.3</ele>
      </trkpt>
      <trkpt lat="43.47988" lon="-0.79431">
        <ele>111.6</ele>
      </trkpt>
      <trkpt lat="43.47998" lon="-0.79418">
        <ele>110.2</ele>
      </trkpt>
      <trkpt lat="43.4801" lon="-0.79399">
        <ele>111.3</ele>
      </trkpt>
      <trkpt lat="43.48011" lon="-0.79383">
        <ele>110.7</ele>
      </trkpt>
      <trkpt lat="43.48007" lon="-0.79373">
        <ele>110.7</ele>
      </trkpt>
      <trkpt lat="43.47999" lon="-0.79358">
        <ele>111.4</ele>
      </trkpt>
      <trkpt lat="43.47984" lon="-0.79299">
        <ele>112.9</ele>
      </trkpt>
      <trkpt lat="43.47964" lon="-0.79235">
        <ele>111.7</ele>
      </trkpt>
      <trkpt lat="43.47946" lon="-0.79201">
        <ele>111.7</ele>
      </trkpt>
      <trkpt lat="43.47907" lon="-0.79135">
        <ele>113.3</ele>
      </trkpt>
      <trkpt lat="43.4787" lon="-0.79084">
        <ele>114.5</ele>
      </trkpt>
      <trkpt lat="43.47826" lon="-0.79041">
        <ele>119.7</ele>
      </trkpt>
      <trkpt lat="43.47815" lon="-0.79031">
        <ele>120.4</ele>
      </trkpt>
      <trkpt lat="43.47799" lon="-0.79">
        <ele>123.5</ele>
      </trkpt>
      <trkpt lat="43.47798" lon="-0.78997">
        <ele>123.6</ele>
      </trkpt>
      <trkpt lat="43.47778" lon="-0.78946">
        <ele>124.9</ele>
      </trkpt>
      <trkpt lat="43.47752" lon="-0.7888">
        <ele>123.8</ele>
      </trkpt>
      <trkpt lat="43.47728" lon="-0.78813">
        <ele>119.8</ele>
      </trkpt>
      <trkpt lat="43.47727" lon="-0.78799">
        <ele>119.1</ele>
      </trkpt>
      <trkpt lat="43.47727" lon="-0.78789">
        <ele>118.7</ele>
      </trkpt>
      <trkpt lat="43.47732" lon="-0.78776">
        <ele>118.2</ele>
      </trkpt>
      <trkpt lat="43.4775" lon="-0.78745">
        <ele>115</ele>
      </trkpt>
      <trkpt lat="43.47759" lon="-0.78724">
        <ele>114.1</ele>
      </trkpt>
      <trkpt lat="43.47761" lon="-0.78714">
        <ele>113.1</ele>
      </trkpt>
      <trkpt lat="43.4776" lon="-0.78704">
        <ele>112.3</ele>
      </trkpt>
      <trkpt lat="43.47757" lon="-0.78659">
        <ele>111.3</ele>
      </trkpt>
      <trkpt lat="43.47759" lon="-0.78633">
        <ele>111</ele>
      </trkpt>
      <trkpt lat="43.47772" lon="-0.78598">
        <ele>110.4</ele>
      </trkpt>
      <trkpt lat="43.47784" lon="-0.78573">
        <ele>111.4</ele>
      </trkpt>
      <trkpt lat="43.47807" lon="-0.78531">
        <ele>109.9</ele>
      </trkpt>
      <trkpt lat="43.47816" lon="-0.78508">
        <ele>108.6</ele>
      </trkpt>
      <trkpt lat="43.47841" lon="-0.78404">
        <ele>103.1</ele>
      </trkpt>
      <trkpt lat="43.47849" lon="-0.78388">
        <ele>101.8</ele>
      </trkpt>
      <trkpt lat="43.47862" lon="-0.78379">
        <ele>100</ele>
      </trkpt>
      <trkpt lat="43.47877" lon="-0.78358">
        <ele>99.1</ele>
      </trkpt>
      <trkpt lat="43.47913" lon="-0.78283">
        <ele>99.7</ele>
      </trkpt>
      <trkpt lat="43.4794" lon="-0.78218">
        <ele>101.2</ele>
      </trkpt>
      <trkpt lat="43.4794" lon="-0.78184">
        <ele>103.6</ele>
      </trkpt>
      <trkpt lat="43.47942" lon="-0.78163">
        <ele>103.9</ele>
      </trkpt>
      <trkpt lat="43.4795" lon="-0.78128">
        <ele>104.7</ele>
      </trkpt>
      <trkpt lat="43.47971" lon="-0.78053">
        <ele>103.4</ele>
      </trkpt>
      <trkpt lat="43.47978" lon="-0.78025">
        <ele>102.9</ele>
      </trkpt>
      <trkpt lat="43.47977" lon="-0.78012">
        <ele>102.7</ele>
      </trkpt>
      <trkpt lat="43.47973" lon="-0.77997">
        <ele>103.7</ele>
      </trkpt>
      <trkpt lat="43.47995" lon="-0.77983">
        <ele>102.5</ele>
      </trkpt>
      <trkpt lat="43.48013" lon="-0.77976">
        <ele>100.7</ele>
      </trkpt>
      <trkpt lat="43.48038" lon="-0.77977">
        <ele>98.7</ele>
      </trkpt>
      <trkpt lat="43.48078" lon="-0.77979">
        <ele>95.6</ele>
      </trkpt>
      <trkpt lat="43.48139" lon="-0.77988">
        <ele>91.6</ele>
      </trkpt>
      <trkpt lat="43.48175" lon="-0.77991">
        <ele>88.1</ele>
      </trkpt>
      <trkpt lat="43.48201" lon="-0.77987">
        <ele>85.8</ele>
      </trkpt>
      <trkpt lat="43.48219" lon="-0.77976">
        <ele>85</ele>
      </trkpt>
      <trkpt lat="43.48232" lon="-0.77961">
        <ele>84.2</ele>
      </trkpt>
      <trkpt lat="43.48242" lon="-0.77944">
        <ele>83.2</ele>
      </trkpt>
      <trkpt lat="43.48263" lon="-0.77894">
        <ele>80.6</ele>
      </trkpt>
      <trkpt lat="43.48283" lon="-0.7782">
        <ele>75.5</ele>
      </trkpt>
      <trkpt lat="43.48293" lon="-0.77797">
        <ele>74.8</ele>
      </trkpt>
      <trkpt lat="43.48301" lon="-0.77786">
        <ele>74</ele>
      </trkpt>
      <trkpt lat="43.48348" lon="-0.77746">
        <ele>70.5</ele>
      </trkpt>
      <trkpt lat="43.48449" lon="-0.77652">
        <ele>66.8</ele>
      </trkpt>
      <trkpt lat="43.48465" lon="-0.77658">
        <ele>66.5</ele>
      </trkpt>
      <trkpt lat="43.48479" lon="-0.77669">
        <ele>66.3</ele>
      </trkpt>
      <trkpt lat="43.48493" lon="-0.7769">
        <ele>65.6</ele>
      </trkpt>
      <trkpt lat="43.48499" lon="-0.77715">
        <ele>64.3</ele>
      </trkpt>
      <trkpt lat="43.48508" lon="-0.7776">
        <ele>63.9</ele>
      </trkpt>
      <trkpt lat="43.48563" lon="-0.77729">
        <ele>59.7</ele>
      </trkpt>
      <trkpt lat="43.48602" lon="-0.77712">
        <ele>54.1</ele>
      </trkpt>
      <trkpt lat="43.48664" lon="-0.77686">
        <ele>57.9</ele>
      </trkpt>
      <trkpt lat="43.48638" lon="-0.77578">
        <ele>59.9</ele>
      </trkpt>
      <trkpt lat="43.48734" lon="-0.77533">
        <ele>67.8</ele>
      </trkpt>
      <trkpt lat="43.48802" lon="-0.77499">
        <ele>67.2</ele>
      </trkpt>
      <trkpt lat="43.48826" lon="-0.77481">
        <ele>67.2</ele>
      </trkpt>
      <trkpt lat="43.48852" lon="-0.77456">
        <ele>67.2</ele>
      </trkpt>
      <trkpt lat="43.48899" lon="-0.77382">
        <ele>67.5</ele>
      </trkpt>
      <trkpt lat="43.4902" lon="-0.7719">
        <ele>80.1</ele>
      </trkpt>
      <trkpt lat="43.49079" lon="-0.77091">
        <ele>91.3</ele>
      </trkpt>
      <trkpt lat="43.491" lon="-0.77056">
        <ele>95.2</ele>
      </trkpt>
      <trkpt lat="43.49135" lon="-0.76984">
        <ele>101.5</ele>
      </trkpt>
      <trkpt lat="43.49145" lon="-0.7695">
        <ele>103.8</ele>
      </trkpt>
      <trkpt lat="43.49166" lon="-0.76901">
        <ele>103.4</ele>
      </trkpt>
      <trkpt lat="43.49182" lon="-0.76855">
        <ele>103</ele>
      </trkpt>
      <trkpt lat="43.49225" lon="-0.76747">
        <ele>104.8</ele>
      </trkpt>
      <trkpt lat="43.49271" lon="-0.76652">
        <ele>106.3</ele>
      </trkpt>
      <trkpt lat="43.49324" lon="-0.76547">
        <ele>112.6</ele>
      </trkpt>
      <trkpt lat="43.4935" lon="-0.76502">
        <ele>115.2</ele>
      </trkpt>
      <trkpt lat="43.49381" lon="-0.76469">
        <ele>117.3</ele>
      </trkpt>
      <trkpt lat="43.49404" lon="-0.76429">
        <ele>116.7</ele>
      </trkpt>
      <trkpt lat="43.49439" lon="-0.76371">
        <ele>113.3</ele>
      </trkpt>
      <trkpt lat="43.49467" lon="-0.76313">
        <ele>111</ele>
      </trkpt>
      <trkpt lat="43.49482" lon="-0.76288">
        <ele>110.5</ele>
      </trkpt>
      <trkpt lat="43.49537" lon="-0.76207">
        <ele>108.9</ele>
      </trkpt>
      <trkpt lat="43.49619" lon="-0.7609">
        <ele>105.8</ele>
      </trkpt>
      <trkpt lat="43.49658" lon="-0.76043">
        <ele>102.2</ele>
      </trkpt>
      <trkpt lat="43.49686" lon="-0.7601">
        <ele>100.4</ele>
      </trkpt>
      <trkpt lat="43.49698" lon="-0.75992">
        <ele>100.1</ele>
      </trkpt>
      <trkpt lat="43.49713" lon="-0.75962">
        <ele>101.2</ele>
      </trkpt>
      <trkpt lat="43.49737" lon="-0.75913">
        <ele>103.4</ele>
      </trkpt>
      <trkpt lat="43.4977" lon="-0.75858">
        <ele>104.4</ele>
      </trkpt>
      <trkpt lat="43.49799" lon="-0.75819">
        <ele>105.9</ele>
      </trkpt>
      <trkpt lat="43.49836" lon="-0.75769">
        <ele>107.6</ele>
      </trkpt>
      <trkpt lat="43.49884" lon="-0.75708">
        <ele>106.9</ele>
      </trkpt>
      <trkpt lat="43.49915" lon="-0.75672">
        <ele>107.1</ele>
      </trkpt>
      <trkpt lat="43.49957" lon="-0.7563">
        <ele>106.2</ele>
      </trkpt>
      <trkpt lat="43.50021" lon="-0.75576">
        <ele>101.5</ele>
      </trkpt>
      <trkpt lat="43.50068" lon="-0.75549">
        <ele>99.8</ele>
      </trkpt>
      <trkpt lat="43.5011" lon="-0.75532">
        <ele>99.3</ele>
      </trkpt>
      <trkpt lat="43.5013" lon="-0.75523">
        <ele>99.5</ele>
      </trkpt>
      <trkpt lat="43.50176" lon="-0.75488">
        <ele>99.2</ele>
      </trkpt>
      <trkpt lat="43.50215" lon="-0.75463">
        <ele>100.2</ele>
      </trkpt>
      <trkpt lat="43.50275" lon="-0.75429">
        <ele>103.4</ele>
      </trkpt>
      <trkpt lat="43.50287" lon="-0.75425">
        <ele>104.3</ele>
      </trkpt>
      <trkpt lat="43.50344" lon="-0.75398">
        <ele>109.8</ele>
      </trkpt>
      <trkpt lat="43.50451" lon="-0.75356">
        <ele>122.3</ele>
      </trkpt>
      <trkpt lat="43.50469" lon="-0.75348">
        <ele>125.5</ele>
      </trkpt>
      <trkpt lat="43.50484" lon="-0.75332">
        <ele>128.6</ele>
      </trkpt>
      <trkpt lat="43.50515" lon="-0.75325">
        <ele>133.4</ele>
      </trkpt>
      <trkpt lat="43.50547" lon="-0.75325">
        <ele>137.7</ele>
      </trkpt>
      <trkpt lat="43.5056" lon="-0.75328">
        <ele>139.3</ele>
      </trkpt>
      <trkpt lat="43.50574" lon="-0.75333">
        <ele>140.3</ele>
      </trkpt>
      <trkpt lat="43.50581" lon="-0.75342">
        <ele>140.8</ele>
      </trkpt>
      <trkpt lat="43.50588" lon="-0.75349">
        <ele>141.5</ele>
      </trkpt>
      <trkpt lat="43.5061" lon="-0.75357">
        <ele>142.5</ele>
      </trkpt>
      <trkpt lat="43.50643" lon="-0.75364">
        <ele>146.3</ele>
      </trkpt>
      <trkpt lat="43.50651" lon="-0.7537">
        <ele>146.9</ele>
      </trkpt>
      <trkpt lat="43.5069" lon="-0.75417">
        <ele>149.2</ele>
      </trkpt>
      <trkpt lat="43.50705" lon="-0.75433">
        <ele>149</ele>
      </trkpt>
      <trkpt lat="43.50741" lon="-0.75455">
        <ele>148.3</ele>
      </trkpt>
      <trkpt lat="43.50769" lon="-0.75468">
        <ele>148.2</ele>
      </trkpt>
      <trkpt lat="43.50787" lon="-0.75471">
        <ele>148.4</ele>
      </trkpt>
      <trkpt lat="43.5079" lon="-0.7547">
        <ele>148.5</ele>
      </trkpt>
      <trkpt lat="43.50856" lon="-0.7544">
        <ele>148.3</ele>
      </trkpt>
      <trkpt lat="43.50868" lon="-0.75427">
        <ele>147.6</ele>
      </trkpt>
      <trkpt lat="43.50876" lon="-0.75415">
        <ele>146.9</ele>
      </trkpt>
      <trkpt lat="43.50892" lon="-0.7537">
        <ele>146.7</ele>
      </trkpt>
      <trkpt lat="43.50909" lon="-0.75321">
        <ele>146.1</ele>
      </trkpt>
      <trkpt lat="43.50951" lon="-0.75238">
        <ele>146.9</ele>
      </trkpt>
      <trkpt lat="43.50971" lon="-0.75206">
        <ele>148.3</ele>
      </trkpt>
      <trkpt lat="43.50997" lon="-0.7518">
        <ele>151.6</ele>
      </trkpt>
      <trkpt lat="43.51017" lon="-0.75157">
        <ele>154.4</ele>
      </trkpt>
      <trkpt lat="43.51051" lon="-0.75113">
        <ele>159.7</ele>
      </trkpt>
      <trkpt lat="43.51077" lon="-0.75065">
        <ele>168.4</ele>
      </trkpt>
      <trkpt lat="43.511" lon="-0.75027">
        <ele>172.2</ele>
      </trkpt>
      <trkpt lat="43.51133" lon="-0.74984">
        <ele>171.5</ele>
      </trkpt>
      <trkpt lat="43.5115" lon="-0.74955">
        <ele>169</ele>
      </trkpt>
      <trkpt lat="43.51171" lon="-0.74892">
        <ele>164.9</ele>
      </trkpt>
      <trkpt lat="43.51192" lon="-0.7482">
        <ele>163.3</ele>
      </trkpt>
      <trkpt lat="43.51205" lon="-0.74799">
        <ele>162.4</ele>
      </trkpt>
      <trkpt lat="43.51221" lon="-0.74775">
        <ele>162.5</ele>
      </trkpt>
      <trkpt lat="43.51254" lon="-0.74727">
        <ele>160.3</ele>
      </trkpt>
      <trkpt lat="43.51287" lon="-0.74687">
        <ele>157.1</ele>
      </trkpt>
      <trkpt lat="43.51308" lon="-0.74653">
        <ele>155.8</ele>
      </trkpt>
      <trkpt lat="43.51344" lon="-0.74582">
        <ele>156.8</ele>
      </trkpt>
      <trkpt lat="43.51367" lon="-0.74549">
        <ele>157.8</ele>
      </trkpt>
      <trkpt lat="43.51426" lon="-0.74497">
        <ele>162.2</ele>
      </trkpt>
      <trkpt lat="43.51448" lon="-0.74484">
        <ele>165.2</ele>
      </trkpt>
      <trkpt lat="43.51461" lon="-0.74483">
        <ele>167.8</ele>
      </trkpt>
      <trkpt lat="43.51478" lon="-0.74486">
        <ele>171.1</ele>
      </trkpt>
      <trkpt lat="43.51506" lon="-0.74489">
        <ele>175.2</ele>
      </trkpt>
      <trkpt lat="43.51516" lon="-0.74484">
        <ele>175.6</ele>
      </trkpt>
      <trkpt lat="43.51555" lon="-0.74442">
        <ele>173.9</ele>
      </trkpt>
      <trkpt lat="43.51567" lon="-0.74428">
        <ele>171.8</ele>
      </trkpt>
      <trkpt lat="43.51573" lon="-0.74408">
        <ele>170.5</ele>
      </trkpt>
      <trkpt lat="43.5159" lon="-0.74365">
        <ele>166.9</ele>
      </trkpt>
      <trkpt lat="43.51599" lon="-0.74349">
        <ele>166.4</ele>
      </trkpt>
      <trkpt lat="43.51622" lon="-0.74319">
        <ele>165</ele>
      </trkpt>
      <trkpt lat="43.5163" lon="-0.74304">
        <ele>164.2</ele>
      </trkpt>
      <trkpt lat="43.5164" lon="-0.74284">
        <ele>162.4</ele>
      </trkpt>
      <trkpt lat="43.51687" lon="-0.74227">
        <ele>158</ele>
      </trkpt>
      <trkpt lat="43.51723" lon="-0.74176">
        <ele>155.1</ele>
      </trkpt>
      <trkpt lat="43.51743" lon="-0.7415">
        <ele>153.5</ele>
      </trkpt>
      <trkpt lat="43.51764" lon="-0.74139">
        <ele>154.5</ele>
      </trkpt>
      <trkpt lat="43.51775" lon="-0.74129">
        <ele>154.5</ele>
      </trkpt>
      <trkpt lat="43.51782" lon="-0.74114">
        <ele>153.4</ele>
      </trkpt>
      <trkpt lat="43.51786" lon="-0.74097">
        <ele>152.9</ele>
      </trkpt>
      <trkpt lat="43.51786" lon="-0.74072">
        <ele>152.5</ele>
      </trkpt>
      <trkpt lat="43.51782" lon="-0.7404">
        <ele>152.6</ele>
      </trkpt>
      <trkpt lat="43.51782" lon="-0.73987">
        <ele>153.8</ele>
      </trkpt>
      <trkpt lat="43.51789" lon="-0.73912">
        <ele>153.2</ele>
      </trkpt>
      <trkpt lat="43.51799" lon="-0.73859">
        <ele>151.9</ele>
      </trkpt>
      <trkpt lat="43.51806" lon="-0.73819">
        <ele>150.6</ele>
      </trkpt>
      <trkpt lat="43.5181" lon="-0.73786">
        <ele>150.6</ele>
      </trkpt>
      <trkpt lat="43.51809" lon="-0.73737">
        <ele>150.6</ele>
      </trkpt>
      <trkpt lat="43.51806" lon="-0.73626">
        <ele>153.4</ele>
      </trkpt>
      <trkpt lat="43.5181" lon="-0.73573">
        <ele>156</ele>
      </trkpt>
      <trkpt lat="43.51817" lon="-0.73545">
        <ele>157.4</ele>
      </trkpt>
      <trkpt lat="43.51828" lon="-0.73505">
        <ele>159.2</ele>
      </trkpt>
      <trkpt lat="43.5183" lon="-0.73464">
        <ele>162.3</ele>
      </trkpt>
      <trkpt lat="43.51831" lon="-0.73426">
        <ele>165.2</ele>
      </trkpt>
      <trkpt lat="43.5184" lon="-0.73397">
        <ele>166.2</ele>
      </trkpt>
      <trkpt lat="43.51852" lon="-0.73368">
        <ele>166.4</ele>
      </trkpt>
      <trkpt lat="43.51877" lon="-0.73321">
        <ele>164.6</ele>
      </trkpt>
      <trkpt lat="43.51899" lon="-0.73282">
        <ele>161.9</ele>
      </trkpt>
      <trkpt lat="43.51912" lon="-0.7325">
        <ele>162.1</ele>
      </trkpt>
      <trkpt lat="43.51926" lon="-0.73206">
        <ele>164</ele>
      </trkpt>
      <trkpt lat="43.51932" lon="-0.73176">
        <ele>164.6</ele>
      </trkpt>
      <trkpt lat="43.51949" lon="-0.73115">
        <ele>164</ele>
      </trkpt>
      <trkpt lat="43.51974" lon="-0.73036">
        <ele>163.3</ele>
      </trkpt>
      <trkpt lat="43.51996" lon="-0.72963">
        <ele>163.6</ele>
      </trkpt>
      <trkpt lat="43.52026" lon="-0.72872">
        <ele>164.6</ele>
      </trkpt>
      <trkpt lat="43.52058" lon="-0.72813">
        <ele>163.3</ele>
      </trkpt>
      <trkpt lat="43.52078" lon="-0.72784">
        <ele>162.3</ele>
      </trkpt>
      <trkpt lat="43.52102" lon="-0.72757">
        <ele>161.5</ele>
      </trkpt>
      <trkpt lat="43.52134" lon="-0.72737">
        <ele>161.2</ele>
      </trkpt>
      <trkpt lat="43.52171" lon="-0.72724">
        <ele>160.6</ele>
      </trkpt>
      <trkpt lat="43.52234" lon="-0.72715">
        <ele>160.3</ele>
      </trkpt>
      <trkpt lat="43.52275" lon="-0.7272">
        <ele>160.9</ele>
      </trkpt>
      <trkpt lat="43.52335" lon="-0.72735">
        <ele>162.2</ele>
      </trkpt>
      <trkpt lat="43.52347" lon="-0.7272">
        <ele>162.3</ele>
      </trkpt>
      <trkpt lat="43.52363" lon="-0.727">
        <ele>161.8</ele>
      </trkpt>
      <trkpt lat="43.52381" lon="-0.7266">
        <ele>163.9</ele>
      </trkpt>
      <trkpt lat="43.52415" lon="-0.72591">
        <ele>166.7</ele>
      </trkpt>
      <trkpt lat="43.52434" lon="-0.72536">
        <ele>165.4</ele>
      </trkpt>
      <trkpt lat="43.52455" lon="-0.72473">
        <ele>163.8</ele>
      </trkpt>
      <trkpt lat="43.52477" lon="-0.72426">
        <ele>161.7</ele>
      </trkpt>
      <trkpt lat="43.52506" lon="-0.72354">
        <ele>158.5</ele>
      </trkpt>
      <trkpt lat="43.52521" lon="-0.72309">
        <ele>158.3</ele>
      </trkpt>
      <trkpt lat="43.52527" lon="-0.72276">
        <ele>158</ele>
      </trkpt>
      <trkpt lat="43.52528" lon="-0.72248">
        <ele>158</ele>
      </trkpt>
      <trkpt lat="43.52526" lon="-0.7223">
        <ele>158.1</ele>
      </trkpt>
      <trkpt lat="43.52523" lon="-0.72209">
        <ele>158.2</ele>
      </trkpt>
      <trkpt lat="43.52513" lon="-0.72187">
        <ele>158.3</ele>
      </trkpt>
      <trkpt lat="43.52501" lon="-0.72162">
        <ele>158.7</ele>
      </trkpt>
      <trkpt lat="43.52486" lon="-0.7214">
        <ele>158</ele>
      </trkpt>
      <trkpt lat="43.52475" lon="-0.72112">
        <ele>157</ele>
      </trkpt>
      <trkpt lat="43.52467" lon="-0.72078">
        <ele>155.8</ele>
      </trkpt>
      <trkpt lat="43.52454" lon="-0.71967">
        <ele>151.7</ele>
      </trkpt>
      <trkpt lat="43.52443" lon="-0.71848">
        <ele>152</ele>
      </trkpt>
      <trkpt lat="43.52444" lon="-0.71832">
        <ele>152.1</ele>
      </trkpt>
      <trkpt lat="43.52449" lon="-0.71791">
        <ele>153.4</ele>
      </trkpt>
      <trkpt lat="43.52465" lon="-0.71727">
        <ele>153</ele>
      </trkpt>
      <trkpt lat="43.52478" lon="-0.7172">
        <ele>152.6</ele>
      </trkpt>
      <trkpt lat="43.52502" lon="-0.71731">
        <ele>151.1</ele>
      </trkpt>
      <trkpt lat="43.52546" lon="-0.71763">
        <ele>148.5</ele>
      </trkpt>
      <trkpt lat="43.5257" lon="-0.71789">
        <ele>146.6</ele>
      </trkpt>
      <trkpt lat="43.52593" lon="-0.71816">
        <ele>143.6</ele>
      </trkpt>
      <trkpt lat="43.52606" lon="-0.71836">
        <ele>141.4</ele>
      </trkpt>
      <trkpt lat="43.52619" lon="-0.71856">
        <ele>138</ele>
      </trkpt>
      <trkpt lat="43.52629" lon="-0.71856">
        <ele>137.1</ele>
      </trkpt>
      <trkpt lat="43.5271" lon="-0.71788">
        <ele>126.6</ele>
      </trkpt>
      <trkpt lat="43.52725" lon="-0.71773">
        <ele>122.3</ele>
      </trkpt>
      <trkpt lat="43.52739" lon="-0.71758">
        <ele>119.5</ele>
      </trkpt>
      <trkpt lat="43.52763" lon="-0.71735">
        <ele>116.3</ele>
      </trkpt>
      <trkpt lat="43.52787" lon="-0.71711">
        <ele>113.2</ele>
      </trkpt>
      <trkpt lat="43.5281" lon="-0.71688">
        <ele>110.5</ele>
      </trkpt>
      <trkpt lat="43.52834" lon="-0.71665">
        <ele>107.1</ele>
      </trkpt>
      <trkpt lat="43.52897" lon="-0.71585">
        <ele>103.8</ele>
      </trkpt>
      <trkpt lat="43.52918" lon="-0.71559">
        <ele>103</ele>
      </trkpt>
      <trkpt lat="43.52938" lon="-0.71536">
        <ele>102.1</ele>
      </trkpt>
      <trkpt lat="43.53021" lon="-0.71446">
        <ele>99.3</ele>
      </trkpt>
      <trkpt lat="43.53038" lon="-0.71415">
        <ele>98.6</ele>
      </trkpt>
      <trkpt lat="43.5305" lon="-0.71385">
        <ele>98.4</ele>
      </trkpt>
      <trkpt lat="43.53056" lon="-0.71355">
        <ele>99</ele>
      </trkpt>
      <trkpt lat="43.53058" lon="-0.71334">
        <ele>99</ele>
      </trkpt>
      <trkpt lat="43.53076" lon="-0.71312">
        <ele>98.4</ele>
      </trkpt>
      <trkpt lat="43.53094" lon="-0.7129">
        <ele>98</ele>
      </trkpt>
      <trkpt lat="43.53114" lon="-0.71263">
        <ele>97.5</ele>
      </trkpt>
      <trkpt lat="43.53195" lon="-0.71153">
        <ele>96.5</ele>
      </trkpt>
      <trkpt lat="43.53216" lon="-0.71125">
        <ele>95.6</ele>
      </trkpt>
      <trkpt lat="43.53277" lon="-0.71039">
        <ele>93.4</ele>
      </trkpt>
      <trkpt lat="43.53297" lon="-0.7101">
        <ele>93.2</ele>
      </trkpt>
      <trkpt lat="43.53308" lon="-0.70984">
        <ele>93.6</ele>
      </trkpt>
      <trkpt lat="43.53319" lon="-0.70957">
        <ele>94</ele>
      </trkpt>
      <trkpt lat="43.53353" lon="-0.70878">
        <ele>94</ele>
      </trkpt>
      <trkpt lat="43.53364" lon="-0.70854">
        <ele>94</ele>
      </trkpt>
      <trkpt lat="43.53385" lon="-0.70821">
        <ele>93.2</ele>
      </trkpt>
      <trkpt lat="43.53399" lon="-0.708">
        <ele>92.4</ele>
      </trkpt>
      <trkpt lat="43.53413" lon="-0.70778">
        <ele>92.1</ele>
      </trkpt>
      <trkpt lat="43.53424" lon="-0.70756">
        <ele>91.4</ele>
      </trkpt>
      <trkpt lat="43.5343" lon="-0.70733">
        <ele>91.2</ele>
      </trkpt>
      <trkpt lat="43.53444" lon="-0.70691">
        <ele>90</ele>
      </trkpt>
      <trkpt lat="43.53466" lon="-0.70635">
        <ele>89.2</ele>
      </trkpt>
      <trkpt lat="43.53493" lon="-0.70564">
        <ele>89.7</ele>
      </trkpt>
      <trkpt lat="43.53506" lon="-0.70531">
        <ele>90.2</ele>
      </trkpt>
      <trkpt lat="43.53557" lon="-0.70396">
        <ele>91</ele>
      </trkpt>
      <trkpt lat="43.53563" lon="-0.70397">
        <ele>91</ele>
      </trkpt>
      <trkpt lat="43.53569" lon="-0.70392">
        <ele>91</ele>
      </trkpt>
      <trkpt lat="43.53583" lon="-0.70365">
        <ele>91</ele>
      </trkpt>
      <trkpt lat="43.53597" lon="-0.70331">
        <ele>92</ele>
      </trkpt>
      <trkpt lat="43.53611" lon="-0.70297">
        <ele>92</ele>
      </trkpt>
      <trkpt lat="43.53623" lon="-0.70263">
        <ele>92</ele>
      </trkpt>
      <trkpt lat="43.53636" lon="-0.70228">
        <ele>91.3</ele>
      </trkpt>
      <trkpt lat="43.5366" lon="-0.70159">
        <ele>92.3</ele>
      </trkpt>
      <trkpt lat="43.53685" lon="-0.70082">
        <ele>93</ele>
      </trkpt>
      <trkpt lat="43.53698" lon="-0.70043">
        <ele>93</ele>
      </trkpt>
      <trkpt lat="43.53736" lon="-0.69926">
        <ele>93.7</ele>
      </trkpt>
      <trkpt lat="43.53759" lon="-0.69849">
        <ele>95</ele>
      </trkpt>
      <trkpt lat="43.53759" lon="-0.6983">
        <ele>95</ele>
      </trkpt>
      <trkpt lat="43.53765" lon="-0.69799">
        <ele>94.9</ele>
      </trkpt>
      <trkpt lat="43.53775" lon="-0.69781">
        <ele>94.2</ele>
      </trkpt>
      <trkpt lat="43.53788" lon="-0.69757">
        <ele>94</ele>
      </trkpt>
      <trkpt lat="43.53815" lon="-0.69708">
        <ele>93.7</ele>
      </trkpt>
      <trkpt lat="43.53832" lon="-0.69678">
        <ele>93</ele>
      </trkpt>
      <trkpt lat="43.53865" lon="-0.69617">
        <ele>92.2</ele>
      </trkpt>
      <trkpt lat="43.539" lon="-0.69556">
        <ele>92</ele>
      </trkpt>
      <trkpt lat="43.53917" lon="-0.69526">
        <ele>91.1</ele>
      </trkpt>
      <trkpt lat="43.53919" lon="-0.69514">
        <ele>91.5</ele>
      </trkpt>
      <trkpt lat="43.53953" lon="-0.69461">
        <ele>91.5</ele>
      </trkpt>
      <trkpt lat="43.5397" lon="-0.69434">
        <ele>91.1</ele>
      </trkpt>
      <trkpt lat="43.53986" lon="-0.69416">
        <ele>91</ele>
      </trkpt>
      <trkpt lat="43.54002" lon="-0.69398">
        <ele>90.4</ele>
      </trkpt>
      <trkpt lat="43.54038" lon="-0.69354">
        <ele>90.3</ele>
      </trkpt>
      <trkpt lat="43.54073" lon="-0.69311">
        <ele>89.2</ele>
      </trkpt>
      <trkpt lat="43.54112" lon="-0.69256">
        <ele>84.7</ele>
      </trkpt>
      <trkpt lat="43.54125" lon="-0.69237">
        <ele>84</ele>
      </trkpt>
      <trkpt lat="43.54139" lon="-0.69217">
        <ele>82.8</ele>
      </trkpt>
      <trkpt lat="43.54162" lon="-0.69199">
        <ele>81.5</ele>
      </trkpt>
      <trkpt lat="43.54181" lon="-0.6919">
        <ele>80.2</ele>
      </trkpt>
      <trkpt lat="43.54188" lon="-0.69182">
        <ele>79.3</ele>
      </trkpt>
      <trkpt lat="43.542" lon="-0.69155">
        <ele>77.4</ele>
      </trkpt>
      <trkpt lat="43.5422" lon="-0.69117">
        <ele>74.5</ele>
      </trkpt>
      <trkpt lat="43.54234" lon="-0.69093">
        <ele>73.3</ele>
      </trkpt>
      <trkpt lat="43.54248" lon="-0.69069">
        <ele>72</ele>
      </trkpt>
      <trkpt lat="43.54264" lon="-0.69043">
        <ele>70.8</ele>
      </trkpt>
      <trkpt lat="43.54264" lon="-0.69003">
        <ele>69.1</ele>
      </trkpt>
      <trkpt lat="43.54262" lon="-0.68972">
        <ele>68</ele>
      </trkpt>
      <trkpt lat="43.5426" lon="-0.6894">
        <ele>69</ele>
      </trkpt>
      <trkpt lat="43.54257" lon="-0.68909">
        <ele>69.3</ele>
      </trkpt>
      <trkpt lat="43.54256" lon="-0.6889">
        <ele>69.6</ele>
      </trkpt>
      <trkpt lat="43.54259" lon="-0.68865">
        <ele>70.5</ele>
      </trkpt>
      <trkpt lat="43.54266" lon="-0.68788">
        <ele>70.8</ele>
      </trkpt>
      <trkpt lat="43.54271" lon="-0.68758">
        <ele>70.5</ele>
      </trkpt>
      <trkpt lat="43.54276" lon="-0.68746">
        <ele>70.2</ele>
      </trkpt>
      <trkpt lat="43.54295" lon="-0.68726">
        <ele>70.3</ele>
      </trkpt>
      <trkpt lat="43.54315" lon="-0.68699">
        <ele>69.4</ele>
      </trkpt>
      <trkpt lat="43.54335" lon="-0.68664">
        <ele>66.9</ele>
      </trkpt>
      <trkpt lat="43.54349" lon="-0.68637">
        <ele>65.7</ele>
      </trkpt>
      <trkpt lat="43.54362" lon="-0.68599">
        <ele>62</ele>
      </trkpt>
      <trkpt lat="43.54374" lon="-0.68564">
        <ele>61.5</ele>
      </trkpt>
      <trkpt lat="43.54388" lon="-0.68526">
        <ele>62.1</ele>
      </trkpt>
      <trkpt lat="43.544" lon="-0.68512">
        <ele>63.1</ele>
      </trkpt>
      <trkpt lat="43.54412" lon="-0.68497">
        <ele>63.3</ele>
      </trkpt>
      <trkpt lat="43.54428" lon="-0.68474">
        <ele>63.6</ele>
      </trkpt>
      <trkpt lat="43.54432" lon="-0.68465">
        <ele>63.4</ele>
      </trkpt>
      <trkpt lat="43.54432" lon="-0.68459">
        <ele>63.4</ele>
      </trkpt>
      <trkpt lat="43.54432" lon="-0.68436">
        <ele>63.6</ele>
      </trkpt>
      <trkpt lat="43.54431" lon="-0.68402">
        <ele>64</ele>
      </trkpt>
      <trkpt lat="43.54429" lon="-0.68335">
        <ele>64</ele>
      </trkpt>
      <trkpt lat="43.54426" lon="-0.68305">
        <ele>64</ele>
      </trkpt>
      <trkpt lat="43.54423" lon="-0.68275">
        <ele>64</ele>
      </trkpt>
      <trkpt lat="43.5442" lon="-0.68271">
        <ele>64</ele>
      </trkpt>
      <trkpt lat="43.5441" lon="-0.68263">
        <ele>64.2</ele>
      </trkpt>
      <trkpt lat="43.54387" lon="-0.68256">
        <ele>65</ele>
      </trkpt>
      <trkpt lat="43.54363" lon="-0.68249">
        <ele>65</ele>
      </trkpt>
      <trkpt lat="43.54335" lon="-0.68238">
        <ele>65.5</ele>
      </trkpt>
      <trkpt lat="43.54306" lon="-0.68227">
        <ele>65.8</ele>
      </trkpt>
      <trkpt lat="43.54278" lon="-0.68215">
        <ele>66</ele>
      </trkpt>
      <trkpt lat="43.54259" lon="-0.68215">
        <ele>66</ele>
      </trkpt>
      <trkpt lat="43.54241" lon="-0.68214">
        <ele>66.1</ele>
      </trkpt>
      <trkpt lat="43.54219" lon="-0.6822">
        <ele>66.2</ele>
      </trkpt>
      <trkpt lat="43.54216" lon="-0.68192">
        <ele>66.8</ele>
      </trkpt>
      <trkpt lat="43.54224" lon="-0.68184">
        <ele>66.9</ele>
      </trkpt>
      <trkpt lat="43.54228" lon="-0.68171">
        <ele>66.8</ele>
      </trkpt>
      <trkpt lat="43.54226" lon="-0.68158">
        <ele>66.6</ele>
      </trkpt>
      <trkpt lat="43.54223" lon="-0.68143">
        <ele>66.1</ele>
      </trkpt>
      <trkpt lat="43.54235" lon="-0.68107">
        <ele>65.9</ele>
      </trkpt>
      <trkpt lat="43.54249" lon="-0.6807">
        <ele>65.5</ele>
      </trkpt>
      <trkpt lat="43.54263" lon="-0.68048">
        <ele>65</ele>
      </trkpt>
      <trkpt lat="43.54277" lon="-0.68026">
        <ele>65</ele>
      </trkpt>
      <trkpt lat="43.54456" lon="-0.67764">
        <ele>63.8</ele>
      </trkpt>
      <trkpt lat="43.54476" lon="-0.67735">
        <ele>63</ele>
      </trkpt>
      <trkpt lat="43.54491" lon="-0.6771">
        <ele>63</ele>
      </trkpt>
      <trkpt lat="43.54506" lon="-0.67686">
        <ele>63.3</ele>
      </trkpt>
      <trkpt lat="43.54519" lon="-0.67654">
        <ele>63.6</ele>
      </trkpt>
      <trkpt lat="43.54527" lon="-0.67654">
        <ele>63.5</ele>
      </trkpt>
      <trkpt lat="43.54532" lon="-0.67651">
        <ele>63.5</ele>
      </trkpt>
      <trkpt lat="43.54536" lon="-0.67644">
        <ele>63.6</ele>
      </trkpt>
      <trkpt lat="43.54536" lon="-0.67633">
        <ele>63.7</ele>
      </trkpt>
      <trkpt lat="43.54536" lon="-0.67624">
        <ele>63.7</ele>
      </trkpt>
      <trkpt lat="43.54542" lon="-0.67619">
        <ele>63.5</ele>
      </trkpt>
      <trkpt lat="43.54563" lon="-0.67603">
        <ele>62.5</ele>
      </trkpt>
      <trkpt lat="43.54586" lon="-0.67574">
        <ele>62</ele>
      </trkpt>
      <trkpt lat="43.54609" lon="-0.67557">
        <ele>62</ele>
      </trkpt>
      <trkpt lat="43.54632" lon="-0.67539">
        <ele>62</ele>
      </trkpt>
      <trkpt lat="43.54655" lon="-0.67521">
        <ele>62.1</ele>
      </trkpt>
      <trkpt lat="43.54781" lon="-0.67409">
        <ele>57.1</ele>
      </trkpt>
      <trkpt lat="43.54806" lon="-0.67386">
        <ele>59.5</ele>
      </trkpt>
      <trkpt lat="43.54853" lon="-0.67352">
        <ele>65.3</ele>
      </trkpt>
      <trkpt lat="43.54875" lon="-0.67343">
        <ele>66.1</ele>
      </trkpt>
      <trkpt lat="43.54891" lon="-0.67344">
        <ele>66.7</ele>
      </trkpt>
      <trkpt lat="43.54918" lon="-0.6735">
        <ele>67.3</ele>
      </trkpt>
      <trkpt lat="43.54948" lon="-0.67351">
        <ele>67.6</ele>
      </trkpt>
      <trkpt lat="43.54964" lon="-0.67344">
        <ele>67.2</ele>
      </trkpt>
      <trkpt lat="43.54988" lon="-0.67324">
        <ele>67.6</ele>
      </trkpt>
      <trkpt lat="43.55014" lon="-0.67305">
        <ele>67.5</ele>
      </trkpt>
      <trkpt lat="43.55027" lon="-0.67303">
        <ele>67.1</ele>
      </trkpt>
      <trkpt lat="43.55055" lon="-0.67302">
        <ele>66.9</ele>
      </trkpt>
      <trkpt lat="43.55069" lon="-0.67297">
        <ele>67.7</ele>
      </trkpt>
      <trkpt lat="43.55082" lon="-0.67288">
        <ele>68.3</ele>
      </trkpt>
      <trkpt lat="43.55089" lon="-0.67278">
        <ele>68.4</ele>
      </trkpt>
      <trkpt lat="43.55101" lon="-0.67249">
        <ele>69.6</ele>
      </trkpt>
      <trkpt lat="43.5511" lon="-0.67225">
        <ele>70</ele>
      </trkpt>
      <trkpt lat="43.55119" lon="-0.672">
        <ele>71.1</ele>
      </trkpt>
      <trkpt lat="43.55128" lon="-0.67182">
        <ele>71.6</ele>
      </trkpt>
      <trkpt lat="43.55138" lon="-0.67164">
        <ele>71.8</ele>
      </trkpt>
      <trkpt lat="43.55175" lon="-0.67109">
        <ele>71.3</ele>
      </trkpt>
      <trkpt lat="43.55213" lon="-0.67053">
        <ele>73.3</ele>
      </trkpt>
      <trkpt lat="43.55242" lon="-0.67016">
        <ele>72.7</ele>
      </trkpt>
      <trkpt lat="43.55258" lon="-0.67011">
        <ele>72.4</ele>
      </trkpt>
      <trkpt lat="43.55285" lon="-0.67004">
        <ele>73.8</ele>
      </trkpt>
      <trkpt lat="43.55308" lon="-0.6699">
        <ele>74.1</ele>
      </trkpt>
      <trkpt lat="43.5533" lon="-0.66967">
        <ele>75.6</ele>
      </trkpt>
      <trkpt lat="43.55344" lon="-0.66934">
        <ele>75</ele>
      </trkpt>
      <trkpt lat="43.55366" lon="-0.6689">
        <ele>73</ele>
      </trkpt>
      <trkpt lat="43.55384" lon="-0.66856">
        <ele>73.9</ele>
      </trkpt>
      <trkpt lat="43.55394" lon="-0.66824">
        <ele>74.5</ele>
      </trkpt>
      <trkpt lat="43.55401" lon="-0.66799">
        <ele>76.1</ele>
      </trkpt>
      <trkpt lat="43.55408" lon="-0.66774">
        <ele>75.9</ele>
      </trkpt>
      <trkpt lat="43.55415" lon="-0.66733">
        <ele>75.9</ele>
      </trkpt>
      <trkpt lat="43.5542" lon="-0.66707">
        <ele>75.8</ele>
      </trkpt>
      <trkpt lat="43.55424" lon="-0.66681">
        <ele>75.6</ele>
      </trkpt>
      <trkpt lat="43.55439" lon="-0.66619">
        <ele>76.7</ele>
      </trkpt>
      <trkpt lat="43.55457" lon="-0.66558">
        <ele>77.8</ele>
      </trkpt>
      <trkpt lat="43.55465" lon="-0.66527">
        <ele>78.7</ele>
      </trkpt>
      <trkpt lat="43.55486" lon="-0.6646">
        <ele>75.6</ele>
      </trkpt>
      <trkpt lat="43.55499" lon="-0.6643">
        <ele>75.4</ele>
      </trkpt>
      <trkpt lat="43.55509" lon="-0.66417">
        <ele>75.3</ele>
      </trkpt>
      <trkpt lat="43.55526" lon="-0.66407">
        <ele>75.6</ele>
      </trkpt>
      <trkpt lat="43.55564" lon="-0.66379">
        <ele>77.7</ele>
      </trkpt>
      <trkpt lat="43.5557" lon="-0.6637">
        <ele>78.4</ele>
      </trkpt>
      <trkpt lat="43.55575" lon="-0.66358">
        <ele>79</ele>
      </trkpt>
      <trkpt lat="43.55582" lon="-0.66336">
        <ele>78.9</ele>
      </trkpt>
      <trkpt lat="43.55589" lon="-0.66313">
        <ele>80.4</ele>
      </trkpt>
      <trkpt lat="43.55603" lon="-0.66278">
        <ele>81.1</ele>
      </trkpt>
      <trkpt lat="43.55617" lon="-0.6625">
        <ele>82.4</ele>
      </trkpt>
      <trkpt lat="43.55642" lon="-0.66198">
        <ele>82.4</ele>
      </trkpt>
      <trkpt lat="43.55652" lon="-0.66175">
        <ele>83.8</ele>
      </trkpt>
      <trkpt lat="43.55663" lon="-0.66152">
        <ele>83.8</ele>
      </trkpt>
      <trkpt lat="43.55681" lon="-0.66122">
        <ele>85.1</ele>
      </trkpt>
      <trkpt lat="43.55699" lon="-0.66089">
        <ele>85.8</ele>
      </trkpt>
      <trkpt lat="43.55715" lon="-0.6607">
        <ele>87.3</ele>
      </trkpt>
      <trkpt lat="43.55747" lon="-0.66031">
        <ele>89.9</ele>
      </trkpt>
      <trkpt lat="43.55765" lon="-0.66001">
        <ele>90.6</ele>
      </trkpt>
      <trkpt lat="43.55768" lon="-0.65965">
        <ele>88.7</ele>
      </trkpt>
      <trkpt lat="43.55766" lon="-0.65934">
        <ele>87.6</ele>
      </trkpt>
      <trkpt lat="43.55766" lon="-0.65895">
        <ele>85.4</ele>
      </trkpt>
      <trkpt lat="43.55773" lon="-0.65859">
        <ele>83.1</ele>
      </trkpt>
      <trkpt lat="43.55788" lon="-0.65829">
        <ele>85.5</ele>
      </trkpt>
      <trkpt lat="43.55805" lon="-0.6582">
        <ele>86.9</ele>
      </trkpt>
      <trkpt lat="43.55821" lon="-0.65812">
        <ele>88.8</ele>
      </trkpt>
      <trkpt lat="43.55842" lon="-0.65799">
        <ele>91.4</ele>
      </trkpt>
      <trkpt lat="43.55856" lon="-0.65765">
        <ele>95.9</ele>
      </trkpt>
      <trkpt lat="43.55863" lon="-0.6575">
        <ele>97.1</ele>
      </trkpt>
      <trkpt lat="43.55878" lon="-0.65738">
        <ele>99.3</ele>
      </trkpt>
      <trkpt lat="43.55896" lon="-0.65739">
        <ele>101.9</ele>
      </trkpt>
      <trkpt lat="43.5591" lon="-0.65734">
        <ele>104.2</ele>
      </trkpt>
      <trkpt lat="43.55924" lon="-0.6573">
        <ele>106.9</ele>
      </trkpt>
      <trkpt lat="43.55944" lon="-0.65718">
        <ele>112</ele>
      </trkpt>
      <trkpt lat="43.56004" lon="-0.65663">
        <ele>119.7</ele>
      </trkpt>
      <trkpt lat="43.56042" lon="-0.65614">
        <ele>122.7</ele>
      </trkpt>
      <trkpt lat="43.56053" lon="-0.65595">
        <ele>124.1</ele>
      </trkpt>
      <trkpt lat="43.56065" lon="-0.65576">
        <ele>124.5</ele>
      </trkpt>
      <trkpt lat="43.56085" lon="-0.65555">
        <ele>125.9</ele>
      </trkpt>
      <trkpt lat="43.56112" lon="-0.65522">
        <ele>127</ele>
      </trkpt>
      <trkpt lat="43.56125" lon="-0.65506">
        <ele>126.3</ele>
      </trkpt>
      <trkpt lat="43.56139" lon="-0.65481">
        <ele>126.7</ele>
      </trkpt>
      <trkpt lat="43.56153" lon="-0.65456">
        <ele>126.3</ele>
      </trkpt>
      <trkpt lat="43.56177" lon="-0.65413">
        <ele>126.7</ele>
      </trkpt>
      <trkpt lat="43.56188" lon="-0.65392">
        <ele>127.6</ele>
      </trkpt>
      <trkpt lat="43.56199" lon="-0.65371">
        <ele>127.4</ele>
      </trkpt>
      <trkpt lat="43.5621" lon="-0.6535">
        <ele>127.4</ele>
      </trkpt>
      <trkpt lat="43.56221" lon="-0.65328">
        <ele>127.9</ele>
      </trkpt>
      <trkpt lat="43.56231" lon="-0.65311">
        <ele>128.7</ele>
      </trkpt>
      <trkpt lat="43.56242" lon="-0.65295">
        <ele>129.4</ele>
      </trkpt>
      <trkpt lat="43.56255" lon="-0.65277">
        <ele>130</ele>
      </trkpt>
      <trkpt lat="43.56269" lon="-0.65259">
        <ele>129.8</ele>
      </trkpt>
      <trkpt lat="43.56306" lon="-0.65209">
        <ele>129</ele>
      </trkpt>
      <trkpt lat="43.56324" lon="-0.65183">
        <ele>127.6</ele>
      </trkpt>
      <trkpt lat="43.56338" lon="-0.65161">
        <ele>127.5</ele>
      </trkpt>
      <trkpt lat="43.56352" lon="-0.65138">
        <ele>128.4</ele>
      </trkpt>
      <trkpt lat="43.56366" lon="-0.65116">
        <ele>128.2</ele>
      </trkpt>
      <trkpt lat="43.56401" lon="-0.65071">
        <ele>126.8</ele>
      </trkpt>
      <trkpt lat="43.56418" lon="-0.65048">
        <ele>126</ele>
      </trkpt>
      <trkpt lat="43.5647" lon="-0.64977">
        <ele>130</ele>
      </trkpt>
      <trkpt lat="43.56484" lon="-0.64958">
        <ele>131</ele>
      </trkpt>
      <trkpt lat="43.56497" lon="-0.6494">
        <ele>131.3</ele>
      </trkpt>
      <trkpt lat="43.56511" lon="-0.64922">
        <ele>131.4</ele>
      </trkpt>
      <trkpt lat="43.56526" lon="-0.64901">
        <ele>131.6</ele>
      </trkpt>
      <trkpt lat="43.56557" lon="-0.6486">
        <ele>132.1</ele>
      </trkpt>
      <trkpt lat="43.56588" lon="-0.64819">
        <ele>133.5</ele>
      </trkpt>
      <trkpt lat="43.56622" lon="-0.64767">
        <ele>135.4</ele>
      </trkpt>
      <trkpt lat="43.56638" lon="-0.64741">
        <ele>136.3</ele>
      </trkpt>
      <trkpt lat="43.56655" lon="-0.64715">
        <ele>137.8</ele>
      </trkpt>
      <trkpt lat="43.5667" lon="-0.64694">
        <ele>138.9</ele>
      </trkpt>
      <trkpt lat="43.56699" lon="-0.64652">
        <ele>139.5</ele>
      </trkpt>
      <trkpt lat="43.56709" lon="-0.64641">
        <ele>139.9</ele>
      </trkpt>
      <trkpt lat="43.56727" lon="-0.64618">
        <ele>139.8</ele>
      </trkpt>
      <trkpt lat="43.56735" lon="-0.6461">
        <ele>139.6</ele>
      </trkpt>
      <trkpt lat="43.56764" lon="-0.6458">
        <ele>139.6</ele>
      </trkpt>
      <trkpt lat="43.56785" lon="-0.64557">
        <ele>139.9</ele>
      </trkpt>
      <trkpt lat="43.56807" lon="-0.64535">
        <ele>140.7</ele>
      </trkpt>
      <trkpt lat="43.56819" lon="-0.64525">
        <ele>141.1</ele>
      </trkpt>
      <trkpt lat="43.5683" lon="-0.64514">
        <ele>141.5</ele>
      </trkpt>
      <trkpt lat="43.56841" lon="-0.64503">
        <ele>141.6</ele>
      </trkpt>
      <trkpt lat="43.56865" lon="-0.64477">
        <ele>141.8</ele>
      </trkpt>
      <trkpt lat="43.56918" lon="-0.64407">
        <ele>144</ele>
      </trkpt>
      <trkpt lat="43.56926" lon="-0.64393">
        <ele>144</ele>
      </trkpt>
      <trkpt lat="43.56952" lon="-0.64351">
        <ele>142.6</ele>
      </trkpt>
      <trkpt lat="43.56959" lon="-0.64335">
        <ele>142.2</ele>
      </trkpt>
      <trkpt lat="43.56967" lon="-0.64319">
        <ele>141.6</ele>
      </trkpt>
      <trkpt lat="43.56974" lon="-0.64303">
        <ele>140.9</ele>
      </trkpt>
      <trkpt lat="43.56982" lon="-0.64287">
        <ele>140</ele>
      </trkpt>
      <trkpt lat="43.56996" lon="-0.64262">
        <ele>138.2</ele>
      </trkpt>
      <trkpt lat="43.57011" lon="-0.64236">
        <ele>136</ele>
      </trkpt>
      <trkpt lat="43.57034" lon="-0.64197">
        <ele>133.2</ele>
      </trkpt>
      <trkpt lat="43.57042" lon="-0.64184">
        <ele>132.6</ele>
      </trkpt>
      <trkpt lat="43.5705" lon="-0.64172">
        <ele>132.2</ele>
      </trkpt>
      <trkpt lat="43.57068" lon="-0.64146">
        <ele>130.5</ele>
      </trkpt>
      <trkpt lat="43.57077" lon="-0.64134">
        <ele>129.6</ele>
      </trkpt>
      <trkpt lat="43.57086" lon="-0.64124">
        <ele>128.8</ele>
      </trkpt>
      <trkpt lat="43.57113" lon="-0.64096">
        <ele>126.4</ele>
      </trkpt>
      <trkpt lat="43.5713" lon="-0.64082">
        <ele>126</ele>
      </trkpt>
      <trkpt lat="43.5714" lon="-0.64083">
        <ele>126.1</ele>
      </trkpt>
      <trkpt lat="43.57163" lon="-0.64091">
        <ele>128.6</ele>
      </trkpt>
      <trkpt lat="43.57175" lon="-0.64095">
        <ele>129.6</ele>
      </trkpt>
      <trkpt lat="43.57187" lon="-0.64099">
        <ele>130.4</ele>
      </trkpt>
      <trkpt lat="43.5721" lon="-0.64107">
        <ele>132</ele>
      </trkpt>
      <trkpt lat="43.57211" lon="-0.64103">
        <ele>132</ele>
      </trkpt>
      <trkpt lat="43.57216" lon="-0.64089">
        <ele>131.9</ele>
      </trkpt>
      <trkpt lat="43.57219" lon="-0.64078">
        <ele>131.5</ele>
      </trkpt>
      <trkpt lat="43.57221" lon="-0.64071">
        <ele>131.1</ele>
      </trkpt>
      <trkpt lat="43.57233" lon="-0.64049">
        <ele>130.7</ele>
      </trkpt>
      <trkpt lat="43.57237" lon="-0.64043">
        <ele>130.8</ele>
      </trkpt>
      <trkpt lat="43.57238" lon="-0.6404">
        <ele>130.8</ele>
      </trkpt>
      <trkpt lat="43.5724" lon="-0.64037">
        <ele>130.9</ele>
      </trkpt>
      <trkpt lat="43.57251" lon="-0.64024">
        <ele>130.9</ele>
      </trkpt>
      <trkpt lat="43.57255" lon="-0.64018">
        <ele>130.8</ele>
      </trkpt>
      <trkpt lat="43.57257" lon="-0.64016">
        <ele>130.7</ele>
      </trkpt>
      <trkpt lat="43.57272" lon="-0.63991">
        <ele>129.7</ele>
      </trkpt>
      <trkpt lat="43.57274" lon="-0.63988">
        <ele>129.6</ele>
      </trkpt>
      <trkpt lat="43.57276" lon="-0.63985">
        <ele>129.5</ele>
      </trkpt>
      <trkpt lat="43.57284" lon="-0.63949">
        <ele>129</ele>
      </trkpt>
      <trkpt lat="43.57286" lon="-0.6394">
        <ele>128.9</ele>
      </trkpt>
      <trkpt lat="43.57288" lon="-0.63932">
        <ele>128.9</ele>
      </trkpt>
      <trkpt lat="43.5729" lon="-0.63937">
        <ele>129</ele>
      </trkpt>
      <trkpt lat="43.57293" lon="-0.63941">
        <ele>129</ele>
      </trkpt>
      <trkpt lat="43.57294" lon="-0.63943">
        <ele>129</ele>
      </trkpt>
      <trkpt lat="43.57308" lon="-0.63968">
        <ele>129.2</ele>
      </trkpt>
      <trkpt lat="43.57339" lon="-0.64025">
        <ele>132.9</ele>
      </trkpt>
      <trkpt lat="43.57345" lon="-0.64035">
        <ele>133.3</ele>
      </trkpt>
      <trkpt lat="43.57362" lon="-0.64054">
        <ele>133.9</ele>
      </trkpt>
      <trkpt lat="43.57394" lon="-0.6409">
        <ele>135</ele>
      </trkpt>
      <trkpt lat="43.5741" lon="-0.64101">
        <ele>134.5</ele>
      </trkpt>
      <trkpt lat="43.5743" lon="-0.64101">
        <ele>134.2</ele>
      </trkpt>
      <trkpt lat="43.57456" lon="-0.64102">
        <ele>133.7</ele>
      </trkpt>
      <trkpt lat="43.57482" lon="-0.64102">
        <ele>133.3</ele>
      </trkpt>
      <trkpt lat="43.57502" lon="-0.64106">
        <ele>133.2</ele>
      </trkpt>
      <trkpt lat="43.57522" lon="-0.6411">
        <ele>133</ele>
      </trkpt>
      <trkpt lat="43.57573" lon="-0.64129">
        <ele>134.2</ele>
      </trkpt>
      <trkpt lat="43.57598" lon="-0.64139">
        <ele>134.5</ele>
      </trkpt>
      <trkpt lat="43.57623" lon="-0.64151">
        <ele>135.9</ele>
      </trkpt>
      <trkpt lat="43.57672" lon="-0.64175">
        <ele>138</ele>
      </trkpt>
      <trkpt lat="43.57694" lon="-0.64191">
        <ele>140.7</ele>
      </trkpt>
      <trkpt lat="43.57716" lon="-0.64206">
        <ele>141.8</ele>
      </trkpt>
      <trkpt lat="43.57739" lon="-0.64193">
        <ele>141.5</ele>
      </trkpt>
      <trkpt lat="43.57811" lon="-0.64154">
        <ele>135.6</ele>
      </trkpt>
      <trkpt lat="43.57832" lon="-0.64134">
        <ele>132.3</ele>
      </trkpt>
      <trkpt lat="43.57855" lon="-0.64107">
        <ele>128.6</ele>
      </trkpt>
      <trkpt lat="43.5789" lon="-0.64043">
        <ele>121.2</ele>
      </trkpt>
      <trkpt lat="43.57903" lon="-0.64013">
        <ele>117.1</ele>
      </trkpt>
      <trkpt lat="43.57917" lon="-0.63983">
        <ele>113.7</ele>
      </trkpt>
      <trkpt lat="43.5793" lon="-0.63953">
        <ele>110.7</ele>
      </trkpt>
      <trkpt lat="43.57947" lon="-0.63924">
        <ele>110.9</ele>
      </trkpt>
      <trkpt lat="43.57964" lon="-0.63896">
        <ele>109.2</ele>
      </trkpt>
      <trkpt lat="43.57986" lon="-0.63868">
        <ele>107.9</ele>
      </trkpt>
      <trkpt lat="43.58007" lon="-0.63841">
        <ele>106</ele>
      </trkpt>
      <trkpt lat="43.58019" lon="-0.63817">
        <ele>102.6</ele>
      </trkpt>
      <trkpt lat="43.58031" lon="-0.63779">
        <ele>97.5</ele>
      </trkpt>
      <trkpt lat="43.58055" lon="-0.63705">
        <ele>93.6</ele>
      </trkpt>
      <trkpt lat="43.58067" lon="-0.63667">
        <ele>90.6</ele>
      </trkpt>
      <trkpt lat="43.58087" lon="-0.63606">
        <ele>84.1</ele>
      </trkpt>
      <trkpt lat="43.58096" lon="-0.63575">
        <ele>79.4</ele>
      </trkpt>
      <trkpt lat="43.58103" lon="-0.63533">
        <ele>75.7</ele>
      </trkpt>
      <trkpt lat="43.58099" lon="-0.63493">
        <ele>75</ele>
      </trkpt>
      <trkpt lat="43.58095" lon="-0.63454">
        <ele>75.7</ele>
      </trkpt>
      <trkpt lat="43.5809" lon="-0.63378">
        <ele>82.9</ele>
      </trkpt>
      <trkpt lat="43.5809" lon="-0.63327">
        <ele>89.9</ele>
      </trkpt>
      <trkpt lat="43.58091" lon="-0.63306">
        <ele>91.8</ele>
      </trkpt>
      <trkpt lat="43.58099" lon="-0.63281">
        <ele>95.9</ele>
      </trkpt>
      <trkpt lat="43.58113" lon="-0.63265">
        <ele>99.5</ele>
      </trkpt>
      <trkpt lat="43.58127" lon="-0.63248">
        <ele>102.9</ele>
      </trkpt>
      <trkpt lat="43.58134" lon="-0.63214">
        <ele>107.1</ele>
      </trkpt>
      <trkpt lat="43.58142" lon="-0.6318">
        <ele>113.2</ele>
      </trkpt>
      <trkpt lat="43.5816" lon="-0.63114">
        <ele>121.6</ele>
      </trkpt>
      <trkpt lat="43.58173" lon="-0.63066">
        <ele>127.4</ele>
      </trkpt>
      <trkpt lat="43.58182" lon="-0.63049">
        <ele>128.1</ele>
      </trkpt>
      <trkpt lat="43.58204" lon="-0.63023">
        <ele>128.4</ele>
      </trkpt>
      <trkpt lat="43.58226" lon="-0.62996">
        <ele>129.5</ele>
      </trkpt>
      <trkpt lat="43.5825" lon="-0.62964">
        <ele>131.6</ele>
      </trkpt>
      <trkpt lat="43.58258" lon="-0.62946">
        <ele>132.9</ele>
      </trkpt>
      <trkpt lat="43.58278" lon="-0.62945">
        <ele>133</ele>
      </trkpt>
      <trkpt lat="43.58299" lon="-0.62943">
        <ele>133.1</ele>
      </trkpt>
      <trkpt lat="43.58379" lon="-0.62925">
        <ele>134.3</ele>
      </trkpt>
      <trkpt lat="43.5843" lon="-0.62904">
        <ele>135.8</ele>
      </trkpt>
      <trkpt lat="43.58458" lon="-0.62883">
        <ele>135.8</ele>
      </trkpt>
      <trkpt lat="43.58475" lon="-0.62866">
        <ele>135</ele>
      </trkpt>
      <trkpt lat="43.58484" lon="-0.62838">
        <ele>132.5</ele>
      </trkpt>
      <trkpt lat="43.58493" lon="-0.62809">
        <ele>130</ele>
      </trkpt>
      <trkpt lat="43.58504" lon="-0.62778">
        <ele>128.9</ele>
      </trkpt>
      <trkpt lat="43.58516" lon="-0.62747">
        <ele>128.4</ele>
      </trkpt>
      <trkpt lat="43.58528" lon="-0.62718">
        <ele>128.2</ele>
      </trkpt>
      <trkpt lat="43.58539" lon="-0.62689">
        <ele>127.9</ele>
      </trkpt>
      <trkpt lat="43.5856" lon="-0.62656">
        <ele>128.6</ele>
      </trkpt>
      <trkpt lat="43.58577" lon="-0.62633">
        <ele>128.8</ele>
      </trkpt>
      <trkpt lat="43.5861" lon="-0.62589">
        <ele>127.9</ele>
      </trkpt>
      <trkpt lat="43.58633" lon="-0.62567">
        <ele>127.6</ele>
      </trkpt>
      <trkpt lat="43.58659" lon="-0.62561">
        <ele>126.1</ele>
      </trkpt>
      <trkpt lat="43.58716" lon="-0.62535">
        <ele>125.6</ele>
      </trkpt>
      <trkpt lat="43.58746" lon="-0.62522">
        <ele>124.9</ele>
      </trkpt>
      <trkpt lat="43.58776" lon="-0.62508">
        <ele>123.6</ele>
      </trkpt>
      <trkpt lat="43.58788" lon="-0.62493">
        <ele>124.1</ele>
      </trkpt>
      <trkpt lat="43.58801" lon="-0.62477">
        <ele>123.5</ele>
      </trkpt>
      <trkpt lat="43.58814" lon="-0.62462">
        <ele>122.6</ele>
      </trkpt>
      <trkpt lat="43.58834" lon="-0.62453">
        <ele>121.3</ele>
      </trkpt>
      <trkpt lat="43.58851" lon="-0.6245">
        <ele>120.3</ele>
      </trkpt>
      <trkpt lat="43.58869" lon="-0.62447">
        <ele>119.4</ele>
      </trkpt>
      <trkpt lat="43.58889" lon="-0.6244">
        <ele>118.6</ele>
      </trkpt>
      <trkpt lat="43.58924" lon="-0.62419">
        <ele>119.6</ele>
      </trkpt>
      <trkpt lat="43.58946" lon="-0.62399">
        <ele>119.1</ele>
      </trkpt>
      <trkpt lat="43.58969" lon="-0.62378">
        <ele>117.7</ele>
      </trkpt>
      <trkpt lat="43.58992" lon="-0.6235">
        <ele>114.6</ele>
      </trkpt>
      <trkpt lat="43.58999" lon="-0.62347">
        <ele>114</ele>
      </trkpt>
      <trkpt lat="43.59009" lon="-0.62347">
        <ele>113</ele>
      </trkpt>
      <trkpt lat="43.59018" lon="-0.62355">
        <ele>112.3</ele>
      </trkpt>
      <trkpt lat="43.59036" lon="-0.62391">
        <ele>107.2</ele>
      </trkpt>
      <trkpt lat="43.59047" lon="-0.62432">
        <ele>104.7</ele>
      </trkpt>
      <trkpt lat="43.59059" lon="-0.62472">
        <ele>101</ele>
      </trkpt>
      <trkpt lat="43.59068" lon="-0.62515">
        <ele>95.8</ele>
      </trkpt>
      <trkpt lat="43.59068" lon="-0.62541">
        <ele>93.7</ele>
      </trkpt>
      <trkpt lat="43.59064" lon="-0.62569">
        <ele>92.2</ele>
      </trkpt>
      <trkpt lat="43.59059" lon="-0.62597">
        <ele>89.9</ele>
      </trkpt>
      <trkpt lat="43.59064" lon="-0.62616">
        <ele>86.8</ele>
      </trkpt>
      <trkpt lat="43.59069" lon="-0.62616">
        <ele>86</ele>
      </trkpt>
      <trkpt lat="43.59073" lon="-0.62617">
        <ele>85.2</ele>
      </trkpt>
      <trkpt lat="43.5908" lon="-0.62612">
        <ele>84.5</ele>
      </trkpt>
      <trkpt lat="43.59092" lon="-0.62594">
        <ele>84.5</ele>
      </trkpt>
      <trkpt lat="43.59105" lon="-0.62577">
        <ele>83.2</ele>
      </trkpt>
      <trkpt lat="43.59111" lon="-0.62571">
        <ele>82.4</ele>
      </trkpt>
      <trkpt lat="43.59134" lon="-0.62554">
        <ele>80.1</ele>
      </trkpt>
      <trkpt lat="43.59155" lon="-0.62544">
        <ele>76.9</ele>
      </trkpt>
      <trkpt lat="43.59174" lon="-0.62528">
        <ele>73.6</ele>
      </trkpt>
      <trkpt lat="43.59194" lon="-0.62512">
        <ele>70.1</ele>
      </trkpt>
      <trkpt lat="43.59205" lon="-0.6251">
        <ele>68.6</ele>
      </trkpt>
      <trkpt lat="43.59213" lon="-0.62516">
        <ele>67.3</ele>
      </trkpt>
      <trkpt lat="43.59217" lon="-0.62528">
        <ele>66</ele>
      </trkpt>
      <trkpt lat="43.5922" lon="-0.62552">
        <ele>63.6</ele>
      </trkpt>
      <trkpt lat="43.59226" lon="-0.62562">
        <ele>62.5</ele>
      </trkpt>
      <trkpt lat="43.59233" lon="-0.62566">
        <ele>61.8</ele>
      </trkpt>
      <trkpt lat="43.5926" lon="-0.62569">
        <ele>59.1</ele>
      </trkpt>
      <trkpt lat="43.59284" lon="-0.62568">
        <ele>57.2</ele>
      </trkpt>
      <trkpt lat="43.59309" lon="-0.62568">
        <ele>56.3</ele>
      </trkpt>
      <trkpt lat="43.59333" lon="-0.62567">
        <ele>55.6</ele>
      </trkpt>
      <trkpt lat="43.59365" lon="-0.62571">
        <ele>55.3</ele>
      </trkpt>
      <trkpt lat="43.59397" lon="-0.62574">
        <ele>54.3</ele>
      </trkpt>
      <trkpt lat="43.59421" lon="-0.62579">
        <ele>54.2</ele>
      </trkpt>
      <trkpt lat="43.59445" lon="-0.62584">
        <ele>54</ele>
      </trkpt>
      <trkpt lat="43.59464" lon="-0.62586">
        <ele>54</ele>
      </trkpt>
      <trkpt lat="43.5948" lon="-0.62583">
        <ele>53.7</ele>
      </trkpt>
      <trkpt lat="43.59497" lon="-0.62577">
        <ele>53.3</ele>
      </trkpt>
      <trkpt lat="43.59548" lon="-0.62559">
        <ele>53.9</ele>
      </trkpt>
      <trkpt lat="43.59575" lon="-0.6255">
        <ele>53.4</ele>
      </trkpt>
      <trkpt lat="43.59602" lon="-0.62541">
        <ele>53.2</ele>
      </trkpt>
      <trkpt lat="43.59629" lon="-0.62532">
        <ele>52.4</ele>
      </trkpt>
      <trkpt lat="43.59656" lon="-0.62523">
        <ele>52.1</ele>
      </trkpt>
      <trkpt lat="43.59683" lon="-0.62514">
        <ele>52</ele>
      </trkpt>
      <trkpt lat="43.59751" lon="-0.62487">
        <ele>52</ele>
      </trkpt>
      <trkpt lat="43.59781" lon="-0.62471">
        <ele>51.9</ele>
      </trkpt>
      <trkpt lat="43.59801" lon="-0.62462">
        <ele>51.6</ele>
      </trkpt>
      <trkpt lat="43.59822" lon="-0.62453">
        <ele>51.1</ele>
      </trkpt>
      <trkpt lat="43.59847" lon="-0.62441">
        <ele>51.4</ele>
      </trkpt>
      <trkpt lat="43.59872" lon="-0.62429">
        <ele>51.3</ele>
      </trkpt>
      <trkpt lat="43.59897" lon="-0.62417">
        <ele>51.3</ele>
      </trkpt>
      <trkpt lat="43.59917" lon="-0.62411">
        <ele>51.8</ele>
      </trkpt>
      <trkpt lat="43.59937" lon="-0.62405">
        <ele>51.6</ele>
      </trkpt>
      <trkpt lat="43.59966" lon="-0.62404">
        <ele>51.5</ele>
      </trkpt>
      <trkpt lat="43.59986" lon="-0.62407">
        <ele>51.6</ele>
      </trkpt>
      <trkpt lat="43.60009" lon="-0.62417">
        <ele>52</ele>
      </trkpt>
      <trkpt lat="43.60031" lon="-0.62434">
        <ele>49.7</ele>
      </trkpt>
      <trkpt lat="43.60054" lon="-0.62462">
        <ele>52.1</ele>
      </trkpt>
      <trkpt lat="43.60059" lon="-0.62455">
        <ele>52.4</ele>
      </trkpt>
      <trkpt lat="43.60071" lon="-0.62434">
        <ele>51.2</ele>
      </trkpt>
      <trkpt lat="43.60082" lon="-0.62413">
        <ele>51.3</ele>
      </trkpt>
      <trkpt lat="43.60097" lon="-0.62381">
        <ele>49.4</ele>
      </trkpt>
      <trkpt lat="43.60108" lon="-0.62352">
        <ele>50.9</ele>
      </trkpt>
      <trkpt lat="43.60119" lon="-0.62323">
        <ele>51.5</ele>
      </trkpt>
      <trkpt lat="43.6013" lon="-0.62294">
        <ele>51.2</ele>
      </trkpt>
      <trkpt lat="43.60142" lon="-0.62267">
        <ele>51.5</ele>
      </trkpt>
      <trkpt lat="43.60155" lon="-0.6224">
        <ele>51.2</ele>
      </trkpt>
      <trkpt lat="43.60173" lon="-0.62205">
        <ele>50.9</ele>
      </trkpt>
      <trkpt lat="43.60203" lon="-0.62169">
        <ele>51.9</ele>
      </trkpt>
      <trkpt lat="43.60235" lon="-0.6214">
        <ele>52</ele>
      </trkpt>
      <trkpt lat="43.60257" lon="-0.62125">
        <ele>52</ele>
      </trkpt>
      <trkpt lat="43.60278" lon="-0.6211">
        <ele>52</ele>
      </trkpt>
      <trkpt lat="43.60314" lon="-0.6208">
        <ele>52.1</ele>
      </trkpt>
      <trkpt lat="43.60322" lon="-0.62067">
        <ele>52.2</ele>
      </trkpt>
      <trkpt lat="43.60338" lon="-0.62041">
        <ele>52.6</ele>
      </trkpt>
      <trkpt lat="43.60354" lon="-0.62015">
        <ele>53</ele>
      </trkpt>
      <trkpt lat="43.6039" lon="-0.61962">
        <ele>53.4</ele>
      </trkpt>
      <trkpt lat="43.60445" lon="-0.61885">
        <ele>54</ele>
      </trkpt>
      <trkpt lat="43.60467" lon="-0.61853">
        <ele>54.6</ele>
      </trkpt>
      <trkpt lat="43.60475" lon="-0.61831">
        <ele>54</ele>
      </trkpt>
      <trkpt lat="43.60483" lon="-0.61808">
        <ele>54.3</ele>
      </trkpt>
      <trkpt lat="43.60492" lon="-0.61775">
        <ele>54</ele>
      </trkpt>
      <trkpt lat="43.60502" lon="-0.61741">
        <ele>54</ele>
      </trkpt>
      <trkpt lat="43.60513" lon="-0.61728">
        <ele>54</ele>
      </trkpt>
      <trkpt lat="43.60526" lon="-0.61723">
        <ele>54</ele>
      </trkpt>
      <trkpt lat="43.60555" lon="-0.61713">
        <ele>54.3</ele>
      </trkpt>
      <trkpt lat="43.60699" lon="-0.61663">
        <ele>61.3</ele>
      </trkpt>
      <trkpt lat="43.60683" lon="-0.61628">
        <ele>59.1</ele>
      </trkpt>
      <trkpt lat="43.60678" lon="-0.61604">
        <ele>58.5</ele>
      </trkpt>
      <trkpt lat="43.60677" lon="-0.61578">
        <ele>57.7</ele>
      </trkpt>
      <trkpt lat="43.60681" lon="-0.61558">
        <ele>57.6</ele>
      </trkpt>
      <trkpt lat="43.60693" lon="-0.61531">
        <ele>57.1</ele>
      </trkpt>
      <trkpt lat="43.60719" lon="-0.61477">
        <ele>58</ele>
      </trkpt>
      <trkpt lat="43.60733" lon="-0.6145">
        <ele>58.5</ele>
      </trkpt>
      <trkpt lat="43.60747" lon="-0.61422">
        <ele>58.1</ele>
      </trkpt>
      <trkpt lat="43.6078" lon="-0.61362">
        <ele>59.3</ele>
      </trkpt>
      <trkpt lat="43.60795" lon="-0.61336">
        <ele>60.3</ele>
      </trkpt>
      <trkpt lat="43.6081" lon="-0.61311">
        <ele>60.7</ele>
      </trkpt>
      <trkpt lat="43.60824" lon="-0.61283">
        <ele>61.2</ele>
      </trkpt>
      <trkpt lat="43.60837" lon="-0.61255">
        <ele>61.6</ele>
      </trkpt>
      <trkpt lat="43.60848" lon="-0.61229">
        <ele>62.6</ele>
      </trkpt>
      <trkpt lat="43.60859" lon="-0.61202">
        <ele>62.4</ele>
      </trkpt>
      <trkpt lat="43.60869" lon="-0.61175">
        <ele>62.9</ele>
      </trkpt>
      <trkpt lat="43.60888" lon="-0.6119">
        <ele>64.9</ele>
      </trkpt>
      <trkpt lat="43.60903" lon="-0.61199">
        <ele>66.1</ele>
      </trkpt>
      <trkpt lat="43.60919" lon="-0.61209">
        <ele>67.7</ele>
      </trkpt>
      <trkpt lat="43.60933" lon="-0.61215">
        <ele>69.5</ele>
      </trkpt>
      <trkpt lat="43.6095" lon="-0.61214">
        <ele>71.6</ele>
      </trkpt>
      <trkpt lat="43.60961" lon="-0.61217">
        <ele>73.4</ele>
      </trkpt>
      <trkpt lat="43.60972" lon="-0.61227">
        <ele>75.3</ele>
      </trkpt>
      <trkpt lat="43.60996" lon="-0.61254">
        <ele>81.6</ele>
      </trkpt>
      <trkpt lat="43.61005" lon="-0.61259">
        <ele>83.7</ele>
      </trkpt>
      <trkpt lat="43.61013" lon="-0.61257">
        <ele>85.1</ele>
      </trkpt>
      <trkpt lat="43.61019" lon="-0.61248">
        <ele>85.3</ele>
      </trkpt>
      <trkpt lat="43.61026" lon="-0.61223">
        <ele>86.7</ele>
      </trkpt>
      <trkpt lat="43.61034" lon="-0.61198">
        <ele>88</ele>
      </trkpt>
      <trkpt lat="43.61049" lon="-0.61163">
        <ele>88.2</ele>
      </trkpt>
      <trkpt lat="43.61064" lon="-0.61148">
        <ele>90</ele>
      </trkpt>
      <trkpt lat="43.61089" lon="-0.61136">
        <ele>93.4</ele>
      </trkpt>
      <trkpt lat="43.61108" lon="-0.61133">
        <ele>96</ele>
      </trkpt>
      <trkpt lat="43.61123" lon="-0.61138">
        <ele>99.8</ele>
      </trkpt>
      <trkpt lat="43.61138" lon="-0.61149">
        <ele>104.3</ele>
      </trkpt>
      <trkpt lat="43.61155" lon="-0.61171">
        <ele>107.8</ele>
      </trkpt>
      <trkpt lat="43.61182" lon="-0.61202">
        <ele>110.1</ele>
      </trkpt>
      <trkpt lat="43.61196" lon="-0.61177">
        <ele>109.4</ele>
      </trkpt>
      <trkpt lat="43.6121" lon="-0.61153">
        <ele>109.6</ele>
      </trkpt>
      <trkpt lat="43.61224" lon="-0.61129">
        <ele>110.3</ele>
      </trkpt>
      <trkpt lat="43.61239" lon="-0.6111">
        <ele>110.4</ele>
      </trkpt>
      <trkpt lat="43.61253" lon="-0.61091">
        <ele>110.7</ele>
      </trkpt>
      <trkpt lat="43.61301" lon="-0.61034">
        <ele>111.9</ele>
      </trkpt>
      <trkpt lat="43.61325" lon="-0.61005">
        <ele>111.7</ele>
      </trkpt>
      <trkpt lat="43.61372" lon="-0.60962">
        <ele>109.7</ele>
      </trkpt>
      <trkpt lat="43.6139" lon="-0.60957">
        <ele>109.5</ele>
      </trkpt>
      <trkpt lat="43.61408" lon="-0.60952">
        <ele>109.7</ele>
      </trkpt>
      <trkpt lat="43.61439" lon="-0.60958">
        <ele>109.5</ele>
      </trkpt>
      <trkpt lat="43.615" lon="-0.60969">
        <ele>109.1</ele>
      </trkpt>
      <trkpt lat="43.61531" lon="-0.60974">
        <ele>107.9</ele>
      </trkpt>
      <trkpt lat="43.6156" lon="-0.60974">
        <ele>106.8</ele>
      </trkpt>
      <trkpt lat="43.61581" lon="-0.60969">
        <ele>106.2</ele>
      </trkpt>
      <trkpt lat="43.61601" lon="-0.60964">
        <ele>105.7</ele>
      </trkpt>
      <trkpt lat="43.61627" lon="-0.60958">
        <ele>105.5</ele>
      </trkpt>
      <trkpt lat="43.61653" lon="-0.60952">
        <ele>105.9</ele>
      </trkpt>
      <trkpt lat="43.61681" lon="-0.60947">
        <ele>106.5</ele>
      </trkpt>
      <trkpt lat="43.61848" lon="-0.60915">
        <ele>116.6</ele>
      </trkpt>
      <trkpt lat="43.61872" lon="-0.6091">
        <ele>117.2</ele>
      </trkpt>
      <trkpt lat="43.61919" lon="-0.609">
        <ele>118.2</ele>
      </trkpt>
      <trkpt lat="43.61977" lon="-0.60888">
        <ele>122.1</ele>
      </trkpt>
      <trkpt lat="43.62092" lon="-0.60863">
        <ele>120.8</ele>
      </trkpt>
      <trkpt lat="43.62121" lon="-0.60857">
        <ele>119.9</ele>
      </trkpt>
      <trkpt lat="43.6215" lon="-0.60851">
        <ele>119.8</ele>
      </trkpt>
      <trkpt lat="43.62175" lon="-0.60846">
        <ele>120</ele>
      </trkpt>
      <trkpt lat="43.62201" lon="-0.6084">
        <ele>119.5</ele>
      </trkpt>
      <trkpt lat="43.62227" lon="-0.60835">
        <ele>119.1</ele>
      </trkpt>
      <trkpt lat="43.62278" lon="-0.60825">
        <ele>118.4</ele>
      </trkpt>
      <trkpt lat="43.62298" lon="-0.6081">
        <ele>118.8</ele>
      </trkpt>
      <trkpt lat="43.62321" lon="-0.60788">
        <ele>119.5</ele>
      </trkpt>
      <trkpt lat="43.62365" lon="-0.6073">
        <ele>121.3</ele>
      </trkpt>
      <trkpt lat="43.62388" lon="-0.60701">
        <ele>121.4</ele>
      </trkpt>
      <trkpt lat="43.6241" lon="-0.60672">
        <ele>121.1</ele>
      </trkpt>
      <trkpt lat="43.62454" lon="-0.60613">
        <ele>120</ele>
      </trkpt>
      <trkpt lat="43.62476" lon="-0.60589">
        <ele>119.9</ele>
      </trkpt>
      <trkpt lat="43.62497" lon="-0.60565">
        <ele>119.1</ele>
      </trkpt>
      <trkpt lat="43.62519" lon="-0.6054">
        <ele>118.8</ele>
      </trkpt>
      <trkpt lat="43.62539" lon="-0.60514">
        <ele>118.1</ele>
      </trkpt>
      <trkpt lat="43.6256" lon="-0.60489">
        <ele>116.8</ele>
      </trkpt>
      <trkpt lat="43.62574" lon="-0.60463">
        <ele>115.4</ele>
      </trkpt>
      <trkpt lat="43.62589" lon="-0.60437">
        <ele>114</ele>
      </trkpt>
      <trkpt lat="43.62624" lon="-0.60393">
        <ele>112</ele>
      </trkpt>
      <trkpt lat="43.62641" lon="-0.60371">
        <ele>110.9</ele>
      </trkpt>
      <trkpt lat="43.62711" lon="-0.60311">
        <ele>108.1</ele>
      </trkpt>
      <trkpt lat="43.62755" lon="-0.60272">
        <ele>106.2</ele>
      </trkpt>
      <trkpt lat="43.62777" lon="-0.60252">
        <ele>106</ele>
      </trkpt>
      <trkpt lat="43.62815" lon="-0.60218">
        <ele>105.8</ele>
      </trkpt>
      <trkpt lat="43.62834" lon="-0.60201">
        <ele>105.8</ele>
      </trkpt>
      <trkpt lat="43.62847" lon="-0.60194">
        <ele>106</ele>
      </trkpt>
      <trkpt lat="43.6287" lon="-0.60188">
        <ele>105.8</ele>
      </trkpt>
      <trkpt lat="43.62895" lon="-0.60196">
        <ele>106.3</ele>
      </trkpt>
      <trkpt lat="43.62953" lon="-0.60226">
        <ele>109.7</ele>
      </trkpt>
      <trkpt lat="43.62981" lon="-0.60241">
        <ele>111.3</ele>
      </trkpt>
      <trkpt lat="43.63039" lon="-0.60271">
        <ele>115.3</ele>
      </trkpt>
      <trkpt lat="43.63065" lon="-0.6028">
        <ele>116.4</ele>
      </trkpt>
      <trkpt lat="43.63086" lon="-0.6028">
        <ele>117.2</ele>
      </trkpt>
      <trkpt lat="43.63107" lon="-0.6028">
        <ele>117.9</ele>
      </trkpt>
      <trkpt lat="43.63158" lon="-0.60272">
        <ele>119.5</ele>
      </trkpt>
      <trkpt lat="43.63184" lon="-0.60269">
        <ele>120.7</ele>
      </trkpt>
      <trkpt lat="43.63213" lon="-0.60263">
        <ele>121.6</ele>
      </trkpt>
      <trkpt lat="43.63271" lon="-0.60252">
        <ele>123.8</ele>
      </trkpt>
      <trkpt lat="43.63329" lon="-0.60241">
        <ele>123.3</ele>
      </trkpt>
      <trkpt lat="43.63358" lon="-0.60236">
        <ele>123.9</ele>
      </trkpt>
      <trkpt lat="43.6339" lon="-0.60231">
        <ele>124</ele>
      </trkpt>
      <trkpt lat="43.63454" lon="-0.60221">
        <ele>125</ele>
      </trkpt>
      <trkpt lat="43.6347" lon="-0.60219">
        <ele>125</ele>
      </trkpt>
      <trkpt lat="43.63486" lon="-0.60218">
        <ele>125</ele>
      </trkpt>
      <trkpt lat="43.63517" lon="-0.60214">
        <ele>124.8</ele>
      </trkpt>
      <trkpt lat="43.63546" lon="-0.60207">
        <ele>124.4</ele>
      </trkpt>
      <trkpt lat="43.63589" lon="-0.60196">
        <ele>124</ele>
      </trkpt>
      <trkpt lat="43.63603" lon="-0.60192">
        <ele>124</ele>
      </trkpt>
      <trkpt lat="43.63631" lon="-0.60176">
        <ele>124.3</ele>
      </trkpt>
      <trkpt lat="43.6366" lon="-0.6016">
        <ele>122.9</ele>
      </trkpt>
      <trkpt lat="43.63717" lon="-0.60129">
        <ele>120.7</ele>
      </trkpt>
      <trkpt lat="43.63758" lon="-0.60109">
        <ele>118.8</ele>
      </trkpt>
      <trkpt lat="43.63772" lon="-0.60102">
        <ele>118.5</ele>
      </trkpt>
      <trkpt lat="43.63802" lon="-0.60096">
        <ele>117.7</ele>
      </trkpt>
      <trkpt lat="43.63817" lon="-0.60093">
        <ele>117</ele>
      </trkpt>
      <trkpt lat="43.63847" lon="-0.60088">
        <ele>115</ele>
      </trkpt>
      <trkpt lat="43.6386" lon="-0.60083">
        <ele>114.1</ele>
      </trkpt>
      <trkpt lat="43.63913" lon="-0.60065">
        <ele>113.7</ele>
      </trkpt>
      <trkpt lat="43.63956" lon="-0.6004">
        <ele>114.4</ele>
      </trkpt>
      <trkpt lat="43.6397" lon="-0.60032">
        <ele>114.9</ele>
      </trkpt>
      <trkpt lat="43.63984" lon="-0.60023">
        <ele>115.1</ele>
      </trkpt>
      <trkpt lat="43.63995" lon="-0.60016">
        <ele>115.3</ele>
      </trkpt>
      <trkpt lat="43.64006" lon="-0.60009">
        <ele>115.7</ele>
      </trkpt>
      <trkpt lat="43.64018" lon="-0.60004">
        <ele>116</ele>
      </trkpt>
      <trkpt lat="43.64043" lon="-0.59993">
        <ele>115.7</ele>
      </trkpt>
      <trkpt lat="43.64058" lon="-0.59989">
        <ele>115.4</ele>
      </trkpt>
      <trkpt lat="43.64072" lon="-0.59986">
        <ele>115.5</ele>
      </trkpt>
      <trkpt lat="43.641" lon="-0.59978">
        <ele>115.3</ele>
      </trkpt>
      <trkpt lat="43.64129" lon="-0.59971">
        <ele>114.4</ele>
      </trkpt>
      <trkpt lat="43.64151" lon="-0.5996">
        <ele>114.7</ele>
      </trkpt>
      <trkpt lat="43.64163" lon="-0.59955">
        <ele>114.9</ele>
      </trkpt>
      <trkpt lat="43.64175" lon="-0.59946">
        <ele>115</ele>
      </trkpt>
      <trkpt lat="43.64199" lon="-0.59929">
        <ele>115.5</ele>
      </trkpt>
      <trkpt lat="43.64223" lon="-0.59912">
        <ele>115.2</ele>
      </trkpt>
      <trkpt lat="43.64233" lon="-0.59907">
        <ele>115.3</ele>
      </trkpt>
      <trkpt lat="43.64254" lon="-0.59898">
        <ele>115.6</ele>
      </trkpt>
      <trkpt lat="43.64309" lon="-0.59889">
        <ele>115</ele>
      </trkpt>
      <trkpt lat="43.64354" lon="-0.5988">
        <ele>114.5</ele>
      </trkpt>
      <trkpt lat="43.6443" lon="-0.59863">
        <ele>114</ele>
      </trkpt>
      <trkpt lat="43.64445" lon="-0.59859">
        <ele>114.1</ele>
      </trkpt>
      <trkpt lat="43.64569" lon="-0.59834">
        <ele>114</ele>
      </trkpt>
      <trkpt lat="43.646" lon="-0.59827">
        <ele>113.5</ele>
      </trkpt>
      <trkpt lat="43.64615" lon="-0.59826">
        <ele>113.4</ele>
      </trkpt>
      <trkpt lat="43.64644" lon="-0.59823">
        <ele>113.9</ele>
      </trkpt>
      <trkpt lat="43.64658" lon="-0.59822">
        <ele>113.6</ele>
      </trkpt>
      <trkpt lat="43.64673" lon="-0.5982">
        <ele>113.5</ele>
      </trkpt>
      <trkpt lat="43.64688" lon="-0.59817">
        <ele>113.6</ele>
      </trkpt>
      <trkpt lat="43.64703" lon="-0.59815">
        <ele>113.5</ele>
      </trkpt>
      <trkpt lat="43.64718" lon="-0.59812">
        <ele>113.1</ele>
      </trkpt>
      <trkpt lat="43.64733" lon="-0.59809">
        <ele>112.3</ele>
      </trkpt>
      <trkpt lat="43.64738" lon="-0.59824">
        <ele>112.6</ele>
      </trkpt>
      <trkpt lat="43.64753" lon="-0.59851">
        <ele>113.6</ele>
      </trkpt>
      <trkpt lat="43.64762" lon="-0.59865">
        <ele>113.6</ele>
      </trkpt>
      <trkpt lat="43.64772" lon="-0.59878">
        <ele>113.2</ele>
      </trkpt>
      <trkpt lat="43.64791" lon="-0.59905">
        <ele>113.3</ele>
      </trkpt>
      <trkpt lat="43.64819" lon="-0.59946">
        <ele>112.6</ele>
      </trkpt>
      <trkpt lat="43.64828" lon="-0.59963">
        <ele>112.9</ele>
      </trkpt>
      <trkpt lat="43.64866" lon="-0.60029">
        <ele>112</ele>
      </trkpt>
      <trkpt lat="43.64875" lon="-0.60046">
        <ele>112.3</ele>
      </trkpt>
      <trkpt lat="43.64885" lon="-0.60062">
        <ele>112.4</ele>
      </trkpt>
      <trkpt lat="43.64904" lon="-0.60089">
        <ele>113.1</ele>
      </trkpt>
      <trkpt lat="43.64934" lon="-0.6013">
        <ele>112.6</ele>
      </trkpt>
      <trkpt lat="43.64944" lon="-0.60144">
        <ele>112.2</ele>
      </trkpt>
      <trkpt lat="43.64956" lon="-0.60152">
        <ele>111.9</ele>
      </trkpt>
      <trkpt lat="43.64968" lon="-0.6016">
        <ele>110.8</ele>
      </trkpt>
      <trkpt lat="43.64992" lon="-0.60164">
        <ele>110.1</ele>
      </trkpt>
      <trkpt lat="43.65003" lon="-0.60166">
        <ele>110.1</ele>
      </trkpt>
      <trkpt lat="43.65016" lon="-0.60129">
        <ele>110.2</ele>
      </trkpt>
      <trkpt lat="43.65042" lon="-0.60055">
        <ele>108.4</ele>
      </trkpt>
      <trkpt lat="43.651" lon="-0.59888">
        <ele>96.7</ele>
      </trkpt>
      <trkpt lat="43.65113" lon="-0.59851">
        <ele>94.2</ele>
      </trkpt>
      <trkpt lat="43.65127" lon="-0.59816">
        <ele>92.4</ele>
      </trkpt>
      <trkpt lat="43.65166" lon="-0.5971">
        <ele>88.5</ele>
      </trkpt>
      <trkpt lat="43.65173" lon="-0.59692">
        <ele>88.2</ele>
      </trkpt>
      <trkpt lat="43.65185" lon="-0.5966">
        <ele>88.7</ele>
      </trkpt>
      <trkpt lat="43.65198" lon="-0.59628">
        <ele>88.8</ele>
      </trkpt>
      <trkpt lat="43.65204" lon="-0.59613">
        <ele>89</ele>
      </trkpt>
      <trkpt lat="43.65214" lon="-0.59599">
        <ele>88</ele>
      </trkpt>
      <trkpt lat="43.65223" lon="-0.59585">
        <ele>86.3</ele>
      </trkpt>
      <trkpt lat="43.65232" lon="-0.59572">
        <ele>87.3</ele>
      </trkpt>
      <trkpt lat="43.65241" lon="-0.59557">
        <ele>88.9</ele>
      </trkpt>
      <trkpt lat="43.65249" lon="-0.59543">
        <ele>89</ele>
      </trkpt>
      <trkpt lat="43.65258" lon="-0.59528">
        <ele>88.3</ele>
      </trkpt>
      <trkpt lat="43.65278" lon="-0.59499">
        <ele>88.9</ele>
      </trkpt>
      <trkpt lat="43.65318" lon="-0.5944">
        <ele>88.4</ele>
      </trkpt>
      <trkpt lat="43.65328" lon="-0.59425">
        <ele>88.2</ele>
      </trkpt>
      <trkpt lat="43.65341" lon="-0.59414">
        <ele>88.3</ele>
      </trkpt>
      <trkpt lat="43.65355" lon="-0.59402">
        <ele>88.8</ele>
      </trkpt>
      <trkpt lat="43.65368" lon="-0.59391">
        <ele>89</ele>
      </trkpt>
      <trkpt lat="43.65381" lon="-0.5938">
        <ele>89</ele>
      </trkpt>
      <trkpt lat="43.65391" lon="-0.5937">
        <ele>89</ele>
      </trkpt>
      <trkpt lat="43.65401" lon="-0.5936">
        <ele>89.1</ele>
      </trkpt>
      <trkpt lat="43.6541" lon="-0.5935">
        <ele>89.4</ele>
      </trkpt>
      <trkpt lat="43.6542" lon="-0.59361">
        <ele>89.1</ele>
      </trkpt>
      <trkpt lat="43.6543" lon="-0.59371">
        <ele>89.1</ele>
      </trkpt>
      <trkpt lat="43.65448" lon="-0.59384">
        <ele>89.4</ele>
      </trkpt>
      <trkpt lat="43.65458" lon="-0.5939">
        <ele>90</ele>
      </trkpt>
      <trkpt lat="43.65467" lon="-0.59396">
        <ele>90.7</ele>
      </trkpt>
      <trkpt lat="43.65477" lon="-0.59402">
        <ele>91.2</ele>
      </trkpt>
      <trkpt lat="43.65488" lon="-0.59414">
        <ele>91.6</ele>
      </trkpt>
      <trkpt lat="43.65498" lon="-0.59427">
        <ele>91.9</ele>
      </trkpt>
      <trkpt lat="43.65509" lon="-0.5944">
        <ele>92.3</ele>
      </trkpt>
      <trkpt lat="43.6552" lon="-0.59453">
        <ele>92.7</ele>
      </trkpt>
      <trkpt lat="43.65542" lon="-0.59471">
        <ele>93.5</ele>
      </trkpt>
      <trkpt lat="43.65571" lon="-0.59478">
        <ele>94.6</ele>
      </trkpt>
      <trkpt lat="43.65582" lon="-0.59475">
        <ele>95</ele>
      </trkpt>
      <trkpt lat="43.65603" lon="-0.5947">
        <ele>95.8</ele>
      </trkpt>
      <trkpt lat="43.65625" lon="-0.59447">
        <ele>97.9</ele>
      </trkpt>
      <trkpt lat="43.65636" lon="-0.59436">
        <ele>98.8</ele>
      </trkpt>
      <trkpt lat="43.65643" lon="-0.59425">
        <ele>99.3</ele>
      </trkpt>
      <trkpt lat="43.65651" lon="-0.59437">
        <ele>99.7</ele>
      </trkpt>
      <trkpt lat="43.65669" lon="-0.59461">
        <ele>99.5</ele>
      </trkpt>
      <trkpt lat="43.65673" lon="-0.59481">
        <ele>98.9</ele>
      </trkpt>
      <trkpt lat="43.65678" lon="-0.595">
        <ele>98.4</ele>
      </trkpt>
      <trkpt lat="43.65682" lon="-0.59519">
        <ele>97.8</ele>
      </trkpt>
      <trkpt lat="43.6569" lon="-0.59553">
        <ele>97.7</ele>
      </trkpt>
      <trkpt lat="43.65694" lon="-0.59569">
        <ele>97.5</ele>
      </trkpt>
      <trkpt lat="43.65703" lon="-0.59603">
        <ele>97.7</ele>
      </trkpt>
      <trkpt lat="43.65711" lon="-0.59638">
        <ele>97.2</ele>
      </trkpt>
      <trkpt lat="43.6572" lon="-0.59673">
        <ele>97.8</ele>
      </trkpt>
      <trkpt lat="43.65726" lon="-0.59708">
        <ele>98.4</ele>
      </trkpt>
      <trkpt lat="43.65735" lon="-0.59762">
        <ele>97.7</ele>
      </trkpt>
      <trkpt lat="43.65738" lon="-0.5978">
        <ele>97.1</ele>
      </trkpt>
      <trkpt lat="43.65741" lon="-0.59799">
        <ele>96.8</ele>
      </trkpt>
      <trkpt lat="43.65744" lon="-0.59818">
        <ele>96.3</ele>
      </trkpt>
      <trkpt lat="43.65753" lon="-0.5985">
        <ele>95.8</ele>
      </trkpt>
      <trkpt lat="43.65758" lon="-0.59866">
        <ele>95.8</ele>
      </trkpt>
      <trkpt lat="43.65764" lon="-0.5988">
        <ele>95.8</ele>
      </trkpt>
      <trkpt lat="43.65775" lon="-0.59909">
        <ele>95.2</ele>
      </trkpt>
      <trkpt lat="43.65798" lon="-0.59957">
        <ele>93.7</ele>
      </trkpt>
      <trkpt lat="43.65801" lon="-0.59964">
        <ele>93.8</ele>
      </trkpt>
      <trkpt lat="43.6587" lon="-0.60092">
        <ele>96.9</ele>
      </trkpt>
      <trkpt lat="43.65877" lon="-0.60105">
        <ele>97.3</ele>
      </trkpt>
      <trkpt lat="43.65881" lon="-0.601">
        <ele>97.8</ele>
      </trkpt>
      <trkpt lat="43.65886" lon="-0.60094">
        <ele>98.3</ele>
      </trkpt>
      <trkpt lat="43.6589" lon="-0.60089">
        <ele>98.9</ele>
      </trkpt>
      <trkpt lat="43.65894" lon="-0.60083">
        <ele>99.2</ele>
      </trkpt>
      <trkpt lat="43.65903" lon="-0.60075">
        <ele>100.2</ele>
      </trkpt>
      <trkpt lat="43.65913" lon="-0.60067">
        <ele>101.5</ele>
      </trkpt>
      <trkpt lat="43.65918" lon="-0.60064">
        <ele>102.2</ele>
      </trkpt>
      <trkpt lat="43.65923" lon="-0.60061">
        <ele>102.9</ele>
      </trkpt>
      <trkpt lat="43.65928" lon="-0.60059">
        <ele>103.6</ele>
      </trkpt>
      <trkpt lat="43.65943" lon="-0.60051">
        <ele>105.3</ele>
      </trkpt>
      <trkpt lat="43.65949" lon="-0.60048">
        <ele>105.8</ele>
      </trkpt>
      <trkpt lat="43.65957" lon="-0.6004">
        <ele>106.8</ele>
      </trkpt>
      <trkpt lat="43.65962" lon="-0.60035">
        <ele>107.3</ele>
      </trkpt>
      <trkpt lat="43.65979" lon="-0.60018">
        <ele>108.8</ele>
      </trkpt>
      <trkpt lat="43.65984" lon="-0.60013">
        <ele>109.1</ele>
      </trkpt>
      <trkpt lat="43.65993" lon="-0.60003">
        <ele>109.7</ele>
      </trkpt>
      <trkpt lat="43.66028" lon="-0.59968">
        <ele>110</ele>
      </trkpt>
      <trkpt lat="43.66038" lon="-0.59955">
        <ele>110.5</ele>
      </trkpt>
      <trkpt lat="43.66058" lon="-0.59928">
        <ele>110.5</ele>
      </trkpt>
      <trkpt lat="43.66068" lon="-0.59915">
        <ele>110.4</ele>
      </trkpt>
      <trkpt lat="43.66078" lon="-0.59904">
        <ele>110.4</ele>
      </trkpt>
      <trkpt lat="43.66098" lon="-0.59882">
        <ele>110.4</ele>
      </trkpt>
      <trkpt lat="43.66111" lon="-0.59876">
        <ele>110.5</ele>
      </trkpt>
      <trkpt lat="43.66122" lon="-0.59871">
        <ele>111.1</ele>
      </trkpt>
      <trkpt lat="43.66129" lon="-0.59873">
        <ele>111.7</ele>
      </trkpt>
      <trkpt lat="43.66136" lon="-0.59874">
        <ele>112.2</ele>
      </trkpt>
      <trkpt lat="43.66147" lon="-0.59876">
        <ele>112.7</ele>
      </trkpt>
      <trkpt lat="43.66158" lon="-0.59878">
        <ele>112.9</ele>
      </trkpt>
      <trkpt lat="43.66167" lon="-0.59876">
        <ele>113</ele>
      </trkpt>
      <trkpt lat="43.66184" lon="-0.59866">
        <ele>113.1</ele>
      </trkpt>
      <trkpt lat="43.66194" lon="-0.59858">
        <ele>113.2</ele>
      </trkpt>
      <trkpt lat="43.66224" lon="-0.59836">
        <ele>114.1</ele>
      </trkpt>
      <trkpt lat="43.66235" lon="-0.59827">
        <ele>113.8</ele>
      </trkpt>
      <trkpt lat="43.66277" lon="-0.5979">
        <ele>112.9</ele>
      </trkpt>
      <trkpt lat="43.66298" lon="-0.59772">
        <ele>112.4</ele>
      </trkpt>
      <trkpt lat="43.66331" lon="-0.59743">
        <ele>111.7</ele>
      </trkpt>
      <trkpt lat="43.66342" lon="-0.59733">
        <ele>111.6</ele>
      </trkpt>
      <trkpt lat="43.66353" lon="-0.59723">
        <ele>111.7</ele>
      </trkpt>
      <trkpt lat="43.66362" lon="-0.59713">
        <ele>112</ele>
      </trkpt>
      <trkpt lat="43.66379" lon="-0.59692">
        <ele>112.6</ele>
      </trkpt>
      <trkpt lat="43.66389" lon="-0.5968">
        <ele>112.5</ele>
      </trkpt>
      <trkpt lat="43.66437" lon="-0.5962">
        <ele>116.3</ele>
      </trkpt>
      <trkpt lat="43.66495" lon="-0.59548">
        <ele>117.2</ele>
      </trkpt>
      <trkpt lat="43.66505" lon="-0.59536">
        <ele>117.7</ele>
      </trkpt>
      <trkpt lat="43.66534" lon="-0.59508">
        <ele>118.9</ele>
      </trkpt>
      <trkpt lat="43.66542" lon="-0.59498">
        <ele>119.6</ele>
      </trkpt>
      <trkpt lat="43.66559" lon="-0.59476">
        <ele>120.4</ele>
      </trkpt>
      <trkpt lat="43.66574" lon="-0.59449">
        <ele>123</ele>
      </trkpt>
      <trkpt lat="43.66591" lon="-0.59408">
        <ele>124.8</ele>
      </trkpt>
      <trkpt lat="43.66596" lon="-0.59392">
        <ele>126.2</ele>
      </trkpt>
      <trkpt lat="43.666" lon="-0.59377">
        <ele>127</ele>
      </trkpt>
      <trkpt lat="43.66602" lon="-0.59363">
        <ele>127.6</ele>
      </trkpt>
      <trkpt lat="43.66607" lon="-0.59335">
        <ele>127.1</ele>
      </trkpt>
      <trkpt lat="43.6661" lon="-0.59317">
        <ele>127</ele>
      </trkpt>
      <trkpt lat="43.66615" lon="-0.5928">
        <ele>126.1</ele>
      </trkpt>
      <trkpt lat="43.66619" lon="-0.59264">
        <ele>126</ele>
      </trkpt>
      <trkpt lat="43.66623" lon="-0.59247">
        <ele>126</ele>
      </trkpt>
      <trkpt lat="43.66629" lon="-0.59234">
        <ele>126.4</ele>
      </trkpt>
      <trkpt lat="43.6664" lon="-0.59207">
        <ele>126.5</ele>
      </trkpt>
      <trkpt lat="43.66645" lon="-0.59195">
        <ele>126.5</ele>
      </trkpt>
      <trkpt lat="43.66656" lon="-0.59171">
        <ele>126.7</ele>
      </trkpt>
      <trkpt lat="43.66663" lon="-0.5916">
        <ele>127.1</ele>
      </trkpt>
      <trkpt lat="43.66677" lon="-0.59138">
        <ele>127.6</ele>
      </trkpt>
      <trkpt lat="43.66684" lon="-0.5913">
        <ele>127.6</ele>
      </trkpt>
      <trkpt lat="43.6669" lon="-0.59122">
        <ele>127.7</ele>
      </trkpt>
      <trkpt lat="43.66687" lon="-0.59068">
        <ele>128.6</ele>
      </trkpt>
      <trkpt lat="43.66684" lon="-0.59032">
        <ele>129.6</ele>
      </trkpt>
      <trkpt lat="43.66682" lon="-0.58995">
        <ele>129.1</ele>
      </trkpt>
      <trkpt lat="43.6668" lon="-0.58959">
        <ele>129.2</ele>
      </trkpt>
      <trkpt lat="43.66687" lon="-0.58943">
        <ele>129</ele>
      </trkpt>
      <trkpt lat="43.66695" lon="-0.58928">
        <ele>129</ele>
      </trkpt>
      <trkpt lat="43.667" lon="-0.58919">
        <ele>129.2</ele>
      </trkpt>
      <trkpt lat="43.66706" lon="-0.5891">
        <ele>129.4</ele>
      </trkpt>
      <trkpt lat="43.66716" lon="-0.58906">
        <ele>129.3</ele>
      </trkpt>
      <trkpt lat="43.66725" lon="-0.58899">
        <ele>128.8</ele>
      </trkpt>
      <trkpt lat="43.66753" lon="-0.58876">
        <ele>129.1</ele>
      </trkpt>
      <trkpt lat="43.66763" lon="-0.58872">
        <ele>129.2</ele>
      </trkpt>
      <trkpt lat="43.66784" lon="-0.58864">
        <ele>128.9</ele>
      </trkpt>
      <trkpt lat="43.66807" lon="-0.58875">
        <ele>128.9</ele>
      </trkpt>
      <trkpt lat="43.66818" lon="-0.5888">
        <ele>128.9</ele>
      </trkpt>
      <trkpt lat="43.66829" lon="-0.58885">
        <ele>128.9</ele>
      </trkpt>
      <trkpt lat="43.66851" lon="-0.58895">
        <ele>128.7</ele>
      </trkpt>
      <trkpt lat="43.66872" lon="-0.58904">
        <ele>128.3</ele>
      </trkpt>
      <trkpt lat="43.66897" lon="-0.58903">
        <ele>126.4</ele>
      </trkpt>
      <trkpt lat="43.66946" lon="-0.589">
        <ele>124.4</ele>
      </trkpt>
      <trkpt lat="43.67035" lon="-0.58895">
        <ele>121.7</ele>
      </trkpt>
      <trkpt lat="43.67125" lon="-0.58889">
        <ele>119.5</ele>
      </trkpt>
      <trkpt lat="43.6715" lon="-0.58888">
        <ele>118.7</ele>
      </trkpt>
      <trkpt lat="43.67162" lon="-0.58887">
        <ele>118.4</ele>
      </trkpt>
      <trkpt lat="43.67184" lon="-0.58884">
        <ele>118.4</ele>
      </trkpt>
      <trkpt lat="43.67207" lon="-0.58881">
        <ele>118.2</ele>
      </trkpt>
      <trkpt lat="43.67235" lon="-0.58876">
        <ele>118.2</ele>
      </trkpt>
      <trkpt lat="43.67248" lon="-0.58874">
        <ele>118.1</ele>
      </trkpt>
      <trkpt lat="43.6728" lon="-0.58858">
        <ele>118.3</ele>
      </trkpt>
      <trkpt lat="43.67302" lon="-0.58848">
        <ele>119.4</ele>
      </trkpt>
      <trkpt lat="43.67311" lon="-0.58841">
        <ele>119.8</ele>
      </trkpt>
      <trkpt lat="43.6732" lon="-0.58834">
        <ele>120</ele>
      </trkpt>
      <trkpt lat="43.67329" lon="-0.58827">
        <ele>120.2</ele>
      </trkpt>
      <trkpt lat="43.67338" lon="-0.5882">
        <ele>120.7</ele>
      </trkpt>
      <trkpt lat="43.67348" lon="-0.58813">
        <ele>121.4</ele>
      </trkpt>
      <trkpt lat="43.67359" lon="-0.58806">
        <ele>121.9</ele>
      </trkpt>
      <trkpt lat="43.67389" lon="-0.58785">
        <ele>121.7</ele>
      </trkpt>
      <trkpt lat="43.674" lon="-0.58781">
        <ele>121.5</ele>
      </trkpt>
      <trkpt lat="43.67421" lon="-0.58772">
        <ele>120.6</ele>
      </trkpt>
      <trkpt lat="43.6743" lon="-0.58772">
        <ele>120.7</ele>
      </trkpt>
      <trkpt lat="43.67439" lon="-0.58773">
        <ele>120.8</ele>
      </trkpt>
      <trkpt lat="43.67462" lon="-0.58779">
        <ele>122.3</ele>
      </trkpt>
      <trkpt lat="43.67473" lon="-0.58783">
        <ele>123.3</ele>
      </trkpt>
      <trkpt lat="43.67497" lon="-0.58798">
        <ele>125.1</ele>
      </trkpt>
      <trkpt lat="43.67509" lon="-0.58806">
        <ele>125.6</ele>
      </trkpt>
      <trkpt lat="43.67521" lon="-0.58815">
        <ele>126.7</ele>
      </trkpt>
      <trkpt lat="43.67532" lon="-0.58825">
        <ele>127.1</ele>
      </trkpt>
      <trkpt lat="43.67568" lon="-0.58853">
        <ele>126.8</ele>
      </trkpt>
      <trkpt lat="43.67586" lon="-0.58875">
        <ele>126.1</ele>
      </trkpt>
      <trkpt lat="43.67595" lon="-0.58887">
        <ele>126.5</ele>
      </trkpt>
      <trkpt lat="43.67609" lon="-0.58918">
        <ele>124.8</ele>
      </trkpt>
      <trkpt lat="43.6763" lon="-0.58966">
        <ele>125.6</ele>
      </trkpt>
      <trkpt lat="43.67658" lon="-0.59029">
        <ele>127.1</ele>
      </trkpt>
      <trkpt lat="43.67676" lon="-0.59056">
        <ele>129.3</ele>
      </trkpt>
      <trkpt lat="43.67712" lon="-0.59111">
        <ele>130.4</ele>
      </trkpt>
      <trkpt lat="43.67721" lon="-0.59125">
        <ele>130.5</ele>
      </trkpt>
      <trkpt lat="43.67748" lon="-0.59151">
        <ele>129.5</ele>
      </trkpt>
      <trkpt lat="43.6778" lon="-0.59175">
        <ele>129</ele>
      </trkpt>
      <trkpt lat="43.6779" lon="-0.59183">
        <ele>128.7</ele>
      </trkpt>
      <trkpt lat="43.67801" lon="-0.59188">
        <ele>128.4</ele>
      </trkpt>
      <trkpt lat="43.67811" lon="-0.59194">
        <ele>128</ele>
      </trkpt>
      <trkpt lat="43.67822" lon="-0.59199">
        <ele>128.1</ele>
      </trkpt>
      <trkpt lat="43.67842" lon="-0.59214">
        <ele>127.5</ele>
      </trkpt>
      <trkpt lat="43.67851" lon="-0.59222">
        <ele>126.7</ele>
      </trkpt>
      <trkpt lat="43.67861" lon="-0.59229">
        <ele>126.5</ele>
      </trkpt>
      <trkpt lat="43.67869" lon="-0.59237">
        <ele>126.5</ele>
      </trkpt>
      <trkpt lat="43.67883" lon="-0.59254">
        <ele>125.8</ele>
      </trkpt>
      <trkpt lat="43.67891" lon="-0.59266">
        <ele>126</ele>
      </trkpt>
      <trkpt lat="43.67899" lon="-0.59279">
        <ele>126.3</ele>
      </trkpt>
      <trkpt lat="43.67906" lon="-0.59295">
        <ele>125.8</ele>
      </trkpt>
      <trkpt lat="43.6792" lon="-0.59327">
        <ele>125.6</ele>
      </trkpt>
      <trkpt lat="43.67927" lon="-0.59343">
        <ele>125.6</ele>
      </trkpt>
      <trkpt lat="43.67939" lon="-0.59363">
        <ele>125.5</ele>
      </trkpt>
      <trkpt lat="43.67945" lon="-0.59372">
        <ele>125.8</ele>
      </trkpt>
      <trkpt lat="43.67992" lon="-0.59428">
        <ele>124.7</ele>
      </trkpt>
      <trkpt lat="43.68001" lon="-0.59439">
        <ele>123.9</ele>
      </trkpt>
      <trkpt lat="43.68022" lon="-0.5946">
        <ele>123.1</ele>
      </trkpt>
      <trkpt lat="43.68085" lon="-0.59523">
        <ele>120.2</ele>
      </trkpt>
      <trkpt lat="43.68089" lon="-0.59527">
        <ele>120</ele>
      </trkpt>
      <trkpt lat="43.68166" lon="-0.59605">
        <ele>120.4</ele>
      </trkpt>
      <trkpt lat="43.68247" lon="-0.59686">
        <ele>121.9</ele>
      </trkpt>
      <trkpt lat="43.68251" lon="-0.5969">
        <ele>122</ele>
      </trkpt>
      <trkpt lat="43.68255" lon="-0.59695">
        <ele>122.2</ele>
      </trkpt>
      <trkpt lat="43.68412" lon="-0.59852">
        <ele>122.3</ele>
      </trkpt>
      <trkpt lat="43.68427" lon="-0.59867">
        <ele>121</ele>
      </trkpt>
      <trkpt lat="43.68442" lon="-0.59882">
        <ele>118.8</ele>
      </trkpt>
      <trkpt lat="43.6845" lon="-0.59887">
        <ele>117.8</ele>
      </trkpt>
      <trkpt lat="43.68485" lon="-0.59907">
        <ele>113.1</ele>
      </trkpt>
      <trkpt lat="43.68493" lon="-0.59907">
        <ele>112.3</ele>
      </trkpt>
      <trkpt lat="43.68509" lon="-0.59909">
        <ele>110.9</ele>
      </trkpt>
      <trkpt lat="43.68517" lon="-0.59903">
        <ele>111</ele>
      </trkpt>
      <trkpt lat="43.68533" lon="-0.59891">
        <ele>110.3</ele>
      </trkpt>
      <trkpt lat="43.68541" lon="-0.59883">
        <ele>109.7</ele>
      </trkpt>
      <trkpt lat="43.68549" lon="-0.59876">
        <ele>108.9</ele>
      </trkpt>
      <trkpt lat="43.68609" lon="-0.59812">
        <ele>98.4</ele>
      </trkpt>
      <trkpt lat="43.68618" lon="-0.59808">
        <ele>97.1</ele>
      </trkpt>
      <trkpt lat="43.68662" lon="-0.59788">
        <ele>91.2</ele>
      </trkpt>
      <trkpt lat="43.68681" lon="-0.59786">
        <ele>88</ele>
      </trkpt>
      <trkpt lat="43.6869" lon="-0.59784">
        <ele>86.2</ele>
      </trkpt>
      <trkpt lat="43.68699" lon="-0.59783">
        <ele>84.5</ele>
      </trkpt>
      <trkpt lat="43.68707" lon="-0.59784">
        <ele>83.2</ele>
      </trkpt>
      <trkpt lat="43.68723" lon="-0.59786">
        <ele>80.7</ele>
      </trkpt>
      <trkpt lat="43.6874" lon="-0.59788">
        <ele>79.8</ele>
      </trkpt>
      <trkpt lat="43.68748" lon="-0.59789">
        <ele>79.5</ele>
      </trkpt>
      <trkpt lat="43.68766" lon="-0.59793">
        <ele>78.7</ele>
      </trkpt>
      <trkpt lat="43.68774" lon="-0.59793">
        <ele>78.3</ele>
      </trkpt>
      <trkpt lat="43.68782" lon="-0.59792">
        <ele>77.4</ele>
      </trkpt>
      <trkpt lat="43.6879" lon="-0.59791">
        <ele>76.3</ele>
      </trkpt>
      <trkpt lat="43.6881" lon="-0.59783">
        <ele>74.2</ele>
      </trkpt>
      <trkpt lat="43.6882" lon="-0.59779">
        <ele>73.4</ele>
      </trkpt>
      <trkpt lat="43.68892" lon="-0.59749">
        <ele>71</ele>
      </trkpt>
      <trkpt lat="43.68902" lon="-0.59745">
        <ele>70.8</ele>
      </trkpt>
      <trkpt lat="43.68912" lon="-0.5974">
        <ele>70.6</ele>
      </trkpt>
      <trkpt lat="43.68972" lon="-0.59712">
        <ele>70</ele>
      </trkpt>
      <trkpt lat="43.69032" lon="-0.59684">
        <ele>68</ele>
      </trkpt>
      <trkpt lat="43.69042" lon="-0.59679">
        <ele>68</ele>
      </trkpt>
      <trkpt lat="43.69051" lon="-0.59675">
        <ele>68</ele>
      </trkpt>
      <trkpt lat="43.6907" lon="-0.59667">
        <ele>68</ele>
      </trkpt>
      <trkpt lat="43.69079" lon="-0.59662">
        <ele>68.1</ele>
      </trkpt>
      <trkpt lat="43.69088" lon="-0.59658">
        <ele>68.4</ele>
      </trkpt>
      <trkpt lat="43.69108" lon="-0.59646">
        <ele>69</ele>
      </trkpt>
      <trkpt lat="43.69117" lon="-0.59639">
        <ele>69.4</ele>
      </trkpt>
      <trkpt lat="43.69127" lon="-0.59633">
        <ele>70.3</ele>
      </trkpt>
      <trkpt lat="43.69147" lon="-0.5962">
        <ele>71.3</ele>
      </trkpt>
      <trkpt lat="43.69166" lon="-0.59608">
        <ele>71.4</ele>
      </trkpt>
      <trkpt lat="43.69174" lon="-0.59604">
        <ele>72.5</ele>
      </trkpt>
      <trkpt lat="43.69191" lon="-0.59596">
        <ele>73.8</ele>
      </trkpt>
      <trkpt lat="43.69199" lon="-0.59593">
        <ele>74.2</ele>
      </trkpt>
      <trkpt lat="43.69208" lon="-0.59589">
        <ele>74.8</ele>
      </trkpt>
      <trkpt lat="43.69283" lon="-0.59544">
        <ele>81.2</ele>
      </trkpt>
      <trkpt lat="43.69286" lon="-0.59542">
        <ele>81.2</ele>
      </trkpt>
      <trkpt lat="43.69304" lon="-0.59529">
        <ele>81</ele>
      </trkpt>
      <trkpt lat="43.69314" lon="-0.59519">
        <ele>81.9</ele>
      </trkpt>
      <trkpt lat="43.69324" lon="-0.59511">
        <ele>82.8</ele>
      </trkpt>
      <trkpt lat="43.69339" lon="-0.59504">
        <ele>83.6</ele>
      </trkpt>
      <trkpt lat="43.69383" lon="-0.59495">
        <ele>84.2</ele>
      </trkpt>
      <trkpt lat="43.69556" lon="-0.59471">
        <ele>86.1</ele>
      </trkpt>
      <trkpt lat="43.69569" lon="-0.59471">
        <ele>85.6</ele>
      </trkpt>
      <trkpt lat="43.69585" lon="-0.59479">
        <ele>85</ele>
      </trkpt>
      <trkpt lat="43.69636" lon="-0.59517">
        <ele>81.6</ele>
      </trkpt>
      <trkpt lat="43.6965" lon="-0.59523">
        <ele>79.9</ele>
      </trkpt>
      <trkpt lat="43.69662" lon="-0.59522">
        <ele>78.5</ele>
      </trkpt>
      <trkpt lat="43.69699" lon="-0.59508">
        <ele>75.4</ele>
      </trkpt>
      <trkpt lat="43.69709" lon="-0.59507">
        <ele>74.7</ele>
      </trkpt>
      <trkpt lat="43.69733" lon="-0.59514">
        <ele>73.4</ele>
      </trkpt>
      <trkpt lat="43.69793" lon="-0.59548">
        <ele>68.9</ele>
      </trkpt>
      <trkpt lat="43.69852" lon="-0.59587">
        <ele>63.2</ele>
      </trkpt>
      <trkpt lat="43.69866" lon="-0.59598">
        <ele>62.3</ele>
      </trkpt>
      <trkpt lat="43.69874" lon="-0.59627">
        <ele>60.6</ele>
      </trkpt>
      <trkpt lat="43.69887" lon="-0.59696">
        <ele>58.9</ele>
      </trkpt>
      <trkpt lat="43.69907" lon="-0.59757">
        <ele>59</ele>
      </trkpt>
      <trkpt lat="43.69926" lon="-0.59818">
        <ele>63.9</ele>
      </trkpt>
      <trkpt lat="43.69935" lon="-0.59829">
        <ele>62</ele>
      </trkpt>
      <trkpt lat="43.69951" lon="-0.59825">
        <ele>61.4</ele>
      </trkpt>
      <trkpt lat="43.6999" lon="-0.59807">
        <ele>60.1</ele>
      </trkpt>
      <trkpt lat="43.70107" lon="-0.59738">
        <ele>63</ele>
      </trkpt>
      <trkpt lat="43.70119" lon="-0.59737">
        <ele>63.6</ele>
      </trkpt>
      <trkpt lat="43.7013" lon="-0.59742">
        <ele>64.3</ele>
      </trkpt>
      <trkpt lat="43.70165" lon="-0.59773">
        <ele>67.9</ele>
      </trkpt>
      <trkpt lat="43.70191" lon="-0.5979">
        <ele>71.2</ele>
      </trkpt>
      <trkpt lat="43.70208" lon="-0.59796">
        <ele>72</ele>
      </trkpt>
      <trkpt lat="43.70228" lon="-0.59799">
        <ele>72.3</ele>
      </trkpt>
      <trkpt lat="43.70264" lon="-0.598">
        <ele>71.6</ele>
      </trkpt>
      <trkpt lat="43.70266" lon="-0.5981">
        <ele>72.2</ele>
      </trkpt>
      <trkpt lat="43.70276" lon="-0.59893">
        <ele>77.5</ele>
      </trkpt>
      <trkpt lat="43.70287" lon="-0.59963">
        <ele>83.1</ele>
      </trkpt>
      <trkpt lat="43.70313" lon="-0.60073">
        <ele>88.5</ele>
      </trkpt>
      <trkpt lat="43.70326" lon="-0.60123">
        <ele>91.4</ele>
      </trkpt>
      <trkpt lat="43.70349" lon="-0.60186">
        <ele>91.3</ele>
      </trkpt>
      <trkpt lat="43.70377" lon="-0.60257">
        <ele>90.4</ele>
      </trkpt>
      <trkpt lat="43.70397" lon="-0.60313">
        <ele>90.2</ele>
      </trkpt>
      <trkpt lat="43.70405" lon="-0.60365">
        <ele>90.7</ele>
      </trkpt>
      <trkpt lat="43.70407" lon="-0.60434">
        <ele>90.8</ele>
      </trkpt>
      <trkpt lat="43.70472" lon="-0.60445">
        <ele>92.1</ele>
      </trkpt>
      <trkpt lat="43.7053" lon="-0.60459">
        <ele>90.4</ele>
      </trkpt>
      <trkpt lat="43.7057" lon="-0.60462">
        <ele>89.3</ele>
      </trkpt>
      <trkpt lat="43.70653" lon="-0.60459">
        <ele>86.9</ele>
      </trkpt>
      <trkpt lat="43.70712" lon="-0.60453">
        <ele>84.2</ele>
      </trkpt>
      <trkpt lat="43.7074" lon="-0.60437">
        <ele>82.3</ele>
      </trkpt>
      <trkpt lat="43.70835" lon="-0.60381">
        <ele>74.9</ele>
      </trkpt>
      <trkpt lat="43.70883" lon="-0.60358">
        <ele>72.5</ele>
      </trkpt>
      <trkpt lat="43.70915" lon="-0.60347">
        <ele>71.6</ele>
      </trkpt>
      <trkpt lat="43.70957" lon="-0.60336">
        <ele>69.1</ele>
      </trkpt>
      <trkpt lat="43.70992" lon="-0.60334">
        <ele>67.3</ele>
      </trkpt>
      <trkpt lat="43.71026" lon="-0.60337">
        <ele>66.9</ele>
      </trkpt>
      <trkpt lat="43.71072" lon="-0.60354">
        <ele>64.1</ele>
      </trkpt>
      <trkpt lat="43.71206" lon="-0.60397">
        <ele>55.9</ele>
      </trkpt>
      <trkpt lat="43.7123" lon="-0.6041">
        <ele>54.7</ele>
      </trkpt>
      <trkpt lat="43.71274" lon="-0.60447">
        <ele>54.2</ele>
      </trkpt>
      <trkpt lat="43.71359" lon="-0.60525">
        <ele>56.2</ele>
      </trkpt>
      <trkpt lat="43.71402" lon="-0.60556">
        <ele>56.6</ele>
      </trkpt>
      <trkpt lat="43.71439" lon="-0.60578">
        <ele>56.8</ele>
      </trkpt>
      <trkpt lat="43.71527" lon="-0.60629">
        <ele>55.3</ele>
      </trkpt>
      <trkpt lat="43.71568" lon="-0.60645">
        <ele>54</ele>
      </trkpt>
      <trkpt lat="43.71616" lon="-0.60655">
        <ele>52.8</ele>
      </trkpt>
      <trkpt lat="43.71654" lon="-0.60652">
        <ele>52</ele>
      </trkpt>
      <trkpt lat="43.71688" lon="-0.60654">
        <ele>51.7</ele>
      </trkpt>
      <trkpt lat="43.71738" lon="-0.6066">
        <ele>50.9</ele>
      </trkpt>
      <trkpt lat="43.71769" lon="-0.60669">
        <ele>50.5</ele>
      </trkpt>
      <trkpt lat="43.71825" lon="-0.60691">
        <ele>50.5</ele>
      </trkpt>
      <trkpt lat="43.71878" lon="-0.60703">
        <ele>50.3</ele>
      </trkpt>
      <trkpt lat="43.71956" lon="-0.60706">
        <ele>50.9</ele>
      </trkpt>
      <trkpt lat="43.71965" lon="-0.60697">
        <ele>50.8</ele>
      </trkpt>
      <trkpt lat="43.71994" lon="-0.60652">
        <ele>49.9</ele>
      </trkpt>
      <trkpt lat="43.72013" lon="-0.60628">
        <ele>49.6</ele>
      </trkpt>
      <trkpt lat="43.72045" lon="-0.60597">
        <ele>49.3</ele>
      </trkpt>
      <trkpt lat="43.72115" lon="-0.60526">
        <ele>49.8</ele>
      </trkpt>
      <trkpt lat="43.72219" lon="-0.60419">
        <ele>51</ele>
      </trkpt>
      <trkpt lat="43.72302" lon="-0.60331">
        <ele>49.4</ele>
      </trkpt>
      <trkpt lat="43.72329" lon="-0.60313">
        <ele>47.5</ele>
      </trkpt>
      <trkpt lat="43.72372" lon="-0.60293">
        <ele>47.9</ele>
      </trkpt>
      <trkpt lat="43.72431" lon="-0.60272">
        <ele>47.8</ele>
      </trkpt>
      <trkpt lat="43.72472" lon="-0.60266">
        <ele>47.8</ele>
      </trkpt>
      <trkpt lat="43.72556" lon="-0.60263">
        <ele>49.5</ele>
      </trkpt>
      <trkpt lat="43.72656" lon="-0.60263">
        <ele>52.8</ele>
      </trkpt>
      <trkpt lat="43.72689" lon="-0.60273">
        <ele>56.4</ele>
      </trkpt>
      <trkpt lat="43.72743" lon="-0.60293">
        <ele>58.5</ele>
      </trkpt>
      <trkpt lat="43.72768" lon="-0.60292">
        <ele>56.9</ele>
      </trkpt>
      <trkpt lat="43.72825" lon="-0.60297">
        <ele>52</ele>
      </trkpt>
      <trkpt lat="43.72857" lon="-0.60311">
        <ele>48.7</ele>
      </trkpt>
      <trkpt lat="43.72861" lon="-0.60301">
        <ele>48</ele>
      </trkpt>
      <trkpt lat="43.72858" lon="-0.60282">
        <ele>48.1</ele>
      </trkpt>
      <trkpt lat="43.72854" lon="-0.60238">
        <ele>47.1</ele>
      </trkpt>
      <trkpt lat="43.72876" lon="-0.60242">
        <ele>45.6</ele>
      </trkpt>
      <trkpt lat="43.72901" lon="-0.60241">
        <ele>44.6</ele>
      </trkpt>
      <trkpt lat="43.72922" lon="-0.60235">
        <ele>44</ele>
      </trkpt>
      <trkpt lat="43.72983" lon="-0.60224">
        <ele>44.4</ele>
      </trkpt>
      <trkpt lat="43.73037" lon="-0.60216">
        <ele>47.6</ele>
      </trkpt>
      <trkpt lat="43.73047" lon="-0.60217">
        <ele>48.6</ele>
      </trkpt>
      <trkpt lat="43.73072" lon="-0.60227">
        <ele>49.5</ele>
      </trkpt>
      <trkpt lat="43.73086" lon="-0.60231">
        <ele>50.2</ele>
      </trkpt>
      <trkpt lat="43.73109" lon="-0.60236">
        <ele>50.5</ele>
      </trkpt>
      <trkpt lat="43.73128" lon="-0.60236">
        <ele>49.7</ele>
      </trkpt>
      <trkpt lat="43.73204" lon="-0.60221">
        <ele>46.8</ele>
      </trkpt>
      <trkpt lat="43.73367" lon="-0.60206">
        <ele>46.8</ele>
      </trkpt>
      <trkpt lat="43.73379" lon="-0.6021">
        <ele>47</ele>
      </trkpt>
      <trkpt lat="43.7339" lon="-0.6022">
        <ele>46.3</ele>
      </trkpt>
      <trkpt lat="43.73391" lon="-0.60226">
        <ele>46</ele>
      </trkpt>
      <trkpt lat="43.73391" lon="-0.6025">
        <ele>45.2</ele>
      </trkpt>
      <trkpt lat="43.73401" lon="-0.60372">
        <ele>44.4</ele>
      </trkpt>
      <trkpt lat="43.73406" lon="-0.60382">
        <ele>44.6</ele>
      </trkpt>
      <trkpt lat="43.73416" lon="-0.60394">
        <ele>45</ele>
      </trkpt>
      <trkpt lat="43.73466" lon="-0.60433">
        <ele>44.2</ele>
      </trkpt>
      <trkpt lat="43.73481" lon="-0.60447">
        <ele>43.9</ele>
      </trkpt>
      <trkpt lat="43.735" lon="-0.60481">
        <ele>43.7</ele>
      </trkpt>
      <trkpt lat="43.73542" lon="-0.60517">
        <ele>43.2</ele>
      </trkpt>
      <trkpt lat="43.73588" lon="-0.60552">
        <ele>42.5</ele>
      </trkpt>
      <trkpt lat="43.73603" lon="-0.60561">
        <ele>43.2</ele>
      </trkpt>
      <trkpt lat="43.7364" lon="-0.60574">
        <ele>43</ele>
      </trkpt>
      <trkpt lat="43.73778" lon="-0.6061">
        <ele>41</ele>
      </trkpt>
      <trkpt lat="43.7379" lon="-0.60612">
        <ele>41</ele>
      </trkpt>
      <trkpt lat="43.73803" lon="-0.6061">
        <ele>41</ele>
      </trkpt>
      <trkpt lat="43.73855" lon="-0.6059">
        <ele>39.3</ele>
      </trkpt>
      <trkpt lat="43.73856" lon="-0.60581">
        <ele>39.5</ele>
      </trkpt>
      <trkpt lat="43.73835" lon="-0.60511">
        <ele>40</ele>
      </trkpt>
      <trkpt lat="43.73817" lon="-0.60439">
        <ele>39.1</ele>
      </trkpt>
      <trkpt lat="43.73804" lon="-0.60378">
        <ele>40.3</ele>
      </trkpt>
      <trkpt lat="43.73799" lon="-0.60329">
        <ele>39.6</ele>
      </trkpt>
      <trkpt lat="43.73801" lon="-0.60236">
        <ele>39.6</ele>
      </trkpt>
      <trkpt lat="43.73803" lon="-0.60123">
        <ele>39.8</ele>
      </trkpt>
      <trkpt lat="43.73808" lon="-0.60112">
        <ele>40</ele>
      </trkpt>
      <trkpt lat="43.73823" lon="-0.60093">
        <ele>39.5</ele>
      </trkpt>
      <trkpt lat="43.7385" lon="-0.60067">
        <ele>39.6</ele>
      </trkpt>
      <trkpt lat="43.73987" lon="-0.5996">
        <ele>40.2</ele>
      </trkpt>
      <trkpt lat="43.74423" lon="-0.59639">
        <ele>44.2</ele>
      </trkpt>
      <trkpt lat="43.74491" lon="-0.59591">
        <ele>45.7</ele>
      </trkpt>
      <trkpt lat="43.74345" lon="-0.5925">
        <ele>45</ele>
      </trkpt>
      <trkpt lat="43.74355" lon="-0.59234">
        <ele>45</ele>
      </trkpt>
      <trkpt lat="43.74364" lon="-0.59206">
        <ele>45.1</ele>
      </trkpt>
      <trkpt lat="43.74387" lon="-0.59137">
        <ele>46.2</ele>
      </trkpt>
      <trkpt lat="43.74396" lon="-0.59114">
        <ele>48.1</ele>
      </trkpt>
      <trkpt lat="43.74417" lon="-0.59089">
        <ele>48.2</ele>
      </trkpt>
      <trkpt lat="43.74427" lon="-0.59072">
        <ele>50</ele>
      </trkpt>
      <trkpt lat="43.74436" lon="-0.59037">
        <ele>53</ele>
      </trkpt>
      <trkpt lat="43.74446" lon="-0.58962">
        <ele>57.2</ele>
      </trkpt>
      <trkpt lat="43.74452" lon="-0.58922">
        <ele>59.8</ele>
      </trkpt>
      <trkpt lat="43.7447" lon="-0.58877">
        <ele>61</ele>
      </trkpt>
      <trkpt lat="43.7451" lon="-0.58806">
        <ele>62</ele>
      </trkpt>
      <trkpt lat="43.74526" lon="-0.58782">
        <ele>62</ele>
      </trkpt>
      <trkpt lat="43.74547" lon="-0.58764">
        <ele>62.8</ele>
      </trkpt>
      <trkpt lat="43.74567" lon="-0.58762">
        <ele>63</ele>
      </trkpt>
      <trkpt lat="43.74614" lon="-0.58776">
        <ele>63.1</ele>
      </trkpt>
      <trkpt lat="43.74646" lon="-0.58776">
        <ele>63</ele>
      </trkpt>
      <trkpt lat="43.74658" lon="-0.58774">
        <ele>63</ele>
      </trkpt>
      <trkpt lat="43.74679" lon="-0.58756">
        <ele>63</ele>
      </trkpt>
      <trkpt lat="43.74721" lon="-0.5869">
        <ele>59.5</ele>
      </trkpt>
      <trkpt lat="43.7473" lon="-0.58678">
        <ele>59.4</ele>
      </trkpt>
      <trkpt lat="43.74738" lon="-0.58674">
        <ele>58.6</ele>
      </trkpt>
      <trkpt lat="43.74762" lon="-0.58674">
        <ele>57.2</ele>
      </trkpt>
      <trkpt lat="43.74781" lon="-0.58674">
        <ele>57.2</ele>
      </trkpt>
      <trkpt lat="43.74805" lon="-0.58668">
        <ele>59</ele>
      </trkpt>
      <trkpt lat="43.74851" lon="-0.58637">
        <ele>63.1</ele>
      </trkpt>
      <trkpt lat="43.74884" lon="-0.58606">
        <ele>64.5</ele>
      </trkpt>
      <trkpt lat="43.74907" lon="-0.58592">
        <ele>65.1</ele>
      </trkpt>
      <trkpt lat="43.74961" lon="-0.58559">
        <ele>66.9</ele>
      </trkpt>
      <trkpt lat="43.74983" lon="-0.58532">
        <ele>67.9</ele>
      </trkpt>
      <trkpt lat="43.74995" lon="-0.58506">
        <ele>68.1</ele>
      </trkpt>
      <trkpt lat="43.75007" lon="-0.58477">
        <ele>69.9</ele>
      </trkpt>
      <trkpt lat="43.75033" lon="-0.58412">
        <ele>74</ele>
      </trkpt>
      <trkpt lat="43.75054" lon="-0.58355">
        <ele>79</ele>
      </trkpt>
      <trkpt lat="43.75066" lon="-0.58334">
        <ele>81.5</ele>
      </trkpt>
      <trkpt lat="43.75091" lon="-0.58316">
        <ele>83.1</ele>
      </trkpt>
      <trkpt lat="43.75126" lon="-0.58293">
        <ele>88.5</ele>
      </trkpt>
      <trkpt lat="43.75156" lon="-0.58273">
        <ele>92.2</ele>
      </trkpt>
      <trkpt lat="43.75151" lon="-0.58268">
        <ele>91.9</ele>
      </trkpt>
      <trkpt lat="43.75118" lon="-0.58245">
        <ele>88.9</ele>
      </trkpt>
      <trkpt lat="43.75096" lon="-0.58219">
        <ele>90.3</ele>
      </trkpt>
      <trkpt lat="43.75087" lon="-0.58197">
        <ele>91.8</ele>
      </trkpt>
      <trkpt lat="43.75083" lon="-0.58166">
        <ele>92</ele>
      </trkpt>
      <trkpt lat="43.7508" lon="-0.58088">
        <ele>93</ele>
      </trkpt>
      <trkpt lat="43.75079" lon="-0.58044">
        <ele>92.8</ele>
      </trkpt>
      <trkpt lat="43.75083" lon="-0.58011">
        <ele>93.6</ele>
      </trkpt>
      <trkpt lat="43.75092" lon="-0.57984">
        <ele>94.3</ele>
      </trkpt>
      <trkpt lat="43.75105" lon="-0.57954">
        <ele>94.3</ele>
      </trkpt>
      <trkpt lat="43.75107" lon="-0.57939">
        <ele>94</ele>
      </trkpt>
      <trkpt lat="43.75109" lon="-0.57908">
        <ele>93.9</ele>
      </trkpt>
      <trkpt lat="43.75114" lon="-0.57881">
        <ele>94.2</ele>
      </trkpt>
      <trkpt lat="43.75134" lon="-0.57803">
        <ele>95.9</ele>
      </trkpt>
      <trkpt lat="43.75142" lon="-0.57784">
        <ele>96.8</ele>
      </trkpt>
      <trkpt lat="43.75151" lon="-0.57767">
        <ele>96.8</ele>
      </trkpt>
      <trkpt lat="43.75158" lon="-0.5776">
        <ele>96.6</ele>
      </trkpt>
      <trkpt lat="43.75168" lon="-0.57755">
        <ele>96.2</ele>
      </trkpt>
      <trkpt lat="43.7518" lon="-0.57741">
        <ele>96.2</ele>
      </trkpt>
      <trkpt lat="43.75242" lon="-0.5761">
        <ele>96</ele>
      </trkpt>
      <trkpt lat="43.75254" lon="-0.57561">
        <ele>95</ele>
      </trkpt>
      <trkpt lat="43.75258" lon="-0.57548">
        <ele>95.2</ele>
      </trkpt>
      <trkpt lat="43.75272" lon="-0.57507">
        <ele>95.8</ele>
      </trkpt>
      <trkpt lat="43.75282" lon="-0.5749">
        <ele>96.2</ele>
      </trkpt>
      <trkpt lat="43.75293" lon="-0.57476">
        <ele>95.9</ele>
      </trkpt>
      <trkpt lat="43.75305" lon="-0.57458">
        <ele>95</ele>
      </trkpt>
      <trkpt lat="43.75317" lon="-0.57434">
        <ele>95.2</ele>
      </trkpt>
      <trkpt lat="43.75328" lon="-0.57421">
        <ele>95.2</ele>
      </trkpt>
      <trkpt lat="43.75344" lon="-0.57412">
        <ele>95.5</ele>
      </trkpt>
      <trkpt lat="43.7539" lon="-0.57402">
        <ele>96.6</ele>
      </trkpt>
      <trkpt lat="43.75383" lon="-0.57339">
        <ele>97</ele>
      </trkpt>
      <trkpt lat="43.7538" lon="-0.57248">
        <ele>99</ele>
      </trkpt>
      <trkpt lat="43.75384" lon="-0.57068">
        <ele>100.5</ele>
      </trkpt>
      <trkpt lat="43.75393" lon="-0.57068">
        <ele>100.6</ele>
      </trkpt>
      <trkpt lat="43.75412" lon="-0.57069">
        <ele>100.9</ele>
      </trkpt>
      <trkpt lat="43.75451" lon="-0.57069">
        <ele>101.2</ele>
      </trkpt>
      <trkpt lat="43.7548" lon="-0.5707">
        <ele>102</ele>
      </trkpt>
      <trkpt lat="43.75499" lon="-0.5707">
        <ele>102</ele>
      </trkpt>
      <trkpt lat="43.75508" lon="-0.57068">
        <ele>102</ele>
      </trkpt>
      <trkpt lat="43.75517" lon="-0.57066">
        <ele>102</ele>
      </trkpt>
      <trkpt lat="43.75525" lon="-0.57064">
        <ele>102</ele>
      </trkpt>
      <trkpt lat="43.75534" lon="-0.57062">
        <ele>102</ele>
      </trkpt>
      <trkpt lat="43.75543" lon="-0.57068">
        <ele>102</ele>
      </trkpt>
      <trkpt lat="43.7556" lon="-0.57082">
        <ele>102</ele>
      </trkpt>
      <trkpt lat="43.75577" lon="-0.57096">
        <ele>102.4</ele>
      </trkpt>
      <trkpt lat="43.75629" lon="-0.57137">
        <ele>102</ele>
      </trkpt>
      <trkpt lat="43.75638" lon="-0.57144">
        <ele>102</ele>
      </trkpt>
      <trkpt lat="43.75664" lon="-0.57162">
        <ele>102.2</ele>
      </trkpt>
      <trkpt lat="43.75673" lon="-0.57168">
        <ele>102</ele>
      </trkpt>
      <trkpt lat="43.75698" lon="-0.57178">
        <ele>102</ele>
      </trkpt>
      <trkpt lat="43.75707" lon="-0.57181">
        <ele>102</ele>
      </trkpt>
      <trkpt lat="43.75716" lon="-0.57184">
        <ele>102</ele>
      </trkpt>
      <trkpt lat="43.7576" lon="-0.572">
        <ele>100.7</ele>
      </trkpt>
      <trkpt lat="43.75776" lon="-0.57206">
        <ele>100.4</ele>
      </trkpt>
      <trkpt lat="43.75818" lon="-0.57216">
        <ele>101</ele>
      </trkpt>
      <trkpt lat="43.75829" lon="-0.57217">
        <ele>101</ele>
      </trkpt>
      <trkpt lat="43.7588" lon="-0.57224">
        <ele>101.6</ele>
      </trkpt>
      <trkpt lat="43.75895" lon="-0.57234">
        <ele>101.6</ele>
      </trkpt>
      <trkpt lat="43.759" lon="-0.57238">
        <ele>101.4</ele>
      </trkpt>
      <trkpt lat="43.75902" lon="-0.57239">
        <ele>101.4</ele>
      </trkpt>
      <trkpt lat="43.75906" lon="-0.57245">
        <ele>101.2</ele>
      </trkpt>
      <trkpt lat="43.75922" lon="-0.57269">
        <ele>101</ele>
      </trkpt>
      <trkpt lat="43.75924" lon="-0.57271">
        <ele>101</ele>
      </trkpt>
      <trkpt lat="43.75926" lon="-0.57275">
        <ele>101</ele>
      </trkpt>
      <trkpt lat="43.75958" lon="-0.57326">
        <ele>101</ele>
      </trkpt>
      <trkpt lat="43.75964" lon="-0.57335">
        <ele>100.9</ele>
      </trkpt>
      <trkpt lat="43.75967" lon="-0.57342">
        <ele>100.7</ele>
      </trkpt>
      <trkpt lat="43.75975" lon="-0.57359">
        <ele>100</ele>
      </trkpt>
      <trkpt lat="43.7598" lon="-0.57369">
        <ele>99.7</ele>
      </trkpt>
      <trkpt lat="43.75981" lon="-0.57373">
        <ele>99.7</ele>
      </trkpt>
      <trkpt lat="43.75982" lon="-0.57379">
        <ele>99.6</ele>
      </trkpt>
      <trkpt lat="43.75987" lon="-0.57416">
        <ele>99</ele>
      </trkpt>
      <trkpt lat="43.75993" lon="-0.57453">
        <ele>98.5</ele>
      </trkpt>
      <trkpt lat="43.75993" lon="-0.57459">
        <ele>98.6</ele>
      </trkpt>
      <trkpt lat="43.76016" lon="-0.5745">
        <ele>98.2</ele>
      </trkpt>
      <trkpt lat="43.76029" lon="-0.57445">
        <ele>98</ele>
      </trkpt>
      <trkpt lat="43.76033" lon="-0.57442">
        <ele>98</ele>
      </trkpt>
      <trkpt lat="43.76064" lon="-0.57416">
        <ele>96.7</ele>
      </trkpt>
      <trkpt lat="43.76072" lon="-0.5741">
        <ele>96</ele>
      </trkpt>
      <trkpt lat="43.76078" lon="-0.57401">
        <ele>95.2</ele>
      </trkpt>
      <trkpt lat="43.76089" lon="-0.57383">
        <ele>94</ele>
      </trkpt>
      <trkpt lat="43.76091" lon="-0.57379">
        <ele>93.9</ele>
      </trkpt>
      <trkpt lat="43.76094" lon="-0.57374">
        <ele>93.7</ele>
      </trkpt>
      <trkpt lat="43.76099" lon="-0.57365">
        <ele>93</ele>
      </trkpt>
      <trkpt lat="43.76113" lon="-0.57337">
        <ele>90.9</ele>
      </trkpt>
      <trkpt lat="43.76129" lon="-0.5731">
        <ele>90.9</ele>
      </trkpt>
      <trkpt lat="43.76145" lon="-0.57285">
        <ele>92.1</ele>
      </trkpt>
      <trkpt lat="43.76163" lon="-0.57248">
        <ele>91</ele>
      </trkpt>
      <trkpt lat="43.76173" lon="-0.57223">
        <ele>87.6</ele>
      </trkpt>
      <trkpt lat="43.76184" lon="-0.57214">
        <ele>88.3</ele>
      </trkpt>
      <trkpt lat="43.76195" lon="-0.57206">
        <ele>83.6</ele>
      </trkpt>
      <trkpt lat="43.76206" lon="-0.57197">
        <ele>79.7</ele>
      </trkpt>
      <trkpt lat="43.76214" lon="-0.5719">
        <ele>78.5</ele>
      </trkpt>
      <trkpt lat="43.7623" lon="-0.57176">
        <ele>76.1</ele>
      </trkpt>
      <trkpt lat="43.76235" lon="-0.57161">
        <ele>73.6</ele>
      </trkpt>
      <trkpt lat="43.76239" lon="-0.57146">
        <ele>71.5</ele>
      </trkpt>
      <trkpt lat="43.76244" lon="-0.57131">
        <ele>67</ele>
      </trkpt>
      <trkpt lat="43.76248" lon="-0.57117">
        <ele>61.3</ele>
      </trkpt>
      <trkpt lat="43.76257" lon="-0.57112">
        <ele>58.7</ele>
      </trkpt>
      <trkpt lat="43.76265" lon="-0.57108">
        <ele>57.6</ele>
      </trkpt>
      <trkpt lat="43.76289" lon="-0.57071">
        <ele>55.7</ele>
      </trkpt>
      <trkpt lat="43.76306" lon="-0.57059">
        <ele>53.1</ele>
      </trkpt>
      <trkpt lat="43.76313" lon="-0.57031">
        <ele>52.2</ele>
      </trkpt>
      <trkpt lat="43.76316" lon="-0.57021">
        <ele>52</ele>
      </trkpt>
      <trkpt lat="43.76318" lon="-0.57012">
        <ele>51.7</ele>
      </trkpt>
      <trkpt lat="43.76324" lon="-0.56996">
        <ele>50.1</ele>
      </trkpt>
      <trkpt lat="43.76331" lon="-0.5698">
        <ele>48.5</ele>
      </trkpt>
      <trkpt lat="43.76339" lon="-0.56973">
        <ele>46.6</ele>
      </trkpt>
      <trkpt lat="43.76355" lon="-0.56958">
        <ele>44.1</ele>
      </trkpt>
      <trkpt lat="43.76365" lon="-0.56955">
        <ele>43.1</ele>
      </trkpt>
      <trkpt lat="43.76386" lon="-0.5695">
        <ele>42.2</ele>
      </trkpt>
      <trkpt lat="43.76409" lon="-0.56951">
        <ele>40.6</ele>
      </trkpt>
      <trkpt lat="43.7646" lon="-0.5695">
        <ele>39.5</ele>
      </trkpt>
      <trkpt lat="43.76486" lon="-0.56952">
        <ele>37.9</ele>
      </trkpt>
      <trkpt lat="43.76499" lon="-0.56954">
        <ele>36.5</ele>
      </trkpt>
      <trkpt lat="43.76524" lon="-0.56956">
        <ele>37.9</ele>
      </trkpt>
      <trkpt lat="43.76538" lon="-0.56958">
        <ele>37.9</ele>
      </trkpt>
      <trkpt lat="43.76577" lon="-0.56961">
        <ele>36.9</ele>
      </trkpt>
      <trkpt lat="43.76603" lon="-0.56964">
        <ele>36.6</ele>
      </trkpt>
      <trkpt lat="43.76616" lon="-0.56964">
        <ele>36.9</ele>
      </trkpt>
      <trkpt lat="43.76628" lon="-0.56964">
        <ele>37.9</ele>
      </trkpt>
      <trkpt lat="43.7664" lon="-0.56965">
        <ele>38.6</ele>
      </trkpt>
      <trkpt lat="43.76653" lon="-0.56965">
        <ele>37.2</ele>
      </trkpt>
      <trkpt lat="43.76665" lon="-0.56966">
        <ele>35.9</ele>
      </trkpt>
      <trkpt lat="43.76714" lon="-0.5697">
        <ele>33</ele>
      </trkpt>
      <trkpt lat="43.76763" lon="-0.56974">
        <ele>32.9</ele>
      </trkpt>
      <trkpt lat="43.76811" lon="-0.56978">
        <ele>38.9</ele>
      </trkpt>
      <trkpt lat="43.76812" lon="-0.56918">
        <ele>36.8</ele>
      </trkpt>
      <trkpt lat="43.76814" lon="-0.56857">
        <ele>35.4</ele>
      </trkpt>
      <trkpt lat="43.76815" lon="-0.56797">
        <ele>36.4</ele>
      </trkpt>
      <trkpt lat="43.76817" lon="-0.56729">
        <ele>36.9</ele>
      </trkpt>
      <trkpt lat="43.76818" lon="-0.56661">
        <ele>35.6</ele>
      </trkpt>
      <trkpt lat="43.76822" lon="-0.56526">
        <ele>35.4</ele>
      </trkpt>
      <trkpt lat="43.76823" lon="-0.56454">
        <ele>36</ele>
      </trkpt>
      <trkpt lat="43.76829" lon="-0.56168">
        <ele>39.3</ele>
      </trkpt>
      <trkpt lat="43.76828" lon="-0.56051">
        <ele>38.6</ele>
      </trkpt>
      <trkpt lat="43.76827" lon="-0.55992">
        <ele>38.1</ele>
      </trkpt>
      <trkpt lat="43.76826" lon="-0.55949">
        <ele>37</ele>
      </trkpt>
      <trkpt lat="43.76824" lon="-0.55905">
        <ele>39.7</ele>
      </trkpt>
      <trkpt lat="43.76825" lon="-0.55867">
        <ele>40.8</ele>
      </trkpt>
      <trkpt lat="43.76826" lon="-0.55829">
        <ele>36.5</ele>
      </trkpt>
      <trkpt lat="43.76835" lon="-0.55758">
        <ele>37.2</ele>
      </trkpt>
      <trkpt lat="43.76842" lon="-0.5572">
        <ele>38.6</ele>
      </trkpt>
      <trkpt lat="43.7685" lon="-0.55692">
        <ele>37.6</ele>
      </trkpt>
      <trkpt lat="43.76866" lon="-0.5566">
        <ele>37.8</ele>
      </trkpt>
      <trkpt lat="43.76891" lon="-0.55625">
        <ele>37.9</ele>
      </trkpt>
      <trkpt lat="43.76983" lon="-0.55525">
        <ele>38.8</ele>
      </trkpt>
      <trkpt lat="43.77026" lon="-0.55488">
        <ele>37.9</ele>
      </trkpt>
      <trkpt lat="43.7707" lon="-0.55451">
        <ele>38.2</ele>
      </trkpt>
      <trkpt lat="43.77113" lon="-0.55413">
        <ele>38.6</ele>
      </trkpt>
      <trkpt lat="43.772" lon="-0.55338">
        <ele>39.3</ele>
      </trkpt>
      <trkpt lat="43.77236" lon="-0.55307">
        <ele>39</ele>
      </trkpt>
      <trkpt lat="43.77272" lon="-0.55276">
        <ele>38.2</ele>
      </trkpt>
      <trkpt lat="43.7738" lon="-0.55183">
        <ele>39</ele>
      </trkpt>
      <trkpt lat="43.77409" lon="-0.55146">
        <ele>40</ele>
      </trkpt>
      <trkpt lat="43.77419" lon="-0.5513">
        <ele>40</ele>
      </trkpt>
      <trkpt lat="43.77425" lon="-0.55114">
        <ele>40</ele>
      </trkpt>
      <trkpt lat="43.7764" lon="-0.55315">
        <ele>40.3</ele>
      </trkpt>
      <trkpt lat="43.77633" lon="-0.5534">
        <ele>39</ele>
      </trkpt>
      <trkpt lat="43.77645" lon="-0.55346">
        <ele>39</ele>
      </trkpt>
      <trkpt lat="43.77659" lon="-0.55347">
        <ele>39</ele>
      </trkpt>
      <trkpt lat="43.77675" lon="-0.55337">
        <ele>39.2</ele>
      </trkpt>
      <trkpt lat="43.77683" lon="-0.55323">
        <ele>39.7</ele>
      </trkpt>
      <trkpt lat="43.77696" lon="-0.55307">
        <ele>40</ele>
      </trkpt>
      <trkpt lat="43.77717" lon="-0.55294">
        <ele>40</ele>
      </trkpt>
      <trkpt lat="43.77715" lon="-0.55338">
        <ele>40</ele>
      </trkpt>
      <trkpt lat="43.77709" lon="-0.55377">
        <ele>39.5</ele>
      </trkpt>
      <trkpt lat="43.77702" lon="-0.55416">
        <ele>39</ele>
      </trkpt>
      <trkpt lat="43.77743" lon="-0.55428">
        <ele>39</ele>
      </trkpt>
      <trkpt lat="43.77785" lon="-0.55439">
        <ele>39.7</ele>
      </trkpt>
      <trkpt lat="43.77782" lon="-0.55499">
        <ele>39</ele>
      </trkpt>
      <trkpt lat="43.77785" lon="-0.55537">
        <ele>39</ele>
      </trkpt>
      <trkpt lat="43.77789" lon="-0.55592">
        <ele>39.1</ele>
      </trkpt>
      <trkpt lat="43.7779" lon="-0.55655">
        <ele>39.4</ele>
      </trkpt>
      <trkpt lat="43.77774" lon="-0.55659">
        <ele>39</ele>
      </trkpt>
      <trkpt lat="43.77774" lon="-0.55668">
        <ele>39.1</ele>
      </trkpt>
      <trkpt lat="43.77796" lon="-0.5567">
        <ele>39.7</ele>
      </trkpt>
      <trkpt lat="43.77836" lon="-0.55663">
        <ele>39.9</ele>
      </trkpt>
      <trkpt lat="43.77918" lon="-0.5565">
        <ele>42</ele>
      </trkpt>
      <trkpt lat="43.7796" lon="-0.55643">
        <ele>42.1</ele>
      </trkpt>
      <trkpt lat="43.78005" lon="-0.55635">
        <ele>42</ele>
      </trkpt>
      <trkpt lat="43.7805" lon="-0.55627">
        <ele>42</ele>
      </trkpt>
      <trkpt lat="43.7809" lon="-0.5562">
        <ele>42.1</ele>
      </trkpt>
      <trkpt lat="43.7813" lon="-0.55614">
        <ele>42.1</ele>
      </trkpt>
      <trkpt lat="43.7817" lon="-0.55605">
        <ele>42.2</ele>
      </trkpt>
      <trkpt lat="43.78211" lon="-0.55597">
        <ele>43</ele>
      </trkpt>
      <trkpt lat="43.78248" lon="-0.55592">
        <ele>42.4</ele>
      </trkpt>
      <trkpt lat="43.78286" lon="-0.55587">
        <ele>43</ele>
      </trkpt>
      <trkpt lat="43.78325" lon="-0.55549">
        <ele>43</ele>
      </trkpt>
      <trkpt lat="43.78402" lon="-0.55474">
        <ele>43</ele>
      </trkpt>
      <trkpt lat="43.78596" lon="-0.55286">
        <ele>43.8</ele>
      </trkpt>
      <trkpt lat="43.78628" lon="-0.55234">
        <ele>43.8</ele>
      </trkpt>
      <trkpt lat="43.78693" lon="-0.55131">
        <ele>44</ele>
      </trkpt>
      <trkpt lat="43.78823" lon="-0.54924">
        <ele>45</ele>
      </trkpt>
      <trkpt lat="43.78853" lon="-0.5487">
        <ele>45</ele>
      </trkpt>
      <trkpt lat="43.78973" lon="-0.54656">
        <ele>46</ele>
      </trkpt>
      <trkpt lat="43.78981" lon="-0.54637">
        <ele>46</ele>
      </trkpt>
      <trkpt lat="43.7898" lon="-0.54625">
        <ele>46</ele>
      </trkpt>
      <trkpt lat="43.78973" lon="-0.54613">
        <ele>46</ele>
      </trkpt>
      <trkpt lat="43.78877" lon="-0.54415">
        <ele>47.2</ele>
      </trkpt>
      <trkpt lat="43.78857" lon="-0.54374">
        <ele>45.9</ele>
      </trkpt>
      <trkpt lat="43.78857" lon="-0.54364">
        <ele>45.9</ele>
      </trkpt>
      <trkpt lat="43.78869" lon="-0.54339">
        <ele>46.7</ele>
      </trkpt>
      <trkpt lat="43.78901" lon="-0.54286">
        <ele>48</ele>
      </trkpt>
      <trkpt lat="43.78963" lon="-0.54242">
        <ele>50.8</ele>
      </trkpt>
      <trkpt lat="43.78998" lon="-0.54227">
        <ele>51</ele>
      </trkpt>
      <trkpt lat="43.79081" lon="-0.54206">
        <ele>51</ele>
      </trkpt>
      <trkpt lat="43.79164" lon="-0.54184">
        <ele>51</ele>
      </trkpt>
      <trkpt lat="43.79196" lon="-0.54184">
        <ele>51.6</ele>
      </trkpt>
      <trkpt lat="43.79296" lon="-0.54165">
        <ele>53.6</ele>
      </trkpt>
      <trkpt lat="43.79392" lon="-0.54143">
        <ele>57.4</ele>
      </trkpt>
      <trkpt lat="43.79414" lon="-0.54026">
        <ele>59.7</ele>
      </trkpt>
      <trkpt lat="43.79425" lon="-0.53968">
        <ele>60.6</ele>
      </trkpt>
      <trkpt lat="43.79436" lon="-0.5391">
        <ele>62.1</ele>
      </trkpt>
      <trkpt lat="43.79448" lon="-0.53847">
        <ele>62.8</ele>
      </trkpt>
      <trkpt lat="43.79461" lon="-0.53785">
        <ele>65</ele>
      </trkpt>
      <trkpt lat="43.79473" lon="-0.53723">
        <ele>66</ele>
      </trkpt>
      <trkpt lat="43.79498" lon="-0.53598">
        <ele>66.9</ele>
      </trkpt>
      <trkpt lat="43.79511" lon="-0.53532">
        <ele>67</ele>
      </trkpt>
      <trkpt lat="43.79533" lon="-0.53459">
        <ele>67</ele>
      </trkpt>
      <trkpt lat="43.79551" lon="-0.53401">
        <ele>67.4</ele>
      </trkpt>
      <trkpt lat="43.7966" lon="-0.53052">
        <ele>67</ele>
      </trkpt>
      <trkpt lat="43.79762" lon="-0.52769">
        <ele>67.3</ele>
      </trkpt>
      <trkpt lat="43.79783" lon="-0.52713">
        <ele>68.1</ele>
      </trkpt>
      <trkpt lat="43.79807" lon="-0.52648">
        <ele>68</ele>
      </trkpt>
      <trkpt lat="43.7983" lon="-0.52584">
        <ele>68.1</ele>
      </trkpt>
      <trkpt lat="43.79878" lon="-0.52455">
        <ele>68</ele>
      </trkpt>
      <trkpt lat="43.79884" lon="-0.52432">
        <ele>68</ele>
      </trkpt>
      <trkpt lat="43.79896" lon="-0.52376">
        <ele>68</ele>
      </trkpt>
      <trkpt lat="43.79909" lon="-0.52321">
        <ele>68.3</ele>
      </trkpt>
      <trkpt lat="43.7992" lon="-0.52264">
        <ele>68.6</ele>
      </trkpt>
      <trkpt lat="43.79932" lon="-0.52206">
        <ele>69</ele>
      </trkpt>
      <trkpt lat="43.7994" lon="-0.52163">
        <ele>68.3</ele>
      </trkpt>
      <trkpt lat="43.79949" lon="-0.5212">
        <ele>68.3</ele>
      </trkpt>
      <trkpt lat="43.79963" lon="-0.52057">
        <ele>68.7</ele>
      </trkpt>
      <trkpt lat="43.79981" lon="-0.51996">
        <ele>69</ele>
      </trkpt>
      <trkpt lat="43.79994" lon="-0.51945">
        <ele>69</ele>
      </trkpt>
      <trkpt lat="43.80008" lon="-0.51894">
        <ele>69</ele>
      </trkpt>
      <trkpt lat="43.80026" lon="-0.51834">
        <ele>69</ele>
      </trkpt>
      <trkpt lat="43.80045" lon="-0.51775">
        <ele>69.9</ele>
      </trkpt>
      <trkpt lat="43.80056" lon="-0.51725">
        <ele>69.9</ele>
      </trkpt>
      <trkpt lat="43.80063" lon="-0.51677">
        <ele>69.7</ele>
      </trkpt>
      <trkpt lat="43.80077" lon="-0.5158">
        <ele>69.2</ele>
      </trkpt>
      <trkpt lat="43.8008" lon="-0.51544">
        <ele>69.1</ele>
      </trkpt>
      <trkpt lat="43.80074" lon="-0.51526">
        <ele>69</ele>
      </trkpt>
      <trkpt lat="43.80065" lon="-0.51515">
        <ele>69</ele>
      </trkpt>
      <trkpt lat="43.80123" lon="-0.51446">
        <ele>69</ele>
      </trkpt>
      <trkpt lat="43.80156" lon="-0.51408">
        <ele>69.9</ele>
      </trkpt>
      <trkpt lat="43.80184" lon="-0.5136">
        <ele>70</ele>
      </trkpt>
      <trkpt lat="43.80201" lon="-0.51329">
        <ele>70</ele>
      </trkpt>
      <trkpt lat="43.8021" lon="-0.51318">
        <ele>70</ele>
      </trkpt>
      <trkpt lat="43.8028" lon="-0.51255">
        <ele>69.9</ele>
      </trkpt>
      <trkpt lat="43.80317" lon="-0.51223">
        <ele>69.4</ele>
      </trkpt>
      <trkpt lat="43.80354" lon="-0.51192">
        <ele>70</ele>
      </trkpt>
      <trkpt lat="43.80362" lon="-0.51175">
        <ele>70</ele>
      </trkpt>
      <trkpt lat="43.80392" lon="-0.51057">
        <ele>70</ele>
      </trkpt>
      <trkpt lat="43.80407" lon="-0.50998">
        <ele>70</ele>
      </trkpt>
      <trkpt lat="43.80433" lon="-0.50886">
        <ele>70</ele>
      </trkpt>
      <trkpt lat="43.80435" lon="-0.50875">
        <ele>70</ele>
      </trkpt>
      <trkpt lat="43.80431" lon="-0.50867">
        <ele>70</ele>
      </trkpt>
      <trkpt lat="43.8042" lon="-0.50861">
        <ele>70</ele>
      </trkpt>
      <trkpt lat="43.80402" lon="-0.50854">
        <ele>70</ele>
      </trkpt>
      <trkpt lat="43.8043" lon="-0.50753">
        <ele>69</ele>
      </trkpt>
      <trkpt lat="43.80471" lon="-0.5063">
        <ele>70</ele>
      </trkpt>
      <trkpt lat="43.80498" lon="-0.50631">
        <ele>70</ele>
      </trkpt>
      <trkpt lat="43.80525" lon="-0.50632">
        <ele>70</ele>
      </trkpt>
      <trkpt lat="43.80553" lon="-0.50629">
        <ele>70</ele>
      </trkpt>
      <trkpt lat="43.80581" lon="-0.50618">
        <ele>70</ele>
      </trkpt>
      <trkpt lat="43.80607" lon="-0.50598">
        <ele>69.1</ele>
      </trkpt>
      <trkpt lat="43.80638" lon="-0.50567">
        <ele>69</ele>
      </trkpt>
      <trkpt lat="43.8067" lon="-0.50542">
        <ele>69</ele>
      </trkpt>
      <trkpt lat="43.80708" lon="-0.50522">
        <ele>69</ele>
      </trkpt>
      <trkpt lat="43.80746" lon="-0.50501">
        <ele>69</ele>
      </trkpt>
      <trkpt lat="43.80772" lon="-0.50485">
        <ele>69</ele>
      </trkpt>
      <trkpt lat="43.80802" lon="-0.50475">
        <ele>69</ele>
      </trkpt>
      <trkpt lat="43.80823" lon="-0.50468">
        <ele>69</ele>
      </trkpt>
      <trkpt lat="43.80894" lon="-0.50458">
        <ele>67.7</ele>
      </trkpt>
      <trkpt lat="43.80929" lon="-0.50453">
        <ele>65.9</ele>
      </trkpt>
      <trkpt lat="43.80979" lon="-0.50448">
        <ele>67.3</ele>
      </trkpt>
      <trkpt lat="43.81029" lon="-0.50444">
        <ele>68.7</ele>
      </trkpt>
      <trkpt lat="43.81047" lon="-0.50393">
        <ele>68.1</ele>
      </trkpt>
      <trkpt lat="43.81062" lon="-0.50337">
        <ele>69.6</ele>
      </trkpt>
      <trkpt lat="43.81077" lon="-0.50297">
        <ele>70.8</ele>
      </trkpt>
      <trkpt lat="43.81092" lon="-0.5026">
        <ele>71</ele>
      </trkpt>
      <trkpt lat="43.81107" lon="-0.50223">
        <ele>71</ele>
      </trkpt>
      <trkpt lat="43.81115" lon="-0.50171">
        <ele>71</ele>
      </trkpt>
      <trkpt lat="43.81124" lon="-0.50119">
        <ele>71.3</ele>
      </trkpt>
      <trkpt lat="43.81128" lon="-0.50113">
        <ele>71.6</ele>
      </trkpt>
      <trkpt lat="43.81134" lon="-0.50107">
        <ele>71.8</ele>
      </trkpt>
      <trkpt lat="43.81144" lon="-0.50102">
        <ele>71.9</ele>
      </trkpt>
      <trkpt lat="43.81228" lon="-0.50077">
        <ele>70.8</ele>
      </trkpt>
      <trkpt lat="43.8127" lon="-0.50064">
        <ele>71</ele>
      </trkpt>
      <trkpt lat="43.81354" lon="-0.50039">
        <ele>64.7</ele>
      </trkpt>
      <trkpt lat="43.81389" lon="-0.50026">
        <ele>64</ele>
      </trkpt>
      <trkpt lat="43.81424" lon="-0.50014">
        <ele>64.9</ele>
      </trkpt>
      <trkpt lat="43.8144" lon="-0.50016">
        <ele>65.8</ele>
      </trkpt>
      <trkpt lat="43.81471" lon="-0.50034">
        <ele>67</ele>
      </trkpt>
      <trkpt lat="43.81502" lon="-0.50052">
        <ele>69.2</ele>
      </trkpt>
      <trkpt lat="43.81529" lon="-0.50069">
        <ele>70.6</ele>
      </trkpt>
      <trkpt lat="43.81555" lon="-0.50087">
        <ele>72</ele>
      </trkpt>
      <trkpt lat="43.81571" lon="-0.50106">
        <ele>72</ele>
      </trkpt>
      <trkpt lat="43.816" lon="-0.50148">
        <ele>71.4</ele>
      </trkpt>
      <trkpt lat="43.81629" lon="-0.5019">
        <ele>71</ele>
      </trkpt>
      <trkpt lat="43.81658" lon="-0.50232">
        <ele>70.7</ele>
      </trkpt>
      <trkpt lat="43.81724" lon="-0.50318">
        <ele>70.6</ele>
      </trkpt>
      <trkpt lat="43.81741" lon="-0.50335">
        <ele>70.7</ele>
      </trkpt>
      <trkpt lat="43.81757" lon="-0.50341">
        <ele>71.2</ele>
      </trkpt>
      <trkpt lat="43.8177" lon="-0.5034">
        <ele>71.5</ele>
      </trkpt>
      <trkpt lat="43.81787" lon="-0.50336">
        <ele>71.9</ele>
      </trkpt>
      <trkpt lat="43.81822" lon="-0.50314">
        <ele>72.9</ele>
      </trkpt>
      <trkpt lat="43.81855" lon="-0.50295">
        <ele>73.9</ele>
      </trkpt>
      <trkpt lat="43.81922" lon="-0.50257">
        <ele>71.8</ele>
      </trkpt>
      <trkpt lat="43.81962" lon="-0.50234">
        <ele>70.7</ele>
      </trkpt>
      <trkpt lat="43.82042" lon="-0.50189">
        <ele>73.2</ele>
      </trkpt>
      <trkpt lat="43.82057" lon="-0.50176">
        <ele>73.7</ele>
      </trkpt>
      <trkpt lat="43.82064" lon="-0.50165">
        <ele>74</ele>
      </trkpt>
      <trkpt lat="43.82077" lon="-0.50149">
        <ele>74</ele>
      </trkpt>
      <trkpt lat="43.82118" lon="-0.50138">
        <ele>75</ele>
      </trkpt>
      <trkpt lat="43.82241" lon="-0.50106">
        <ele>77.1</ele>
      </trkpt>
      <trkpt lat="43.82266" lon="-0.50101">
        <ele>76.6</ele>
      </trkpt>
      <trkpt lat="43.82276" lon="-0.50106">
        <ele>76.3</ele>
      </trkpt>
      <trkpt lat="43.82286" lon="-0.50117">
        <ele>76.2</ele>
      </trkpt>
      <trkpt lat="43.82316" lon="-0.5015">
        <ele>75.6</ele>
      </trkpt>
      <trkpt lat="43.8233" lon="-0.50161">
        <ele>75.2</ele>
      </trkpt>
      <trkpt lat="43.8234" lon="-0.50164">
        <ele>75.1</ele>
      </trkpt>
      <trkpt lat="43.82357" lon="-0.50163">
        <ele>75</ele>
      </trkpt>
      <trkpt lat="43.82381" lon="-0.50161">
        <ele>74.3</ele>
      </trkpt>
      <trkpt lat="43.824" lon="-0.50164">
        <ele>73.3</ele>
      </trkpt>
      <trkpt lat="43.82417" lon="-0.5017">
        <ele>72</ele>
      </trkpt>
      <trkpt lat="43.82427" lon="-0.50179">
        <ele>71.6</ele>
      </trkpt>
      <trkpt lat="43.82476" lon="-0.50218">
        <ele>71</ele>
      </trkpt>
      <trkpt lat="43.82527" lon="-0.50257">
        <ele>66.6</ele>
      </trkpt>
      <trkpt lat="43.82554" lon="-0.50266">
        <ele>64.2</ele>
      </trkpt>
      <trkpt lat="43.82581" lon="-0.50269">
        <ele>63.4</ele>
      </trkpt>
      <trkpt lat="43.82608" lon="-0.50271">
        <ele>62.8</ele>
      </trkpt>
      <trkpt lat="43.8279" lon="-0.50293">
        <ele>64.2</ele>
      </trkpt>
      <trkpt lat="43.82835" lon="-0.50298">
        <ele>66.8</ele>
      </trkpt>
      <trkpt lat="43.82901" lon="-0.503">
        <ele>68.3</ele>
      </trkpt>
      <trkpt lat="43.82913" lon="-0.50278">
        <ele>68</ele>
      </trkpt>
      <trkpt lat="43.8291" lon="-0.50264">
        <ele>68</ele>
      </trkpt>
      <trkpt lat="43.82904" lon="-0.50201">
        <ele>67.7</ele>
      </trkpt>
      <trkpt lat="43.82901" lon="-0.5017">
        <ele>67</ele>
      </trkpt>
      <trkpt lat="43.82908" lon="-0.50146">
        <ele>67</ele>
      </trkpt>
      <trkpt lat="43.82918" lon="-0.50141">
        <ele>67</ele>
      </trkpt>
      <trkpt lat="43.82943" lon="-0.50132">
        <ele>67.7</ele>
      </trkpt>
      <trkpt lat="43.82968" lon="-0.50123">
        <ele>67.9</ele>
      </trkpt>
      <trkpt lat="43.82992" lon="-0.50114">
        <ele>68.1</ele>
      </trkpt>
      <trkpt lat="43.83016" lon="-0.50106">
        <ele>68</ele>
      </trkpt>
      <trkpt lat="43.83041" lon="-0.50097">
        <ele>68.5</ele>
      </trkpt>
      <trkpt lat="43.83098" lon="-0.50072">
        <ele>69.3</ele>
      </trkpt>
      <trkpt lat="43.83127" lon="-0.5006">
        <ele>69.7</ele>
      </trkpt>
      <trkpt lat="43.83146" lon="-0.50056">
        <ele>70.2</ele>
      </trkpt>
      <trkpt lat="43.83165" lon="-0.50051">
        <ele>70.6</ele>
      </trkpt>
      <trkpt lat="43.83211" lon="-0.50036">
        <ele>68.2</ele>
      </trkpt>
      <trkpt lat="43.83234" lon="-0.50028">
        <ele>67.6</ele>
      </trkpt>
      <trkpt lat="43.83281" lon="-0.5001">
        <ele>67.5</ele>
      </trkpt>
      <trkpt lat="43.83298" lon="-0.49999">
        <ele>67.7</ele>
      </trkpt>
      <trkpt lat="43.83316" lon="-0.49988">
        <ele>67.8</ele>
      </trkpt>
      <trkpt lat="43.8334" lon="-0.49975">
        <ele>67.2</ele>
      </trkpt>
      <trkpt lat="43.83358" lon="-0.4997">
        <ele>67</ele>
      </trkpt>
      <trkpt lat="43.83377" lon="-0.49971">
        <ele>67.6</ele>
      </trkpt>
      <trkpt lat="43.83395" lon="-0.49972">
        <ele>68.2</ele>
      </trkpt>
      <trkpt lat="43.83421" lon="-0.49979">
        <ele>69.2</ele>
      </trkpt>
      <trkpt lat="43.83451" lon="-0.49987">
        <ele>70.4</ele>
      </trkpt>
      <trkpt lat="43.8354" lon="-0.50019">
        <ele>74.5</ele>
      </trkpt>
      <trkpt lat="43.83573" lon="-0.50031">
        <ele>75.1</ele>
      </trkpt>
      <trkpt lat="43.83596" lon="-0.5004">
        <ele>75.7</ele>
      </trkpt>
      <trkpt lat="43.83618" lon="-0.5005">
        <ele>76</ele>
      </trkpt>
      <trkpt lat="43.8364" lon="-0.5006">
        <ele>76</ele>
      </trkpt>
      <trkpt lat="43.83664" lon="-0.50066">
        <ele>76</ele>
      </trkpt>
      <trkpt lat="43.83688" lon="-0.50072">
        <ele>76</ele>
      </trkpt>
      <trkpt lat="43.83709" lon="-0.5008">
        <ele>76</ele>
      </trkpt>
      <trkpt lat="43.83731" lon="-0.50087">
        <ele>76.1</ele>
      </trkpt>
      <trkpt lat="43.83764" lon="-0.501">
        <ele>76.3</ele>
      </trkpt>
      <trkpt lat="43.83827" lon="-0.50116">
        <ele>75.4</ele>
      </trkpt>
      <trkpt lat="43.83856" lon="-0.50117">
        <ele>75</ele>
      </trkpt>
      <trkpt lat="43.83885" lon="-0.50118">
        <ele>75.2</ele>
      </trkpt>
      <trkpt lat="43.83919" lon="-0.50109">
        <ele>75.8</ele>
      </trkpt>
      <trkpt lat="43.83941" lon="-0.5009">
        <ele>73.5</ele>
      </trkpt>
      <trkpt lat="43.8396" lon="-0.50078">
        <ele>73.1</ele>
      </trkpt>
      <trkpt lat="43.83982" lon="-0.5007">
        <ele>72.7</ele>
      </trkpt>
      <trkpt lat="43.84011" lon="-0.50071">
        <ele>73.6</ele>
      </trkpt>
      <trkpt lat="43.8403" lon="-0.50075">
        <ele>74.4</ele>
      </trkpt>
      <trkpt lat="43.84048" lon="-0.50079">
        <ele>74.9</ele>
      </trkpt>
      <trkpt lat="43.8414" lon="-0.50108">
        <ele>78</ele>
      </trkpt>
      <trkpt lat="43.84194" lon="-0.50124">
        <ele>78.5</ele>
      </trkpt>
      <trkpt lat="43.84221" lon="-0.50131">
        <ele>79</ele>
      </trkpt>
      <trkpt lat="43.84248" lon="-0.50139">
        <ele>79</ele>
      </trkpt>
      <trkpt lat="43.84277" lon="-0.50148">
        <ele>80</ele>
      </trkpt>
      <trkpt lat="43.84306" lon="-0.50158">
        <ele>80</ele>
      </trkpt>
      <trkpt lat="43.84332" lon="-0.50161">
        <ele>81.2</ele>
      </trkpt>
      <trkpt lat="43.84359" lon="-0.50164">
        <ele>81.9</ele>
      </trkpt>
      <trkpt lat="43.84379" lon="-0.50163">
        <ele>82.1</ele>
      </trkpt>
      <trkpt lat="43.84399" lon="-0.50162">
        <ele>82.4</ele>
      </trkpt>
      <trkpt lat="43.8443" lon="-0.50163">
        <ele>82.9</ele>
      </trkpt>
      <trkpt lat="43.84451" lon="-0.50173">
        <ele>83</ele>
      </trkpt>
      <trkpt lat="43.84468" lon="-0.50183">
        <ele>83</ele>
      </trkpt>
      <trkpt lat="43.84484" lon="-0.50193">
        <ele>83</ele>
      </trkpt>
      <trkpt lat="43.84519" lon="-0.50201">
        <ele>83</ele>
      </trkpt>
      <trkpt lat="43.84584" lon="-0.50205">
        <ele>83</ele>
      </trkpt>
      <trkpt lat="43.84674" lon="-0.50197">
        <ele>83</ele>
      </trkpt>
      <trkpt lat="43.84704" lon="-0.50194">
        <ele>83</ele>
      </trkpt>
      <trkpt lat="43.84729" lon="-0.50189">
        <ele>83</ele>
      </trkpt>
      <trkpt lat="43.84778" lon="-0.50182">
        <ele>83</ele>
      </trkpt>
      <trkpt lat="43.84787" lon="-0.5016">
        <ele>83</ele>
      </trkpt>
      <trkpt lat="43.84801" lon="-0.50138">
        <ele>83</ele>
      </trkpt>
      <trkpt lat="43.84822" lon="-0.50115">
        <ele>83</ele>
      </trkpt>
      <trkpt lat="43.84858" lon="-0.50077">
        <ele>83.7</ele>
      </trkpt>
      <trkpt lat="43.84877" lon="-0.50058">
        <ele>83.6</ele>
      </trkpt>
      <trkpt lat="43.84899" lon="-0.50038">
        <ele>83.6</ele>
      </trkpt>
      <trkpt lat="43.8492" lon="-0.50018">
        <ele>84</ele>
      </trkpt>
      <trkpt lat="43.84943" lon="-0.50001">
        <ele>84</ele>
      </trkpt>
      <trkpt lat="43.84977" lon="-0.49979">
        <ele>85</ele>
      </trkpt>
      <trkpt lat="43.85003" lon="-0.49962">
        <ele>85.1</ele>
      </trkpt>
      <trkpt lat="43.85055" lon="-0.49927">
        <ele>85.6</ele>
      </trkpt>
      <trkpt lat="43.85075" lon="-0.4991">
        <ele>85.9</ele>
      </trkpt>
      <trkpt lat="43.85095" lon="-0.49892">
        <ele>86</ele>
      </trkpt>
      <trkpt lat="43.85109" lon="-0.49877">
        <ele>86</ele>
      </trkpt>
      <trkpt lat="43.85124" lon="-0.49862">
        <ele>85.6</ele>
      </trkpt>
      <trkpt lat="43.85133" lon="-0.49858">
        <ele>85.2</ele>
      </trkpt>
      <trkpt lat="43.85158" lon="-0.49857">
        <ele>85.7</ele>
      </trkpt>
      <trkpt lat="43.85192" lon="-0.49853">
        <ele>86.9</ele>
      </trkpt>
      <trkpt lat="43.85219" lon="-0.49845">
        <ele>87</ele>
      </trkpt>
      <trkpt lat="43.85242" lon="-0.49844">
        <ele>87</ele>
      </trkpt>
      <trkpt lat="43.85265" lon="-0.49843">
        <ele>87</ele>
      </trkpt>
      <trkpt lat="43.85285" lon="-0.4984">
        <ele>87.1</ele>
      </trkpt>
      <trkpt lat="43.85314" lon="-0.49824">
        <ele>87.5</ele>
      </trkpt>
      <trkpt lat="43.85343" lon="-0.49819">
        <ele>88</ele>
      </trkpt>
      <trkpt lat="43.85369" lon="-0.49812">
        <ele>88.3</ele>
      </trkpt>
      <trkpt lat="43.85409" lon="-0.49797">
        <ele>89</ele>
      </trkpt>
      <trkpt lat="43.85426" lon="-0.49787">
        <ele>89</ele>
      </trkpt>
      <trkpt lat="43.85442" lon="-0.49777">
        <ele>89</ele>
      </trkpt>
      <trkpt lat="43.8546" lon="-0.49762">
        <ele>88.8</ele>
      </trkpt>
      <trkpt lat="43.85497" lon="-0.49722">
        <ele>90</ele>
      </trkpt>
      <trkpt lat="43.85491" lon="-0.49704">
        <ele>89.6</ele>
      </trkpt>
      <trkpt lat="43.85479" lon="-0.49658">
        <ele>89.8</ele>
      </trkpt>
      <trkpt lat="43.85473" lon="-0.49616">
        <ele>89.2</ele>
      </trkpt>
      <trkpt lat="43.85462" lon="-0.4956">
        <ele>89.3</ele>
      </trkpt>
      <trkpt lat="43.85455" lon="-0.49535">
        <ele>89.2</ele>
      </trkpt>
      <trkpt lat="43.85447" lon="-0.49509">
        <ele>89</ele>
      </trkpt>
      <trkpt lat="43.8544" lon="-0.49486">
        <ele>89</ele>
      </trkpt>
      <trkpt lat="43.85433" lon="-0.49463">
        <ele>89</ele>
      </trkpt>
      <trkpt lat="43.85428" lon="-0.49434">
        <ele>88.8</ele>
      </trkpt>
      <trkpt lat="43.85441" lon="-0.49442">
        <ele>88.9</ele>
      </trkpt>
      <trkpt lat="43.8546" lon="-0.49454">
        <ele>89</ele>
      </trkpt>
      <trkpt lat="43.85476" lon="-0.49474">
        <ele>89</ele>
      </trkpt>
      <trkpt lat="43.85491" lon="-0.49493">
        <ele>89</ele>
      </trkpt>
      <trkpt lat="43.85507" lon="-0.49512">
        <ele>89.1</ele>
      </trkpt>
      <trkpt lat="43.85518" lon="-0.49521">
        <ele>89.2</ele>
      </trkpt>
      <trkpt lat="43.85533" lon="-0.49526">
        <ele>89.2</ele>
      </trkpt>
      <trkpt lat="43.85575" lon="-0.49531">
        <ele>89.3</ele>
      </trkpt>
      <trkpt lat="43.85604" lon="-0.49533">
        <ele>89</ele>
      </trkpt>
      <trkpt lat="43.85632" lon="-0.49535">
        <ele>89</ele>
      </trkpt>
      <trkpt lat="43.85661" lon="-0.49537">
        <ele>89</ele>
      </trkpt>
      <trkpt lat="43.85682" lon="-0.49543">
        <ele>89.3</ele>
      </trkpt>
      <trkpt lat="43.85698" lon="-0.49551">
        <ele>89.3</ele>
      </trkpt>
      <trkpt lat="43.85707" lon="-0.49553">
        <ele>89.5</ele>
      </trkpt>
      <trkpt lat="43.85721" lon="-0.49554">
        <ele>90</ele>
      </trkpt>
      <trkpt lat="43.85752" lon="-0.49552">
        <ele>90</ele>
      </trkpt>
      <trkpt lat="43.85771" lon="-0.4955">
        <ele>90</ele>
      </trkpt>
      <trkpt lat="43.85789" lon="-0.49548">
        <ele>90</ele>
      </trkpt>
      <trkpt lat="43.85807" lon="-0.49545">
        <ele>90</ele>
      </trkpt>
      <trkpt lat="43.85825" lon="-0.49541">
        <ele>90</ele>
      </trkpt>
      <trkpt lat="43.85837" lon="-0.49541">
        <ele>90</ele>
      </trkpt>
      <trkpt lat="43.85856" lon="-0.49546">
        <ele>90</ele>
      </trkpt>
      <trkpt lat="43.85875" lon="-0.49552">
        <ele>90</ele>
      </trkpt>
      <trkpt lat="43.85889" lon="-0.49551">
        <ele>90</ele>
      </trkpt>
      <trkpt lat="43.85924" lon="-0.49542">
        <ele>89.4</ele>
      </trkpt>
      <trkpt lat="43.85947" lon="-0.49534">
        <ele>89</ele>
      </trkpt>
      <trkpt lat="43.85967" lon="-0.4952">
        <ele>89.1</ele>
      </trkpt>
      <trkpt lat="43.8599" lon="-0.49499">
        <ele>89</ele>
      </trkpt>
      <trkpt lat="43.8601" lon="-0.49472">
        <ele>88.3</ele>
      </trkpt>
      <trkpt lat="43.8603" lon="-0.49442">
        <ele>88.1</ele>
      </trkpt>
      <trkpt lat="43.86047" lon="-0.49407">
        <ele>88.6</ele>
      </trkpt>
      <trkpt lat="43.86055" lon="-0.49394">
        <ele>89</ele>
      </trkpt>
      <trkpt lat="43.86063" lon="-0.49388">
        <ele>89</ele>
      </trkpt>
      <trkpt lat="43.86091" lon="-0.49381">
        <ele>88.5</ele>
      </trkpt>
      <trkpt lat="43.86147" lon="-0.49368">
        <ele>87</ele>
      </trkpt>
      <trkpt lat="43.86203" lon="-0.49355">
        <ele>86</ele>
      </trkpt>
      <trkpt lat="43.86251" lon="-0.49337">
        <ele>86.1</ele>
      </trkpt>
      <trkpt lat="43.86313" lon="-0.4931">
        <ele>85.5</ele>
      </trkpt>
      <trkpt lat="43.86438" lon="-0.49256">
        <ele>87</ele>
      </trkpt>
      <trkpt lat="43.8646" lon="-0.49248">
        <ele>87</ele>
      </trkpt>
      <trkpt lat="43.86481" lon="-0.4924">
        <ele>86.9</ele>
      </trkpt>
      <trkpt lat="43.86505" lon="-0.49231">
        <ele>86</ele>
      </trkpt>
      <trkpt lat="43.86551" lon="-0.49213">
        <ele>82.9</ele>
      </trkpt>
      <trkpt lat="43.86554" lon="-0.492">
        <ele>82.3</ele>
      </trkpt>
      <trkpt lat="43.86567" lon="-0.49174">
        <ele>81.4</ele>
      </trkpt>
      <trkpt lat="43.86583" lon="-0.49156">
        <ele>79.8</ele>
      </trkpt>
      <trkpt lat="43.86599" lon="-0.49159">
        <ele>79.7</ele>
      </trkpt>
      <trkpt lat="43.86625" lon="-0.49167">
        <ele>79.5</ele>
      </trkpt>
      <trkpt lat="43.86655" lon="-0.49166">
        <ele>78.4</ele>
      </trkpt>
      <trkpt lat="43.86715" lon="-0.49164">
        <ele>76.9</ele>
      </trkpt>
      <trkpt lat="43.86738" lon="-0.49159">
        <ele>76.2</ele>
      </trkpt>
      <trkpt lat="43.86785" lon="-0.49151">
        <ele>75.9</ele>
      </trkpt>
      <trkpt lat="43.8681" lon="-0.49142">
        <ele>75.1</ele>
      </trkpt>
      <trkpt lat="43.86856" lon="-0.49128">
        <ele>75.5</ele>
      </trkpt>
      <trkpt lat="43.86879" lon="-0.49121">
        <ele>74.7</ele>
      </trkpt>
      <trkpt lat="43.86876" lon="-0.49079">
        <ele>73.7</ele>
      </trkpt>
      <trkpt lat="43.86874" lon="-0.49036">
        <ele>72.7</ele>
      </trkpt>
      <trkpt lat="43.86872" lon="-0.48994">
        <ele>71.5</ele>
      </trkpt>
      <trkpt lat="43.86871" lon="-0.48951">
        <ele>73.6</ele>
      </trkpt>
      <trkpt lat="43.86884" lon="-0.48942">
        <ele>74.1</ele>
      </trkpt>
      <trkpt lat="43.86899" lon="-0.48932">
        <ele>74.5</ele>
      </trkpt>
      <trkpt lat="43.86921" lon="-0.4896">
        <ele>72.9</ele>
      </trkpt>
      <trkpt lat="43.86955" lon="-0.48982">
        <ele>72.5</ele>
      </trkpt>
      <trkpt lat="43.87015" lon="-0.49017">
        <ele>70.7</ele>
      </trkpt>
      <trkpt lat="43.87075" lon="-0.49051">
        <ele>71</ele>
      </trkpt>
      <trkpt lat="43.87166" lon="-0.49103">
        <ele>70.1</ele>
      </trkpt>
      <trkpt lat="43.87256" lon="-0.49155">
        <ele>67.5</ele>
      </trkpt>
      <trkpt lat="43.87285" lon="-0.49172">
        <ele>66.7</ele>
      </trkpt>
      <trkpt lat="43.87343" lon="-0.49206">
        <ele>64.6</ele>
      </trkpt>
      <trkpt lat="43.87402" lon="-0.49241">
        <ele>64</ele>
      </trkpt>
      <trkpt lat="43.87431" lon="-0.49258">
        <ele>64</ele>
      </trkpt>
      <trkpt lat="43.87462" lon="-0.49276">
        <ele>64.1</ele>
      </trkpt>
      <trkpt lat="43.87493" lon="-0.49293">
        <ele>64.6</ele>
      </trkpt>
      <trkpt lat="43.87739" lon="-0.49435">
        <ele>66</ele>
      </trkpt>
      <trkpt lat="43.87832" lon="-0.49488">
        <ele>67.8</ele>
      </trkpt>
      <trkpt lat="43.8789" lon="-0.49521">
        <ele>71.8</ele>
      </trkpt>
      <trkpt lat="43.88035" lon="-0.49602">
        <ele>75</ele>
      </trkpt>
      <trkpt lat="43.88093" lon="-0.49635">
        <ele>74.1</ele>
      </trkpt>
      <trkpt lat="43.88151" lon="-0.49667">
        <ele>74</ele>
      </trkpt>
      <trkpt lat="43.88179" lon="-0.49684">
        <ele>73.5</ele>
      </trkpt>
      <trkpt lat="43.88321" lon="-0.49766">
        <ele>71</ele>
      </trkpt>
      <trkpt lat="43.88378" lon="-0.49798">
        <ele>69.5</ele>
      </trkpt>
      <trkpt lat="43.88406" lon="-0.49815">
        <ele>68.4</ele>
      </trkpt>
      <trkpt lat="43.88435" lon="-0.49831">
        <ele>66.7</ele>
      </trkpt>
      <trkpt lat="43.88463" lon="-0.49848">
        <ele>66.5</ele>
      </trkpt>
      <trkpt lat="43.8852" lon="-0.49881">
        <ele>62.3</ele>
      </trkpt>
      <trkpt lat="43.88605" lon="-0.4993">
        <ele>57.5</ele>
      </trkpt>
      <trkpt lat="43.88689" lon="-0.49979">
        <ele>52.2</ele>
      </trkpt>
      <trkpt lat="43.88695" lon="-0.49991">
        <ele>52</ele>
      </trkpt>
      <trkpt lat="43.88702" lon="-0.50007">
        <ele>51.5</ele>
      </trkpt>
      <trkpt lat="43.8872" lon="-0.50013">
        <ele>50.6</ele>
      </trkpt>
      <trkpt lat="43.88746" lon="-0.5">
        <ele>49.3</ele>
      </trkpt>
      <trkpt lat="43.88758" lon="-0.50009">
        <ele>48.7</ele>
      </trkpt>
      <trkpt lat="43.88797" lon="-0.50032">
        <ele>48</ele>
      </trkpt>
      <trkpt lat="43.88811" lon="-0.50038">
        <ele>47.8</ele>
      </trkpt>
      <trkpt lat="43.88824" lon="-0.50045">
        <ele>46.9</ele>
      </trkpt>
      <trkpt lat="43.88831" lon="-0.50048">
        <ele>46.4</ele>
      </trkpt>
      <trkpt lat="43.88845" lon="-0.50055">
        <ele>46</ele>
      </trkpt>
      <trkpt lat="43.88851" lon="-0.50058">
        <ele>46.1</ele>
      </trkpt>
      <trkpt lat="43.88865" lon="-0.50065">
        <ele>46.3</ele>
      </trkpt>
      <trkpt lat="43.88872" lon="-0.50069">
        <ele>46.3</ele>
      </trkpt>
      <trkpt lat="43.88878" lon="-0.50072">
        <ele>46.2</ele>
      </trkpt>
      <trkpt lat="43.88892" lon="-0.50079">
        <ele>45.9</ele>
      </trkpt>
      <trkpt lat="43.88905" lon="-0.50086">
        <ele>45.5</ele>
      </trkpt>
      <trkpt lat="43.88953" lon="-0.5011">
        <ele>44.7</ele>
      </trkpt>
      <trkpt lat="43.88966" lon="-0.50117">
        <ele>44.1</ele>
      </trkpt>
      <trkpt lat="43.88988" lon="-0.50123">
        <ele>43.3</ele>
      </trkpt>
      <trkpt lat="43.88995" lon="-0.50125">
        <ele>43.1</ele>
      </trkpt>
      <trkpt lat="43.89001" lon="-0.50125">
        <ele>42.9</ele>
      </trkpt>
      <trkpt lat="43.89025" lon="-0.50127">
        <ele>41.6</ele>
      </trkpt>
      <trkpt lat="43.89031" lon="-0.50126">
        <ele>41.4</ele>
      </trkpt>
      <trkpt lat="43.89042" lon="-0.50124">
        <ele>41.3</ele>
      </trkpt>
      <trkpt lat="43.89039" lon="-0.50012">
        <ele>43.8</ele>
      </trkpt>
      <trkpt lat="43.89039" lon="-0.49985">
        <ele>44.3</ele>
      </trkpt>
      <trkpt lat="43.89038" lon="-0.49972">
        <ele>44.6</ele>
      </trkpt>
      <trkpt lat="43.89036" lon="-0.49942">
        <ele>44.7</ele>
      </trkpt>
      <trkpt lat="43.89036" lon="-0.4994">
        <ele>44.8</ele>
      </trkpt>
      <trkpt lat="43.89037" lon="-0.49911">
        <ele>45</ele>
      </trkpt>
      <trkpt lat="43.89031" lon="-0.49876">
        <ele>45.4</ele>
      </trkpt>
      <trkpt lat="43.89024" lon="-0.49841">
        <ele>46</ele>
      </trkpt>
      <trkpt lat="43.89018" lon="-0.49805">
        <ele>46.4</ele>
      </trkpt>
      <trkpt lat="43.89003" lon="-0.49718">
        <ele>46.3</ele>
      </trkpt>
      <trkpt lat="43.88984" lon="-0.49688">
        <ele>45.7</ele>
      </trkpt>
      <trkpt lat="43.88972" lon="-0.49615">
        <ele>47</ele>
      </trkpt>
      <trkpt lat="43.88966" lon="-0.49578">
        <ele>46.4</ele>
      </trkpt>
      <trkpt lat="43.88962" lon="-0.49541">
        <ele>46.4</ele>
      </trkpt>
      <trkpt lat="43.88957" lon="-0.49504">
        <ele>45.1</ele>
      </trkpt>
      <trkpt lat="43.88956" lon="-0.4948">
        <ele>44</ele>
      </trkpt>
      <trkpt lat="43.88956" lon="-0.49457">
        <ele>44.2</ele>
      </trkpt>
      <trkpt lat="43.88963" lon="-0.49343">
        <ele>45.5</ele>
      </trkpt>
      <trkpt lat="43.88965" lon="-0.49305">
        <ele>44.8</ele>
      </trkpt>
      <trkpt lat="43.88969" lon="-0.49245">
        <ele>46.2</ele>
      </trkpt>
      <trkpt lat="43.88984" lon="-0.49167">
        <ele>47.1</ele>
      </trkpt>
      <trkpt lat="43.89007" lon="-0.4905">
        <ele>46.8</ele>
      </trkpt>
      <trkpt lat="43.89014" lon="-0.49016">
        <ele>47</ele>
      </trkpt>
      <trkpt lat="43.89021" lon="-0.48981">
        <ele>47</ele>
      </trkpt>
      <trkpt lat="43.89028" lon="-0.48947">
        <ele>47</ele>
      </trkpt>
      <trkpt lat="43.89001" lon="-0.48941">
        <ele>47.1</ele>
      </trkpt>
      <trkpt lat="43.88948" lon="-0.48928">
        <ele>48.9</ele>
      </trkpt>
      <trkpt lat="43.88922" lon="-0.48922">
        <ele>49</ele>
      </trkpt>
      <trkpt lat="43.88891" lon="-0.48914">
        <ele>49.9</ele>
      </trkpt>
      <trkpt lat="43.8886" lon="-0.48906">
        <ele>50.6</ele>
      </trkpt>
      <trkpt lat="43.88829" lon="-0.48898">
        <ele>51.2</ele>
      </trkpt>
      <trkpt lat="43.88807" lon="-0.48898">
        <ele>51.9</ele>
      </trkpt>
      <trkpt lat="43.88781" lon="-0.48906">
        <ele>52</ele>
      </trkpt>
      <trkpt lat="43.8876" lon="-0.4892">
        <ele>52.6</ele>
      </trkpt>
      <trkpt lat="43.88742" lon="-0.48921">
        <ele>53.3</ele>
      </trkpt>
      <trkpt lat="43.88721" lon="-0.48906">
        <ele>54.2</ele>
      </trkpt>
      <trkpt lat="43.88707" lon="-0.48877">
        <ele>55.1</ele>
      </trkpt>
      <trkpt lat="43.88682" lon="-0.48771">
        <ele>56.4</ele>
      </trkpt>
      <trkpt lat="43.88696" lon="-0.48752">
        <ele>56</ele>
      </trkpt>
      <trkpt lat="43.88709" lon="-0.48733">
        <ele>55.7</ele>
      </trkpt>
      <trkpt lat="43.8872" lon="-0.48713">
        <ele>55.1</ele>
      </trkpt>
      <trkpt lat="43.88731" lon="-0.48693">
        <ele>54.7</ele>
      </trkpt>
      <trkpt lat="43.88745" lon="-0.48664">
        <ele>55.2</ele>
      </trkpt>
      <trkpt lat="43.88773" lon="-0.48606">
        <ele>53.9</ele>
      </trkpt>
      <trkpt lat="43.88781" lon="-0.48577">
        <ele>54.9</ele>
      </trkpt>
      <trkpt lat="43.88789" lon="-0.48549">
        <ele>54.9</ele>
      </trkpt>
      <trkpt lat="43.88799" lon="-0.48506">
        <ele>55.5</ele>
      </trkpt>
      <trkpt lat="43.88808" lon="-0.48463">
        <ele>55.7</ele>
      </trkpt>
      <trkpt lat="43.88812" lon="-0.48402">
        <ele>56.5</ele>
      </trkpt>
      <trkpt lat="43.88813" lon="-0.4837">
        <ele>58.2</ele>
      </trkpt>
      <trkpt lat="43.88815" lon="-0.48305">
        <ele>57</ele>
      </trkpt>
      <trkpt lat="43.88813" lon="-0.48238">
        <ele>59.9</ele>
      </trkpt>
      <trkpt lat="43.88812" lon="-0.48204">
        <ele>59.8</ele>
      </trkpt>
      <trkpt lat="43.88807" lon="-0.4816">
        <ele>59.6</ele>
      </trkpt>
      <trkpt lat="43.88795" lon="-0.48071">
        <ele>60.2</ele>
      </trkpt>
      <trkpt lat="43.8879" lon="-0.48027">
        <ele>59.7</ele>
      </trkpt>
      <trkpt lat="43.88776" lon="-0.47941">
        <ele>60.3</ele>
      </trkpt>
      <trkpt lat="43.88769" lon="-0.47898">
        <ele>61.1</ele>
      </trkpt>
      <trkpt lat="43.88748" lon="-0.47769">
        <ele>63</ele>
      </trkpt>
      <trkpt lat="43.8874" lon="-0.47727">
        <ele>61.6</ele>
      </trkpt>
      <trkpt lat="43.88732" lon="-0.47686">
        <ele>61.3</ele>
      </trkpt>
      <trkpt lat="43.88596" lon="-0.46978">
        <ele>70.4</ele>
      </trkpt>
      <trkpt lat="43.88558" lon="-0.46784">
        <ele>70.9</ele>
      </trkpt>
      <trkpt lat="43.88543" lon="-0.46707">
        <ele>72.3</ele>
      </trkpt>
      <trkpt lat="43.88535" lon="-0.46668">
        <ele>72.7</ele>
      </trkpt>
      <trkpt lat="43.88527" lon="-0.46627">
        <ele>73</ele>
      </trkpt>
      <trkpt lat="43.8852" lon="-0.46585">
        <ele>74</ele>
      </trkpt>
      <trkpt lat="43.88504" lon="-0.46502">
        <ele>75.8</ele>
      </trkpt>
      <trkpt lat="43.88496" lon="-0.4646">
        <ele>76.2</ele>
      </trkpt>
      <trkpt lat="43.8843" lon="-0.4612">
        <ele>81.3</ele>
      </trkpt>
      <trkpt lat="43.88425" lon="-0.46106">
        <ele>81.6</ele>
      </trkpt>
      <trkpt lat="43.88417" lon="-0.46063">
        <ele>82.3</ele>
      </trkpt>
      <trkpt lat="43.88409" lon="-0.4602">
        <ele>82.2</ele>
      </trkpt>
      <trkpt lat="43.88376" lon="-0.45848">
        <ele>83.2</ele>
      </trkpt>
      <trkpt lat="43.88286" lon="-0.45375">
        <ele>81.4</ele>
      </trkpt>
      <trkpt lat="43.88273" lon="-0.45309">
        <ele>80.5</ele>
      </trkpt>
      <trkpt lat="43.88265" lon="-0.45273">
        <ele>80.8</ele>
      </trkpt>
      <trkpt lat="43.8825" lon="-0.45201">
        <ele>78.2</ele>
      </trkpt>
      <trkpt lat="43.88249" lon="-0.45181">
        <ele>79</ele>
      </trkpt>
      <trkpt lat="43.88245" lon="-0.45156">
        <ele>80.2</ele>
      </trkpt>
      <trkpt lat="43.88237" lon="-0.45118">
        <ele>80.1</ele>
      </trkpt>
      <trkpt lat="43.88229" lon="-0.45081">
        <ele>79.2</ele>
      </trkpt>
      <trkpt lat="43.88221" lon="-0.45043">
        <ele>79.1</ele>
      </trkpt>
      <trkpt lat="43.88215" lon="-0.45013">
        <ele>79.5</ele>
      </trkpt>
      <trkpt lat="43.88205" lon="-0.44955">
        <ele>79.9</ele>
      </trkpt>
      <trkpt lat="43.882" lon="-0.44917">
        <ele>80</ele>
      </trkpt>
      <trkpt lat="43.8819" lon="-0.44841">
        <ele>76.7</ele>
      </trkpt>
      <trkpt lat="43.88181" lon="-0.44727">
        <ele>77</ele>
      </trkpt>
      <trkpt lat="43.88177" lon="-0.44688">
        <ele>76.3</ele>
      </trkpt>
      <trkpt lat="43.88175" lon="-0.44652">
        <ele>75.6</ele>
      </trkpt>
      <trkpt lat="43.88167" lon="-0.44541">
        <ele>73</ele>
      </trkpt>
      <trkpt lat="43.88167" lon="-0.44504">
        <ele>72.1</ele>
      </trkpt>
      <trkpt lat="43.88166" lon="-0.44467">
        <ele>72</ele>
      </trkpt>
      <trkpt lat="43.88173" lon="-0.44224">
        <ele>68.6</ele>
      </trkpt>
      <trkpt lat="43.88174" lon="-0.44183">
        <ele>67.8</ele>
      </trkpt>
      <trkpt lat="43.88177" lon="-0.44098">
        <ele>65.8</ele>
      </trkpt>
      <trkpt lat="43.88178" lon="-0.44056">
        <ele>65</ele>
      </trkpt>
      <trkpt lat="43.88185" lon="-0.43974">
        <ele>64.9</ele>
      </trkpt>
      <trkpt lat="43.88188" lon="-0.43933">
        <ele>64.1</ele>
      </trkpt>
      <trkpt lat="43.88192" lon="-0.43891">
        <ele>67.6</ele>
      </trkpt>
      <trkpt lat="43.88196" lon="-0.43849">
        <ele>69.6</ele>
      </trkpt>
      <trkpt lat="43.8822" lon="-0.43596">
        <ele>74.1</ele>
      </trkpt>
      <trkpt lat="43.88237" lon="-0.43419">
        <ele>80</ele>
      </trkpt>
      <trkpt lat="43.88289" lon="-0.42885">
        <ele>81</ele>
      </trkpt>
      <trkpt lat="43.88293" lon="-0.4284">
        <ele>81.3</ele>
      </trkpt>
      <trkpt lat="43.88311" lon="-0.42666">
        <ele>80</ele>
      </trkpt>
      <trkpt lat="43.8832" lon="-0.42579">
        <ele>79.5</ele>
      </trkpt>
      <trkpt lat="43.88386" lon="-0.41927">
        <ele>75.2</ele>
      </trkpt>
      <trkpt lat="43.88403" lon="-0.41753">
        <ele>73.4</ele>
      </trkpt>
      <trkpt lat="43.88412" lon="-0.41666">
        <ele>74</ele>
      </trkpt>
      <trkpt lat="43.88421" lon="-0.41579">
        <ele>74.7</ele>
      </trkpt>
      <trkpt lat="43.88427" lon="-0.41503">
        <ele>77.4</ele>
      </trkpt>
      <trkpt lat="43.8843" lon="-0.41466">
        <ele>78.1</ele>
      </trkpt>
      <trkpt lat="43.88437" lon="-0.4139">
        <ele>76.4</ele>
      </trkpt>
      <trkpt lat="43.88441" lon="-0.41348">
        <ele>74.8</ele>
      </trkpt>
      <trkpt lat="43.88445" lon="-0.41305">
        <ele>73</ele>
      </trkpt>
      <trkpt lat="43.88449" lon="-0.41263">
        <ele>72.2</ele>
      </trkpt>
      <trkpt lat="43.88453" lon="-0.4122">
        <ele>70.7</ele>
      </trkpt>
      <trkpt lat="43.88457" lon="-0.41178">
        <ele>70.5</ele>
      </trkpt>
      <trkpt lat="43.88461" lon="-0.41135">
        <ele>70.7</ele>
      </trkpt>
      <trkpt lat="43.88466" lon="-0.41093">
        <ele>71.8</ele>
      </trkpt>
      <trkpt lat="43.8847" lon="-0.4105">
        <ele>71.7</ele>
      </trkpt>
      <trkpt lat="43.88474" lon="-0.41008">
        <ele>71</ele>
      </trkpt>
      <trkpt lat="43.88478" lon="-0.40966">
        <ele>72</ele>
      </trkpt>
      <trkpt lat="43.88482" lon="-0.40923">
        <ele>72.9</ele>
      </trkpt>
      <trkpt lat="43.88486" lon="-0.40881">
        <ele>73.5</ele>
      </trkpt>
      <trkpt lat="43.8849" lon="-0.40838">
        <ele>73.4</ele>
      </trkpt>
      <trkpt lat="43.88494" lon="-0.40796">
        <ele>72.9</ele>
      </trkpt>
      <trkpt lat="43.88515" lon="-0.40584">
        <ele>73</ele>
      </trkpt>
      <trkpt lat="43.88523" lon="-0.40499">
        <ele>72.2</ele>
      </trkpt>
      <trkpt lat="43.88534" lon="-0.40376">
        <ele>72</ele>
      </trkpt>
      <trkpt lat="43.88557" lon="-0.4013">
        <ele>70.9</ele>
      </trkpt>
      <trkpt lat="43.88573" lon="-0.39966">
        <ele>71.6</ele>
      </trkpt>
      <trkpt lat="43.88584" lon="-0.39864">
        <ele>72.9</ele>
      </trkpt>
      <trkpt lat="43.8859" lon="-0.39782">
        <ele>73.9</ele>
      </trkpt>
      <trkpt lat="43.88594" lon="-0.39741">
        <ele>74.6</ele>
      </trkpt>
      <trkpt lat="43.88596" lon="-0.39697">
        <ele>74.1</ele>
      </trkpt>
      <trkpt lat="43.88602" lon="-0.39609">
        <ele>72.3</ele>
      </trkpt>
      <trkpt lat="43.88602" lon="-0.39573">
        <ele>71.7</ele>
      </trkpt>
      <trkpt lat="43.88602" lon="-0.39501">
        <ele>70</ele>
      </trkpt>
      <trkpt lat="43.88602" lon="-0.39465">
        <ele>68.2</ele>
      </trkpt>
      <trkpt lat="43.88602" lon="-0.39429">
        <ele>67.8</ele>
      </trkpt>
      <trkpt lat="43.88625" lon="-0.39415">
        <ele>67.4</ele>
      </trkpt>
      <trkpt lat="43.88631" lon="-0.39407">
        <ele>66.8</ele>
      </trkpt>
      <trkpt lat="43.88642" lon="-0.39389">
        <ele>64.8</ele>
      </trkpt>
      <trkpt lat="43.88648" lon="-0.39381">
        <ele>63.8</ele>
      </trkpt>
      <trkpt lat="43.88656" lon="-0.39374">
        <ele>63.2</ele>
      </trkpt>
      <trkpt lat="43.88678" lon="-0.39354">
        <ele>62.2</ele>
      </trkpt>
      <trkpt lat="43.88694" lon="-0.39341">
        <ele>61.1</ele>
      </trkpt>
      <trkpt lat="43.88701" lon="-0.39334">
        <ele>60</ele>
      </trkpt>
      <trkpt lat="43.88709" lon="-0.39327">
        <ele>59.3</ele>
      </trkpt>
      <trkpt lat="43.88724" lon="-0.39312">
        <ele>58.5</ele>
      </trkpt>
      <trkpt lat="43.88736" lon="-0.39298">
        <ele>58.8</ele>
      </trkpt>
      <trkpt lat="43.88748" lon="-0.39284">
        <ele>56.9</ele>
      </trkpt>
      <trkpt lat="43.88754" lon="-0.39276">
        <ele>57</ele>
      </trkpt>
      <trkpt lat="43.88766" lon="-0.3926">
        <ele>58.3</ele>
      </trkpt>
      <trkpt lat="43.88771" lon="-0.39252">
        <ele>56.4</ele>
      </trkpt>
      <trkpt lat="43.88784" lon="-0.39229">
        <ele>56.2</ele>
      </trkpt>
      <trkpt lat="43.88796" lon="-0.39216">
        <ele>54.7</ele>
      </trkpt>
      <trkpt lat="43.88803" lon="-0.39209">
        <ele>53.6</ele>
      </trkpt>
      <trkpt lat="43.88811" lon="-0.39205">
        <ele>52.6</ele>
      </trkpt>
      <trkpt lat="43.88827" lon="-0.39198">
        <ele>51.4</ele>
      </trkpt>
      <trkpt lat="43.88845" lon="-0.39202">
        <ele>50</ele>
      </trkpt>
      <trkpt lat="43.88873" lon="-0.39208">
        <ele>48.2</ele>
      </trkpt>
      <trkpt lat="43.8891" lon="-0.39215">
        <ele>47.5</ele>
      </trkpt>
      <trkpt lat="43.88926" lon="-0.39217">
        <ele>47.9</ele>
      </trkpt>
      <trkpt lat="43.88928" lon="-0.39242">
        <ele>48.3</ele>
      </trkpt>
      <trkpt lat="43.8893" lon="-0.39252">
        <ele>48.6</ele>
      </trkpt>
      <trkpt lat="43.88934" lon="-0.39272">
        <ele>49.4</ele>
      </trkpt>
      <trkpt lat="43.88944" lon="-0.39287">
        <ele>50.3</ele>
      </trkpt>
      <trkpt lat="43.88949" lon="-0.39295">
        <ele>50.5</ele>
      </trkpt>
      <trkpt lat="43.88954" lon="-0.39298">
        <ele>50.5</ele>
      </trkpt>
      <trkpt lat="43.8897" lon="-0.39307">
        <ele>50.2</ele>
      </trkpt>
      <trkpt lat="43.8899" lon="-0.39313">
        <ele>50.6</ele>
      </trkpt>
      <trkpt lat="43.8901" lon="-0.39319">
        <ele>51</ele>
      </trkpt>
      <trkpt lat="43.89014" lon="-0.39295">
        <ele>49.8</ele>
      </trkpt>
      <trkpt lat="43.89017" lon="-0.3927">
        <ele>49.5</ele>
      </trkpt>
      <trkpt lat="43.89039" lon="-0.39269">
        <ele>50.2</ele>
      </trkpt>
      <trkpt lat="43.89061" lon="-0.39267">
        <ele>51.8</ele>
      </trkpt>
      <trkpt lat="43.89072" lon="-0.39269">
        <ele>53.4</ele>
      </trkpt>
      <trkpt lat="43.89092" lon="-0.39282">
        <ele>56.1</ele>
      </trkpt>
      <trkpt lat="43.89125" lon="-0.39313">
        <ele>57.4</ele>
      </trkpt>
      <trkpt lat="43.89141" lon="-0.39329">
        <ele>56.6</ele>
      </trkpt>
      <trkpt lat="43.89155" lon="-0.39335">
        <ele>58.4</ele>
      </trkpt>
      <trkpt lat="43.89168" lon="-0.39338">
        <ele>60.2</ele>
      </trkpt>
      <trkpt lat="43.89181" lon="-0.39342">
        <ele>60.5</ele>
      </trkpt>
      <trkpt lat="43.89199" lon="-0.39345">
        <ele>60.6</ele>
      </trkpt>
      <trkpt lat="43.89217" lon="-0.39348">
        <ele>60.9</ele>
      </trkpt>
      <trkpt lat="43.89238" lon="-0.39351">
        <ele>61</ele>
      </trkpt>
      <trkpt lat="43.89259" lon="-0.39353">
        <ele>61</ele>
      </trkpt>
      <trkpt lat="43.893" lon="-0.39358">
        <ele>60.9</ele>
      </trkpt>
      <trkpt lat="43.89313" lon="-0.39362">
        <ele>60.8</ele>
      </trkpt>
      <trkpt lat="43.89326" lon="-0.39366">
        <ele>60.6</ele>
      </trkpt>
      <trkpt lat="43.89343" lon="-0.39374">
        <ele>59.9</ele>
      </trkpt>
      <trkpt lat="43.89377" lon="-0.39389">
        <ele>56.3</ele>
      </trkpt>
      <trkpt lat="43.89397" lon="-0.39402">
        <ele>54.6</ele>
      </trkpt>
      <trkpt lat="43.89418" lon="-0.39415">
        <ele>52.8</ele>
      </trkpt>
      <trkpt lat="43.89427" lon="-0.39415">
        <ele>53.2</ele>
      </trkpt>
      <trkpt lat="43.89441" lon="-0.3941">
        <ele>53.3</ele>
      </trkpt>
      <trkpt lat="43.89452" lon="-0.39399">
        <ele>54</ele>
      </trkpt>
      <trkpt lat="43.89467" lon="-0.3938">
        <ele>53.6</ele>
      </trkpt>
      <trkpt lat="43.89482" lon="-0.39361">
        <ele>54.4</ele>
      </trkpt>
      <trkpt lat="43.89497" lon="-0.39343">
        <ele>55.5</ele>
      </trkpt>
      <trkpt lat="43.89512" lon="-0.39325">
        <ele>55.9</ele>
      </trkpt>
      <trkpt lat="43.8953" lon="-0.39307">
        <ele>58.1</ele>
      </trkpt>
      <trkpt lat="43.89548" lon="-0.39288">
        <ele>57</ele>
      </trkpt>
      <trkpt lat="43.89582" lon="-0.3925">
        <ele>55.9</ele>
      </trkpt>
      <trkpt lat="43.896" lon="-0.39231">
        <ele>55.6</ele>
      </trkpt>
      <trkpt lat="43.89628" lon="-0.39187">
        <ele>54.1</ele>
      </trkpt>
      <trkpt lat="43.89641" lon="-0.39162">
        <ele>52.7</ele>
      </trkpt>
      <trkpt lat="43.89646" lon="-0.39138">
        <ele>51.4</ele>
      </trkpt>
      <trkpt lat="43.89648" lon="-0.39118">
        <ele>50.6</ele>
      </trkpt>
      <trkpt lat="43.89647" lon="-0.39101">
        <ele>49</ele>
      </trkpt>
      <trkpt lat="43.89645" lon="-0.39097">
        <ele>48.5</ele>
      </trkpt>
      <trkpt lat="43.89641" lon="-0.39072">
        <ele>44.8</ele>
      </trkpt>
      <trkpt lat="43.8964" lon="-0.39053">
        <ele>41.6</ele>
      </trkpt>
      <trkpt lat="43.89643" lon="-0.39031">
        <ele>38.6</ele>
      </trkpt>
      <trkpt lat="43.89645" lon="-0.3901">
        <ele>41.5</ele>
      </trkpt>
      <trkpt lat="43.89644" lon="-0.38985">
        <ele>45.1</ele>
      </trkpt>
      <trkpt lat="43.89633" lon="-0.38955">
        <ele>47.5</ele>
      </trkpt>
      <trkpt lat="43.89632" lon="-0.3894">
        <ele>48.7</ele>
      </trkpt>
      <trkpt lat="43.89633" lon="-0.38927">
        <ele>49.2</ele>
      </trkpt>
      <trkpt lat="43.89637" lon="-0.38912">
        <ele>50.1</ele>
      </trkpt>
      <trkpt lat="43.8966" lon="-0.3887">
        <ele>52.5</ele>
      </trkpt>
      <trkpt lat="43.89677" lon="-0.38845">
        <ele>53.8</ele>
      </trkpt>
      <trkpt lat="43.89694" lon="-0.38819">
        <ele>54</ele>
      </trkpt>
      <trkpt lat="43.89774" lon="-0.38689">
        <ele>55</ele>
      </trkpt>
      <trkpt lat="43.8979" lon="-0.38663">
        <ele>55.4</ele>
      </trkpt>
      <trkpt lat="43.89822" lon="-0.38611">
        <ele>56</ele>
      </trkpt>
      <trkpt lat="43.89864" lon="-0.38542">
        <ele>56</ele>
      </trkpt>
      <trkpt lat="43.89892" lon="-0.38497">
        <ele>56</ele>
      </trkpt>
      <trkpt lat="43.89903" lon="-0.38486">
        <ele>56</ele>
      </trkpt>
      <trkpt lat="43.89925" lon="-0.38477">
        <ele>55.9</ele>
      </trkpt>
      <trkpt lat="43.89946" lon="-0.38469">
        <ele>55.9</ele>
      </trkpt>
      <trkpt lat="43.89995" lon="-0.3845">
        <ele>56</ele>
      </trkpt>
      <trkpt lat="43.90093" lon="-0.38412">
        <ele>56.8</ele>
      </trkpt>
      <trkpt lat="43.90117" lon="-0.38403">
        <ele>56.6</ele>
      </trkpt>
      <trkpt lat="43.90166" lon="-0.38384">
        <ele>57</ele>
      </trkpt>
      <trkpt lat="43.9021" lon="-0.38367">
        <ele>58</ele>
      </trkpt>
      <trkpt lat="43.90232" lon="-0.38358">
        <ele>58</ele>
      </trkpt>
      <trkpt lat="43.90255" lon="-0.38349">
        <ele>58</ele>
      </trkpt>
      <trkpt lat="43.90321" lon="-0.38323">
        <ele>58.2</ele>
      </trkpt>
      <trkpt lat="43.90363" lon="-0.38316">
        <ele>58.6</ele>
      </trkpt>
      <trkpt lat="43.90384" lon="-0.38313">
        <ele>59</ele>
      </trkpt>
      <trkpt lat="43.90427" lon="-0.38306">
        <ele>59.4</ele>
      </trkpt>
      <trkpt lat="43.90497" lon="-0.38293">
        <ele>60.9</ele>
      </trkpt>
      <trkpt lat="43.90521" lon="-0.38289">
        <ele>61</ele>
      </trkpt>
      <trkpt lat="43.90544" lon="-0.38284">
        <ele>61.6</ele>
      </trkpt>
      <trkpt lat="43.90662" lon="-0.38263">
        <ele>61</ele>
      </trkpt>
      <trkpt lat="43.90677" lon="-0.38263">
        <ele>61</ele>
      </trkpt>
      <trkpt lat="43.90691" lon="-0.38263">
        <ele>61</ele>
      </trkpt>
      <trkpt lat="43.90715" lon="-0.38264">
        <ele>61</ele>
      </trkpt>
      <trkpt lat="43.90813" lon="-0.38266">
        <ele>61.3</ele>
      </trkpt>
      <trkpt lat="43.90838" lon="-0.38267">
        <ele>62</ele>
      </trkpt>
      <trkpt lat="43.9086" lon="-0.38268">
        <ele>62</ele>
      </trkpt>
      <trkpt lat="43.90882" lon="-0.38269">
        <ele>62.2</ele>
      </trkpt>
      <trkpt lat="43.90903" lon="-0.38271">
        <ele>62.8</ele>
      </trkpt>
      <trkpt lat="43.90925" lon="-0.38272">
        <ele>63.4</ele>
      </trkpt>
      <trkpt lat="43.90947" lon="-0.38273">
        <ele>63.8</ele>
      </trkpt>
      <trkpt lat="43.90963" lon="-0.38272">
        <ele>63.5</ele>
      </trkpt>
      <trkpt lat="43.90978" lon="-0.38271">
        <ele>63.1</ele>
      </trkpt>
      <trkpt lat="43.91" lon="-0.38268">
        <ele>61.9</ele>
      </trkpt>
      <trkpt lat="43.91022" lon="-0.38261">
        <ele>61.7</ele>
      </trkpt>
      <trkpt lat="43.9104" lon="-0.38249">
        <ele>61.5</ele>
      </trkpt>
      <trkpt lat="43.91062" lon="-0.38234">
        <ele>64</ele>
      </trkpt>
      <trkpt lat="43.91105" lon="-0.38205">
        <ele>65.3</ele>
      </trkpt>
      <trkpt lat="43.91125" lon="-0.38195">
        <ele>65</ele>
      </trkpt>
      <trkpt lat="43.91145" lon="-0.38185">
        <ele>65.3</ele>
      </trkpt>
      <trkpt lat="43.91204" lon="-0.38161">
        <ele>68.1</ele>
      </trkpt>
      <trkpt lat="43.91243" lon="-0.38146">
        <ele>69.5</ele>
      </trkpt>
      <trkpt lat="43.91292" lon="-0.38127">
        <ele>71</ele>
      </trkpt>
      <trkpt lat="43.91341" lon="-0.38109">
        <ele>71.3</ele>
      </trkpt>
      <trkpt lat="43.91414" lon="-0.38082">
        <ele>73.9</ele>
      </trkpt>
      <trkpt lat="43.91438" lon="-0.38073">
        <ele>74</ele>
      </trkpt>
      <trkpt lat="43.91487" lon="-0.38055">
        <ele>74.5</ele>
      </trkpt>
      <trkpt lat="43.91536" lon="-0.38037">
        <ele>75</ele>
      </trkpt>
      <trkpt lat="43.91585" lon="-0.38019">
        <ele>74.7</ele>
      </trkpt>
      <trkpt lat="43.91607" lon="-0.3801">
        <ele>74.9</ele>
      </trkpt>
      <trkpt lat="43.91672" lon="-0.37985">
        <ele>75.1</ele>
      </trkpt>
      <trkpt lat="43.91715" lon="-0.37968">
        <ele>75.8</ele>
      </trkpt>
      <trkpt lat="43.91763" lon="-0.37949">
        <ele>76.1</ele>
      </trkpt>
      <trkpt lat="43.91787" lon="-0.3794">
        <ele>76.3</ele>
      </trkpt>
      <trkpt lat="43.91834" lon="-0.37921">
        <ele>77.2</ele>
      </trkpt>
      <trkpt lat="43.91852" lon="-0.37909">
        <ele>77.5</ele>
      </trkpt>
      <trkpt lat="43.91871" lon="-0.37897">
        <ele>77.5</ele>
      </trkpt>
      <trkpt lat="43.91887" lon="-0.37888">
        <ele>77.9</ele>
      </trkpt>
      <trkpt lat="43.91918" lon="-0.37868">
        <ele>78</ele>
      </trkpt>
      <trkpt lat="43.91957" lon="-0.37845">
        <ele>78</ele>
      </trkpt>
      <trkpt lat="43.91977" lon="-0.37835">
        <ele>78</ele>
      </trkpt>
      <trkpt lat="43.92017" lon="-0.37814">
        <ele>78.9</ele>
      </trkpt>
      <trkpt lat="43.92039" lon="-0.37802">
        <ele>79</ele>
      </trkpt>
      <trkpt lat="43.92084" lon="-0.37777">
        <ele>79</ele>
      </trkpt>
      <trkpt lat="43.92152" lon="-0.37739">
        <ele>80</ele>
      </trkpt>
      <trkpt lat="43.92174" lon="-0.37728">
        <ele>80</ele>
      </trkpt>
      <trkpt lat="43.92218" lon="-0.37705">
        <ele>80</ele>
      </trkpt>
      <trkpt lat="43.92226" lon="-0.37706">
        <ele>80.1</ele>
      </trkpt>
      <trkpt lat="43.92235" lon="-0.37714">
        <ele>80.1</ele>
      </trkpt>
      <trkpt lat="43.92241" lon="-0.37722">
        <ele>80</ele>
      </trkpt>
      <trkpt lat="43.92252" lon="-0.3774">
        <ele>80.7</ele>
      </trkpt>
      <trkpt lat="43.92264" lon="-0.37759">
        <ele>81</ele>
      </trkpt>
      <trkpt lat="43.92277" lon="-0.37779">
        <ele>81.1</ele>
      </trkpt>
      <trkpt lat="43.9229" lon="-0.37799">
        <ele>81.4</ele>
      </trkpt>
      <trkpt lat="43.92305" lon="-0.37813">
        <ele>81.3</ele>
      </trkpt>
      <trkpt lat="43.92318" lon="-0.37817">
        <ele>81.4</ele>
      </trkpt>
      <trkpt lat="43.9233" lon="-0.37821">
        <ele>81.5</ele>
      </trkpt>
      <trkpt lat="43.92363" lon="-0.3783">
        <ele>82</ele>
      </trkpt>
      <trkpt lat="43.92423" lon="-0.3783">
        <ele>82.3</ele>
      </trkpt>
      <trkpt lat="43.92439" lon="-0.37829">
        <ele>82.8</ele>
      </trkpt>
      <trkpt lat="43.92454" lon="-0.37828">
        <ele>83</ele>
      </trkpt>
      <trkpt lat="43.9249" lon="-0.37819">
        <ele>83</ele>
      </trkpt>
      <trkpt lat="43.92508" lon="-0.37815">
        <ele>83.3</ele>
      </trkpt>
      <trkpt lat="43.92528" lon="-0.37805">
        <ele>84</ele>
      </trkpt>
      <trkpt lat="43.92543" lon="-0.37791">
        <ele>84</ele>
      </trkpt>
      <trkpt lat="43.92559" lon="-0.37777">
        <ele>84.1</ele>
      </trkpt>
      <trkpt lat="43.92591" lon="-0.3775">
        <ele>84</ele>
      </trkpt>
      <trkpt lat="43.92614" lon="-0.37735">
        <ele>84.1</ele>
      </trkpt>
      <trkpt lat="43.92637" lon="-0.37718">
        <ele>84</ele>
      </trkpt>
      <trkpt lat="43.92656" lon="-0.37697">
        <ele>82.9</ele>
      </trkpt>
      <trkpt lat="43.92694" lon="-0.37655">
        <ele>79.1</ele>
      </trkpt>
      <trkpt lat="43.92712" lon="-0.37642">
        <ele>79.6</ele>
      </trkpt>
      <trkpt lat="43.92731" lon="-0.3763">
        <ele>80.7</ele>
      </trkpt>
      <trkpt lat="43.92748" lon="-0.37626">
        <ele>81.8</ele>
      </trkpt>
      <trkpt lat="43.92783" lon="-0.37618">
        <ele>84.2</ele>
      </trkpt>
      <trkpt lat="43.92806" lon="-0.37615">
        <ele>85</ele>
      </trkpt>
      <trkpt lat="43.92829" lon="-0.37611">
        <ele>85.9</ele>
      </trkpt>
      <trkpt lat="43.92853" lon="-0.37607">
        <ele>86</ele>
      </trkpt>
      <trkpt lat="43.92874" lon="-0.37598">
        <ele>86.2</ele>
      </trkpt>
      <trkpt lat="43.92895" lon="-0.37589">
        <ele>86.4</ele>
      </trkpt>
      <trkpt lat="43.93022" lon="-0.37532">
        <ele>88</ele>
      </trkpt>
      <trkpt lat="43.93043" lon="-0.37523">
        <ele>88</ele>
      </trkpt>
      <trkpt lat="43.93085" lon="-0.37505">
        <ele>88</ele>
      </trkpt>
      <trkpt lat="43.93169" lon="-0.37468">
        <ele>87</ele>
      </trkpt>
      <trkpt lat="43.93194" lon="-0.37463">
        <ele>87</ele>
      </trkpt>
      <trkpt lat="43.93208" lon="-0.37466">
        <ele>87</ele>
      </trkpt>
      <trkpt lat="43.93221" lon="-0.37468">
        <ele>87</ele>
      </trkpt>
      <trkpt lat="43.93242" lon="-0.37477">
        <ele>87</ele>
      </trkpt>
      <trkpt lat="43.93302" lon="-0.37504">
        <ele>87.9</ele>
      </trkpt>
      <trkpt lat="43.93321" lon="-0.37511">
        <ele>88</ele>
      </trkpt>
      <trkpt lat="43.9334" lon="-0.37517">
        <ele>88.1</ele>
      </trkpt>
      <trkpt lat="43.93378" lon="-0.3753">
        <ele>88.6</ele>
      </trkpt>
      <trkpt lat="43.93384" lon="-0.37538">
        <ele>88.9</ele>
      </trkpt>
      <trkpt lat="43.93407" lon="-0.37573">
        <ele>89</ele>
      </trkpt>
      <trkpt lat="43.93415" lon="-0.37584">
        <ele>89</ele>
      </trkpt>
      <trkpt lat="43.93418" lon="-0.37589">
        <ele>89.2</ele>
      </trkpt>
      <trkpt lat="43.93446" lon="-0.37634">
        <ele>90</ele>
      </trkpt>
      <trkpt lat="43.93467" lon="-0.37668">
        <ele>90.2</ele>
      </trkpt>
      <trkpt lat="43.9348" lon="-0.37688">
        <ele>90.8</ele>
      </trkpt>
      <trkpt lat="43.93483" lon="-0.37693">
        <ele>91</ele>
      </trkpt>
      <trkpt lat="43.93485" lon="-0.37696">
        <ele>91</ele>
      </trkpt>
      <trkpt lat="43.93496" lon="-0.3771">
        <ele>91</ele>
      </trkpt>
      <trkpt lat="43.93502" lon="-0.37717">
        <ele>91</ele>
      </trkpt>
      <trkpt lat="43.93509" lon="-0.37719">
        <ele>91</ele>
      </trkpt>
      <trkpt lat="43.93516" lon="-0.37722">
        <ele>91</ele>
      </trkpt>
      <trkpt lat="43.93544" lon="-0.37716">
        <ele>91</ele>
      </trkpt>
      <trkpt lat="43.93629" lon="-0.37697">
        <ele>91.7</ele>
      </trkpt>
      <trkpt lat="43.93643" lon="-0.37694">
        <ele>91.9</ele>
      </trkpt>
      <trkpt lat="43.93656" lon="-0.37684">
        <ele>91.6</ele>
      </trkpt>
      <trkpt lat="43.9368" lon="-0.37664">
        <ele>92</ele>
      </trkpt>
      <trkpt lat="43.93705" lon="-0.37645">
        <ele>91.7</ele>
      </trkpt>
      <trkpt lat="43.93805" lon="-0.37566">
        <ele>91</ele>
      </trkpt>
      <trkpt lat="43.93817" lon="-0.37556">
        <ele>91</ele>
      </trkpt>
      <trkpt lat="43.93839" lon="-0.37532">
        <ele>91.2</ele>
      </trkpt>
      <trkpt lat="43.93861" lon="-0.37509">
        <ele>91.3</ele>
      </trkpt>
      <trkpt lat="43.93873" lon="-0.37497">
        <ele>91.5</ele>
      </trkpt>
      <trkpt lat="43.93895" lon="-0.37473">
        <ele>92</ele>
      </trkpt>
      <trkpt lat="43.93916" lon="-0.37453">
        <ele>92</ele>
      </trkpt>
      <trkpt lat="43.93927" lon="-0.37443">
        <ele>92</ele>
      </trkpt>
      <trkpt lat="43.93953" lon="-0.37423">
        <ele>92</ele>
      </trkpt>
      <trkpt lat="43.94016" lon="-0.37373">
        <ele>92</ele>
      </trkpt>
      <trkpt lat="43.94029" lon="-0.37363">
        <ele>92</ele>
      </trkpt>
      <trkpt lat="43.94053" lon="-0.37345">
        <ele>92</ele>
      </trkpt>
      <trkpt lat="43.94089" lon="-0.37317">
        <ele>91.9</ele>
      </trkpt>
      <trkpt lat="43.94101" lon="-0.37308">
        <ele>91.4</ele>
      </trkpt>
      <trkpt lat="43.94107" lon="-0.37278">
        <ele>90.3</ele>
      </trkpt>
      <trkpt lat="43.9411" lon="-0.37263">
        <ele>90.6</ele>
      </trkpt>
      <trkpt lat="43.94121" lon="-0.37226">
        <ele>90.3</ele>
      </trkpt>
      <trkpt lat="43.94157" lon="-0.37239">
        <ele>87.7</ele>
      </trkpt>
      <trkpt lat="43.94175" lon="-0.37246">
        <ele>87.7</ele>
      </trkpt>
      <trkpt lat="43.9418" lon="-0.37248">
        <ele>88</ele>
      </trkpt>
      <trkpt lat="43.94184" lon="-0.37249">
        <ele>88.3</ele>
      </trkpt>
      <trkpt lat="43.94186" lon="-0.3725">
        <ele>88.4</ele>
      </trkpt>
      <trkpt lat="43.94189" lon="-0.37251">
        <ele>88.6</ele>
      </trkpt>
      <trkpt lat="43.94197" lon="-0.37256">
        <ele>89.3</ele>
      </trkpt>
      <trkpt lat="43.94202" lon="-0.37258">
        <ele>89.7</ele>
      </trkpt>
      <trkpt lat="43.94206" lon="-0.3726">
        <ele>90.1</ele>
      </trkpt>
      <trkpt lat="43.94208" lon="-0.37261">
        <ele>90.3</ele>
      </trkpt>
      <trkpt lat="43.94215" lon="-0.37265">
        <ele>90.8</ele>
      </trkpt>
      <trkpt lat="43.94226" lon="-0.3727">
        <ele>91.4</ele>
      </trkpt>
      <trkpt lat="43.9423" lon="-0.37273">
        <ele>91.4</ele>
      </trkpt>
      <trkpt lat="43.94232" lon="-0.37274">
        <ele>91.5</ele>
      </trkpt>
      <trkpt lat="43.94258" lon="-0.37262">
        <ele>92.3</ele>
      </trkpt>
      <trkpt lat="43.94293" lon="-0.37246">
        <ele>93</ele>
      </trkpt>
      <trkpt lat="43.94401" lon="-0.37192">
        <ele>93</ele>
      </trkpt>
      <trkpt lat="43.94645" lon="-0.37072">
        <ele>93.7</ele>
      </trkpt>
      <trkpt lat="43.94971" lon="-0.36921">
        <ele>96</ele>
      </trkpt>
      <trkpt lat="43.95013" lon="-0.36902">
        <ele>97</ele>
      </trkpt>
      <trkpt lat="43.94995" lon="-0.36981">
        <ele>97</ele>
      </trkpt>
      <trkpt lat="43.95025" lon="-0.36982">
        <ele>97</ele>
      </trkpt>
      <trkpt lat="43.95232" lon="-0.36958">
        <ele>96.7</ele>
      </trkpt>
      <trkpt lat="43.95309" lon="-0.36945">
        <ele>97</ele>
      </trkpt>
      <trkpt lat="43.95337" lon="-0.36945">
        <ele>97</ele>
      </trkpt>
      <trkpt lat="43.95403" lon="-0.36949">
        <ele>97</ele>
      </trkpt>
      <trkpt lat="43.95588" lon="-0.36963">
        <ele>97.7</ele>
      </trkpt>
      <trkpt lat="43.95701" lon="-0.36973">
        <ele>98</ele>
      </trkpt>
      <trkpt lat="43.95739" lon="-0.3697">
        <ele>98</ele>
      </trkpt>
      <trkpt lat="43.95767" lon="-0.36968">
        <ele>98.7</ele>
      </trkpt>
      <trkpt lat="43.95799" lon="-0.36958">
        <ele>99</ele>
      </trkpt>
      <trkpt lat="43.95883" lon="-0.36928">
        <ele>99</ele>
      </trkpt>
      <trkpt lat="43.95912" lon="-0.36906">
        <ele>99.3</ele>
      </trkpt>
      <trkpt lat="43.95959" lon="-0.36861">
        <ele>100.5</ele>
      </trkpt>
      <trkpt lat="43.95985" lon="-0.36837">
        <ele>100.9</ele>
      </trkpt>
      <trkpt lat="43.96029" lon="-0.36801">
        <ele>102</ele>
      </trkpt>
      <trkpt lat="43.96055" lon="-0.36784">
        <ele>102</ele>
      </trkpt>
      <trkpt lat="43.96085" lon="-0.36762">
        <ele>102</ele>
      </trkpt>
      <trkpt lat="43.96128" lon="-0.36714">
        <ele>103</ele>
      </trkpt>
      <trkpt lat="43.96152" lon="-0.36686">
        <ele>103.3</ele>
      </trkpt>
      <trkpt lat="43.9618" lon="-0.36649">
        <ele>104</ele>
      </trkpt>
      <trkpt lat="43.96199" lon="-0.3663">
        <ele>104.5</ele>
      </trkpt>
      <trkpt lat="43.96436" lon="-0.36477">
        <ele>107.1</ele>
      </trkpt>
      <trkpt lat="43.96498" lon="-0.36437">
        <ele>106</ele>
      </trkpt>
      <trkpt lat="43.96623" lon="-0.36361">
        <ele>105</ele>
      </trkpt>
      <trkpt lat="43.96657" lon="-0.36349">
        <ele>105</ele>
      </trkpt>
      <trkpt lat="43.96698" lon="-0.36317">
        <ele>105.5</ele>
      </trkpt>
      <trkpt lat="43.96728" lon="-0.36288">
        <ele>104.8</ele>
      </trkpt>
      <trkpt lat="43.96748" lon="-0.36275">
        <ele>104.1</ele>
      </trkpt>
      <trkpt lat="43.968" lon="-0.36241">
        <ele>103.3</ele>
      </trkpt>
      <trkpt lat="43.96872" lon="-0.36204">
        <ele>103.4</ele>
      </trkpt>
      <trkpt lat="43.96909" lon="-0.36181">
        <ele>103.1</ele>
      </trkpt>
      <trkpt lat="43.97" lon="-0.36122">
        <ele>102</ele>
      </trkpt>
      <trkpt lat="43.97143" lon="-0.36033">
        <ele>98.1</ele>
      </trkpt>
      <trkpt lat="43.97153" lon="-0.36032">
        <ele>98.4</ele>
      </trkpt>
      <trkpt lat="43.97193" lon="-0.36017">
        <ele>100.9</ele>
      </trkpt>
      <trkpt lat="43.97246" lon="-0.35985">
        <ele>101.2</ele>
      </trkpt>
      <trkpt lat="43.97333" lon="-0.35917">
        <ele>98</ele>
      </trkpt>
      <trkpt lat="43.97357" lon="-0.35901">
        <ele>98.4</ele>
      </trkpt>
      <trkpt lat="43.97382" lon="-0.3589">
        <ele>98.8</ele>
      </trkpt>
      <trkpt lat="43.97421" lon="-0.35874">
        <ele>100.2</ele>
      </trkpt>
      <trkpt lat="43.97436" lon="-0.35869">
        <ele>100.7</ele>
      </trkpt>
      <trkpt lat="43.97482" lon="-0.35856">
        <ele>102.1</ele>
      </trkpt>
      <trkpt lat="43.97642" lon="-0.35765">
        <ele>104</ele>
      </trkpt>
      <trkpt lat="43.97774" lon="-0.35692">
        <ele>104.1</ele>
      </trkpt>
      <trkpt lat="43.97801" lon="-0.35679">
        <ele>104.9</ele>
      </trkpt>
      <trkpt lat="43.9782" lon="-0.35676">
        <ele>105</ele>
      </trkpt>
      <trkpt lat="43.9784" lon="-0.35675">
        <ele>104.9</ele>
      </trkpt>
      <trkpt lat="43.97855" lon="-0.35678">
        <ele>104.7</ele>
      </trkpt>
      <trkpt lat="43.97918" lon="-0.35696">
        <ele>104</ele>
      </trkpt>
      <trkpt lat="43.98143" lon="-0.35755">
        <ele>103.2</ele>
      </trkpt>
      <trkpt lat="43.98162" lon="-0.35761">
        <ele>103.4</ele>
      </trkpt>
      <trkpt lat="43.9824" lon="-0.35781">
        <ele>103</ele>
      </trkpt>
      <trkpt lat="43.98396" lon="-0.35823">
        <ele>102.8</ele>
      </trkpt>
      <trkpt lat="43.98536" lon="-0.3586">
        <ele>101</ele>
      </trkpt>
      <trkpt lat="43.98566" lon="-0.35872">
        <ele>100.8</ele>
      </trkpt>
      <trkpt lat="43.98794" lon="-0.35958">
        <ele>98</ele>
      </trkpt>
      <trkpt lat="43.98815" lon="-0.35957">
        <ele>98</ele>
      </trkpt>
      <trkpt lat="43.98838" lon="-0.35947">
        <ele>98</ele>
      </trkpt>
      <trkpt lat="43.98935" lon="-0.359">
        <ele>97</ele>
      </trkpt>
      <trkpt lat="43.98986" lon="-0.35878">
        <ele>97</ele>
      </trkpt>
      <trkpt lat="43.99" lon="-0.35875">
        <ele>97</ele>
      </trkpt>
      <trkpt lat="43.99059" lon="-0.35864">
        <ele>97.1</ele>
      </trkpt>
      <trkpt lat="43.99181" lon="-0.35844">
        <ele>98</ele>
      </trkpt>
      <trkpt lat="43.99333" lon="-0.35814">
        <ele>94.3</ele>
      </trkpt>
      <trkpt lat="43.99349" lon="-0.35808">
        <ele>93.1</ele>
      </trkpt>
      <trkpt lat="43.99362" lon="-0.35798">
        <ele>91.7</ele>
      </trkpt>
      <trkpt lat="43.99377" lon="-0.3578">
        <ele>91.1</ele>
      </trkpt>
      <trkpt lat="43.99405" lon="-0.35741">
        <ele>88.3</ele>
      </trkpt>
      <trkpt lat="43.99435" lon="-0.35685">
        <ele>83.8</ele>
      </trkpt>
      <trkpt lat="43.99452" lon="-0.35656">
        <ele>82</ele>
      </trkpt>
      <trkpt lat="43.99479" lon="-0.35608">
        <ele>78.7</ele>
      </trkpt>
      <trkpt lat="43.99498" lon="-0.35576">
        <ele>80.1</ele>
      </trkpt>
      <trkpt lat="43.99502" lon="-0.3556">
        <ele>81</ele>
      </trkpt>
      <trkpt lat="43.99505" lon="-0.35543">
        <ele>82.3</ele>
      </trkpt>
      <trkpt lat="43.99505" lon="-0.35523">
        <ele>83.7</ele>
      </trkpt>
      <trkpt lat="43.99492" lon="-0.35487">
        <ele>85.5</ele>
      </trkpt>
      <trkpt lat="43.99479" lon="-0.35431">
        <ele>86</ele>
      </trkpt>
      <trkpt lat="43.99487" lon="-0.35409">
        <ele>86.1</ele>
      </trkpt>
      <trkpt lat="43.99493" lon="-0.35398">
        <ele>86.2</ele>
      </trkpt>
      <trkpt lat="43.99506" lon="-0.35389">
        <ele>86.2</ele>
      </trkpt>
      <trkpt lat="43.9953" lon="-0.35382">
        <ele>87</ele>
      </trkpt>
      <trkpt lat="43.99565" lon="-0.35368">
        <ele>87</ele>
      </trkpt>
      <trkpt lat="43.99586" lon="-0.35361">
        <ele>87</ele>
      </trkpt>
      <trkpt lat="43.99606" lon="-0.35358">
        <ele>87.1</ele>
      </trkpt>
      <trkpt lat="43.99634" lon="-0.35348">
        <ele>86.6</ele>
      </trkpt>
      <trkpt lat="43.99653" lon="-0.35341">
        <ele>86.7</ele>
      </trkpt>
      <trkpt lat="43.99681" lon="-0.35328">
        <ele>87.2</ele>
      </trkpt>
      <trkpt lat="43.99692" lon="-0.35318">
        <ele>87.5</ele>
      </trkpt>
      <trkpt lat="43.9971" lon="-0.35297">
        <ele>88.3</ele>
      </trkpt>
      <trkpt lat="43.99728" lon="-0.35271">
        <ele>89.7</ele>
      </trkpt>
      <trkpt lat="43.99745" lon="-0.35254">
        <ele>90.8</ele>
      </trkpt>
      <trkpt lat="43.99797" lon="-0.35215">
        <ele>93.4</ele>
      </trkpt>
      <trkpt lat="43.99821" lon="-0.35199">
        <ele>94.6</ele>
      </trkpt>
      <trkpt lat="43.99893" lon="-0.35134">
        <ele>98.3</ele>
      </trkpt>
      <trkpt lat="43.99938" lon="-0.35098">
        <ele>99.8</ele>
      </trkpt>
      <trkpt lat="43.99981" lon="-0.35064">
        <ele>100</ele>
      </trkpt>
      <trkpt lat="44.00019" lon="-0.35043">
        <ele>99.6</ele>
      </trkpt>
      <trkpt lat="44.0013" lon="-0.34977">
        <ele>96.2</ele>
      </trkpt>
      <trkpt lat="44.0014" lon="-0.34981">
        <ele>95.7</ele>
      </trkpt>
      <trkpt lat="44.00146" lon="-0.34982">
        <ele>95.5</ele>
      </trkpt>
      <trkpt lat="44.00164" lon="-0.34972">
        <ele>95.1</ele>
      </trkpt>
      <trkpt lat="44.00204" lon="-0.34957">
        <ele>94.2</ele>
      </trkpt>
      <trkpt lat="44.00227" lon="-0.34946">
        <ele>94</ele>
      </trkpt>
      <trkpt lat="44.00254" lon="-0.34921">
        <ele>94.9</ele>
      </trkpt>
      <trkpt lat="44.00286" lon="-0.34898">
        <ele>94.7</ele>
      </trkpt>
      <trkpt lat="44.00307" lon="-0.3489">
        <ele>94</ele>
      </trkpt>
      <trkpt lat="44.00359" lon="-0.34869">
        <ele>93.9</ele>
      </trkpt>
      <trkpt lat="44.00381" lon="-0.34855">
        <ele>94.7</ele>
      </trkpt>
      <trkpt lat="44.00379" lon="-0.3484">
        <ele>94.7</ele>
      </trkpt>
      <trkpt lat="44.00381" lon="-0.34827">
        <ele>94.8</ele>
      </trkpt>
      <trkpt lat="44.00394" lon="-0.34807">
        <ele>95</ele>
      </trkpt>
      <trkpt lat="44.00378" lon="-0.34789">
        <ele>95</ele>
      </trkpt>
      <trkpt lat="44.00371" lon="-0.34774">
        <ele>95</ele>
      </trkpt>
      <trkpt lat="44.0036" lon="-0.34743">
        <ele>95.3</ele>
      </trkpt>
      <trkpt lat="44.00348" lon="-0.34711">
        <ele>96.2</ele>
      </trkpt>
      <trkpt lat="44.00337" lon="-0.34691">
        <ele>96.8</ele>
      </trkpt>
      <trkpt lat="44.00409" lon="-0.34635">
        <ele>96.4</ele>
      </trkpt>
      <trkpt lat="44.0051" lon="-0.34564">
        <ele>96</ele>
      </trkpt>
      <trkpt lat="44.00578" lon="-0.34534">
        <ele>97.2</ele>
      </trkpt>
      <trkpt lat="44.0067" lon="-0.34498">
        <ele>97.1</ele>
      </trkpt>
      <trkpt lat="44.00699" lon="-0.34505">
        <ele>97.1</ele>
      </trkpt>
      <trkpt lat="44.00753" lon="-0.34491">
        <ele>95.9</ele>
      </trkpt>
      <trkpt lat="44.00782" lon="-0.34504">
        <ele>95</ele>
      </trkpt>
      <trkpt lat="44.00862" lon="-0.34516">
        <ele>95.6</ele>
      </trkpt>
      <trkpt lat="44.00955" lon="-0.34528">
        <ele>96</ele>
      </trkpt>
      <trkpt lat="44.01031" lon="-0.34523">
        <ele>97.4</ele>
      </trkpt>
      <trkpt lat="44.01099" lon="-0.34517">
        <ele>99</ele>
      </trkpt>
      <trkpt lat="44.01138" lon="-0.34519">
        <ele>99</ele>
      </trkpt>
      <trkpt lat="44.01163" lon="-0.34536">
        <ele>99</ele>
      </trkpt>
      <trkpt lat="44.01179" lon="-0.34538">
        <ele>99.3</ele>
      </trkpt>
      <trkpt lat="44.01251" lon="-0.34541">
        <ele>100</ele>
      </trkpt>
      <trkpt lat="44.01272" lon="-0.34548">
        <ele>100</ele>
      </trkpt>
      <trkpt lat="44.01296" lon="-0.34554">
        <ele>99.4</ele>
      </trkpt>
      <trkpt lat="44.01321" lon="-0.34556">
        <ele>99.5</ele>
      </trkpt>
      <trkpt lat="44.01347" lon="-0.34548">
        <ele>99.5</ele>
      </trkpt>
      <trkpt lat="44.0138" lon="-0.34548">
        <ele>99.7</ele>
      </trkpt>
      <trkpt lat="44.0145" lon="-0.34543">
        <ele>100</ele>
      </trkpt>
      <trkpt lat="44.01494" lon="-0.34533">
        <ele>99.2</ele>
      </trkpt>
      <trkpt lat="44.01568" lon="-0.34515">
        <ele>98.6</ele>
      </trkpt>
      <trkpt lat="44.0162" lon="-0.34491">
        <ele>97.7</ele>
      </trkpt>
      <trkpt lat="44.01696" lon="-0.34464">
        <ele>98</ele>
      </trkpt>
      <trkpt lat="44.01765" lon="-0.3443">
        <ele>96.5</ele>
      </trkpt>
      <trkpt lat="44.01793" lon="-0.34412">
        <ele>96</ele>
      </trkpt>
      <trkpt lat="44.0182" lon="-0.344">
        <ele>95.7</ele>
      </trkpt>
      <trkpt lat="44.01841" lon="-0.34396">
        <ele>95.5</ele>
      </trkpt>
      <trkpt lat="44.0186" lon="-0.34392">
        <ele>96</ele>
      </trkpt>
      <trkpt lat="44.01865" lon="-0.34383">
        <ele>95.7</ele>
      </trkpt>
      <trkpt lat="44.01894" lon="-0.34331">
        <ele>95.7</ele>
      </trkpt>
      <trkpt lat="44.01911" lon="-0.34303">
        <ele>94.8</ele>
      </trkpt>
      <trkpt lat="44.01932" lon="-0.34282">
        <ele>95.5</ele>
      </trkpt>
      <trkpt lat="44.01956" lon="-0.34262">
        <ele>96</ele>
      </trkpt>
      <trkpt lat="44.01984" lon="-0.34243">
        <ele>96.1</ele>
      </trkpt>
      <trkpt lat="44.02026" lon="-0.34219">
        <ele>96</ele>
      </trkpt>
      <trkpt lat="44.0207" lon="-0.34187">
        <ele>95.6</ele>
      </trkpt>
      <trkpt lat="44.02089" lon="-0.34169">
        <ele>95.5</ele>
      </trkpt>
      <trkpt lat="44.02111" lon="-0.34142">
        <ele>95.8</ele>
      </trkpt>
      <trkpt lat="44.02148" lon="-0.34083">
        <ele>94.7</ele>
      </trkpt>
      <trkpt lat="44.02212" lon="-0.33986">
        <ele>95.8</ele>
      </trkpt>
      <trkpt lat="44.02186" lon="-0.33947">
        <ele>96</ele>
      </trkpt>
      <trkpt lat="44.02168" lon="-0.33931">
        <ele>96</ele>
      </trkpt>
      <trkpt lat="44.02162" lon="-0.33921">
        <ele>95.8</ele>
      </trkpt>
      <trkpt lat="44.0215" lon="-0.3388">
        <ele>96.4</ele>
      </trkpt>
      <trkpt lat="44.02142" lon="-0.33853">
        <ele>96.4</ele>
      </trkpt>
      <trkpt lat="44.02126" lon="-0.33802">
        <ele>96.5</ele>
      </trkpt>
      <trkpt lat="44.02104" lon="-0.33733">
        <ele>96.4</ele>
      </trkpt>
      <trkpt lat="44.02104" lon="-0.33719">
        <ele>96.7</ele>
      </trkpt>
      <trkpt lat="44.02105" lon="-0.33706">
        <ele>96.8</ele>
      </trkpt>
      <trkpt lat="44.02107" lon="-0.33698">
        <ele>96.9</ele>
      </trkpt>
      <trkpt lat="44.02111" lon="-0.33693">
        <ele>97.1</ele>
      </trkpt>
      <trkpt lat="44.02119" lon="-0.33688">
        <ele>97.7</ele>
      </trkpt>
      <trkpt lat="44.02134" lon="-0.33685">
        <ele>98.7</ele>
      </trkpt>
      <trkpt lat="44.02148" lon="-0.33679">
        <ele>99.2</ele>
      </trkpt>
      <trkpt lat="44.02164" lon="-0.33667">
        <ele>99.9</ele>
      </trkpt>
      <trkpt lat="44.0219" lon="-0.33645">
        <ele>99.2</ele>
      </trkpt>
      <trkpt lat="44.02242" lon="-0.33614">
        <ele>97.3</ele>
      </trkpt>
      <trkpt lat="44.02262" lon="-0.33602">
        <ele>96.7</ele>
      </trkpt>
      <trkpt lat="44.02271" lon="-0.33593">
        <ele>96.7</ele>
      </trkpt>
      <trkpt lat="44.02293" lon="-0.33562">
        <ele>96.4</ele>
      </trkpt>
      <trkpt lat="44.02312" lon="-0.33549">
        <ele>96</ele>
      </trkpt>
      <trkpt lat="44.02327" lon="-0.33543">
        <ele>96</ele>
      </trkpt>
      <trkpt lat="44.02381" lon="-0.33515">
        <ele>95.5</ele>
      </trkpt>
      <trkpt lat="44.02412" lon="-0.33494">
        <ele>95.3</ele>
      </trkpt>
      <trkpt lat="44.02455" lon="-0.33461">
        <ele>95</ele>
      </trkpt>
      <trkpt lat="44.02485" lon="-0.33441">
        <ele>94.6</ele>
      </trkpt>
      <trkpt lat="44.02511" lon="-0.33425">
        <ele>94</ele>
      </trkpt>
      <trkpt lat="44.02544" lon="-0.33412">
        <ele>93.4</ele>
      </trkpt>
      <trkpt lat="44.02538" lon="-0.33379">
        <ele>93.1</ele>
      </trkpt>
      <trkpt lat="44.02529" lon="-0.33351">
        <ele>93.8</ele>
      </trkpt>
      <trkpt lat="44.02521" lon="-0.33328">
        <ele>93.7</ele>
      </trkpt>
      <trkpt lat="44.02496" lon="-0.33276">
        <ele>94.8</ele>
      </trkpt>
      <trkpt lat="44.02478" lon="-0.3324">
        <ele>94.8</ele>
      </trkpt>
      <trkpt lat="44.0245" lon="-0.33188">
        <ele>95.8</ele>
      </trkpt>
      <trkpt lat="44.02431" lon="-0.33151">
        <ele>95.9</ele>
      </trkpt>
      <trkpt lat="44.0241" lon="-0.33114">
        <ele>98.2</ele>
      </trkpt>
      <trkpt lat="44.02403" lon="-0.33106">
        <ele>98.1</ele>
      </trkpt>
      <trkpt lat="44.02387" lon="-0.33096">
        <ele>99</ele>
      </trkpt>
      <trkpt lat="44.02378" lon="-0.33082">
        <ele>99</ele>
      </trkpt>
      <trkpt lat="44.02374" lon="-0.33069">
        <ele>99.3</ele>
      </trkpt>
      <trkpt lat="44.02373" lon="-0.33059">
        <ele>99.5</ele>
      </trkpt>
      <trkpt lat="44.02467" lon="-0.33016">
        <ele>98.5</ele>
      </trkpt>
      <trkpt lat="44.02463" lon="-0.33004">
        <ele>98.9</ele>
      </trkpt>
      <trkpt lat="44.02538" lon="-0.32968">
        <ele>97.7</ele>
      </trkpt>
      <trkpt lat="44.02639" lon="-0.32912">
        <ele>97</ele>
      </trkpt>
      <trkpt lat="44.02654" lon="-0.32895">
        <ele>96.9</ele>
      </trkpt>
      <trkpt lat="44.02666" lon="-0.32863">
        <ele>97</ele>
      </trkpt>
      <trkpt lat="44.0268" lon="-0.32845">
        <ele>96.5</ele>
      </trkpt>
      <trkpt lat="44.02712" lon="-0.3282">
        <ele>96.5</ele>
      </trkpt>
      <trkpt lat="44.02727" lon="-0.32817">
        <ele>96.4</ele>
      </trkpt>
      <trkpt lat="44.0276" lon="-0.32825">
        <ele>95.3</ele>
      </trkpt>
      <trkpt lat="44.02782" lon="-0.32824">
        <ele>95.3</ele>
      </trkpt>
      <trkpt lat="44.02838" lon="-0.32784">
        <ele>95.6</ele>
      </trkpt>
      <trkpt lat="44.02883" lon="-0.32743">
        <ele>95.5</ele>
      </trkpt>
      <trkpt lat="44.02919" lon="-0.32749">
        <ele>94.1</ele>
      </trkpt>
      <trkpt lat="44.02981" lon="-0.32759">
        <ele>93.7</ele>
      </trkpt>
      <trkpt lat="44.03004" lon="-0.32756">
        <ele>92.7</ele>
      </trkpt>
      <trkpt lat="44.03067" lon="-0.32734">
        <ele>88.6</ele>
      </trkpt>
      <trkpt lat="44.03099" lon="-0.32715">
        <ele>87.9</ele>
      </trkpt>
      <trkpt lat="44.03123" lon="-0.32697">
        <ele>86.8</ele>
      </trkpt>
      <trkpt lat="44.03145" lon="-0.32672">
        <ele>82.7</ele>
      </trkpt>
      <trkpt lat="44.03158" lon="-0.32649">
        <ele>78.1</ele>
      </trkpt>
      <trkpt lat="44.03161" lon="-0.32629">
        <ele>77.6</ele>
      </trkpt>
      <trkpt lat="44.03161" lon="-0.32589">
        <ele>77.9</ele>
      </trkpt>
      <trkpt lat="44.03159" lon="-0.32524">
        <ele>73.6</ele>
      </trkpt>
      <trkpt lat="44.03159" lon="-0.32516">
        <ele>72.9</ele>
      </trkpt>
      <trkpt lat="44.03162" lon="-0.32482">
        <ele>69.6</ele>
      </trkpt>
      <trkpt lat="44.03162" lon="-0.32478">
        <ele>69.1</ele>
      </trkpt>
      <trkpt lat="44.03164" lon="-0.32476">
        <ele>68.7</ele>
      </trkpt>
      <trkpt lat="44.0317" lon="-0.3247">
        <ele>67.7</ele>
      </trkpt>
      <trkpt lat="44.03176" lon="-0.32465">
        <ele>67.4</ele>
      </trkpt>
      <trkpt lat="44.03191" lon="-0.32451">
        <ele>66.3</ele>
      </trkpt>
      <trkpt lat="44.03212" lon="-0.32432">
        <ele>62.2</ele>
      </trkpt>
      <trkpt lat="44.03214" lon="-0.32429">
        <ele>61.5</ele>
      </trkpt>
      <trkpt lat="44.03217" lon="-0.32427">
        <ele>60.7</ele>
      </trkpt>
      <trkpt lat="44.03223" lon="-0.32418">
        <ele>58.2</ele>
      </trkpt>
      <trkpt lat="44.03237" lon="-0.32396">
        <ele>60.9</ele>
      </trkpt>
      <trkpt lat="44.03245" lon="-0.32384">
        <ele>64.7</ele>
      </trkpt>
      <trkpt lat="44.0327" lon="-0.32373">
        <ele>66.8</ele>
      </trkpt>
      <trkpt lat="44.03276" lon="-0.32374">
        <ele>67</ele>
      </trkpt>
      <trkpt lat="44.0328" lon="-0.32375">
        <ele>67.1</ele>
      </trkpt>
      <trkpt lat="44.03283" lon="-0.32374">
        <ele>67.3</ele>
      </trkpt>
      <trkpt lat="44.03287" lon="-0.32374">
        <ele>67.5</ele>
      </trkpt>
      <trkpt lat="44.0331" lon="-0.32371">
        <ele>68.7</ele>
      </trkpt>
      <trkpt lat="44.03313" lon="-0.32369">
        <ele>68.8</ele>
      </trkpt>
      <trkpt lat="44.03373" lon="-0.32341">
        <ele>69.6</ele>
      </trkpt>
      <trkpt lat="44.03382" lon="-0.32338">
        <ele>69.3</ele>
      </trkpt>
      <trkpt lat="44.03394" lon="-0.32333">
        <ele>69</ele>
      </trkpt>
      <trkpt lat="44.03397" lon="-0.32331">
        <ele>69</ele>
      </trkpt>
      <trkpt lat="44.03402" lon="-0.32326">
        <ele>69</ele>
      </trkpt>
      <trkpt lat="44.03405" lon="-0.32323">
        <ele>69</ele>
      </trkpt>
      <trkpt lat="44.03408" lon="-0.32317">
        <ele>69</ele>
      </trkpt>
      <trkpt lat="44.03409" lon="-0.32314">
        <ele>69</ele>
      </trkpt>
      <trkpt lat="44.03411" lon="-0.32311">
        <ele>69</ele>
      </trkpt>
      <trkpt lat="44.03412" lon="-0.3231">
        <ele>69</ele>
      </trkpt>
      <trkpt lat="44.03439" lon="-0.3228">
        <ele>66.4</ele>
      </trkpt>
      <trkpt lat="44.03476" lon="-0.32243">
        <ele>67.4</ele>
      </trkpt>
      <trkpt lat="44.03477" lon="-0.32241">
        <ele>67.5</ele>
      </trkpt>
      <trkpt lat="44.03479" lon="-0.32239">
        <ele>67.6</ele>
      </trkpt>
      <trkpt lat="44.03484" lon="-0.32234">
        <ele>68</ele>
      </trkpt>
      <trkpt lat="44.03493" lon="-0.32226">
        <ele>68.6</ele>
      </trkpt>
      <trkpt lat="44.03494" lon="-0.32224">
        <ele>68.7</ele>
      </trkpt>
      <trkpt lat="44.03525" lon="-0.32193">
        <ele>70.8</ele>
      </trkpt>
      <trkpt lat="44.03552" lon="-0.32176">
        <ele>73.3</ele>
      </trkpt>
      <trkpt lat="44.03565" lon="-0.3217">
        <ele>73.8</ele>
      </trkpt>
      <trkpt lat="44.03578" lon="-0.32169">
        <ele>73.9</ele>
      </trkpt>
      <trkpt lat="44.03609" lon="-0.32165">
        <ele>72.2</ele>
      </trkpt>
      <trkpt lat="44.03631" lon="-0.32147">
        <ele>71.5</ele>
      </trkpt>
      <trkpt lat="44.03653" lon="-0.32127">
        <ele>70.7</ele>
      </trkpt>
      <trkpt lat="44.03658" lon="-0.32129">
        <ele>70.4</ele>
      </trkpt>
      <trkpt lat="44.03675" lon="-0.32149">
        <ele>69.4</ele>
      </trkpt>
      <trkpt lat="44.03693" lon="-0.32169">
        <ele>64.5</ele>
      </trkpt>
      <trkpt lat="44.03706" lon="-0.32184">
        <ele>59.1</ele>
      </trkpt>
      <trkpt lat="44.03724" lon="-0.32187">
        <ele>58</ele>
      </trkpt>
      <trkpt lat="44.0377" lon="-0.32176">
        <ele>57</ele>
      </trkpt>
      <trkpt lat="44.03794" lon="-0.3217">
        <ele>57.5</ele>
      </trkpt>
      <trkpt lat="44.03813" lon="-0.32167">
        <ele>58.5</ele>
      </trkpt>
      <trkpt lat="44.03832" lon="-0.32164">
        <ele>60.4</ele>
      </trkpt>
      <trkpt lat="44.03841" lon="-0.32168">
        <ele>60.9</ele>
      </trkpt>
      <trkpt lat="44.03854" lon="-0.32177">
        <ele>62.8</ele>
      </trkpt>
      <trkpt lat="44.03864" lon="-0.32193">
        <ele>65.1</ele>
      </trkpt>
      <trkpt lat="44.03871" lon="-0.32217">
        <ele>67.6</ele>
      </trkpt>
      <trkpt lat="44.03878" lon="-0.32241">
        <ele>69.4</ele>
      </trkpt>
      <trkpt lat="44.03886" lon="-0.32273">
        <ele>70.8</ele>
      </trkpt>
      <trkpt lat="44.03894" lon="-0.32305">
        <ele>72</ele>
      </trkpt>
      <trkpt lat="44.03921" lon="-0.32297">
        <ele>71.7</ele>
      </trkpt>
      <trkpt lat="44.03948" lon="-0.32289">
        <ele>71.5</ele>
      </trkpt>
      <trkpt lat="44.03949" lon="-0.32273">
        <ele>70.9</ele>
      </trkpt>
      <trkpt lat="44.03956" lon="-0.32264">
        <ele>70.7</ele>
      </trkpt>
      <trkpt lat="44.04001" lon="-0.32208">
        <ele>70.5</ele>
      </trkpt>
      <trkpt lat="44.04024" lon="-0.32182">
        <ele>70.9</ele>
      </trkpt>
      <trkpt lat="44.04046" lon="-0.32155">
        <ele>70.9</ele>
      </trkpt>
      <trkpt lat="44.04062" lon="-0.32142">
        <ele>71</ele>
      </trkpt>
      <trkpt lat="44.04086" lon="-0.32117">
        <ele>71</ele>
      </trkpt>
      <trkpt lat="44.041" lon="-0.32097">
        <ele>71</ele>
      </trkpt>
      <trkpt lat="44.04114" lon="-0.32078">
        <ele>71.3</ele>
      </trkpt>
      <trkpt lat="44.04136" lon="-0.32063">
        <ele>72</ele>
      </trkpt>
      <trkpt lat="44.04154" lon="-0.32043">
        <ele>72</ele>
      </trkpt>
      <trkpt lat="44.04185" lon="-0.32039">
        <ele>72</ele>
      </trkpt>
      <trkpt lat="44.04183" lon="-0.32004">
        <ele>72</ele>
      </trkpt>
      <trkpt lat="44.04179" lon="-0.31935">
        <ele>71.9</ele>
      </trkpt>
      <trkpt lat="44.04177" lon="-0.31901">
        <ele>71.6</ele>
      </trkpt>
      <trkpt lat="44.04169" lon="-0.31773">
        <ele>73</ele>
      </trkpt>
      <trkpt lat="44.04166" lon="-0.3173">
        <ele>73</ele>
      </trkpt>
      <trkpt lat="44.04165" lon="-0.3169">
        <ele>72.8</ele>
      </trkpt>
      <trkpt lat="44.0417" lon="-0.31674">
        <ele>72.4</ele>
      </trkpt>
      <trkpt lat="44.04174" lon="-0.31653">
        <ele>72.2</ele>
      </trkpt>
      <trkpt lat="44.04173" lon="-0.31635">
        <ele>72.2</ele>
      </trkpt>
      <trkpt lat="44.04187" lon="-0.31619">
        <ele>72.2</ele>
      </trkpt>
      <trkpt lat="44.04192" lon="-0.31608">
        <ele>71.9</ele>
      </trkpt>
      <trkpt lat="44.04197" lon="-0.31588">
        <ele>71</ele>
      </trkpt>
      <trkpt lat="44.04216" lon="-0.3156">
        <ele>68.2</ele>
      </trkpt>
      <trkpt lat="44.04225" lon="-0.31558">
        <ele>68.1</ele>
      </trkpt>
      <trkpt lat="44.04232" lon="-0.31558">
        <ele>68.1</ele>
      </trkpt>
      <trkpt lat="44.04262" lon="-0.31566">
        <ele>68</ele>
      </trkpt>
      <trkpt lat="44.0427" lon="-0.31566">
        <ele>68</ele>
      </trkpt>
      <trkpt lat="44.04284" lon="-0.31624">
        <ele>69.1</ele>
      </trkpt>
      <trkpt lat="44.04296" lon="-0.31675">
        <ele>71.2</ele>
      </trkpt>
      <trkpt lat="44.04305" lon="-0.31712">
        <ele>71</ele>
      </trkpt>
      <trkpt lat="44.04311" lon="-0.31726">
        <ele>71.3</ele>
      </trkpt>
      <trkpt lat="44.04326" lon="-0.31748">
        <ele>72.7</ele>
      </trkpt>
      <trkpt lat="44.04342" lon="-0.3177">
        <ele>73.1</ele>
      </trkpt>
      <trkpt lat="44.04361" lon="-0.31792">
        <ele>73</ele>
      </trkpt>
      <trkpt lat="44.0438" lon="-0.31814">
        <ele>73</ele>
      </trkpt>
      <trkpt lat="44.04394" lon="-0.31832">
        <ele>73</ele>
      </trkpt>
      <trkpt lat="44.04408" lon="-0.31849">
        <ele>73</ele>
      </trkpt>
      <trkpt lat="44.04408" lon="-0.31825">
        <ele>73</ele>
      </trkpt>
      <trkpt lat="44.04415" lon="-0.318">
        <ele>73.2</ele>
      </trkpt>
      <trkpt lat="44.04599" lon="-0.31535">
        <ele>74.5</ele>
      </trkpt>
      <trkpt lat="44.0462" lon="-0.31505">
        <ele>75.2</ele>
      </trkpt>
      <trkpt lat="44.04664" lon="-0.31442">
        <ele>76</ele>
      </trkpt>
      <trkpt lat="44.04775" lon="-0.31285">
        <ele>76</ele>
      </trkpt>
      <trkpt lat="44.04841" lon="-0.31191">
        <ele>77</ele>
      </trkpt>
      <trkpt lat="44.04858" lon="-0.31212">
        <ele>77</ele>
      </trkpt>
      <trkpt lat="44.04893" lon="-0.31256">
        <ele>77.7</ele>
      </trkpt>
      <trkpt lat="44.04935" lon="-0.31318">
        <ele>79.4</ele>
      </trkpt>
      <trkpt lat="44.04977" lon="-0.3138">
        <ele>79.1</ele>
      </trkpt>
      <trkpt lat="44.0504" lon="-0.31468">
        <ele>78.6</ele>
      </trkpt>
      <trkpt lat="44.05061" lon="-0.31497">
        <ele>78.7</ele>
      </trkpt>
      <trkpt lat="44.05076" lon="-0.31513">
        <ele>78.6</ele>
      </trkpt>
      <trkpt lat="44.05092" lon="-0.31501">
        <ele>78.3</ele>
      </trkpt>
      <trkpt lat="44.05112" lon="-0.31475">
        <ele>79</ele>
      </trkpt>
      <trkpt lat="44.05124" lon="-0.31453">
        <ele>78.6</ele>
      </trkpt>
      <trkpt lat="44.05119" lon="-0.31427">
        <ele>78.3</ele>
      </trkpt>
      <trkpt lat="44.05103" lon="-0.31395">
        <ele>78</ele>
      </trkpt>
      <trkpt lat="44.05088" lon="-0.31362">
        <ele>79</ele>
      </trkpt>
      <trkpt lat="44.05095" lon="-0.31349">
        <ele>79.2</ele>
      </trkpt>
      <trkpt lat="44.05117" lon="-0.31327">
        <ele>80</ele>
      </trkpt>
      <trkpt lat="44.0514" lon="-0.3131">
        <ele>80</ele>
      </trkpt>
      <trkpt lat="44.05154" lon="-0.31296">
        <ele>79.6</ele>
      </trkpt>
      <trkpt lat="44.05161" lon="-0.31298">
        <ele>79.4</ele>
      </trkpt>
      <trkpt lat="44.05178" lon="-0.31332">
        <ele>81.1</ele>
      </trkpt>
      <trkpt lat="44.05194" lon="-0.31361">
        <ele>80</ele>
      </trkpt>
      <trkpt lat="44.05202" lon="-0.31369">
        <ele>80.2</ele>
      </trkpt>
      <trkpt lat="44.05219" lon="-0.31372">
        <ele>80</ele>
      </trkpt>
      <trkpt lat="44.05242" lon="-0.31363">
        <ele>80</ele>
      </trkpt>
      <trkpt lat="44.05288" lon="-0.31345">
        <ele>80</ele>
      </trkpt>
      <trkpt lat="44.05337" lon="-0.31323">
        <ele>81.1</ele>
      </trkpt>
      <trkpt lat="44.05385" lon="-0.31301">
        <ele>81.8</ele>
      </trkpt>
      <trkpt lat="44.05434" lon="-0.3128">
        <ele>82</ele>
      </trkpt>
      <trkpt lat="44.05459" lon="-0.3127">
        <ele>82</ele>
      </trkpt>
      <trkpt lat="44.05484" lon="-0.3126">
        <ele>81.6</ele>
      </trkpt>
      <trkpt lat="44.05514" lon="-0.31245">
        <ele>81.5</ele>
      </trkpt>
      <trkpt lat="44.05575" lon="-0.31215">
        <ele>82</ele>
      </trkpt>
      <trkpt lat="44.05603" lon="-0.31196">
        <ele>82</ele>
      </trkpt>
      <trkpt lat="44.05625" lon="-0.3119">
        <ele>81.9</ele>
      </trkpt>
      <trkpt lat="44.0565" lon="-0.31167">
        <ele>81</ele>
      </trkpt>
      <trkpt lat="44.05673" lon="-0.31155">
        <ele>81</ele>
      </trkpt>
      <trkpt lat="44.05708" lon="-0.31121">
        <ele>80.7</ele>
      </trkpt>
      <trkpt lat="44.05724" lon="-0.31105">
        <ele>80.1</ele>
      </trkpt>
      <trkpt lat="44.05756" lon="-0.31074">
        <ele>80.4</ele>
      </trkpt>
      <trkpt lat="44.05772" lon="-0.3106">
        <ele>80.9</ele>
      </trkpt>
      <trkpt lat="44.05762" lon="-0.31032">
        <ele>80.9</ele>
      </trkpt>
      <trkpt lat="44.05752" lon="-0.31004">
        <ele>80.2</ele>
      </trkpt>
      <trkpt lat="44.05788" lon="-0.30949">
        <ele>80.9</ele>
      </trkpt>
      <trkpt lat="44.05826" lon="-0.3091">
        <ele>81</ele>
      </trkpt>
      <trkpt lat="44.05845" lon="-0.309">
        <ele>81</ele>
      </trkpt>
      <trkpt lat="44.05868" lon="-0.3089">
        <ele>81</ele>
      </trkpt>
      <trkpt lat="44.05891" lon="-0.30877">
        <ele>81</ele>
      </trkpt>
      <trkpt lat="44.05906" lon="-0.30856">
        <ele>81</ele>
      </trkpt>
      <trkpt lat="44.0592" lon="-0.30835">
        <ele>81.1</ele>
      </trkpt>
      <trkpt lat="44.05939" lon="-0.30804">
        <ele>81</ele>
      </trkpt>
      <trkpt lat="44.05973" lon="-0.3076">
        <ele>81</ele>
      </trkpt>
      <trkpt lat="44.05995" lon="-0.30743">
        <ele>81.9</ele>
      </trkpt>
      <trkpt lat="44.06021" lon="-0.30727">
        <ele>82.6</ele>
      </trkpt>
      <trkpt lat="44.06048" lon="-0.30711">
        <ele>82.2</ele>
      </trkpt>
      <trkpt lat="44.06074" lon="-0.30695">
        <ele>82</ele>
      </trkpt>
      <trkpt lat="44.06089" lon="-0.30684">
        <ele>82.1</ele>
      </trkpt>
      <trkpt lat="44.06103" lon="-0.30674">
        <ele>82.5</ele>
      </trkpt>
      <trkpt lat="44.06118" lon="-0.3066">
        <ele>82.8</ele>
      </trkpt>
      <trkpt lat="44.06133" lon="-0.30646">
        <ele>82.2</ele>
      </trkpt>
      <trkpt lat="44.06147" lon="-0.30609">
        <ele>82.6</ele>
      </trkpt>
      <trkpt lat="44.06143" lon="-0.30571">
        <ele>82</ele>
      </trkpt>
      <trkpt lat="44.06145" lon="-0.30544">
        <ele>82</ele>
      </trkpt>
      <trkpt lat="44.06155" lon="-0.30527">
        <ele>82</ele>
      </trkpt>
      <trkpt lat="44.0616" lon="-0.30497">
        <ele>82</ele>
      </trkpt>
      <trkpt lat="44.0616" lon="-0.30468">
        <ele>82</ele>
      </trkpt>
      <trkpt lat="44.0616" lon="-0.30451">
        <ele>82</ele>
      </trkpt>
      <trkpt lat="44.06174" lon="-0.30423">
        <ele>81.8</ele>
      </trkpt>
      <trkpt lat="44.0619" lon="-0.30413">
        <ele>81.1</ele>
      </trkpt>
      <trkpt lat="44.06214" lon="-0.30388">
        <ele>81.7</ele>
      </trkpt>
      <trkpt lat="44.06228" lon="-0.30368">
        <ele>82</ele>
      </trkpt>
      <trkpt lat="44.06242" lon="-0.30348">
        <ele>81.9</ele>
      </trkpt>
      <trkpt lat="44.06263" lon="-0.30327">
        <ele>81.9</ele>
      </trkpt>
      <trkpt lat="44.06287" lon="-0.3032">
        <ele>82</ele>
      </trkpt>
      <trkpt lat="44.0631" lon="-0.3031">
        <ele>82</ele>
      </trkpt>
      <trkpt lat="44.06323" lon="-0.30296">
        <ele>82</ele>
      </trkpt>
      <trkpt lat="44.0633" lon="-0.30281">
        <ele>82</ele>
      </trkpt>
      <trkpt lat="44.06344" lon="-0.30238">
        <ele>82</ele>
      </trkpt>
      <trkpt lat="44.06347" lon="-0.30214">
        <ele>82</ele>
      </trkpt>
      <trkpt lat="44.0635" lon="-0.30191">
        <ele>81.9</ele>
      </trkpt>
      <trkpt lat="44.06351" lon="-0.30175">
        <ele>81.8</ele>
      </trkpt>
      <trkpt lat="44.0637" lon="-0.3019">
        <ele>82</ele>
      </trkpt>
      <trkpt lat="44.06415" lon="-0.3022">
        <ele>82</ele>
      </trkpt>
      <trkpt lat="44.06445" lon="-0.30236">
        <ele>83</ele>
      </trkpt>
      <trkpt lat="44.06489" lon="-0.30244">
        <ele>84</ele>
      </trkpt>
      <trkpt lat="44.06514" lon="-0.30244">
        <ele>84</ele>
      </trkpt>
      <trkpt lat="44.0654" lon="-0.30244">
        <ele>84</ele>
      </trkpt>
      <trkpt lat="44.06565" lon="-0.30244">
        <ele>84.3</ele>
      </trkpt>
      <trkpt lat="44.0659" lon="-0.3025">
        <ele>85</ele>
      </trkpt>
      <trkpt lat="44.06606" lon="-0.30247">
        <ele>84.9</ele>
      </trkpt>
      <trkpt lat="44.06626" lon="-0.30221">
        <ele>84.5</ele>
      </trkpt>
      <trkpt lat="44.06648" lon="-0.30208">
        <ele>84.7</ele>
      </trkpt>
      <trkpt lat="44.06651" lon="-0.30221">
        <ele>85</ele>
      </trkpt>
      <trkpt lat="44.06677" lon="-0.30196">
        <ele>85</ele>
      </trkpt>
      <trkpt lat="44.0686" lon="-0.30016">
        <ele>83.6</ele>
      </trkpt>
      <trkpt lat="44.06991" lon="-0.29887">
        <ele>84</ele>
      </trkpt>
      <trkpt lat="44.07043" lon="-0.29837">
        <ele>83.5</ele>
      </trkpt>
      <trkpt lat="44.07069" lon="-0.29812">
        <ele>83.1</ele>
      </trkpt>
      <trkpt lat="44.07095" lon="-0.29786">
        <ele>83.4</ele>
      </trkpt>
      <trkpt lat="44.07148" lon="-0.29736">
        <ele>83.3</ele>
      </trkpt>
      <trkpt lat="44.07197" lon="-0.29687">
        <ele>83</ele>
      </trkpt>
      <trkpt lat="44.07222" lon="-0.29662">
        <ele>82.8</ele>
      </trkpt>
      <trkpt lat="44.07272" lon="-0.29612">
        <ele>83</ele>
      </trkpt>
      <trkpt lat="44.07295" lon="-0.2959">
        <ele>83</ele>
      </trkpt>
      <trkpt lat="44.07319" lon="-0.29567">
        <ele>83</ele>
      </trkpt>
      <trkpt lat="44.07343" lon="-0.29544">
        <ele>83</ele>
      </trkpt>
      <trkpt lat="44.07366" lon="-0.29521">
        <ele>83</ele>
      </trkpt>
      <trkpt lat="44.0739" lon="-0.29498">
        <ele>83</ele>
      </trkpt>
      <trkpt lat="44.07441" lon="-0.29448">
        <ele>83</ele>
      </trkpt>
      <trkpt lat="44.07492" lon="-0.29397">
        <ele>83</ele>
      </trkpt>
      <trkpt lat="44.07518" lon="-0.29372">
        <ele>83.2</ele>
      </trkpt>
      <trkpt lat="44.07594" lon="-0.29296">
        <ele>83.3</ele>
      </trkpt>
      <trkpt lat="44.07645" lon="-0.29246">
        <ele>83.5</ele>
      </trkpt>
      <trkpt lat="44.07671" lon="-0.2922">
        <ele>83.4</ele>
      </trkpt>
      <trkpt lat="44.07697" lon="-0.29195">
        <ele>83.2</ele>
      </trkpt>
      <trkpt lat="44.07723" lon="-0.2917">
        <ele>83.2</ele>
      </trkpt>
      <trkpt lat="44.07749" lon="-0.29144">
        <ele>83.2</ele>
      </trkpt>
      <trkpt lat="44.07774" lon="-0.29119">
        <ele>83.2</ele>
      </trkpt>
      <trkpt lat="44.078" lon="-0.29094">
        <ele>82.5</ele>
      </trkpt>
      <trkpt lat="44.07826" lon="-0.29068">
        <ele>82.1</ele>
      </trkpt>
      <trkpt lat="44.07852" lon="-0.29043">
        <ele>82.2</ele>
      </trkpt>
      <trkpt lat="44.07953" lon="-0.28942">
        <ele>82</ele>
      </trkpt>
      <trkpt lat="44.0808" lon="-0.28816">
        <ele>79.1</ele>
      </trkpt>
      <trkpt lat="44.08106" lon="-0.28791">
        <ele>78.7</ele>
      </trkpt>
      <trkpt lat="44.0813" lon="-0.28769">
        <ele>78.8</ele>
      </trkpt>
      <trkpt lat="44.08153" lon="-0.28747">
        <ele>79.1</ele>
      </trkpt>
      <trkpt lat="44.08189" lon="-0.28713">
        <ele>80.9</ele>
      </trkpt>
      <trkpt lat="44.08213" lon="-0.28691">
        <ele>82.3</ele>
      </trkpt>
      <trkpt lat="44.08238" lon="-0.28666">
        <ele>81.4</ele>
      </trkpt>
      <trkpt lat="44.08299" lon="-0.28604">
        <ele>81.2</ele>
      </trkpt>
      <trkpt lat="44.0836" lon="-0.28543">
        <ele>82.1</ele>
      </trkpt>
      <trkpt lat="44.08385" lon="-0.28518">
        <ele>82.4</ele>
      </trkpt>
      <trkpt lat="44.08435" lon="-0.28469">
        <ele>82.8</ele>
      </trkpt>
      <trkpt lat="44.08623" lon="-0.28286">
        <ele>85.1</ele>
      </trkpt>
      <trkpt lat="44.08686" lon="-0.28225">
        <ele>84.4</ele>
      </trkpt>
      <trkpt lat="44.08723" lon="-0.28189">
        <ele>85</ele>
      </trkpt>
      <trkpt lat="44.08726" lon="-0.28186">
        <ele>85</ele>
      </trkpt>
      <trkpt lat="44.08747" lon="-0.2816">
        <ele>85</ele>
      </trkpt>
      <trkpt lat="44.08768" lon="-0.28133">
        <ele>85.1</ele>
      </trkpt>
      <trkpt lat="44.08876" lon="-0.28024">
        <ele>84.5</ele>
      </trkpt>
      <trkpt lat="44.08903" lon="-0.27997">
        <ele>84.6</ele>
      </trkpt>
      <trkpt lat="44.0893" lon="-0.2797">
        <ele>85</ele>
      </trkpt>
      <trkpt lat="44.08955" lon="-0.27951">
        <ele>85</ele>
      </trkpt>
      <trkpt lat="44.08979" lon="-0.27932">
        <ele>85</ele>
      </trkpt>
      <trkpt lat="44.09004" lon="-0.27912">
        <ele>84.7</ele>
      </trkpt>
      <trkpt lat="44.09031" lon="-0.27886">
        <ele>84.8</ele>
      </trkpt>
      <trkpt lat="44.09114" lon="-0.27806">
        <ele>84.2</ele>
      </trkpt>
      <trkpt lat="44.09176" lon="-0.27737">
        <ele>84</ele>
      </trkpt>
      <trkpt lat="44.09197" lon="-0.27715">
        <ele>84.2</ele>
      </trkpt>
      <trkpt lat="44.09246" lon="-0.27651">
        <ele>82.4</ele>
      </trkpt>
      <trkpt lat="44.0927" lon="-0.27619">
        <ele>82.2</ele>
      </trkpt>
      <trkpt lat="44.09309" lon="-0.27561">
        <ele>77.1</ele>
      </trkpt>
      <trkpt lat="44.09328" lon="-0.27532">
        <ele>75.2</ele>
      </trkpt>
      <trkpt lat="44.09343" lon="-0.27508">
        <ele>77.9</ele>
      </trkpt>
      <trkpt lat="44.09357" lon="-0.27484">
        <ele>82.1</ele>
      </trkpt>
      <trkpt lat="44.09372" lon="-0.2746">
        <ele>83.3</ele>
      </trkpt>
      <trkpt lat="44.09414" lon="-0.27393">
        <ele>84.6</ele>
      </trkpt>
      <trkpt lat="44.09456" lon="-0.27326">
        <ele>85.2</ele>
      </trkpt>
      <trkpt lat="44.09515" lon="-0.27233">
        <ele>85</ele>
      </trkpt>
      <trkpt lat="44.09553" lon="-0.27171">
        <ele>84.7</ele>
      </trkpt>
      <trkpt lat="44.0961" lon="-0.27079">
        <ele>85.2</ele>
      </trkpt>
      <trkpt lat="44.09648" lon="-0.27017">
        <ele>85.1</ele>
      </trkpt>
      <trkpt lat="44.09736" lon="-0.26877">
        <ele>85.7</ele>
      </trkpt>
      <trkpt lat="44.09758" lon="-0.26842">
        <ele>86.5</ele>
      </trkpt>
      <trkpt lat="44.0978" lon="-0.26807">
        <ele>86.9</ele>
      </trkpt>
      <trkpt lat="44.09802" lon="-0.26772">
        <ele>86.3</ele>
      </trkpt>
      <trkpt lat="44.09824" lon="-0.26737">
        <ele>87</ele>
      </trkpt>
      <trkpt lat="44.09868" lon="-0.26668">
        <ele>87</ele>
      </trkpt>
      <trkpt lat="44.09911" lon="-0.26598">
        <ele>87.4</ele>
      </trkpt>
      <trkpt lat="44.09942" lon="-0.26547">
        <ele>87.3</ele>
      </trkpt>
      <trkpt lat="44.09987" lon="-0.26471">
        <ele>88</ele>
      </trkpt>
      <trkpt lat="44.1" lon="-0.26449">
        <ele>88</ele>
      </trkpt>
      <trkpt lat="44.10041" lon="-0.26385">
        <ele>89</ele>
      </trkpt>
      <trkpt lat="44.10055" lon="-0.26361">
        <ele>89</ele>
      </trkpt>
      <trkpt lat="44.10084" lon="-0.26313">
        <ele>90</ele>
      </trkpt>
      <trkpt lat="44.10113" lon="-0.26266">
        <ele>90</ele>
      </trkpt>
      <trkpt lat="44.10127" lon="-0.26242">
        <ele>89.9</ele>
      </trkpt>
      <trkpt lat="44.10141" lon="-0.26218">
        <ele>89.8</ele>
      </trkpt>
      <trkpt lat="44.10154" lon="-0.26193">
        <ele>89</ele>
      </trkpt>
      <trkpt lat="44.10167" lon="-0.26168">
        <ele>89.9</ele>
      </trkpt>
      <trkpt lat="44.10194" lon="-0.26116">
        <ele>90</ele>
      </trkpt>
      <trkpt lat="44.10207" lon="-0.26091">
        <ele>83.7</ele>
      </trkpt>
      <trkpt lat="44.10233" lon="-0.26039">
        <ele>86.2</ele>
      </trkpt>
      <trkpt lat="44.10311" lon="-0.25884">
        <ele>92</ele>
      </trkpt>
      <trkpt lat="44.10324" lon="-0.25858">
        <ele>92.7</ele>
      </trkpt>
      <trkpt lat="44.1048" lon="-0.25542">
        <ele>95</ele>
      </trkpt>
      <trkpt lat="44.10626" lon="-0.25257">
        <ele>97.6</ele>
      </trkpt>
      <trkpt lat="44.10646" lon="-0.25286">
        <ele>98</ele>
      </trkpt>
      <trkpt lat="44.10674" lon="-0.25229">
        <ele>98.3</ele>
      </trkpt>
      <trkpt lat="44.10702" lon="-0.25172">
        <ele>99</ele>
      </trkpt>
      <trkpt lat="44.10716" lon="-0.25148">
        <ele>99</ele>
      </trkpt>
      <trkpt lat="44.10731" lon="-0.25133">
        <ele>99.4</ele>
      </trkpt>
      <trkpt lat="44.10764" lon="-0.25116">
        <ele>99.2</ele>
      </trkpt>
      <trkpt lat="44.10797" lon="-0.25099">
        <ele>99.4</ele>
      </trkpt>
      <trkpt lat="44.10858" lon="-0.25069">
        <ele>100</ele>
      </trkpt>
      <trkpt lat="44.10894" lon="-0.25058">
        <ele>100</ele>
      </trkpt>
      <trkpt lat="44.10924" lon="-0.25056">
        <ele>100</ele>
      </trkpt>
      <trkpt lat="44.10962" lon="-0.25068">
        <ele>99.8</ele>
      </trkpt>
      <trkpt lat="44.11" lon="-0.25081">
        <ele>99.1</ele>
      </trkpt>
      <trkpt lat="44.11047" lon="-0.25105">
        <ele>99.1</ele>
      </trkpt>
      <trkpt lat="44.11076" lon="-0.25121">
        <ele>99</ele>
      </trkpt>
      <trkpt lat="44.11105" lon="-0.25136">
        <ele>99</ele>
      </trkpt>
      <trkpt lat="44.11137" lon="-0.25145">
        <ele>98</ele>
      </trkpt>
      <trkpt lat="44.1116" lon="-0.25139">
        <ele>98</ele>
      </trkpt>
      <trkpt lat="44.11199" lon="-0.25105">
        <ele>98</ele>
      </trkpt>
      <trkpt lat="44.11232" lon="-0.25073">
        <ele>97.2</ele>
      </trkpt>
      <trkpt lat="44.11266" lon="-0.25042">
        <ele>97.8</ele>
      </trkpt>
      <trkpt lat="44.11352" lon="-0.24967">
        <ele>98</ele>
      </trkpt>
      <trkpt lat="44.11437" lon="-0.24892">
        <ele>98</ele>
      </trkpt>
      <trkpt lat="44.11522" lon="-0.24817">
        <ele>98</ele>
      </trkpt>
      <trkpt lat="44.11563" lon="-0.24779">
        <ele>98</ele>
      </trkpt>
      <trkpt lat="44.11643" lon="-0.24704">
        <ele>99.6</ele>
      </trkpt>
      <trkpt lat="44.11676" lon="-0.24671">
        <ele>99.8</ele>
      </trkpt>
      <trkpt lat="44.11741" lon="-0.24605">
        <ele>100</ele>
      </trkpt>
      <trkpt lat="44.11749" lon="-0.24576">
        <ele>100</ele>
      </trkpt>
      <trkpt lat="44.11758" lon="-0.24541">
        <ele>100.6</ele>
      </trkpt>
      <trkpt lat="44.11767" lon="-0.24506">
        <ele>101.5</ele>
      </trkpt>
      <trkpt lat="44.11796" lon="-0.24449">
        <ele>102</ele>
      </trkpt>
      <trkpt lat="44.11841" lon="-0.24481">
        <ele>102.8</ele>
      </trkpt>
      <trkpt lat="44.11895" lon="-0.24508">
        <ele>103</ele>
      </trkpt>
      <trkpt lat="44.11984" lon="-0.24552">
        <ele>102.6</ele>
      </trkpt>
      <trkpt lat="44.12029" lon="-0.24574">
        <ele>102.3</ele>
      </trkpt>
      <trkpt lat="44.12154" lon="-0.24626">
        <ele>98</ele>
      </trkpt>
      <trkpt lat="44.12177" lon="-0.24644">
        <ele>96.5</ele>
      </trkpt>
      <trkpt lat="44.12202" lon="-0.24671">
        <ele>95.6</ele>
      </trkpt>
      <trkpt lat="44.12226" lon="-0.24698">
        <ele>94.2</ele>
      </trkpt>
      <trkpt lat="44.12245" lon="-0.24726">
        <ele>93.5</ele>
      </trkpt>
      <trkpt lat="44.12264" lon="-0.24753">
        <ele>94.5</ele>
      </trkpt>
      <trkpt lat="44.12321" lon="-0.24835">
        <ele>98.5</ele>
      </trkpt>
      <trkpt lat="44.1235" lon="-0.24876">
        <ele>98.1</ele>
      </trkpt>
      <trkpt lat="44.12412" lon="-0.24957">
        <ele>100.8</ele>
      </trkpt>
      <trkpt lat="44.12435" lon="-0.24985">
        <ele>102</ele>
      </trkpt>
      <trkpt lat="44.1246" lon="-0.25002">
        <ele>102</ele>
      </trkpt>
      <trkpt lat="44.12485" lon="-0.25019">
        <ele>102</ele>
      </trkpt>
      <trkpt lat="44.12525" lon="-0.25057">
        <ele>101.1</ele>
      </trkpt>
      <trkpt lat="44.12566" lon="-0.25095">
        <ele>101.6</ele>
      </trkpt>
      <trkpt lat="44.12598" lon="-0.2514">
        <ele>101.5</ele>
      </trkpt>
      <trkpt lat="44.1262" lon="-0.25106">
        <ele>99.5</ele>
      </trkpt>
      <trkpt lat="44.12641" lon="-0.25071">
        <ele>98.3</ele>
      </trkpt>
      <trkpt lat="44.12695" lon="-0.2499">
        <ele>101</ele>
      </trkpt>
      <trkpt lat="44.12721" lon="-0.2497">
        <ele>101.1</ele>
      </trkpt>
      <trkpt lat="44.12746" lon="-0.24967">
        <ele>101.9</ele>
      </trkpt>
      <trkpt lat="44.12758" lon="-0.2498">
        <ele>102</ele>
      </trkpt>
      <trkpt lat="44.12786" lon="-0.24999">
        <ele>102</ele>
      </trkpt>
      <trkpt lat="44.12823" lon="-0.25023">
        <ele>102.9</ele>
      </trkpt>
      <trkpt lat="44.12861" lon="-0.25047">
        <ele>103.7</ele>
      </trkpt>
      <trkpt lat="44.12898" lon="-0.2507">
        <ele>104</ele>
      </trkpt>
      <trkpt lat="44.12936" lon="-0.25094">
        <ele>104</ele>
      </trkpt>
      <trkpt lat="44.12982" lon="-0.25123">
        <ele>105</ele>
      </trkpt>
      <trkpt lat="44.13028" lon="-0.25152">
        <ele>105</ele>
      </trkpt>
      <trkpt lat="44.13105" lon="-0.25202">
        <ele>106</ele>
      </trkpt>
      <trkpt lat="44.13143" lon="-0.25226">
        <ele>106</ele>
      </trkpt>
      <trkpt lat="44.13181" lon="-0.25251">
        <ele>107</ele>
      </trkpt>
      <trkpt lat="44.132" lon="-0.2527">
        <ele>107</ele>
      </trkpt>
      <trkpt lat="44.13248" lon="-0.25244">
        <ele>107</ele>
      </trkpt>
      <trkpt lat="44.13283" lon="-0.25229">
        <ele>107</ele>
      </trkpt>
      <trkpt lat="44.1332" lon="-0.25218">
        <ele>107</ele>
      </trkpt>
      <trkpt lat="44.13352" lon="-0.25216">
        <ele>107</ele>
      </trkpt>
      <trkpt lat="44.13394" lon="-0.25226">
        <ele>107.3</ele>
      </trkpt>
      <trkpt lat="44.13434" lon="-0.25246">
        <ele>108</ele>
      </trkpt>
      <trkpt lat="44.13473" lon="-0.25267">
        <ele>108</ele>
      </trkpt>
      <trkpt lat="44.1355" lon="-0.25299">
        <ele>108.2</ele>
      </trkpt>
      <trkpt lat="44.13615" lon="-0.25323">
        <ele>109</ele>
      </trkpt>
      <trkpt lat="44.13737" lon="-0.25366">
        <ele>109</ele>
      </trkpt>
      <trkpt lat="44.13819" lon="-0.25395">
        <ele>110</ele>
      </trkpt>
      <trkpt lat="44.13901" lon="-0.25422">
        <ele>110</ele>
      </trkpt>
      <trkpt lat="44.13942" lon="-0.25436">
        <ele>110</ele>
      </trkpt>
      <trkpt lat="44.13992" lon="-0.25454">
        <ele>110.1</ele>
      </trkpt>
      <trkpt lat="44.14042" lon="-0.25472">
        <ele>110.5</ele>
      </trkpt>
      <trkpt lat="44.14094" lon="-0.25476">
        <ele>110.7</ele>
      </trkpt>
      <trkpt lat="44.14117" lon="-0.25483">
        <ele>110.8</ele>
      </trkpt>
      <trkpt lat="44.14139" lon="-0.25492">
        <ele>111</ele>
      </trkpt>
      <trkpt lat="44.14164" lon="-0.25508">
        <ele>111</ele>
      </trkpt>
      <trkpt lat="44.14202" lon="-0.25543">
        <ele>111.3</ele>
      </trkpt>
      <trkpt lat="44.1427" lon="-0.25595">
        <ele>112</ele>
      </trkpt>
      <trkpt lat="44.14304" lon="-0.25612">
        <ele>112</ele>
      </trkpt>
      <trkpt lat="44.14313" lon="-0.25563">
        <ele>109.6</ele>
      </trkpt>
      <trkpt lat="44.14322" lon="-0.25515">
        <ele>110.5</ele>
      </trkpt>
      <trkpt lat="44.1433" lon="-0.25467">
        <ele>111.2</ele>
      </trkpt>
      <trkpt lat="44.14359" lon="-0.2534">
        <ele>112</ele>
      </trkpt>
      <trkpt lat="44.14406" lon="-0.25327">
        <ele>112.8</ele>
      </trkpt>
      <trkpt lat="44.14421" lon="-0.25318">
        <ele>112.5</ele>
      </trkpt>
      <trkpt lat="44.14502" lon="-0.25324">
        <ele>114</ele>
      </trkpt>
      <trkpt lat="44.14583" lon="-0.25331">
        <ele>114</ele>
      </trkpt>
      <trkpt lat="44.14619" lon="-0.25327">
        <ele>114.8</ele>
      </trkpt>
      <trkpt lat="44.14649" lon="-0.25312">
        <ele>115</ele>
      </trkpt>
      <trkpt lat="44.14679" lon="-0.25297">
        <ele>115</ele>
      </trkpt>
      <trkpt lat="44.14718" lon="-0.25282">
        <ele>115.7</ele>
      </trkpt>
      <trkpt lat="44.14758" lon="-0.2528">
        <ele>115</ele>
      </trkpt>
      <trkpt lat="44.14789" lon="-0.2527">
        <ele>115.4</ele>
      </trkpt>
      <trkpt lat="44.14832" lon="-0.25254">
        <ele>116</ele>
      </trkpt>
      <trkpt lat="44.14861" lon="-0.25237">
        <ele>116</ele>
      </trkpt>
      <trkpt lat="44.14891" lon="-0.2522">
        <ele>116.1</ele>
      </trkpt>
      <trkpt lat="44.14904" lon="-0.25194">
        <ele>116</ele>
      </trkpt>
      <trkpt lat="44.14932" lon="-0.25168">
        <ele>116.6</ele>
      </trkpt>
      <trkpt lat="44.14966" lon="-0.25156">
        <ele>117</ele>
      </trkpt>
      <trkpt lat="44.15" lon="-0.25144">
        <ele>117</ele>
      </trkpt>
      <trkpt lat="44.1505" lon="-0.25129">
        <ele>117.9</ele>
      </trkpt>
      <trkpt lat="44.15151" lon="-0.25099">
        <ele>118.4</ele>
      </trkpt>
      <trkpt lat="44.15193" lon="-0.25087">
        <ele>119</ele>
      </trkpt>
      <trkpt lat="44.15277" lon="-0.25064">
        <ele>120</ele>
      </trkpt>
      <trkpt lat="44.15308" lon="-0.25064">
        <ele>120</ele>
      </trkpt>
      <trkpt lat="44.15338" lon="-0.25064">
        <ele>120</ele>
      </trkpt>
      <trkpt lat="44.15378" lon="-0.25068">
        <ele>120</ele>
      </trkpt>
      <trkpt lat="44.15426" lon="-0.2507">
        <ele>120.6</ele>
      </trkpt>
      <trkpt lat="44.15441" lon="-0.25061">
        <ele>121</ele>
      </trkpt>
      <trkpt lat="44.15456" lon="-0.25042">
        <ele>121</ele>
      </trkpt>
      <trkpt lat="44.15474" lon="-0.25">
        <ele>121</ele>
      </trkpt>
      <trkpt lat="44.15492" lon="-0.24958">
        <ele>121.7</ele>
      </trkpt>
      <trkpt lat="44.15502" lon="-0.24939">
        <ele>121.8</ele>
      </trkpt>
      <trkpt lat="44.15518" lon="-0.24926">
        <ele>121.8</ele>
      </trkpt>
      <trkpt lat="44.15542" lon="-0.24929">
        <ele>122</ele>
      </trkpt>
      <trkpt lat="44.15788" lon="-0.24983">
        <ele>123</ele>
      </trkpt>
      <trkpt lat="44.15887" lon="-0.25005">
        <ele>123.9</ele>
      </trkpt>
      <trkpt lat="44.15936" lon="-0.25015">
        <ele>123.6</ele>
      </trkpt>
      <trkpt lat="44.15972" lon="-0.25025">
        <ele>124</ele>
      </trkpt>
      <trkpt lat="44.16447" lon="-0.25126">
        <ele>126.5</ele>
      </trkpt>
      <trkpt lat="44.1667" lon="-0.25173">
        <ele>127.7</ele>
      </trkpt>
      <trkpt lat="44.16715" lon="-0.25183">
        <ele>127.9</ele>
      </trkpt>
      <trkpt lat="44.16747" lon="-0.25194">
        <ele>128</ele>
      </trkpt>
      <trkpt lat="44.16779" lon="-0.25204">
        <ele>128</ele>
      </trkpt>
      <trkpt lat="44.16824" lon="-0.25214">
        <ele>128</ele>
      </trkpt>
      <trkpt lat="44.1687" lon="-0.25223">
        <ele>128</ele>
      </trkpt>
      <trkpt lat="44.16913" lon="-0.25242">
        <ele>129</ele>
      </trkpt>
      <trkpt lat="44.16941" lon="-0.25255">
        <ele>128.3</ele>
      </trkpt>
      <trkpt lat="44.1697" lon="-0.25269">
        <ele>129</ele>
      </trkpt>
      <trkpt lat="44.1707" lon="-0.25271">
        <ele>129</ele>
      </trkpt>
      <trkpt lat="44.1717" lon="-0.25273">
        <ele>130</ele>
      </trkpt>
      <trkpt lat="44.1722" lon="-0.25274">
        <ele>130</ele>
      </trkpt>
      <trkpt lat="44.17239" lon="-0.25268">
        <ele>130</ele>
      </trkpt>
      <trkpt lat="44.17268" lon="-0.2524">
        <ele>130</ele>
      </trkpt>
      <trkpt lat="44.17298" lon="-0.25211">
        <ele>130</ele>
      </trkpt>
      <trkpt lat="44.17376" lon="-0.2514">
        <ele>131</ele>
      </trkpt>
      <trkpt lat="44.17416" lon="-0.25104">
        <ele>131</ele>
      </trkpt>
      <trkpt lat="44.17455" lon="-0.25069">
        <ele>131</ele>
      </trkpt>
      <trkpt lat="44.17468" lon="-0.25063">
        <ele>131</ele>
      </trkpt>
      <trkpt lat="44.17487" lon="-0.25065">
        <ele>131</ele>
      </trkpt>
      <trkpt lat="44.1763" lon="-0.25121">
        <ele>132</ele>
      </trkpt>
      <trkpt lat="44.17725" lon="-0.25159">
        <ele>132.1</ele>
      </trkpt>
      <trkpt lat="44.17773" lon="-0.25178">
        <ele>132.4</ele>
      </trkpt>
      <trkpt lat="44.17817" lon="-0.25196">
        <ele>133</ele>
      </trkpt>
      <trkpt lat="44.17905" lon="-0.25232">
        <ele>133</ele>
      </trkpt>
      <trkpt lat="44.17993" lon="-0.25268">
        <ele>133</ele>
      </trkpt>
      <trkpt lat="44.18037" lon="-0.25286">
        <ele>133</ele>
      </trkpt>
      <trkpt lat="44.18071" lon="-0.25306">
        <ele>133</ele>
      </trkpt>
      <trkpt lat="44.18106" lon="-0.25326">
        <ele>133.8</ele>
      </trkpt>
      <trkpt lat="44.18141" lon="-0.2513">
        <ele>134</ele>
      </trkpt>
      <trkpt lat="44.18176" lon="-0.24935">
        <ele>134.2</ele>
      </trkpt>
      <trkpt lat="44.18263" lon="-0.25002">
        <ele>134.6</ele>
      </trkpt>
      <trkpt lat="44.18394" lon="-0.25103">
        <ele>135</ele>
      </trkpt>
      <trkpt lat="44.18438" lon="-0.25136">
        <ele>135</ele>
      </trkpt>
      <trkpt lat="44.18482" lon="-0.2517">
        <ele>135</ele>
      </trkpt>
      <trkpt lat="44.18526" lon="-0.25203">
        <ele>135</ele>
      </trkpt>
      <trkpt lat="44.18613" lon="-0.2527">
        <ele>135</ele>
      </trkpt>
      <trkpt lat="44.187" lon="-0.25334">
        <ele>135</ele>
      </trkpt>
      <trkpt lat="44.18831" lon="-0.25431">
        <ele>135</ele>
      </trkpt>
      <trkpt lat="44.18874" lon="-0.25463">
        <ele>135.3</ele>
      </trkpt>
      <trkpt lat="44.18916" lon="-0.25495">
        <ele>135</ele>
      </trkpt>
      <trkpt lat="44.19165" lon="-0.25686">
        <ele>135</ele>
      </trkpt>
      <trkpt lat="44.19206" lon="-0.25718">
        <ele>135</ele>
      </trkpt>
      <trkpt lat="44.19289" lon="-0.25781">
        <ele>135</ele>
      </trkpt>
      <trkpt lat="44.19332" lon="-0.25814">
        <ele>135</ele>
      </trkpt>
      <trkpt lat="44.19417" lon="-0.2588">
        <ele>135</ele>
      </trkpt>
      <trkpt lat="44.19435" lon="-0.25888">
        <ele>135</ele>
      </trkpt>
      <trkpt lat="44.19452" lon="-0.25885">
        <ele>135</ele>
      </trkpt>
      <trkpt lat="44.19499" lon="-0.25869">
        <ele>135.3</ele>
      </trkpt>
      <trkpt lat="44.19547" lon="-0.25853">
        <ele>135</ele>
      </trkpt>
      <trkpt lat="44.19593" lon="-0.25839">
        <ele>135.2</ele>
      </trkpt>
      <trkpt lat="44.19686" lon="-0.25811">
        <ele>134.9</ele>
      </trkpt>
      <trkpt lat="44.19713" lon="-0.25804">
        <ele>135</ele>
      </trkpt>
      <trkpt lat="44.19739" lon="-0.25797">
        <ele>135</ele>
      </trkpt>
      <trkpt lat="44.19752" lon="-0.25793">
        <ele>135</ele>
      </trkpt>
      <trkpt lat="44.19793" lon="-0.25781">
        <ele>135.1</ele>
      </trkpt>
      <trkpt lat="44.19849" lon="-0.25765">
        <ele>134.5</ele>
      </trkpt>
      <trkpt lat="44.19905" lon="-0.25749">
        <ele>134.4</ele>
      </trkpt>
      <trkpt lat="44.19975" lon="-0.2573">
        <ele>134.4</ele>
      </trkpt>
      <trkpt lat="44.20022" lon="-0.25717">
        <ele>134.8</ele>
      </trkpt>
      <trkpt lat="44.2007" lon="-0.25704">
        <ele>134.3</ele>
      </trkpt>
      <trkpt lat="44.20133" lon="-0.25685">
        <ele>134.7</ele>
      </trkpt>
      <trkpt lat="44.20197" lon="-0.25666">
        <ele>134.9</ele>
      </trkpt>
      <trkpt lat="44.20315" lon="-0.25632">
        <ele>134.5</ele>
      </trkpt>
      <trkpt lat="44.20401" lon="-0.25608">
        <ele>134</ele>
      </trkpt>
      <trkpt lat="44.20487" lon="-0.25585">
        <ele>134</ele>
      </trkpt>
      <trkpt lat="44.20547" lon="-0.25566">
        <ele>133.8</ele>
      </trkpt>
      <trkpt lat="44.20608" lon="-0.25547">
        <ele>133.6</ele>
      </trkpt>
      <trkpt lat="44.20683" lon="-0.25529">
        <ele>133</ele>
      </trkpt>
      <trkpt lat="44.20758" lon="-0.25511">
        <ele>133</ele>
      </trkpt>
      <trkpt lat="44.20768" lon="-0.25503">
        <ele>132.8</ele>
      </trkpt>
      <trkpt lat="44.20778" lon="-0.25492">
        <ele>132.7</ele>
      </trkpt>
      <trkpt lat="44.208" lon="-0.25459">
        <ele>132.4</ele>
      </trkpt>
      <trkpt lat="44.2089" lon="-0.25336">
        <ele>132.1</ele>
      </trkpt>
      <trkpt lat="44.20918" lon="-0.25339">
        <ele>133.1</ele>
      </trkpt>
      <trkpt lat="44.20915" lon="-0.25368">
        <ele>134.3</ele>
      </trkpt>
      <trkpt lat="44.20914" lon="-0.25392">
        <ele>135.8</ele>
      </trkpt>
      <trkpt lat="44.20921" lon="-0.2546">
        <ele>136.1</ele>
      </trkpt>
      <trkpt lat="44.20932" lon="-0.25534">
        <ele>134.1</ele>
      </trkpt>
      <trkpt lat="44.20931" lon="-0.25567">
        <ele>134.1</ele>
      </trkpt>
      <trkpt lat="44.20925" lon="-0.25595">
        <ele>134</ele>
      </trkpt>
      <trkpt lat="44.20911" lon="-0.2562">
        <ele>133.9</ele>
      </trkpt>
      <trkpt lat="44.20894" lon="-0.25639">
        <ele>133.7</ele>
      </trkpt>
      <trkpt lat="44.20859" lon="-0.25651">
        <ele>133.1</ele>
      </trkpt>
      <trkpt lat="44.20793" lon="-0.25669">
        <ele>133.4</ele>
      </trkpt>
      <trkpt lat="44.20735" lon="-0.25685">
        <ele>132.7</ele>
      </trkpt>
      <trkpt lat="44.20672" lon="-0.25703">
        <ele>133</ele>
      </trkpt>
      <trkpt lat="44.20612" lon="-0.25717">
        <ele>133</ele>
      </trkpt>
      <trkpt lat="44.20588" lon="-0.25743">
        <ele>133</ele>
      </trkpt>
      <trkpt lat="44.20556" lon="-0.25786">
        <ele>133</ele>
      </trkpt>
      <trkpt lat="44.20538" lon="-0.25815">
        <ele>133</ele>
      </trkpt>
      <trkpt lat="44.20512" lon="-0.25853">
        <ele>133</ele>
      </trkpt>
      <trkpt lat="44.20485" lon="-0.25892">
        <ele>133</ele>
      </trkpt>
      <trkpt lat="44.20467" lon="-0.25925">
        <ele>133</ele>
      </trkpt>
      <trkpt lat="44.20457" lon="-0.25957">
        <ele>133</ele>
      </trkpt>
      <trkpt lat="44.20445" lon="-0.26019">
        <ele>134</ele>
      </trkpt>
      <trkpt lat="44.20528" lon="-0.26013">
        <ele>133</ele>
      </trkpt>
      <trkpt lat="44.20776" lon="-0.25995">
        <ele>132</ele>
      </trkpt>
      <trkpt lat="44.20862" lon="-0.25988">
        <ele>132</ele>
      </trkpt>
      <trkpt lat="44.21033" lon="-0.25974">
        <ele>131.8</ele>
      </trkpt>
      <trkpt lat="44.21111" lon="-0.25966">
        <ele>131</ele>
      </trkpt>
      <trkpt lat="44.21266" lon="-0.25949">
        <ele>131</ele>
      </trkpt>
      <trkpt lat="44.21344" lon="-0.2594">
        <ele>130</ele>
      </trkpt>
      <trkpt lat="44.21421" lon="-0.25932">
        <ele>130</ele>
      </trkpt>
      <trkpt lat="44.21481" lon="-0.25927">
        <ele>130</ele>
      </trkpt>
      <trkpt lat="44.2154" lon="-0.25923">
        <ele>129.5</ele>
      </trkpt>
      <trkpt lat="44.21719" lon="-0.25908">
        <ele>128.4</ele>
      </trkpt>
      <trkpt lat="44.21988" lon="-0.25885">
        <ele>127.4</ele>
      </trkpt>
      <trkpt lat="44.22077" lon="-0.25877">
        <ele>127</ele>
      </trkpt>
      <trkpt lat="44.22153" lon="-0.2587">
        <ele>126.8</ele>
      </trkpt>
      <trkpt lat="44.22229" lon="-0.25863">
        <ele>126.7</ele>
      </trkpt>
      <trkpt lat="44.2238" lon="-0.25849">
        <ele>125.7</ele>
      </trkpt>
      <trkpt lat="44.22456" lon="-0.25845">
        <ele>126</ele>
      </trkpt>
      <trkpt lat="44.2263" lon="-0.25828">
        <ele>125</ele>
      </trkpt>
      <trkpt lat="44.22716" lon="-0.2582">
        <ele>125</ele>
      </trkpt>
      <trkpt lat="44.22976" lon="-0.25796">
        <ele>123.9</ele>
      </trkpt>
      <trkpt lat="44.23049" lon="-0.25791">
        <ele>123</ele>
      </trkpt>
      <trkpt lat="44.231" lon="-0.25786">
        <ele>123</ele>
      </trkpt>
      <trkpt lat="44.23151" lon="-0.25781">
        <ele>123</ele>
      </trkpt>
      <trkpt lat="44.23383" lon="-0.25762">
        <ele>122</ele>
      </trkpt>
      <trkpt lat="44.23464" lon="-0.25755">
        <ele>122</ele>
      </trkpt>
      <trkpt lat="44.23543" lon="-0.25748">
        <ele>121.5</ele>
      </trkpt>
      <trkpt lat="44.237" lon="-0.25734">
        <ele>121</ele>
      </trkpt>
      <trkpt lat="44.23858" lon="-0.2572">
        <ele>120.9</ele>
      </trkpt>
      <trkpt lat="44.23937" lon="-0.25713">
        <ele>120</ele>
      </trkpt>
      <trkpt lat="44.23993" lon="-0.25708">
        <ele>119.6</ele>
      </trkpt>
      <trkpt lat="44.2405" lon="-0.25703">
        <ele>119.1</ele>
      </trkpt>
      <trkpt lat="44.2444" lon="-0.25669">
        <ele>117.9</ele>
      </trkpt>
      <trkpt lat="44.24518" lon="-0.25663">
        <ele>117</ele>
      </trkpt>
      <trkpt lat="44.24555" lon="-0.25657">
        <ele>117</ele>
      </trkpt>
      <trkpt lat="44.24606" lon="-0.25651">
        <ele>116.6</ele>
      </trkpt>
      <trkpt lat="44.24684" lon="-0.25647">
        <ele>116.7</ele>
      </trkpt>
      <trkpt lat="44.24762" lon="-0.25642">
        <ele>116</ele>
      </trkpt>
      <trkpt lat="44.25019" lon="-0.25618">
        <ele>114.6</ele>
      </trkpt>
      <trkpt lat="44.25275" lon="-0.25593">
        <ele>113</ele>
      </trkpt>
      <trkpt lat="44.25677" lon="-0.25557">
        <ele>112</ele>
      </trkpt>
      <trkpt lat="44.25757" lon="-0.2555">
        <ele>111.9</ele>
      </trkpt>
      <trkpt lat="44.25842" lon="-0.25542">
        <ele>111</ele>
      </trkpt>
      <trkpt lat="44.25927" lon="-0.25534">
        <ele>111</ele>
      </trkpt>
      <trkpt lat="44.26097" lon="-0.25518">
        <ele>110</ele>
      </trkpt>
      <trkpt lat="44.26182" lon="-0.25511">
        <ele>110</ele>
      </trkpt>
      <trkpt lat="44.26256" lon="-0.25504">
        <ele>109</ele>
      </trkpt>
      <trkpt lat="44.26403" lon="-0.25492">
        <ele>108.6</ele>
      </trkpt>
      <trkpt lat="44.26469" lon="-0.25487">
        <ele>108.1</ele>
      </trkpt>
      <trkpt lat="44.26557" lon="-0.2548">
        <ele>108</ele>
      </trkpt>
      <trkpt lat="44.26645" lon="-0.25472">
        <ele>107.8</ele>
      </trkpt>
      <trkpt lat="44.26716" lon="-0.25466">
        <ele>108</ele>
      </trkpt>
      <trkpt lat="44.26857" lon="-0.25454">
        <ele>106.1</ele>
      </trkpt>
      <trkpt lat="44.2693" lon="-0.25452">
        <ele>106.9</ele>
      </trkpt>
      <trkpt lat="44.27101" lon="-0.25458">
        <ele>106</ele>
      </trkpt>
      <trkpt lat="44.27171" lon="-0.25468">
        <ele>106</ele>
      </trkpt>
      <trkpt lat="44.27217" lon="-0.25475">
        <ele>105.2</ele>
      </trkpt>
      <trkpt lat="44.27263" lon="-0.25482">
        <ele>105</ele>
      </trkpt>
      <trkpt lat="44.27278" lon="-0.25484">
        <ele>105</ele>
      </trkpt>
      <trkpt lat="44.27326" lon="-0.25489">
        <ele>105</ele>
      </trkpt>
      <trkpt lat="44.27374" lon="-0.25495">
        <ele>105</ele>
      </trkpt>
      <trkpt lat="44.27517" lon="-0.25515">
        <ele>104</ele>
      </trkpt>
      <trkpt lat="44.27588" lon="-0.25525">
        <ele>104</ele>
      </trkpt>
      <trkpt lat="44.27659" lon="-0.25536">
        <ele>103</ele>
      </trkpt>
      <trkpt lat="44.27726" lon="-0.25546">
        <ele>103</ele>
      </trkpt>
      <trkpt lat="44.27792" lon="-0.25556">
        <ele>103</ele>
      </trkpt>
      <trkpt lat="44.27853" lon="-0.25566">
        <ele>102.6</ele>
      </trkpt>
      <trkpt lat="44.27913" lon="-0.25576">
        <ele>102</ele>
      </trkpt>
      <trkpt lat="44.2798" lon="-0.25585">
        <ele>102</ele>
      </trkpt>
      <trkpt lat="44.28046" lon="-0.25594">
        <ele>101.6</ele>
      </trkpt>
      <trkpt lat="44.28113" lon="-0.25602">
        <ele>101</ele>
      </trkpt>
      <trkpt lat="44.28203" lon="-0.25615">
        <ele>101</ele>
      </trkpt>
      <trkpt lat="44.28292" lon="-0.25628">
        <ele>100</ele>
      </trkpt>
      <trkpt lat="44.28377" lon="-0.2564">
        <ele>100</ele>
      </trkpt>
      <trkpt lat="44.28461" lon="-0.25653">
        <ele>99.2</ele>
      </trkpt>
      <trkpt lat="44.28545" lon="-0.25665">
        <ele>99</ele>
      </trkpt>
      <trkpt lat="44.2864" lon="-0.25677">
        <ele>96.6</ele>
      </trkpt>
      <trkpt lat="44.28752" lon="-0.2569">
        <ele>99</ele>
      </trkpt>
      <trkpt lat="44.2885" lon="-0.25693">
        <ele>98</ele>
      </trkpt>
      <trkpt lat="44.28941" lon="-0.25686">
        <ele>98</ele>
      </trkpt>
      <trkpt lat="44.29043" lon="-0.25673">
        <ele>98</ele>
      </trkpt>
      <trkpt lat="44.2911" lon="-0.25661">
        <ele>97.8</ele>
      </trkpt>
      <trkpt lat="44.29194" lon="-0.25641">
        <ele>98</ele>
      </trkpt>
      <trkpt lat="44.29273" lon="-0.25619">
        <ele>98</ele>
      </trkpt>
      <trkpt lat="44.29352" lon="-0.25597">
        <ele>98</ele>
      </trkpt>
      <trkpt lat="44.29429" lon="-0.25581">
        <ele>98</ele>
      </trkpt>
      <trkpt lat="44.29433" lon="-0.25574">
        <ele>97.8</ele>
      </trkpt>
      <trkpt lat="44.29481" lon="-0.25564">
        <ele>98</ele>
      </trkpt>
      <trkpt lat="44.2953" lon="-0.25554">
        <ele>98</ele>
      </trkpt>
      <trkpt lat="44.29593" lon="-0.25535">
        <ele>97.4</ele>
      </trkpt>
      <trkpt lat="44.29655" lon="-0.25516">
        <ele>97.4</ele>
      </trkpt>
      <trkpt lat="44.29723" lon="-0.25505">
        <ele>97</ele>
      </trkpt>
      <trkpt lat="44.29799" lon="-0.25485">
        <ele>96.5</ele>
      </trkpt>
      <trkpt lat="44.29874" lon="-0.25465">
        <ele>96.8</ele>
      </trkpt>
      <trkpt lat="44.29963" lon="-0.2544">
        <ele>96.3</ele>
      </trkpt>
      <trkpt lat="44.30052" lon="-0.25415">
        <ele>96</ele>
      </trkpt>
      <trkpt lat="44.3012" lon="-0.25396">
        <ele>95.7</ele>
      </trkpt>
      <trkpt lat="44.30188" lon="-0.25378">
        <ele>95.9</ele>
      </trkpt>
      <trkpt lat="44.30257" lon="-0.25359">
        <ele>95.2</ele>
      </trkpt>
      <trkpt lat="44.30337" lon="-0.25339">
        <ele>95</ele>
      </trkpt>
      <trkpt lat="44.30417" lon="-0.25319">
        <ele>94.5</ele>
      </trkpt>
      <trkpt lat="44.30494" lon="-0.25296">
        <ele>94.9</ele>
      </trkpt>
      <trkpt lat="44.30567" lon="-0.25282">
        <ele>94.4</ele>
      </trkpt>
      <trkpt lat="44.30639" lon="-0.25268">
        <ele>94.6</ele>
      </trkpt>
      <trkpt lat="44.30681" lon="-0.25245">
        <ele>94.8</ele>
      </trkpt>
      <trkpt lat="44.30723" lon="-0.25238">
        <ele>95</ele>
      </trkpt>
      <trkpt lat="44.30792" lon="-0.25229">
        <ele>93.9</ele>
      </trkpt>
      <trkpt lat="44.30846" lon="-0.25216">
        <ele>93.5</ele>
      </trkpt>
      <trkpt lat="44.309" lon="-0.25204">
        <ele>93.6</ele>
      </trkpt>
      <trkpt lat="44.30982" lon="-0.25188">
        <ele>93</ele>
      </trkpt>
      <trkpt lat="44.31013" lon="-0.25181">
        <ele>93</ele>
      </trkpt>
      <trkpt lat="44.31093" lon="-0.25175">
        <ele>92.9</ele>
      </trkpt>
      <trkpt lat="44.31172" lon="-0.25168">
        <ele>92.2</ele>
      </trkpt>
      <trkpt lat="44.31311" lon="-0.25157">
        <ele>91</ele>
      </trkpt>
      <trkpt lat="44.3145" lon="-0.25146">
        <ele>92.9</ele>
      </trkpt>
      <trkpt lat="44.31486" lon="-0.25144">
        <ele>92.8</ele>
      </trkpt>
      <trkpt lat="44.31513" lon="-0.25141">
        <ele>92.5</ele>
      </trkpt>
      <trkpt lat="44.31765" lon="-0.25116">
        <ele>92</ele>
      </trkpt>
      <trkpt lat="44.31993" lon="-0.25102">
        <ele>91.5</ele>
      </trkpt>
      <trkpt lat="44.32069" lon="-0.25097">
        <ele>91.3</ele>
      </trkpt>
      <trkpt lat="44.32154" lon="-0.25091">
        <ele>91.7</ele>
      </trkpt>
      <trkpt lat="44.32239" lon="-0.25084">
        <ele>92</ele>
      </trkpt>
      <trkpt lat="44.32402" lon="-0.25073">
        <ele>91.5</ele>
      </trkpt>
      <trkpt lat="44.32483" lon="-0.25067">
        <ele>92</ele>
      </trkpt>
      <trkpt lat="44.3253" lon="-0.25062">
        <ele>92</ele>
      </trkpt>
      <trkpt lat="44.32577" lon="-0.25058">
        <ele>91.9</ele>
      </trkpt>
      <trkpt lat="44.32647" lon="-0.25052">
        <ele>91.8</ele>
      </trkpt>
      <trkpt lat="44.32716" lon="-0.25047">
        <ele>91</ele>
      </trkpt>
      <trkpt lat="44.32786" lon="-0.25041">
        <ele>90.2</ele>
      </trkpt>
      <trkpt lat="44.32904" lon="-0.25032">
        <ele>90.9</ele>
      </trkpt>
      <trkpt lat="44.32957" lon="-0.25027">
        <ele>91</ele>
      </trkpt>
      <trkpt lat="44.3302" lon="-0.25023">
        <ele>90.4</ele>
      </trkpt>
      <trkpt lat="44.33068" lon="-0.25021">
        <ele>91</ele>
      </trkpt>
      <trkpt lat="44.33127" lon="-0.25016">
        <ele>91.4</ele>
      </trkpt>
      <trkpt lat="44.33186" lon="-0.25011">
        <ele>91</ele>
      </trkpt>
      <trkpt lat="44.33242" lon="-0.25008">
        <ele>91</ele>
      </trkpt>
      <trkpt lat="44.33298" lon="-0.25004">
        <ele>91</ele>
      </trkpt>
      <trkpt lat="44.33366" lon="-0.24997">
        <ele>90.1</ele>
      </trkpt>
      <trkpt lat="44.33434" lon="-0.24991">
        <ele>90</ele>
      </trkpt>
      <trkpt lat="44.3351" lon="-0.24985">
        <ele>89.7</ele>
      </trkpt>
      <trkpt lat="44.33585" lon="-0.24978">
        <ele>88.9</ele>
      </trkpt>
      <trkpt lat="44.33667" lon="-0.24971">
        <ele>88</ele>
      </trkpt>
      <trkpt lat="44.33716" lon="-0.24969">
        <ele>88</ele>
      </trkpt>
      <trkpt lat="44.33764" lon="-0.24967">
        <ele>87.1</ele>
      </trkpt>
      <trkpt lat="44.33819" lon="-0.24961">
        <ele>86.8</ele>
      </trkpt>
      <trkpt lat="44.33874" lon="-0.24956">
        <ele>86</ele>
      </trkpt>
      <trkpt lat="44.33937" lon="-0.24952">
        <ele>84.8</ele>
      </trkpt>
      <trkpt lat="44.33999" lon="-0.24948">
        <ele>84.9</ele>
      </trkpt>
      <trkpt lat="44.34062" lon="-0.24944">
        <ele>83.7</ele>
      </trkpt>
      <trkpt lat="44.34117" lon="-0.24936">
        <ele>82.8</ele>
      </trkpt>
      <trkpt lat="44.34172" lon="-0.24929">
        <ele>81.9</ele>
      </trkpt>
      <trkpt lat="44.3419" lon="-0.24926">
        <ele>81.7</ele>
      </trkpt>
      <trkpt lat="44.34265" lon="-0.24923">
        <ele>81.5</ele>
      </trkpt>
      <trkpt lat="44.34337" lon="-0.24919">
        <ele>81.9</ele>
      </trkpt>
      <trkpt lat="44.3448" lon="-0.2491">
        <ele>79</ele>
      </trkpt>
      <trkpt lat="44.34541" lon="-0.24904">
        <ele>78.7</ele>
      </trkpt>
      <trkpt lat="44.34602" lon="-0.24897">
        <ele>78.7</ele>
      </trkpt>
      <trkpt lat="44.34749" lon="-0.24885">
        <ele>77.9</ele>
      </trkpt>
      <trkpt lat="44.34823" lon="-0.24879">
        <ele>76.8</ele>
      </trkpt>
      <trkpt lat="44.34896" lon="-0.24873">
        <ele>76</ele>
      </trkpt>
      <trkpt lat="44.34965" lon="-0.24866">
        <ele>75.9</ele>
      </trkpt>
      <trkpt lat="44.35035" lon="-0.2486">
        <ele>75.9</ele>
      </trkpt>
      <trkpt lat="44.35087" lon="-0.24851">
        <ele>75</ele>
      </trkpt>
      <trkpt lat="44.35139" lon="-0.24843">
        <ele>75</ele>
      </trkpt>
      <trkpt lat="44.35218" lon="-0.24825">
        <ele>74.1</ele>
      </trkpt>
      <trkpt lat="44.35297" lon="-0.24808">
        <ele>74.3</ele>
      </trkpt>
      <trkpt lat="44.35352" lon="-0.2479">
        <ele>74</ele>
      </trkpt>
      <trkpt lat="44.35407" lon="-0.24773">
        <ele>73.9</ele>
      </trkpt>
      <trkpt lat="44.35553" lon="-0.24717">
        <ele>73</ele>
      </trkpt>
      <trkpt lat="44.35598" lon="-0.24695">
        <ele>73</ele>
      </trkpt>
      <trkpt lat="44.35644" lon="-0.24673">
        <ele>72.2</ele>
      </trkpt>
      <trkpt lat="44.35705" lon="-0.24643">
        <ele>72.1</ele>
      </trkpt>
      <trkpt lat="44.35779" lon="-0.24603">
        <ele>72</ele>
      </trkpt>
      <trkpt lat="44.35893" lon="-0.24526">
        <ele>71.1</ele>
      </trkpt>
      <trkpt lat="44.35985" lon="-0.24462">
        <ele>71</ele>
      </trkpt>
      <trkpt lat="44.36082" lon="-0.24389">
        <ele>70.1</ele>
      </trkpt>
      <trkpt lat="44.36185" lon="-0.24302">
        <ele>69.8</ele>
      </trkpt>
      <trkpt lat="44.36228" lon="-0.24261">
        <ele>69.1</ele>
      </trkpt>
      <trkpt lat="44.3627" lon="-0.24219">
        <ele>68</ele>
      </trkpt>
      <trkpt lat="44.36316" lon="-0.24178">
        <ele>68.8</ele>
      </trkpt>
      <trkpt lat="44.36362" lon="-0.24136">
        <ele>69</ele>
      </trkpt>
      <trkpt lat="44.36426" lon="-0.24075">
        <ele>68</ele>
      </trkpt>
      <trkpt lat="44.36491" lon="-0.24015">
        <ele>68</ele>
      </trkpt>
      <trkpt lat="44.36534" lon="-0.23981">
        <ele>68</ele>
      </trkpt>
      <trkpt lat="44.3654" lon="-0.23974">
        <ele>68</ele>
      </trkpt>
      <trkpt lat="44.36545" lon="-0.23967">
        <ele>68</ele>
      </trkpt>
      <trkpt lat="44.36555" lon="-0.23959">
        <ele>68</ele>
      </trkpt>
      <trkpt lat="44.36575" lon="-0.23941">
        <ele>68</ele>
      </trkpt>
      <trkpt lat="44.36663" lon="-0.23863">
        <ele>68</ele>
      </trkpt>
      <trkpt lat="44.36691" lon="-0.23838">
        <ele>68</ele>
      </trkpt>
      <trkpt lat="44.36738" lon="-0.23796">
        <ele>66.9</ele>
      </trkpt>
      <trkpt lat="44.36767" lon="-0.23771">
        <ele>66.4</ele>
      </trkpt>
      <trkpt lat="44.36776" lon="-0.23762">
        <ele>66.5</ele>
      </trkpt>
      <trkpt lat="44.36796" lon="-0.23744">
        <ele>66.3</ele>
      </trkpt>
      <trkpt lat="44.36904" lon="-0.23645">
        <ele>65.5</ele>
      </trkpt>
      <trkpt lat="44.36943" lon="-0.23609">
        <ele>62.8</ele>
      </trkpt>
      <trkpt lat="44.36962" lon="-0.2359">
        <ele>57.8</ele>
      </trkpt>
      <trkpt lat="44.36971" lon="-0.2358">
        <ele>57.6</ele>
      </trkpt>
      <trkpt lat="44.3698" lon="-0.23571">
        <ele>60.5</ele>
      </trkpt>
      <trkpt lat="44.3699" lon="-0.23561">
        <ele>63.6</ele>
      </trkpt>
      <trkpt lat="44.37018" lon="-0.23532">
        <ele>65.5</ele>
      </trkpt>
      <trkpt lat="44.37161" lon="-0.2339">
        <ele>69</ele>
      </trkpt>
      <trkpt lat="44.37225" lon="-0.2333">
        <ele>70.9</ele>
      </trkpt>
      <trkpt lat="44.37424" lon="-0.2315">
        <ele>76.2</ele>
      </trkpt>
      <trkpt lat="44.37453" lon="-0.23184">
        <ele>79.1</ele>
      </trkpt>
      <trkpt lat="44.37479" lon="-0.23225">
        <ele>80.5</ele>
      </trkpt>
      <trkpt lat="44.37505" lon="-0.23229">
        <ele>81.7</ele>
      </trkpt>
      <trkpt lat="44.37513" lon="-0.23201">
        <ele>81.4</ele>
      </trkpt>
      <trkpt lat="44.3753" lon="-0.23141">
        <ele>79.2</ele>
      </trkpt>
      <trkpt lat="44.37556" lon="-0.23074">
        <ele>82.6</ele>
      </trkpt>
      <trkpt lat="44.3757" lon="-0.23041">
        <ele>79</ele>
      </trkpt>
      <trkpt lat="44.37582" lon="-0.23026">
        <ele>80.5</ele>
      </trkpt>
      <trkpt lat="44.37595" lon="-0.23015">
        <ele>78.9</ele>
      </trkpt>
      <trkpt lat="44.37612" lon="-0.23006">
        <ele>78.5</ele>
      </trkpt>
      <trkpt lat="44.37638" lon="-0.22997">
        <ele>78.6</ele>
      </trkpt>
      <trkpt lat="44.37701" lon="-0.22975">
        <ele>77.3</ele>
      </trkpt>
      <trkpt lat="44.37792" lon="-0.22959">
        <ele>78.6</ele>
      </trkpt>
      <trkpt lat="44.37893" lon="-0.22952">
        <ele>80.3</ele>
      </trkpt>
      <trkpt lat="44.37969" lon="-0.22951">
        <ele>80.7</ele>
      </trkpt>
      <trkpt lat="44.38051" lon="-0.22958">
        <ele>82</ele>
      </trkpt>
      <trkpt lat="44.38089" lon="-0.22959">
        <ele>82.6</ele>
      </trkpt>
      <trkpt lat="44.38136" lon="-0.22966">
        <ele>82.7</ele>
      </trkpt>
      <trkpt lat="44.3822" lon="-0.22984">
        <ele>84.8</ele>
      </trkpt>
      <trkpt lat="44.38318" lon="-0.23029">
        <ele>87</ele>
      </trkpt>
      <trkpt lat="44.38374" lon="-0.23064">
        <ele>87.3</ele>
      </trkpt>
      <trkpt lat="44.38392" lon="-0.2308">
        <ele>87.9</ele>
      </trkpt>
      <trkpt lat="44.38455" lon="-0.23135">
        <ele>89.4</ele>
      </trkpt>
      <trkpt lat="44.38492" lon="-0.23179">
        <ele>90.3</ele>
      </trkpt>
      <trkpt lat="44.38533" lon="-0.2322">
        <ele>91.2</ele>
      </trkpt>
      <trkpt lat="44.38563" lon="-0.23247">
        <ele>91.2</ele>
      </trkpt>
      <trkpt lat="44.38586" lon="-0.2327">
        <ele>91.3</ele>
      </trkpt>
      <trkpt lat="44.38643" lon="-0.23322">
        <ele>89.9</ele>
      </trkpt>
      <trkpt lat="44.38722" lon="-0.23369">
        <ele>91.1</ele>
      </trkpt>
      <trkpt lat="44.38779" lon="-0.23396">
        <ele>94.7</ele>
      </trkpt>
      <trkpt lat="44.38849" lon="-0.23417">
        <ele>95.6</ele>
      </trkpt>
      <trkpt lat="44.38914" lon="-0.2342">
        <ele>97.1</ele>
      </trkpt>
      <trkpt lat="44.38972" lon="-0.23419">
        <ele>99.1</ele>
      </trkpt>
      <trkpt lat="44.39036" lon="-0.23407">
        <ele>101.5</ele>
      </trkpt>
      <trkpt lat="44.391" lon="-0.23385">
        <ele>103.5</ele>
      </trkpt>
      <trkpt lat="44.39131" lon="-0.23372">
        <ele>103.4</ele>
      </trkpt>
      <trkpt lat="44.39165" lon="-0.23355">
        <ele>103.9</ele>
      </trkpt>
      <trkpt lat="44.39197" lon="-0.23333">
        <ele>103.9</ele>
      </trkpt>
      <trkpt lat="44.39233" lon="-0.23307">
        <ele>102</ele>
      </trkpt>
      <trkpt lat="44.39256" lon="-0.23292">
        <ele>100.5</ele>
      </trkpt>
      <trkpt lat="44.39316" lon="-0.23244">
        <ele>99.4</ele>
      </trkpt>
      <trkpt lat="44.39372" lon="-0.23198">
        <ele>100.6</ele>
      </trkpt>
      <trkpt lat="44.39411" lon="-0.23166">
        <ele>104</ele>
      </trkpt>
      <trkpt lat="44.39522" lon="-0.23068">
        <ele>106.8</ele>
      </trkpt>
      <trkpt lat="44.39586" lon="-0.23013">
        <ele>107.6</ele>
      </trkpt>
      <trkpt lat="44.39682" lon="-0.22934">
        <ele>109.4</ele>
      </trkpt>
      <trkpt lat="44.39733" lon="-0.22888">
        <ele>110.6</ele>
      </trkpt>
      <trkpt lat="44.39807" lon="-0.22845">
        <ele>111.6</ele>
      </trkpt>
      <trkpt lat="44.39843" lon="-0.22828">
        <ele>111.5</ele>
      </trkpt>
      <trkpt lat="44.39884" lon="-0.22802">
        <ele>112.5</ele>
      </trkpt>
      <trkpt lat="44.39952" lon="-0.22771">
        <ele>114.1</ele>
      </trkpt>
      <trkpt lat="44.40014" lon="-0.22742">
        <ele>114.9</ele>
      </trkpt>
      <trkpt lat="44.4013" lon="-0.22696">
        <ele>116.4</ele>
      </trkpt>
      <trkpt lat="44.4025" lon="-0.2266">
        <ele>117.8</ele>
      </trkpt>
      <trkpt lat="44.40401" lon="-0.22605">
        <ele>120.7</ele>
      </trkpt>
      <trkpt lat="44.40586" lon="-0.22543">
        <ele>123.5</ele>
      </trkpt>
      <trkpt lat="44.40617" lon="-0.22549">
        <ele>124.1</ele>
      </trkpt>
      <trkpt lat="44.40639" lon="-0.22524">
        <ele>124</ele>
      </trkpt>
      <trkpt lat="44.40677" lon="-0.22514">
        <ele>124.5</ele>
      </trkpt>
      <trkpt lat="44.40722" lon="-0.22499">
        <ele>125</ele>
      </trkpt>
      <trkpt lat="44.40768" lon="-0.22481">
        <ele>125</ele>
      </trkpt>
      <trkpt lat="44.40822" lon="-0.2246">
        <ele>124.5</ele>
      </trkpt>
      <trkpt lat="44.40945" lon="-0.22418">
        <ele>125</ele>
      </trkpt>
      <trkpt lat="44.41053" lon="-0.22379">
        <ele>125</ele>
      </trkpt>
      <trkpt lat="44.41196" lon="-0.22324">
        <ele>125.3</ele>
      </trkpt>
      <trkpt lat="44.41233" lon="-0.2231">
        <ele>124</ele>
      </trkpt>
      <trkpt lat="44.41328" lon="-0.2228">
        <ele>122.6</ele>
      </trkpt>
      <trkpt lat="44.41466" lon="-0.22227">
        <ele>120.6</ele>
      </trkpt>
      <trkpt lat="44.41592" lon="-0.22185">
        <ele>117.7</ele>
      </trkpt>
      <trkpt lat="44.41675" lon="-0.2216">
        <ele>116</ele>
      </trkpt>
      <trkpt lat="44.41752" lon="-0.2214">
        <ele>112.9</ele>
      </trkpt>
      <trkpt lat="44.41825" lon="-0.22124">
        <ele>112.1</ele>
      </trkpt>
      <trkpt lat="44.41899" lon="-0.22109">
        <ele>110.2</ele>
      </trkpt>
      <trkpt lat="44.41986" lon="-0.22094">
        <ele>110.6</ele>
      </trkpt>
      <trkpt lat="44.42009" lon="-0.22088">
        <ele>110.6</ele>
      </trkpt>
      <trkpt lat="44.42088" lon="-0.22072">
        <ele>105.6</ele>
      </trkpt>
      <trkpt lat="44.4216" lon="-0.22065">
        <ele>105.8</ele>
      </trkpt>
      <trkpt lat="44.42246" lon="-0.22064">
        <ele>104.6</ele>
      </trkpt>
      <trkpt lat="44.4233" lon="-0.22076">
        <ele>102.7</ele>
      </trkpt>
      <trkpt lat="44.42387" lon="-0.22085">
        <ele>104</ele>
      </trkpt>
      <trkpt lat="44.4244" lon="-0.22098">
        <ele>102.6</ele>
      </trkpt>
      <trkpt lat="44.42511" lon="-0.22127">
        <ele>100.7</ele>
      </trkpt>
      <trkpt lat="44.42554" lon="-0.22134">
        <ele>100.3</ele>
      </trkpt>
      <trkpt lat="44.42619" lon="-0.22215">
        <ele>98.2</ele>
      </trkpt>
      <trkpt lat="44.42661" lon="-0.22271">
        <ele>98</ele>
      </trkpt>
      <trkpt lat="44.42688" lon="-0.22248">
        <ele>99</ele>
      </trkpt>
      <trkpt lat="44.4271" lon="-0.22233">
        <ele>98.4</ele>
      </trkpt>
      <trkpt lat="44.42754" lon="-0.22201">
        <ele>97.5</ele>
      </trkpt>
      <trkpt lat="44.42744" lon="-0.22156">
        <ele>97.9</ele>
      </trkpt>
      <trkpt lat="44.42724" lon="-0.22104">
        <ele>98.6</ele>
      </trkpt>
      <trkpt lat="44.42694" lon="-0.22017">
        <ele>99</ele>
      </trkpt>
      <trkpt lat="44.4268" lon="-0.21974">
        <ele>99.5</ele>
      </trkpt>
      <trkpt lat="44.42684" lon="-0.21923">
        <ele>99.4</ele>
      </trkpt>
      <trkpt lat="44.42692" lon="-0.21872">
        <ele>99.1</ele>
      </trkpt>
      <trkpt lat="44.42703" lon="-0.21817">
        <ele>99</ele>
      </trkpt>
      <trkpt lat="44.42716" lon="-0.21788">
        <ele>98.5</ele>
      </trkpt>
      <trkpt lat="44.42776" lon="-0.21734">
        <ele>95.9</ele>
      </trkpt>
      <trkpt lat="44.42786" lon="-0.21721">
        <ele>94.7</ele>
      </trkpt>
      <trkpt lat="44.42792" lon="-0.21703">
        <ele>94.2</ele>
      </trkpt>
      <trkpt lat="44.42794" lon="-0.21662">
        <ele>92.2</ele>
      </trkpt>
      <trkpt lat="44.42817" lon="-0.21631">
        <ele>90.1</ele>
      </trkpt>
      <trkpt lat="44.42855" lon="-0.21596">
        <ele>87.8</ele>
      </trkpt>
      <trkpt lat="44.42868" lon="-0.21575">
        <ele>87</ele>
      </trkpt>
      <trkpt lat="44.42875" lon="-0.21551">
        <ele>86.9</ele>
      </trkpt>
      <trkpt lat="44.42875" lon="-0.21451">
        <ele>83.2</ele>
      </trkpt>
      <trkpt lat="44.42894" lon="-0.21461">
        <ele>81.1</ele>
      </trkpt>
      <trkpt lat="44.42918" lon="-0.21469">
        <ele>76.2</ele>
      </trkpt>
      <trkpt lat="44.42931" lon="-0.21447">
        <ele>72.9</ele>
      </trkpt>
      <trkpt lat="44.42945" lon="-0.21391">
        <ele>72</ele>
      </trkpt>
      <trkpt lat="44.42958" lon="-0.21353">
        <ele>76.1</ele>
      </trkpt>
      <trkpt lat="44.42964" lon="-0.21313">
        <ele>78.4</ele>
      </trkpt>
      <trkpt lat="44.42995" lon="-0.21262">
        <ele>78</ele>
      </trkpt>
      <trkpt lat="44.43007" lon="-0.21217">
        <ele>77.1</ele>
      </trkpt>
      <trkpt lat="44.43022" lon="-0.21171">
        <ele>77.7</ele>
      </trkpt>
      <trkpt lat="44.4304" lon="-0.21145">
        <ele>76.8</ele>
      </trkpt>
      <trkpt lat="44.43063" lon="-0.21108">
        <ele>76.9</ele>
      </trkpt>
      <trkpt lat="44.43084" lon="-0.21084">
        <ele>80.2</ele>
      </trkpt>
      <trkpt lat="44.43144" lon="-0.21109">
        <ele>85.8</ele>
      </trkpt>
      <trkpt lat="44.43156" lon="-0.21116">
        <ele>85.2</ele>
      </trkpt>
      <trkpt lat="44.43172" lon="-0.2114">
        <ele>83.8</ele>
      </trkpt>
      <trkpt lat="44.43198" lon="-0.21191">
        <ele>81.1</ele>
      </trkpt>
      <trkpt lat="44.43214" lon="-0.21215">
        <ele>81.2</ele>
      </trkpt>
      <trkpt lat="44.43257" lon="-0.21293">
        <ele>83.3</ele>
      </trkpt>
      <trkpt lat="44.43276" lon="-0.21324">
        <ele>84.7</ele>
      </trkpt>
      <trkpt lat="44.43306" lon="-0.21363">
        <ele>86.1</ele>
      </trkpt>
      <trkpt lat="44.43323" lon="-0.21395">
        <ele>87.2</ele>
      </trkpt>
      <trkpt lat="44.43365" lon="-0.21453">
        <ele>88.4</ele>
      </trkpt>
      <trkpt lat="44.43387" lon="-0.21491">
        <ele>89.1</ele>
      </trkpt>
      <trkpt lat="44.43402" lon="-0.21536">
        <ele>90</ele>
      </trkpt>
      <trkpt lat="44.43413" lon="-0.21572">
        <ele>90.5</ele>
      </trkpt>
      <trkpt lat="44.43441" lon="-0.21662">
        <ele>92</ele>
      </trkpt>
      <trkpt lat="44.43451" lon="-0.21706">
        <ele>93</ele>
      </trkpt>
      <trkpt lat="44.43467" lon="-0.21757">
        <ele>93.4</ele>
      </trkpt>
      <trkpt lat="44.43512" lon="-0.21734">
        <ele>93.3</ele>
      </trkpt>
      <trkpt lat="44.43593" lon="-0.2169">
        <ele>93.7</ele>
      </trkpt>
      <trkpt lat="44.43659" lon="-0.21661">
        <ele>93.2</ele>
      </trkpt>
      <trkpt lat="44.43746" lon="-0.21642">
        <ele>91</ele>
      </trkpt>
      <trkpt lat="44.43787" lon="-0.21635">
        <ele>91.3</ele>
      </trkpt>
      <trkpt lat="44.43825" lon="-0.21631">
        <ele>93.2</ele>
      </trkpt>
      <trkpt lat="44.43867" lon="-0.2163">
        <ele>95.7</ele>
      </trkpt>
      <trkpt lat="44.43903" lon="-0.21639">
        <ele>94.9</ele>
      </trkpt>
      <trkpt lat="44.43941" lon="-0.21651">
        <ele>93.6</ele>
      </trkpt>
      <trkpt lat="44.43992" lon="-0.21679">
        <ele>95.4</ele>
      </trkpt>
      <trkpt lat="44.44028" lon="-0.21701">
        <ele>96.6</ele>
      </trkpt>
      <trkpt lat="44.44066" lon="-0.21737">
        <ele>95.7</ele>
      </trkpt>
      <trkpt lat="44.44114" lon="-0.21792">
        <ele>97.8</ele>
      </trkpt>
      <trkpt lat="44.44148" lon="-0.21835">
        <ele>99.1</ele>
      </trkpt>
      <trkpt lat="44.44174" lon="-0.21876">
        <ele>100.8</ele>
      </trkpt>
      <trkpt lat="44.44185" lon="-0.21868">
        <ele>100.9</ele>
      </trkpt>
      <trkpt lat="44.44217" lon="-0.21863">
        <ele>101.2</ele>
      </trkpt>
      <trkpt lat="44.44244" lon="-0.21872">
        <ele>101.9</ele>
      </trkpt>
      <trkpt lat="44.44274" lon="-0.21872">
        <ele>101.8</ele>
      </trkpt>
      <trkpt lat="44.44306" lon="-0.21871">
        <ele>102.7</ele>
      </trkpt>
      <trkpt lat="44.44344" lon="-0.21869">
        <ele>103</ele>
      </trkpt>
      <trkpt lat="44.44377" lon="-0.2187">
        <ele>103.7</ele>
      </trkpt>
      <trkpt lat="44.44411" lon="-0.21878">
        <ele>104.4</ele>
      </trkpt>
      <trkpt lat="44.44472" lon="-0.21891">
        <ele>106</ele>
      </trkpt>
      <trkpt lat="44.44563" lon="-0.21911">
        <ele>110.5</ele>
      </trkpt>
      <trkpt lat="44.44638" lon="-0.2193">
        <ele>117</ele>
      </trkpt>
      <trkpt lat="44.44693" lon="-0.21935">
        <ele>119.9</ele>
      </trkpt>
      <trkpt lat="44.44738" lon="-0.21935">
        <ele>121.4</ele>
      </trkpt>
      <trkpt lat="44.44786" lon="-0.21934">
        <ele>121.6</ele>
      </trkpt>
      <trkpt lat="44.44859" lon="-0.21947">
        <ele>122</ele>
      </trkpt>
      <trkpt lat="44.44955" lon="-0.21968">
        <ele>123</ele>
      </trkpt>
      <trkpt lat="44.44999" lon="-0.21972">
        <ele>124</ele>
      </trkpt>
      <trkpt lat="44.45042" lon="-0.21969">
        <ele>124</ele>
      </trkpt>
      <trkpt lat="44.45092" lon="-0.21961">
        <ele>124</ele>
      </trkpt>
      <trkpt lat="44.45089" lon="-0.21929">
        <ele>124</ele>
      </trkpt>
      <trkpt lat="44.45084" lon="-0.21891">
        <ele>124</ele>
      </trkpt>
      <trkpt lat="44.45076" lon="-0.21854">
        <ele>124</ele>
      </trkpt>
      <trkpt lat="44.45075" lon="-0.21819">
        <ele>123.9</ele>
      </trkpt>
      <trkpt lat="44.4508" lon="-0.21797">
        <ele>123.9</ele>
      </trkpt>
      <trkpt lat="44.45096" lon="-0.21785">
        <ele>124.1</ele>
      </trkpt>
      <trkpt lat="44.45121" lon="-0.21773">
        <ele>124</ele>
      </trkpt>
      <trkpt lat="44.45169" lon="-0.2175">
        <ele>123.1</ele>
      </trkpt>
      <trkpt lat="44.45215" lon="-0.21729">
        <ele>123.2</ele>
      </trkpt>
      <trkpt lat="44.45229" lon="-0.21664">
        <ele>123.3</ele>
      </trkpt>
      <trkpt lat="44.45253" lon="-0.2157">
        <ele>123</ele>
      </trkpt>
      <trkpt lat="44.45257" lon="-0.21546">
        <ele>123</ele>
      </trkpt>
      <trkpt lat="44.45253" lon="-0.21529">
        <ele>123</ele>
      </trkpt>
      <trkpt lat="44.45235" lon="-0.21503">
        <ele>122.6</ele>
      </trkpt>
      <trkpt lat="44.45219" lon="-0.21472">
        <ele>122.1</ele>
      </trkpt>
      <trkpt lat="44.45204" lon="-0.21417">
        <ele>123</ele>
      </trkpt>
      <trkpt lat="44.4519" lon="-0.21353">
        <ele>122.1</ele>
      </trkpt>
      <trkpt lat="44.45181" lon="-0.21305">
        <ele>121.5</ele>
      </trkpt>
      <trkpt lat="44.45171" lon="-0.2126">
        <ele>120.9</ele>
      </trkpt>
      <trkpt lat="44.45167" lon="-0.21245">
        <ele>121</ele>
      </trkpt>
      <trkpt lat="44.45154" lon="-0.21198">
        <ele>120.5</ele>
      </trkpt>
      <trkpt lat="44.45134" lon="-0.21128">
        <ele>119.2</ele>
      </trkpt>
      <trkpt lat="44.45121" lon="-0.21085">
        <ele>118.4</ele>
      </trkpt>
      <trkpt lat="44.45113" lon="-0.21047">
        <ele>117.7</ele>
      </trkpt>
      <trkpt lat="44.45094" lon="-0.20937">
        <ele>114.4</ele>
      </trkpt>
      <trkpt lat="44.45081" lon="-0.20841">
        <ele>112.2</ele>
      </trkpt>
      <trkpt lat="44.45076" lon="-0.20774">
        <ele>110</ele>
      </trkpt>
      <trkpt lat="44.45074" lon="-0.20716">
        <ele>108.5</ele>
      </trkpt>
      <trkpt lat="44.45069" lon="-0.20649">
        <ele>106.4</ele>
      </trkpt>
      <trkpt lat="44.45128" lon="-0.20652">
        <ele>106.5</ele>
      </trkpt>
      <trkpt lat="44.45185" lon="-0.20655">
        <ele>105.8</ele>
      </trkpt>
      <trkpt lat="44.45231" lon="-0.20665">
        <ele>104.8</ele>
      </trkpt>
      <trkpt lat="44.45295" lon="-0.2067">
        <ele>102.5</ele>
      </trkpt>
      <trkpt lat="44.4536" lon="-0.20672">
        <ele>101.8</ele>
      </trkpt>
      <trkpt lat="44.45455" lon="-0.20666">
        <ele>107.4</ele>
      </trkpt>
      <trkpt lat="44.45527" lon="-0.20661">
        <ele>110.2</ele>
      </trkpt>
      <trkpt lat="44.45584" lon="-0.20644">
        <ele>113</ele>
      </trkpt>
      <trkpt lat="44.45638" lon="-0.20635">
        <ele>114</ele>
      </trkpt>
      <trkpt lat="44.45676" lon="-0.20633">
        <ele>115</ele>
      </trkpt>
      <trkpt lat="44.45734" lon="-0.20633">
        <ele>115</ele>
      </trkpt>
      <trkpt lat="44.45806" lon="-0.20638">
        <ele>113</ele>
      </trkpt>
      <trkpt lat="44.45838" lon="-0.20637">
        <ele>112.9</ele>
      </trkpt>
      <trkpt lat="44.45876" lon="-0.20624">
        <ele>112.2</ele>
      </trkpt>
      <trkpt lat="44.45921" lon="-0.20612">
        <ele>112</ele>
      </trkpt>
      <trkpt lat="44.45984" lon="-0.20578">
        <ele>111</ele>
      </trkpt>
      <trkpt lat="44.46012" lon="-0.20571">
        <ele>110.1</ele>
      </trkpt>
      <trkpt lat="44.4605" lon="-0.20546">
        <ele>108.2</ele>
      </trkpt>
      <trkpt lat="44.46092" lon="-0.2052">
        <ele>106</ele>
      </trkpt>
      <trkpt lat="44.46147" lon="-0.20486">
        <ele>105.3</ele>
      </trkpt>
      <trkpt lat="44.46216" lon="-0.20571">
        <ele>101.2</ele>
      </trkpt>
      <trkpt lat="44.46255" lon="-0.20614">
        <ele>99.3</ele>
      </trkpt>
      <trkpt lat="44.46284" lon="-0.20648">
        <ele>97.9</ele>
      </trkpt>
      <trkpt lat="44.46293" lon="-0.20657">
        <ele>97.1</ele>
      </trkpt>
      <trkpt lat="44.46328" lon="-0.20702">
        <ele>94.3</ele>
      </trkpt>
      <trkpt lat="44.46367" lon="-0.20748">
        <ele>90.9</ele>
      </trkpt>
      <trkpt lat="44.46393" lon="-0.20775">
        <ele>88.9</ele>
      </trkpt>
      <trkpt lat="44.46417" lon="-0.20775">
        <ele>87.5</ele>
      </trkpt>
      <trkpt lat="44.46494" lon="-0.20775">
        <ele>82.8</ele>
      </trkpt>
      <trkpt lat="44.46596" lon="-0.20768">
        <ele>77.4</ele>
      </trkpt>
      <trkpt lat="44.46607" lon="-0.20749">
        <ele>77.4</ele>
      </trkpt>
      <trkpt lat="44.46625" lon="-0.20732">
        <ele>77.3</ele>
      </trkpt>
      <trkpt lat="44.46649" lon="-0.20718">
        <ele>76.4</ele>
      </trkpt>
      <trkpt lat="44.46671" lon="-0.20705">
        <ele>76.4</ele>
      </trkpt>
      <trkpt lat="44.46679" lon="-0.20689">
        <ele>77.1</ele>
      </trkpt>
      <trkpt lat="44.46691" lon="-0.20644">
        <ele>79</ele>
      </trkpt>
      <trkpt lat="44.46706" lon="-0.20598">
        <ele>79.8</ele>
      </trkpt>
      <trkpt lat="44.46723" lon="-0.20553">
        <ele>81</ele>
      </trkpt>
      <trkpt lat="44.46732" lon="-0.20525">
        <ele>80</ele>
      </trkpt>
      <trkpt lat="44.46738" lon="-0.20499">
        <ele>80.7</ele>
      </trkpt>
      <trkpt lat="44.46743" lon="-0.20447">
        <ele>83.3</ele>
      </trkpt>
      <trkpt lat="44.46748" lon="-0.20383">
        <ele>86.5</ele>
      </trkpt>
      <trkpt lat="44.46747" lon="-0.20352">
        <ele>87.3</ele>
      </trkpt>
      <trkpt lat="44.46752" lon="-0.20323">
        <ele>86.7</ele>
      </trkpt>
      <trkpt lat="44.46756" lon="-0.20305">
        <ele>86.3</ele>
      </trkpt>
      <trkpt lat="44.4678" lon="-0.20248">
        <ele>87.3</ele>
      </trkpt>
      <trkpt lat="44.46791" lon="-0.20224">
        <ele>84.7</ele>
      </trkpt>
      <trkpt lat="44.46797" lon="-0.20197">
        <ele>83</ele>
      </trkpt>
      <trkpt lat="44.46797" lon="-0.20153">
        <ele>80.9</ele>
      </trkpt>
      <trkpt lat="44.46782" lon="-0.20059">
        <ele>86.3</ele>
      </trkpt>
      <trkpt lat="44.46765" lon="-0.19974">
        <ele>90</ele>
      </trkpt>
      <trkpt lat="44.46757" lon="-0.19947">
        <ele>88.4</ele>
      </trkpt>
      <trkpt lat="44.46744" lon="-0.19921">
        <ele>87.3</ele>
      </trkpt>
      <trkpt lat="44.4672" lon="-0.19883">
        <ele>87.7</ele>
      </trkpt>
      <trkpt lat="44.46692" lon="-0.19847">
        <ele>88.2</ele>
      </trkpt>
      <trkpt lat="44.4669" lon="-0.19832">
        <ele>88.3</ele>
      </trkpt>
      <trkpt lat="44.4671" lon="-0.1984">
        <ele>87.3</ele>
      </trkpt>
      <trkpt lat="44.46723" lon="-0.19852">
        <ele>86.3</ele>
      </trkpt>
      <trkpt lat="44.46748" lon="-0.19875">
        <ele>84.7</ele>
      </trkpt>
      <trkpt lat="44.46764" lon="-0.19879">
        <ele>82.7</ele>
      </trkpt>
      <trkpt lat="44.46784" lon="-0.19867">
        <ele>80.1</ele>
      </trkpt>
      <trkpt lat="44.46822" lon="-0.19835">
        <ele>77.6</ele>
      </trkpt>
      <trkpt lat="44.46861" lon="-0.19796">
        <ele>76.5</ele>
      </trkpt>
      <trkpt lat="44.46917" lon="-0.1974">
        <ele>75.2</ele>
      </trkpt>
      <trkpt lat="44.46941" lon="-0.19712">
        <ele>72.8</ele>
      </trkpt>
      <trkpt lat="44.46959" lon="-0.19687">
        <ele>69.8</ele>
      </trkpt>
      <trkpt lat="44.46982" lon="-0.19649">
        <ele>70.3</ele>
      </trkpt>
      <trkpt lat="44.47015" lon="-0.19606">
        <ele>64.9</ele>
      </trkpt>
      <trkpt lat="44.47039" lon="-0.19588">
        <ele>62.9</ele>
      </trkpt>
      <trkpt lat="44.47068" lon="-0.19567">
        <ele>62.1</ele>
      </trkpt>
      <trkpt lat="44.4708" lon="-0.19554">
        <ele>62.2</ele>
      </trkpt>
      <trkpt lat="44.4717" lon="-0.19421">
        <ele>54.7</ele>
      </trkpt>
      <trkpt lat="44.47231" lon="-0.1932">
        <ele>53</ele>
      </trkpt>
      <trkpt lat="44.47274" lon="-0.1926">
        <ele>53.4</ele>
      </trkpt>
      <trkpt lat="44.47296" lon="-0.19225">
        <ele>53</ele>
      </trkpt>
      <trkpt lat="44.47313" lon="-0.19219">
        <ele>53.8</ele>
      </trkpt>
      <trkpt lat="44.47329" lon="-0.1922">
        <ele>55.5</ele>
      </trkpt>
      <trkpt lat="44.4736" lon="-0.19224">
        <ele>58.8</ele>
      </trkpt>
      <trkpt lat="44.47377" lon="-0.1923">
        <ele>61.2</ele>
      </trkpt>
      <trkpt lat="44.47386" lon="-0.19243">
        <ele>63.7</ele>
      </trkpt>
      <trkpt lat="44.47391" lon="-0.19273">
        <ele>68.1</ele>
      </trkpt>
      <trkpt lat="44.47382" lon="-0.19308">
        <ele>68.9</ele>
      </trkpt>
      <trkpt lat="44.47372" lon="-0.19332">
        <ele>67.8</ele>
      </trkpt>
      <trkpt lat="44.47376" lon="-0.19364">
        <ele>71</ele>
      </trkpt>
      <trkpt lat="44.47395" lon="-0.19422">
        <ele>75.7</ele>
      </trkpt>
      <trkpt lat="44.47406" lon="-0.19475">
        <ele>76.3</ele>
      </trkpt>
      <trkpt lat="44.47408" lon="-0.19521">
        <ele>77.9</ele>
      </trkpt>
      <trkpt lat="44.4741" lon="-0.19572">
        <ele>76.3</ele>
      </trkpt>
      <trkpt lat="44.47419" lon="-0.19606">
        <ele>77.1</ele>
      </trkpt>
      <trkpt lat="44.47431" lon="-0.1963">
        <ele>77.6</ele>
      </trkpt>
      <trkpt lat="44.47445" lon="-0.19651">
        <ele>79</ele>
      </trkpt>
      <trkpt lat="44.47457" lon="-0.19649">
        <ele>82.6</ele>
      </trkpt>
      <trkpt lat="44.47467" lon="-0.19626">
        <ele>87.1</ele>
      </trkpt>
      <trkpt lat="44.47461" lon="-0.1958">
        <ele>89</ele>
      </trkpt>
      <trkpt lat="44.47456" lon="-0.19527">
        <ele>90.5</ele>
      </trkpt>
      <trkpt lat="44.47459" lon="-0.19467">
        <ele>90.2</ele>
      </trkpt>
      <trkpt lat="44.47467" lon="-0.19419">
        <ele>92.9</ele>
      </trkpt>
      <trkpt lat="44.47476" lon="-0.19396">
        <ele>95.1</ele>
      </trkpt>
      <trkpt lat="44.47486" lon="-0.19377">
        <ele>96.5</ele>
      </trkpt>
      <trkpt lat="44.47521" lon="-0.1936">
        <ele>98.7</ele>
      </trkpt>
      <trkpt lat="44.47581" lon="-0.19346">
        <ele>102.7</ele>
      </trkpt>
      <trkpt lat="44.47657" lon="-0.19339">
        <ele>107.3</ele>
      </trkpt>
      <trkpt lat="44.47709" lon="-0.19337">
        <ele>109</ele>
      </trkpt>
      <trkpt lat="44.47772" lon="-0.19346">
        <ele>109</ele>
      </trkpt>
      <trkpt lat="44.47812" lon="-0.19356">
        <ele>109</ele>
      </trkpt>
      <trkpt lat="44.47789" lon="-0.19265">
        <ele>109</ele>
      </trkpt>
      <trkpt lat="44.47766" lon="-0.19177">
        <ele>109.2</ele>
      </trkpt>
      <trkpt lat="44.47752" lon="-0.19119">
        <ele>109</ele>
      </trkpt>
      <trkpt lat="44.47753" lon="-0.19097">
        <ele>108.5</ele>
      </trkpt>
      <trkpt lat="44.47756" lon="-0.1907">
        <ele>108</ele>
      </trkpt>
      <trkpt lat="44.47762" lon="-0.1901">
        <ele>107.4</ele>
      </trkpt>
      <trkpt lat="44.47763" lon="-0.18965">
        <ele>106.7</ele>
      </trkpt>
      <trkpt lat="44.4776" lon="-0.18915">
        <ele>105.6</ele>
      </trkpt>
      <trkpt lat="44.47755" lon="-0.18875">
        <ele>104.5</ele>
      </trkpt>
      <trkpt lat="44.47747" lon="-0.18825">
        <ele>104.1</ele>
      </trkpt>
      <trkpt lat="44.47741" lon="-0.18731">
        <ele>103.3</ele>
      </trkpt>
      <trkpt lat="44.47736" lon="-0.18648">
        <ele>101.3</ele>
      </trkpt>
      <trkpt lat="44.47728" lon="-0.18579">
        <ele>99</ele>
      </trkpt>
      <trkpt lat="44.4772" lon="-0.18542">
        <ele>98.6</ele>
      </trkpt>
      <trkpt lat="44.47713" lon="-0.18514">
        <ele>97.8</ele>
      </trkpt>
      <trkpt lat="44.47706" lon="-0.18494">
        <ele>97.4</ele>
      </trkpt>
      <trkpt lat="44.47686" lon="-0.18438">
        <ele>95.8</ele>
      </trkpt>
      <trkpt lat="44.47666" lon="-0.18402">
        <ele>94.5</ele>
      </trkpt>
      <trkpt lat="44.47651" lon="-0.18354">
        <ele>93</ele>
      </trkpt>
      <trkpt lat="44.47632" lon="-0.18272">
        <ele>91.4</ele>
      </trkpt>
      <trkpt lat="44.47622" lon="-0.18198">
        <ele>89.4</ele>
      </trkpt>
      <trkpt lat="44.47613" lon="-0.18134">
        <ele>87.5</ele>
      </trkpt>
      <trkpt lat="44.47612" lon="-0.18082">
        <ele>83.8</ele>
      </trkpt>
      <trkpt lat="44.47613" lon="-0.18024">
        <ele>79.6</ele>
      </trkpt>
      <trkpt lat="44.47614" lon="-0.17949">
        <ele>76.7</ele>
      </trkpt>
      <trkpt lat="44.47614" lon="-0.17881">
        <ele>75.6</ele>
      </trkpt>
      <trkpt lat="44.47611" lon="-0.17817">
        <ele>71.8</ele>
      </trkpt>
      <trkpt lat="44.47608" lon="-0.17769">
        <ele>70</ele>
      </trkpt>
      <trkpt lat="44.47593" lon="-0.17705">
        <ele>68.3</ele>
      </trkpt>
      <trkpt lat="44.4759" lon="-0.17646">
        <ele>66</ele>
      </trkpt>
      <trkpt lat="44.47598" lon="-0.17591">
        <ele>61.3</ele>
      </trkpt>
      <trkpt lat="44.476" lon="-0.17541">
        <ele>51.2</ele>
      </trkpt>
      <trkpt lat="44.47635" lon="-0.17564">
        <ele>51.7</ele>
      </trkpt>
      <trkpt lat="44.47671" lon="-0.17581">
        <ele>49.6</ele>
      </trkpt>
      <trkpt lat="44.47703" lon="-0.17607">
        <ele>49.2</ele>
      </trkpt>
      <trkpt lat="44.47727" lon="-0.17633">
        <ele>48</ele>
      </trkpt>
      <trkpt lat="44.47746" lon="-0.17652">
        <ele>48.1</ele>
      </trkpt>
      <trkpt lat="44.47765" lon="-0.17662">
        <ele>48</ele>
      </trkpt>
      <trkpt lat="44.47804" lon="-0.1762">
        <ele>49.6</ele>
      </trkpt>
      <trkpt lat="44.47789" lon="-0.17584">
        <ele>49.6</ele>
      </trkpt>
      <trkpt lat="44.47767" lon="-0.1756">
        <ele>48.5</ele>
      </trkpt>
      <trkpt lat="44.47751" lon="-0.17517">
        <ele>48.5</ele>
      </trkpt>
      <trkpt lat="44.47735" lon="-0.17469">
        <ele>49.4</ele>
      </trkpt>
      <trkpt lat="44.47714" lon="-0.17449">
        <ele>48</ele>
      </trkpt>
      <trkpt lat="44.4769" lon="-0.17405">
        <ele>48.4</ele>
      </trkpt>
      <trkpt lat="44.47674" lon="-0.17359">
        <ele>49.2</ele>
      </trkpt>
      <trkpt lat="44.47673" lon="-0.17307">
        <ele>49.5</ele>
      </trkpt>
      <trkpt lat="44.47671" lon="-0.17244">
        <ele>49</ele>
      </trkpt>
      <trkpt lat="44.47672" lon="-0.17192">
        <ele>49.4</ele>
      </trkpt>
      <trkpt lat="44.47685" lon="-0.17193">
        <ele>50.3</ele>
      </trkpt>
      <trkpt lat="44.47695" lon="-0.17187">
        <ele>51.2</ele>
      </trkpt>
      <trkpt lat="44.4771" lon="-0.17159">
        <ele>52</ele>
      </trkpt>
      <trkpt lat="44.47728" lon="-0.17113">
        <ele>55</ele>
      </trkpt>
      <trkpt lat="44.47746" lon="-0.17065">
        <ele>56.9</ele>
      </trkpt>
      <trkpt lat="44.47761" lon="-0.17019">
        <ele>58.9</ele>
      </trkpt>
      <trkpt lat="44.47775" lon="-0.16989">
        <ele>60.6</ele>
      </trkpt>
      <trkpt lat="44.47792" lon="-0.16966">
        <ele>62.8</ele>
      </trkpt>
      <trkpt lat="44.47814" lon="-0.1696">
        <ele>66.9</ele>
      </trkpt>
      <trkpt lat="44.47829" lon="-0.16963">
        <ele>69.4</ele>
      </trkpt>
      <trkpt lat="44.47853" lon="-0.16973">
        <ele>72.9</ele>
      </trkpt>
      <trkpt lat="44.47878" lon="-0.16978">
        <ele>76.1</ele>
      </trkpt>
      <trkpt lat="44.47895" lon="-0.16976">
        <ele>77.9</ele>
      </trkpt>
      <trkpt lat="44.47938" lon="-0.16945">
        <ele>82.1</ele>
      </trkpt>
      <trkpt lat="44.47973" lon="-0.1692">
        <ele>83.8</ele>
      </trkpt>
      <trkpt lat="44.48056" lon="-0.16867">
        <ele>86.2</ele>
      </trkpt>
      <trkpt lat="44.48108" lon="-0.16985">
        <ele>93.9</ele>
      </trkpt>
      <trkpt lat="44.4814" lon="-0.17049">
        <ele>96.5</ele>
      </trkpt>
      <trkpt lat="44.48169" lon="-0.17093">
        <ele>97.3</ele>
      </trkpt>
      <trkpt lat="44.4818" lon="-0.17122">
        <ele>97.9</ele>
      </trkpt>
      <trkpt lat="44.48202" lon="-0.17192">
        <ele>99.6</ele>
      </trkpt>
      <trkpt lat="44.48217" lon="-0.17248">
        <ele>101.3</ele>
      </trkpt>
      <trkpt lat="44.48238" lon="-0.17311">
        <ele>102</ele>
      </trkpt>
      <trkpt lat="44.48262" lon="-0.17362">
        <ele>102.2</ele>
      </trkpt>
      <trkpt lat="44.48307" lon="-0.17427">
        <ele>103</ele>
      </trkpt>
      <trkpt lat="44.4835" lon="-0.17484">
        <ele>103.8</ele>
      </trkpt>
      <trkpt lat="44.48403" lon="-0.17387">
        <ele>98.9</ele>
      </trkpt>
      <trkpt lat="44.48432" lon="-0.17341">
        <ele>95</ele>
      </trkpt>
      <trkpt lat="44.4847" lon="-0.17279">
        <ele>90</ele>
      </trkpt>
      <trkpt lat="44.485" lon="-0.17246">
        <ele>86.9</ele>
      </trkpt>
      <trkpt lat="44.48526" lon="-0.17214">
        <ele>83.9</ele>
      </trkpt>
      <trkpt lat="44.48551" lon="-0.1718">
        <ele>80.9</ele>
      </trkpt>
      <trkpt lat="44.48573" lon="-0.17138">
        <ele>77.4</ele>
      </trkpt>
      <trkpt lat="44.4859" lon="-0.17101">
        <ele>74.9</ele>
      </trkpt>
      <trkpt lat="44.48598" lon="-0.17071">
        <ele>73.3</ele>
      </trkpt>
      <trkpt lat="44.48603" lon="-0.17026">
        <ele>71.5</ele>
      </trkpt>
      <trkpt lat="44.486" lon="-0.16958">
        <ele>67.5</ele>
      </trkpt>
      <trkpt lat="44.4859" lon="-0.16901">
        <ele>65.6</ele>
      </trkpt>
      <trkpt lat="44.4857" lon="-0.16822">
        <ele>64.3</ele>
      </trkpt>
      <trkpt lat="44.48556" lon="-0.16752">
        <ele>62</ele>
      </trkpt>
      <trkpt lat="44.48551" lon="-0.16692">
        <ele>60.9</ele>
      </trkpt>
      <trkpt lat="44.48552" lon="-0.1662">
        <ele>59.3</ele>
      </trkpt>
      <trkpt lat="44.48548" lon="-0.16562">
        <ele>58.5</ele>
      </trkpt>
      <trkpt lat="44.48544" lon="-0.16526">
        <ele>58.1</ele>
      </trkpt>
      <trkpt lat="44.48531" lon="-0.16503">
        <ele>56.5</ele>
      </trkpt>
      <trkpt lat="44.48509" lon="-0.16474">
        <ele>54.7</ele>
      </trkpt>
      <trkpt lat="44.48491" lon="-0.16438">
        <ele>53.2</ele>
      </trkpt>
      <trkpt lat="44.48483" lon="-0.16407">
        <ele>52.1</ele>
      </trkpt>
      <trkpt lat="44.48482" lon="-0.16372">
        <ele>50.9</ele>
      </trkpt>
      <trkpt lat="44.48486" lon="-0.16333">
        <ele>50</ele>
      </trkpt>
      <trkpt lat="44.485" lon="-0.16287">
        <ele>47.7</ele>
      </trkpt>
      <trkpt lat="44.48505" lon="-0.16248">
        <ele>47.1</ele>
      </trkpt>
      <trkpt lat="44.48527" lon="-0.1628">
        <ele>49.2</ele>
      </trkpt>
      <trkpt lat="44.4855" lon="-0.16302">
        <ele>50.8</ele>
      </trkpt>
      <trkpt lat="44.48572" lon="-0.16312">
        <ele>51.7</ele>
      </trkpt>
      <trkpt lat="44.48605" lon="-0.16314">
        <ele>51.5</ele>
      </trkpt>
      <trkpt lat="44.48633" lon="-0.16306">
        <ele>51</ele>
      </trkpt>
      <trkpt lat="44.48653" lon="-0.16292">
        <ele>49.8</ele>
      </trkpt>
      <trkpt lat="44.48672" lon="-0.16276">
        <ele>48.5</ele>
      </trkpt>
      <trkpt lat="44.48692" lon="-0.16268">
        <ele>46.8</ele>
      </trkpt>
      <trkpt lat="44.48788" lon="-0.16242">
        <ele>40.5</ele>
      </trkpt>
      <trkpt lat="44.48873" lon="-0.16225">
        <ele>35</ele>
      </trkpt>
      <trkpt lat="44.48896" lon="-0.16222">
        <ele>35</ele>
      </trkpt>
      <trkpt lat="44.48943" lon="-0.16216">
        <ele>36.1</ele>
      </trkpt>
      <trkpt lat="44.48964" lon="-0.16221">
        <ele>38.2</ele>
      </trkpt>
      <trkpt lat="44.48979" lon="-0.16245">
        <ele>39.3</ele>
      </trkpt>
      <trkpt lat="44.49002" lon="-0.1632">
        <ele>44.2</ele>
      </trkpt>
      <trkpt lat="44.4902" lon="-0.16406">
        <ele>47.7</ele>
      </trkpt>
      <trkpt lat="44.49049" lon="-0.16511">
        <ele>51.6</ele>
      </trkpt>
      <trkpt lat="44.49061" lon="-0.16545">
        <ele>52.2</ele>
      </trkpt>
      <trkpt lat="44.49067" lon="-0.16557">
        <ele>52.3</ele>
      </trkpt>
      <trkpt lat="44.49076" lon="-0.16568">
        <ele>52.8</ele>
      </trkpt>
      <trkpt lat="44.49093" lon="-0.16566">
        <ele>53.5</ele>
      </trkpt>
      <trkpt lat="44.4915" lon="-0.16546">
        <ele>52.7</ele>
      </trkpt>
      <trkpt lat="44.49215" lon="-0.16525">
        <ele>51</ele>
      </trkpt>
      <trkpt lat="44.49284" lon="-0.16502">
        <ele>50.8</ele>
      </trkpt>
      <trkpt lat="44.49315" lon="-0.16493">
        <ele>49.4</ele>
      </trkpt>
      <trkpt lat="44.49354" lon="-0.16487">
        <ele>48.2</ele>
      </trkpt>
      <trkpt lat="44.49407" lon="-0.16485">
        <ele>47.5</ele>
      </trkpt>
      <trkpt lat="44.49437" lon="-0.16487">
        <ele>47.2</ele>
      </trkpt>
      <trkpt lat="44.49504" lon="-0.16506">
        <ele>45.9</ele>
      </trkpt>
      <trkpt lat="44.49552" lon="-0.1652">
        <ele>44.7</ele>
      </trkpt>
      <trkpt lat="44.49596" lon="-0.16531">
        <ele>45.6</ele>
      </trkpt>
      <trkpt lat="44.49649" lon="-0.16546">
        <ele>46.7</ele>
      </trkpt>
      <trkpt lat="44.49715" lon="-0.1656">
        <ele>46.5</ele>
      </trkpt>
      <trkpt lat="44.49738" lon="-0.16562">
        <ele>46.4</ele>
      </trkpt>
      <trkpt lat="44.4976" lon="-0.1656">
        <ele>46.6</ele>
      </trkpt>
      <trkpt lat="44.49779" lon="-0.16554">
        <ele>47</ele>
      </trkpt>
      <trkpt lat="44.49804" lon="-0.16538">
        <ele>46.7</ele>
      </trkpt>
      <trkpt lat="44.49827" lon="-0.1653">
        <ele>46.2</ele>
      </trkpt>
      <trkpt lat="44.49877" lon="-0.1652">
        <ele>44.3</ele>
      </trkpt>
      <trkpt lat="44.49874" lon="-0.16432">
        <ele>43.4</ele>
      </trkpt>
      <trkpt lat="44.49874" lon="-0.16348">
        <ele>41.8</ele>
      </trkpt>
      <trkpt lat="44.4988" lon="-0.16239">
        <ele>42</ele>
      </trkpt>
      <trkpt lat="44.49888" lon="-0.1613">
        <ele>40.7</ele>
      </trkpt>
      <trkpt lat="44.49897" lon="-0.16049">
        <ele>38.9</ele>
      </trkpt>
      <trkpt lat="44.49899" lon="-0.15979">
        <ele>36.9</ele>
      </trkpt>
      <trkpt lat="44.499" lon="-0.15917">
        <ele>33.6</ele>
      </trkpt>
      <trkpt lat="44.499" lon="-0.15837">
        <ele>28.8</ele>
      </trkpt>
      <trkpt lat="44.49937" lon="-0.15861">
        <ele>28.5</ele>
      </trkpt>
      <trkpt lat="44.49963" lon="-0.15882">
        <ele>28.8</ele>
      </trkpt>
      <trkpt lat="44.49986" lon="-0.15902">
        <ele>28.7</ele>
      </trkpt>
      <trkpt lat="44.50001" lon="-0.15901">
        <ele>27.9</ele>
      </trkpt>
      <trkpt lat="44.50009" lon="-0.15878">
        <ele>27.1</ele>
      </trkpt>
      <trkpt lat="44.50017" lon="-0.15832">
        <ele>27.6</ele>
      </trkpt>
      <trkpt lat="44.50034" lon="-0.15785">
        <ele>28.3</ele>
      </trkpt>
      <trkpt lat="44.50057" lon="-0.1574">
        <ele>31.8</ele>
      </trkpt>
      <trkpt lat="44.50077" lon="-0.15696">
        <ele>36.8</ele>
      </trkpt>
      <trkpt lat="44.50097" lon="-0.15655">
        <ele>42.7</ele>
      </trkpt>
      <trkpt lat="44.50118" lon="-0.15601">
        <ele>47.1</ele>
      </trkpt>
      <trkpt lat="44.50118" lon="-0.15581">
        <ele>49.8</ele>
      </trkpt>
      <trkpt lat="44.50105" lon="-0.15572">
        <ele>52.1</ele>
      </trkpt>
      <trkpt lat="44.50064" lon="-0.15564">
        <ele>53</ele>
      </trkpt>
      <trkpt lat="44.50024" lon="-0.15546">
        <ele>54.4</ele>
      </trkpt>
      <trkpt lat="44.5001" lon="-0.15534">
        <ele>55.6</ele>
      </trkpt>
      <trkpt lat="44.49999" lon="-0.15516">
        <ele>57.3</ele>
      </trkpt>
      <trkpt lat="44.49972" lon="-0.15475">
        <ele>60.7</ele>
      </trkpt>
      <trkpt lat="44.49945" lon="-0.15449">
        <ele>63.6</ele>
      </trkpt>
      <trkpt lat="44.49937" lon="-0.15437">
        <ele>65.8</ele>
      </trkpt>
      <trkpt lat="44.49922" lon="-0.15421">
        <ele>69.7</ele>
      </trkpt>
      <trkpt lat="44.49897" lon="-0.15416">
        <ele>71.1</ele>
      </trkpt>
      <trkpt lat="44.49873" lon="-0.15402">
        <ele>72.1</ele>
      </trkpt>
      <trkpt lat="44.49853" lon="-0.15351">
        <ele>76.3</ele>
      </trkpt>
      <trkpt lat="44.49842" lon="-0.15326">
        <ele>79.1</ele>
      </trkpt>
      <trkpt lat="44.49842" lon="-0.15295">
        <ele>83.2</ele>
      </trkpt>
      <trkpt lat="44.49847" lon="-0.15272">
        <ele>86.6</ele>
      </trkpt>
      <trkpt lat="44.49851" lon="-0.1525">
        <ele>88.5</ele>
      </trkpt>
      <trkpt lat="44.49868" lon="-0.15227">
        <ele>92.8</ele>
      </trkpt>
      <trkpt lat="44.49863" lon="-0.15179">
        <ele>93.7</ele>
      </trkpt>
      <trkpt lat="44.49855" lon="-0.15153">
        <ele>93.6</ele>
      </trkpt>
      <trkpt lat="44.49846" lon="-0.15133">
        <ele>93.5</ele>
      </trkpt>
      <trkpt lat="44.4981" lon="-0.15104">
        <ele>92.4</ele>
      </trkpt>
      <trkpt lat="44.49787" lon="-0.15094">
        <ele>92.5</ele>
      </trkpt>
      <trkpt lat="44.49752" lon="-0.15091">
        <ele>93</ele>
      </trkpt>
      <trkpt lat="44.49735" lon="-0.15091">
        <ele>93.5</ele>
      </trkpt>
      <trkpt lat="44.49695" lon="-0.15085">
        <ele>93.9</ele>
      </trkpt>
      <trkpt lat="44.49681" lon="-0.15081">
        <ele>95.1</ele>
      </trkpt>
      <trkpt lat="44.49656" lon="-0.15064">
        <ele>97.7</ele>
      </trkpt>
      <trkpt lat="44.49648" lon="-0.15053">
        <ele>99.1</ele>
      </trkpt>
      <trkpt lat="44.49639" lon="-0.15031">
        <ele>100</ele>
      </trkpt>
      <trkpt lat="44.49633" lon="-0.14996">
        <ele>100</ele>
      </trkpt>
      <trkpt lat="44.49586" lon="-0.14785">
        <ele>101.8</ele>
      </trkpt>
      <trkpt lat="44.49578" lon="-0.14743">
        <ele>102</ele>
      </trkpt>
      <trkpt lat="44.49584" lon="-0.14714">
        <ele>102</ele>
      </trkpt>
      <trkpt lat="44.4959" lon="-0.14671">
        <ele>102</ele>
      </trkpt>
      <trkpt lat="44.4959" lon="-0.14597">
        <ele>103</ele>
      </trkpt>
      <trkpt lat="44.49589" lon="-0.14535">
        <ele>103.1</ele>
      </trkpt>
      <trkpt lat="44.49585" lon="-0.14445">
        <ele>104</ele>
      </trkpt>
      <trkpt lat="44.49643" lon="-0.14419">
        <ele>103</ele>
      </trkpt>
      <trkpt lat="44.49698" lon="-0.14394">
        <ele>102.9</ele>
      </trkpt>
      <trkpt lat="44.49694" lon="-0.14315">
        <ele>102</ele>
      </trkpt>
      <trkpt lat="44.49689" lon="-0.14221">
        <ele>102.2</ele>
      </trkpt>
      <trkpt lat="44.49688" lon="-0.14195">
        <ele>102</ele>
      </trkpt>
      <trkpt lat="44.49686" lon="-0.14142">
        <ele>101.3</ele>
      </trkpt>
      <trkpt lat="44.49698" lon="-0.14054">
        <ele>101</ele>
      </trkpt>
      <trkpt lat="44.49703" lon="-0.13989">
        <ele>100</ele>
      </trkpt>
      <trkpt lat="44.49702" lon="-0.13966">
        <ele>99.8</ele>
      </trkpt>
      <trkpt lat="44.49696" lon="-0.13936">
        <ele>99</ele>
      </trkpt>
      <trkpt lat="44.49687" lon="-0.13881">
        <ele>98.4</ele>
      </trkpt>
      <trkpt lat="44.49675" lon="-0.13746">
        <ele>95.9</ele>
      </trkpt>
      <trkpt lat="44.49677" lon="-0.13671">
        <ele>94.1</ele>
      </trkpt>
      <trkpt lat="44.49675" lon="-0.13585">
        <ele>92</ele>
      </trkpt>
      <trkpt lat="44.49679" lon="-0.13524">
        <ele>91.4</ele>
      </trkpt>
      <trkpt lat="44.49686" lon="-0.13458">
        <ele>89.5</ele>
      </trkpt>
      <trkpt lat="44.49693" lon="-0.13391">
        <ele>88.1</ele>
      </trkpt>
      <trkpt lat="44.49688" lon="-0.13349">
        <ele>86.8</ele>
      </trkpt>
      <trkpt lat="44.49683" lon="-0.13309">
        <ele>85.5</ele>
      </trkpt>
      <trkpt lat="44.49679" lon="-0.13262">
        <ele>82.9</ele>
      </trkpt>
      <trkpt lat="44.49672" lon="-0.13218">
        <ele>80.1</ele>
      </trkpt>
      <trkpt lat="44.49667" lon="-0.13185">
        <ele>79</ele>
      </trkpt>
      <trkpt lat="44.49659" lon="-0.13157">
        <ele>79.1</ele>
      </trkpt>
      <trkpt lat="44.49642" lon="-0.13129">
        <ele>81.9</ele>
      </trkpt>
      <trkpt lat="44.49614" lon="-0.13079">
        <ele>83.6</ele>
      </trkpt>
      <trkpt lat="44.49571" lon="-0.13013">
        <ele>84.8</ele>
      </trkpt>
      <trkpt lat="44.49514" lon="-0.1295">
        <ele>87.2</ele>
      </trkpt>
      <trkpt lat="44.49462" lon="-0.12897">
        <ele>89.8</ele>
      </trkpt>
      <trkpt lat="44.49448" lon="-0.12875">
        <ele>90.7</ele>
      </trkpt>
      <trkpt lat="44.4942" lon="-0.12854">
        <ele>92.8</ele>
      </trkpt>
      <trkpt lat="44.49389" lon="-0.12853">
        <ele>94.7</ele>
      </trkpt>
      <trkpt lat="44.49357" lon="-0.12867">
        <ele>98.6</ele>
      </trkpt>
      <trkpt lat="44.4934" lon="-0.12862">
        <ele>100.2</ele>
      </trkpt>
      <trkpt lat="44.49326" lon="-0.1285">
        <ele>100.9</ele>
      </trkpt>
      <trkpt lat="44.49298" lon="-0.12807">
        <ele>101.3</ele>
      </trkpt>
      <trkpt lat="44.4928" lon="-0.12774">
        <ele>101.7</ele>
      </trkpt>
      <trkpt lat="44.49267" lon="-0.12731">
        <ele>101.1</ele>
      </trkpt>
      <trkpt lat="44.49242" lon="-0.12654">
        <ele>100.5</ele>
      </trkpt>
      <trkpt lat="44.4923" lon="-0.12604">
        <ele>98.9</ele>
      </trkpt>
      <trkpt lat="44.49216" lon="-0.12547">
        <ele>98.2</ele>
      </trkpt>
      <trkpt lat="44.49202" lon="-0.12519">
        <ele>98.2</ele>
      </trkpt>
      <trkpt lat="44.49196" lon="-0.12502">
        <ele>98</ele>
      </trkpt>
      <trkpt lat="44.49198" lon="-0.12481">
        <ele>97.2</ele>
      </trkpt>
      <trkpt lat="44.49201" lon="-0.12462">
        <ele>96</ele>
      </trkpt>
      <trkpt lat="44.49192" lon="-0.12447">
        <ele>95.4</ele>
      </trkpt>
      <trkpt lat="44.49176" lon="-0.12427">
        <ele>95.9</ele>
      </trkpt>
      <trkpt lat="44.49183" lon="-0.12399">
        <ele>93.9</ele>
      </trkpt>
      <trkpt lat="44.49183" lon="-0.12384">
        <ele>93.3</ele>
      </trkpt>
      <trkpt lat="44.49171" lon="-0.12352">
        <ele>93</ele>
      </trkpt>
      <trkpt lat="44.49146" lon="-0.12292">
        <ele>92.8</ele>
      </trkpt>
      <trkpt lat="44.49126" lon="-0.12224">
        <ele>91.5</ele>
      </trkpt>
      <trkpt lat="44.49122" lon="-0.12196">
        <ele>91.3</ele>
      </trkpt>
      <trkpt lat="44.49124" lon="-0.12171">
        <ele>90.3</ele>
      </trkpt>
      <trkpt lat="44.49132" lon="-0.12157">
        <ele>89.8</ele>
      </trkpt>
      <trkpt lat="44.4917" lon="-0.12151">
        <ele>86.7</ele>
      </trkpt>
      <trkpt lat="44.492" lon="-0.12145">
        <ele>84.2</ele>
      </trkpt>
      <trkpt lat="44.492" lon="-0.12145">
        <ele>84.2</ele>
      </trkpt>
      <trkpt lat="44.49234" lon="-0.12142">
        <ele>84.6</ele>
      </trkpt>
      <trkpt lat="44.49269" lon="-0.12147">
        <ele>86.1</ele>
      </trkpt>
      <trkpt lat="44.49299" lon="-0.1214">
        <ele>86</ele>
      </trkpt>
      <trkpt lat="44.49327" lon="-0.12119">
        <ele>86.8</ele>
      </trkpt>
      <trkpt lat="44.49365" lon="-0.12097">
        <ele>88</ele>
      </trkpt>
      <trkpt lat="44.49409" lon="-0.1207">
        <ele>88.4</ele>
      </trkpt>
      <trkpt lat="44.49457" lon="-0.12054">
        <ele>89.4</ele>
      </trkpt>
      <trkpt lat="44.49515" lon="-0.12042">
        <ele>90.5</ele>
      </trkpt>
      <trkpt lat="44.49594" lon="-0.12032">
        <ele>90.8</ele>
      </trkpt>
      <trkpt lat="44.49629" lon="-0.12025">
        <ele>89.4</ele>
      </trkpt>
      <trkpt lat="44.49669" lon="-0.12015">
        <ele>87</ele>
      </trkpt>
      <trkpt lat="44.4969" lon="-0.12002">
        <ele>86.1</ele>
      </trkpt>
      <trkpt lat="44.4972" lon="-0.11982">
        <ele>85.9</ele>
      </trkpt>
      <trkpt lat="44.49776" lon="-0.11944">
        <ele>88.8</ele>
      </trkpt>
      <trkpt lat="44.49796" lon="-0.11927">
        <ele>89.3</ele>
      </trkpt>
      <trkpt lat="44.49807" lon="-0.11919">
        <ele>89.2</ele>
      </trkpt>
      <trkpt lat="44.49828" lon="-0.11902">
        <ele>88.3</ele>
      </trkpt>
      <trkpt lat="44.49896" lon="-0.11863">
        <ele>84.9</ele>
      </trkpt>
      <trkpt lat="44.49887" lon="-0.11799">
        <ele>80.8</ele>
      </trkpt>
      <trkpt lat="44.49878" lon="-0.11722">
        <ele>78.4</ele>
      </trkpt>
      <trkpt lat="44.49857" lon="-0.11735">
        <ele>79.5</ele>
      </trkpt>
      <trkpt lat="44.49826" lon="-0.11741">
        <ele>80.4</ele>
      </trkpt>
      <trkpt lat="44.49815" lon="-0.11666">
        <ele>77.6</ele>
      </trkpt>
      <trkpt lat="44.49822" lon="-0.11616">
        <ele>76.1</ele>
      </trkpt>
      <trkpt lat="44.49836" lon="-0.1151">
        <ele>72.4</ele>
      </trkpt>
      <trkpt lat="44.49864" lon="-0.11265">
        <ele>64.1</ele>
      </trkpt>
      <trkpt lat="44.49893" lon="-0.11014">
        <ele>56.5</ele>
      </trkpt>
      <trkpt lat="44.49931" lon="-0.11027">
        <ele>56.9</ele>
      </trkpt>
      <trkpt lat="44.49952" lon="-0.11024">
        <ele>56.2</ele>
      </trkpt>
      <trkpt lat="44.49963" lon="-0.1101">
        <ele>54.4</ele>
      </trkpt>
      <trkpt lat="44.49973" lon="-0.10969">
        <ele>51.8</ele>
      </trkpt>
      <trkpt lat="44.49985" lon="-0.10918">
        <ele>49.2</ele>
      </trkpt>
      <trkpt lat="44.50034" lon="-0.10929">
        <ele>46.8</ele>
      </trkpt>
      <trkpt lat="44.5004" lon="-0.10913">
        <ele>45.9</ele>
      </trkpt>
      <trkpt lat="44.50053" lon="-0.10924">
        <ele>45.7</ele>
      </trkpt>
      <trkpt lat="44.50084" lon="-0.10969">
        <ele>46.8</ele>
      </trkpt>
      <trkpt lat="44.50109" lon="-0.10995">
        <ele>46</ele>
      </trkpt>
      <trkpt lat="44.50131" lon="-0.11014">
        <ele>45.1</ele>
      </trkpt>
      <trkpt lat="44.50172" lon="-0.11053">
        <ele>44.5</ele>
      </trkpt>
      <trkpt lat="44.50208" lon="-0.11083">
        <ele>44.5</ele>
      </trkpt>
      <trkpt lat="44.5026" lon="-0.11119">
        <ele>44.6</ele>
      </trkpt>
      <trkpt lat="44.50293" lon="-0.11137">
        <ele>44.4</ele>
      </trkpt>
      <trkpt lat="44.50321" lon="-0.11145">
        <ele>44.2</ele>
      </trkpt>
      <trkpt lat="44.50337" lon="-0.11145">
        <ele>44.4</ele>
      </trkpt>
      <trkpt lat="44.50395" lon="-0.11155">
        <ele>48.1</ele>
      </trkpt>
      <trkpt lat="44.50453" lon="-0.11165">
        <ele>47.9</ele>
      </trkpt>
      <trkpt lat="44.50481" lon="-0.1117">
        <ele>48.6</ele>
      </trkpt>
      <trkpt lat="44.50528" lon="-0.11181">
        <ele>50.5</ele>
      </trkpt>
      <trkpt lat="44.50566" lon="-0.11182">
        <ele>48.8</ele>
      </trkpt>
      <trkpt lat="44.50591" lon="-0.11179">
        <ele>47.8</ele>
      </trkpt>
      <trkpt lat="44.50615" lon="-0.11173">
        <ele>47.4</ele>
      </trkpt>
      <trkpt lat="44.5065" lon="-0.11163">
        <ele>48.1</ele>
      </trkpt>
      <trkpt lat="44.5067" lon="-0.1115">
        <ele>47.7</ele>
      </trkpt>
      <trkpt lat="44.50717" lon="-0.11131">
        <ele>45.8</ele>
      </trkpt>
      <trkpt lat="44.50736" lon="-0.11128">
        <ele>45.6</ele>
      </trkpt>
      <trkpt lat="44.50801" lon="-0.11125">
        <ele>47.3</ele>
      </trkpt>
      <trkpt lat="44.50819" lon="-0.11124">
        <ele>47.7</ele>
      </trkpt>
      <trkpt lat="44.50843" lon="-0.11132">
        <ele>47.7</ele>
      </trkpt>
      <trkpt lat="44.50863" lon="-0.1115">
        <ele>47</ele>
      </trkpt>
      <trkpt lat="44.50946" lon="-0.11225">
        <ele>46.2</ele>
      </trkpt>
      <trkpt lat="44.51007" lon="-0.11284">
        <ele>45.3</ele>
      </trkpt>
      <trkpt lat="44.5106" lon="-0.11324">
        <ele>45.1</ele>
      </trkpt>
      <trkpt lat="44.51103" lon="-0.11338">
        <ele>44.6</ele>
      </trkpt>
      <trkpt lat="44.51137" lon="-0.11342">
        <ele>44</ele>
      </trkpt>
      <trkpt lat="44.51217" lon="-0.11346">
        <ele>43.5</ele>
      </trkpt>
      <trkpt lat="44.51333" lon="-0.1135">
        <ele>43.6</ele>
      </trkpt>
      <trkpt lat="44.51398" lon="-0.11352">
        <ele>42.7</ele>
      </trkpt>
      <trkpt lat="44.51466" lon="-0.11346">
        <ele>41.7</ele>
      </trkpt>
      <trkpt lat="44.51502" lon="-0.11341">
        <ele>43.2</ele>
      </trkpt>
      <trkpt lat="44.51585" lon="-0.11316">
        <ele>40.8</ele>
      </trkpt>
      <trkpt lat="44.51595" lon="-0.11313">
        <ele>41</ele>
      </trkpt>
      <trkpt lat="44.51651" lon="-0.11298">
        <ele>43.3</ele>
      </trkpt>
      <trkpt lat="44.51686" lon="-0.11288">
        <ele>43.7</ele>
      </trkpt>
      <trkpt lat="44.5172" lon="-0.11271">
        <ele>41.3</ele>
      </trkpt>
      <trkpt lat="44.51751" lon="-0.11247">
        <ele>38.9</ele>
      </trkpt>
      <trkpt lat="44.51776" lon="-0.11224">
        <ele>39.1</ele>
      </trkpt>
      <trkpt lat="44.51798" lon="-0.11195">
        <ele>38.8</ele>
      </trkpt>
      <trkpt lat="44.51837" lon="-0.11152">
        <ele>38</ele>
      </trkpt>
      <trkpt lat="44.51849" lon="-0.11131">
        <ele>38</ele>
      </trkpt>
      <trkpt lat="44.51892" lon="-0.11077">
        <ele>38.9</ele>
      </trkpt>
      <trkpt lat="44.51919" lon="-0.11051">
        <ele>38.7</ele>
      </trkpt>
      <trkpt lat="44.51946" lon="-0.11032">
        <ele>37.8</ele>
      </trkpt>
      <trkpt lat="44.51968" lon="-0.11021">
        <ele>38.8</ele>
      </trkpt>
      <trkpt lat="44.51999" lon="-0.11008">
        <ele>39.5</ele>
      </trkpt>
      <trkpt lat="44.52027" lon="-0.10994">
        <ele>39.5</ele>
      </trkpt>
      <trkpt lat="44.52081" lon="-0.10949">
        <ele>40.2</ele>
      </trkpt>
      <trkpt lat="44.52096" lon="-0.10934">
        <ele>40.5</ele>
      </trkpt>
      <trkpt lat="44.52117" lon="-0.10913">
        <ele>40.5</ele>
      </trkpt>
      <trkpt lat="44.52135" lon="-0.10884">
        <ele>39.5</ele>
      </trkpt>
      <trkpt lat="44.52169" lon="-0.10814">
        <ele>42</ele>
      </trkpt>
      <trkpt lat="44.52182" lon="-0.10794">
        <ele>44.8</ele>
      </trkpt>
      <trkpt lat="44.52198" lon="-0.10781">
        <ele>47.9</ele>
      </trkpt>
      <trkpt lat="44.52226" lon="-0.10782">
        <ele>51</ele>
      </trkpt>
      <trkpt lat="44.5225" lon="-0.10796">
        <ele>50.7</ele>
      </trkpt>
      <trkpt lat="44.52249" lon="-0.10728">
        <ele>46.9</ele>
      </trkpt>
      <trkpt lat="44.52255" lon="-0.10693">
        <ele>42.4</ele>
      </trkpt>
      <trkpt lat="44.52303" lon="-0.10672">
        <ele>48.2</ele>
      </trkpt>
      <trkpt lat="44.52344" lon="-0.10653">
        <ele>49.9</ele>
      </trkpt>
      <trkpt lat="44.52376" lon="-0.10634">
        <ele>49.8</ele>
      </trkpt>
      <trkpt lat="44.5241" lon="-0.10611">
        <ele>48.3</ele>
      </trkpt>
      <trkpt lat="44.52434" lon="-0.10584">
        <ele>48.2</ele>
      </trkpt>
      <trkpt lat="44.52474" lon="-0.10526">
        <ele>48.2</ele>
      </trkpt>
      <trkpt lat="44.52441" lon="-0.10504">
        <ele>46.7</ele>
      </trkpt>
      <trkpt lat="44.5241" lon="-0.10482">
        <ele>43.4</ele>
      </trkpt>
      <trkpt lat="44.52382" lon="-0.10451">
        <ele>39.4</ele>
      </trkpt>
      <trkpt lat="44.52348" lon="-0.10427">
        <ele>35.4</ele>
      </trkpt>
      <trkpt lat="44.52293" lon="-0.10372">
        <ele>34</ele>
      </trkpt>
      <trkpt lat="44.52212" lon="-0.1027">
        <ele>37.4</ele>
      </trkpt>
      <trkpt lat="44.52199" lon="-0.10245">
        <ele>41.3</ele>
      </trkpt>
      <trkpt lat="44.52212" lon="-0.10199">
        <ele>44.5</ele>
      </trkpt>
      <trkpt lat="44.52227" lon="-0.1018">
        <ele>44</ele>
      </trkpt>
      <trkpt lat="44.52237" lon="-0.10148">
        <ele>46.1</ele>
      </trkpt>
      <trkpt lat="44.52219" lon="-0.1012">
        <ele>49.3</ele>
      </trkpt>
      <trkpt lat="44.52208" lon="-0.10083">
        <ele>50.5</ele>
      </trkpt>
      <trkpt lat="44.52193" lon="-0.10056">
        <ele>52.1</ele>
      </trkpt>
      <trkpt lat="44.52176" lon="-0.10033">
        <ele>53.6</ele>
      </trkpt>
      <trkpt lat="44.52159" lon="-0.1001">
        <ele>55</ele>
      </trkpt>
      <trkpt lat="44.5214" lon="-0.10006">
        <ele>55.9</ele>
      </trkpt>
      <trkpt lat="44.52126" lon="-0.10008">
        <ele>56.8</ele>
      </trkpt>
      <trkpt lat="44.52111" lon="-0.10024">
        <ele>57.1</ele>
      </trkpt>
      <trkpt lat="44.52075" lon="-0.10046">
        <ele>57.6</ele>
      </trkpt>
      <trkpt lat="44.52052" lon="-0.10033">
        <ele>58.1</ele>
      </trkpt>
      <trkpt lat="44.52036" lon="-0.10014">
        <ele>58.8</ele>
      </trkpt>
      <trkpt lat="44.52019" lon="-0.09991">
        <ele>59.5</ele>
      </trkpt>
      <trkpt lat="44.5184" lon="-0.09731">
        <ele>63.9</ele>
      </trkpt>
      <trkpt lat="44.51976" lon="-0.09615">
        <ele>63</ele>
      </trkpt>
      <trkpt lat="44.52077" lon="-0.09556">
        <ele>62.2</ele>
      </trkpt>
      <trkpt lat="44.52132" lon="-0.09513">
        <ele>60.8</ele>
      </trkpt>
      <trkpt lat="44.52178" lon="-0.09455">
        <ele>61.2</ele>
      </trkpt>
      <trkpt lat="44.52209" lon="-0.09408">
        <ele>60.5</ele>
      </trkpt>
      <trkpt lat="44.52241" lon="-0.09349">
        <ele>59.8</ele>
      </trkpt>
      <trkpt lat="44.52296" lon="-0.09267">
        <ele>58.7</ele>
      </trkpt>
      <trkpt lat="44.52337" lon="-0.09202">
        <ele>57.9</ele>
      </trkpt>
      <trkpt lat="44.52344" lon="-0.09189">
        <ele>57.7</ele>
      </trkpt>
      <trkpt lat="44.52353" lon="-0.09159">
        <ele>57.6</ele>
      </trkpt>
      <trkpt lat="44.52357" lon="-0.09117">
        <ele>58</ele>
      </trkpt>
      <trkpt lat="44.52368" lon="-0.09091">
        <ele>57.7</ele>
      </trkpt>
      <trkpt lat="44.52386" lon="-0.09062">
        <ele>57.9</ele>
      </trkpt>
      <trkpt lat="44.52402" lon="-0.09032">
        <ele>57.5</ele>
      </trkpt>
      <trkpt lat="44.52421" lon="-0.09013">
        <ele>56.9</ele>
      </trkpt>
      <trkpt lat="44.52446" lon="-0.08998">
        <ele>57</ele>
      </trkpt>
      <trkpt lat="44.52478" lon="-0.08975">
        <ele>56</ele>
      </trkpt>
      <trkpt lat="44.52513" lon="-0.0895">
        <ele>55.1</ele>
      </trkpt>
      <trkpt lat="44.5254" lon="-0.08925">
        <ele>54.9</ele>
      </trkpt>
      <trkpt lat="44.52593" lon="-0.08873">
        <ele>51.1</ele>
      </trkpt>
      <trkpt lat="44.52654" lon="-0.08809">
        <ele>54.9</ele>
      </trkpt>
      <trkpt lat="44.52725" lon="-0.08721">
        <ele>52.7</ele>
      </trkpt>
      <trkpt lat="44.52775" lon="-0.08654">
        <ele>49.7</ele>
      </trkpt>
      <trkpt lat="44.5281" lon="-0.08615">
        <ele>47.7</ele>
      </trkpt>
      <trkpt lat="44.52824" lon="-0.08609">
        <ele>46.5</ele>
      </trkpt>
      <trkpt lat="44.52853" lon="-0.08613">
        <ele>44</ele>
      </trkpt>
      <trkpt lat="44.52882" lon="-0.08587">
        <ele>39.5</ele>
      </trkpt>
      <trkpt lat="44.52918" lon="-0.08535">
        <ele>34</ele>
      </trkpt>
      <trkpt lat="44.5295" lon="-0.08548">
        <ele>33.5</ele>
      </trkpt>
      <trkpt lat="44.52984" lon="-0.08574">
        <ele>33.7</ele>
      </trkpt>
      <trkpt lat="44.53023" lon="-0.08599">
        <ele>33.8</ele>
      </trkpt>
      <trkpt lat="44.53081" lon="-0.08622">
        <ele>33.6</ele>
      </trkpt>
      <trkpt lat="44.53167" lon="-0.08639">
        <ele>35</ele>
      </trkpt>
      <trkpt lat="44.53227" lon="-0.08669">
        <ele>38</ele>
      </trkpt>
      <trkpt lat="44.53249" lon="-0.0869">
        <ele>42.8</ele>
      </trkpt>
      <trkpt lat="44.53277" lon="-0.08709">
        <ele>44</ele>
      </trkpt>
      <trkpt lat="44.53313" lon="-0.08722">
        <ele>40.2</ele>
      </trkpt>
      <trkpt lat="44.5336" lon="-0.08736">
        <ele>35.6</ele>
      </trkpt>
      <trkpt lat="44.534" lon="-0.08749">
        <ele>32.3</ele>
      </trkpt>
      <trkpt lat="44.53425" lon="-0.08764">
        <ele>30.9</ele>
      </trkpt>
      <trkpt lat="44.5348" lon="-0.08785">
        <ele>27.8</ele>
      </trkpt>
      <trkpt lat="44.53512" lon="-0.08787">
        <ele>28.4</ele>
      </trkpt>
      <trkpt lat="44.53568" lon="-0.08788">
        <ele>29.6</ele>
      </trkpt>
      <trkpt lat="44.53586" lon="-0.08792">
        <ele>28.5</ele>
      </trkpt>
      <trkpt lat="44.53607" lon="-0.08826">
        <ele>27.5</ele>
      </trkpt>
      <trkpt lat="44.5361" lon="-0.08857">
        <ele>29.8</ele>
      </trkpt>
      <trkpt lat="44.53626" lon="-0.08881">
        <ele>28.8</ele>
      </trkpt>
      <trkpt lat="44.53643" lon="-0.08892">
        <ele>29.6</ele>
      </trkpt>
      <trkpt lat="44.53664" lon="-0.08901">
        <ele>31.3</ele>
      </trkpt>
      <trkpt lat="44.53711" lon="-0.08909">
        <ele>32.4</ele>
      </trkpt>
      <trkpt lat="44.53726" lon="-0.08918">
        <ele>34</ele>
      </trkpt>
      <trkpt lat="44.53737" lon="-0.08927">
        <ele>34.6</ele>
      </trkpt>
      <trkpt lat="44.53746" lon="-0.08949">
        <ele>35.9</ele>
      </trkpt>
      <trkpt lat="44.53753" lon="-0.08971">
        <ele>37.5</ele>
      </trkpt>
      <trkpt lat="44.53763" lon="-0.08991">
        <ele>37.3</ele>
      </trkpt>
      <trkpt lat="44.53785" lon="-0.09016">
        <ele>36.3</ele>
      </trkpt>
      <trkpt lat="44.53804" lon="-0.09053">
        <ele>36.1</ele>
      </trkpt>
      <trkpt lat="44.53819" lon="-0.09088">
        <ele>37.2</ele>
      </trkpt>
      <trkpt lat="44.53835" lon="-0.09102">
        <ele>37.7</ele>
      </trkpt>
      <trkpt lat="44.5385" lon="-0.09112">
        <ele>38.6</ele>
      </trkpt>
      <trkpt lat="44.53897" lon="-0.09114">
        <ele>40.3</ele>
      </trkpt>
      <trkpt lat="44.5391" lon="-0.09123">
        <ele>40.7</ele>
      </trkpt>
      <trkpt lat="44.53918" lon="-0.09141">
        <ele>41</ele>
      </trkpt>
      <trkpt lat="44.53918" lon="-0.09168">
        <ele>41.1</ele>
      </trkpt>
      <trkpt lat="44.53924" lon="-0.09188">
        <ele>41.8</ele>
      </trkpt>
      <trkpt lat="44.53941" lon="-0.09191">
        <ele>42</ele>
      </trkpt>
      <trkpt lat="44.53959" lon="-0.09196">
        <ele>42</ele>
      </trkpt>
      <trkpt lat="44.53972" lon="-0.09207">
        <ele>42</ele>
      </trkpt>
      <trkpt lat="44.53993" lon="-0.09231">
        <ele>41.3</ele>
      </trkpt>
      <trkpt lat="44.54014" lon="-0.09239">
        <ele>40.3</ele>
      </trkpt>
      <trkpt lat="44.54041" lon="-0.09238">
        <ele>37.9</ele>
      </trkpt>
      <trkpt lat="44.54045" lon="-0.09305">
        <ele>39.2</ele>
      </trkpt>
      <trkpt lat="44.54046" lon="-0.09438">
        <ele>42.6</ele>
      </trkpt>
      <trkpt lat="44.5404" lon="-0.09499">
        <ele>44.6</ele>
      </trkpt>
      <trkpt lat="44.54029" lon="-0.09564">
        <ele>45</ele>
      </trkpt>
      <trkpt lat="44.54003" lon="-0.09695">
        <ele>46.1</ele>
      </trkpt>
      <trkpt lat="44.53967" lon="-0.09854">
        <ele>48.2</ele>
      </trkpt>
      <trkpt lat="44.53961" lon="-0.09889">
        <ele>48.4</ele>
      </trkpt>
      <trkpt lat="44.53959" lon="-0.09927">
        <ele>49</ele>
      </trkpt>
      <trkpt lat="44.53965" lon="-0.09968">
        <ele>49.2</ele>
      </trkpt>
      <trkpt lat="44.53973" lon="-0.10014">
        <ele>50</ele>
      </trkpt>
      <trkpt lat="44.53979" lon="-0.10067">
        <ele>50.1</ele>
      </trkpt>
      <trkpt lat="44.53995" lon="-0.10051">
        <ele>50.7</ele>
      </trkpt>
      <trkpt lat="44.5405" lon="-0.10004">
        <ele>50</ele>
      </trkpt>
      <trkpt lat="44.54108" lon="-0.09963">
        <ele>49.7</ele>
      </trkpt>
      <trkpt lat="44.5417" lon="-0.09929">
        <ele>48.9</ele>
      </trkpt>
      <trkpt lat="44.54215" lon="-0.09897">
        <ele>47.5</ele>
      </trkpt>
      <trkpt lat="44.54251" lon="-0.09858">
        <ele>46</ele>
      </trkpt>
      <trkpt lat="44.54278" lon="-0.09831">
        <ele>45.1</ele>
      </trkpt>
      <trkpt lat="44.54301" lon="-0.09836">
        <ele>44.1</ele>
      </trkpt>
      <trkpt lat="44.54319" lon="-0.09872">
        <ele>43.5</ele>
      </trkpt>
      <trkpt lat="44.54341" lon="-0.09918">
        <ele>43.3</ele>
      </trkpt>
      <trkpt lat="44.54355" lon="-0.09936">
        <ele>43.9</ele>
      </trkpt>
      <trkpt lat="44.54378" lon="-0.0995">
        <ele>45.2</ele>
      </trkpt>
      <trkpt lat="44.5441" lon="-0.09944">
        <ele>46.8</ele>
      </trkpt>
      <trkpt lat="44.54448" lon="-0.09933">
        <ele>47.4</ele>
      </trkpt>
      <trkpt lat="44.54517" lon="-0.09907">
        <ele>46.4</ele>
      </trkpt>
      <trkpt lat="44.54592" lon="-0.09871">
        <ele>46</ele>
      </trkpt>
      <trkpt lat="44.54739" lon="-0.09801">
        <ele>48</ele>
      </trkpt>
      <trkpt lat="44.54844" lon="-0.09744">
        <ele>47.6</ele>
      </trkpt>
      <trkpt lat="44.54893" lon="-0.09708">
        <ele>47.4</ele>
      </trkpt>
      <trkpt lat="44.54925" lon="-0.09691">
        <ele>46.9</ele>
      </trkpt>
      <trkpt lat="44.55014" lon="-0.09647">
        <ele>46.2</ele>
      </trkpt>
      <trkpt lat="44.55004" lon="-0.09503">
        <ele>45.1</ele>
      </trkpt>
      <trkpt lat="44.55165" lon="-0.09511">
        <ele>38.9</ele>
      </trkpt>
      <trkpt lat="44.55176" lon="-0.0945">
        <ele>36.1</ele>
      </trkpt>
      <trkpt lat="44.55198" lon="-0.09396">
        <ele>31.4</ele>
      </trkpt>
      <trkpt lat="44.55226" lon="-0.09363">
        <ele>26.7</ele>
      </trkpt>
      <trkpt lat="44.55255" lon="-0.0933">
        <ele>22.6</ele>
      </trkpt>
      <trkpt lat="44.55275" lon="-0.09315">
        <ele>20.8</ele>
      </trkpt>
      <trkpt lat="44.55313" lon="-0.09307">
        <ele>18.7</ele>
      </trkpt>
      <trkpt lat="44.55373" lon="-0.09292">
        <ele>16.6</ele>
      </trkpt>
      <trkpt lat="44.55377" lon="-0.09236">
        <ele>15.4</ele>
      </trkpt>
      <trkpt lat="44.55374" lon="-0.09184">
        <ele>15.5</ele>
      </trkpt>
      <trkpt lat="44.55364" lon="-0.0912">
        <ele>15.9</ele>
      </trkpt>
      <trkpt lat="44.55344" lon="-0.09057">
        <ele>15.6</ele>
      </trkpt>
      <trkpt lat="44.5533" lon="-0.09">
        <ele>16.1</ele>
      </trkpt>
      <trkpt lat="44.55323" lon="-0.08958">
        <ele>16.4</ele>
      </trkpt>
      <trkpt lat="44.55324" lon="-0.08906">
        <ele>17.2</ele>
      </trkpt>
      <trkpt lat="44.55396" lon="-0.08916">
        <ele>17.6</ele>
      </trkpt>
      <trkpt lat="44.55459" lon="-0.08924">
        <ele>17.1</ele>
      </trkpt>
      <trkpt lat="44.55501" lon="-0.08934">
        <ele>17.9</ele>
      </trkpt>
      <trkpt lat="44.5551" lon="-0.08933">
        <ele>17.1</ele>
      </trkpt>
      <trkpt lat="44.55529" lon="-0.0893">
        <ele>15.5</ele>
      </trkpt>
      <trkpt lat="44.5555" lon="-0.0894">
        <ele>15.2</ele>
      </trkpt>
      <trkpt lat="44.55561" lon="-0.08944">
        <ele>15</ele>
      </trkpt>
      <trkpt lat="44.55572" lon="-0.08952">
        <ele>14.9</ele>
      </trkpt>
      <trkpt lat="44.55582" lon="-0.08959">
        <ele>14.5</ele>
      </trkpt>
      <trkpt lat="44.55593" lon="-0.08966">
        <ele>14.2</ele>
      </trkpt>
      <trkpt lat="44.55602" lon="-0.0897">
        <ele>14.1</ele>
      </trkpt>
      <trkpt lat="44.55612" lon="-0.08973">
        <ele>14</ele>
      </trkpt>
      <trkpt lat="44.55634" lon="-0.08978">
        <ele>14</ele>
      </trkpt>
      <trkpt lat="44.55657" lon="-0.08982">
        <ele>14</ele>
      </trkpt>
      <trkpt lat="44.55668" lon="-0.08984">
        <ele>14</ele>
      </trkpt>
      <trkpt lat="44.55679" lon="-0.08983">
        <ele>14</ele>
      </trkpt>
      <trkpt lat="44.55702" lon="-0.08981">
        <ele>13.8</ele>
      </trkpt>
      <trkpt lat="44.55751" lon="-0.08971">
        <ele>13.1</ele>
      </trkpt>
      <trkpt lat="44.55761" lon="-0.08969">
        <ele>13.4</ele>
      </trkpt>
      <trkpt lat="44.5578" lon="-0.08967">
        <ele>13.7</ele>
      </trkpt>
      <trkpt lat="44.5579" lon="-0.08966">
        <ele>13.4</ele>
      </trkpt>
      <trkpt lat="44.55801" lon="-0.08965">
        <ele>13.1</ele>
      </trkpt>
      <trkpt lat="44.55824" lon="-0.08964">
        <ele>13.2</ele>
      </trkpt>
      <trkpt lat="44.55835" lon="-0.08963">
        <ele>13.3</ele>
      </trkpt>
      <trkpt lat="44.55868" lon="-0.08964">
        <ele>13.2</ele>
      </trkpt>
      <trkpt lat="44.55878" lon="-0.08964">
        <ele>13.1</ele>
      </trkpt>
      <trkpt lat="44.55889" lon="-0.08964">
        <ele>13</ele>
      </trkpt>
      <trkpt lat="44.559" lon="-0.08966">
        <ele>13.1</ele>
      </trkpt>
      <trkpt lat="44.55933" lon="-0.0897">
        <ele>13.1</ele>
      </trkpt>
      <trkpt lat="44.55954" lon="-0.08974">
        <ele>13.3</ele>
      </trkpt>
      <trkpt lat="44.55965" lon="-0.08975">
        <ele>13.7</ele>
      </trkpt>
      <trkpt lat="44.55977" lon="-0.08954">
        <ele>14</ele>
      </trkpt>
      <trkpt lat="44.55983" lon="-0.08943">
        <ele>14</ele>
      </trkpt>
      <trkpt lat="44.55992" lon="-0.08932">
        <ele>13.7</ele>
      </trkpt>
      <trkpt lat="44.56001" lon="-0.08921">
        <ele>13.2</ele>
      </trkpt>
      <trkpt lat="44.56011" lon="-0.08908">
        <ele>13.1</ele>
      </trkpt>
      <trkpt lat="44.5602" lon="-0.089">
        <ele>13.4</ele>
      </trkpt>
      <trkpt lat="44.56028" lon="-0.08892">
        <ele>13.9</ele>
      </trkpt>
      <trkpt lat="44.56036" lon="-0.08885">
        <ele>13.8</ele>
      </trkpt>
      <trkpt lat="44.56048" lon="-0.0887">
        <ele>14.3</ele>
      </trkpt>
      <trkpt lat="44.56052" lon="-0.08861">
        <ele>14.9</ele>
      </trkpt>
      <trkpt lat="44.56052" lon="-0.08846">
        <ele>13.8</ele>
      </trkpt>
      <trkpt lat="44.56052" lon="-0.08831">
        <ele>13.1</ele>
      </trkpt>
      <trkpt lat="44.56049" lon="-0.08806">
        <ele>13.5</ele>
      </trkpt>
      <trkpt lat="44.56045" lon="-0.08782">
        <ele>13</ele>
      </trkpt>
      <trkpt lat="44.5606" lon="-0.08773">
        <ele>13</ele>
      </trkpt>
      <trkpt lat="44.56074" lon="-0.08764">
        <ele>12.7</ele>
      </trkpt>
      <trkpt lat="44.56096" lon="-0.08747">
        <ele>12.4</ele>
      </trkpt>
      <trkpt lat="44.56118" lon="-0.08729">
        <ele>12.4</ele>
      </trkpt>
      <trkpt lat="44.56129" lon="-0.08711">
        <ele>12.7</ele>
      </trkpt>
      <trkpt lat="44.56143" lon="-0.08682">
        <ele>12.6</ele>
      </trkpt>
      <trkpt lat="44.56157" lon="-0.08653">
        <ele>12</ele>
      </trkpt>
      <trkpt lat="44.56166" lon="-0.0863">
        <ele>12</ele>
      </trkpt>
      <trkpt lat="44.56175" lon="-0.08607">
        <ele>12</ele>
      </trkpt>
      <trkpt lat="44.56185" lon="-0.08584">
        <ele>12</ele>
      </trkpt>
      <trkpt lat="44.56205" lon="-0.08537">
        <ele>12.1</ele>
      </trkpt>
      <trkpt lat="44.56212" lon="-0.08523">
        <ele>12</ele>
      </trkpt>
      <trkpt lat="44.56223" lon="-0.08502">
        <ele>12</ele>
      </trkpt>
      <trkpt lat="44.56244" lon="-0.0846">
        <ele>12</ele>
      </trkpt>
      <trkpt lat="44.56246" lon="-0.08441">
        <ele>12</ele>
      </trkpt>
      <trkpt lat="44.56241" lon="-0.08422">
        <ele>12</ele>
      </trkpt>
      <trkpt lat="44.56237" lon="-0.08403">
        <ele>12</ele>
      </trkpt>
      <trkpt lat="44.56226" lon="-0.08353">
        <ele>12</ele>
      </trkpt>
      <trkpt lat="44.5622" lon="-0.08328">
        <ele>12</ele>
      </trkpt>
      <trkpt lat="44.56215" lon="-0.08295">
        <ele>12</ele>
      </trkpt>
      <trkpt lat="44.5621" lon="-0.08263">
        <ele>12</ele>
      </trkpt>
      <trkpt lat="44.56211" lon="-0.08234">
        <ele>12.3</ele>
      </trkpt>
      <trkpt lat="44.56219" lon="-0.08221">
        <ele>12.8</ele>
      </trkpt>
      <trkpt lat="44.5623" lon="-0.08212">
        <ele>12.6</ele>
      </trkpt>
      <trkpt lat="44.56267" lon="-0.08187">
        <ele>12.3</ele>
      </trkpt>
      <trkpt lat="44.56285" lon="-0.08174">
        <ele>12</ele>
      </trkpt>
      <trkpt lat="44.56308" lon="-0.08165">
        <ele>12</ele>
      </trkpt>
      <trkpt lat="44.56331" lon="-0.08157">
        <ele>12</ele>
      </trkpt>
      <trkpt lat="44.56369" lon="-0.08144">
        <ele>12.6</ele>
      </trkpt>
      <trkpt lat="44.56388" lon="-0.08138">
        <ele>12.1</ele>
      </trkpt>
      <trkpt lat="44.56407" lon="-0.08133">
        <ele>12.2</ele>
      </trkpt>
      <trkpt lat="44.56427" lon="-0.08127">
        <ele>12.4</ele>
      </trkpt>
      <trkpt lat="44.56466" lon="-0.08116">
        <ele>12.2</ele>
      </trkpt>
      <trkpt lat="44.56505" lon="-0.08101">
        <ele>11.4</ele>
      </trkpt>
      <trkpt lat="44.56543" lon="-0.08085">
        <ele>11.4</ele>
      </trkpt>
      <trkpt lat="44.56561" lon="-0.08075">
        <ele>11</ele>
      </trkpt>
      <trkpt lat="44.56595" lon="-0.08055">
        <ele>11.4</ele>
      </trkpt>
      <trkpt lat="44.56606" lon="-0.08039">
        <ele>11.8</ele>
      </trkpt>
      <trkpt lat="44.56608" lon="-0.08019">
        <ele>11.9</ele>
      </trkpt>
      <trkpt lat="44.5661" lon="-0.0799">
        <ele>12</ele>
      </trkpt>
      <trkpt lat="44.56609" lon="-0.07956">
        <ele>12</ele>
      </trkpt>
      <trkpt lat="44.56607" lon="-0.07889">
        <ele>12</ele>
      </trkpt>
      <trkpt lat="44.56607" lon="-0.07706">
        <ele>12</ele>
      </trkpt>
      <trkpt lat="44.5661" lon="-0.07672">
        <ele>12</ele>
      </trkpt>
      <trkpt lat="44.56626" lon="-0.07613">
        <ele>12</ele>
      </trkpt>
      <trkpt lat="44.56641" lon="-0.07558">
        <ele>12.9</ele>
      </trkpt>
      <trkpt lat="44.56648" lon="-0.0753">
        <ele>12.7</ele>
      </trkpt>
      <trkpt lat="44.56658" lon="-0.07502">
        <ele>12.3</ele>
      </trkpt>
      <trkpt lat="44.56677" lon="-0.07447">
        <ele>12.6</ele>
      </trkpt>
      <trkpt lat="44.56713" lon="-0.07359">
        <ele>12.1</ele>
      </trkpt>
      <trkpt lat="44.56731" lon="-0.07324">
        <ele>12.5</ele>
      </trkpt>
      <trkpt lat="44.56744" lon="-0.07305">
        <ele>12</ele>
      </trkpt>
      <trkpt lat="44.56758" lon="-0.07286">
        <ele>12</ele>
      </trkpt>
      <trkpt lat="44.56796" lon="-0.07242">
        <ele>12</ele>
      </trkpt>
      <trkpt lat="44.56815" lon="-0.07225">
        <ele>12</ele>
      </trkpt>
      <trkpt lat="44.56834" lon="-0.07208">
        <ele>12</ele>
      </trkpt>
      <trkpt lat="44.56848" lon="-0.07193">
        <ele>12.1</ele>
      </trkpt>
      <trkpt lat="44.56877" lon="-0.07163">
        <ele>12.4</ele>
      </trkpt>
      <trkpt lat="44.56891" lon="-0.0714">
        <ele>11.9</ele>
      </trkpt>
      <trkpt lat="44.56919" lon="-0.07093">
        <ele>12</ele>
      </trkpt>
      <trkpt lat="44.56962" lon="-0.07021">
        <ele>12.1</ele>
      </trkpt>
      <trkpt lat="44.56993" lon="-0.06971">
        <ele>11.3</ele>
      </trkpt>
      <trkpt lat="44.57024" lon="-0.0692">
        <ele>12</ele>
      </trkpt>
      <trkpt lat="44.57044" lon="-0.0688">
        <ele>11.9</ele>
      </trkpt>
      <trkpt lat="44.57054" lon="-0.0686">
        <ele>12</ele>
      </trkpt>
      <trkpt lat="44.57065" lon="-0.06847">
        <ele>12.2</ele>
      </trkpt>
      <trkpt lat="44.57079" lon="-0.06843">
        <ele>12.5</ele>
      </trkpt>
      <trkpt lat="44.57092" lon="-0.0684">
        <ele>12.8</ele>
      </trkpt>
      <trkpt lat="44.57141" lon="-0.0683">
        <ele>12.9</ele>
      </trkpt>
      <trkpt lat="44.57166" lon="-0.06826">
        <ele>12.3</ele>
      </trkpt>
      <trkpt lat="44.5719" lon="-0.06821">
        <ele>12.9</ele>
      </trkpt>
      <trkpt lat="44.57214" lon="-0.06814">
        <ele>13</ele>
      </trkpt>
      <trkpt lat="44.57238" lon="-0.06807">
        <ele>13</ele>
      </trkpt>
      <trkpt lat="44.57261" lon="-0.068">
        <ele>13.1</ele>
      </trkpt>
      <trkpt lat="44.57265" lon="-0.06719">
        <ele>13</ele>
      </trkpt>
      <trkpt lat="44.57263" lon="-0.06696">
        <ele>13</ele>
      </trkpt>
      <trkpt lat="44.57262" lon="-0.06674">
        <ele>13</ele>
      </trkpt>
      <trkpt lat="44.57285" lon="-0.06671">
        <ele>13</ele>
      </trkpt>
      <trkpt lat="44.57307" lon="-0.06669">
        <ele>13.1</ele>
      </trkpt>
      <trkpt lat="44.57317" lon="-0.06655">
        <ele>13.4</ele>
      </trkpt>
      <trkpt lat="44.57327" lon="-0.06642">
        <ele>13.8</ele>
      </trkpt>
      <trkpt lat="44.57331" lon="-0.06605">
        <ele>13.7</ele>
      </trkpt>
      <trkpt lat="44.57333" lon="-0.06568">
        <ele>13</ele>
      </trkpt>
      <trkpt lat="44.57336" lon="-0.06548">
        <ele>13.2</ele>
      </trkpt>
      <trkpt lat="44.5734" lon="-0.06523">
        <ele>13.3</ele>
      </trkpt>
      <trkpt lat="44.5733" lon="-0.06495">
        <ele>12.3</ele>
      </trkpt>
      <trkpt lat="44.5732" lon="-0.06466">
        <ele>13.1</ele>
      </trkpt>
      <trkpt lat="44.573" lon="-0.06409">
        <ele>12.7</ele>
      </trkpt>
      <trkpt lat="44.5729" lon="-0.0638">
        <ele>13.1</ele>
      </trkpt>
      <trkpt lat="44.57308" lon="-0.06369">
        <ele>13.2</ele>
      </trkpt>
      <trkpt lat="44.57327" lon="-0.06357">
        <ele>13</ele>
      </trkpt>
      <trkpt lat="44.57364" lon="-0.06335">
        <ele>13</ele>
      </trkpt>
      <trkpt lat="44.57383" lon="-0.06323">
        <ele>13.3</ele>
      </trkpt>
      <trkpt lat="44.57396" lon="-0.0629">
        <ele>13.6</ele>
      </trkpt>
      <trkpt lat="44.57403" lon="-0.06267">
        <ele>13</ele>
      </trkpt>
      <trkpt lat="44.57406" lon="-0.06238">
        <ele>12.8</ele>
      </trkpt>
      <trkpt lat="44.57409" lon="-0.06205">
        <ele>12.4</ele>
      </trkpt>
      <trkpt lat="44.57415" lon="-0.06177">
        <ele>12</ele>
      </trkpt>
      <trkpt lat="44.57426" lon="-0.06121">
        <ele>12.8</ele>
      </trkpt>
      <trkpt lat="44.57432" lon="-0.06094">
        <ele>12.1</ele>
      </trkpt>
      <trkpt lat="44.57447" lon="-0.06025">
        <ele>13</ele>
      </trkpt>
      <trkpt lat="44.57454" lon="-0.05997">
        <ele>13.7</ele>
      </trkpt>
      <trkpt lat="44.57468" lon="-0.05942">
        <ele>14</ele>
      </trkpt>
      <trkpt lat="44.57475" lon="-0.05916">
        <ele>13.8</ele>
      </trkpt>
      <trkpt lat="44.57491" lon="-0.05864">
        <ele>13.3</ele>
      </trkpt>
      <trkpt lat="44.57507" lon="-0.05801">
        <ele>12.5</ele>
      </trkpt>
      <trkpt lat="44.57515" lon="-0.05769">
        <ele>13.6</ele>
      </trkpt>
      <trkpt lat="44.5752" lon="-0.05744">
        <ele>13.4</ele>
      </trkpt>
      <trkpt lat="44.5753" lon="-0.05693">
        <ele>12.1</ele>
      </trkpt>
      <trkpt lat="44.57536" lon="-0.0566">
        <ele>13.3</ele>
      </trkpt>
      <trkpt lat="44.57542" lon="-0.05626">
        <ele>13</ele>
      </trkpt>
      <trkpt lat="44.57553" lon="-0.05554">
        <ele>12.1</ele>
      </trkpt>
      <trkpt lat="44.57557" lon="-0.05526">
        <ele>13</ele>
      </trkpt>
      <trkpt lat="44.57565" lon="-0.05469">
        <ele>12.7</ele>
      </trkpt>
      <trkpt lat="44.57577" lon="-0.05389">
        <ele>13.2</ele>
      </trkpt>
      <trkpt lat="44.57583" lon="-0.05342">
        <ele>14.6</ele>
      </trkpt>
      <trkpt lat="44.57602" lon="-0.05351">
        <ele>13.5</ele>
      </trkpt>
      <trkpt lat="44.57621" lon="-0.05359">
        <ele>13.3</ele>
      </trkpt>
      <trkpt lat="44.5764" lon="-0.05367">
        <ele>13.7</ele>
      </trkpt>
      <trkpt lat="44.57653" lon="-0.05375">
        <ele>13.3</ele>
      </trkpt>
      <trkpt lat="44.57665" lon="-0.05382">
        <ele>13</ele>
      </trkpt>
      <trkpt lat="44.5768" lon="-0.05385">
        <ele>13.5</ele>
      </trkpt>
      <trkpt lat="44.57704" lon="-0.05309">
        <ele>14</ele>
      </trkpt>
      <trkpt lat="44.57712" lon="-0.05284">
        <ele>14</ele>
      </trkpt>
      <trkpt lat="44.57736" lon="-0.05186">
        <ele>13.8</ele>
      </trkpt>
      <trkpt lat="44.57751" lon="-0.0512">
        <ele>14.9</ele>
      </trkpt>
      <trkpt lat="44.57759" lon="-0.05088">
        <ele>14.1</ele>
      </trkpt>
      <trkpt lat="44.57767" lon="-0.05036">
        <ele>14.6</ele>
      </trkpt>
      <trkpt lat="44.57767" lon="-0.05009">
        <ele>14.6</ele>
      </trkpt>
      <trkpt lat="44.57767" lon="-0.04982">
        <ele>14.2</ele>
      </trkpt>
      <trkpt lat="44.57767" lon="-0.04955">
        <ele>14.1</ele>
      </trkpt>
      <trkpt lat="44.57768" lon="-0.0493">
        <ele>14.3</ele>
      </trkpt>
      <trkpt lat="44.57772" lon="-0.0488">
        <ele>14.6</ele>
      </trkpt>
      <trkpt lat="44.57774" lon="-0.04847">
        <ele>14.4</ele>
      </trkpt>
      <trkpt lat="44.57777" lon="-0.04814">
        <ele>14</ele>
      </trkpt>
      <trkpt lat="44.57782" lon="-0.04747">
        <ele>14</ele>
      </trkpt>
      <trkpt lat="44.57785" lon="-0.04714">
        <ele>13.8</ele>
      </trkpt>
      <trkpt lat="44.57787" lon="-0.0466">
        <ele>13.7</ele>
      </trkpt>
      <trkpt lat="44.57789" lon="-0.04605">
        <ele>13.1</ele>
      </trkpt>
      <trkpt lat="44.57788" lon="-0.0457">
        <ele>13.6</ele>
      </trkpt>
      <trkpt lat="44.57782" lon="-0.04153">
        <ele>13.6</ele>
      </trkpt>
      <trkpt lat="44.57781" lon="-0.04083">
        <ele>13.7</ele>
      </trkpt>
      <trkpt lat="44.5778" lon="-0.04048">
        <ele>13.9</ele>
      </trkpt>
      <trkpt lat="44.5778" lon="-0.04024">
        <ele>14.6</ele>
      </trkpt>
      <trkpt lat="44.57779" lon="-0.04">
        <ele>14.6</ele>
      </trkpt>
      <trkpt lat="44.57779" lon="-0.03974">
        <ele>15.7</ele>
      </trkpt>
      <trkpt lat="44.57778" lon="-0.03948">
        <ele>16</ele>
      </trkpt>
      <trkpt lat="44.57777" lon="-0.03921">
        <ele>15.1</ele>
      </trkpt>
      <trkpt lat="44.5778" lon="-0.03903">
        <ele>14.6</ele>
      </trkpt>
      <trkpt lat="44.57783" lon="-0.03885">
        <ele>13.9</ele>
      </trkpt>
      <trkpt lat="44.57779" lon="-0.03852">
        <ele>15</ele>
      </trkpt>
      <trkpt lat="44.57776" lon="-0.03819">
        <ele>15.8</ele>
      </trkpt>
      <trkpt lat="44.57769" lon="-0.03753">
        <ele>15.7</ele>
      </trkpt>
      <trkpt lat="44.57787" lon="-0.03749">
        <ele>13.3</ele>
      </trkpt>
      <trkpt lat="44.57786" lon="-0.03722">
        <ele>13.5</ele>
      </trkpt>
      <trkpt lat="44.57786" lon="-0.03695">
        <ele>13.8</ele>
      </trkpt>
      <trkpt lat="44.57787" lon="-0.03633">
        <ele>13.4</ele>
      </trkpt>
      <trkpt lat="44.5779" lon="-0.03573">
        <ele>12.8</ele>
      </trkpt>
      <trkpt lat="44.57791" lon="-0.03543">
        <ele>12.4</ele>
      </trkpt>
      <trkpt lat="44.57792" lon="-0.03513">
        <ele>12.9</ele>
      </trkpt>
      <trkpt lat="44.57794" lon="-0.03426">
        <ele>12.7</ele>
      </trkpt>
      <trkpt lat="44.5784" lon="-0.03423">
        <ele>6</ele>
      </trkpt>
      <trkpt lat="44.5793" lon="-0.03415">
        <ele>11.4</ele>
      </trkpt>
      <trkpt lat="44.57953" lon="-0.03413">
        <ele>19.1</ele>
      </trkpt>
      <trkpt lat="44.5796" lon="-0.03512">
        <ele>18.5</ele>
      </trkpt>
      <trkpt lat="44.57974" lon="-0.03636">
        <ele>16.1</ele>
      </trkpt>
      <trkpt lat="44.57995" lon="-0.03762">
        <ele>14.5</ele>
      </trkpt>
      <trkpt lat="44.58019" lon="-0.03861">
        <ele>14</ele>
      </trkpt>
      <trkpt lat="44.58022" lon="-0.03964">
        <ele>15</ele>
      </trkpt>
      <trkpt lat="44.58045" lon="-0.04163">
        <ele>14.4</ele>
      </trkpt>
      <trkpt lat="44.58055" lon="-0.04276">
        <ele>14</ele>
      </trkpt>
      <trkpt lat="44.58142" lon="-0.04268">
        <ele>30.4</ele>
      </trkpt>
      <trkpt lat="44.58155" lon="-0.04255">
        <ele>32.5</ele>
      </trkpt>
      <trkpt lat="44.58152" lon="-0.04225">
        <ele>35.4</ele>
      </trkpt>
      <trkpt lat="44.58133" lon="-0.04188">
        <ele>36.8</ele>
      </trkpt>
      <trkpt lat="44.58092" lon="-0.04181">
        <ele>29.9</ele>
      </trkpt>
      <trkpt lat="44.58087" lon="-0.04098">
        <ele>34.2</ele>
      </trkpt>
      <trkpt lat="44.58158" lon="-0.04099">
        <ele>38.8</ele>
      </trkpt>
      <trkpt lat="44.58159" lon="-0.04122">
        <ele>38</ele>
      </trkpt>
      <trkpt lat="44.5818" lon="-0.04119">
        <ele>37.7</ele>
      </trkpt>
      <trkpt lat="44.58194" lon="-0.04107">
        <ele>37.2</ele>
      </trkpt>
      <trkpt lat="44.58187" lon="-0.03946">
        <ele>40.7</ele>
      </trkpt>
      <trkpt lat="44.5827" lon="-0.03952">
        <ele>42.3</ele>
      </trkpt>
      <trkpt lat="44.58257" lon="-0.03906">
        <ele>42.2</ele>
      </trkpt>
      <trkpt lat="44.58192" lon="-0.03899">
        <ele>40.3</ele>
      </trkpt>
      <trkpt lat="44.58193" lon="-0.03756">
        <ele>31.2</ele>
      </trkpt>
      <trkpt lat="44.58197" lon="-0.0373">
        <ele>29.2</ele>
      </trkpt>
      <trkpt lat="44.58205" lon="-0.0371">
        <ele>29</ele>
      </trkpt>
      <trkpt lat="44.58234" lon="-0.03667">
        <ele>28</ele>
      </trkpt>
      <trkpt lat="44.58254" lon="-0.03642">
        <ele>27.1</ele>
      </trkpt>
      <trkpt lat="44.58289" lon="-0.03554">
        <ele>36.6</ele>
      </trkpt>
      <trkpt lat="44.5829" lon="-0.03503">
        <ele>40.8</ele>
      </trkpt>
      <trkpt lat="44.58296" lon="-0.0346">
        <ele>42.3</ele>
      </trkpt>
      <trkpt lat="44.58309" lon="-0.0336">
        <ele>42.5</ele>
      </trkpt>
      <trkpt lat="44.58328" lon="-0.03268">
        <ele>47.9</ele>
      </trkpt>
      <trkpt lat="44.58345" lon="-0.03206">
        <ele>51.5</ele>
      </trkpt>
      <trkpt lat="44.58378" lon="-0.03106">
        <ele>57.1</ele>
      </trkpt>
      <trkpt lat="44.58387" lon="-0.03063">
        <ele>60.4</ele>
      </trkpt>
      <trkpt lat="44.5839" lon="-0.03005">
        <ele>63.9</ele>
      </trkpt>
      <trkpt lat="44.58406" lon="-0.02779">
        <ele>76.9</ele>
      </trkpt>
      <trkpt lat="44.58398" lon="-0.02754">
        <ele>77.2</ele>
      </trkpt>
      <trkpt lat="44.58398" lon="-0.02725">
        <ele>78</ele>
      </trkpt>
      <trkpt lat="44.584" lon="-0.02693">
        <ele>76.8</ele>
      </trkpt>
      <trkpt lat="44.58395" lon="-0.02657">
        <ele>75.6</ele>
      </trkpt>
      <trkpt lat="44.58388" lon="-0.02599">
        <ele>74.6</ele>
      </trkpt>
      <trkpt lat="44.58386" lon="-0.02564">
        <ele>73.9</ele>
      </trkpt>
      <trkpt lat="44.58387" lon="-0.02469">
        <ele>74.9</ele>
      </trkpt>
      <trkpt lat="44.58453" lon="-0.0244">
        <ele>71.5</ele>
      </trkpt>
      <trkpt lat="44.58465" lon="-0.02426">
        <ele>69.8</ele>
      </trkpt>
      <trkpt lat="44.5847" lon="-0.02408">
        <ele>69.9</ele>
      </trkpt>
      <trkpt lat="44.58483" lon="-0.02339">
        <ele>72.5</ele>
      </trkpt>
      <trkpt lat="44.58491" lon="-0.02276">
        <ele>74.1</ele>
      </trkpt>
      <trkpt lat="44.58489" lon="-0.02218">
        <ele>77.6</ele>
      </trkpt>
      <trkpt lat="44.58475" lon="-0.02152">
        <ele>79.5</ele>
      </trkpt>
      <trkpt lat="44.58443" lon="-0.02052">
        <ele>84.5</ele>
      </trkpt>
      <trkpt lat="44.58411" lon="-0.01912">
        <ele>101.2</ele>
      </trkpt>
      <trkpt lat="44.58387" lon="-0.01899">
        <ele>104.6</ele>
      </trkpt>
      <trkpt lat="44.58355" lon="-0.01885">
        <ele>106.4</ele>
      </trkpt>
      <trkpt lat="44.58366" lon="-0.0184">
        <ele>109</ele>
      </trkpt>
      <trkpt lat="44.58406" lon="-0.01722">
        <ele>110.6</ele>
      </trkpt>
      <trkpt lat="44.5841" lon="-0.01705">
        <ele>109.8</ele>
      </trkpt>
      <trkpt lat="44.58421" lon="-0.01675">
        <ele>108.7</ele>
      </trkpt>
      <trkpt lat="44.58429" lon="-0.01666">
        <ele>108.5</ele>
      </trkpt>
      <trkpt lat="44.58469" lon="-0.01614">
        <ele>112.6</ele>
      </trkpt>
      <trkpt lat="44.58525" lon="-0.01538">
        <ele>114.6</ele>
      </trkpt>
      <trkpt lat="44.58556" lon="-0.01491">
        <ele>114.4</ele>
      </trkpt>
      <trkpt lat="44.58578" lon="-0.01455">
        <ele>115.8</ele>
      </trkpt>
      <trkpt lat="44.58598" lon="-0.01403">
        <ele>118.3</ele>
      </trkpt>
      <trkpt lat="44.58612" lon="-0.01365">
        <ele>118.6</ele>
      </trkpt>
      <trkpt lat="44.58627" lon="-0.01334">
        <ele>121.3</ele>
      </trkpt>
      <trkpt lat="44.58637" lon="-0.01315">
        <ele>122.2</ele>
      </trkpt>
      <trkpt lat="44.58652" lon="-0.01297">
        <ele>123.3</ele>
      </trkpt>
      <trkpt lat="44.58687" lon="-0.0128">
        <ele>124.1</ele>
      </trkpt>
      <trkpt lat="44.58707" lon="-0.01234">
        <ele>127.9</ele>
      </trkpt>
      <trkpt lat="44.58711" lon="-0.01214">
        <ele>128.8</ele>
      </trkpt>
      <trkpt lat="44.58708" lon="-0.01192">
        <ele>130.1</ele>
      </trkpt>
      <trkpt lat="44.5869" lon="-0.01147">
        <ele>132.9</ele>
      </trkpt>
      <trkpt lat="44.58685" lon="-0.01109">
        <ele>133.6</ele>
      </trkpt>
      <trkpt lat="44.58715" lon="-0.0111">
        <ele>128.5</ele>
      </trkpt>
      <trkpt lat="44.58718" lon="-0.01076">
        <ele>126.5</ele>
      </trkpt>
      <trkpt lat="44.5873" lon="-0.01018">
        <ele>120.4</ele>
      </trkpt>
      <trkpt lat="44.58748" lon="-0.00895">
        <ele>103.6</ele>
      </trkpt>
      <trkpt lat="44.58751" lon="-0.0082">
        <ele>98.6</ele>
      </trkpt>
      <trkpt lat="44.58749" lon="-0.00754">
        <ele>97.7</ele>
      </trkpt>
      <trkpt lat="44.58739" lon="-0.00724">
        <ele>96.8</ele>
      </trkpt>
      <trkpt lat="44.58792" lon="-0.00666">
        <ele>103.1</ele>
      </trkpt>
      <trkpt lat="44.58801" lon="-0.00644">
        <ele>103.4</ele>
      </trkpt>
      <trkpt lat="44.58805" lon="-0.00623">
        <ele>103.6</ele>
      </trkpt>
      <trkpt lat="44.58806" lon="-0.00588">
        <ele>104</ele>
      </trkpt>
      <trkpt lat="44.58815" lon="-0.00549">
        <ele>104.1</ele>
      </trkpt>
      <trkpt lat="44.58831" lon="-0.00485">
        <ele>102.3</ele>
      </trkpt>
      <trkpt lat="44.5885" lon="-0.0041">
        <ele>100.1</ele>
      </trkpt>
      <trkpt lat="44.58895" lon="-0.00319">
        <ele>98.4</ele>
      </trkpt>
      <trkpt lat="44.58911" lon="-0.00304">
        <ele>98.8</ele>
      </trkpt>
      <trkpt lat="44.58922" lon="-0.00297">
        <ele>98.6</ele>
      </trkpt>
      <trkpt lat="44.58951" lon="-0.00294">
        <ele>96.5</ele>
      </trkpt>
      <trkpt lat="44.58977" lon="-0.00286">
        <ele>94</ele>
      </trkpt>
      <trkpt lat="44.59002" lon="-0.00275">
        <ele>89.8</ele>
      </trkpt>
      <trkpt lat="44.59035" lon="-0.00251">
        <ele>87.8</ele>
      </trkpt>
      <trkpt lat="44.59073" lon="-0.00219">
        <ele>84.2</ele>
      </trkpt>
      <trkpt lat="44.59086" lon="-0.00199">
        <ele>82.7</ele>
      </trkpt>
      <trkpt lat="44.59091" lon="-0.00172">
        <ele>81.5</ele>
      </trkpt>
      <trkpt lat="44.59099" lon="-0.00091">
        <ele>76.7</ele>
      </trkpt>
      <trkpt lat="44.59106" lon="-0.00019">
        <ele>71.3</ele>
      </trkpt>
      <trkpt lat="44.59116" lon="0.00035">
        <ele>68.1</ele>
      </trkpt>
      <trkpt lat="44.5913" lon="0.00074">
        <ele>67.5</ele>
      </trkpt>
      <trkpt lat="44.59166" lon="0.00138">
        <ele>65.2</ele>
      </trkpt>
      <trkpt lat="44.592" lon="0.00187">
        <ele>62.9</ele>
      </trkpt>
      <trkpt lat="44.59218" lon="0.00207">
        <ele>62</ele>
      </trkpt>
      <trkpt lat="44.59267" lon="0.00226">
        <ele>61</ele>
      </trkpt>
      <trkpt lat="44.59305" lon="0.00245">
        <ele>61.8</ele>
      </trkpt>
      <trkpt lat="44.59328" lon="0.00252">
        <ele>62.1</ele>
      </trkpt>
      <trkpt lat="44.59347" lon="0.00268">
        <ele>63.1</ele>
      </trkpt>
      <trkpt lat="44.59478" lon="0.0042">
        <ele>73.5</ele>
      </trkpt>
      <trkpt lat="44.59549" lon="0.00493">
        <ele>80.2</ele>
      </trkpt>
      <trkpt lat="44.59633" lon="0.0038">
        <ele>78</ele>
      </trkpt>
      <trkpt lat="44.59713" lon="0.00269">
        <ele>76.8</ele>
      </trkpt>
      <trkpt lat="44.59785" lon="0.00163">
        <ele>71</ele>
      </trkpt>
      <trkpt lat="44.59813" lon="0.0013">
        <ele>70.1</ele>
      </trkpt>
      <trkpt lat="44.59842" lon="0.0012">
        <ele>70.4</ele>
      </trkpt>
      <trkpt lat="44.59879" lon="0.00123">
        <ele>69.6</ele>
      </trkpt>
      <trkpt lat="44.59944" lon="0.0016">
        <ele>71.5</ele>
      </trkpt>
      <trkpt lat="44.59977" lon="0.0008">
        <ele>68.9</ele>
      </trkpt>
      <trkpt lat="44.60022" lon="0.00098">
        <ele>69.1</ele>
      </trkpt>
      <trkpt lat="44.59999" lon="0.00183">
        <ele>73.3</ele>
      </trkpt>
      <trkpt lat="44.59969" lon="0.00302">
        <ele>78.3</ele>
      </trkpt>
      <trkpt lat="44.59959" lon="0.00314">
        <ele>79.6</ele>
      </trkpt>
      <trkpt lat="44.59933" lon="0.00306">
        <ele>81.4</ele>
      </trkpt>
      <trkpt lat="44.59897" lon="0.00399">
        <ele>85.4</ele>
      </trkpt>
      <trkpt lat="44.59875" lon="0.00422">
        <ele>87</ele>
      </trkpt>
      <trkpt lat="44.59843" lon="0.00469">
        <ele>89.2</ele>
      </trkpt>
      <trkpt lat="44.59783" lon="0.00584">
        <ele>90.2</ele>
      </trkpt>
      <trkpt lat="44.59741" lon="0.00562">
        <ele>92.2</ele>
      </trkpt>
      <trkpt lat="44.59724" lon="0.00623">
        <ele>93.9</ele>
      </trkpt>
      <trkpt lat="44.59678" lon="0.00705">
        <ele>95.3</ele>
      </trkpt>
      <trkpt lat="44.59645" lon="0.00727">
        <ele>96.5</ele>
      </trkpt>
      <trkpt lat="44.59631" lon="0.00753">
        <ele>97.2</ele>
      </trkpt>
      <trkpt lat="44.59625" lon="0.00793">
        <ele>97.2</ele>
      </trkpt>
      <trkpt lat="44.59589" lon="0.00892">
        <ele>99.2</ele>
      </trkpt>
      <trkpt lat="44.59585" lon="0.00923">
        <ele>98.8</ele>
      </trkpt>
      <trkpt lat="44.59583" lon="0.01026">
        <ele>96</ele>
      </trkpt>
      <trkpt lat="44.59578" lon="0.01053">
        <ele>95.8</ele>
      </trkpt>
      <trkpt lat="44.59565" lon="0.01083">
        <ele>95.7</ele>
      </trkpt>
      <trkpt lat="44.59563" lon="0.01182">
        <ele>96.2</ele>
      </trkpt>
      <trkpt lat="44.5955" lon="0.01246">
        <ele>96.9</ele>
      </trkpt>
      <trkpt lat="44.59551" lon="0.01287">
        <ele>97.1</ele>
      </trkpt>
      <trkpt lat="44.59577" lon="0.01373">
        <ele>97.7</ele>
      </trkpt>
      <trkpt lat="44.59595" lon="0.01422">
        <ele>98.3</ele>
      </trkpt>
      <trkpt lat="44.59618" lon="0.01454">
        <ele>100.6</ele>
      </trkpt>
      <trkpt lat="44.59626" lon="0.01463">
        <ele>101.2</ele>
      </trkpt>
      <trkpt lat="44.59625" lon="0.01483">
        <ele>101.7</ele>
      </trkpt>
      <trkpt lat="44.59623" lon="0.01509">
        <ele>101.8</ele>
      </trkpt>
      <trkpt lat="44.59634" lon="0.01541">
        <ele>102.7</ele>
      </trkpt>
      <trkpt lat="44.59639" lon="0.01565">
        <ele>103</ele>
      </trkpt>
      <trkpt lat="44.59639" lon="0.01646">
        <ele>104</ele>
      </trkpt>
      <trkpt lat="44.59627" lon="0.01733">
        <ele>103.6</ele>
      </trkpt>
      <trkpt lat="44.59647" lon="0.01772">
        <ele>104</ele>
      </trkpt>
      <trkpt lat="44.59676" lon="0.01811">
        <ele>103.6</ele>
      </trkpt>
      <trkpt lat="44.59702" lon="0.01828">
        <ele>101.9</ele>
      </trkpt>
      <trkpt lat="44.59683" lon="0.01959">
        <ele>100.3</ele>
      </trkpt>
      <trkpt lat="44.59663" lon="0.02117">
        <ele>101.2</ele>
      </trkpt>
      <trkpt lat="44.59669" lon="0.02222">
        <ele>102.9</ele>
      </trkpt>
      <trkpt lat="44.59683" lon="0.02321">
        <ele>106.8</ele>
      </trkpt>
      <trkpt lat="44.59696" lon="0.02396">
        <ele>109.2</ele>
      </trkpt>
      <trkpt lat="44.59716" lon="0.02495">
        <ele>112</ele>
      </trkpt>
      <trkpt lat="44.59723" lon="0.02564">
        <ele>113</ele>
      </trkpt>
      <trkpt lat="44.59755" lon="0.02645">
        <ele>112.8</ele>
      </trkpt>
      <trkpt lat="44.5979" lon="0.02706">
        <ele>111.7</ele>
      </trkpt>
      <trkpt lat="44.5981" lon="0.02719">
        <ele>111.7</ele>
      </trkpt>
      <trkpt lat="44.59828" lon="0.02731">
        <ele>111.4</ele>
      </trkpt>
      <trkpt lat="44.59914" lon="0.02828">
        <ele>112</ele>
      </trkpt>
      <trkpt lat="44.59942" lon="0.02861">
        <ele>111.2</ele>
      </trkpt>
      <trkpt lat="44.60036" lon="0.02969">
        <ele>107.1</ele>
      </trkpt>
      <trkpt lat="44.60088" lon="0.03024">
        <ele>105.1</ele>
      </trkpt>
      <trkpt lat="44.60125" lon="0.03066">
        <ele>104.1</ele>
      </trkpt>
      <trkpt lat="44.60141" lon="0.03086">
        <ele>103.2</ele>
      </trkpt>
      <trkpt lat="44.60157" lon="0.03111">
        <ele>103</ele>
      </trkpt>
      <trkpt lat="44.60166" lon="0.03134">
        <ele>101.3</ele>
      </trkpt>
      <trkpt lat="44.6017" lon="0.03161">
        <ele>100.3</ele>
      </trkpt>
      <trkpt lat="44.60228" lon="0.03212">
        <ele>100.8</ele>
      </trkpt>
      <trkpt lat="44.60251" lon="0.03227">
        <ele>102.1</ele>
      </trkpt>
      <trkpt lat="44.60353" lon="0.03235">
        <ele>108.1</ele>
      </trkpt>
      <trkpt lat="44.6036" lon="0.03216">
        <ele>108</ele>
      </trkpt>
      <trkpt lat="44.60447" lon="0.03119">
        <ele>104.9</ele>
      </trkpt>
      <trkpt lat="44.60631" lon="0.02906">
        <ele>98.8</ele>
      </trkpt>
      <trkpt lat="44.60758" lon="0.02763">
        <ele>97.5</ele>
      </trkpt>
      <trkpt lat="44.60825" lon="0.0268">
        <ele>96.9</ele>
      </trkpt>
      <trkpt lat="44.60902" lon="0.0258">
        <ele>98.5</ele>
      </trkpt>
      <trkpt lat="44.60995" lon="0.02487">
        <ele>98.7</ele>
      </trkpt>
      <trkpt lat="44.61063" lon="0.02444">
        <ele>98.7</ele>
      </trkpt>
      <trkpt lat="44.61118" lon="0.02383">
        <ele>100</ele>
      </trkpt>
      <trkpt lat="44.61167" lon="0.02332">
        <ele>100.1</ele>
      </trkpt>
      <trkpt lat="44.61197" lon="0.02296">
        <ele>101.6</ele>
      </trkpt>
      <trkpt lat="44.61238" lon="0.02276">
        <ele>103.2</ele>
      </trkpt>
      <trkpt lat="44.61278" lon="0.02251">
        <ele>104</ele>
      </trkpt>
      <trkpt lat="44.61293" lon="0.02236">
        <ele>104.2</ele>
      </trkpt>
      <trkpt lat="44.61302" lon="0.02222">
        <ele>104.1</ele>
      </trkpt>
      <trkpt lat="44.61367" lon="0.021">
        <ele>102.7</ele>
      </trkpt>
      <trkpt lat="44.61524" lon="0.01803">
        <ele>96.5</ele>
      </trkpt>
      <trkpt lat="44.61541" lon="0.01833">
        <ele>96.7</ele>
      </trkpt>
      <trkpt lat="44.61642" lon="0.01928">
        <ele>79.1</ele>
      </trkpt>
      <trkpt lat="44.61699" lon="0.01963">
        <ele>74.2</ele>
      </trkpt>
      <trkpt lat="44.61834" lon="0.02039">
        <ele>74.4</ele>
      </trkpt>
      <trkpt lat="44.61932" lon="0.021">
        <ele>71.5</ele>
      </trkpt>
      <trkpt lat="44.62018" lon="0.02161">
        <ele>67.2</ele>
      </trkpt>
      <trkpt lat="44.62056" lon="0.02183">
        <ele>63.7</ele>
      </trkpt>
      <trkpt lat="44.62076" lon="0.02189">
        <ele>61.9</ele>
      </trkpt>
      <trkpt lat="44.621" lon="0.02185">
        <ele>61.2</ele>
      </trkpt>
      <trkpt lat="44.62132" lon="0.02185">
        <ele>60.2</ele>
      </trkpt>
      <trkpt lat="44.6217" lon="0.02201">
        <ele>59.5</ele>
      </trkpt>
      <trkpt lat="44.62188" lon="0.0221">
        <ele>60.1</ele>
      </trkpt>
      <trkpt lat="44.62209" lon="0.0222">
        <ele>60.9</ele>
      </trkpt>
      <trkpt lat="44.62269" lon="0.02223">
        <ele>62.8</ele>
      </trkpt>
      <trkpt lat="44.62363" lon="0.02218">
        <ele>65.8</ele>
      </trkpt>
      <trkpt lat="44.62385" lon="0.02222">
        <ele>66.9</ele>
      </trkpt>
      <trkpt lat="44.62416" lon="0.02209">
        <ele>65.5</ele>
      </trkpt>
      <trkpt lat="44.62426" lon="0.02209">
        <ele>65.3</ele>
      </trkpt>
      <trkpt lat="44.62447" lon="0.02216">
        <ele>65</ele>
      </trkpt>
      <trkpt lat="44.6253" lon="0.0223">
        <ele>63.9</ele>
      </trkpt>
      <trkpt lat="44.62593" lon="0.0224">
        <ele>58.7</ele>
      </trkpt>
      <trkpt lat="44.62619" lon="0.02237">
        <ele>57.6</ele>
      </trkpt>
      <trkpt lat="44.62687" lon="0.0222">
        <ele>59.7</ele>
      </trkpt>
      <trkpt lat="44.62722" lon="0.02209">
        <ele>60.1</ele>
      </trkpt>
      <trkpt lat="44.62749" lon="0.02212">
        <ele>60.6</ele>
      </trkpt>
      <trkpt lat="44.62817" lon="0.02226">
        <ele>61.8</ele>
      </trkpt>
      <trkpt lat="44.62907" lon="0.02244">
        <ele>55.4</ele>
      </trkpt>
      <trkpt lat="44.62906" lon="0.0234">
        <ele>56.3</ele>
      </trkpt>
      <trkpt lat="44.62906" lon="0.02388">
        <ele>57.4</ele>
      </trkpt>
      <trkpt lat="44.62901" lon="0.02402">
        <ele>58</ele>
      </trkpt>
      <trkpt lat="44.62893" lon="0.02414">
        <ele>58.1</ele>
      </trkpt>
      <trkpt lat="44.62868" lon="0.02434">
        <ele>59.1</ele>
      </trkpt>
      <trkpt lat="44.62863" lon="0.02445">
        <ele>59.1</ele>
      </trkpt>
      <trkpt lat="44.62864" lon="0.02484">
        <ele>60.8</ele>
      </trkpt>
      <trkpt lat="44.62869" lon="0.02532">
        <ele>62.6</ele>
      </trkpt>
      <trkpt lat="44.62874" lon="0.0258">
        <ele>63.5</ele>
      </trkpt>
      <trkpt lat="44.62877" lon="0.02621">
        <ele>63.6</ele>
      </trkpt>
      <trkpt lat="44.62876" lon="0.02652">
        <ele>62.7</ele>
      </trkpt>
      <trkpt lat="44.62874" lon="0.02683">
        <ele>61.7</ele>
      </trkpt>
      <trkpt lat="44.62876" lon="0.02716">
        <ele>60.7</ele>
      </trkpt>
      <trkpt lat="44.62878" lon="0.02749">
        <ele>60.4</ele>
      </trkpt>
      <trkpt lat="44.62892" lon="0.02854">
        <ele>60.9</ele>
      </trkpt>
      <trkpt lat="44.629" lon="0.02896">
        <ele>59.2</ele>
      </trkpt>
      <trkpt lat="44.62923" lon="0.02942">
        <ele>56.6</ele>
      </trkpt>
      <trkpt lat="44.62937" lon="0.02971">
        <ele>55.3</ele>
      </trkpt>
      <trkpt lat="44.62935" lon="0.02996">
        <ele>57.6</ele>
      </trkpt>
      <trkpt lat="44.62898" lon="0.02992">
        <ele>58.1</ele>
      </trkpt>
      <trkpt lat="44.62864" lon="0.02985">
        <ele>58.8</ele>
      </trkpt>
      <trkpt lat="44.6283" lon="0.02977">
        <ele>58.4</ele>
      </trkpt>
      <trkpt lat="44.62819" lon="0.02979">
        <ele>58.9</ele>
      </trkpt>
      <trkpt lat="44.62814" lon="0.0299">
        <ele>59.5</ele>
      </trkpt>
      <trkpt lat="44.62808" lon="0.03035">
        <ele>61.3</ele>
      </trkpt>
      <trkpt lat="44.62802" lon="0.0308">
        <ele>63.2</ele>
      </trkpt>
      <trkpt lat="44.62783" lon="0.03215">
        <ele>69.4</ele>
      </trkpt>
      <trkpt lat="44.62768" lon="0.03324">
        <ele>73.4</ele>
      </trkpt>
      <trkpt lat="44.62753" lon="0.03432">
        <ele>71.8</ele>
      </trkpt>
      <trkpt lat="44.62788" lon="0.03458">
        <ele>69.2</ele>
      </trkpt>
      <trkpt lat="44.62822" lon="0.03484">
        <ele>68.2</ele>
      </trkpt>
      <trkpt lat="44.62873" lon="0.03528">
        <ele>64.6</ele>
      </trkpt>
      <trkpt lat="44.62898" lon="0.0355">
        <ele>62.9</ele>
      </trkpt>
      <trkpt lat="44.62927" lon="0.03572">
        <ele>60.5</ele>
      </trkpt>
      <trkpt lat="44.62957" lon="0.03595">
        <ele>57.2</ele>
      </trkpt>
      <trkpt lat="44.62988" lon="0.03618">
        <ele>54.4</ele>
      </trkpt>
      <trkpt lat="44.63014" lon="0.03649">
        <ele>51.1</ele>
      </trkpt>
      <trkpt lat="44.63032" lon="0.03673">
        <ele>48.4</ele>
      </trkpt>
      <trkpt lat="44.63055" lon="0.037">
        <ele>44.1</ele>
      </trkpt>
      <trkpt lat="44.63087" lon="0.0373">
        <ele>38.5</ele>
      </trkpt>
      <trkpt lat="44.63103" lon="0.03734">
        <ele>36.8</ele>
      </trkpt>
      <trkpt lat="44.6315" lon="0.03745">
        <ele>31.6</ele>
      </trkpt>
      <trkpt lat="44.63167" lon="0.0374">
        <ele>30.3</ele>
      </trkpt>
      <trkpt lat="44.63232" lon="0.03704">
        <ele>26.5</ele>
      </trkpt>
      <trkpt lat="44.63328" lon="0.0365">
        <ele>24.8</ele>
      </trkpt>
      <trkpt lat="44.63393" lon="0.03614">
        <ele>23.8</ele>
      </trkpt>
      <trkpt lat="44.63421" lon="0.03607">
        <ele>23.2</ele>
      </trkpt>
      <trkpt lat="44.63454" lon="0.03608">
        <ele>22.8</ele>
      </trkpt>
      <trkpt lat="44.63486" lon="0.03609">
        <ele>22</ele>
      </trkpt>
      <trkpt lat="44.63503" lon="0.03603">
        <ele>22</ele>
      </trkpt>
      <trkpt lat="44.63533" lon="0.03578">
        <ele>22</ele>
      </trkpt>
      <trkpt lat="44.63563" lon="0.03553">
        <ele>21.7</ele>
      </trkpt>
      <trkpt lat="44.63573" lon="0.03593">
        <ele>22.2</ele>
      </trkpt>
      <trkpt lat="44.63583" lon="0.03623">
        <ele>23</ele>
      </trkpt>
      <trkpt lat="44.63613" lon="0.03709">
        <ele>24.9</ele>
      </trkpt>
      <trkpt lat="44.63643" lon="0.03796">
        <ele>26.7</ele>
      </trkpt>
      <trkpt lat="44.6366" lon="0.03846">
        <ele>28.3</ele>
      </trkpt>
      <trkpt lat="44.6367" lon="0.03875">
        <ele>28.7</ele>
      </trkpt>
      <trkpt lat="44.63687" lon="0.03925">
        <ele>31.4</ele>
      </trkpt>
      <trkpt lat="44.63696" lon="0.03949">
        <ele>31.5</ele>
      </trkpt>
      <trkpt lat="44.63646" lon="0.03989">
        <ele>36.4</ele>
      </trkpt>
      <trkpt lat="44.63602" lon="0.04025">
        <ele>40.8</ele>
      </trkpt>
      <trkpt lat="44.63588" lon="0.04037">
        <ele>42</ele>
      </trkpt>
      <trkpt lat="44.63559" lon="0.04061">
        <ele>45.4</ele>
      </trkpt>
      <trkpt lat="44.63534" lon="0.04083">
        <ele>48</ele>
      </trkpt>
      <trkpt lat="44.63521" lon="0.04096">
        <ele>50.5</ele>
      </trkpt>
      <trkpt lat="44.63505" lon="0.04116">
        <ele>52.3</ele>
      </trkpt>
      <trkpt lat="44.63491" lon="0.04135">
        <ele>54.1</ele>
      </trkpt>
      <trkpt lat="44.63472" lon="0.04166">
        <ele>55</ele>
      </trkpt>
      <trkpt lat="44.63458" lon="0.04195">
        <ele>56</ele>
      </trkpt>
      <trkpt lat="44.63452" lon="0.0421">
        <ele>56</ele>
      </trkpt>
      <trkpt lat="44.63441" lon="0.0424">
        <ele>56.6</ele>
      </trkpt>
      <trkpt lat="44.63419" lon="0.04314">
        <ele>56.4</ele>
      </trkpt>
      <trkpt lat="44.63399" lon="0.04389">
        <ele>57.3</ele>
      </trkpt>
      <trkpt lat="44.63377" lon="0.04469">
        <ele>57.9</ele>
      </trkpt>
      <trkpt lat="44.63362" lon="0.04526">
        <ele>58.9</ele>
      </trkpt>
      <trkpt lat="44.63356" lon="0.0455">
        <ele>59.8</ele>
      </trkpt>
      <trkpt lat="44.63328" lon="0.04655">
        <ele>62.6</ele>
      </trkpt>
      <trkpt lat="44.63319" lon="0.04689">
        <ele>63.4</ele>
      </trkpt>
      <trkpt lat="44.63311" lon="0.04708">
        <ele>63.3</ele>
      </trkpt>
      <trkpt lat="44.63296" lon="0.04736">
        <ele>63</ele>
      </trkpt>
      <trkpt lat="44.63274" lon="0.04778">
        <ele>62</ele>
      </trkpt>
      <trkpt lat="44.63268" lon="0.0479">
        <ele>62.4</ele>
      </trkpt>
      <trkpt lat="44.63265" lon="0.04796">
        <ele>62.7</ele>
      </trkpt>
      <trkpt lat="44.63218" lon="0.04947">
        <ele>65.4</ele>
      </trkpt>
      <trkpt lat="44.63197" lon="0.05016">
        <ele>67.4</ele>
      </trkpt>
      <trkpt lat="44.63193" lon="0.05033">
        <ele>67.3</ele>
      </trkpt>
      <trkpt lat="44.63192" lon="0.05046">
        <ele>67.9</ele>
      </trkpt>
      <trkpt lat="44.63192" lon="0.05063">
        <ele>68.4</ele>
      </trkpt>
      <trkpt lat="44.63192" lon="0.05064">
        <ele>68.5</ele>
      </trkpt>
      <trkpt lat="44.63192" lon="0.05078">
        <ele>68.9</ele>
      </trkpt>
      <trkpt lat="44.63192" lon="0.05094">
        <ele>69.1</ele>
      </trkpt>
      <trkpt lat="44.63188" lon="0.05112">
        <ele>69.5</ele>
      </trkpt>
      <trkpt lat="44.63184" lon="0.05124">
        <ele>70</ele>
      </trkpt>
      <trkpt lat="44.63131" lon="0.05231">
        <ele>73.6</ele>
      </trkpt>
      <trkpt lat="44.6312" lon="0.05221">
        <ele>73.7</ele>
      </trkpt>
      <trkpt lat="44.6311" lon="0.0521">
        <ele>74</ele>
      </trkpt>
      <trkpt lat="44.63088" lon="0.05181">
        <ele>73.2</ele>
      </trkpt>
      <trkpt lat="44.63088" lon="0.05181">
        <ele>73.2</ele>
      </trkpt>
      <trkpt lat="44.63071" lon="0.05164">
        <ele>71.6</ele>
      </trkpt>
      <trkpt lat="44.63034" lon="0.05139">
        <ele>68.7</ele>
      </trkpt>
      <trkpt lat="44.63009" lon="0.05123">
        <ele>67.8</ele>
      </trkpt>
      <trkpt lat="44.62995" lon="0.05112">
        <ele>66.2</ele>
      </trkpt>
      <trkpt lat="44.62979" lon="0.05098">
        <ele>66.1</ele>
      </trkpt>
      <trkpt lat="44.62968" lon="0.05088">
        <ele>65.3</ele>
      </trkpt>
      <trkpt lat="44.62938" lon="0.05061">
        <ele>63.8</ele>
      </trkpt>
      <trkpt lat="44.62923" lon="0.05049">
        <ele>64.1</ele>
      </trkpt>
      <trkpt lat="44.62902" lon="0.05034">
        <ele>63.4</ele>
      </trkpt>
      <trkpt lat="44.62902" lon="0.05034">
        <ele>63.4</ele>
      </trkpt>
      <trkpt lat="44.62895" lon="0.05032">
        <ele>63.3</ele>
      </trkpt>
      <trkpt lat="44.62886" lon="0.05032">
        <ele>63.3</ele>
      </trkpt>
      <trkpt lat="44.62878" lon="0.05034">
        <ele>63.2</ele>
      </trkpt>
      <trkpt lat="44.62873" lon="0.05037">
        <ele>63.3</ele>
      </trkpt>
      <trkpt lat="44.62868" lon="0.05041">
        <ele>63.2</ele>
      </trkpt>
      <trkpt lat="44.62865" lon="0.05047">
        <ele>63.2</ele>
      </trkpt>
      <trkpt lat="44.62847" lon="0.05077">
        <ele>64.2</ele>
      </trkpt>
      <trkpt lat="44.62837" lon="0.05091">
        <ele>64.4</ele>
      </trkpt>
      <trkpt lat="44.62823" lon="0.05107">
        <ele>64.5</ele>
      </trkpt>
      <trkpt lat="44.62806" lon="0.05122">
        <ele>64.4</ele>
      </trkpt>
      <trkpt lat="44.62785" lon="0.05139">
        <ele>64.3</ele>
      </trkpt>
      <trkpt lat="44.62767" lon="0.05156">
        <ele>64.6</ele>
      </trkpt>
      <trkpt lat="44.62746" lon="0.05181">
        <ele>64.7</ele>
      </trkpt>
      <trkpt lat="44.6269" lon="0.0525">
        <ele>65.7</ele>
      </trkpt>
      <trkpt lat="44.62676" lon="0.0527">
        <ele>65.4</ele>
      </trkpt>
      <trkpt lat="44.62667" lon="0.05285">
        <ele>65.5</ele>
      </trkpt>
      <trkpt lat="44.6266" lon="0.05299">
        <ele>66.1</ele>
      </trkpt>
      <trkpt lat="44.62654" lon="0.05317">
        <ele>65.9</ele>
      </trkpt>
      <trkpt lat="44.62641" lon="0.05369">
        <ele>65.3</ele>
      </trkpt>
      <trkpt lat="44.62624" lon="0.05441">
        <ele>65.1</ele>
      </trkpt>
      <trkpt lat="44.62641" lon="0.05453">
        <ele>66.1</ele>
      </trkpt>
      <trkpt lat="44.62693" lon="0.05488">
        <ele>69.9</ele>
      </trkpt>
      <trkpt lat="44.62729" lon="0.05515">
        <ele>72.3</ele>
      </trkpt>
      <trkpt lat="44.62758" lon="0.05534">
        <ele>73.9</ele>
      </trkpt>
      <trkpt lat="44.62786" lon="0.05552">
        <ele>75.3</ele>
      </trkpt>
      <trkpt lat="44.6281" lon="0.05566">
        <ele>76.8</ele>
      </trkpt>
      <trkpt lat="44.62828" lon="0.05577">
        <ele>77.1</ele>
      </trkpt>
      <trkpt lat="44.62873" lon="0.05614">
        <ele>80.1</ele>
      </trkpt>
      <trkpt lat="44.62919" lon="0.05652">
        <ele>81.5</ele>
      </trkpt>
      <trkpt lat="44.62955" lon="0.0568">
        <ele>81.6</ele>
      </trkpt>
      <trkpt lat="44.63023" lon="0.05742">
        <ele>80.8</ele>
      </trkpt>
      <trkpt lat="44.63061" lon="0.05777">
        <ele>81.2</ele>
      </trkpt>
      <trkpt lat="44.63075" lon="0.05793">
        <ele>81.9</ele>
      </trkpt>
      <trkpt lat="44.63088" lon="0.05809">
        <ele>82</ele>
      </trkpt>
      <trkpt lat="44.63107" lon="0.05836">
        <ele>81.2</ele>
      </trkpt>
      <trkpt lat="44.63138" lon="0.05879">
        <ele>80.7</ele>
      </trkpt>
      <trkpt lat="44.63136" lon="0.05895">
        <ele>81.3</ele>
      </trkpt>
      <trkpt lat="44.6313" lon="0.05953">
        <ele>82.4</ele>
      </trkpt>
      <trkpt lat="44.6313" lon="0.05965">
        <ele>82.6</ele>
      </trkpt>
      <trkpt lat="44.63131" lon="0.05982">
        <ele>82.6</ele>
      </trkpt>
      <trkpt lat="44.63133" lon="0.05996">
        <ele>82.4</ele>
      </trkpt>
      <trkpt lat="44.63137" lon="0.06028">
        <ele>82.2</ele>
      </trkpt>
      <trkpt lat="44.63153" lon="0.06131">
        <ele>82.4</ele>
      </trkpt>
      <trkpt lat="44.63158" lon="0.0616">
        <ele>82</ele>
      </trkpt>
      <trkpt lat="44.63164" lon="0.06192">
        <ele>81.3</ele>
      </trkpt>
      <trkpt lat="44.63173" lon="0.0623">
        <ele>81.7</ele>
      </trkpt>
      <trkpt lat="44.63182" lon="0.06267">
        <ele>80.9</ele>
      </trkpt>
      <trkpt lat="44.63192" lon="0.06305">
        <ele>80.2</ele>
      </trkpt>
      <trkpt lat="44.63206" lon="0.0635">
        <ele>80</ele>
      </trkpt>
      <trkpt lat="44.63211" lon="0.06363">
        <ele>79.9</ele>
      </trkpt>
      <trkpt lat="44.63216" lon="0.06375">
        <ele>79.8</ele>
      </trkpt>
      <trkpt lat="44.63225" lon="0.06391">
        <ele>79.8</ele>
      </trkpt>
      <trkpt lat="44.63239" lon="0.06414">
        <ele>79.3</ele>
      </trkpt>
      <trkpt lat="44.63268" lon="0.0646">
        <ele>79.7</ele>
      </trkpt>
      <trkpt lat="44.63304" lon="0.06517">
        <ele>79.2</ele>
      </trkpt>
      <trkpt lat="44.63334" lon="0.06562">
        <ele>79.2</ele>
      </trkpt>
      <trkpt lat="44.63342" lon="0.06573">
        <ele>79.4</ele>
      </trkpt>
      <trkpt lat="44.63353" lon="0.06584">
        <ele>79.3</ele>
      </trkpt>
      <trkpt lat="44.63389" lon="0.06616">
        <ele>78.2</ele>
      </trkpt>
      <trkpt lat="44.63401" lon="0.06625">
        <ele>78</ele>
      </trkpt>
      <trkpt lat="44.6341" lon="0.06633">
        <ele>77.6</ele>
      </trkpt>
      <trkpt lat="44.63423" lon="0.06649">
        <ele>76.8</ele>
      </trkpt>
      <trkpt lat="44.63435" lon="0.06666">
        <ele>76.3</ele>
      </trkpt>
      <trkpt lat="44.63452" lon="0.06688">
        <ele>75.2</ele>
      </trkpt>
      <trkpt lat="44.63471" lon="0.06713">
        <ele>73.8</ele>
      </trkpt>
      <trkpt lat="44.6348" lon="0.06726">
        <ele>73.2</ele>
      </trkpt>
      <trkpt lat="44.63486" lon="0.06736">
        <ele>73.3</ele>
      </trkpt>
      <trkpt lat="44.63495" lon="0.06753">
        <ele>72.5</ele>
      </trkpt>
      <trkpt lat="44.63505" lon="0.06773">
        <ele>71.8</ele>
      </trkpt>
      <trkpt lat="44.63514" lon="0.06795">
        <ele>71.5</ele>
      </trkpt>
      <trkpt lat="44.63526" lon="0.0683">
        <ele>69.3</ele>
      </trkpt>
      <trkpt lat="44.63532" lon="0.06851">
        <ele>68.1</ele>
      </trkpt>
      <trkpt lat="44.63533" lon="0.06857">
        <ele>67.8</ele>
      </trkpt>
      <trkpt lat="44.63533" lon="0.06862">
        <ele>67.6</ele>
      </trkpt>
      <trkpt lat="44.63533" lon="0.06867">
        <ele>67.6</ele>
      </trkpt>
      <trkpt lat="44.63533" lon="0.06871">
        <ele>67.7</ele>
      </trkpt>
      <trkpt lat="44.63533" lon="0.06875">
        <ele>67.7</ele>
      </trkpt>
      <trkpt lat="44.63531" lon="0.06882">
        <ele>67.9</ele>
      </trkpt>
      <trkpt lat="44.63523" lon="0.06909">
        <ele>68.2</ele>
      </trkpt>
      <trkpt lat="44.63513" lon="0.06945">
        <ele>69</ele>
      </trkpt>
      <trkpt lat="44.63512" lon="0.06948">
        <ele>69.1</ele>
      </trkpt>
      <trkpt lat="44.63512" lon="0.06951">
        <ele>69.2</ele>
      </trkpt>
      <trkpt lat="44.63513" lon="0.06958">
        <ele>69.5</ele>
      </trkpt>
      <trkpt lat="44.63521" lon="0.0696">
        <ele>69.6</ele>
      </trkpt>
      <trkpt lat="44.63533" lon="0.06963">
        <ele>69.8</ele>
      </trkpt>
      <trkpt lat="44.63604" lon="0.06979">
        <ele>72.2</ele>
      </trkpt>
      <trkpt lat="44.63651" lon="0.0699">
        <ele>73.2</ele>
      </trkpt>
      <trkpt lat="44.63724" lon="0.07006">
        <ele>72.2</ele>
      </trkpt>
      <trkpt lat="44.63753" lon="0.07013">
        <ele>71.3</ele>
      </trkpt>
      <trkpt lat="44.6381" lon="0.07025">
        <ele>68</ele>
      </trkpt>
      <trkpt lat="44.63863" lon="0.07037">
        <ele>65.9</ele>
      </trkpt>
      <trkpt lat="44.63876" lon="0.0704">
        <ele>65.5</ele>
      </trkpt>
      <trkpt lat="44.63884" lon="0.07043">
        <ele>65.2</ele>
      </trkpt>
      <trkpt lat="44.63917" lon="0.07054">
        <ele>61.2</ele>
      </trkpt>
      <trkpt lat="44.63956" lon="0.07067">
        <ele>60.3</ele>
      </trkpt>
      <trkpt lat="44.63992" lon="0.0708">
        <ele>57.1</ele>
      </trkpt>
      <trkpt lat="44.63996" lon="0.0708">
        <ele>56.7</ele>
      </trkpt>
      <trkpt lat="44.64001" lon="0.07081">
        <ele>56.1</ele>
      </trkpt>
      <trkpt lat="44.64006" lon="0.07082">
        <ele>55.9</ele>
      </trkpt>
      <trkpt lat="44.64011" lon="0.07081">
        <ele>55.7</ele>
      </trkpt>
      <trkpt lat="44.64015" lon="0.0708">
        <ele>55.6</ele>
      </trkpt>
      <trkpt lat="44.64026" lon="0.07072">
        <ele>55.1</ele>
      </trkpt>
      <trkpt lat="44.6404" lon="0.07054">
        <ele>54.5</ele>
      </trkpt>
      <trkpt lat="44.64069" lon="0.07022">
        <ele>51.4</ele>
      </trkpt>
      <trkpt lat="44.64091" lon="0.07007">
        <ele>49.8</ele>
      </trkpt>
      <trkpt lat="44.64139" lon="0.0699">
        <ele>46</ele>
      </trkpt>
      <trkpt lat="44.64156" lon="0.06989">
        <ele>44.4</ele>
      </trkpt>
      <trkpt lat="44.64239" lon="0.06997">
        <ele>36.7</ele>
      </trkpt>
      <trkpt lat="44.64252" lon="0.07006">
        <ele>35.9</ele>
      </trkpt>
      <trkpt lat="44.64259" lon="0.07018">
        <ele>35.3</ele>
      </trkpt>
      <trkpt lat="44.64264" lon="0.07036">
        <ele>34.9</ele>
      </trkpt>
      <trkpt lat="44.64267" lon="0.07059">
        <ele>34.3</ele>
      </trkpt>
      <trkpt lat="44.64272" lon="0.07105">
        <ele>33.3</ele>
      </trkpt>
      <trkpt lat="44.64276" lon="0.07131">
        <ele>33.1</ele>
      </trkpt>
      <trkpt lat="44.64283" lon="0.07149">
        <ele>32.8</ele>
      </trkpt>
      <trkpt lat="44.6429" lon="0.07162">
        <ele>32.6</ele>
      </trkpt>
      <trkpt lat="44.64305" lon="0.0717">
        <ele>32.1</ele>
      </trkpt>
      <trkpt lat="44.64336" lon="0.07177">
        <ele>31.8</ele>
      </trkpt>
      <trkpt lat="44.64387" lon="0.07192">
        <ele>32.1</ele>
      </trkpt>
      <trkpt lat="44.6449" lon="0.0722">
        <ele>31.3</ele>
      </trkpt>
      <trkpt lat="44.64534" lon="0.07236">
        <ele>30.8</ele>
      </trkpt>
      <trkpt lat="44.64559" lon="0.07249">
        <ele>30</ele>
      </trkpt>
      <trkpt lat="44.64563" lon="0.07251">
        <ele>30</ele>
      </trkpt>
      <trkpt lat="44.64593" lon="0.07265">
        <ele>30.2</ele>
      </trkpt>
      <trkpt lat="44.64612" lon="0.07272">
        <ele>29.8</ele>
      </trkpt>
      <trkpt lat="44.64634" lon="0.07279">
        <ele>29.2</ele>
      </trkpt>
      <trkpt lat="44.64661" lon="0.0728">
        <ele>29.1</ele>
      </trkpt>
      <trkpt lat="44.64678" lon="0.07278">
        <ele>29</ele>
      </trkpt>
      <trkpt lat="44.64686" lon="0.07303">
        <ele>30.5</ele>
      </trkpt>
      <trkpt lat="44.64692" lon="0.0732">
        <ele>31.4</ele>
      </trkpt>
      <trkpt lat="44.64697" lon="0.07332">
        <ele>31.8</ele>
      </trkpt>
      <trkpt lat="44.64703" lon="0.07343">
        <ele>31.6</ele>
      </trkpt>
      <trkpt lat="44.6471" lon="0.07353">
        <ele>32.2</ele>
      </trkpt>
      <trkpt lat="44.64719" lon="0.07363">
        <ele>33.6</ele>
      </trkpt>
      <trkpt lat="44.64734" lon="0.07378">
        <ele>34.5</ele>
      </trkpt>
      <trkpt lat="44.64755" lon="0.07372">
        <ele>35.2</ele>
      </trkpt>
      <trkpt lat="44.64774" lon="0.07367">
        <ele>35.3</ele>
      </trkpt>
      <trkpt lat="44.64785" lon="0.07365">
        <ele>35</ele>
      </trkpt>
      <trkpt lat="44.64789" lon="0.07364">
        <ele>34.8</ele>
      </trkpt>
      <trkpt lat="44.648" lon="0.07412">
        <ele>37.8</ele>
      </trkpt>
      <trkpt lat="44.64805" lon="0.07437">
        <ele>41.6</ele>
      </trkpt>
      <trkpt lat="44.64808" lon="0.0744">
        <ele>42.1</ele>
      </trkpt>
      <trkpt lat="44.64819" lon="0.07447">
        <ele>43.2</ele>
      </trkpt>
      <trkpt lat="44.64816" lon="0.07461">
        <ele>47.1</ele>
      </trkpt>
      <trkpt lat="44.64826" lon="0.07497">
        <ele>55.9</ele>
      </trkpt>
      <trkpt lat="44.64831" lon="0.07501">
        <ele>56.9</ele>
      </trkpt>
      <trkpt lat="44.64835" lon="0.07505">
        <ele>57.3</ele>
      </trkpt>
      <trkpt lat="44.64844" lon="0.07513">
        <ele>57.4</ele>
      </trkpt>
      <trkpt lat="44.64863" lon="0.07535">
        <ele>58</ele>
      </trkpt>
      <trkpt lat="44.64912" lon="0.076">
        <ele>56.4</ele>
      </trkpt>
      <trkpt lat="44.64946" lon="0.07646">
        <ele>56.7</ele>
      </trkpt>
      <trkpt lat="44.6497" lon="0.07683">
        <ele>56.1</ele>
      </trkpt>
      <trkpt lat="44.64989" lon="0.07708">
        <ele>56.5</ele>
      </trkpt>
      <trkpt lat="44.6501" lon="0.07731">
        <ele>56.7</ele>
      </trkpt>
      <trkpt lat="44.65023" lon="0.07748">
        <ele>56.7</ele>
      </trkpt>
      <trkpt lat="44.65027" lon="0.07754">
        <ele>56.5</ele>
      </trkpt>
      <trkpt lat="44.65039" lon="0.07781">
        <ele>56</ele>
      </trkpt>
      <trkpt lat="44.65051" lon="0.07805">
        <ele>56</ele>
      </trkpt>
      <trkpt lat="44.65064" lon="0.0783">
        <ele>56.4</ele>
      </trkpt>
      <trkpt lat="44.65078" lon="0.07851">
        <ele>54.6</ele>
      </trkpt>
      <trkpt lat="44.65094" lon="0.07871">
        <ele>54.2</ele>
      </trkpt>
      <trkpt lat="44.65102" lon="0.07878">
        <ele>54</ele>
      </trkpt>
      <trkpt lat="44.65098" lon="0.07888">
        <ele>55.3</ele>
      </trkpt>
      <trkpt lat="44.65092" lon="0.07896">
        <ele>56.3</ele>
      </trkpt>
      <trkpt lat="44.65076" lon="0.07909">
        <ele>57.8</ele>
      </trkpt>
      <trkpt lat="44.65059" lon="0.07923">
        <ele>59.9</ele>
      </trkpt>
      <trkpt lat="44.65056" lon="0.07925">
        <ele>60.3</ele>
      </trkpt>
      <trkpt lat="44.65054" lon="0.07927">
        <ele>60.5</ele>
      </trkpt>
      <trkpt lat="44.65039" lon="0.0794">
        <ele>61.5</ele>
      </trkpt>
      <trkpt lat="44.65031" lon="0.07946">
        <ele>61.9</ele>
      </trkpt>
      <trkpt lat="44.65037" lon="0.07957">
        <ele>61.8</ele>
      </trkpt>
      <trkpt lat="44.65047" lon="0.07982">
        <ele>62.2</ele>
      </trkpt>
      <trkpt lat="44.65047" lon="0.07984">
        <ele>62.3</ele>
      </trkpt>
      <trkpt lat="44.65046" lon="0.07997">
        <ele>62.6</ele>
      </trkpt>
      <trkpt lat="44.65058" lon="0.08061">
        <ele>64.2</ele>
      </trkpt>
      <trkpt lat="44.6507" lon="0.08072">
        <ele>64.6</ele>
      </trkpt>
      <trkpt lat="44.65076" lon="0.08071">
        <ele>64.6</ele>
      </trkpt>
      <trkpt lat="44.65095" lon="0.08065">
        <ele>64.4</ele>
      </trkpt>
      <trkpt lat="44.65096" lon="0.08065">
        <ele>64.3</ele>
      </trkpt>
      <trkpt lat="44.651" lon="0.08064">
        <ele>64.3</ele>
      </trkpt>
      <trkpt lat="44.65125" lon="0.08062">
        <ele>64.1</ele>
      </trkpt>
      <trkpt lat="44.65125" lon="0.0804">
        <ele>64</ele>
      </trkpt>
      <trkpt lat="44.65145" lon="0.08028">
        <ele>63.8</ele>
      </trkpt>
      <trkpt lat="44.65159" lon="0.08002">
        <ele>62.4</ele>
      </trkpt>
      <trkpt lat="44.65168" lon="0.07991">
        <ele>62</ele>
      </trkpt>
      <trkpt lat="44.65216" lon="0.07975">
        <ele>59.6</ele>
      </trkpt>
      <trkpt lat="44.65233" lon="0.07971">
        <ele>57.6</ele>
      </trkpt>
      <trkpt lat="44.65251" lon="0.07975">
        <ele>56.3</ele>
      </trkpt>
      <trkpt lat="44.65274" lon="0.07996">
        <ele>55.9</ele>
      </trkpt>
      <trkpt lat="44.65284" lon="0.08035">
        <ele>57.6</ele>
      </trkpt>
      <trkpt lat="44.65285" lon="0.08057">
        <ele>57.8</ele>
      </trkpt>
      <trkpt lat="44.65286" lon="0.08079">
        <ele>57.6</ele>
      </trkpt>
      <trkpt lat="44.65282" lon="0.0811">
        <ele>57.3</ele>
      </trkpt>
      <trkpt lat="44.65274" lon="0.08171">
        <ele>59.5</ele>
      </trkpt>
      <trkpt lat="44.65271" lon="0.08229">
        <ele>60.3</ele>
      </trkpt>
      <trkpt lat="44.6527" lon="0.08257">
        <ele>59.3</ele>
      </trkpt>
      <trkpt lat="44.65264" lon="0.08284">
        <ele>58.9</ele>
      </trkpt>
      <trkpt lat="44.65258" lon="0.0831">
        <ele>58.7</ele>
      </trkpt>
      <trkpt lat="44.65245" lon="0.08343">
        <ele>59.6</ele>
      </trkpt>
      <trkpt lat="44.65232" lon="0.08377">
        <ele>59.4</ele>
      </trkpt>
      <trkpt lat="44.65219" lon="0.0841">
        <ele>60.3</ele>
      </trkpt>
      <trkpt lat="44.65215" lon="0.08445">
        <ele>59.8</ele>
      </trkpt>
      <trkpt lat="44.65211" lon="0.08479">
        <ele>58.6</ele>
      </trkpt>
      <trkpt lat="44.65212" lon="0.08534">
        <ele>57.3</ele>
      </trkpt>
      <trkpt lat="44.65232" lon="0.08536">
        <ele>50.4</ele>
      </trkpt>
      <trkpt lat="44.65252" lon="0.08538">
        <ele>43.1</ele>
      </trkpt>
      <trkpt lat="44.65262" lon="0.08541">
        <ele>40.7</ele>
      </trkpt>
      <trkpt lat="44.65268" lon="0.08554">
        <ele>39.1</ele>
      </trkpt>
      <trkpt lat="44.65274" lon="0.08589">
        <ele>37.5</ele>
      </trkpt>
      <trkpt lat="44.65279" lon="0.08623">
        <ele>36.3</ele>
      </trkpt>
      <trkpt lat="44.65289" lon="0.08639">
        <ele>34.1</ele>
      </trkpt>
      <trkpt lat="44.65301" lon="0.08647">
        <ele>31.9</ele>
      </trkpt>
      <trkpt lat="44.65327" lon="0.08642">
        <ele>25.5</ele>
      </trkpt>
      <trkpt lat="44.65342" lon="0.08617">
        <ele>24.2</ele>
      </trkpt>
      <trkpt lat="44.65356" lon="0.08593">
        <ele>22</ele>
      </trkpt>
      <trkpt lat="44.6536" lon="0.08534">
        <ele>23.1</ele>
      </trkpt>
      <trkpt lat="44.65362" lon="0.08505">
        <ele>23</ele>
      </trkpt>
      <trkpt lat="44.65347" lon="0.08472">
        <ele>24.1</ele>
      </trkpt>
      <trkpt lat="44.65344" lon="0.08419">
        <ele>24.7</ele>
      </trkpt>
      <trkpt lat="44.65348" lon="0.08387">
        <ele>24.4</ele>
      </trkpt>
      <trkpt lat="44.65352" lon="0.08356">
        <ele>24.4</ele>
      </trkpt>
      <trkpt lat="44.65352" lon="0.0833">
        <ele>24.4</ele>
      </trkpt>
      <trkpt lat="44.65352" lon="0.08303">
        <ele>25</ele>
      </trkpt>
      <trkpt lat="44.65363" lon="0.08222">
        <ele>24.7</ele>
      </trkpt>
      <trkpt lat="44.65368" lon="0.08181">
        <ele>23.6</ele>
      </trkpt>
      <trkpt lat="44.65374" lon="0.0814">
        <ele>23.1</ele>
      </trkpt>
      <trkpt lat="44.65377" lon="0.08099">
        <ele>23.1</ele>
      </trkpt>
      <trkpt lat="44.65379" lon="0.08059">
        <ele>23.9</ele>
      </trkpt>
      <trkpt lat="44.65386" lon="0.08024">
        <ele>23.4</ele>
      </trkpt>
      <trkpt lat="44.65392" lon="0.07989">
        <ele>22.7</ele>
      </trkpt>
      <trkpt lat="44.65412" lon="0.07885">
        <ele>23</ele>
      </trkpt>
      <trkpt lat="44.6542" lon="0.07858">
        <ele>22.8</ele>
      </trkpt>
      <trkpt lat="44.65428" lon="0.07831">
        <ele>23</ele>
      </trkpt>
      <trkpt lat="44.65429" lon="0.07804">
        <ele>23</ele>
      </trkpt>
      <trkpt lat="44.65429" lon="0.07778">
        <ele>23</ele>
      </trkpt>
      <trkpt lat="44.65419" lon="0.07745">
        <ele>22.6</ele>
      </trkpt>
      <trkpt lat="44.65397" lon="0.07738">
        <ele>23.3</ele>
      </trkpt>
      <trkpt lat="44.65369" lon="0.0774">
        <ele>23.8</ele>
      </trkpt>
      <trkpt lat="44.65357" lon="0.07727">
        <ele>24.7</ele>
      </trkpt>
      <trkpt lat="44.65451" lon="0.07686">
        <ele>24.3</ele>
      </trkpt>
      <trkpt lat="44.655" lon="0.07665">
        <ele>24</ele>
      </trkpt>
      <trkpt lat="44.65544" lon="0.07649">
        <ele>23.5</ele>
      </trkpt>
      <trkpt lat="44.65575" lon="0.07641">
        <ele>23.9</ele>
      </trkpt>
      <trkpt lat="44.65605" lon="0.07633">
        <ele>23.8</ele>
      </trkpt>
      <trkpt lat="44.65636" lon="0.07625">
        <ele>23.5</ele>
      </trkpt>
      <trkpt lat="44.65651" lon="0.0762">
        <ele>23.7</ele>
      </trkpt>
      <trkpt lat="44.65704" lon="0.07605">
        <ele>23.8</ele>
      </trkpt>
      <trkpt lat="44.65783" lon="0.07583">
        <ele>24</ele>
      </trkpt>
      <trkpt lat="44.65806" lon="0.07568">
        <ele>24</ele>
      </trkpt>
      <trkpt lat="44.65826" lon="0.07551">
        <ele>24.6</ele>
      </trkpt>
      <trkpt lat="44.65846" lon="0.07534">
        <ele>24.5</ele>
      </trkpt>
      <trkpt lat="44.65886" lon="0.07496">
        <ele>25.8</ele>
      </trkpt>
      <trkpt lat="44.65906" lon="0.07477">
        <ele>25.1</ele>
      </trkpt>
      <trkpt lat="44.65997" lon="0.07396">
        <ele>26.3</ele>
      </trkpt>
      <trkpt lat="44.66022" lon="0.07376">
        <ele>27.4</ele>
      </trkpt>
      <trkpt lat="44.66048" lon="0.07356">
        <ele>27.8</ele>
      </trkpt>
      <trkpt lat="44.66072" lon="0.07335">
        <ele>28.6</ele>
      </trkpt>
      <trkpt lat="44.66121" lon="0.07292">
        <ele>29</ele>
      </trkpt>
      <trkpt lat="44.66071" lon="0.07187">
        <ele>29.2</ele>
      </trkpt>
      <trkpt lat="44.66055" lon="0.07153">
        <ele>28</ele>
      </trkpt>
      <trkpt lat="44.66027" lon="0.07098">
        <ele>27.5</ele>
      </trkpt>
      <trkpt lat="44.66011" lon="0.07076">
        <ele>28.3</ele>
      </trkpt>
      <trkpt lat="44.65993" lon="0.07056">
        <ele>29</ele>
      </trkpt>
      <trkpt lat="44.65974" lon="0.07036">
        <ele>29</ele>
      </trkpt>
      <trkpt lat="44.6595" lon="0.06991">
        <ele>29</ele>
      </trkpt>
      <trkpt lat="44.65924" lon="0.06935">
        <ele>29.1</ele>
      </trkpt>
      <trkpt lat="44.65905" lon="0.06869">
        <ele>29.4</ele>
      </trkpt>
      <trkpt lat="44.65898" lon="0.06833">
        <ele>29.3</ele>
      </trkpt>
      <trkpt lat="44.6589" lon="0.06796">
        <ele>30</ele>
      </trkpt>
      <trkpt lat="44.65883" lon="0.06756">
        <ele>30.6</ele>
      </trkpt>
      <trkpt lat="44.65875" lon="0.06715">
        <ele>30.8</ele>
      </trkpt>
      <trkpt lat="44.65868" lon="0.06675">
        <ele>31.3</ele>
      </trkpt>
      <trkpt lat="44.6586" lon="0.06647">
        <ele>31.7</ele>
      </trkpt>
      <trkpt lat="44.65851" lon="0.06619">
        <ele>31.9</ele>
      </trkpt>
      <trkpt lat="44.65879" lon="0.06602">
        <ele>32.6</ele>
      </trkpt>
      <trkpt lat="44.65906" lon="0.06585">
        <ele>33</ele>
      </trkpt>
      <trkpt lat="44.65934" lon="0.06567">
        <ele>34.1</ele>
      </trkpt>
      <trkpt lat="44.65956" lon="0.0655">
        <ele>34.5</ele>
      </trkpt>
      <trkpt lat="44.65981" lon="0.06525">
        <ele>34.8</ele>
      </trkpt>
      <trkpt lat="44.6599" lon="0.06517">
        <ele>35.5</ele>
      </trkpt>
      <trkpt lat="44.66007" lon="0.06511">
        <ele>36.1</ele>
      </trkpt>
      <trkpt lat="44.66031" lon="0.06512">
        <ele>36.6</ele>
      </trkpt>
      <trkpt lat="44.66063" lon="0.06514">
        <ele>36.8</ele>
      </trkpt>
      <trkpt lat="44.6609" lon="0.06517">
        <ele>37.5</ele>
      </trkpt>
      <trkpt lat="44.66116" lon="0.0652">
        <ele>38.1</ele>
      </trkpt>
      <trkpt lat="44.66143" lon="0.06523">
        <ele>38.3</ele>
      </trkpt>
      <trkpt lat="44.66159" lon="0.06499">
        <ele>39.8</ele>
      </trkpt>
      <trkpt lat="44.66176" lon="0.06475">
        <ele>41.3</ele>
      </trkpt>
      <trkpt lat="44.66196" lon="0.06444">
        <ele>43.2</ele>
      </trkpt>
      <trkpt lat="44.66216" lon="0.06413">
        <ele>46.9</ele>
      </trkpt>
      <trkpt lat="44.66234" lon="0.06389">
        <ele>50.4</ele>
      </trkpt>
      <trkpt lat="44.66251" lon="0.06365">
        <ele>55.3</ele>
      </trkpt>
      <trkpt lat="44.66269" lon="0.06341">
        <ele>59</ele>
      </trkpt>
      <trkpt lat="44.66281" lon="0.06322">
        <ele>60.8</ele>
      </trkpt>
      <trkpt lat="44.66292" lon="0.06303">
        <ele>61.7</ele>
      </trkpt>
      <trkpt lat="44.66303" lon="0.06273">
        <ele>63.4</ele>
      </trkpt>
      <trkpt lat="44.66314" lon="0.06242">
        <ele>65.1</ele>
      </trkpt>
      <trkpt lat="44.66324" lon="0.06206">
        <ele>67.3</ele>
      </trkpt>
      <trkpt lat="44.66344" lon="0.06132">
        <ele>70.7</ele>
      </trkpt>
      <trkpt lat="44.66368" lon="0.06065">
        <ele>72.9</ele>
      </trkpt>
      <trkpt lat="44.66391" lon="0.05997">
        <ele>75.1</ele>
      </trkpt>
      <trkpt lat="44.66414" lon="0.05968">
        <ele>76</ele>
      </trkpt>
      <trkpt lat="44.66429" lon="0.05952">
        <ele>77.4</ele>
      </trkpt>
      <trkpt lat="44.66442" lon="0.05942">
        <ele>77.9</ele>
      </trkpt>
      <trkpt lat="44.66523" lon="0.059">
        <ele>79.6</ele>
      </trkpt>
      <trkpt lat="44.66568" lon="0.05872">
        <ele>79.8</ele>
      </trkpt>
      <trkpt lat="44.66591" lon="0.05858">
        <ele>80.2</ele>
      </trkpt>
      <trkpt lat="44.66618" lon="0.05834">
        <ele>79</ele>
      </trkpt>
      <trkpt lat="44.66639" lon="0.05815">
        <ele>76.7</ele>
      </trkpt>
      <trkpt lat="44.66656" lon="0.05788">
        <ele>76.5</ele>
      </trkpt>
      <trkpt lat="44.66673" lon="0.05761">
        <ele>76.8</ele>
      </trkpt>
      <trkpt lat="44.66696" lon="0.05735">
        <ele>78.2</ele>
      </trkpt>
      <trkpt lat="44.66741" lon="0.05691">
        <ele>83.9</ele>
      </trkpt>
      <trkpt lat="44.66763" lon="0.05669">
        <ele>85.9</ele>
      </trkpt>
      <trkpt lat="44.66776" lon="0.05655">
        <ele>86.4</ele>
      </trkpt>
      <trkpt lat="44.6679" lon="0.05641">
        <ele>86.9</ele>
      </trkpt>
      <trkpt lat="44.66777" lon="0.05601">
        <ele>88.4</ele>
      </trkpt>
      <trkpt lat="44.6676" lon="0.05564">
        <ele>89.6</ele>
      </trkpt>
      <trkpt lat="44.66743" lon="0.05527">
        <ele>90.3</ele>
      </trkpt>
      <trkpt lat="44.66729" lon="0.05478">
        <ele>92.8</ele>
      </trkpt>
      <trkpt lat="44.66728" lon="0.0545">
        <ele>94.4</ele>
      </trkpt>
      <trkpt lat="44.66727" lon="0.05423">
        <ele>95.6</ele>
      </trkpt>
      <trkpt lat="44.66724" lon="0.05395">
        <ele>96</ele>
      </trkpt>
      <trkpt lat="44.66722" lon="0.05368">
        <ele>96.7</ele>
      </trkpt>
      <trkpt lat="44.66715" lon="0.05328">
        <ele>97.9</ele>
      </trkpt>
      <trkpt lat="44.66704" lon="0.05294">
        <ele>98.3</ele>
      </trkpt>
      <trkpt lat="44.66729" lon="0.05281">
        <ele>99.2</ele>
      </trkpt>
      <trkpt lat="44.66754" lon="0.05268">
        <ele>100.3</ele>
      </trkpt>
      <trkpt lat="44.66779" lon="0.05255">
        <ele>100.8</ele>
      </trkpt>
      <trkpt lat="44.66805" lon="0.05242">
        <ele>101.3</ele>
      </trkpt>
      <trkpt lat="44.66814" lon="0.05233">
        <ele>101.6</ele>
      </trkpt>
      <trkpt lat="44.66815" lon="0.05219">
        <ele>102.2</ele>
      </trkpt>
      <trkpt lat="44.66806" lon="0.05199">
        <ele>102.8</ele>
      </trkpt>
      <trkpt lat="44.66796" lon="0.0518">
        <ele>103.9</ele>
      </trkpt>
      <trkpt lat="44.66795" lon="0.05157">
        <ele>104.8</ele>
      </trkpt>
      <trkpt lat="44.66801" lon="0.05131">
        <ele>105.7</ele>
      </trkpt>
      <trkpt lat="44.66825" lon="0.05061">
        <ele>107.4</ele>
      </trkpt>
      <trkpt lat="44.66842" lon="0.05024">
        <ele>108.3</ele>
      </trkpt>
      <trkpt lat="44.66923" lon="0.04902">
        <ele>111.2</ele>
      </trkpt>
      <trkpt lat="44.66939" lon="0.04879">
        <ele>111.8</ele>
      </trkpt>
      <trkpt lat="44.66971" lon="0.04835">
        <ele>113.9</ele>
      </trkpt>
      <trkpt lat="44.66992" lon="0.04804">
        <ele>114.8</ele>
      </trkpt>
      <trkpt lat="44.67013" lon="0.04773">
        <ele>115.2</ele>
      </trkpt>
      <trkpt lat="44.67084" lon="0.04644">
        <ele>106.1</ele>
      </trkpt>
      <trkpt lat="44.67102" lon="0.04612">
        <ele>104</ele>
      </trkpt>
      <trkpt lat="44.67124" lon="0.04637">
        <ele>103.5</ele>
      </trkpt>
      <trkpt lat="44.67145" lon="0.04661">
        <ele>103.6</ele>
      </trkpt>
      <trkpt lat="44.67171" lon="0.04682">
        <ele>103.6</ele>
      </trkpt>
      <trkpt lat="44.67198" lon="0.04694">
        <ele>104</ele>
      </trkpt>
      <trkpt lat="44.67226" lon="0.04702">
        <ele>103.7</ele>
      </trkpt>
      <trkpt lat="44.67254" lon="0.04709">
        <ele>103.5</ele>
      </trkpt>
      <trkpt lat="44.67301" lon="0.04725">
        <ele>103.7</ele>
      </trkpt>
      <trkpt lat="44.67327" lon="0.04736">
        <ele>104.2</ele>
      </trkpt>
      <trkpt lat="44.67353" lon="0.04747">
        <ele>103.4</ele>
      </trkpt>
      <trkpt lat="44.6738" lon="0.04764">
        <ele>102.3</ele>
      </trkpt>
      <trkpt lat="44.67406" lon="0.04783">
        <ele>100.7</ele>
      </trkpt>
      <trkpt lat="44.67431" lon="0.04803">
        <ele>99.6</ele>
      </trkpt>
      <trkpt lat="44.67482" lon="0.04841">
        <ele>97.7</ele>
      </trkpt>
      <trkpt lat="44.67504" lon="0.04858">
        <ele>96.8</ele>
      </trkpt>
      <trkpt lat="44.67527" lon="0.04876">
        <ele>96</ele>
      </trkpt>
      <trkpt lat="44.67554" lon="0.04899">
        <ele>96.4</ele>
      </trkpt>
      <trkpt lat="44.67574" lon="0.04919">
        <ele>97.1</ele>
      </trkpt>
      <trkpt lat="44.67588" lon="0.04944">
        <ele>97.8</ele>
      </trkpt>
      <trkpt lat="44.67602" lon="0.04984">
        <ele>98.7</ele>
      </trkpt>
      <trkpt lat="44.67609" lon="0.05009">
        <ele>99.4</ele>
      </trkpt>
      <trkpt lat="44.67616" lon="0.05034">
        <ele>100.4</ele>
      </trkpt>
      <trkpt lat="44.67628" lon="0.05066">
        <ele>101.3</ele>
      </trkpt>
      <trkpt lat="44.67636" lon="0.05086">
        <ele>101.1</ele>
      </trkpt>
      <trkpt lat="44.67648" lon="0.05105">
        <ele>101.2</ele>
      </trkpt>
      <trkpt lat="44.67684" lon="0.05144">
        <ele>99.4</ele>
      </trkpt>
      <trkpt lat="44.67712" lon="0.05166">
        <ele>98.4</ele>
      </trkpt>
      <trkpt lat="44.67747" lon="0.05187">
        <ele>98.7</ele>
      </trkpt>
      <trkpt lat="44.67766" lon="0.05196">
        <ele>99</ele>
      </trkpt>
      <trkpt lat="44.67785" lon="0.05205">
        <ele>98.9</ele>
      </trkpt>
      <trkpt lat="44.67812" lon="0.05218">
        <ele>98.3</ele>
      </trkpt>
      <trkpt lat="44.67839" lon="0.05231">
        <ele>98.9</ele>
      </trkpt>
      <trkpt lat="44.67893" lon="0.05257">
        <ele>98.6</ele>
      </trkpt>
      <trkpt lat="44.67918" lon="0.05268">
        <ele>98.9</ele>
      </trkpt>
      <trkpt lat="44.67943" lon="0.0528">
        <ele>97.2</ele>
      </trkpt>
      <trkpt lat="44.67968" lon="0.05291">
        <ele>96.7</ele>
      </trkpt>
      <trkpt lat="44.67995" lon="0.05308">
        <ele>95.2</ele>
      </trkpt>
      <trkpt lat="44.68023" lon="0.05325">
        <ele>94.9</ele>
      </trkpt>
      <trkpt lat="44.68076" lon="0.05361">
        <ele>95</ele>
      </trkpt>
      <trkpt lat="44.68129" lon="0.05398">
        <ele>94.3</ele>
      </trkpt>
      <trkpt lat="44.68186" lon="0.05439">
        <ele>94.2</ele>
      </trkpt>
      <trkpt lat="44.68242" lon="0.05479">
        <ele>94.3</ele>
      </trkpt>
      <trkpt lat="44.68271" lon="0.05499">
        <ele>93.8</ele>
      </trkpt>
      <trkpt lat="44.68327" lon="0.05539">
        <ele>94.8</ele>
      </trkpt>
      <trkpt lat="44.68351" lon="0.05556">
        <ele>95</ele>
      </trkpt>
      <trkpt lat="44.68375" lon="0.05573">
        <ele>95.5</ele>
      </trkpt>
      <trkpt lat="44.68423" lon="0.05607">
        <ele>95.4</ele>
      </trkpt>
      <trkpt lat="44.68451" lon="0.05627">
        <ele>95.7</ele>
      </trkpt>
      <trkpt lat="44.68479" lon="0.05647">
        <ele>96</ele>
      </trkpt>
      <trkpt lat="44.68498" lon="0.05657">
        <ele>96</ele>
      </trkpt>
      <trkpt lat="44.68517" lon="0.05668">
        <ele>95.5</ele>
      </trkpt>
      <trkpt lat="44.68537" lon="0.05671">
        <ele>95.2</ele>
      </trkpt>
      <trkpt lat="44.68546" lon="0.0568">
        <ele>95.3</ele>
      </trkpt>
      <trkpt lat="44.68556" lon="0.05699">
        <ele>95.3</ele>
      </trkpt>
      <trkpt lat="44.68536" lon="0.05713">
        <ele>96.3</ele>
      </trkpt>
      <trkpt lat="44.68516" lon="0.05727">
        <ele>96.5</ele>
      </trkpt>
      <trkpt lat="44.6847" lon="0.05774">
        <ele>96.1</ele>
      </trkpt>
      <trkpt lat="44.68448" lon="0.05799">
        <ele>95.4</ele>
      </trkpt>
      <trkpt lat="44.6843" lon="0.05812">
        <ele>94.5</ele>
      </trkpt>
      <trkpt lat="44.68412" lon="0.05825">
        <ele>93.1</ele>
      </trkpt>
      <trkpt lat="44.68447" lon="0.05865">
        <ele>94.2</ele>
      </trkpt>
      <trkpt lat="44.68465" lon="0.05885">
        <ele>94.9</ele>
      </trkpt>
      <trkpt lat="44.68496" lon="0.05914">
        <ele>94.2</ele>
      </trkpt>
      <trkpt lat="44.68513" lon="0.05929">
        <ele>94.1</ele>
      </trkpt>
      <trkpt lat="44.68531" lon="0.05944">
        <ele>93.3</ele>
      </trkpt>
      <trkpt lat="44.68551" lon="0.05973">
        <ele>92.8</ele>
      </trkpt>
      <trkpt lat="44.68566" lon="0.06008">
        <ele>92.1</ele>
      </trkpt>
      <trkpt lat="44.6858" lon="0.06043">
        <ele>93.1</ele>
      </trkpt>
      <trkpt lat="44.68599" lon="0.0606">
        <ele>93.4</ele>
      </trkpt>
      <trkpt lat="44.68617" lon="0.06072">
        <ele>93.5</ele>
      </trkpt>
      <trkpt lat="44.68639" lon="0.06084">
        <ele>93</ele>
      </trkpt>
      <trkpt lat="44.68656" lon="0.06088">
        <ele>93.2</ele>
      </trkpt>
      <trkpt lat="44.68674" lon="0.06093">
        <ele>93.2</ele>
      </trkpt>
      <trkpt lat="44.68699" lon="0.06103">
        <ele>93.2</ele>
      </trkpt>
      <trkpt lat="44.68729" lon="0.06117">
        <ele>93.9</ele>
      </trkpt>
      <trkpt lat="44.68759" lon="0.06135">
        <ele>93.6</ele>
      </trkpt>
      <trkpt lat="44.68804" lon="0.0615">
        <ele>94.1</ele>
      </trkpt>
      <trkpt lat="44.68828" lon="0.06156">
        <ele>95.1</ele>
      </trkpt>
      <trkpt lat="44.68852" lon="0.06161">
        <ele>95.9</ele>
      </trkpt>
      <trkpt lat="44.68901" lon="0.06168">
        <ele>96.5</ele>
      </trkpt>
      <trkpt lat="44.68924" lon="0.06169">
        <ele>97.6</ele>
      </trkpt>
      <trkpt lat="44.68948" lon="0.0617">
        <ele>99.4</ele>
      </trkpt>
      <trkpt lat="44.68971" lon="0.06171">
        <ele>101.7</ele>
      </trkpt>
      <trkpt lat="44.68993" lon="0.06176">
        <ele>102.4</ele>
      </trkpt>
      <trkpt lat="44.69015" lon="0.06181">
        <ele>103.3</ele>
      </trkpt>
      <trkpt lat="44.69042" lon="0.06196">
        <ele>104.1</ele>
      </trkpt>
      <trkpt lat="44.6907" lon="0.0621">
        <ele>105.5</ele>
      </trkpt>
      <trkpt lat="44.6912" lon="0.06239">
        <ele>107.7</ele>
      </trkpt>
      <trkpt lat="44.69146" lon="0.06253">
        <ele>108.3</ele>
      </trkpt>
      <trkpt lat="44.69153" lon="0.06216">
        <ele>107.8</ele>
      </trkpt>
      <trkpt lat="44.69166" lon="0.06141">
        <ele>105.1</ele>
      </trkpt>
      <trkpt lat="44.69173" lon="0.06123">
        <ele>104.6</ele>
      </trkpt>
      <trkpt lat="44.69185" lon="0.06108">
        <ele>104.4</ele>
      </trkpt>
      <trkpt lat="44.692" lon="0.06103">
        <ele>104.6</ele>
      </trkpt>
      <trkpt lat="44.69231" lon="0.06098">
        <ele>105</ele>
      </trkpt>
      <trkpt lat="44.69262" lon="0.06092">
        <ele>104.5</ele>
      </trkpt>
      <trkpt lat="44.69293" lon="0.06087">
        <ele>103.2</ele>
      </trkpt>
      <trkpt lat="44.69374" lon="0.0607">
        <ele>100</ele>
      </trkpt>
      <trkpt lat="44.69401" lon="0.06065">
        <ele>99.3</ele>
      </trkpt>
    </trkseg>
  </trk>
  <trk>
    <name><![CDATA[Depuis Hendaye BkPk_3]]></name>
    <extensions>
      <line xmlns="http://www.topografix.com/GPX/gpx_style/0/2">
        <color>ffae00</color>
        <width>4</width>
      </line>
    </extensions>
    <trkseg>
      <trkpt lat="43.32717" lon="-1.03243">
        <ele>47.1</ele>
      </trkpt>
      <trkpt lat="43.32774" lon="-1.03321">
        <ele>48.9</ele>
      </trkpt>
      <trkpt lat="43.32815" lon="-1.03376">
        <ele>50.9</ele>
      </trkpt>
      <trkpt lat="43.32865" lon="-1.03452">
        <ele>52.4</ele>
      </trkpt>
      <trkpt lat="43.32891" lon="-1.03486">
        <ele>53</ele>
      </trkpt>
      <trkpt lat="43.32927" lon="-1.03519">
        <ele>52.4</ele>
      </trkpt>
      <trkpt lat="43.32959" lon="-1.03543">
        <ele>49.9</ele>
      </trkpt>
      <trkpt lat="43.32994" lon="-1.03566">
        <ele>47.8</ele>
      </trkpt>
      <trkpt lat="43.33018" lon="-1.03572">
        <ele>47.1</ele>
      </trkpt>
      <trkpt lat="43.33016" lon="-1.03603">
        <ele>45.3</ele>
      </trkpt>
      <trkpt lat="43.33022" lon="-1.03649">
        <ele>42.5</ele>
      </trkpt>
      <trkpt lat="43.33027" lon="-1.03681">
        <ele>45.4</ele>
      </trkpt>
      <trkpt lat="43.33036" lon="-1.03721">
        <ele>44.3</ele>
      </trkpt>
      <trkpt lat="43.33044" lon="-1.03759">
        <ele>44.6</ele>
      </trkpt>
      <trkpt lat="43.33054" lon="-1.03802">
        <ele>45.8</ele>
      </trkpt>
      <trkpt lat="43.33046" lon="-1.03811">
        <ele>45.4</ele>
      </trkpt>
      <trkpt lat="43.33041" lon="-1.03822">
        <ele>45.3</ele>
      </trkpt>
      <trkpt lat="43.33042" lon="-1.03836">
        <ele>45.5</ele>
      </trkpt>
      <trkpt lat="43.33034" lon="-1.03844">
        <ele>45.2</ele>
      </trkpt>
      <trkpt lat="43.33021" lon="-1.03845">
        <ele>44.8</ele>
      </trkpt>
      <trkpt lat="43.33012" lon="-1.03861">
        <ele>44.4</ele>
      </trkpt>
      <trkpt lat="43.3299" lon="-1.03902">
        <ele>44.5</ele>
      </trkpt>
      <trkpt lat="43.32972" lon="-1.0393">
        <ele>46</ele>
      </trkpt>
      <trkpt lat="43.32949" lon="-1.03949">
        <ele>46.5</ele>
      </trkpt>
      <trkpt lat="43.32913" lon="-1.03968">
        <ele>48.4</ele>
      </trkpt>
      <trkpt lat="43.32879" lon="-1.03985">
        <ele>48.8</ele>
      </trkpt>
      <trkpt lat="43.32854" lon="-1.04004">
        <ele>49</ele>
      </trkpt>
      <trkpt lat="43.32825" lon="-1.04028">
        <ele>49</ele>
      </trkpt>
      <trkpt lat="43.32807" lon="-1.04051">
        <ele>49.9</ele>
      </trkpt>
      <trkpt lat="43.32789" lon="-1.04094">
        <ele>52</ele>
      </trkpt>
      <trkpt lat="43.32764" lon="-1.04151">
        <ele>54.3</ele>
      </trkpt>
      <trkpt lat="43.32746" lon="-1.04195">
        <ele>53.6</ele>
      </trkpt>
      <trkpt lat="43.32717" lon="-1.04251">
        <ele>53.5</ele>
      </trkpt>
      <trkpt lat="43.32692" lon="-1.04311">
        <ele>53.4</ele>
      </trkpt>
      <trkpt lat="43.32674" lon="-1.04359">
        <ele>55.8</ele>
      </trkpt>
      <trkpt lat="43.32673" lon="-1.04382">
        <ele>55.4</ele>
      </trkpt>
      <trkpt lat="43.32679" lon="-1.04407">
        <ele>55</ele>
      </trkpt>
      <trkpt lat="43.32681" lon="-1.04432">
        <ele>55.1</ele>
      </trkpt>
      <trkpt lat="43.32679" lon="-1.04449">
        <ele>55.7</ele>
      </trkpt>
      <trkpt lat="43.32674" lon="-1.04482">
        <ele>56.8</ele>
      </trkpt>
      <trkpt lat="43.32665" lon="-1.0457">
        <ele>56.3</ele>
      </trkpt>
      <trkpt lat="43.32656" lon="-1.04649">
        <ele>59.1</ele>
      </trkpt>
      <trkpt lat="43.32647" lon="-1.04736">
        <ele>59.8</ele>
      </trkpt>
      <trkpt lat="43.32625" lon="-1.04869">
        <ele>61.2</ele>
      </trkpt>
      <trkpt lat="43.32622" lon="-1.04903">
        <ele>62.3</ele>
      </trkpt>
      <trkpt lat="43.32604" lon="-1.04941">
        <ele>62.9</ele>
      </trkpt>
      <trkpt lat="43.32585" lon="-1.04985">
        <ele>62.7</ele>
      </trkpt>
      <trkpt lat="43.32575" lon="-1.05016">
        <ele>62.9</ele>
      </trkpt>
      <trkpt lat="43.32569" lon="-1.05048">
        <ele>63</ele>
      </trkpt>
      <trkpt lat="43.32573" lon="-1.05074">
        <ele>61.6</ele>
      </trkpt>
      <trkpt lat="43.3258" lon="-1.051">
        <ele>58.9</ele>
      </trkpt>
      <trkpt lat="43.32604" lon="-1.05153">
        <ele>58.1</ele>
      </trkpt>
      <trkpt lat="43.32611" lon="-1.05198">
        <ele>57</ele>
      </trkpt>
      <trkpt lat="43.32622" lon="-1.05219">
        <ele>57.9</ele>
      </trkpt>
      <trkpt lat="43.32631" lon="-1.0524">
        <ele>58.5</ele>
      </trkpt>
      <trkpt lat="43.32649" lon="-1.05305">
        <ele>58.7</ele>
      </trkpt>
      <trkpt lat="43.32662" lon="-1.05345">
        <ele>59.8</ele>
      </trkpt>
      <trkpt lat="43.3267" lon="-1.05379">
        <ele>59.6</ele>
      </trkpt>
      <trkpt lat="43.32669" lon="-1.05427">
        <ele>59.2</ele>
      </trkpt>
      <trkpt lat="43.32687" lon="-1.05461">
        <ele>61.7</ele>
      </trkpt>
      <trkpt lat="43.32709" lon="-1.05496">
        <ele>62.9</ele>
      </trkpt>
      <trkpt lat="43.32716" lon="-1.05517">
        <ele>64.5</ele>
      </trkpt>
      <trkpt lat="43.32735" lon="-1.0553">
        <ele>65.2</ele>
      </trkpt>
      <trkpt lat="43.32765" lon="-1.05548">
        <ele>65.9</ele>
      </trkpt>
      <trkpt lat="43.32786" lon="-1.05561">
        <ele>66.4</ele>
      </trkpt>
      <trkpt lat="43.32816" lon="-1.05571">
        <ele>66.5</ele>
      </trkpt>
      <trkpt lat="43.32903" lon="-1.05605">
        <ele>69.9</ele>
      </trkpt>
      <trkpt lat="43.32942" lon="-1.05617">
        <ele>71.8</ele>
      </trkpt>
      <trkpt lat="43.32972" lon="-1.05627">
        <ele>73.5</ele>
      </trkpt>
      <trkpt lat="43.32989" lon="-1.05635">
        <ele>73.7</ele>
      </trkpt>
      <trkpt lat="43.3301" lon="-1.05634">
        <ele>73.7</ele>
      </trkpt>
      <trkpt lat="43.3307" lon="-1.05629">
        <ele>77.8</ele>
      </trkpt>
      <trkpt lat="43.33095" lon="-1.05627">
        <ele>78.7</ele>
      </trkpt>
      <trkpt lat="43.33148" lon="-1.05632">
        <ele>82</ele>
      </trkpt>
      <trkpt lat="43.3318" lon="-1.05638">
        <ele>83.3</ele>
      </trkpt>
      <trkpt lat="43.33219" lon="-1.05641">
        <ele>85.8</ele>
      </trkpt>
      <trkpt lat="43.33257" lon="-1.0565">
        <ele>87.7</ele>
      </trkpt>
      <trkpt lat="43.33275" lon="-1.05648">
        <ele>88.7</ele>
      </trkpt>
      <trkpt lat="43.33297" lon="-1.05638">
        <ele>88.4</ele>
      </trkpt>
      <trkpt lat="43.33329" lon="-1.05629">
        <ele>92</ele>
      </trkpt>
      <trkpt lat="43.33382" lon="-1.05638">
        <ele>95.8</ele>
      </trkpt>
      <trkpt lat="43.33416" lon="-1.05644">
        <ele>96.3</ele>
      </trkpt>
      <trkpt lat="43.33466" lon="-1.05667">
        <ele>96.2</ele>
      </trkpt>
      <trkpt lat="43.33505" lon="-1.0569">
        <ele>99</ele>
      </trkpt>
      <trkpt lat="43.33547" lon="-1.05726">
        <ele>101.6</ele>
      </trkpt>
      <trkpt lat="43.33595" lon="-1.05767">
        <ele>104</ele>
      </trkpt>
      <trkpt lat="43.33656" lon="-1.05836">
        <ele>105.9</ele>
      </trkpt>
      <trkpt lat="43.33711" lon="-1.05886">
        <ele>110.4</ele>
      </trkpt>
      <trkpt lat="43.33741" lon="-1.05907">
        <ele>113.8</ele>
      </trkpt>
      <trkpt lat="43.33846" lon="-1.05964">
        <ele>124.2</ele>
      </trkpt>
      <trkpt lat="43.33899" lon="-1.05997">
        <ele>130.6</ele>
      </trkpt>
      <trkpt lat="43.33955" lon="-1.06032">
        <ele>134.5</ele>
      </trkpt>
      <trkpt lat="43.33958" lon="-1.06058">
        <ele>135</ele>
      </trkpt>
      <trkpt lat="43.3398" lon="-1.0609">
        <ele>134.6</ele>
      </trkpt>
      <trkpt lat="43.33993" lon="-1.06081">
        <ele>134.2</ele>
      </trkpt>
      <trkpt lat="43.34006" lon="-1.06105">
        <ele>132.4</ele>
      </trkpt>
      <trkpt lat="43.34014" lon="-1.06129">
        <ele>131</ele>
      </trkpt>
      <trkpt lat="43.34019" lon="-1.06153">
        <ele>130.4</ele>
      </trkpt>
      <trkpt lat="43.34039" lon="-1.06145">
        <ele>127.2</ele>
      </trkpt>
      <trkpt lat="43.34055" lon="-1.06164">
        <ele>124.1</ele>
      </trkpt>
      <trkpt lat="43.34065" lon="-1.06163">
        <ele>121.5</ele>
      </trkpt>
      <trkpt lat="43.34071" lon="-1.06152">
        <ele>120.1</ele>
      </trkpt>
      <trkpt lat="43.34078" lon="-1.0613">
        <ele>118.7</ele>
      </trkpt>
      <trkpt lat="43.34085" lon="-1.0612">
        <ele>117.7</ele>
      </trkpt>
      <trkpt lat="43.34095" lon="-1.06116">
        <ele>118.1</ele>
      </trkpt>
      <trkpt lat="43.34109" lon="-1.06117">
        <ele>118.3</ele>
      </trkpt>
      <trkpt lat="43.34164" lon="-1.06125">
        <ele>124.7</ele>
      </trkpt>
      <trkpt lat="43.34182" lon="-1.0612">
        <ele>125.9</ele>
      </trkpt>
      <trkpt lat="43.34201" lon="-1.06114">
        <ele>125.9</ele>
      </trkpt>
      <trkpt lat="43.34224" lon="-1.06111">
        <ele>125</ele>
      </trkpt>
      <trkpt lat="43.34247" lon="-1.0611">
        <ele>125</ele>
      </trkpt>
      <trkpt lat="43.34266" lon="-1.06116">
        <ele>124.4</ele>
      </trkpt>
      <trkpt lat="43.34295" lon="-1.06147">
        <ele>123.5</ele>
      </trkpt>
      <trkpt lat="43.34322" lon="-1.06162">
        <ele>122.5</ele>
      </trkpt>
      <trkpt lat="43.34358" lon="-1.06173">
        <ele>121.8</ele>
      </trkpt>
      <trkpt lat="43.34417" lon="-1.06188">
        <ele>124</ele>
      </trkpt>
      <trkpt lat="43.3447" lon="-1.06194">
        <ele>126</ele>
      </trkpt>
      <trkpt lat="43.34505" lon="-1.06194">
        <ele>127.2</ele>
      </trkpt>
      <trkpt lat="43.34536" lon="-1.06189">
        <ele>128.4</ele>
      </trkpt>
      <trkpt lat="43.34564" lon="-1.06177">
        <ele>128.7</ele>
      </trkpt>
      <trkpt lat="43.34592" lon="-1.06161">
        <ele>127.4</ele>
      </trkpt>
      <trkpt lat="43.34627" lon="-1.06134">
        <ele>124.9</ele>
      </trkpt>
      <trkpt lat="43.34656" lon="-1.06106">
        <ele>122.2</ele>
      </trkpt>
      <trkpt lat="43.34687" lon="-1.0607">
        <ele>119.6</ele>
      </trkpt>
      <trkpt lat="43.34708" lon="-1.06041">
        <ele>118.5</ele>
      </trkpt>
      <trkpt lat="43.34747" lon="-1.0603">
        <ele>117.9</ele>
      </trkpt>
      <trkpt lat="43.34771" lon="-1.06034">
        <ele>118.5</ele>
      </trkpt>
      <trkpt lat="43.34835" lon="-1.06066">
        <ele>115.2</ele>
      </trkpt>
      <trkpt lat="43.34843" lon="-1.06033">
        <ele>114.5</ele>
      </trkpt>
      <trkpt lat="43.34884" lon="-1.06043">
        <ele>109.6</ele>
      </trkpt>
      <trkpt lat="43.34918" lon="-1.06056">
        <ele>105</ele>
      </trkpt>
      <trkpt lat="43.34985" lon="-1.06065">
        <ele>101.3</ele>
      </trkpt>
      <trkpt lat="43.35015" lon="-1.06075">
        <ele>100</ele>
      </trkpt>
      <trkpt lat="43.35047" lon="-1.0608">
        <ele>98.5</ele>
      </trkpt>
      <trkpt lat="43.35063" lon="-1.06094">
        <ele>99.5</ele>
      </trkpt>
      <trkpt lat="43.35076" lon="-1.06097">
        <ele>99.6</ele>
      </trkpt>
      <trkpt lat="43.35093" lon="-1.06097">
        <ele>99</ele>
      </trkpt>
      <trkpt lat="43.35115" lon="-1.06101">
        <ele>97.9</ele>
      </trkpt>
      <trkpt lat="43.35137" lon="-1.06113">
        <ele>97.2</ele>
      </trkpt>
      <trkpt lat="43.35154" lon="-1.06128">
        <ele>96.9</ele>
      </trkpt>
      <trkpt lat="43.35168" lon="-1.06131">
        <ele>96.5</ele>
      </trkpt>
      <trkpt lat="43.35184" lon="-1.06132">
        <ele>96.8</ele>
      </trkpt>
      <trkpt lat="43.35197" lon="-1.06128">
        <ele>97</ele>
      </trkpt>
      <trkpt lat="43.35231" lon="-1.06102">
        <ele>95.6</ele>
      </trkpt>
      <trkpt lat="43.35239" lon="-1.06094">
        <ele>95</ele>
      </trkpt>
      <trkpt lat="43.3528" lon="-1.06037">
        <ele>91.7</ele>
      </trkpt>
      <trkpt lat="43.35324" lon="-1.05983">
        <ele>89.9</ele>
      </trkpt>
      <trkpt lat="43.35346" lon="-1.05988">
        <ele>92.4</ele>
      </trkpt>
      <trkpt lat="43.35372" lon="-1.06">
        <ele>95.4</ele>
      </trkpt>
      <trkpt lat="43.35393" lon="-1.06015">
        <ele>97.6</ele>
      </trkpt>
      <trkpt lat="43.35432" lon="-1.06024">
        <ele>97.7</ele>
      </trkpt>
      <trkpt lat="43.35498" lon="-1.06042">
        <ele>97.5</ele>
      </trkpt>
      <trkpt lat="43.3559" lon="-1.06053">
        <ele>99.4</ele>
      </trkpt>
      <trkpt lat="43.35648" lon="-1.06063">
        <ele>103.3</ele>
      </trkpt>
      <trkpt lat="43.3569" lon="-1.06073">
        <ele>103.1</ele>
      </trkpt>
      <trkpt lat="43.35767" lon="-1.06106">
        <ele>98.6</ele>
      </trkpt>
      <trkpt lat="43.35789" lon="-1.0611">
        <ele>97.6</ele>
      </trkpt>
      <trkpt lat="43.35805" lon="-1.06109">
        <ele>96.9</ele>
      </trkpt>
      <trkpt lat="43.35847" lon="-1.0609">
        <ele>94.3</ele>
      </trkpt>
      <trkpt lat="43.35887" lon="-1.06074">
        <ele>92.7</ele>
      </trkpt>
      <trkpt lat="43.35909" lon="-1.06068">
        <ele>92.1</ele>
      </trkpt>
      <trkpt lat="43.35972" lon="-1.06045">
        <ele>88</ele>
      </trkpt>
      <trkpt lat="43.36019" lon="-1.06022">
        <ele>85.7</ele>
      </trkpt>
      <trkpt lat="43.36028" lon="-1.06034">
        <ele>84.8</ele>
      </trkpt>
      <trkpt lat="43.36051" lon="-1.06084">
        <ele>79.2</ele>
      </trkpt>
      <trkpt lat="43.36084" lon="-1.06059">
        <ele>78.6</ele>
      </trkpt>
      <trkpt lat="43.36098" lon="-1.06042">
        <ele>78.1</ele>
      </trkpt>
      <trkpt lat="43.36109" lon="-1.06023">
        <ele>79.3</ele>
      </trkpt>
      <trkpt lat="43.36135" lon="-1.06016">
        <ele>73.2</ele>
      </trkpt>
      <trkpt lat="43.36143" lon="-1.06014">
        <ele>71.5</ele>
      </trkpt>
      <trkpt lat="43.36161" lon="-1.06016">
        <ele>66.8</ele>
      </trkpt>
      <trkpt lat="43.36179" lon="-1.06016">
        <ele>61.5</ele>
      </trkpt>
      <trkpt lat="43.36208" lon="-1.05989">
        <ele>60</ele>
      </trkpt>
      <trkpt lat="43.3622" lon="-1.05986">
        <ele>56.8</ele>
      </trkpt>
      <trkpt lat="43.36255" lon="-1.0595">
        <ele>53.7</ele>
      </trkpt>
      <trkpt lat="43.36275" lon="-1.05918">
        <ele>53</ele>
      </trkpt>
      <trkpt lat="43.36284" lon="-1.05912">
        <ele>53.6</ele>
      </trkpt>
      <trkpt lat="43.36307" lon="-1.05911">
        <ele>52.8</ele>
      </trkpt>
      <trkpt lat="43.36322" lon="-1.0592">
        <ele>51.6</ele>
      </trkpt>
      <trkpt lat="43.36339" lon="-1.05922">
        <ele>51.1</ele>
      </trkpt>
      <trkpt lat="43.3636" lon="-1.05918">
        <ele>50.2</ele>
      </trkpt>
      <trkpt lat="43.36379" lon="-1.05909">
        <ele>50</ele>
      </trkpt>
      <trkpt lat="43.36392" lon="-1.05895">
        <ele>49.9</ele>
      </trkpt>
      <trkpt lat="43.36404" lon="-1.05886">
        <ele>50.3</ele>
      </trkpt>
      <trkpt lat="43.3642" lon="-1.05883">
        <ele>50.3</ele>
      </trkpt>
      <trkpt lat="43.36437" lon="-1.05864">
        <ele>50.6</ele>
      </trkpt>
      <trkpt lat="43.36457" lon="-1.05863">
        <ele>49.1</ele>
      </trkpt>
      <trkpt lat="43.36485" lon="-1.05844">
        <ele>48.3</ele>
      </trkpt>
      <trkpt lat="43.36491" lon="-1.05862">
        <ele>49.7</ele>
      </trkpt>
      <trkpt lat="43.36503" lon="-1.05908">
        <ele>52.4</ele>
      </trkpt>
      <trkpt lat="43.36512" lon="-1.05959">
        <ele>55.5</ele>
      </trkpt>
      <trkpt lat="43.36519" lon="-1.05966">
        <ele>55.8</ele>
      </trkpt>
      <trkpt lat="43.36537" lon="-1.05969">
        <ele>56.2</ele>
      </trkpt>
      <trkpt lat="43.36562" lon="-1.05964">
        <ele>56.5</ele>
      </trkpt>
      <trkpt lat="43.36578" lon="-1.05955">
        <ele>56.3</ele>
      </trkpt>
      <trkpt lat="43.36592" lon="-1.05944">
        <ele>56.6</ele>
      </trkpt>
      <trkpt lat="43.36613" lon="-1.05913">
        <ele>57</ele>
      </trkpt>
      <trkpt lat="43.36656" lon="-1.05892">
        <ele>59.6</ele>
      </trkpt>
      <trkpt lat="43.36719" lon="-1.05876">
        <ele>65.8</ele>
      </trkpt>
      <trkpt lat="43.36737" lon="-1.05878">
        <ele>66.9</ele>
      </trkpt>
      <trkpt lat="43.36761" lon="-1.05889">
        <ele>69</ele>
      </trkpt>
      <trkpt lat="43.36776" lon="-1.05895">
        <ele>69.7</ele>
      </trkpt>
      <trkpt lat="43.36793" lon="-1.05909">
        <ele>71.2</ele>
      </trkpt>
      <trkpt lat="43.36817" lon="-1.0594">
        <ele>73.6</ele>
      </trkpt>
      <trkpt lat="43.3684" lon="-1.05945">
        <ele>72.6</ele>
      </trkpt>
      <trkpt lat="43.36868" lon="-1.0595">
        <ele>71.7</ele>
      </trkpt>
      <trkpt lat="43.36885" lon="-1.05956">
        <ele>71.9</ele>
      </trkpt>
      <trkpt lat="43.36895" lon="-1.05974">
        <ele>73</ele>
      </trkpt>
      <trkpt lat="43.36889" lon="-1.05991">
        <ele>75</ele>
      </trkpt>
      <trkpt lat="43.36881" lon="-1.06014">
        <ele>77.9</ele>
      </trkpt>
      <trkpt lat="43.36883" lon="-1.06034">
        <ele>78.9</ele>
      </trkpt>
      <trkpt lat="43.36889" lon="-1.06055">
        <ele>79</ele>
      </trkpt>
      <trkpt lat="43.36913" lon="-1.06102">
        <ele>75.7</ele>
      </trkpt>
      <trkpt lat="43.3692" lon="-1.06127">
        <ele>73.8</ele>
      </trkpt>
      <trkpt lat="43.37025" lon="-1.05975">
        <ele>67.1</ele>
      </trkpt>
      <trkpt lat="43.37054" lon="-1.0593">
        <ele>66.6</ele>
      </trkpt>
      <trkpt lat="43.37066" lon="-1.05909">
        <ele>66</ele>
      </trkpt>
      <trkpt lat="43.3709" lon="-1.05906">
        <ele>63.6</ele>
      </trkpt>
      <trkpt lat="43.37109" lon="-1.05905">
        <ele>61.6</ele>
      </trkpt>
      <trkpt lat="43.37129" lon="-1.05907">
        <ele>60.1</ele>
      </trkpt>
      <trkpt lat="43.37228" lon="-1.05952">
        <ele>54.1</ele>
      </trkpt>
      <trkpt lat="43.37446" lon="-1.06037">
        <ele>50.3</ele>
      </trkpt>
      <trkpt lat="43.37557" lon="-1.06091">
        <ele>54.8</ele>
      </trkpt>
      <trkpt lat="43.37582" lon="-1.06097">
        <ele>54.5</ele>
      </trkpt>
      <trkpt lat="43.37615" lon="-1.06102">
        <ele>52.8</ele>
      </trkpt>
      <trkpt lat="43.37635" lon="-1.06107">
        <ele>52.1</ele>
      </trkpt>
      <trkpt lat="43.37677" lon="-1.06127">
        <ele>50.8</ele>
      </trkpt>
      <trkpt lat="43.37695" lon="-1.06129">
        <ele>50.3</ele>
      </trkpt>
      <trkpt lat="43.37706" lon="-1.06126">
        <ele>50.3</ele>
      </trkpt>
      <trkpt lat="43.37731" lon="-1.0611">
        <ele>49.3</ele>
      </trkpt>
      <trkpt lat="43.37747" lon="-1.06104">
        <ele>49.6</ele>
      </trkpt>
      <trkpt lat="43.37807" lon="-1.06109">
        <ele>47.8</ele>
      </trkpt>
      <trkpt lat="43.37841" lon="-1.06117">
        <ele>46.1</ele>
      </trkpt>
      <trkpt lat="43.37891" lon="-1.0612">
        <ele>42.5</ele>
      </trkpt>
      <trkpt lat="43.3794" lon="-1.06146">
        <ele>42.9</ele>
      </trkpt>
      <trkpt lat="43.3795" lon="-1.06152">
        <ele>43.2</ele>
      </trkpt>
      <trkpt lat="43.37957" lon="-1.06172">
        <ele>44.4</ele>
      </trkpt>
      <trkpt lat="43.37959" lon="-1.06201">
        <ele>45.5</ele>
      </trkpt>
      <trkpt lat="43.37977" lon="-1.06185">
        <ele>43.9</ele>
      </trkpt>
      <trkpt lat="43.38" lon="-1.06171">
        <ele>45</ele>
      </trkpt>
      <trkpt lat="43.38038" lon="-1.06153">
        <ele>49.6</ele>
      </trkpt>
      <trkpt lat="43.38081" lon="-1.06132">
        <ele>52.2</ele>
      </trkpt>
      <trkpt lat="43.38169" lon="-1.06086">
        <ele>53.2</ele>
      </trkpt>
      <trkpt lat="43.38205" lon="-1.06065">
        <ele>53</ele>
      </trkpt>
      <trkpt lat="43.38228" lon="-1.06046">
        <ele>52.3</ele>
      </trkpt>
      <trkpt lat="43.38258" lon="-1.06007">
        <ele>51.8</ele>
      </trkpt>
      <trkpt lat="43.38274" lon="-1.05937">
        <ele>53.4</ele>
      </trkpt>
      <trkpt lat="43.38281" lon="-1.05899">
        <ele>54.7</ele>
      </trkpt>
      <trkpt lat="43.3829" lon="-1.05855">
        <ele>56.8</ele>
      </trkpt>
      <trkpt lat="43.38305" lon="-1.0579">
        <ele>58.6</ele>
      </trkpt>
      <trkpt lat="43.3832" lon="-1.05743">
        <ele>59.5</ele>
      </trkpt>
      <trkpt lat="43.38326" lon="-1.05716">
        <ele>59.3</ele>
      </trkpt>
      <trkpt lat="43.38326" lon="-1.05693">
        <ele>58</ele>
      </trkpt>
      <trkpt lat="43.38322" lon="-1.05668">
        <ele>57.6</ele>
      </trkpt>
      <trkpt lat="43.38357" lon="-1.05665">
        <ele>58</ele>
      </trkpt>
      <trkpt lat="43.38389" lon="-1.05711">
        <ele>61</ele>
      </trkpt>
      <trkpt lat="43.38401" lon="-1.05722">
        <ele>61</ele>
      </trkpt>
      <trkpt lat="43.38455" lon="-1.05757">
        <ele>61.3</ele>
      </trkpt>
      <trkpt lat="43.38504" lon="-1.05815">
        <ele>59.2</ele>
      </trkpt>
      <trkpt lat="43.3852" lon="-1.05856">
        <ele>58.2</ele>
      </trkpt>
      <trkpt lat="43.38529" lon="-1.0587">
        <ele>57.4</ele>
      </trkpt>
      <trkpt lat="43.3857" lon="-1.059">
        <ele>55.9</ele>
      </trkpt>
      <trkpt lat="43.38636" lon="-1.05937">
        <ele>54.6</ele>
      </trkpt>
      <trkpt lat="43.38702" lon="-1.05988">
        <ele>52.2</ele>
      </trkpt>
      <trkpt lat="43.38758" lon="-1.06034">
        <ele>49.6</ele>
      </trkpt>
      <trkpt lat="43.38813" lon="-1.06062">
        <ele>47.3</ele>
      </trkpt>
      <trkpt lat="43.38841" lon="-1.06072">
        <ele>46.3</ele>
      </trkpt>
      <trkpt lat="43.38875" lon="-1.06083">
        <ele>45</ele>
      </trkpt>
      <trkpt lat="43.38916" lon="-1.06103">
        <ele>44.3</ele>
      </trkpt>
      <trkpt lat="43.38944" lon="-1.06107">
        <ele>43.2</ele>
      </trkpt>
      <trkpt lat="43.38975" lon="-1.06105">
        <ele>42.2</ele>
      </trkpt>
      <trkpt lat="43.39014" lon="-1.06096">
        <ele>41.4</ele>
      </trkpt>
      <trkpt lat="43.39042" lon="-1.06093">
        <ele>41.3</ele>
      </trkpt>
      <trkpt lat="43.39085" lon="-1.06099">
        <ele>41.1</ele>
      </trkpt>
      <trkpt lat="43.39121" lon="-1.06102">
        <ele>41.3</ele>
      </trkpt>
      <trkpt lat="43.39151" lon="-1.06091">
        <ele>41.9</ele>
      </trkpt>
      <trkpt lat="43.39189" lon="-1.06081">
        <ele>42.2</ele>
      </trkpt>
      <trkpt lat="43.39223" lon="-1.06078">
        <ele>42.6</ele>
      </trkpt>
      <trkpt lat="43.39255" lon="-1.06085">
        <ele>42</ele>
      </trkpt>
      <trkpt lat="43.39283" lon="-1.06094">
        <ele>41.9</ele>
      </trkpt>
      <trkpt lat="43.39344" lon="-1.0612">
        <ele>41.6</ele>
      </trkpt>
      <trkpt lat="43.39363" lon="-1.06122">
        <ele>41.9</ele>
      </trkpt>
      <trkpt lat="43.39388" lon="-1.06111">
        <ele>42.1</ele>
      </trkpt>
      <trkpt lat="43.39404" lon="-1.06114">
        <ele>42.2</ele>
      </trkpt>
      <trkpt lat="43.39427" lon="-1.06122">
        <ele>41.3</ele>
      </trkpt>
      <trkpt lat="43.39448" lon="-1.06126">
        <ele>41.1</ele>
      </trkpt>
      <trkpt lat="43.3947" lon="-1.06121">
        <ele>40.3</ele>
      </trkpt>
      <trkpt lat="43.39496" lon="-1.06107">
        <ele>40.7</ele>
      </trkpt>
      <trkpt lat="43.39516" lon="-1.06085">
        <ele>40.6</ele>
      </trkpt>
      <trkpt lat="43.39536" lon="-1.06055">
        <ele>39.9</ele>
      </trkpt>
      <trkpt lat="43.39555" lon="-1.06002">
        <ele>41</ele>
      </trkpt>
      <trkpt lat="43.39566" lon="-1.05941">
        <ele>39.6</ele>
      </trkpt>
      <trkpt lat="43.39576" lon="-1.05869">
        <ele>37</ele>
      </trkpt>
      <trkpt lat="43.39582" lon="-1.05826">
        <ele>36</ele>
      </trkpt>
      <trkpt lat="43.39588" lon="-1.05792">
        <ele>36.1</ele>
      </trkpt>
      <trkpt lat="43.39604" lon="-1.05751">
        <ele>33.6</ele>
      </trkpt>
      <trkpt lat="43.39617" lon="-1.0572">
        <ele>34.5</ele>
      </trkpt>
      <trkpt lat="43.39642" lon="-1.05693">
        <ele>33.9</ele>
      </trkpt>
      <trkpt lat="43.39645" lon="-1.0561">
        <ele>27.9</ele>
      </trkpt>
      <trkpt lat="43.39649" lon="-1.05583">
        <ele>26.3</ele>
      </trkpt>
      <trkpt lat="43.39654" lon="-1.05557">
        <ele>25.6</ele>
      </trkpt>
      <trkpt lat="43.39669" lon="-1.05538">
        <ele>25.5</ele>
      </trkpt>
      <trkpt lat="43.39719" lon="-1.0549">
        <ele>25.5</ele>
      </trkpt>
      <trkpt lat="43.39767" lon="-1.05452">
        <ele>25.6</ele>
      </trkpt>
      <trkpt lat="43.39809" lon="-1.05433">
        <ele>26.5</ele>
      </trkpt>
      <trkpt lat="43.39849" lon="-1.05405">
        <ele>25.4</ele>
      </trkpt>
      <trkpt lat="43.39922" lon="-1.05378">
        <ele>25.6</ele>
      </trkpt>
      <trkpt lat="43.40005" lon="-1.05353">
        <ele>26.1</ele>
      </trkpt>
      <trkpt lat="43.40049" lon="-1.05347">
        <ele>26.2</ele>
      </trkpt>
      <trkpt lat="43.40072" lon="-1.05356">
        <ele>26.1</ele>
      </trkpt>
      <trkpt lat="43.40083" lon="-1.05371">
        <ele>27.1</ele>
      </trkpt>
      <trkpt lat="43.40108" lon="-1.05336">
        <ele>25.6</ele>
      </trkpt>
      <trkpt lat="43.40117" lon="-1.05326">
        <ele>24.8</ele>
      </trkpt>
      <trkpt lat="43.40144" lon="-1.05324">
        <ele>24.6</ele>
      </trkpt>
      <trkpt lat="43.40199" lon="-1.05328">
        <ele>24.6</ele>
      </trkpt>
      <trkpt lat="43.40249" lon="-1.05326">
        <ele>24.5</ele>
      </trkpt>
      <trkpt lat="43.40332" lon="-1.05322">
        <ele>24.7</ele>
      </trkpt>
      <trkpt lat="43.40365" lon="-1.05327">
        <ele>24.4</ele>
      </trkpt>
      <trkpt lat="43.40404" lon="-1.05351">
        <ele>25.3</ele>
      </trkpt>
      <trkpt lat="43.40474" lon="-1.05354">
        <ele>24.5</ele>
      </trkpt>
      <trkpt lat="43.40491" lon="-1.05357">
        <ele>24.1</ele>
      </trkpt>
      <trkpt lat="43.40528" lon="-1.05375">
        <ele>24.4</ele>
      </trkpt>
      <trkpt lat="43.40618" lon="-1.0541">
        <ele>24.4</ele>
      </trkpt>
      <trkpt lat="43.40663" lon="-1.05454">
        <ele>24.4</ele>
      </trkpt>
      <trkpt lat="43.40672" lon="-1.05475">
        <ele>24.1</ele>
      </trkpt>
      <trkpt lat="43.40696" lon="-1.05474">
        <ele>24.2</ele>
      </trkpt>
      <trkpt lat="43.40713" lon="-1.05462">
        <ele>24.7</ele>
      </trkpt>
      <trkpt lat="43.40728" lon="-1.05458">
        <ele>25.1</ele>
      </trkpt>
      <trkpt lat="43.40748" lon="-1.0546">
        <ele>25.6</ele>
      </trkpt>
      <trkpt lat="43.40806" lon="-1.05483">
        <ele>25.8</ele>
      </trkpt>
      <trkpt lat="43.40844" lon="-1.05505">
        <ele>25.9</ele>
      </trkpt>
      <trkpt lat="43.40918" lon="-1.05549">
        <ele>25.5</ele>
      </trkpt>
      <trkpt lat="43.4098" lon="-1.05591">
        <ele>26.2</ele>
      </trkpt>
      <trkpt lat="43.41026" lon="-1.05611">
        <ele>25.1</ele>
      </trkpt>
      <trkpt lat="43.41039" lon="-1.05616">
        <ele>24.9</ele>
      </trkpt>
      <trkpt lat="43.41085" lon="-1.05631">
        <ele>23.7</ele>
      </trkpt>
      <trkpt lat="43.41108" lon="-1.05644">
        <ele>23.5</ele>
      </trkpt>
      <trkpt lat="43.41131" lon="-1.05661">
        <ele>23.5</ele>
      </trkpt>
      <trkpt lat="43.41154" lon="-1.05685">
        <ele>23.6</ele>
      </trkpt>
      <trkpt lat="43.41165" lon="-1.05705">
        <ele>23.8</ele>
      </trkpt>
      <trkpt lat="43.41203" lon="-1.05742">
        <ele>23.9</ele>
      </trkpt>
      <trkpt lat="43.41238" lon="-1.05778">
        <ele>24.2</ele>
      </trkpt>
      <trkpt lat="43.41264" lon="-1.05801">
        <ele>25.4</ele>
      </trkpt>
      <trkpt lat="43.41296" lon="-1.05835">
        <ele>27.6</ele>
      </trkpt>
      <trkpt lat="43.41318" lon="-1.05858">
        <ele>27.4</ele>
      </trkpt>
      <trkpt lat="43.4134" lon="-1.05878">
        <ele>25.2</ele>
      </trkpt>
      <trkpt lat="43.41364" lon="-1.05899">
        <ele>23.2</ele>
      </trkpt>
      <trkpt lat="43.41372" lon="-1.05885">
        <ele>22.3</ele>
      </trkpt>
      <trkpt lat="43.41379" lon="-1.05875">
        <ele>21.3</ele>
      </trkpt>
      <trkpt lat="43.41392" lon="-1.05874">
        <ele>20.9</ele>
      </trkpt>
      <trkpt lat="43.41423" lon="-1.05905">
        <ele>21.7</ele>
      </trkpt>
      <trkpt lat="43.41459" lon="-1.05939">
        <ele>21.3</ele>
      </trkpt>
      <trkpt lat="43.41497" lon="-1.05977">
        <ele>21.3</ele>
      </trkpt>
      <trkpt lat="43.41518" lon="-1.06002">
        <ele>20.7</ele>
      </trkpt>
      <trkpt lat="43.41527" lon="-1.06018">
        <ele>20.7</ele>
      </trkpt>
      <trkpt lat="43.41543" lon="-1.06062">
        <ele>20</ele>
      </trkpt>
      <trkpt lat="43.41544" lon="-1.06078">
        <ele>20.3</ele>
      </trkpt>
      <trkpt lat="43.41533" lon="-1.06094">
        <ele>20.4</ele>
      </trkpt>
      <trkpt lat="43.41524" lon="-1.06112">
        <ele>20.3</ele>
      </trkpt>
      <trkpt lat="43.41506" lon="-1.06149">
        <ele>23</ele>
      </trkpt>
      <trkpt lat="43.4151" lon="-1.06154">
        <ele>23</ele>
      </trkpt>
      <trkpt lat="43.41515" lon="-1.06151">
        <ele>22.7</ele>
      </trkpt>
      <trkpt lat="43.41519" lon="-1.06142">
        <ele>22.4</ele>
      </trkpt>
      <trkpt lat="43.41524" lon="-1.06134">
        <ele>21.8</ele>
      </trkpt>
      <trkpt lat="43.41531" lon="-1.06127">
        <ele>20.8</ele>
      </trkpt>
      <trkpt lat="43.41589" lon="-1.06096">
        <ele>20.9</ele>
      </trkpt>
      <trkpt lat="43.41652" lon="-1.0604">
        <ele>25.3</ele>
      </trkpt>
      <trkpt lat="43.41667" lon="-1.06041">
        <ele>26.7</ele>
      </trkpt>
      <trkpt lat="43.41673" lon="-1.06053">
        <ele>25.5</ele>
      </trkpt>
      <trkpt lat="43.41681" lon="-1.06067">
        <ele>25.4</ele>
      </trkpt>
      <trkpt lat="43.41719" lon="-1.06097">
        <ele>26.6</ele>
      </trkpt>
      <trkpt lat="43.41746" lon="-1.06113">
        <ele>26.6</ele>
      </trkpt>
      <trkpt lat="43.41774" lon="-1.06128">
        <ele>28.2</ele>
      </trkpt>
      <trkpt lat="43.41788" lon="-1.06138">
        <ele>28.3</ele>
      </trkpt>
      <trkpt lat="43.418" lon="-1.06157">
        <ele>27</ele>
      </trkpt>
      <trkpt lat="43.41852" lon="-1.06243">
        <ele>23.7</ele>
      </trkpt>
      <trkpt lat="43.41901" lon="-1.06324">
        <ele>22.6</ele>
      </trkpt>
      <trkpt lat="43.41919" lon="-1.06348">
        <ele>22.5</ele>
      </trkpt>
      <trkpt lat="43.41962" lon="-1.06297">
        <ele>25.9</ele>
      </trkpt>
      <trkpt lat="43.41976" lon="-1.06286">
        <ele>28.1</ele>
      </trkpt>
      <trkpt lat="43.41976" lon="-1.06265">
        <ele>30.9</ele>
      </trkpt>
      <trkpt lat="43.41964" lon="-1.06224">
        <ele>36.9</ele>
      </trkpt>
      <trkpt lat="43.41962" lon="-1.062">
        <ele>40.4</ele>
      </trkpt>
      <trkpt lat="43.41962" lon="-1.06143">
        <ele>47.8</ele>
      </trkpt>
      <trkpt lat="43.41964" lon="-1.06103">
        <ele>48.4</ele>
      </trkpt>
      <trkpt lat="43.41969" lon="-1.06066">
        <ele>49.1</ele>
      </trkpt>
      <trkpt lat="43.41989" lon="-1.06016">
        <ele>51.9</ele>
      </trkpt>
      <trkpt lat="43.41996" lon="-1.05992">
        <ele>52.1</ele>
      </trkpt>
      <trkpt lat="43.42008" lon="-1.05932">
        <ele>52.3</ele>
      </trkpt>
      <trkpt lat="43.42016" lon="-1.05887">
        <ele>54.6</ele>
      </trkpt>
      <trkpt lat="43.42023" lon="-1.05859">
        <ele>55.5</ele>
      </trkpt>
      <trkpt lat="43.42048" lon="-1.05808">
        <ele>59.2</ele>
      </trkpt>
      <trkpt lat="43.42077" lon="-1.05787">
        <ele>63.5</ele>
      </trkpt>
      <trkpt lat="43.421" lon="-1.05766">
        <ele>66.8</ele>
      </trkpt>
      <trkpt lat="43.42108" lon="-1.05749">
        <ele>67.8</ele>
      </trkpt>
      <trkpt lat="43.42114" lon="-1.05734">
        <ele>68.1</ele>
      </trkpt>
      <trkpt lat="43.42118" lon="-1.05689">
        <ele>68.2</ele>
      </trkpt>
      <trkpt lat="43.42124" lon="-1.05655">
        <ele>68.3</ele>
      </trkpt>
      <trkpt lat="43.42131" lon="-1.05626">
        <ele>68.1</ele>
      </trkpt>
      <trkpt lat="43.42164" lon="-1.05624">
        <ele>68.4</ele>
      </trkpt>
      <trkpt lat="43.42191" lon="-1.05615">
        <ele>68.1</ele>
      </trkpt>
      <trkpt lat="43.42222" lon="-1.05611">
        <ele>67</ele>
      </trkpt>
      <trkpt lat="43.42242" lon="-1.05606">
        <ele>66.9</ele>
      </trkpt>
      <trkpt lat="43.42277" lon="-1.05607">
        <ele>64.9</ele>
      </trkpt>
      <trkpt lat="43.42315" lon="-1.05611">
        <ele>61.7</ele>
      </trkpt>
      <trkpt lat="43.42362" lon="-1.05625">
        <ele>60.5</ele>
      </trkpt>
      <trkpt lat="43.42394" lon="-1.05632">
        <ele>60.8</ele>
      </trkpt>
      <trkpt lat="43.42432" lon="-1.05623">
        <ele>60.7</ele>
      </trkpt>
      <trkpt lat="43.42473" lon="-1.05617">
        <ele>59.4</ele>
      </trkpt>
      <trkpt lat="43.42525" lon="-1.05609">
        <ele>58.8</ele>
      </trkpt>
      <trkpt lat="43.42561" lon="-1.05599">
        <ele>59</ele>
      </trkpt>
      <trkpt lat="43.42603" lon="-1.05575">
        <ele>57.4</ele>
      </trkpt>
      <trkpt lat="43.42662" lon="-1.05537">
        <ele>56.6</ele>
      </trkpt>
      <trkpt lat="43.42678" lon="-1.05562">
        <ele>58</ele>
      </trkpt>
      <trkpt lat="43.42685" lon="-1.05574">
        <ele>57.8</ele>
      </trkpt>
      <trkpt lat="43.42694" lon="-1.05578">
        <ele>57.2</ele>
      </trkpt>
      <trkpt lat="43.42739" lon="-1.05582">
        <ele>55.4</ele>
      </trkpt>
      <trkpt lat="43.42773" lon="-1.05585">
        <ele>54.2</ele>
      </trkpt>
      <trkpt lat="43.4282" lon="-1.05598">
        <ele>52.8</ele>
      </trkpt>
      <trkpt lat="43.42855" lon="-1.05596">
        <ele>51.7</ele>
      </trkpt>
      <trkpt lat="43.42888" lon="-1.05596">
        <ele>50.5</ele>
      </trkpt>
      <trkpt lat="43.42934" lon="-1.05608">
        <ele>48.7</ele>
      </trkpt>
      <trkpt lat="43.43013" lon="-1.05631">
        <ele>45.7</ele>
      </trkpt>
      <trkpt lat="43.43061" lon="-1.05645">
        <ele>44</ele>
      </trkpt>
      <trkpt lat="43.43104" lon="-1.05652">
        <ele>42.7</ele>
      </trkpt>
      <trkpt lat="43.43125" lon="-1.05665">
        <ele>42.4</ele>
      </trkpt>
      <trkpt lat="43.4315" lon="-1.05685">
        <ele>42.2</ele>
      </trkpt>
      <trkpt lat="43.43183" lon="-1.05694">
        <ele>41.4</ele>
      </trkpt>
      <trkpt lat="43.4321" lon="-1.05705">
        <ele>41.4</ele>
      </trkpt>
      <trkpt lat="43.43239" lon="-1.05725">
        <ele>42.1</ele>
      </trkpt>
      <trkpt lat="43.43264" lon="-1.05747">
        <ele>42.4</ele>
      </trkpt>
      <trkpt lat="43.43306" lon="-1.05748">
        <ele>41.9</ele>
      </trkpt>
      <trkpt lat="43.43329" lon="-1.05751">
        <ele>42.1</ele>
      </trkpt>
      <trkpt lat="43.43378" lon="-1.05782">
        <ele>43.2</ele>
      </trkpt>
      <trkpt lat="43.4339" lon="-1.05786">
        <ele>43.3</ele>
      </trkpt>
      <trkpt lat="43.43419" lon="-1.05787">
        <ele>42.8</ele>
      </trkpt>
      <trkpt lat="43.43441" lon="-1.0578">
        <ele>43.9</ele>
      </trkpt>
      <trkpt lat="43.43488" lon="-1.05761">
        <ele>44.8</ele>
      </trkpt>
      <trkpt lat="43.43515" lon="-1.05743">
        <ele>43.7</ele>
      </trkpt>
      <trkpt lat="43.43529" lon="-1.05735">
        <ele>43.3</ele>
      </trkpt>
      <trkpt lat="43.43563" lon="-1.05733">
        <ele>40.9</ele>
      </trkpt>
      <trkpt lat="43.4359" lon="-1.05735">
        <ele>39.4</ele>
      </trkpt>
      <trkpt lat="43.43625" lon="-1.05753">
        <ele>38.8</ele>
      </trkpt>
      <trkpt lat="43.43653" lon="-1.05689">
        <ele>38.1</ele>
      </trkpt>
      <trkpt lat="43.43684" lon="-1.05623">
        <ele>40.9</ele>
      </trkpt>
      <trkpt lat="43.43698" lon="-1.05581">
        <ele>44.3</ele>
      </trkpt>
      <trkpt lat="43.43684" lon="-1.05573">
        <ele>45.4</ele>
      </trkpt>
      <trkpt lat="43.4367" lon="-1.05563">
        <ele>45.8</ele>
      </trkpt>
      <trkpt lat="43.43659" lon="-1.05547">
        <ele>46.8</ele>
      </trkpt>
      <trkpt lat="43.43649" lon="-1.05525">
        <ele>48</ele>
      </trkpt>
      <trkpt lat="43.43646" lon="-1.0551">
        <ele>49</ele>
      </trkpt>
      <trkpt lat="43.43649" lon="-1.05492">
        <ele>50.4</ele>
      </trkpt>
      <trkpt lat="43.43663" lon="-1.05466">
        <ele>52.1</ele>
      </trkpt>
      <trkpt lat="43.43679" lon="-1.05425">
        <ele>54.4</ele>
      </trkpt>
      <trkpt lat="43.4369" lon="-1.05402">
        <ele>54.7</ele>
      </trkpt>
      <trkpt lat="43.43703" lon="-1.05339">
        <ele>57.1</ele>
      </trkpt>
      <trkpt lat="43.43721" lon="-1.05259">
        <ele>59.7</ele>
      </trkpt>
      <trkpt lat="43.43738" lon="-1.05177">
        <ele>64.9</ele>
      </trkpt>
      <trkpt lat="43.43749" lon="-1.05108">
        <ele>65</ele>
      </trkpt>
      <trkpt lat="43.43745" lon="-1.05074">
        <ele>66</ele>
      </trkpt>
      <trkpt lat="43.43745" lon="-1.05047">
        <ele>67.4</ele>
      </trkpt>
      <trkpt lat="43.4375" lon="-1.05013">
        <ele>68.9</ele>
      </trkpt>
      <trkpt lat="43.43765" lon="-1.05006">
        <ele>70.5</ele>
      </trkpt>
      <trkpt lat="43.43793" lon="-1.04994">
        <ele>73.1</ele>
      </trkpt>
      <trkpt lat="43.43822" lon="-1.04989">
        <ele>74.2</ele>
      </trkpt>
      <trkpt lat="43.43885" lon="-1.04997">
        <ele>74.1</ele>
      </trkpt>
      <trkpt lat="43.44004" lon="-1.0502">
        <ele>66.9</ele>
      </trkpt>
      <trkpt lat="43.44081" lon="-1.05035">
        <ele>60.5</ele>
      </trkpt>
      <trkpt lat="43.44146" lon="-1.05049">
        <ele>59.9</ele>
      </trkpt>
      <trkpt lat="43.44174" lon="-1.05048">
        <ele>61.5</ele>
      </trkpt>
      <trkpt lat="43.44189" lon="-1.05055">
        <ele>61.8</ele>
      </trkpt>
      <trkpt lat="43.44227" lon="-1.05089">
        <ele>67.1</ele>
      </trkpt>
      <trkpt lat="43.44259" lon="-1.05108">
        <ele>68.5</ele>
      </trkpt>
      <trkpt lat="43.44293" lon="-1.05116">
        <ele>68.9</ele>
      </trkpt>
      <trkpt lat="43.44323" lon="-1.0511">
        <ele>67.8</ele>
      </trkpt>
      <trkpt lat="43.44351" lon="-1.05097">
        <ele>66.2</ele>
      </trkpt>
      <trkpt lat="43.44388" lon="-1.05084">
        <ele>65</ele>
      </trkpt>
      <trkpt lat="43.44428" lon="-1.05079">
        <ele>65.1</ele>
      </trkpt>
      <trkpt lat="43.44471" lon="-1.05077">
        <ele>65</ele>
      </trkpt>
      <trkpt lat="43.44509" lon="-1.05071">
        <ele>65</ele>
      </trkpt>
      <trkpt lat="43.44548" lon="-1.0507">
        <ele>65</ele>
      </trkpt>
      <trkpt lat="43.44584" lon="-1.05081">
        <ele>65.1</ele>
      </trkpt>
      <trkpt lat="43.44623" lon="-1.05087">
        <ele>66.3</ele>
      </trkpt>
      <trkpt lat="43.44703" lon="-1.05094">
        <ele>69.6</ele>
      </trkpt>
      <trkpt lat="43.44751" lon="-1.05105">
        <ele>71.3</ele>
      </trkpt>
      <trkpt lat="43.44787" lon="-1.0512">
        <ele>74.7</ele>
      </trkpt>
      <trkpt lat="43.44838" lon="-1.05147">
        <ele>79.1</ele>
      </trkpt>
      <trkpt lat="43.44897" lon="-1.05182">
        <ele>81.6</ele>
      </trkpt>
      <trkpt lat="43.44943" lon="-1.05214">
        <ele>80.3</ele>
      </trkpt>
      <trkpt lat="43.44969" lon="-1.05235">
        <ele>82.2</ele>
      </trkpt>
      <trkpt lat="43.44988" lon="-1.0527">
        <ele>84</ele>
      </trkpt>
      <trkpt lat="43.45001" lon="-1.05305">
        <ele>82.2</ele>
      </trkpt>
      <trkpt lat="43.45011" lon="-1.0532">
        <ele>81.5</ele>
      </trkpt>
      <trkpt lat="43.45023" lon="-1.0531">
        <ele>83.8</ele>
      </trkpt>
      <trkpt lat="43.45034" lon="-1.053">
        <ele>85.9</ele>
      </trkpt>
      <trkpt lat="43.45054" lon="-1.0528">
        <ele>88.7</ele>
      </trkpt>
      <trkpt lat="43.45091" lon="-1.05349">
        <ele>79.3</ele>
      </trkpt>
      <trkpt lat="43.45127" lon="-1.05345">
        <ele>79.4</ele>
      </trkpt>
      <trkpt lat="43.45155" lon="-1.05345">
        <ele>79.6</ele>
      </trkpt>
      <trkpt lat="43.45168" lon="-1.05334">
        <ele>80.2</ele>
      </trkpt>
      <trkpt lat="43.45177" lon="-1.05314">
        <ele>83</ele>
      </trkpt>
      <trkpt lat="43.45217" lon="-1.05247">
        <ele>87.9</ele>
      </trkpt>
      <trkpt lat="43.45229" lon="-1.05231">
        <ele>89.8</ele>
      </trkpt>
      <trkpt lat="43.45281" lon="-1.05289">
        <ele>94</ele>
      </trkpt>
      <trkpt lat="43.45311" lon="-1.05324">
        <ele>97</ele>
      </trkpt>
      <trkpt lat="43.45325" lon="-1.05332">
        <ele>98.2</ele>
      </trkpt>
      <trkpt lat="43.45346" lon="-1.05338">
        <ele>100.6</ele>
      </trkpt>
      <trkpt lat="43.45377" lon="-1.05355">
        <ele>104.4</ele>
      </trkpt>
      <trkpt lat="43.45404" lon="-1.05369">
        <ele>108.4</ele>
      </trkpt>
      <trkpt lat="43.4545" lon="-1.05387">
        <ele>114</ele>
      </trkpt>
      <trkpt lat="43.45467" lon="-1.05391">
        <ele>116.2</ele>
      </trkpt>
      <trkpt lat="43.45486" lon="-1.05394">
        <ele>117.2</ele>
      </trkpt>
      <trkpt lat="43.45544" lon="-1.05412">
        <ele>119.6</ele>
      </trkpt>
      <trkpt lat="43.45599" lon="-1.05432">
        <ele>120.3</ele>
      </trkpt>
      <trkpt lat="43.4563" lon="-1.0544">
        <ele>118.1</ele>
      </trkpt>
      <trkpt lat="43.45653" lon="-1.0545">
        <ele>116.5</ele>
      </trkpt>
      <trkpt lat="43.45672" lon="-1.05466">
        <ele>115.4</ele>
      </trkpt>
      <trkpt lat="43.45695" lon="-1.05496">
        <ele>116.4</ele>
      </trkpt>
      <trkpt lat="43.45706" lon="-1.05524">
        <ele>118</ele>
      </trkpt>
      <trkpt lat="43.45719" lon="-1.05543">
        <ele>118.9</ele>
      </trkpt>
      <trkpt lat="43.45731" lon="-1.05555">
        <ele>119.4</ele>
      </trkpt>
      <trkpt lat="43.45746" lon="-1.05552">
        <ele>121.6</ele>
      </trkpt>
      <trkpt lat="43.45763" lon="-1.05533">
        <ele>125.3</ele>
      </trkpt>
      <trkpt lat="43.45776" lon="-1.05533">
        <ele>127.2</ele>
      </trkpt>
      <trkpt lat="43.45797" lon="-1.05556">
        <ele>127.1</ele>
      </trkpt>
      <trkpt lat="43.45812" lon="-1.05568">
        <ele>127.4</ele>
      </trkpt>
      <trkpt lat="43.45832" lon="-1.05567">
        <ele>128.1</ele>
      </trkpt>
      <trkpt lat="43.45842" lon="-1.05562">
        <ele>127.6</ele>
      </trkpt>
      <trkpt lat="43.4587" lon="-1.05536">
        <ele>127.3</ele>
      </trkpt>
      <trkpt lat="43.45882" lon="-1.0553">
        <ele>127.1</ele>
      </trkpt>
      <trkpt lat="43.4591" lon="-1.05533">
        <ele>126.1</ele>
      </trkpt>
      <trkpt lat="43.45934" lon="-1.05545">
        <ele>124</ele>
      </trkpt>
      <trkpt lat="43.45954" lon="-1.05551">
        <ele>123.4</ele>
      </trkpt>
      <trkpt lat="43.46003" lon="-1.0557">
        <ele>120.2</ele>
      </trkpt>
      <trkpt lat="43.46024" lon="-1.05573">
        <ele>118.6</ele>
      </trkpt>
      <trkpt lat="43.46219" lon="-1.0558">
        <ele>111.2</ele>
      </trkpt>
      <trkpt lat="43.46383" lon="-1.05584">
        <ele>111.4</ele>
      </trkpt>
      <trkpt lat="43.46395" lon="-1.05592">
        <ele>110.6</ele>
      </trkpt>
      <trkpt lat="43.46494" lon="-1.05544">
        <ele>101.6</ele>
      </trkpt>
      <trkpt lat="43.46518" lon="-1.05542">
        <ele>99.3</ele>
      </trkpt>
      <trkpt lat="43.46545" lon="-1.05534">
        <ele>96.9</ele>
      </trkpt>
      <trkpt lat="43.46565" lon="-1.0552">
        <ele>95.3</ele>
      </trkpt>
      <trkpt lat="43.46584" lon="-1.05499">
        <ele>93.9</ele>
      </trkpt>
      <trkpt lat="43.46621" lon="-1.05483">
        <ele>90.2</ele>
      </trkpt>
      <trkpt lat="43.46645" lon="-1.05477">
        <ele>87.2</ele>
      </trkpt>
      <trkpt lat="43.46692" lon="-1.0546">
        <ele>82.3</ele>
      </trkpt>
      <trkpt lat="43.46731" lon="-1.05442">
        <ele>79.7</ele>
      </trkpt>
      <trkpt lat="43.46831" lon="-1.06018">
        <ele>81.4</ele>
      </trkpt>
      <trkpt lat="43.46887" lon="-1.05998">
        <ele>80.2</ele>
      </trkpt>
      <trkpt lat="43.46933" lon="-1.05978">
        <ele>78.2</ele>
      </trkpt>
      <trkpt lat="43.46995" lon="-1.05951">
        <ele>73.6</ele>
      </trkpt>
      <trkpt lat="43.4703" lon="-1.05925">
        <ele>72.4</ele>
      </trkpt>
      <trkpt lat="43.47074" lon="-1.0589">
        <ele>75</ele>
      </trkpt>
      <trkpt lat="43.47144" lon="-1.05825">
        <ele>74</ele>
      </trkpt>
      <trkpt lat="43.47202" lon="-1.05771">
        <ele>75.1</ele>
      </trkpt>
      <trkpt lat="43.47237" lon="-1.05739">
        <ele>77.4</ele>
      </trkpt>
      <trkpt lat="43.47284" lon="-1.05706">
        <ele>82.7</ele>
      </trkpt>
      <trkpt lat="43.47314" lon="-1.05686">
        <ele>84.6</ele>
      </trkpt>
      <trkpt lat="43.47314" lon="-1.05658">
        <ele>83.4</ele>
      </trkpt>
      <trkpt lat="43.47353" lon="-1.05624">
        <ele>78.9</ele>
      </trkpt>
      <trkpt lat="43.47381" lon="-1.0561">
        <ele>74.1</ele>
      </trkpt>
      <trkpt lat="43.47392" lon="-1.05603">
        <ele>72.3</ele>
      </trkpt>
      <trkpt lat="43.4743" lon="-1.05571">
        <ele>66.8</ele>
      </trkpt>
      <trkpt lat="43.47442" lon="-1.05557">
        <ele>65.3</ele>
      </trkpt>
      <trkpt lat="43.47456" lon="-1.0553">
        <ele>63.4</ele>
      </trkpt>
      <trkpt lat="43.47466" lon="-1.05509">
        <ele>61.7</ele>
      </trkpt>
      <trkpt lat="43.47491" lon="-1.05472">
        <ele>59.6</ele>
      </trkpt>
      <trkpt lat="43.47507" lon="-1.05454">
        <ele>58</ele>
      </trkpt>
      <trkpt lat="43.47525" lon="-1.05396">
        <ele>56.1</ele>
      </trkpt>
      <trkpt lat="43.47526" lon="-1.0537">
        <ele>55.4</ele>
      </trkpt>
      <trkpt lat="43.47524" lon="-1.05322">
        <ele>54.9</ele>
      </trkpt>
      <trkpt lat="43.47526" lon="-1.05304">
        <ele>54.1</ele>
      </trkpt>
      <trkpt lat="43.47529" lon="-1.0529">
        <ele>53.9</ele>
      </trkpt>
      <trkpt lat="43.47543" lon="-1.05255">
        <ele>52.9</ele>
      </trkpt>
      <trkpt lat="43.47574" lon="-1.05182">
        <ele>50.7</ele>
      </trkpt>
      <trkpt lat="43.47599" lon="-1.05116">
        <ele>48</ele>
      </trkpt>
      <trkpt lat="43.47615" lon="-1.05076">
        <ele>44.8</ele>
      </trkpt>
      <trkpt lat="43.47635" lon="-1.05036">
        <ele>41.8</ele>
      </trkpt>
      <trkpt lat="43.47657" lon="-1.05006">
        <ele>39.2</ele>
      </trkpt>
      <trkpt lat="43.47671" lon="-1.04984">
        <ele>37.7</ele>
      </trkpt>
      <trkpt lat="43.4768" lon="-1.04952">
        <ele>36.7</ele>
      </trkpt>
      <trkpt lat="43.47697" lon="-1.0493">
        <ele>35.9</ele>
      </trkpt>
      <trkpt lat="43.47714" lon="-1.04919">
        <ele>35.3</ele>
      </trkpt>
      <trkpt lat="43.47734" lon="-1.04904">
        <ele>34.6</ele>
      </trkpt>
      <trkpt lat="43.47759" lon="-1.04881">
        <ele>34</ele>
      </trkpt>
      <trkpt lat="43.47784" lon="-1.04868">
        <ele>33.6</ele>
      </trkpt>
      <trkpt lat="43.47808" lon="-1.04862">
        <ele>33.1</ele>
      </trkpt>
      <trkpt lat="43.47861" lon="-1.04846">
        <ele>34</ele>
      </trkpt>
      <trkpt lat="43.47894" lon="-1.04836">
        <ele>34.2</ele>
      </trkpt>
      <trkpt lat="43.4793" lon="-1.04803">
        <ele>35</ele>
      </trkpt>
      <trkpt lat="43.47979" lon="-1.04755">
        <ele>38.1</ele>
      </trkpt>
      <trkpt lat="43.47996" lon="-1.04737">
        <ele>39.4</ele>
      </trkpt>
      <trkpt lat="43.48034" lon="-1.04714">
        <ele>40</ele>
      </trkpt>
      <trkpt lat="43.48052" lon="-1.04695">
        <ele>40</ele>
      </trkpt>
      <trkpt lat="43.48087" lon="-1.04677">
        <ele>40</ele>
      </trkpt>
      <trkpt lat="43.48124" lon="-1.04654">
        <ele>40.3</ele>
      </trkpt>
      <trkpt lat="43.48182" lon="-1.04626">
        <ele>39.4</ele>
      </trkpt>
      <trkpt lat="43.48222" lon="-1.04617">
        <ele>38.2</ele>
      </trkpt>
      <trkpt lat="43.4828" lon="-1.04619">
        <ele>37.6</ele>
      </trkpt>
      <trkpt lat="43.48374" lon="-1.04636">
        <ele>36.1</ele>
      </trkpt>
      <trkpt lat="43.48407" lon="-1.04638">
        <ele>36</ele>
      </trkpt>
      <trkpt lat="43.48491" lon="-1.04633">
        <ele>36.2</ele>
      </trkpt>
      <trkpt lat="43.48526" lon="-1.04636">
        <ele>36.1</ele>
      </trkpt>
      <trkpt lat="43.48618" lon="-1.04657">
        <ele>37</ele>
      </trkpt>
      <trkpt lat="43.48669" lon="-1.04671">
        <ele>37</ele>
      </trkpt>
      <trkpt lat="43.48739" lon="-1.04696">
        <ele>38</ele>
      </trkpt>
      <trkpt lat="43.48803" lon="-1.04715">
        <ele>38.7</ele>
      </trkpt>
      <trkpt lat="43.48923" lon="-1.04745">
        <ele>39</ele>
      </trkpt>
      <trkpt lat="43.49014" lon="-1.04771">
        <ele>37.5</ele>
      </trkpt>
      <trkpt lat="43.49077" lon="-1.04785">
        <ele>36.4</ele>
      </trkpt>
      <trkpt lat="43.49162" lon="-1.04806">
        <ele>37.2</ele>
      </trkpt>
      <trkpt lat="43.49215" lon="-1.04818">
        <ele>37</ele>
      </trkpt>
      <trkpt lat="43.49277" lon="-1.04828">
        <ele>37.2</ele>
      </trkpt>
      <trkpt lat="43.49342" lon="-1.04839">
        <ele>37.6</ele>
      </trkpt>
      <trkpt lat="43.49399" lon="-1.04842">
        <ele>38.4</ele>
      </trkpt>
      <trkpt lat="43.49418" lon="-1.04842">
        <ele>39</ele>
      </trkpt>
      <trkpt lat="43.49433" lon="-1.0484">
        <ele>39</ele>
      </trkpt>
      <trkpt lat="43.49444" lon="-1.04835">
        <ele>39</ele>
      </trkpt>
      <trkpt lat="43.49454" lon="-1.04818">
        <ele>38.1</ele>
      </trkpt>
      <trkpt lat="43.49475" lon="-1.04779">
        <ele>37</ele>
      </trkpt>
      <trkpt lat="43.49514" lon="-1.04684">
        <ele>37.7</ele>
      </trkpt>
      <trkpt lat="43.4954" lon="-1.04627">
        <ele>39.9</ele>
      </trkpt>
      <trkpt lat="43.49581" lon="-1.04534">
        <ele>45.8</ele>
      </trkpt>
      <trkpt lat="43.49591" lon="-1.04512">
        <ele>46.1</ele>
      </trkpt>
      <trkpt lat="43.49603" lon="-1.04499">
        <ele>46.1</ele>
      </trkpt>
      <trkpt lat="43.49628" lon="-1.04472">
        <ele>47</ele>
      </trkpt>
      <trkpt lat="43.49659" lon="-1.04433">
        <ele>45.9</ele>
      </trkpt>
      <trkpt lat="43.49687" lon="-1.04377">
        <ele>44.8</ele>
      </trkpt>
      <trkpt lat="43.4971" lon="-1.04338">
        <ele>44.8</ele>
      </trkpt>
      <trkpt lat="43.49728" lon="-1.04309">
        <ele>44.4</ele>
      </trkpt>
      <trkpt lat="43.49746" lon="-1.04288">
        <ele>43.9</ele>
      </trkpt>
      <trkpt lat="43.49759" lon="-1.0426">
        <ele>42.5</ele>
      </trkpt>
      <trkpt lat="43.49776" lon="-1.04215">
        <ele>39</ele>
      </trkpt>
      <trkpt lat="43.4979" lon="-1.04171">
        <ele>37.5</ele>
      </trkpt>
      <trkpt lat="43.49813" lon="-1.04071">
        <ele>33.7</ele>
      </trkpt>
      <trkpt lat="43.49822" lon="-1.04038">
        <ele>33.2</ele>
      </trkpt>
      <trkpt lat="43.4983" lon="-1.04018">
        <ele>32.2</ele>
      </trkpt>
      <trkpt lat="43.49842" lon="-1.03996">
        <ele>31.8</ele>
      </trkpt>
      <trkpt lat="43.49854" lon="-1.03981">
        <ele>31.7</ele>
      </trkpt>
      <trkpt lat="43.49876" lon="-1.03961">
        <ele>31.3</ele>
      </trkpt>
      <trkpt lat="43.49898" lon="-1.03943">
        <ele>30.4</ele>
      </trkpt>
      <trkpt lat="43.49918" lon="-1.03921">
        <ele>29.4</ele>
      </trkpt>
      <trkpt lat="43.49932" lon="-1.03903">
        <ele>30.2</ele>
      </trkpt>
      <trkpt lat="43.49946" lon="-1.0388">
        <ele>28.9</ele>
      </trkpt>
      <trkpt lat="43.49961" lon="-1.03843">
        <ele>29.9</ele>
      </trkpt>
      <trkpt lat="43.49982" lon="-1.03784">
        <ele>27.4</ele>
      </trkpt>
      <trkpt lat="43.50001" lon="-1.03724">
        <ele>24</ele>
      </trkpt>
      <trkpt lat="43.50007" lon="-1.03695">
        <ele>22.5</ele>
      </trkpt>
      <trkpt lat="43.50028" lon="-1.03685">
        <ele>21</ele>
      </trkpt>
      <trkpt lat="43.50044" lon="-1.03676">
        <ele>20.6</ele>
      </trkpt>
      <trkpt lat="43.50067" lon="-1.03662">
        <ele>20.4</ele>
      </trkpt>
      <trkpt lat="43.5011" lon="-1.03627">
        <ele>19.6</ele>
      </trkpt>
      <trkpt lat="43.50157" lon="-1.03595">
        <ele>19</ele>
      </trkpt>
      <trkpt lat="43.50191" lon="-1.03584">
        <ele>19</ele>
      </trkpt>
      <trkpt lat="43.50211" lon="-1.03573">
        <ele>19</ele>
      </trkpt>
      <trkpt lat="43.50271" lon="-1.03578">
        <ele>19</ele>
      </trkpt>
      <trkpt lat="43.50295" lon="-1.0358">
        <ele>18.9</ele>
      </trkpt>
      <trkpt lat="43.50324" lon="-1.03574">
        <ele>18.9</ele>
      </trkpt>
      <trkpt lat="43.50344" lon="-1.03574">
        <ele>19</ele>
      </trkpt>
      <trkpt lat="43.50358" lon="-1.03577">
        <ele>19</ele>
      </trkpt>
      <trkpt lat="43.50399" lon="-1.03592">
        <ele>19.8</ele>
      </trkpt>
      <trkpt lat="43.50416" lon="-1.03597">
        <ele>20</ele>
      </trkpt>
      <trkpt lat="43.50426" lon="-1.03599">
        <ele>20</ele>
      </trkpt>
      <trkpt lat="43.50437" lon="-1.0359">
        <ele>20</ele>
      </trkpt>
      <trkpt lat="43.50456" lon="-1.03569">
        <ele>20</ele>
      </trkpt>
      <trkpt lat="43.50468" lon="-1.0356">
        <ele>20</ele>
      </trkpt>
      <trkpt lat="43.50486" lon="-1.03556">
        <ele>20</ele>
      </trkpt>
      <trkpt lat="43.50519" lon="-1.03557">
        <ele>19.3</ele>
      </trkpt>
      <trkpt lat="43.50522" lon="-1.03597">
        <ele>19.2</ele>
      </trkpt>
      <trkpt lat="43.50464" lon="-1.0374">
        <ele>17.4</ele>
      </trkpt>
      <trkpt lat="43.50455" lon="-1.03792">
        <ele>17</ele>
      </trkpt>
      <trkpt lat="43.50446" lon="-1.03843">
        <ele>16</ele>
      </trkpt>
      <trkpt lat="43.50437" lon="-1.03893">
        <ele>15.4</ele>
      </trkpt>
      <trkpt lat="43.50428" lon="-1.03915">
        <ele>16</ele>
      </trkpt>
      <trkpt lat="43.5049" lon="-1.03991">
        <ele>15.7</ele>
      </trkpt>
      <trkpt lat="43.50504" lon="-1.04014">
        <ele>16.2</ele>
      </trkpt>
      <trkpt lat="43.50513" lon="-1.0404">
        <ele>16.9</ele>
      </trkpt>
      <trkpt lat="43.5052" lon="-1.04064">
        <ele>16.3</ele>
      </trkpt>
      <trkpt lat="43.50542" lon="-1.04121">
        <ele>17</ele>
      </trkpt>
      <trkpt lat="43.50559" lon="-1.04157">
        <ele>17.1</ele>
      </trkpt>
      <trkpt lat="43.50571" lon="-1.04192">
        <ele>17.8</ele>
      </trkpt>
      <trkpt lat="43.50582" lon="-1.04254">
        <ele>17.2</ele>
      </trkpt>
      <trkpt lat="43.50587" lon="-1.04285">
        <ele>17.7</ele>
      </trkpt>
      <trkpt lat="43.50603" lon="-1.04316">
        <ele>17.3</ele>
      </trkpt>
      <trkpt lat="43.50618" lon="-1.04346">
        <ele>17.3</ele>
      </trkpt>
      <trkpt lat="43.5063" lon="-1.04383">
        <ele>15</ele>
      </trkpt>
      <trkpt lat="43.50648" lon="-1.04451">
        <ele>11.9</ele>
      </trkpt>
      <trkpt lat="43.50653" lon="-1.04475">
        <ele>11.1</ele>
      </trkpt>
      <trkpt lat="43.50661" lon="-1.04483">
        <ele>11</ele>
      </trkpt>
      <trkpt lat="43.50684" lon="-1.04494">
        <ele>12.8</ele>
      </trkpt>
      <trkpt lat="43.50708" lon="-1.04504">
        <ele>14.1</ele>
      </trkpt>
      <trkpt lat="43.50724" lon="-1.04518">
        <ele>14.6</ele>
      </trkpt>
      <trkpt lat="43.50738" lon="-1.04539">
        <ele>15.4</ele>
      </trkpt>
      <trkpt lat="43.50752" lon="-1.04564">
        <ele>15.6</ele>
      </trkpt>
      <trkpt lat="43.50783" lon="-1.04605">
        <ele>15.2</ele>
      </trkpt>
      <trkpt lat="43.50794" lon="-1.04624">
        <ele>14.5</ele>
      </trkpt>
      <trkpt lat="43.50819" lon="-1.04673">
        <ele>13.6</ele>
      </trkpt>
      <trkpt lat="43.50841" lon="-1.0472">
        <ele>13.4</ele>
      </trkpt>
      <trkpt lat="43.50853" lon="-1.04746">
        <ele>13.4</ele>
      </trkpt>
      <trkpt lat="43.5089" lon="-1.04792">
        <ele>14.5</ele>
      </trkpt>
      <trkpt lat="43.50926" lon="-1.04835">
        <ele>14.8</ele>
      </trkpt>
      <trkpt lat="43.50951" lon="-1.04871">
        <ele>16.4</ele>
      </trkpt>
      <trkpt lat="43.50966" lon="-1.049">
        <ele>17.3</ele>
      </trkpt>
      <trkpt lat="43.50983" lon="-1.04941">
        <ele>20.1</ele>
      </trkpt>
      <trkpt lat="43.51012" lon="-1.05009">
        <ele>22.4</ele>
      </trkpt>
      <trkpt lat="43.51027" lon="-1.05045">
        <ele>22.7</ele>
      </trkpt>
      <trkpt lat="43.51035" lon="-1.05063">
        <ele>23.7</ele>
      </trkpt>
      <trkpt lat="43.51037" lon="-1.0508">
        <ele>24.5</ele>
      </trkpt>
      <trkpt lat="43.51035" lon="-1.05093">
        <ele>25.1</ele>
      </trkpt>
      <trkpt lat="43.51022" lon="-1.05133">
        <ele>28.2</ele>
      </trkpt>
      <trkpt lat="43.51012" lon="-1.0516">
        <ele>31.2</ele>
      </trkpt>
      <trkpt lat="43.50972" lon="-1.05266">
        <ele>40.2</ele>
      </trkpt>
      <trkpt lat="43.50988" lon="-1.05278">
        <ele>39.3</ele>
      </trkpt>
      <trkpt lat="43.51016" lon="-1.05294">
        <ele>38</ele>
      </trkpt>
      <trkpt lat="43.51031" lon="-1.05302">
        <ele>37.6</ele>
      </trkpt>
      <trkpt lat="43.51048" lon="-1.05305">
        <ele>37.2</ele>
      </trkpt>
      <trkpt lat="43.51067" lon="-1.05301">
        <ele>36.1</ele>
      </trkpt>
      <trkpt lat="43.51145" lon="-1.05275">
        <ele>31</ele>
      </trkpt>
      <trkpt lat="43.51165" lon="-1.05269">
        <ele>31.3</ele>
      </trkpt>
      <trkpt lat="43.51168" lon="-1.05295">
        <ele>31.8</ele>
      </trkpt>
      <trkpt lat="43.51172" lon="-1.05322">
        <ele>31.4</ele>
      </trkpt>
      <trkpt lat="43.51176" lon="-1.05349">
        <ele>31.2</ele>
      </trkpt>
      <trkpt lat="43.51179" lon="-1.05373">
        <ele>32.2</ele>
      </trkpt>
      <trkpt lat="43.51185" lon="-1.05387">
        <ele>32.9</ele>
      </trkpt>
      <trkpt lat="43.51201" lon="-1.05404">
        <ele>33</ele>
      </trkpt>
      <trkpt lat="43.51229" lon="-1.05425">
        <ele>31.4</ele>
      </trkpt>
      <trkpt lat="43.51243" lon="-1.05435">
        <ele>31.4</ele>
      </trkpt>
      <trkpt lat="43.5126" lon="-1.0545">
        <ele>31.6</ele>
      </trkpt>
      <trkpt lat="43.51274" lon="-1.05465">
        <ele>31.1</ele>
      </trkpt>
      <trkpt lat="43.51288" lon="-1.05485">
        <ele>31.7</ele>
      </trkpt>
      <trkpt lat="43.51301" lon="-1.05504">
        <ele>31.8</ele>
      </trkpt>
      <trkpt lat="43.51324" lon="-1.05533">
        <ele>31.9</ele>
      </trkpt>
      <trkpt lat="43.51335" lon="-1.05547">
        <ele>31.6</ele>
      </trkpt>
      <trkpt lat="43.51352" lon="-1.05565">
        <ele>31.4</ele>
      </trkpt>
      <trkpt lat="43.51367" lon="-1.05577">
        <ele>31</ele>
      </trkpt>
      <trkpt lat="43.51384" lon="-1.05588">
        <ele>31.2</ele>
      </trkpt>
      <trkpt lat="43.51401" lon="-1.056">
        <ele>31.1</ele>
      </trkpt>
      <trkpt lat="43.51435" lon="-1.05622">
        <ele>30.2</ele>
      </trkpt>
      <trkpt lat="43.51452" lon="-1.05633">
        <ele>29.1</ele>
      </trkpt>
      <trkpt lat="43.51438" lon="-1.05654">
        <ele>30.6</ele>
      </trkpt>
      <trkpt lat="43.51425" lon="-1.05675">
        <ele>32.7</ele>
      </trkpt>
      <trkpt lat="43.51412" lon="-1.05695">
        <ele>34.6</ele>
      </trkpt>
      <trkpt lat="43.51398" lon="-1.05716">
        <ele>37.3</ele>
      </trkpt>
      <trkpt lat="43.51389" lon="-1.05737">
        <ele>38.5</ele>
      </trkpt>
      <trkpt lat="43.5138" lon="-1.05758">
        <ele>39.2</ele>
      </trkpt>
      <trkpt lat="43.5136" lon="-1.05799">
        <ele>39</ele>
      </trkpt>
      <trkpt lat="43.51349" lon="-1.0582">
        <ele>38.2</ele>
      </trkpt>
      <trkpt lat="43.5134" lon="-1.05833">
        <ele>37.8</ele>
      </trkpt>
      <trkpt lat="43.51331" lon="-1.05847">
        <ele>37.2</ele>
      </trkpt>
      <trkpt lat="43.51323" lon="-1.05864">
        <ele>37.1</ele>
      </trkpt>
      <trkpt lat="43.5132" lon="-1.05888">
        <ele>37</ele>
      </trkpt>
      <trkpt lat="43.51325" lon="-1.05912">
        <ele>35.8</ele>
      </trkpt>
      <trkpt lat="43.5133" lon="-1.05933">
        <ele>34.7</ele>
      </trkpt>
      <trkpt lat="43.51334" lon="-1.05953">
        <ele>33.7</ele>
      </trkpt>
      <trkpt lat="43.51339" lon="-1.05981">
        <ele>34</ele>
      </trkpt>
      <trkpt lat="43.51339" lon="-1.06">
        <ele>34.4</ele>
      </trkpt>
      <trkpt lat="43.51334" lon="-1.06059">
        <ele>35.1</ele>
      </trkpt>
      <trkpt lat="43.51331" lon="-1.06089">
        <ele>36</ele>
      </trkpt>
      <trkpt lat="43.51329" lon="-1.06118">
        <ele>36</ele>
      </trkpt>
      <trkpt lat="43.51351" lon="-1.06125">
        <ele>36</ele>
      </trkpt>
      <trkpt lat="43.51368" lon="-1.06128">
        <ele>35.7</ele>
      </trkpt>
      <trkpt lat="43.51386" lon="-1.06131">
        <ele>35.1</ele>
      </trkpt>
      <trkpt lat="43.51403" lon="-1.06134">
        <ele>34.6</ele>
      </trkpt>
      <trkpt lat="43.51424" lon="-1.06138">
        <ele>34</ele>
      </trkpt>
      <trkpt lat="43.51445" lon="-1.06142">
        <ele>34</ele>
      </trkpt>
      <trkpt lat="43.51465" lon="-1.06146">
        <ele>34</ele>
      </trkpt>
      <trkpt lat="43.51498" lon="-1.06153">
        <ele>33.5</ele>
      </trkpt>
      <trkpt lat="43.51515" lon="-1.06157">
        <ele>32.8</ele>
      </trkpt>
      <trkpt lat="43.5153" lon="-1.06161">
        <ele>32.2</ele>
      </trkpt>
      <trkpt lat="43.51544" lon="-1.06164">
        <ele>32.1</ele>
      </trkpt>
      <trkpt lat="43.51557" lon="-1.06172">
        <ele>31.7</ele>
      </trkpt>
      <trkpt lat="43.51569" lon="-1.0619">
        <ele>30.6</ele>
      </trkpt>
      <trkpt lat="43.51578" lon="-1.0621">
        <ele>30.5</ele>
      </trkpt>
      <trkpt lat="43.51585" lon="-1.06235">
        <ele>30.5</ele>
      </trkpt>
      <trkpt lat="43.51589" lon="-1.06261">
        <ele>30.4</ele>
      </trkpt>
      <trkpt lat="43.51592" lon="-1.06286">
        <ele>31.1</ele>
      </trkpt>
      <trkpt lat="43.51598" lon="-1.06337">
        <ele>32.1</ele>
      </trkpt>
      <trkpt lat="43.51601" lon="-1.06362">
        <ele>32.6</ele>
      </trkpt>
      <trkpt lat="43.51604" lon="-1.06387">
        <ele>33</ele>
      </trkpt>
      <trkpt lat="43.5161" lon="-1.06445">
        <ele>33.9</ele>
      </trkpt>
      <trkpt lat="43.51612" lon="-1.06475">
        <ele>34</ele>
      </trkpt>
      <trkpt lat="43.51615" lon="-1.06504">
        <ele>34.1</ele>
      </trkpt>
      <trkpt lat="43.51621" lon="-1.06562">
        <ele>33.9</ele>
      </trkpt>
      <trkpt lat="43.51637" lon="-1.06559">
        <ele>34</ele>
      </trkpt>
      <trkpt lat="43.51668" lon="-1.06553">
        <ele>34.1</ele>
      </trkpt>
      <trkpt lat="43.517" lon="-1.06537">
        <ele>34.3</ele>
      </trkpt>
      <trkpt lat="43.5172" lon="-1.06527">
        <ele>34</ele>
      </trkpt>
      <trkpt lat="43.5176" lon="-1.06506">
        <ele>33.3</ele>
      </trkpt>
      <trkpt lat="43.51772" lon="-1.06499">
        <ele>32.4</ele>
      </trkpt>
      <trkpt lat="43.51784" lon="-1.065">
        <ele>31.6</ele>
      </trkpt>
      <trkpt lat="43.51793" lon="-1.06513">
        <ele>31.2</ele>
      </trkpt>
      <trkpt lat="43.51801" lon="-1.06522">
        <ele>30.4</ele>
      </trkpt>
      <trkpt lat="43.51809" lon="-1.06522">
        <ele>29.8</ele>
      </trkpt>
      <trkpt lat="43.51826" lon="-1.06514">
        <ele>28.5</ele>
      </trkpt>
      <trkpt lat="43.51843" lon="-1.06505">
        <ele>26.4</ele>
      </trkpt>
      <trkpt lat="43.5186" lon="-1.06496">
        <ele>23.9</ele>
      </trkpt>
      <trkpt lat="43.51878" lon="-1.06488">
        <ele>20.2</ele>
      </trkpt>
      <trkpt lat="43.51896" lon="-1.06479">
        <ele>16.6</ele>
      </trkpt>
      <trkpt lat="43.51932" lon="-1.06461">
        <ele>12.6</ele>
      </trkpt>
      <trkpt lat="43.51944" lon="-1.06456">
        <ele>11.5</ele>
      </trkpt>
      <trkpt lat="43.51955" lon="-1.06451">
        <ele>10.5</ele>
      </trkpt>
      <trkpt lat="43.51966" lon="-1.0645">
        <ele>9.7</ele>
      </trkpt>
      <trkpt lat="43.51974" lon="-1.06455">
        <ele>9.3</ele>
      </trkpt>
      <trkpt lat="43.5198" lon="-1.06467">
        <ele>9</ele>
      </trkpt>
      <trkpt lat="43.51984" lon="-1.06485">
        <ele>9.1</ele>
      </trkpt>
      <trkpt lat="43.51989" lon="-1.06502">
        <ele>9.2</ele>
      </trkpt>
      <trkpt lat="43.51995" lon="-1.06537">
        <ele>8.5</ele>
      </trkpt>
      <trkpt lat="43.51998" lon="-1.06556">
        <ele>8.3</ele>
      </trkpt>
      <trkpt lat="43.52" lon="-1.06574">
        <ele>8.7</ele>
      </trkpt>
      <trkpt lat="43.52006" lon="-1.06585">
        <ele>9</ele>
      </trkpt>
      <trkpt lat="43.52024" lon="-1.06602">
        <ele>8.4</ele>
      </trkpt>
      <trkpt lat="43.52034" lon="-1.06611">
        <ele>8</ele>
      </trkpt>
      <trkpt lat="43.52044" lon="-1.0662">
        <ele>8.1</ele>
      </trkpt>
      <trkpt lat="43.52059" lon="-1.06636">
        <ele>7.7</ele>
      </trkpt>
      <trkpt lat="43.52075" lon="-1.06652">
        <ele>6.9</ele>
      </trkpt>
      <trkpt lat="43.52093" lon="-1.06666">
        <ele>6.6</ele>
      </trkpt>
      <trkpt lat="43.52112" lon="-1.06673">
        <ele>6</ele>
      </trkpt>
      <trkpt lat="43.52137" lon="-1.06679">
        <ele>6</ele>
      </trkpt>
      <trkpt lat="43.52158" lon="-1.06678">
        <ele>6.3</ele>
      </trkpt>
      <trkpt lat="43.52177" lon="-1.06674">
        <ele>6.3</ele>
      </trkpt>
      <trkpt lat="43.52197" lon="-1.06664">
        <ele>6</ele>
      </trkpt>
      <trkpt lat="43.52212" lon="-1.06656">
        <ele>6.2</ele>
      </trkpt>
      <trkpt lat="43.52226" lon="-1.06641">
        <ele>6.2</ele>
      </trkpt>
      <trkpt lat="43.52248" lon="-1.06603">
        <ele>6.7</ele>
      </trkpt>
      <trkpt lat="43.52256" lon="-1.06585">
        <ele>6.3</ele>
      </trkpt>
      <trkpt lat="43.52263" lon="-1.06573">
        <ele>6.6</ele>
      </trkpt>
      <trkpt lat="43.52282" lon="-1.06561">
        <ele>7.8</ele>
      </trkpt>
      <trkpt lat="43.52301" lon="-1.06549">
        <ele>8</ele>
      </trkpt>
      <trkpt lat="43.52321" lon="-1.06539">
        <ele>8</ele>
      </trkpt>
      <trkpt lat="43.5234" lon="-1.06529">
        <ele>8</ele>
      </trkpt>
      <trkpt lat="43.52359" lon="-1.0652">
        <ele>8</ele>
      </trkpt>
      <trkpt lat="43.52378" lon="-1.0651">
        <ele>8</ele>
      </trkpt>
      <trkpt lat="43.52398" lon="-1.065">
        <ele>8</ele>
      </trkpt>
      <trkpt lat="43.52417" lon="-1.0649">
        <ele>8</ele>
      </trkpt>
      <trkpt lat="43.52455" lon="-1.06469">
        <ele>8</ele>
      </trkpt>
      <trkpt lat="43.52473" lon="-1.06459">
        <ele>8</ele>
      </trkpt>
      <trkpt lat="43.52511" lon="-1.06439">
        <ele>8</ele>
      </trkpt>
      <trkpt lat="43.5253" lon="-1.06429">
        <ele>8</ele>
      </trkpt>
      <trkpt lat="43.52547" lon="-1.06422">
        <ele>8</ele>
      </trkpt>
      <trkpt lat="43.52563" lon="-1.06415">
        <ele>7.1</ele>
      </trkpt>
      <trkpt lat="43.52571" lon="-1.06427">
        <ele>6.9</ele>
      </trkpt>
      <trkpt lat="43.52587" lon="-1.06467">
        <ele>7.4</ele>
      </trkpt>
      <trkpt lat="43.52619" lon="-1.06568">
        <ele>6.8</ele>
      </trkpt>
      <trkpt lat="43.52628" lon="-1.06593">
        <ele>6.9</ele>
      </trkpt>
      <trkpt lat="43.52646" lon="-1.06648">
        <ele>7.3</ele>
      </trkpt>
      <trkpt lat="43.52674" lon="-1.06731">
        <ele>7.3</ele>
      </trkpt>
      <trkpt lat="43.5269" lon="-1.06786">
        <ele>7</ele>
      </trkpt>
      <trkpt lat="43.52698" lon="-1.06826">
        <ele>7.6</ele>
      </trkpt>
      <trkpt lat="43.52703" lon="-1.06854">
        <ele>7.2</ele>
      </trkpt>
      <trkpt lat="43.52709" lon="-1.06882">
        <ele>7</ele>
      </trkpt>
      <trkpt lat="43.52721" lon="-1.06918">
        <ele>7</ele>
      </trkpt>
      <trkpt lat="43.52738" lon="-1.06966">
        <ele>7</ele>
      </trkpt>
      <trkpt lat="43.52755" lon="-1.07014">
        <ele>7</ele>
      </trkpt>
      <trkpt lat="43.5277" lon="-1.07007">
        <ele>7</ele>
      </trkpt>
      <trkpt lat="43.52799" lon="-1.06994">
        <ele>7</ele>
      </trkpt>
      <trkpt lat="43.52813" lon="-1.06982">
        <ele>7</ele>
      </trkpt>
      <trkpt lat="43.52843" lon="-1.06959">
        <ele>7</ele>
      </trkpt>
      <trkpt lat="43.5286" lon="-1.06951">
        <ele>7</ele>
      </trkpt>
      <trkpt lat="43.5292" lon="-1.06934">
        <ele>7</ele>
      </trkpt>
      <trkpt lat="43.5294" lon="-1.06925">
        <ele>7</ele>
      </trkpt>
      <trkpt lat="43.53001" lon="-1.06877">
        <ele>7</ele>
      </trkpt>
      <trkpt lat="43.53018" lon="-1.06863">
        <ele>7</ele>
      </trkpt>
      <trkpt lat="43.53089" lon="-1.06806">
        <ele>7.8</ele>
      </trkpt>
      <trkpt lat="43.53124" lon="-1.06778">
        <ele>2</ele>
      </trkpt>
      <trkpt lat="43.5316" lon="-1.06748">
        <ele>4.7</ele>
      </trkpt>
      <trkpt lat="43.53231" lon="-1.06689">
        <ele>10.3</ele>
      </trkpt>
      <trkpt lat="43.53249" lon="-1.06674">
        <ele>11.4</ele>
      </trkpt>
      <trkpt lat="43.5324" lon="-1.06657">
        <ele>11.8</ele>
      </trkpt>
      <trkpt lat="43.5323" lon="-1.06641">
        <ele>11.5</ele>
      </trkpt>
      <trkpt lat="43.5322" lon="-1.06624">
        <ele>12.4</ele>
      </trkpt>
      <trkpt lat="43.5321" lon="-1.06608">
        <ele>12.8</ele>
      </trkpt>
      <trkpt lat="43.53184" lon="-1.06572">
        <ele>12.5</ele>
      </trkpt>
      <trkpt lat="43.53171" lon="-1.06553">
        <ele>12.4</ele>
      </trkpt>
      <trkpt lat="43.53157" lon="-1.06535">
        <ele>12.2</ele>
      </trkpt>
      <trkpt lat="43.53141" lon="-1.06512">
        <ele>11.4</ele>
      </trkpt>
      <trkpt lat="43.53134" lon="-1.06491">
        <ele>11.6</ele>
      </trkpt>
      <trkpt lat="43.5313" lon="-1.0647">
        <ele>11.5</ele>
      </trkpt>
      <trkpt lat="43.53126" lon="-1.06449">
        <ele>11.1</ele>
      </trkpt>
      <trkpt lat="43.5312" lon="-1.06422">
        <ele>10.2</ele>
      </trkpt>
      <trkpt lat="43.53106" lon="-1.06389">
        <ele>11.2</ele>
      </trkpt>
      <trkpt lat="43.53093" lon="-1.06368">
        <ele>10.6</ele>
      </trkpt>
      <trkpt lat="43.53067" lon="-1.06326">
        <ele>11.1</ele>
      </trkpt>
      <trkpt lat="43.53054" lon="-1.06312">
        <ele>10.2</ele>
      </trkpt>
      <trkpt lat="43.53041" lon="-1.06297">
        <ele>10</ele>
      </trkpt>
      <trkpt lat="43.53031" lon="-1.06278">
        <ele>8.8</ele>
      </trkpt>
      <trkpt lat="43.53002" lon="-1.06221">
        <ele>8.6</ele>
      </trkpt>
      <trkpt lat="43.52995" lon="-1.06205">
        <ele>7.6</ele>
      </trkpt>
      <trkpt lat="43.52988" lon="-1.0619">
        <ele>7.2</ele>
      </trkpt>
      <trkpt lat="43.52981" lon="-1.06164">
        <ele>8.6</ele>
      </trkpt>
      <trkpt lat="43.52968" lon="-1.06111">
        <ele>9.8</ele>
      </trkpt>
      <trkpt lat="43.52962" lon="-1.06085">
        <ele>9.8</ele>
      </trkpt>
      <trkpt lat="43.52955" lon="-1.0605">
        <ele>9.7</ele>
      </trkpt>
      <trkpt lat="43.52958" lon="-1.06027">
        <ele>10.5</ele>
      </trkpt>
      <trkpt lat="43.52949" lon="-1.06009">
        <ele>9.7</ele>
      </trkpt>
      <trkpt lat="43.52939" lon="-1.05977">
        <ele>9</ele>
      </trkpt>
      <trkpt lat="43.52929" lon="-1.05944">
        <ele>8</ele>
      </trkpt>
      <trkpt lat="43.5293" lon="-1.05924">
        <ele>9</ele>
      </trkpt>
      <trkpt lat="43.52931" lon="-1.05904">
        <ele>10</ele>
      </trkpt>
      <trkpt lat="43.52931" lon="-1.05884">
        <ele>10.8</ele>
      </trkpt>
      <trkpt lat="43.52932" lon="-1.0587">
        <ele>11.6</ele>
      </trkpt>
      <trkpt lat="43.52933" lon="-1.05855">
        <ele>12.1</ele>
      </trkpt>
      <trkpt lat="43.52923" lon="-1.05773">
        <ele>10.3</ele>
      </trkpt>
      <trkpt lat="43.5292" lon="-1.05752">
        <ele>9.7</ele>
      </trkpt>
      <trkpt lat="43.52917" lon="-1.05735">
        <ele>9.5</ele>
      </trkpt>
      <trkpt lat="43.5291" lon="-1.05702">
        <ele>10.3</ele>
      </trkpt>
      <trkpt lat="43.52905" lon="-1.05682">
        <ele>10.4</ele>
      </trkpt>
      <trkpt lat="43.529" lon="-1.05662">
        <ele>10.3</ele>
      </trkpt>
      <trkpt lat="43.52894" lon="-1.05641">
        <ele>10.4</ele>
      </trkpt>
      <trkpt lat="43.52888" lon="-1.05619">
        <ele>11.4</ele>
      </trkpt>
      <trkpt lat="43.52884" lon="-1.05606">
        <ele>11.5</ele>
      </trkpt>
      <trkpt lat="43.52879" lon="-1.05593">
        <ele>11.3</ele>
      </trkpt>
      <trkpt lat="43.52873" lon="-1.0558">
        <ele>10.8</ele>
      </trkpt>
      <trkpt lat="43.52867" lon="-1.05567">
        <ele>10.3</ele>
      </trkpt>
      <trkpt lat="43.52862" lon="-1.05549">
        <ele>11.2</ele>
      </trkpt>
      <trkpt lat="43.52885" lon="-1.05522">
        <ele>13.5</ele>
      </trkpt>
      <trkpt lat="43.52897" lon="-1.05513">
        <ele>13.9</ele>
      </trkpt>
      <trkpt lat="43.52906" lon="-1.05494">
        <ele>14.7</ele>
      </trkpt>
      <trkpt lat="43.52914" lon="-1.05475">
        <ele>15</ele>
      </trkpt>
      <trkpt lat="43.52911" lon="-1.05453">
        <ele>15.6</ele>
      </trkpt>
      <trkpt lat="43.52908" lon="-1.05438">
        <ele>15.7</ele>
      </trkpt>
      <trkpt lat="43.52915" lon="-1.05413">
        <ele>16.1</ele>
      </trkpt>
      <trkpt lat="43.5291" lon="-1.0539">
        <ele>16.7</ele>
      </trkpt>
      <trkpt lat="43.52898" lon="-1.05344">
        <ele>17.2</ele>
      </trkpt>
      <trkpt lat="43.52892" lon="-1.05322">
        <ele>17.1</ele>
      </trkpt>
      <trkpt lat="43.52886" lon="-1.05301">
        <ele>16.9</ele>
      </trkpt>
      <trkpt lat="43.5288" lon="-1.05281">
        <ele>17</ele>
      </trkpt>
      <trkpt lat="43.5286" lon="-1.05233">
        <ele>17</ele>
      </trkpt>
      <trkpt lat="43.52844" lon="-1.05195">
        <ele>17</ele>
      </trkpt>
      <trkpt lat="43.52822" lon="-1.05128">
        <ele>17.7</ele>
      </trkpt>
      <trkpt lat="43.52815" lon="-1.05106">
        <ele>18.1</ele>
      </trkpt>
      <trkpt lat="43.52807" lon="-1.05084">
        <ele>18.1</ele>
      </trkpt>
      <trkpt lat="43.528" lon="-1.05062">
        <ele>18</ele>
      </trkpt>
      <trkpt lat="43.52786" lon="-1.05018">
        <ele>19</ele>
      </trkpt>
      <trkpt lat="43.52769" lon="-1.04982">
        <ele>18.9</ele>
      </trkpt>
      <trkpt lat="43.5276" lon="-1.04964">
        <ele>19</ele>
      </trkpt>
      <trkpt lat="43.52743" lon="-1.04928">
        <ele>18.8</ele>
      </trkpt>
      <trkpt lat="43.52759" lon="-1.04908">
        <ele>19.5</ele>
      </trkpt>
      <trkpt lat="43.52776" lon="-1.04889">
        <ele>20</ele>
      </trkpt>
      <trkpt lat="43.52792" lon="-1.04869">
        <ele>21.7</ele>
      </trkpt>
      <trkpt lat="43.52801" lon="-1.04849">
        <ele>22</ele>
      </trkpt>
      <trkpt lat="43.52799" lon="-1.04825">
        <ele>24.1</ele>
      </trkpt>
      <trkpt lat="43.52789" lon="-1.04807">
        <ele>26.2</ele>
      </trkpt>
      <trkpt lat="43.52768" lon="-1.0477">
        <ele>27.2</ele>
      </trkpt>
      <trkpt lat="43.52756" lon="-1.0475">
        <ele>27.1</ele>
      </trkpt>
      <trkpt lat="43.52743" lon="-1.0473">
        <ele>26.6</ele>
      </trkpt>
      <trkpt lat="43.52734" lon="-1.04704">
        <ele>29.4</ele>
      </trkpt>
      <trkpt lat="43.52719" lon="-1.04686">
        <ele>29.2</ele>
      </trkpt>
      <trkpt lat="43.52704" lon="-1.04668">
        <ele>30.4</ele>
      </trkpt>
      <trkpt lat="43.52691" lon="-1.04642">
        <ele>33</ele>
      </trkpt>
      <trkpt lat="43.52685" lon="-1.0462">
        <ele>33</ele>
      </trkpt>
      <trkpt lat="43.52679" lon="-1.04597">
        <ele>34.4</ele>
      </trkpt>
      <trkpt lat="43.52673" lon="-1.04574">
        <ele>37.2</ele>
      </trkpt>
      <trkpt lat="43.52663" lon="-1.04556">
        <ele>39.1</ele>
      </trkpt>
      <trkpt lat="43.52647" lon="-1.04536">
        <ele>41.7</ele>
      </trkpt>
      <trkpt lat="43.52632" lon="-1.04517">
        <ele>43.1</ele>
      </trkpt>
      <trkpt lat="43.52624" lon="-1.04474">
        <ele>49.1</ele>
      </trkpt>
      <trkpt lat="43.52625" lon="-1.0445">
        <ele>48.7</ele>
      </trkpt>
      <trkpt lat="43.52627" lon="-1.04426">
        <ele>49.3</ele>
      </trkpt>
      <trkpt lat="43.52618" lon="-1.04399">
        <ele>51.1</ele>
      </trkpt>
      <trkpt lat="43.52606" lon="-1.04379">
        <ele>53</ele>
      </trkpt>
      <trkpt lat="43.52593" lon="-1.04359">
        <ele>55.2</ele>
      </trkpt>
      <trkpt lat="43.52574" lon="-1.04346">
        <ele>58</ele>
      </trkpt>
      <trkpt lat="43.52547" lon="-1.04303">
        <ele>62.3</ele>
      </trkpt>
      <trkpt lat="43.52534" lon="-1.04281">
        <ele>63.3</ele>
      </trkpt>
      <trkpt lat="43.52498" lon="-1.04216">
        <ele>67.1</ele>
      </trkpt>
      <trkpt lat="43.52487" lon="-1.04195">
        <ele>68</ele>
      </trkpt>
      <trkpt lat="43.52475" lon="-1.04174">
        <ele>69.4</ele>
      </trkpt>
      <trkpt lat="43.52447" lon="-1.04122">
        <ele>71.2</ele>
      </trkpt>
      <trkpt lat="43.52433" lon="-1.04096">
        <ele>72.8</ele>
      </trkpt>
      <trkpt lat="43.52425" lon="-1.04072">
        <ele>74</ele>
      </trkpt>
      <trkpt lat="43.5241" lon="-1.04023">
        <ele>76.2</ele>
      </trkpt>
      <trkpt lat="43.52402" lon="-1.03996">
        <ele>77.9</ele>
      </trkpt>
      <trkpt lat="43.52393" lon="-1.03968">
        <ele>78.3</ele>
      </trkpt>
      <trkpt lat="43.52376" lon="-1.03923">
        <ele>81.7</ele>
      </trkpt>
      <trkpt lat="43.52368" lon="-1.039">
        <ele>83.4</ele>
      </trkpt>
      <trkpt lat="43.52352" lon="-1.0386">
        <ele>85.6</ele>
      </trkpt>
      <trkpt lat="43.52345" lon="-1.0384">
        <ele>87.7</ele>
      </trkpt>
      <trkpt lat="43.52336" lon="-1.03813">
        <ele>90.2</ele>
      </trkpt>
      <trkpt lat="43.52336" lon="-1.03779">
        <ele>92.3</ele>
      </trkpt>
      <trkpt lat="43.52342" lon="-1.03738">
        <ele>91.3</ele>
      </trkpt>
      <trkpt lat="43.52359" lon="-1.03686">
        <ele>92.2</ele>
      </trkpt>
      <trkpt lat="43.52367" lon="-1.03661">
        <ele>94.7</ele>
      </trkpt>
      <trkpt lat="43.52376" lon="-1.03637">
        <ele>97.1</ele>
      </trkpt>
      <trkpt lat="43.52385" lon="-1.03613">
        <ele>98.9</ele>
      </trkpt>
      <trkpt lat="43.52403" lon="-1.03565">
        <ele>104.5</ele>
      </trkpt>
      <trkpt lat="43.52417" lon="-1.03513">
        <ele>105.4</ele>
      </trkpt>
      <trkpt lat="43.52418" lon="-1.03501">
        <ele>104.9</ele>
      </trkpt>
      <trkpt lat="43.52418" lon="-1.03488">
        <ele>104</ele>
      </trkpt>
      <trkpt lat="43.52413" lon="-1.03478">
        <ele>103.4</ele>
      </trkpt>
      <trkpt lat="43.52407" lon="-1.03467">
        <ele>102.1</ele>
      </trkpt>
      <trkpt lat="43.52394" lon="-1.03454">
        <ele>99.3</ele>
      </trkpt>
      <trkpt lat="43.5238" lon="-1.03441">
        <ele>96.1</ele>
      </trkpt>
      <trkpt lat="43.52367" lon="-1.03429">
        <ele>93.9</ele>
      </trkpt>
      <trkpt lat="43.52353" lon="-1.03417">
        <ele>91.8</ele>
      </trkpt>
      <trkpt lat="43.52343" lon="-1.03405">
        <ele>90.3</ele>
      </trkpt>
      <trkpt lat="43.52323" lon="-1.03325">
        <ele>87.8</ele>
      </trkpt>
      <trkpt lat="43.52318" lon="-1.03306">
        <ele>87.7</ele>
      </trkpt>
      <trkpt lat="43.52304" lon="-1.03249">
        <ele>88</ele>
      </trkpt>
      <trkpt lat="43.523" lon="-1.0323">
        <ele>88.2</ele>
      </trkpt>
      <trkpt lat="43.52291" lon="-1.03211">
        <ele>88.9</ele>
      </trkpt>
      <trkpt lat="43.52265" lon="-1.03155">
        <ele>89.7</ele>
      </trkpt>
      <trkpt lat="43.5223" lon="-1.03081">
        <ele>89.2</ele>
      </trkpt>
      <trkpt lat="43.52222" lon="-1.03062">
        <ele>88.5</ele>
      </trkpt>
      <trkpt lat="43.52213" lon="-1.0305">
        <ele>88.1</ele>
      </trkpt>
      <trkpt lat="43.52194" lon="-1.03027">
        <ele>89.8</ele>
      </trkpt>
      <trkpt lat="43.52183" lon="-1.03024">
        <ele>89.8</ele>
      </trkpt>
      <trkpt lat="43.52171" lon="-1.03022">
        <ele>90</ele>
      </trkpt>
      <trkpt lat="43.52157" lon="-1.02983">
        <ele>90</ele>
      </trkpt>
      <trkpt lat="43.5215" lon="-1.02964">
        <ele>89.9</ele>
      </trkpt>
      <trkpt lat="43.52122" lon="-1.02886">
        <ele>90.7</ele>
      </trkpt>
      <trkpt lat="43.52109" lon="-1.02833">
        <ele>91.9</ele>
      </trkpt>
      <trkpt lat="43.52105" lon="-1.02816">
        <ele>91.8</ele>
      </trkpt>
      <trkpt lat="43.52101" lon="-1.02797">
        <ele>92.3</ele>
      </trkpt>
      <trkpt lat="43.52092" lon="-1.02759">
        <ele>92.8</ele>
      </trkpt>
      <trkpt lat="43.52088" lon="-1.0274">
        <ele>93.3</ele>
      </trkpt>
      <trkpt lat="43.52081" lon="-1.02724">
        <ele>93.7</ele>
      </trkpt>
      <trkpt lat="43.52067" lon="-1.02691">
        <ele>93</ele>
      </trkpt>
      <trkpt lat="43.52054" lon="-1.02658">
        <ele>93.8</ele>
      </trkpt>
      <trkpt lat="43.52046" lon="-1.02645">
        <ele>92.6</ele>
      </trkpt>
      <trkpt lat="43.52037" lon="-1.02631">
        <ele>92.7</ele>
      </trkpt>
      <trkpt lat="43.52029" lon="-1.02618">
        <ele>93.9</ele>
      </trkpt>
      <trkpt lat="43.52019" lon="-1.02601">
        <ele>95.9</ele>
      </trkpt>
      <trkpt lat="43.52013" lon="-1.0259">
        <ele>97.1</ele>
      </trkpt>
      <trkpt lat="43.52007" lon="-1.0258">
        <ele>97.9</ele>
      </trkpt>
      <trkpt lat="43.52002" lon="-1.02569">
        <ele>98.2</ele>
      </trkpt>
      <trkpt lat="43.51996" lon="-1.02559">
        <ele>99.3</ele>
      </trkpt>
      <trkpt lat="43.5199" lon="-1.02549">
        <ele>99.3</ele>
      </trkpt>
      <trkpt lat="43.51984" lon="-1.02538">
        <ele>98.9</ele>
      </trkpt>
      <trkpt lat="43.5194" lon="-1.0246">
        <ele>101.1</ele>
      </trkpt>
      <trkpt lat="43.51906" lon="-1.02403">
        <ele>104.9</ele>
      </trkpt>
      <trkpt lat="43.51907" lon="-1.0239">
        <ele>104.4</ele>
      </trkpt>
      <trkpt lat="43.51907" lon="-1.02377">
        <ele>105.3</ele>
      </trkpt>
      <trkpt lat="43.51917" lon="-1.0236">
        <ele>107.1</ele>
      </trkpt>
      <trkpt lat="43.51933" lon="-1.02354">
        <ele>108.6</ele>
      </trkpt>
      <trkpt lat="43.5194" lon="-1.0235">
        <ele>109.6</ele>
      </trkpt>
      <trkpt lat="43.51949" lon="-1.02341">
        <ele>112.8</ele>
      </trkpt>
      <trkpt lat="43.51977" lon="-1.02314">
        <ele>119.7</ele>
      </trkpt>
      <trkpt lat="43.5199" lon="-1.02297">
        <ele>120.8</ele>
      </trkpt>
      <trkpt lat="43.51997" lon="-1.02289">
        <ele>121.1</ele>
      </trkpt>
      <trkpt lat="43.52006" lon="-1.02265">
        <ele>120</ele>
      </trkpt>
      <trkpt lat="43.52011" lon="-1.02252">
        <ele>119.4</ele>
      </trkpt>
      <trkpt lat="43.52019" lon="-1.02243">
        <ele>119</ele>
      </trkpt>
      <trkpt lat="43.52036" lon="-1.02226">
        <ele>116.3</ele>
      </trkpt>
      <trkpt lat="43.52044" lon="-1.02217">
        <ele>114.6</ele>
      </trkpt>
      <trkpt lat="43.52049" lon="-1.02208">
        <ele>113</ele>
      </trkpt>
      <trkpt lat="43.52059" lon="-1.02189">
        <ele>110.1</ele>
      </trkpt>
      <trkpt lat="43.52063" lon="-1.02175">
        <ele>108.7</ele>
      </trkpt>
      <trkpt lat="43.52072" lon="-1.02147">
        <ele>107.9</ele>
      </trkpt>
      <trkpt lat="43.52077" lon="-1.02133">
        <ele>108</ele>
      </trkpt>
      <trkpt lat="43.52084" lon="-1.02107">
        <ele>107.9</ele>
      </trkpt>
      <trkpt lat="43.5209" lon="-1.02081">
        <ele>106.3</ele>
      </trkpt>
      <trkpt lat="43.52091" lon="-1.02066">
        <ele>105.2</ele>
      </trkpt>
      <trkpt lat="43.52091" lon="-1.02051">
        <ele>104.1</ele>
      </trkpt>
      <trkpt lat="43.52092" lon="-1.02022">
        <ele>102.1</ele>
      </trkpt>
      <trkpt lat="43.521" lon="-1.02028">
        <ele>100.2</ele>
      </trkpt>
      <trkpt lat="43.52109" lon="-1.02035">
        <ele>98.4</ele>
      </trkpt>
      <trkpt lat="43.52117" lon="-1.02042">
        <ele>97.3</ele>
      </trkpt>
      <trkpt lat="43.52154" lon="-1.02064">
        <ele>92.6</ele>
      </trkpt>
      <trkpt lat="43.52173" lon="-1.02069">
        <ele>89.9</ele>
      </trkpt>
      <trkpt lat="43.52183" lon="-1.02072">
        <ele>88.6</ele>
      </trkpt>
      <trkpt lat="43.52196" lon="-1.02074">
        <ele>86.9</ele>
      </trkpt>
      <trkpt lat="43.52221" lon="-1.02079">
        <ele>84.6</ele>
      </trkpt>
      <trkpt lat="43.52272" lon="-1.02086">
        <ele>82</ele>
      </trkpt>
      <trkpt lat="43.5229" lon="-1.02089">
        <ele>81.2</ele>
      </trkpt>
      <trkpt lat="43.52302" lon="-1.02086">
        <ele>81</ele>
      </trkpt>
      <trkpt lat="43.52313" lon="-1.02083">
        <ele>80.2</ele>
      </trkpt>
      <trkpt lat="43.52321" lon="-1.02077">
        <ele>79.1</ele>
      </trkpt>
      <trkpt lat="43.52329" lon="-1.02072">
        <ele>78.3</ele>
      </trkpt>
      <trkpt lat="43.52338" lon="-1.02066">
        <ele>77.6</ele>
      </trkpt>
      <trkpt lat="43.52356" lon="-1.02066">
        <ele>75.9</ele>
      </trkpt>
      <trkpt lat="43.52372" lon="-1.02076">
        <ele>73.7</ele>
      </trkpt>
      <trkpt lat="43.52389" lon="-1.02101">
        <ele>69.5</ele>
      </trkpt>
      <trkpt lat="43.52423" lon="-1.0215">
        <ele>63.3</ele>
      </trkpt>
      <trkpt lat="43.52441" lon="-1.02175">
        <ele>60.5</ele>
      </trkpt>
      <trkpt lat="43.52446" lon="-1.02191">
        <ele>59</ele>
      </trkpt>
      <trkpt lat="43.52462" lon="-1.02237">
        <ele>55.6</ele>
      </trkpt>
      <trkpt lat="43.52477" lon="-1.02251">
        <ele>53.7</ele>
      </trkpt>
      <trkpt lat="43.52484" lon="-1.02259">
        <ele>52.5</ele>
      </trkpt>
      <trkpt lat="43.52494" lon="-1.02262">
        <ele>52.7</ele>
      </trkpt>
      <trkpt lat="43.52503" lon="-1.02265">
        <ele>52.2</ele>
      </trkpt>
      <trkpt lat="43.52527" lon="-1.02258">
        <ele>46.3</ele>
      </trkpt>
      <trkpt lat="43.52537" lon="-1.02251">
        <ele>43.1</ele>
      </trkpt>
      <trkpt lat="43.52547" lon="-1.02244">
        <ele>41.2</ele>
      </trkpt>
      <trkpt lat="43.52557" lon="-1.02237">
        <ele>39.2</ele>
      </trkpt>
      <trkpt lat="43.52568" lon="-1.02235">
        <ele>37.2</ele>
      </trkpt>
      <trkpt lat="43.52581" lon="-1.02234">
        <ele>34.8</ele>
      </trkpt>
      <trkpt lat="43.52598" lon="-1.02252">
        <ele>33.2</ele>
      </trkpt>
      <trkpt lat="43.52606" lon="-1.02261">
        <ele>32.3</ele>
      </trkpt>
      <trkpt lat="43.52613" lon="-1.02271">
        <ele>30.9</ele>
      </trkpt>
      <trkpt lat="43.52619" lon="-1.0228">
        <ele>30.1</ele>
      </trkpt>
      <trkpt lat="43.52626" lon="-1.02286">
        <ele>29.3</ele>
      </trkpt>
      <trkpt lat="43.52632" lon="-1.02292">
        <ele>28.6</ele>
      </trkpt>
      <trkpt lat="43.52643" lon="-1.0229">
        <ele>28.1</ele>
      </trkpt>
      <trkpt lat="43.52658" lon="-1.02277">
        <ele>28</ele>
      </trkpt>
      <trkpt lat="43.52672" lon="-1.02265">
        <ele>27.6</ele>
      </trkpt>
      <trkpt lat="43.52687" lon="-1.02253">
        <ele>25.4</ele>
      </trkpt>
      <trkpt lat="43.52708" lon="-1.02244">
        <ele>25</ele>
      </trkpt>
      <trkpt lat="43.52721" lon="-1.0224">
        <ele>25.3</ele>
      </trkpt>
      <trkpt lat="43.52735" lon="-1.02236">
        <ele>24.8</ele>
      </trkpt>
      <trkpt lat="43.52761" lon="-1.02212">
        <ele>23</ele>
      </trkpt>
      <trkpt lat="43.52772" lon="-1.02194">
        <ele>22.2</ele>
      </trkpt>
      <trkpt lat="43.52783" lon="-1.02177">
        <ele>21.4</ele>
      </trkpt>
      <trkpt lat="43.52791" lon="-1.02161">
        <ele>20.9</ele>
      </trkpt>
      <trkpt lat="43.52799" lon="-1.02144">
        <ele>20.4</ele>
      </trkpt>
      <trkpt lat="43.52812" lon="-1.02129">
        <ele>19.9</ele>
      </trkpt>
      <trkpt lat="43.52825" lon="-1.02113">
        <ele>19.3</ele>
      </trkpt>
      <trkpt lat="43.52843" lon="-1.02095">
        <ele>18.9</ele>
      </trkpt>
      <trkpt lat="43.52856" lon="-1.02072">
        <ele>19.3</ele>
      </trkpt>
      <trkpt lat="43.52869" lon="-1.02048">
        <ele>20.2</ele>
      </trkpt>
      <trkpt lat="43.52881" lon="-1.02023">
        <ele>20.2</ele>
      </trkpt>
      <trkpt lat="43.529" lon="-1.02008">
        <ele>20.8</ele>
      </trkpt>
      <trkpt lat="43.52917" lon="-1.01983">
        <ele>20.4</ele>
      </trkpt>
      <trkpt lat="43.52934" lon="-1.01958">
        <ele>20.2</ele>
      </trkpt>
      <trkpt lat="43.5295" lon="-1.01938">
        <ele>20.2</ele>
      </trkpt>
      <trkpt lat="43.52983" lon="-1.01899">
        <ele>20</ele>
      </trkpt>
      <trkpt lat="43.53001" lon="-1.01883">
        <ele>20</ele>
      </trkpt>
      <trkpt lat="43.53038" lon="-1.01849">
        <ele>20</ele>
      </trkpt>
      <trkpt lat="43.53056" lon="-1.01834">
        <ele>20</ele>
      </trkpt>
      <trkpt lat="43.53073" lon="-1.01819">
        <ele>20</ele>
      </trkpt>
      <trkpt lat="43.53091" lon="-1.01804">
        <ele>20.3</ele>
      </trkpt>
      <trkpt lat="43.53087" lon="-1.0177">
        <ele>20.1</ele>
      </trkpt>
      <trkpt lat="43.53078" lon="-1.01703">
        <ele>20.4</ele>
      </trkpt>
      <trkpt lat="43.53113" lon="-1.01694">
        <ele>20.1</ele>
      </trkpt>
      <trkpt lat="43.53131" lon="-1.0169">
        <ele>20.7</ele>
      </trkpt>
      <trkpt lat="43.53171" lon="-1.01676">
        <ele>20.8</ele>
      </trkpt>
      <trkpt lat="43.53192" lon="-1.01669">
        <ele>20.1</ele>
      </trkpt>
      <trkpt lat="43.53211" lon="-1.01657">
        <ele>18.5</ele>
      </trkpt>
      <trkpt lat="43.5322" lon="-1.0164">
        <ele>17.2</ele>
      </trkpt>
      <trkpt lat="43.53233" lon="-1.01619">
        <ele>16.6</ele>
      </trkpt>
      <trkpt lat="43.5326" lon="-1.01578">
        <ele>16</ele>
      </trkpt>
      <trkpt lat="43.53282" lon="-1.01542">
        <ele>16</ele>
      </trkpt>
      <trkpt lat="43.53299" lon="-1.0154">
        <ele>16</ele>
      </trkpt>
      <trkpt lat="43.53318" lon="-1.01539">
        <ele>16</ele>
      </trkpt>
      <trkpt lat="43.53336" lon="-1.01539">
        <ele>16.1</ele>
      </trkpt>
      <trkpt lat="43.53355" lon="-1.01538">
        <ele>16.5</ele>
      </trkpt>
      <trkpt lat="43.53402" lon="-1.01526">
        <ele>16.5</ele>
      </trkpt>
      <trkpt lat="43.53426" lon="-1.0152">
        <ele>16</ele>
      </trkpt>
      <trkpt lat="43.53422" lon="-1.0149">
        <ele>16.4</ele>
      </trkpt>
      <trkpt lat="43.53419" lon="-1.0146">
        <ele>17</ele>
      </trkpt>
      <trkpt lat="43.53415" lon="-1.0143">
        <ele>17</ele>
      </trkpt>
      <trkpt lat="43.53428" lon="-1.01341">
        <ele>17</ele>
      </trkpt>
      <trkpt lat="43.53426" lon="-1.01314">
        <ele>17.5</ele>
      </trkpt>
      <trkpt lat="43.53425" lon="-1.01287">
        <ele>17.2</ele>
      </trkpt>
      <trkpt lat="43.53422" lon="-1.01259">
        <ele>17</ele>
      </trkpt>
      <trkpt lat="43.53423" lon="-1.01258">
        <ele>17</ele>
      </trkpt>
      <trkpt lat="43.53426" lon="-1.01237">
        <ele>17</ele>
      </trkpt>
      <trkpt lat="43.53427" lon="-1.01237">
        <ele>17</ele>
      </trkpt>
      <trkpt lat="43.53431" lon="-1.01238">
        <ele>17</ele>
      </trkpt>
      <trkpt lat="43.53445" lon="-1.01238">
        <ele>17</ele>
      </trkpt>
      <trkpt lat="43.53447" lon="-1.01238">
        <ele>16.9</ele>
      </trkpt>
      <trkpt lat="43.5345" lon="-1.01237">
        <ele>16.8</ele>
      </trkpt>
      <trkpt lat="43.53496" lon="-1.01219">
        <ele>14.9</ele>
      </trkpt>
      <trkpt lat="43.53501" lon="-1.01217">
        <ele>14.6</ele>
      </trkpt>
      <trkpt lat="43.53502" lon="-1.01216">
        <ele>14.5</ele>
      </trkpt>
      <trkpt lat="43.53513" lon="-1.01212">
        <ele>13.8</ele>
      </trkpt>
      <trkpt lat="43.5375" lon="-1.01111">
        <ele>14</ele>
      </trkpt>
      <trkpt lat="43.53767" lon="-1.01104">
        <ele>11.3</ele>
      </trkpt>
      <trkpt lat="43.53772" lon="-1.01102">
        <ele>10.6</ele>
      </trkpt>
      <trkpt lat="43.53775" lon="-1.01101">
        <ele>10.2</ele>
      </trkpt>
      <trkpt lat="43.53833" lon="-1.01076">
        <ele>8.5</ele>
      </trkpt>
      <trkpt lat="43.53855" lon="-1.01066">
        <ele>11.5</ele>
      </trkpt>
      <trkpt lat="43.53887" lon="-1.0106">
        <ele>12.7</ele>
      </trkpt>
      <trkpt lat="43.53915" lon="-1.0106">
        <ele>11.1</ele>
      </trkpt>
      <trkpt lat="43.53938" lon="-1.01077">
        <ele>11.8</ele>
      </trkpt>
      <trkpt lat="43.54033" lon="-1.01253">
        <ele>10.8</ele>
      </trkpt>
      <trkpt lat="43.54127" lon="-1.01426">
        <ele>10.9</ele>
      </trkpt>
      <trkpt lat="43.5416" lon="-1.01483">
        <ele>13.6</ele>
      </trkpt>
      <trkpt lat="43.54188" lon="-1.01495">
        <ele>14.9</ele>
      </trkpt>
      <trkpt lat="43.54244" lon="-1.01507">
        <ele>15.3</ele>
      </trkpt>
      <trkpt lat="43.5436" lon="-1.01541">
        <ele>19</ele>
      </trkpt>
      <trkpt lat="43.54489" lon="-1.01517">
        <ele>20.6</ele>
      </trkpt>
      <trkpt lat="43.54559" lon="-1.01496">
        <ele>26.4</ele>
      </trkpt>
      <trkpt lat="43.54601" lon="-1.0151">
        <ele>32.4</ele>
      </trkpt>
      <trkpt lat="43.54632" lon="-1.01514">
        <ele>36.4</ele>
      </trkpt>
      <trkpt lat="43.5472" lon="-1.01516">
        <ele>39.5</ele>
      </trkpt>
      <trkpt lat="43.54749" lon="-1.01512">
        <ele>39</ele>
      </trkpt>
      <trkpt lat="43.54921" lon="-1.01509">
        <ele>40.9</ele>
      </trkpt>
      <trkpt lat="43.54908" lon="-1.01572">
        <ele>40.6</ele>
      </trkpt>
      <trkpt lat="43.54967" lon="-1.01598">
        <ele>41</ele>
      </trkpt>
      <trkpt lat="43.55036" lon="-1.01619">
        <ele>41.3</ele>
      </trkpt>
      <trkpt lat="43.55034" lon="-1.01756">
        <ele>41.2</ele>
      </trkpt>
      <trkpt lat="43.55028" lon="-1.01919">
        <ele>41</ele>
      </trkpt>
      <trkpt lat="43.55035" lon="-1.01942">
        <ele>41.3</ele>
      </trkpt>
      <trkpt lat="43.5506" lon="-1.02037">
        <ele>42.2</ele>
      </trkpt>
      <trkpt lat="43.5507" lon="-1.0206">
        <ele>42.7</ele>
      </trkpt>
      <trkpt lat="43.55084" lon="-1.02066">
        <ele>43.4</ele>
      </trkpt>
      <trkpt lat="43.55111" lon="-1.02077">
        <ele>44.2</ele>
      </trkpt>
      <trkpt lat="43.55129" lon="-1.02132">
        <ele>44.8</ele>
      </trkpt>
      <trkpt lat="43.55154" lon="-1.02204">
        <ele>44</ele>
      </trkpt>
      <trkpt lat="43.55182" lon="-1.02206">
        <ele>45.2</ele>
      </trkpt>
      <trkpt lat="43.55206" lon="-1.02214">
        <ele>46.5</ele>
      </trkpt>
      <trkpt lat="43.5525" lon="-1.02249">
        <ele>49.9</ele>
      </trkpt>
      <trkpt lat="43.55294" lon="-1.02292">
        <ele>54</ele>
      </trkpt>
      <trkpt lat="43.55318" lon="-1.02317">
        <ele>56.3</ele>
      </trkpt>
      <trkpt lat="43.55349" lon="-1.02363">
        <ele>61.3</ele>
      </trkpt>
      <trkpt lat="43.554" lon="-1.02428">
        <ele>68.8</ele>
      </trkpt>
      <trkpt lat="43.55433" lon="-1.02471">
        <ele>67.5</ele>
      </trkpt>
      <trkpt lat="43.55501" lon="-1.02545">
        <ele>59.3</ele>
      </trkpt>
      <trkpt lat="43.55543" lon="-1.02589">
        <ele>54.7</ele>
      </trkpt>
      <trkpt lat="43.5556" lon="-1.02615">
        <ele>52.3</ele>
      </trkpt>
      <trkpt lat="43.55548" lon="-1.02668">
        <ele>49.2</ele>
      </trkpt>
      <trkpt lat="43.55535" lon="-1.02711">
        <ele>49.8</ele>
      </trkpt>
      <trkpt lat="43.55521" lon="-1.0274">
        <ele>51.2</ele>
      </trkpt>
      <trkpt lat="43.55505" lon="-1.02765">
        <ele>49.9</ele>
      </trkpt>
      <trkpt lat="43.55477" lon="-1.02794">
        <ele>48.2</ele>
      </trkpt>
      <trkpt lat="43.55432" lon="-1.02842">
        <ele>47.6</ele>
      </trkpt>
      <trkpt lat="43.55423" lon="-1.02876">
        <ele>45.4</ele>
      </trkpt>
      <trkpt lat="43.55403" lon="-1.02919">
        <ele>44.3</ele>
      </trkpt>
      <trkpt lat="43.55402" lon="-1.02939">
        <ele>42.7</ele>
      </trkpt>
      <trkpt lat="43.55398" lon="-1.02961">
        <ele>41.4</ele>
      </trkpt>
      <trkpt lat="43.55381" lon="-1.02981">
        <ele>41.4</ele>
      </trkpt>
      <trkpt lat="43.55367" lon="-1.03008">
        <ele>39.9</ele>
      </trkpt>
      <trkpt lat="43.55359" lon="-1.0304">
        <ele>38.5</ele>
      </trkpt>
      <trkpt lat="43.55359" lon="-1.03068">
        <ele>38</ele>
      </trkpt>
      <trkpt lat="43.55367" lon="-1.031">
        <ele>37.3</ele>
      </trkpt>
      <trkpt lat="43.55382" lon="-1.03142">
        <ele>37.7</ele>
      </trkpt>
      <trkpt lat="43.55401" lon="-1.03169">
        <ele>37.3</ele>
      </trkpt>
      <trkpt lat="43.55423" lon="-1.03179">
        <ele>37.9</ele>
      </trkpt>
      <trkpt lat="43.55442" lon="-1.03181">
        <ele>38.9</ele>
      </trkpt>
      <trkpt lat="43.55472" lon="-1.03177">
        <ele>39</ele>
      </trkpt>
      <trkpt lat="43.55482" lon="-1.03182">
        <ele>38.8</ele>
      </trkpt>
      <trkpt lat="43.555" lon="-1.03204">
        <ele>38</ele>
      </trkpt>
      <trkpt lat="43.5553" lon="-1.03248">
        <ele>34.2</ele>
      </trkpt>
      <trkpt lat="43.55553" lon="-1.03274">
        <ele>33.2</ele>
      </trkpt>
      <trkpt lat="43.55581" lon="-1.03293">
        <ele>33</ele>
      </trkpt>
      <trkpt lat="43.55648" lon="-1.03305">
        <ele>34.7</ele>
      </trkpt>
      <trkpt lat="43.55679" lon="-1.03313">
        <ele>37.1</ele>
      </trkpt>
      <trkpt lat="43.55695" lon="-1.03326">
        <ele>38.3</ele>
      </trkpt>
      <trkpt lat="43.55692" lon="-1.03388">
        <ele>36.7</ele>
      </trkpt>
      <trkpt lat="43.55699" lon="-1.03447">
        <ele>35.4</ele>
      </trkpt>
      <trkpt lat="43.55723" lon="-1.03516">
        <ele>35</ele>
      </trkpt>
      <trkpt lat="43.5574" lon="-1.03627">
        <ele>29.4</ele>
      </trkpt>
      <trkpt lat="43.55747" lon="-1.03636">
        <ele>29</ele>
      </trkpt>
      <trkpt lat="43.55794" lon="-1.03661">
        <ele>27.2</ele>
      </trkpt>
      <trkpt lat="43.55816" lon="-1.03661">
        <ele>27.3</ele>
      </trkpt>
      <trkpt lat="43.55876" lon="-1.03697">
        <ele>24.8</ele>
      </trkpt>
      <trkpt lat="43.5589" lon="-1.03697">
        <ele>24.8</ele>
      </trkpt>
      <trkpt lat="43.55908" lon="-1.03678">
        <ele>25.1</ele>
      </trkpt>
      <trkpt lat="43.5592" lon="-1.03656">
        <ele>25.2</ele>
      </trkpt>
      <trkpt lat="43.55926" lon="-1.03641">
        <ele>25.2</ele>
      </trkpt>
      <trkpt lat="43.55989" lon="-1.03655">
        <ele>24</ele>
      </trkpt>
      <trkpt lat="43.56004" lon="-1.03675">
        <ele>24</ele>
      </trkpt>
      <trkpt lat="43.5601" lon="-1.03706">
        <ele>23.6</ele>
      </trkpt>
      <trkpt lat="43.56002" lon="-1.0374">
        <ele>23</ele>
      </trkpt>
      <trkpt lat="43.5599" lon="-1.0378">
        <ele>23.1</ele>
      </trkpt>
      <trkpt lat="43.55995" lon="-1.03812">
        <ele>23.9</ele>
      </trkpt>
      <trkpt lat="43.56048" lon="-1.03852">
        <ele>25.5</ele>
      </trkpt>
      <trkpt lat="43.56093" lon="-1.03893">
        <ele>25.1</ele>
      </trkpt>
      <trkpt lat="43.56113" lon="-1.03925">
        <ele>25.9</ele>
      </trkpt>
      <trkpt lat="43.56138" lon="-1.03974">
        <ele>26</ele>
      </trkpt>
      <trkpt lat="43.56159" lon="-1.04003">
        <ele>25.4</ele>
      </trkpt>
      <trkpt lat="43.56169" lon="-1.04022">
        <ele>25.8</ele>
      </trkpt>
      <trkpt lat="43.56233" lon="-1.0399">
        <ele>25.3</ele>
      </trkpt>
      <trkpt lat="43.56281" lon="-1.03966">
        <ele>25.2</ele>
      </trkpt>
      <trkpt lat="43.56334" lon="-1.03951">
        <ele>25.8</ele>
      </trkpt>
      <trkpt lat="43.56365" lon="-1.04076">
        <ele>32.2</ele>
      </trkpt>
      <trkpt lat="43.56411" lon="-1.04226">
        <ele>41.9</ele>
      </trkpt>
      <trkpt lat="43.56429" lon="-1.0429">
        <ele>42.7</ele>
      </trkpt>
      <trkpt lat="43.56439" lon="-1.04308">
        <ele>43.4</ele>
      </trkpt>
      <trkpt lat="43.56453" lon="-1.04316">
        <ele>44.6</ele>
      </trkpt>
      <trkpt lat="43.56524" lon="-1.04334">
        <ele>46.1</ele>
      </trkpt>
      <trkpt lat="43.56542" lon="-1.04343">
        <ele>46.5</ele>
      </trkpt>
      <trkpt lat="43.56546" lon="-1.04362">
        <ele>47.4</ele>
      </trkpt>
      <trkpt lat="43.56541" lon="-1.04388">
        <ele>47.5</ele>
      </trkpt>
      <trkpt lat="43.56505" lon="-1.04509">
        <ele>48.8</ele>
      </trkpt>
      <trkpt lat="43.56473" lon="-1.04615">
        <ele>52.1</ele>
      </trkpt>
      <trkpt lat="43.5647" lon="-1.0469">
        <ele>53.9</ele>
      </trkpt>
      <trkpt lat="43.56467" lon="-1.04724">
        <ele>54.9</ele>
      </trkpt>
      <trkpt lat="43.56458" lon="-1.04753">
        <ele>55.6</ele>
      </trkpt>
      <trkpt lat="43.56426" lon="-1.04822">
        <ele>60.9</ele>
      </trkpt>
      <trkpt lat="43.56421" lon="-1.04881">
        <ele>63.6</ele>
      </trkpt>
      <trkpt lat="43.56427" lon="-1.04935">
        <ele>64.9</ele>
      </trkpt>
      <trkpt lat="43.56446" lon="-1.04991">
        <ele>66.6</ele>
      </trkpt>
      <trkpt lat="43.5646" lon="-1.05049">
        <ele>68.2</ele>
      </trkpt>
      <trkpt lat="43.56459" lon="-1.05095">
        <ele>69.9</ele>
      </trkpt>
      <trkpt lat="43.56449" lon="-1.05173">
        <ele>72.2</ele>
      </trkpt>
      <trkpt lat="43.56427" lon="-1.05292">
        <ele>72.3</ele>
      </trkpt>
      <trkpt lat="43.56384" lon="-1.05481">
        <ele>74</ele>
      </trkpt>
      <trkpt lat="43.56371" lon="-1.05544">
        <ele>73.3</ele>
      </trkpt>
      <trkpt lat="43.56365" lon="-1.05597">
        <ele>74</ele>
      </trkpt>
      <trkpt lat="43.56357" lon="-1.05707">
        <ele>77.2</ele>
      </trkpt>
      <trkpt lat="43.56349" lon="-1.05771">
        <ele>78</ele>
      </trkpt>
      <trkpt lat="43.56336" lon="-1.05818">
        <ele>78.4</ele>
      </trkpt>
      <trkpt lat="43.56311" lon="-1.05858">
        <ele>78</ele>
      </trkpt>
      <trkpt lat="43.56279" lon="-1.05887">
        <ele>79.8</ele>
      </trkpt>
      <trkpt lat="43.56248" lon="-1.05912">
        <ele>81.4</ele>
      </trkpt>
      <trkpt lat="43.56302" lon="-1.05958">
        <ele>88.1</ele>
      </trkpt>
      <trkpt lat="43.56341" lon="-1.06001">
        <ele>91.8</ele>
      </trkpt>
      <trkpt lat="43.56395" lon="-1.06114">
        <ele>94.2</ele>
      </trkpt>
      <trkpt lat="43.56422" lon="-1.06219">
        <ele>93.9</ele>
      </trkpt>
      <trkpt lat="43.56466" lon="-1.06234">
        <ele>90.2</ele>
      </trkpt>
      <trkpt lat="43.56515" lon="-1.06241">
        <ele>87.2</ele>
      </trkpt>
      <trkpt lat="43.56548" lon="-1.06232">
        <ele>86.3</ele>
      </trkpt>
      <trkpt lat="43.56567" lon="-1.0622">
        <ele>85.6</ele>
      </trkpt>
      <trkpt lat="43.56581" lon="-1.0626">
        <ele>82.2</ele>
      </trkpt>
      <trkpt lat="43.56582" lon="-1.06283">
        <ele>79.7</ele>
      </trkpt>
      <trkpt lat="43.56539" lon="-1.06318">
        <ele>79</ele>
      </trkpt>
      <trkpt lat="43.56564" lon="-1.06342">
        <ele>74.8</ele>
      </trkpt>
      <trkpt lat="43.56607" lon="-1.06325">
        <ele>72.4</ele>
      </trkpt>
      <trkpt lat="43.56638" lon="-1.06316">
        <ele>70.9</ele>
      </trkpt>
      <trkpt lat="43.56689" lon="-1.06321">
        <ele>69.5</ele>
      </trkpt>
      <trkpt lat="43.56713" lon="-1.06309">
        <ele>69.9</ele>
      </trkpt>
      <trkpt lat="43.56762" lon="-1.06266">
        <ele>68.5</ele>
      </trkpt>
      <trkpt lat="43.56818" lon="-1.06223">
        <ele>62.1</ele>
      </trkpt>
      <trkpt lat="43.5686" lon="-1.06186">
        <ele>62.7</ele>
      </trkpt>
      <trkpt lat="43.56899" lon="-1.06168">
        <ele>62.1</ele>
      </trkpt>
      <trkpt lat="43.56947" lon="-1.06155">
        <ele>60.7</ele>
      </trkpt>
      <trkpt lat="43.57027" lon="-1.06139">
        <ele>57.1</ele>
      </trkpt>
      <trkpt lat="43.57127" lon="-1.0612">
        <ele>51.9</ele>
      </trkpt>
      <trkpt lat="43.5718" lon="-1.06101">
        <ele>49.6</ele>
      </trkpt>
      <trkpt lat="43.5723" lon="-1.06065">
        <ele>47.3</ele>
      </trkpt>
      <trkpt lat="43.57321" lon="-1.06001">
        <ele>46.4</ele>
      </trkpt>
      <trkpt lat="43.57467" lon="-1.05946">
        <ele>42.1</ele>
      </trkpt>
      <trkpt lat="43.57495" lon="-1.05939">
        <ele>41.6</ele>
      </trkpt>
      <trkpt lat="43.57526" lon="-1.05924">
        <ele>42</ele>
      </trkpt>
      <trkpt lat="43.57545" lon="-1.05938">
        <ele>41.4</ele>
      </trkpt>
      <trkpt lat="43.57559" lon="-1.05962">
        <ele>41.5</ele>
      </trkpt>
      <trkpt lat="43.57576" lon="-1.06004">
        <ele>41.4</ele>
      </trkpt>
      <trkpt lat="43.57647" lon="-1.05951">
        <ele>41</ele>
      </trkpt>
      <trkpt lat="43.5768" lon="-1.05942">
        <ele>40.8</ele>
      </trkpt>
      <trkpt lat="43.57712" lon="-1.05924">
        <ele>39.4</ele>
      </trkpt>
      <trkpt lat="43.57741" lon="-1.05915">
        <ele>39</ele>
      </trkpt>
      <trkpt lat="43.57815" lon="-1.05926">
        <ele>39</ele>
      </trkpt>
      <trkpt lat="43.57876" lon="-1.05931">
        <ele>40.6</ele>
      </trkpt>
      <trkpt lat="43.5791" lon="-1.05927">
        <ele>40.2</ele>
      </trkpt>
      <trkpt lat="43.57987" lon="-1.05903">
        <ele>38</ele>
      </trkpt>
      <trkpt lat="43.58118" lon="-1.05858">
        <ele>37.1</ele>
      </trkpt>
      <trkpt lat="43.58144" lon="-1.05841">
        <ele>36.5</ele>
      </trkpt>
      <trkpt lat="43.5817" lon="-1.05803">
        <ele>35.8</ele>
      </trkpt>
      <trkpt lat="43.58204" lon="-1.05767">
        <ele>34.3</ele>
      </trkpt>
      <trkpt lat="43.58229" lon="-1.05745">
        <ele>35.2</ele>
      </trkpt>
      <trkpt lat="43.58246" lon="-1.05742">
        <ele>35.6</ele>
      </trkpt>
      <trkpt lat="43.58264" lon="-1.05758">
        <ele>36.4</ele>
      </trkpt>
      <trkpt lat="43.5828" lon="-1.05769">
        <ele>36.7</ele>
      </trkpt>
      <trkpt lat="43.58373" lon="-1.05781">
        <ele>35.9</ele>
      </trkpt>
      <trkpt lat="43.58412" lon="-1.05777">
        <ele>36.6</ele>
      </trkpt>
      <trkpt lat="43.58444" lon="-1.0576">
        <ele>36.7</ele>
      </trkpt>
      <trkpt lat="43.58479" lon="-1.05732">
        <ele>34.4</ele>
      </trkpt>
      <trkpt lat="43.58516" lon="-1.05701">
        <ele>32.3</ele>
      </trkpt>
      <trkpt lat="43.58569" lon="-1.05671">
        <ele>32.7</ele>
      </trkpt>
      <trkpt lat="43.5864" lon="-1.05639">
        <ele>32</ele>
      </trkpt>
      <trkpt lat="43.58672" lon="-1.05671">
        <ele>33.1</ele>
      </trkpt>
      <trkpt lat="43.58699" lon="-1.05702">
        <ele>33.6</ele>
      </trkpt>
      <trkpt lat="43.58747" lon="-1.05787">
        <ele>35.5</ele>
      </trkpt>
      <trkpt lat="43.58798" lon="-1.05872">
        <ele>37.7</ele>
      </trkpt>
      <trkpt lat="43.5883" lon="-1.05947">
        <ele>38.3</ele>
      </trkpt>
      <trkpt lat="43.589" lon="-1.06111">
        <ele>43.2</ele>
      </trkpt>
      <trkpt lat="43.58934" lon="-1.06191">
        <ele>47.5</ele>
      </trkpt>
      <trkpt lat="43.58946" lon="-1.06214">
        <ele>47.9</ele>
      </trkpt>
      <trkpt lat="43.58974" lon="-1.06236">
        <ele>47.3</ele>
      </trkpt>
      <trkpt lat="43.59022" lon="-1.06276">
        <ele>44.5</ele>
      </trkpt>
      <trkpt lat="43.59068" lon="-1.06326">
        <ele>43.5</ele>
      </trkpt>
      <trkpt lat="43.59123" lon="-1.06403">
        <ele>46.8</ele>
      </trkpt>
      <trkpt lat="43.59158" lon="-1.06485">
        <ele>46.4</ele>
      </trkpt>
      <trkpt lat="43.59173" lon="-1.06535">
        <ele>46</ele>
      </trkpt>
      <trkpt lat="43.59194" lon="-1.06583">
        <ele>45</ele>
      </trkpt>
      <trkpt lat="43.59225" lon="-1.06597">
        <ele>41.6</ele>
      </trkpt>
      <trkpt lat="43.59318" lon="-1.06601">
        <ele>32.8</ele>
      </trkpt>
      <trkpt lat="43.59394" lon="-1.06606">
        <ele>33.1</ele>
      </trkpt>
      <trkpt lat="43.59395" lon="-1.06679">
        <ele>34.4</ele>
      </trkpt>
      <trkpt lat="43.59395" lon="-1.06724">
        <ele>35.7</ele>
      </trkpt>
      <trkpt lat="43.59412" lon="-1.06744">
        <ele>37.6</ele>
      </trkpt>
      <trkpt lat="43.5947" lon="-1.06794">
        <ele>42.5</ele>
      </trkpt>
      <trkpt lat="43.59494" lon="-1.06831">
        <ele>45.7</ele>
      </trkpt>
      <trkpt lat="43.5957" lon="-1.06829">
        <ele>46</ele>
      </trkpt>
      <trkpt lat="43.59776" lon="-1.06821">
        <ele>41.5</ele>
      </trkpt>
      <trkpt lat="43.59867" lon="-1.06816">
        <ele>41.2</ele>
      </trkpt>
      <trkpt lat="43.60002" lon="-1.06836">
        <ele>40.1</ele>
      </trkpt>
      <trkpt lat="43.6008" lon="-1.06851">
        <ele>39.7</ele>
      </trkpt>
      <trkpt lat="43.60151" lon="-1.06864">
        <ele>39</ele>
      </trkpt>
      <trkpt lat="43.60185" lon="-1.06866">
        <ele>39.7</ele>
      </trkpt>
      <trkpt lat="43.60213" lon="-1.06847">
        <ele>40</ele>
      </trkpt>
      <trkpt lat="43.60227" lon="-1.06885">
        <ele>40</ele>
      </trkpt>
      <trkpt lat="43.60338" lon="-1.06945">
        <ele>34.4</ele>
      </trkpt>
      <trkpt lat="43.60385" lon="-1.06966">
        <ele>30</ele>
      </trkpt>
      <trkpt lat="43.60435" lon="-1.06971">
        <ele>30.6</ele>
      </trkpt>
      <trkpt lat="43.60492" lon="-1.06976">
        <ele>36.7</ele>
      </trkpt>
      <trkpt lat="43.60542" lon="-1.06985">
        <ele>40.5</ele>
      </trkpt>
      <trkpt lat="43.60605" lon="-1.07012">
        <ele>43</ele>
      </trkpt>
      <trkpt lat="43.60655" lon="-1.07037">
        <ele>43.9</ele>
      </trkpt>
      <trkpt lat="43.60746" lon="-1.0711">
        <ele>46.8</ele>
      </trkpt>
      <trkpt lat="43.60813" lon="-1.07163">
        <ele>47.9</ele>
      </trkpt>
      <trkpt lat="43.60882" lon="-1.07213">
        <ele>51.9</ele>
      </trkpt>
      <trkpt lat="43.60927" lon="-1.07238">
        <ele>53.2</ele>
      </trkpt>
      <trkpt lat="43.60959" lon="-1.07246">
        <ele>51.9</ele>
      </trkpt>
      <trkpt lat="43.60978" lon="-1.07233">
        <ele>50.6</ele>
      </trkpt>
      <trkpt lat="43.61022" lon="-1.07192">
        <ele>47.4</ele>
      </trkpt>
      <trkpt lat="43.61084" lon="-1.07116">
        <ele>42.2</ele>
      </trkpt>
      <trkpt lat="43.61125" lon="-1.07059">
        <ele>39.5</ele>
      </trkpt>
      <trkpt lat="43.61154" lon="-1.07012">
        <ele>36.9</ele>
      </trkpt>
      <trkpt lat="43.61181" lon="-1.06987">
        <ele>35.5</ele>
      </trkpt>
      <trkpt lat="43.61208" lon="-1.06978">
        <ele>34.6</ele>
      </trkpt>
      <trkpt lat="43.61288" lon="-1.06975">
        <ele>34.6</ele>
      </trkpt>
      <trkpt lat="43.61364" lon="-1.06977">
        <ele>35.1</ele>
      </trkpt>
      <trkpt lat="43.6139" lon="-1.06989">
        <ele>36</ele>
      </trkpt>
      <trkpt lat="43.61417" lon="-1.06988">
        <ele>36</ele>
      </trkpt>
      <trkpt lat="43.61438" lon="-1.06957">
        <ele>36</ele>
      </trkpt>
      <trkpt lat="43.61467" lon="-1.06918">
        <ele>36</ele>
      </trkpt>
      <trkpt lat="43.61527" lon="-1.0687">
        <ele>35.7</ele>
      </trkpt>
      <trkpt lat="43.61618" lon="-1.06812">
        <ele>34.5</ele>
      </trkpt>
      <trkpt lat="43.61677" lon="-1.06772">
        <ele>34.5</ele>
      </trkpt>
      <trkpt lat="43.61715" lon="-1.06803">
        <ele>34.1</ele>
      </trkpt>
      <trkpt lat="43.61827" lon="-1.06839">
        <ele>34.8</ele>
      </trkpt>
      <trkpt lat="43.61946" lon="-1.06879">
        <ele>33.3</ele>
      </trkpt>
      <trkpt lat="43.62082" lon="-1.06905">
        <ele>30.4</ele>
      </trkpt>
      <trkpt lat="43.62109" lon="-1.06903">
        <ele>29.6</ele>
      </trkpt>
      <trkpt lat="43.62155" lon="-1.06883">
        <ele>28.2</ele>
      </trkpt>
      <trkpt lat="43.62222" lon="-1.06823">
        <ele>28</ele>
      </trkpt>
      <trkpt lat="43.62261" lon="-1.06774">
        <ele>26.1</ele>
      </trkpt>
      <trkpt lat="43.62317" lon="-1.06679">
        <ele>18.3</ele>
      </trkpt>
      <trkpt lat="43.6238" lon="-1.06571">
        <ele>19</ele>
      </trkpt>
      <trkpt lat="43.62522" lon="-1.06333">
        <ele>32.4</ele>
      </trkpt>
      <trkpt lat="43.62566" lon="-1.06249">
        <ele>35</ele>
      </trkpt>
      <trkpt lat="43.62585" lon="-1.0623">
        <ele>35</ele>
      </trkpt>
      <trkpt lat="43.62662" lon="-1.06188">
        <ele>35.4</ele>
      </trkpt>
      <trkpt lat="43.62931" lon="-1.06113">
        <ele>35</ele>
      </trkpt>
      <trkpt lat="43.63171" lon="-1.06052">
        <ele>30.9</ele>
      </trkpt>
      <trkpt lat="43.63201" lon="-1.06035">
        <ele>29.3</ele>
      </trkpt>
      <trkpt lat="43.63261" lon="-1.0599">
        <ele>27.2</ele>
      </trkpt>
      <trkpt lat="43.63294" lon="-1.05971">
        <ele>26</ele>
      </trkpt>
      <trkpt lat="43.63324" lon="-1.05977">
        <ele>25</ele>
      </trkpt>
      <trkpt lat="43.63344" lon="-1.05993">
        <ele>24.6</ele>
      </trkpt>
      <trkpt lat="43.63362" lon="-1.06">
        <ele>24</ele>
      </trkpt>
      <trkpt lat="43.63386" lon="-1.05987">
        <ele>24.5</ele>
      </trkpt>
      <trkpt lat="43.63427" lon="-1.05963">
        <ele>25.2</ele>
      </trkpt>
      <trkpt lat="43.63474" lon="-1.05943">
        <ele>26</ele>
      </trkpt>
      <trkpt lat="43.63512" lon="-1.05945">
        <ele>27.5</ele>
      </trkpt>
      <trkpt lat="43.63641" lon="-1.05971">
        <ele>35.8</ele>
      </trkpt>
      <trkpt lat="43.63686" lon="-1.05972">
        <ele>37.3</ele>
      </trkpt>
      <trkpt lat="43.63813" lon="-1.05947">
        <ele>38.4</ele>
      </trkpt>
      <trkpt lat="43.63898" lon="-1.05935">
        <ele>39.2</ele>
      </trkpt>
      <trkpt lat="43.63945" lon="-1.05914">
        <ele>37.4</ele>
      </trkpt>
      <trkpt lat="43.63983" lon="-1.05889">
        <ele>34.4</ele>
      </trkpt>
      <trkpt lat="43.64016" lon="-1.05869">
        <ele>34.1</ele>
      </trkpt>
      <trkpt lat="43.64038" lon="-1.05835">
        <ele>33.5</ele>
      </trkpt>
      <trkpt lat="43.64081" lon="-1.05758">
        <ele>33.3</ele>
      </trkpt>
      <trkpt lat="43.64122" lon="-1.05713">
        <ele>34.7</ele>
      </trkpt>
      <trkpt lat="43.64249" lon="-1.05628">
        <ele>45.3</ele>
      </trkpt>
      <trkpt lat="43.6441" lon="-1.05513">
        <ele>52.1</ele>
      </trkpt>
      <trkpt lat="43.64474" lon="-1.05473">
        <ele>54.1</ele>
      </trkpt>
      <trkpt lat="43.64502" lon="-1.05467">
        <ele>55.9</ele>
      </trkpt>
      <trkpt lat="43.6456" lon="-1.05474">
        <ele>58.3</ele>
      </trkpt>
      <trkpt lat="43.64586" lon="-1.05468">
        <ele>58.5</ele>
      </trkpt>
      <trkpt lat="43.6471" lon="-1.05387">
        <ele>65.5</ele>
      </trkpt>
      <trkpt lat="43.64856" lon="-1.05291">
        <ele>65.8</ele>
      </trkpt>
      <trkpt lat="43.6489" lon="-1.05275">
        <ele>66</ele>
      </trkpt>
      <trkpt lat="43.64919" lon="-1.05276">
        <ele>65.9</ele>
      </trkpt>
      <trkpt lat="43.64958" lon="-1.05293">
        <ele>64.5</ele>
      </trkpt>
      <trkpt lat="43.65" lon="-1.05304">
        <ele>64.1</ele>
      </trkpt>
      <trkpt lat="43.65055" lon="-1.05313">
        <ele>63</ele>
      </trkpt>
      <trkpt lat="43.65101" lon="-1.05314">
        <ele>61.2</ele>
      </trkpt>
      <trkpt lat="43.65137" lon="-1.05308">
        <ele>59.1</ele>
      </trkpt>
      <trkpt lat="43.65224" lon="-1.0529">
        <ele>55.4</ele>
      </trkpt>
      <trkpt lat="43.65272" lon="-1.05289">
        <ele>54.1</ele>
      </trkpt>
      <trkpt lat="43.65303" lon="-1.05301">
        <ele>53</ele>
      </trkpt>
      <trkpt lat="43.65345" lon="-1.05336">
        <ele>49.9</ele>
      </trkpt>
      <trkpt lat="43.65377" lon="-1.05353">
        <ele>48</ele>
      </trkpt>
      <trkpt lat="43.65464" lon="-1.05374">
        <ele>38.6</ele>
      </trkpt>
      <trkpt lat="43.65503" lon="-1.05381">
        <ele>33.4</ele>
      </trkpt>
      <trkpt lat="43.65554" lon="-1.05365">
        <ele>25.5</ele>
      </trkpt>
      <trkpt lat="43.65593" lon="-1.05351">
        <ele>22.3</ele>
      </trkpt>
      <trkpt lat="43.65621" lon="-1.05355">
        <ele>21.5</ele>
      </trkpt>
      <trkpt lat="43.65677" lon="-1.05375">
        <ele>21.5</ele>
      </trkpt>
      <trkpt lat="43.65717" lon="-1.05385">
        <ele>21.1</ele>
      </trkpt>
      <trkpt lat="43.65799" lon="-1.05364">
        <ele>22.6</ele>
      </trkpt>
      <trkpt lat="43.6586" lon="-1.0533">
        <ele>28.1</ele>
      </trkpt>
      <trkpt lat="43.65897" lon="-1.05298">
        <ele>31.1</ele>
      </trkpt>
      <trkpt lat="43.65928" lon="-1.05254">
        <ele>33.9</ele>
      </trkpt>
      <trkpt lat="43.65955" lon="-1.05192">
        <ele>37.3</ele>
      </trkpt>
      <trkpt lat="43.65985" lon="-1.0511">
        <ele>38</ele>
      </trkpt>
      <trkpt lat="43.66035" lon="-1.05058">
        <ele>37</ele>
      </trkpt>
      <trkpt lat="43.6607" lon="-1.05035">
        <ele>37.9</ele>
      </trkpt>
      <trkpt lat="43.66259" lon="-1.04968">
        <ele>42</ele>
      </trkpt>
      <trkpt lat="43.66381" lon="-1.04924">
        <ele>43.7</ele>
      </trkpt>
      <trkpt lat="43.66521" lon="-1.04873">
        <ele>33.7</ele>
      </trkpt>
      <trkpt lat="43.6663" lon="-1.04867">
        <ele>17.8</ele>
      </trkpt>
      <trkpt lat="43.66673" lon="-1.04862">
        <ele>17.5</ele>
      </trkpt>
      <trkpt lat="43.66712" lon="-1.04833">
        <ele>18.7</ele>
      </trkpt>
      <trkpt lat="43.66752" lon="-1.04772">
        <ele>18.3</ele>
      </trkpt>
      <trkpt lat="43.66788" lon="-1.04688">
        <ele>24.8</ele>
      </trkpt>
      <trkpt lat="43.66809" lon="-1.0464">
        <ele>26.8</ele>
      </trkpt>
      <trkpt lat="43.66852" lon="-1.04606">
        <ele>28.9</ele>
      </trkpt>
      <trkpt lat="43.66881" lon="-1.04579">
        <ele>30.3</ele>
      </trkpt>
      <trkpt lat="43.66902" lon="-1.04541">
        <ele>30.8</ele>
      </trkpt>
      <trkpt lat="43.66929" lon="-1.04512">
        <ele>31.8</ele>
      </trkpt>
      <trkpt lat="43.66971" lon="-1.045">
        <ele>33</ele>
      </trkpt>
      <trkpt lat="43.66993" lon="-1.04479">
        <ele>34.3</ele>
      </trkpt>
      <trkpt lat="43.67021" lon="-1.04427">
        <ele>36.8</ele>
      </trkpt>
      <trkpt lat="43.6705" lon="-1.04363">
        <ele>40.9</ele>
      </trkpt>
      <trkpt lat="43.67094" lon="-1.04345">
        <ele>44.5</ele>
      </trkpt>
      <trkpt lat="43.6722" lon="-1.04353">
        <ele>51.1</ele>
      </trkpt>
      <trkpt lat="43.67283" lon="-1.04357">
        <ele>47.9</ele>
      </trkpt>
      <trkpt lat="43.6735" lon="-1.04343">
        <ele>43.7</ele>
      </trkpt>
      <trkpt lat="43.67398" lon="-1.04301">
        <ele>38</ele>
      </trkpt>
      <trkpt lat="43.67442" lon="-1.04245">
        <ele>31.3</ele>
      </trkpt>
      <trkpt lat="43.67459" lon="-1.04232">
        <ele>29.5</ele>
      </trkpt>
      <trkpt lat="43.67512" lon="-1.04206">
        <ele>20</ele>
      </trkpt>
      <trkpt lat="43.67535" lon="-1.04197">
        <ele>18.2</ele>
      </trkpt>
      <trkpt lat="43.67561" lon="-1.04203">
        <ele>14.6</ele>
      </trkpt>
      <trkpt lat="43.67598" lon="-1.04223">
        <ele>10.9</ele>
      </trkpt>
      <trkpt lat="43.67625" lon="-1.04227">
        <ele>9.2</ele>
      </trkpt>
      <trkpt lat="43.67687" lon="-1.04198">
        <ele>6</ele>
      </trkpt>
      <trkpt lat="43.67694" lon="-1.04094">
        <ele>6</ele>
      </trkpt>
      <trkpt lat="43.67708" lon="-1.04076">
        <ele>6</ele>
      </trkpt>
      <trkpt lat="43.67885" lon="-1.03986">
        <ele>6.1</ele>
      </trkpt>
      <trkpt lat="43.67922" lon="-1.03995">
        <ele>5.8</ele>
      </trkpt>
      <trkpt lat="43.6797" lon="-1.03991">
        <ele>5.7</ele>
      </trkpt>
      <trkpt lat="43.68002" lon="-1.03971">
        <ele>6</ele>
      </trkpt>
      <trkpt lat="43.68022" lon="-1.03949">
        <ele>5.8</ele>
      </trkpt>
      <trkpt lat="43.68036" lon="-1.03946">
        <ele>6</ele>
      </trkpt>
      <trkpt lat="43.68074" lon="-1.03956">
        <ele>5.6</ele>
      </trkpt>
      <trkpt lat="43.68129" lon="-1.03959">
        <ele>5.8</ele>
      </trkpt>
      <trkpt lat="43.68161" lon="-1.039">
        <ele>5.9</ele>
      </trkpt>
      <trkpt lat="43.68196" lon="-1.03852">
        <ele>5.1</ele>
      </trkpt>
      <trkpt lat="43.68234" lon="-1.03826">
        <ele>6.3</ele>
      </trkpt>
      <trkpt lat="43.68304" lon="-1.03699">
        <ele>6.9</ele>
      </trkpt>
      <trkpt lat="43.68332" lon="-1.03635">
        <ele>7</ele>
      </trkpt>
      <trkpt lat="43.68352" lon="-1.03688">
        <ele>6.8</ele>
      </trkpt>
      <trkpt lat="43.6834" lon="-1.03759">
        <ele>7.5</ele>
      </trkpt>
      <trkpt lat="43.68346" lon="-1.03811">
        <ele>7</ele>
      </trkpt>
      <trkpt lat="43.68504" lon="-1.03776">
        <ele>9.1</ele>
      </trkpt>
      <trkpt lat="43.68625" lon="-1.03894">
        <ele>13.7</ele>
      </trkpt>
      <trkpt lat="43.68695" lon="-1.03948">
        <ele>15.2</ele>
      </trkpt>
      <trkpt lat="43.687" lon="-1.03975">
        <ele>17.3</ele>
      </trkpt>
      <trkpt lat="43.68713" lon="-1.04">
        <ele>17.7</ele>
      </trkpt>
      <trkpt lat="43.68752" lon="-1.04019">
        <ele>18.9</ele>
      </trkpt>
      <trkpt lat="43.68771" lon="-1.04047">
        <ele>21.1</ele>
      </trkpt>
      <trkpt lat="43.68787" lon="-1.04089">
        <ele>24</ele>
      </trkpt>
      <trkpt lat="43.68844" lon="-1.04151">
        <ele>25.3</ele>
      </trkpt>
      <trkpt lat="43.689" lon="-1.0422">
        <ele>27.5</ele>
      </trkpt>
      <trkpt lat="43.6893" lon="-1.0423">
        <ele>27.4</ele>
      </trkpt>
      <trkpt lat="43.68963" lon="-1.04232">
        <ele>28.2</ele>
      </trkpt>
      <trkpt lat="43.6905" lon="-1.04217">
        <ele>30.1</ele>
      </trkpt>
      <trkpt lat="43.69112" lon="-1.042">
        <ele>29</ele>
      </trkpt>
      <trkpt lat="43.69158" lon="-1.04203">
        <ele>27.3</ele>
      </trkpt>
      <trkpt lat="43.69229" lon="-1.04154">
        <ele>24.9</ele>
      </trkpt>
      <trkpt lat="43.6938" lon="-1.04058">
        <ele>21</ele>
      </trkpt>
      <trkpt lat="43.69452" lon="-1.04015">
        <ele>21.7</ele>
      </trkpt>
      <trkpt lat="43.69519" lon="-1.0397">
        <ele>21.8</ele>
      </trkpt>
      <trkpt lat="43.69706" lon="-1.0385">
        <ele>18.8</ele>
      </trkpt>
      <trkpt lat="43.6973" lon="-1.03853">
        <ele>19</ele>
      </trkpt>
      <trkpt lat="43.69832" lon="-1.04015">
        <ele>19</ele>
      </trkpt>
      <trkpt lat="43.69871" lon="-1.04085">
        <ele>18</ele>
      </trkpt>
      <trkpt lat="43.69997" lon="-1.04279">
        <ele>18.1</ele>
      </trkpt>
      <trkpt lat="43.70083" lon="-1.0442">
        <ele>15</ele>
      </trkpt>
      <trkpt lat="43.70164" lon="-1.04552">
        <ele>13.1</ele>
      </trkpt>
      <trkpt lat="43.70192" lon="-1.04601">
        <ele>13</ele>
      </trkpt>
      <trkpt lat="43.70214" lon="-1.04701">
        <ele>14.2</ele>
      </trkpt>
      <trkpt lat="43.70253" lon="-1.049">
        <ele>15</ele>
      </trkpt>
      <trkpt lat="43.703" lon="-1.05141">
        <ele>16</ele>
      </trkpt>
      <trkpt lat="43.70311" lon="-1.05174">
        <ele>16.2</ele>
      </trkpt>
      <trkpt lat="43.70333" lon="-1.05293">
        <ele>16</ele>
      </trkpt>
      <trkpt lat="43.70474" lon="-1.05246">
        <ele>14</ele>
      </trkpt>
      <trkpt lat="43.70596" lon="-1.05257">
        <ele>13</ele>
      </trkpt>
      <trkpt lat="43.70675" lon="-1.05262">
        <ele>13.2</ele>
      </trkpt>
      <trkpt lat="43.70727" lon="-1.05261">
        <ele>13</ele>
      </trkpt>
      <trkpt lat="43.70768" lon="-1.05257">
        <ele>12.8</ele>
      </trkpt>
      <trkpt lat="43.70821" lon="-1.05256">
        <ele>12.6</ele>
      </trkpt>
      <trkpt lat="43.7086" lon="-1.0525">
        <ele>12</ele>
      </trkpt>
      <trkpt lat="43.70864" lon="-1.05302">
        <ele>11.9</ele>
      </trkpt>
      <trkpt lat="43.70886" lon="-1.05301">
        <ele>11.3</ele>
      </trkpt>
      <trkpt lat="43.70893" lon="-1.05334">
        <ele>11</ele>
      </trkpt>
      <trkpt lat="43.70992" lon="-1.0532">
        <ele>10.3</ele>
      </trkpt>
      <trkpt lat="43.71108" lon="-1.05296">
        <ele>8</ele>
      </trkpt>
      <trkpt lat="43.71183" lon="-1.05321">
        <ele>9.8</ele>
      </trkpt>
      <trkpt lat="43.7118" lon="-1.05349">
        <ele>10</ele>
      </trkpt>
      <trkpt lat="43.71307" lon="-1.05457">
        <ele>8.4</ele>
      </trkpt>
      <trkpt lat="43.71329" lon="-1.05467">
        <ele>9.1</ele>
      </trkpt>
      <trkpt lat="43.71352" lon="-1.05462">
        <ele>9.4</ele>
      </trkpt>
      <trkpt lat="43.7145" lon="-1.05427">
        <ele>8</ele>
      </trkpt>
      <trkpt lat="43.71583" lon="-1.05385">
        <ele>8</ele>
      </trkpt>
      <trkpt lat="43.72093" lon="-1.05217">
        <ele>12.3</ele>
      </trkpt>
      <trkpt lat="43.72169" lon="-1.05188">
        <ele>13</ele>
      </trkpt>
      <trkpt lat="43.72187" lon="-1.05241">
        <ele>13.7</ele>
      </trkpt>
      <trkpt lat="43.72198" lon="-1.05443">
        <ele>15.8</ele>
      </trkpt>
      <trkpt lat="43.72246" lon="-1.05396">
        <ele>19.8</ele>
      </trkpt>
      <trkpt lat="43.72314" lon="-1.05347">
        <ele>20.6</ele>
      </trkpt>
      <trkpt lat="43.72396" lon="-1.05313">
        <ele>21.3</ele>
      </trkpt>
      <trkpt lat="43.72536" lon="-1.05292">
        <ele>21.5</ele>
      </trkpt>
      <trkpt lat="43.72664" lon="-1.05265">
        <ele>22</ele>
      </trkpt>
      <trkpt lat="43.72738" lon="-1.05265">
        <ele>24</ele>
      </trkpt>
      <trkpt lat="43.72766" lon="-1.05244">
        <ele>23.6</ele>
      </trkpt>
      <trkpt lat="43.72806" lon="-1.052">
        <ele>23.4</ele>
      </trkpt>
      <trkpt lat="43.72838" lon="-1.05179">
        <ele>24.6</ele>
      </trkpt>
      <trkpt lat="43.72923" lon="-1.05174">
        <ele>26.1</ele>
      </trkpt>
      <trkpt lat="43.72917" lon="-1.05073">
        <ele>27</ele>
      </trkpt>
      <trkpt lat="43.73087" lon="-1.05056">
        <ele>23.9</ele>
      </trkpt>
      <trkpt lat="43.73151" lon="-1.05031">
        <ele>21.6</ele>
      </trkpt>
      <trkpt lat="43.73176" lon="-1.05039">
        <ele>21.6</ele>
      </trkpt>
      <trkpt lat="43.73206" lon="-1.05075">
        <ele>21.9</ele>
      </trkpt>
      <trkpt lat="43.73284" lon="-1.05154">
        <ele>21.9</ele>
      </trkpt>
      <trkpt lat="43.73342" lon="-1.05199">
        <ele>21.7</ele>
      </trkpt>
      <trkpt lat="43.73542" lon="-1.05325">
        <ele>22.5</ele>
      </trkpt>
      <trkpt lat="43.73566" lon="-1.05347">
        <ele>22.4</ele>
      </trkpt>
      <trkpt lat="43.73646" lon="-1.0517">
        <ele>23</ele>
      </trkpt>
      <trkpt lat="43.74194" lon="-1.05412">
        <ele>22</ele>
      </trkpt>
      <trkpt lat="43.74479" lon="-1.05535">
        <ele>20.8</ele>
      </trkpt>
      <trkpt lat="43.7452" lon="-1.05553">
        <ele>24.7</ele>
      </trkpt>
      <trkpt lat="43.74534" lon="-1.05535">
        <ele>24</ele>
      </trkpt>
      <trkpt lat="43.74555" lon="-1.05537">
        <ele>23.3</ele>
      </trkpt>
      <trkpt lat="43.74551" lon="-1.05274">
        <ele>21.2</ele>
      </trkpt>
      <trkpt lat="43.74542" lon="-1.04796">
        <ele>20</ele>
      </trkpt>
      <trkpt lat="43.75161" lon="-1.04619">
        <ele>24</ele>
      </trkpt>
      <trkpt lat="43.7518" lon="-1.04624">
        <ele>23.7</ele>
      </trkpt>
      <trkpt lat="43.75347" lon="-1.04715">
        <ele>25.4</ele>
      </trkpt>
      <trkpt lat="43.75379" lon="-1.04727">
        <ele>25.1</ele>
      </trkpt>
      <trkpt lat="43.75435" lon="-1.04737">
        <ele>26.1</ele>
      </trkpt>
      <trkpt lat="43.75522" lon="-1.04752">
        <ele>26</ele>
      </trkpt>
      <trkpt lat="43.75653" lon="-1.0477">
        <ele>26</ele>
      </trkpt>
      <trkpt lat="43.75755" lon="-1.04778">
        <ele>27.2</ele>
      </trkpt>
      <trkpt lat="43.75793" lon="-1.04791">
        <ele>28.3</ele>
      </trkpt>
      <trkpt lat="43.75846" lon="-1.04819">
        <ele>27.5</ele>
      </trkpt>
      <trkpt lat="43.75915" lon="-1.04843">
        <ele>27.3</ele>
      </trkpt>
      <trkpt lat="43.75993" lon="-1.04875">
        <ele>25</ele>
      </trkpt>
      <trkpt lat="43.76036" lon="-1.04887">
        <ele>22</ele>
      </trkpt>
      <trkpt lat="43.76066" lon="-1.04894">
        <ele>22.5</ele>
      </trkpt>
      <trkpt lat="43.7616" lon="-1.04894">
        <ele>22.6</ele>
      </trkpt>
      <trkpt lat="43.76276" lon="-1.04889">
        <ele>22</ele>
      </trkpt>
      <trkpt lat="43.76324" lon="-1.04888">
        <ele>21.4</ele>
      </trkpt>
      <trkpt lat="43.76363" lon="-1.04875">
        <ele>20.5</ele>
      </trkpt>
      <trkpt lat="43.76436" lon="-1.04853">
        <ele>19</ele>
      </trkpt>
      <trkpt lat="43.76467" lon="-1.04851">
        <ele>19</ele>
      </trkpt>
      <trkpt lat="43.76491" lon="-1.04839">
        <ele>19.7</ele>
      </trkpt>
      <trkpt lat="43.76466" lon="-1.04796">
        <ele>19.6</ele>
      </trkpt>
      <trkpt lat="43.7652" lon="-1.04736">
        <ele>19.7</ele>
      </trkpt>
      <trkpt lat="43.76566" lon="-1.04743">
        <ele>20.6</ele>
      </trkpt>
      <trkpt lat="43.76555" lon="-1.0469">
        <ele>19.8</ele>
      </trkpt>
      <trkpt lat="43.76591" lon="-1.04698">
        <ele>20.3</ele>
      </trkpt>
      <trkpt lat="43.76623" lon="-1.04702">
        <ele>21</ele>
      </trkpt>
      <trkpt lat="43.76857" lon="-1.04654">
        <ele>24.9</ele>
      </trkpt>
      <trkpt lat="43.76938" lon="-1.04598">
        <ele>25</ele>
      </trkpt>
      <trkpt lat="43.76954" lon="-1.04578">
        <ele>24.8</ele>
      </trkpt>
      <trkpt lat="43.76966" lon="-1.04579">
        <ele>24.8</ele>
      </trkpt>
      <trkpt lat="43.76992" lon="-1.04662">
        <ele>25</ele>
      </trkpt>
      <trkpt lat="43.76987" lon="-1.04676">
        <ele>25</ele>
      </trkpt>
      <trkpt lat="43.76988" lon="-1.0471">
        <ele>25</ele>
      </trkpt>
      <trkpt lat="43.77039" lon="-1.0487">
        <ele>27.1</ele>
      </trkpt>
      <trkpt lat="43.77104" lon="-1.04847">
        <ele>28</ele>
      </trkpt>
      <trkpt lat="43.77134" lon="-1.04853">
        <ele>28</ele>
      </trkpt>
      <trkpt lat="43.77179" lon="-1.04874">
        <ele>29.2</ele>
      </trkpt>
      <trkpt lat="43.77206" lon="-1.04892">
        <ele>30</ele>
      </trkpt>
      <trkpt lat="43.77267" lon="-1.04898">
        <ele>32</ele>
      </trkpt>
      <trkpt lat="43.77303" lon="-1.04909">
        <ele>32.9</ele>
      </trkpt>
      <trkpt lat="43.77366" lon="-1.04921">
        <ele>35</ele>
      </trkpt>
      <trkpt lat="43.77415" lon="-1.04938">
        <ele>35.8</ele>
      </trkpt>
      <trkpt lat="43.77507" lon="-1.04993">
        <ele>40.1</ele>
      </trkpt>
      <trkpt lat="43.77596" lon="-1.05043">
        <ele>39.9</ele>
      </trkpt>
      <trkpt lat="43.77627" lon="-1.05063">
        <ele>38</ele>
      </trkpt>
      <trkpt lat="43.77647" lon="-1.05101">
        <ele>37.8</ele>
      </trkpt>
      <trkpt lat="43.77686" lon="-1.05061">
        <ele>38</ele>
      </trkpt>
      <trkpt lat="43.77837" lon="-1.04926">
        <ele>38.1</ele>
      </trkpt>
      <trkpt lat="43.77872" lon="-1.04895">
        <ele>38.7</ele>
      </trkpt>
      <trkpt lat="43.77883" lon="-1.04893">
        <ele>38.3</ele>
      </trkpt>
      <trkpt lat="43.77888" lon="-1.04892">
        <ele>38.1</ele>
      </trkpt>
      <trkpt lat="43.77909" lon="-1.04888">
        <ele>38</ele>
      </trkpt>
      <trkpt lat="43.77914" lon="-1.0489">
        <ele>38</ele>
      </trkpt>
      <trkpt lat="43.77919" lon="-1.04891">
        <ele>38</ele>
      </trkpt>
      <trkpt lat="43.77941" lon="-1.04898">
        <ele>38</ele>
      </trkpt>
      <trkpt lat="43.77957" lon="-1.04904">
        <ele>38.2</ele>
      </trkpt>
      <trkpt lat="43.7796" lon="-1.0491">
        <ele>38.4</ele>
      </trkpt>
      <trkpt lat="43.77977" lon="-1.04939">
        <ele>39.1</ele>
      </trkpt>
      <trkpt lat="43.77997" lon="-1.04975">
        <ele>39.9</ele>
      </trkpt>
      <trkpt lat="43.78" lon="-1.04981">
        <ele>40</ele>
      </trkpt>
      <trkpt lat="43.78014" lon="-1.04988">
        <ele>39.8</ele>
      </trkpt>
      <trkpt lat="43.78028" lon="-1.04978">
        <ele>39.2</ele>
      </trkpt>
      <trkpt lat="43.78047" lon="-1.04966">
        <ele>39.5</ele>
      </trkpt>
      <trkpt lat="43.78053" lon="-1.04968">
        <ele>39.7</ele>
      </trkpt>
      <trkpt lat="43.78096" lon="-1.04979">
        <ele>40.2</ele>
      </trkpt>
      <trkpt lat="43.78118" lon="-1.04985">
        <ele>40.2</ele>
      </trkpt>
      <trkpt lat="43.78124" lon="-1.04986">
        <ele>40</ele>
      </trkpt>
      <trkpt lat="43.78121" lon="-1.04974">
        <ele>39.7</ele>
      </trkpt>
      <trkpt lat="43.78112" lon="-1.04925">
        <ele>39</ele>
      </trkpt>
      <trkpt lat="43.78101" lon="-1.04871">
        <ele>38</ele>
      </trkpt>
      <trkpt lat="43.78099" lon="-1.04859">
        <ele>37.6</ele>
      </trkpt>
      <trkpt lat="43.78099" lon="-1.04853">
        <ele>37.7</ele>
      </trkpt>
      <trkpt lat="43.781" lon="-1.04841">
        <ele>37.9</ele>
      </trkpt>
      <trkpt lat="43.78108" lon="-1.04758">
        <ele>37.9</ele>
      </trkpt>
      <trkpt lat="43.78109" lon="-1.04746">
        <ele>37.8</ele>
      </trkpt>
      <trkpt lat="43.7811" lon="-1.0474">
        <ele>37.6</ele>
      </trkpt>
      <trkpt lat="43.78112" lon="-1.04735">
        <ele>37.5</ele>
      </trkpt>
      <trkpt lat="43.78119" lon="-1.04702">
        <ele>37</ele>
      </trkpt>
      <trkpt lat="43.78123" lon="-1.04686">
        <ele>36.6</ele>
      </trkpt>
      <trkpt lat="43.78136" lon="-1.04672">
        <ele>35.5</ele>
      </trkpt>
      <trkpt lat="43.78149" lon="-1.04659">
        <ele>33.8</ele>
      </trkpt>
      <trkpt lat="43.78162" lon="-1.04645">
        <ele>31.8</ele>
      </trkpt>
      <trkpt lat="43.78175" lon="-1.04632">
        <ele>30.6</ele>
      </trkpt>
      <trkpt lat="43.78189" lon="-1.04618">
        <ele>30.1</ele>
      </trkpt>
      <trkpt lat="43.782" lon="-1.04581">
        <ele>27.3</ele>
      </trkpt>
      <trkpt lat="43.78196" lon="-1.04561">
        <ele>27.8</ele>
      </trkpt>
      <trkpt lat="43.78189" lon="-1.04543">
        <ele>29.7</ele>
      </trkpt>
      <trkpt lat="43.78182" lon="-1.04524">
        <ele>31.4</ele>
      </trkpt>
      <trkpt lat="43.78186" lon="-1.04469">
        <ele>34.7</ele>
      </trkpt>
      <trkpt lat="43.78196" lon="-1.04448">
        <ele>35</ele>
      </trkpt>
      <trkpt lat="43.78206" lon="-1.04428">
        <ele>35</ele>
      </trkpt>
      <trkpt lat="43.78217" lon="-1.04407">
        <ele>35</ele>
      </trkpt>
      <trkpt lat="43.78221" lon="-1.04382">
        <ele>35.2</ele>
      </trkpt>
      <trkpt lat="43.78226" lon="-1.04357">
        <ele>36.2</ele>
      </trkpt>
      <trkpt lat="43.78242" lon="-1.04328">
        <ele>36.6</ele>
      </trkpt>
      <trkpt lat="43.78259" lon="-1.04329">
        <ele>37.6</ele>
      </trkpt>
      <trkpt lat="43.78276" lon="-1.0433">
        <ele>38.9</ele>
      </trkpt>
      <trkpt lat="43.78292" lon="-1.04332">
        <ele>39.1</ele>
      </trkpt>
      <trkpt lat="43.78309" lon="-1.04333">
        <ele>39.1</ele>
      </trkpt>
      <trkpt lat="43.78342" lon="-1.04303">
        <ele>40.6</ele>
      </trkpt>
      <trkpt lat="43.78366" lon="-1.04289">
        <ele>41.5</ele>
      </trkpt>
      <trkpt lat="43.78379" lon="-1.04282">
        <ele>41.2</ele>
      </trkpt>
      <trkpt lat="43.78395" lon="-1.0428">
        <ele>41.2</ele>
      </trkpt>
      <trkpt lat="43.78411" lon="-1.04279">
        <ele>41.1</ele>
      </trkpt>
      <trkpt lat="43.78427" lon="-1.04288">
        <ele>41.6</ele>
      </trkpt>
      <trkpt lat="43.78442" lon="-1.04298">
        <ele>42</ele>
      </trkpt>
      <trkpt lat="43.78467" lon="-1.04305">
        <ele>42</ele>
      </trkpt>
      <trkpt lat="43.78478" lon="-1.04286">
        <ele>42</ele>
      </trkpt>
      <trkpt lat="43.78489" lon="-1.04267">
        <ele>42.2</ele>
      </trkpt>
      <trkpt lat="43.7851" lon="-1.0423">
        <ele>43.3</ele>
      </trkpt>
      <trkpt lat="43.78522" lon="-1.0421">
        <ele>43.8</ele>
      </trkpt>
      <trkpt lat="43.78559" lon="-1.04148">
        <ele>45</ele>
      </trkpt>
      <trkpt lat="43.78595" lon="-1.04087">
        <ele>46.4</ele>
      </trkpt>
      <trkpt lat="43.78631" lon="-1.04026">
        <ele>48.7</ele>
      </trkpt>
      <trkpt lat="43.78644" lon="-1.04005">
        <ele>49</ele>
      </trkpt>
      <trkpt lat="43.78648" lon="-1.03983">
        <ele>49</ele>
      </trkpt>
      <trkpt lat="43.78653" lon="-1.0396">
        <ele>49</ele>
      </trkpt>
      <trkpt lat="43.7865" lon="-1.03934">
        <ele>49.4</ele>
      </trkpt>
      <trkpt lat="43.78648" lon="-1.03909">
        <ele>50</ele>
      </trkpt>
      <trkpt lat="43.78645" lon="-1.03883">
        <ele>50.2</ele>
      </trkpt>
      <trkpt lat="43.78642" lon="-1.03857">
        <ele>50.9</ele>
      </trkpt>
      <trkpt lat="43.78646" lon="-1.03832">
        <ele>50.3</ele>
      </trkpt>
      <trkpt lat="43.78655" lon="-1.03783">
        <ele>51</ele>
      </trkpt>
      <trkpt lat="43.78666" lon="-1.03765">
        <ele>51.4</ele>
      </trkpt>
      <trkpt lat="43.78676" lon="-1.03747">
        <ele>52</ele>
      </trkpt>
      <trkpt lat="43.78709" lon="-1.03693">
        <ele>52.5</ele>
      </trkpt>
      <trkpt lat="43.78735" lon="-1.03658">
        <ele>52.5</ele>
      </trkpt>
      <trkpt lat="43.78749" lon="-1.03641">
        <ele>52.9</ele>
      </trkpt>
      <trkpt lat="43.78775" lon="-1.03606">
        <ele>53</ele>
      </trkpt>
      <trkpt lat="43.78787" lon="-1.03588">
        <ele>53</ele>
      </trkpt>
      <trkpt lat="43.78823" lon="-1.03533">
        <ele>54</ele>
      </trkpt>
      <trkpt lat="43.78847" lon="-1.03496">
        <ele>54.6</ele>
      </trkpt>
      <trkpt lat="43.78859" lon="-1.03478">
        <ele>55</ele>
      </trkpt>
      <trkpt lat="43.78877" lon="-1.03481">
        <ele>55</ele>
      </trkpt>
      <trkpt lat="43.78914" lon="-1.03487">
        <ele>55</ele>
      </trkpt>
      <trkpt lat="43.79024" lon="-1.03506">
        <ele>56</ele>
      </trkpt>
      <trkpt lat="43.79097" lon="-1.03518">
        <ele>57.3</ele>
      </trkpt>
      <trkpt lat="43.79132" lon="-1.03525">
        <ele>58</ele>
      </trkpt>
      <trkpt lat="43.7915" lon="-1.03528">
        <ele>58</ele>
      </trkpt>
      <trkpt lat="43.79168" lon="-1.03531">
        <ele>58.1</ele>
      </trkpt>
      <trkpt lat="43.79224" lon="-1.03534">
        <ele>59</ele>
      </trkpt>
      <trkpt lat="43.79242" lon="-1.03535">
        <ele>58.8</ele>
      </trkpt>
      <trkpt lat="43.79259" lon="-1.03534">
        <ele>58.6</ele>
      </trkpt>
      <trkpt lat="43.79293" lon="-1.03532">
        <ele>58.6</ele>
      </trkpt>
      <trkpt lat="43.79326" lon="-1.03531">
        <ele>59</ele>
      </trkpt>
      <trkpt lat="43.79343" lon="-1.0353">
        <ele>59.4</ele>
      </trkpt>
      <trkpt lat="43.7936" lon="-1.03531">
        <ele>59.9</ele>
      </trkpt>
      <trkpt lat="43.79393" lon="-1.03532">
        <ele>61</ele>
      </trkpt>
      <trkpt lat="43.79426" lon="-1.03533">
        <ele>61.4</ele>
      </trkpt>
      <trkpt lat="43.79449" lon="-1.03596">
        <ele>62</ele>
      </trkpt>
      <trkpt lat="43.79465" lon="-1.03637">
        <ele>62</ele>
      </trkpt>
      <trkpt lat="43.79472" lon="-1.03658">
        <ele>62</ele>
      </trkpt>
      <trkpt lat="43.79473" lon="-1.03672">
        <ele>62</ele>
      </trkpt>
      <trkpt lat="43.79473" lon="-1.03686">
        <ele>62</ele>
      </trkpt>
      <trkpt lat="43.79476" lon="-1.03709">
        <ele>62.1</ele>
      </trkpt>
      <trkpt lat="43.79494" lon="-1.03753">
        <ele>61.9</ele>
      </trkpt>
      <trkpt lat="43.79502" lon="-1.03775">
        <ele>61.2</ele>
      </trkpt>
      <trkpt lat="43.79511" lon="-1.03797">
        <ele>61.4</ele>
      </trkpt>
      <trkpt lat="43.79511" lon="-1.0382">
        <ele>61.4</ele>
      </trkpt>
      <trkpt lat="43.7951" lon="-1.03843">
        <ele>61.4</ele>
      </trkpt>
      <trkpt lat="43.79517" lon="-1.03856">
        <ele>61.6</ele>
      </trkpt>
      <trkpt lat="43.79525" lon="-1.03869">
        <ele>61.6</ele>
      </trkpt>
      <trkpt lat="43.79527" lon="-1.03889">
        <ele>61</ele>
      </trkpt>
      <trkpt lat="43.79529" lon="-1.0391">
        <ele>61</ele>
      </trkpt>
      <trkpt lat="43.79547" lon="-1.03912">
        <ele>61.1</ele>
      </trkpt>
      <trkpt lat="43.79584" lon="-1.03915">
        <ele>62</ele>
      </trkpt>
      <trkpt lat="43.79603" lon="-1.03917">
        <ele>62</ele>
      </trkpt>
      <trkpt lat="43.79621" lon="-1.03919">
        <ele>62</ele>
      </trkpt>
      <trkpt lat="43.7964" lon="-1.03921">
        <ele>62</ele>
      </trkpt>
      <trkpt lat="43.79659" lon="-1.03923">
        <ele>62.2</ele>
      </trkpt>
      <trkpt lat="43.79673" lon="-1.0393">
        <ele>62.6</ele>
      </trkpt>
      <trkpt lat="43.79686" lon="-1.03937">
        <ele>62.9</ele>
      </trkpt>
      <trkpt lat="43.797" lon="-1.03944">
        <ele>63</ele>
      </trkpt>
      <trkpt lat="43.79733" lon="-1.03946">
        <ele>63.8</ele>
      </trkpt>
      <trkpt lat="43.79766" lon="-1.03947">
        <ele>65</ele>
      </trkpt>
      <trkpt lat="43.79795" lon="-1.03954">
        <ele>64.4</ele>
      </trkpt>
      <trkpt lat="43.79806" lon="-1.03968">
        <ele>64</ele>
      </trkpt>
      <trkpt lat="43.79817" lon="-1.03982">
        <ele>64</ele>
      </trkpt>
      <trkpt lat="43.79826" lon="-1.03998">
        <ele>64</ele>
      </trkpt>
      <trkpt lat="43.79844" lon="-1.04031">
        <ele>64</ele>
      </trkpt>
      <trkpt lat="43.79858" lon="-1.04038">
        <ele>64</ele>
      </trkpt>
      <trkpt lat="43.79872" lon="-1.04045">
        <ele>64</ele>
      </trkpt>
      <trkpt lat="43.79886" lon="-1.04052">
        <ele>64</ele>
      </trkpt>
      <trkpt lat="43.79908" lon="-1.04072">
        <ele>64.3</ele>
      </trkpt>
      <trkpt lat="43.79915" lon="-1.04088">
        <ele>64.2</ele>
      </trkpt>
      <trkpt lat="43.79923" lon="-1.04103">
        <ele>64.8</ele>
      </trkpt>
      <trkpt lat="43.7994" lon="-1.04117">
        <ele>65</ele>
      </trkpt>
      <trkpt lat="43.79968" lon="-1.04131">
        <ele>65</ele>
      </trkpt>
      <trkpt lat="43.79983" lon="-1.04138">
        <ele>65</ele>
      </trkpt>
      <trkpt lat="43.79998" lon="-1.04147">
        <ele>65</ele>
      </trkpt>
      <trkpt lat="43.80028" lon="-1.04166">
        <ele>65</ele>
      </trkpt>
      <trkpt lat="43.80055" lon="-1.04176">
        <ele>65.3</ele>
      </trkpt>
      <trkpt lat="43.80079" lon="-1.04194">
        <ele>65.2</ele>
      </trkpt>
      <trkpt lat="43.80091" lon="-1.0421">
        <ele>65.7</ele>
      </trkpt>
      <trkpt lat="43.80116" lon="-1.04234">
        <ele>66</ele>
      </trkpt>
      <trkpt lat="43.80129" lon="-1.04246">
        <ele>66</ele>
      </trkpt>
      <trkpt lat="43.80146" lon="-1.04254">
        <ele>66</ele>
      </trkpt>
      <trkpt lat="43.80198" lon="-1.04279">
        <ele>67</ele>
      </trkpt>
      <trkpt lat="43.80233" lon="-1.04296">
        <ele>67.1</ele>
      </trkpt>
      <trkpt lat="43.80251" lon="-1.04305">
        <ele>67</ele>
      </trkpt>
      <trkpt lat="43.80276" lon="-1.04319">
        <ele>67</ele>
      </trkpt>
      <trkpt lat="43.80289" lon="-1.04326">
        <ele>67.4</ele>
      </trkpt>
      <trkpt lat="43.80304" lon="-1.04327">
        <ele>68</ele>
      </trkpt>
      <trkpt lat="43.8032" lon="-1.04328">
        <ele>68</ele>
      </trkpt>
      <trkpt lat="43.80335" lon="-1.04328">
        <ele>68</ele>
      </trkpt>
      <trkpt lat="43.80339" lon="-1.04352">
        <ele>68</ele>
      </trkpt>
      <trkpt lat="43.80343" lon="-1.04377">
        <ele>67.6</ele>
      </trkpt>
      <trkpt lat="43.80357" lon="-1.04474">
        <ele>67</ele>
      </trkpt>
      <trkpt lat="43.8036" lon="-1.04498">
        <ele>67</ele>
      </trkpt>
      <trkpt lat="43.80364" lon="-1.04523">
        <ele>67</ele>
      </trkpt>
      <trkpt lat="43.80378" lon="-1.04567">
        <ele>66.8</ele>
      </trkpt>
      <trkpt lat="43.80385" lon="-1.0459">
        <ele>66.9</ele>
      </trkpt>
      <trkpt lat="43.80392" lon="-1.04612">
        <ele>67</ele>
      </trkpt>
      <trkpt lat="43.80399" lon="-1.04634">
        <ele>67</ele>
      </trkpt>
      <trkpt lat="43.80413" lon="-1.04679">
        <ele>67</ele>
      </trkpt>
      <trkpt lat="43.80414" lon="-1.04704">
        <ele>67.3</ele>
      </trkpt>
      <trkpt lat="43.80417" lon="-1.04752">
        <ele>68</ele>
      </trkpt>
      <trkpt lat="43.80409" lon="-1.04867">
        <ele>69.1</ele>
      </trkpt>
      <trkpt lat="43.8041" lon="-1.04893">
        <ele>68.2</ele>
      </trkpt>
      <trkpt lat="43.8041" lon="-1.04918">
        <ele>68</ele>
      </trkpt>
      <trkpt lat="43.80411" lon="-1.04944">
        <ele>67.2</ele>
      </trkpt>
      <trkpt lat="43.80412" lon="-1.04969">
        <ele>66.3</ele>
      </trkpt>
      <trkpt lat="43.80412" lon="-1.04995">
        <ele>66.3</ele>
      </trkpt>
      <trkpt lat="43.80417" lon="-1.0504">
        <ele>64.6</ele>
      </trkpt>
      <trkpt lat="43.80421" lon="-1.05085">
        <ele>63.2</ele>
      </trkpt>
      <trkpt lat="43.80423" lon="-1.05107">
        <ele>62.2</ele>
      </trkpt>
      <trkpt lat="43.80419" lon="-1.0513">
        <ele>60.6</ele>
      </trkpt>
      <trkpt lat="43.80401" lon="-1.05244">
        <ele>60.2</ele>
      </trkpt>
      <trkpt lat="43.80396" lon="-1.0526">
        <ele>59.8</ele>
      </trkpt>
      <trkpt lat="43.80392" lon="-1.05275">
        <ele>59.3</ele>
      </trkpt>
      <trkpt lat="43.80402" lon="-1.05321">
        <ele>62.6</ele>
      </trkpt>
      <trkpt lat="43.80407" lon="-1.05344">
        <ele>62.9</ele>
      </trkpt>
      <trkpt lat="43.80461" lon="-1.05421">
        <ele>65.2</ele>
      </trkpt>
      <trkpt lat="43.80527" lon="-1.05501">
        <ele>66</ele>
      </trkpt>
      <trkpt lat="43.80567" lon="-1.05545">
        <ele>67.4</ele>
      </trkpt>
      <trkpt lat="43.80607" lon="-1.05588">
        <ele>68.1</ele>
      </trkpt>
      <trkpt lat="43.80689" lon="-1.05706">
        <ele>71.3</ele>
      </trkpt>
      <trkpt lat="43.80718" lon="-1.05776">
        <ele>70.2</ele>
      </trkpt>
      <trkpt lat="43.80812" lon="-1.05697">
        <ele>71</ele>
      </trkpt>
      <trkpt lat="43.80827" lon="-1.05679">
        <ele>71</ele>
      </trkpt>
      <trkpt lat="43.80869" lon="-1.05682">
        <ele>71.3</ele>
      </trkpt>
      <trkpt lat="43.81081" lon="-1.05692">
        <ele>73</ele>
      </trkpt>
      <trkpt lat="43.81151" lon="-1.05695">
        <ele>74</ele>
      </trkpt>
      <trkpt lat="43.8123" lon="-1.05642">
        <ele>74</ele>
      </trkpt>
      <trkpt lat="43.81308" lon="-1.05589">
        <ele>74</ele>
      </trkpt>
      <trkpt lat="43.81624" lon="-1.05398">
        <ele>76</ele>
      </trkpt>
      <trkpt lat="43.81941" lon="-1.05207">
        <ele>77</ele>
      </trkpt>
      <trkpt lat="43.82021" lon="-1.05237">
        <ele>78</ele>
      </trkpt>
      <trkpt lat="43.82182" lon="-1.05297">
        <ele>78</ele>
      </trkpt>
      <trkpt lat="43.82343" lon="-1.05356">
        <ele>79</ele>
      </trkpt>
      <trkpt lat="43.82424" lon="-1.05386">
        <ele>79.7</ele>
      </trkpt>
      <trkpt lat="43.82455" lon="-1.05396">
        <ele>79.1</ele>
      </trkpt>
      <trkpt lat="43.82476" lon="-1.05385">
        <ele>79</ele>
      </trkpt>
      <trkpt lat="43.8278" lon="-1.0525">
        <ele>80</ele>
      </trkpt>
      <trkpt lat="43.82856" lon="-1.05217">
        <ele>80.7</ele>
      </trkpt>
      <trkpt lat="43.82933" lon="-1.05183">
        <ele>81</ele>
      </trkpt>
      <trkpt lat="43.83009" lon="-1.0515">
        <ele>81</ele>
      </trkpt>
      <trkpt lat="43.83036" lon="-1.05139">
        <ele>80.7</ele>
      </trkpt>
      <trkpt lat="43.83084" lon="-1.05152">
        <ele>81</ele>
      </trkpt>
      <trkpt lat="43.83132" lon="-1.05165">
        <ele>81</ele>
      </trkpt>
      <trkpt lat="43.83221" lon="-1.05189">
        <ele>81</ele>
      </trkpt>
      <trkpt lat="43.8331" lon="-1.05213">
        <ele>81.7</ele>
      </trkpt>
      <trkpt lat="43.83488" lon="-1.0526">
        <ele>81.7</ele>
      </trkpt>
      <trkpt lat="43.83576" lon="-1.05284">
        <ele>81.4</ele>
      </trkpt>
      <trkpt lat="43.83644" lon="-1.05318">
        <ele>81.6</ele>
      </trkpt>
      <trkpt lat="43.83711" lon="-1.05353">
        <ele>81.9</ele>
      </trkpt>
      <trkpt lat="43.83779" lon="-1.05387">
        <ele>82</ele>
      </trkpt>
      <trkpt lat="43.83846" lon="-1.05422">
        <ele>82</ele>
      </trkpt>
      <trkpt lat="43.84027" lon="-1.05383">
        <ele>82</ele>
      </trkpt>
      <trkpt lat="43.84117" lon="-1.05364">
        <ele>82</ele>
      </trkpt>
      <trkpt lat="43.84207" lon="-1.05344">
        <ele>82.5</ele>
      </trkpt>
      <trkpt lat="43.84255" lon="-1.05341">
        <ele>82.2</ele>
      </trkpt>
      <trkpt lat="43.84317" lon="-1.05341">
        <ele>82</ele>
      </trkpt>
      <trkpt lat="43.8444" lon="-1.05342">
        <ele>82.6</ele>
      </trkpt>
      <trkpt lat="43.84503" lon="-1.05342">
        <ele>82.1</ele>
      </trkpt>
      <trkpt lat="43.84566" lon="-1.05343">
        <ele>82</ele>
      </trkpt>
      <trkpt lat="43.84654" lon="-1.05343">
        <ele>82.6</ele>
      </trkpt>
      <trkpt lat="43.84829" lon="-1.05342">
        <ele>82</ele>
      </trkpt>
      <trkpt lat="43.84916" lon="-1.05341">
        <ele>83</ele>
      </trkpt>
      <trkpt lat="43.85317" lon="-1.0534">
        <ele>82.4</ele>
      </trkpt>
      <trkpt lat="43.85397" lon="-1.05339">
        <ele>83.7</ele>
      </trkpt>
      <trkpt lat="43.85435" lon="-1.05418">
        <ele>83.3</ele>
      </trkpt>
      <trkpt lat="43.85459" lon="-1.0547">
        <ele>83.4</ele>
      </trkpt>
      <trkpt lat="43.85493" lon="-1.05505">
        <ele>82.7</ele>
      </trkpt>
      <trkpt lat="43.85509" lon="-1.05533">
        <ele>83</ele>
      </trkpt>
      <trkpt lat="43.8553" lon="-1.05586">
        <ele>83</ele>
      </trkpt>
      <trkpt lat="43.85534" lon="-1.05623">
        <ele>82.7</ele>
      </trkpt>
      <trkpt lat="43.85549" lon="-1.05671">
        <ele>82.8</ele>
      </trkpt>
      <trkpt lat="43.85583" lon="-1.05786">
        <ele>83</ele>
      </trkpt>
      <trkpt lat="43.85598" lon="-1.05837">
        <ele>83</ele>
      </trkpt>
      <trkpt lat="43.85634" lon="-1.05966">
        <ele>82.4</ele>
      </trkpt>
      <trkpt lat="43.85648" lon="-1.06041">
        <ele>82</ele>
      </trkpt>
      <trkpt lat="43.85675" lon="-1.06089">
        <ele>82.3</ele>
      </trkpt>
      <trkpt lat="43.85694" lon="-1.06155">
        <ele>83</ele>
      </trkpt>
      <trkpt lat="43.85713" lon="-1.06221">
        <ele>82.3</ele>
      </trkpt>
      <trkpt lat="43.85728" lon="-1.06269">
        <ele>82.2</ele>
      </trkpt>
      <trkpt lat="43.85736" lon="-1.06315">
        <ele>83</ele>
      </trkpt>
      <trkpt lat="43.85746" lon="-1.06313">
        <ele>83</ele>
      </trkpt>
      <trkpt lat="43.85801" lon="-1.06256">
        <ele>82.5</ele>
      </trkpt>
      <trkpt lat="43.85836" lon="-1.06257">
        <ele>81.2</ele>
      </trkpt>
      <trkpt lat="43.85912" lon="-1.06257">
        <ele>81</ele>
      </trkpt>
      <trkpt lat="43.85942" lon="-1.06267">
        <ele>81</ele>
      </trkpt>
      <trkpt lat="43.85984" lon="-1.06294">
        <ele>81</ele>
      </trkpt>
      <trkpt lat="43.86026" lon="-1.06321">
        <ele>81</ele>
      </trkpt>
      <trkpt lat="43.86094" lon="-1.0635">
        <ele>81</ele>
      </trkpt>
      <trkpt lat="43.86115" lon="-1.06345">
        <ele>81</ele>
      </trkpt>
      <trkpt lat="43.86139" lon="-1.06351">
        <ele>81</ele>
      </trkpt>
      <trkpt lat="43.86158" lon="-1.06362">
        <ele>81.6</ele>
      </trkpt>
      <trkpt lat="43.86205" lon="-1.06381">
        <ele>81</ele>
      </trkpt>
      <trkpt lat="43.86236" lon="-1.06387">
        <ele>81</ele>
      </trkpt>
      <trkpt lat="43.86261" lon="-1.06403">
        <ele>81.5</ele>
      </trkpt>
      <trkpt lat="43.86291" lon="-1.06393">
        <ele>81.1</ele>
      </trkpt>
      <trkpt lat="43.86363" lon="-1.06376">
        <ele>82</ele>
      </trkpt>
      <trkpt lat="43.86411" lon="-1.0635">
        <ele>82</ele>
      </trkpt>
      <trkpt lat="43.86428" lon="-1.06331">
        <ele>82</ele>
      </trkpt>
      <trkpt lat="43.86443" lon="-1.06315">
        <ele>82</ele>
      </trkpt>
      <trkpt lat="43.86483" lon="-1.06297">
        <ele>82.3</ele>
      </trkpt>
      <trkpt lat="43.86491" lon="-1.06329">
        <ele>82.1</ele>
      </trkpt>
      <trkpt lat="43.8654" lon="-1.06369">
        <ele>82</ele>
      </trkpt>
      <trkpt lat="43.86601" lon="-1.06407">
        <ele>82</ele>
      </trkpt>
      <trkpt lat="43.8666" lon="-1.06454">
        <ele>82</ele>
      </trkpt>
      <trkpt lat="43.86718" lon="-1.06529">
        <ele>81</ele>
      </trkpt>
      <trkpt lat="43.86751" lon="-1.06585">
        <ele>81</ele>
      </trkpt>
      <trkpt lat="43.86775" lon="-1.06617">
        <ele>80.1</ele>
      </trkpt>
      <trkpt lat="43.86804" lon="-1.06654">
        <ele>80</ele>
      </trkpt>
      <trkpt lat="43.86817" lon="-1.06692">
        <ele>79.6</ele>
      </trkpt>
      <trkpt lat="43.86825" lon="-1.06746">
        <ele>79.3</ele>
      </trkpt>
      <trkpt lat="43.86841" lon="-1.0679">
        <ele>79.3</ele>
      </trkpt>
      <trkpt lat="43.86854" lon="-1.06848">
        <ele>79.7</ele>
      </trkpt>
      <trkpt lat="43.8686" lon="-1.06904">
        <ele>79.6</ele>
      </trkpt>
      <trkpt lat="43.86903" lon="-1.06909">
        <ele>75.6</ele>
      </trkpt>
      <trkpt lat="43.86935" lon="-1.06925">
        <ele>73.3</ele>
      </trkpt>
      <trkpt lat="43.86964" lon="-1.06964">
        <ele>70.9</ele>
      </trkpt>
      <trkpt lat="43.87" lon="-1.07004">
        <ele>72</ele>
      </trkpt>
      <trkpt lat="43.87036" lon="-1.07045">
        <ele>75.2</ele>
      </trkpt>
      <trkpt lat="43.8709" lon="-1.07103">
        <ele>77.2</ele>
      </trkpt>
      <trkpt lat="43.87117" lon="-1.07113">
        <ele>78.2</ele>
      </trkpt>
      <trkpt lat="43.87155" lon="-1.0712">
        <ele>79</ele>
      </trkpt>
      <trkpt lat="43.87217" lon="-1.07092">
        <ele>80.8</ele>
      </trkpt>
      <trkpt lat="43.87279" lon="-1.07065">
        <ele>82</ele>
      </trkpt>
      <trkpt lat="43.87283" lon="-1.07006">
        <ele>82</ele>
      </trkpt>
      <trkpt lat="43.87359" lon="-1.06975">
        <ele>81.9</ele>
      </trkpt>
      <trkpt lat="43.87512" lon="-1.06913">
        <ele>82.1</ele>
      </trkpt>
      <trkpt lat="43.8758" lon="-1.06885">
        <ele>82.2</ele>
      </trkpt>
      <trkpt lat="43.87648" lon="-1.06858">
        <ele>83</ele>
      </trkpt>
      <trkpt lat="43.87717" lon="-1.06831">
        <ele>83</ele>
      </trkpt>
      <trkpt lat="43.87785" lon="-1.06803">
        <ele>83</ele>
      </trkpt>
      <trkpt lat="43.87827" lon="-1.06785">
        <ele>83</ele>
      </trkpt>
      <trkpt lat="43.87866" lon="-1.06781">
        <ele>83</ele>
      </trkpt>
      <trkpt lat="43.87914" lon="-1.06786">
        <ele>83</ele>
      </trkpt>
      <trkpt lat="43.87962" lon="-1.06791">
        <ele>83</ele>
      </trkpt>
      <trkpt lat="43.88019" lon="-1.06793">
        <ele>83</ele>
      </trkpt>
      <trkpt lat="43.8805" lon="-1.0679">
        <ele>83</ele>
      </trkpt>
      <trkpt lat="43.88109" lon="-1.06767">
        <ele>83</ele>
      </trkpt>
      <trkpt lat="43.88186" lon="-1.06736">
        <ele>83</ele>
      </trkpt>
      <trkpt lat="43.88263" lon="-1.06704">
        <ele>83.6</ele>
      </trkpt>
      <trkpt lat="43.88342" lon="-1.06672">
        <ele>83</ele>
      </trkpt>
      <trkpt lat="43.88421" lon="-1.0664">
        <ele>83.8</ele>
      </trkpt>
      <trkpt lat="43.88473" lon="-1.0661">
        <ele>83</ele>
      </trkpt>
      <trkpt lat="43.88531" lon="-1.06572">
        <ele>83</ele>
      </trkpt>
      <trkpt lat="43.88577" lon="-1.06532">
        <ele>83</ele>
      </trkpt>
      <trkpt lat="43.88644" lon="-1.0647">
        <ele>83.1</ele>
      </trkpt>
      <trkpt lat="43.88687" lon="-1.06424">
        <ele>83</ele>
      </trkpt>
      <trkpt lat="43.8873" lon="-1.06378">
        <ele>82.9</ele>
      </trkpt>
      <trkpt lat="43.88778" lon="-1.0633">
        <ele>82</ele>
      </trkpt>
      <trkpt lat="43.88833" lon="-1.063">
        <ele>82</ele>
      </trkpt>
      <trkpt lat="43.88896" lon="-1.06278">
        <ele>81.8</ele>
      </trkpt>
      <trkpt lat="43.88959" lon="-1.06256">
        <ele>81.9</ele>
      </trkpt>
      <trkpt lat="43.89032" lon="-1.06233">
        <ele>82</ele>
      </trkpt>
      <trkpt lat="43.89177" lon="-1.06187">
        <ele>81.2</ele>
      </trkpt>
      <trkpt lat="43.89249" lon="-1.06164">
        <ele>81</ele>
      </trkpt>
      <trkpt lat="43.89301" lon="-1.0615">
        <ele>81.6</ele>
      </trkpt>
      <trkpt lat="43.89353" lon="-1.06135">
        <ele>82.1</ele>
      </trkpt>
      <trkpt lat="43.89382" lon="-1.06112">
        <ele>82.2</ele>
      </trkpt>
      <trkpt lat="43.89421" lon="-1.06098">
        <ele>82</ele>
      </trkpt>
      <trkpt lat="43.89502" lon="-1.06074">
        <ele>81.4</ele>
      </trkpt>
      <trkpt lat="43.89582" lon="-1.0605">
        <ele>82</ele>
      </trkpt>
      <trkpt lat="43.89668" lon="-1.06029">
        <ele>83</ele>
      </trkpt>
      <trkpt lat="43.89717" lon="-1.06015">
        <ele>82.2</ele>
      </trkpt>
      <trkpt lat="43.89767" lon="-1.06002">
        <ele>82</ele>
      </trkpt>
      <trkpt lat="43.89816" lon="-1.05994">
        <ele>82</ele>
      </trkpt>
      <trkpt lat="43.89849" lon="-1.05978">
        <ele>82</ele>
      </trkpt>
      <trkpt lat="43.89884" lon="-1.05961">
        <ele>82</ele>
      </trkpt>
      <trkpt lat="43.89915" lon="-1.05961">
        <ele>82</ele>
      </trkpt>
      <trkpt lat="43.89971" lon="-1.05955">
        <ele>82</ele>
      </trkpt>
      <trkpt lat="43.90027" lon="-1.05949">
        <ele>82</ele>
      </trkpt>
      <trkpt lat="43.90076" lon="-1.05943">
        <ele>80.4</ele>
      </trkpt>
      <trkpt lat="43.90125" lon="-1.05937">
        <ele>77.5</ele>
      </trkpt>
      <trkpt lat="43.90163" lon="-1.05944">
        <ele>75.2</ele>
      </trkpt>
      <trkpt lat="43.90178" lon="-1.05959">
        <ele>76.3</ele>
      </trkpt>
      <trkpt lat="43.90223" lon="-1.05972">
        <ele>80</ele>
      </trkpt>
      <trkpt lat="43.90268" lon="-1.05984">
        <ele>82</ele>
      </trkpt>
      <trkpt lat="43.90308" lon="-1.05995">
        <ele>82</ele>
      </trkpt>
      <trkpt lat="43.90316" lon="-1.06019">
        <ele>82</ele>
      </trkpt>
      <trkpt lat="43.90308" lon="-1.0613">
        <ele>81.4</ele>
      </trkpt>
      <trkpt lat="43.90301" lon="-1.0624">
        <ele>81.6</ele>
      </trkpt>
      <trkpt lat="43.90297" lon="-1.06326">
        <ele>81</ele>
      </trkpt>
      <trkpt lat="43.9029" lon="-1.06498">
        <ele>81</ele>
      </trkpt>
      <trkpt lat="43.90323" lon="-1.06481">
        <ele>81</ele>
      </trkpt>
      <trkpt lat="43.9034" lon="-1.06484">
        <ele>81</ele>
      </trkpt>
      <trkpt lat="43.9038" lon="-1.06529">
        <ele>81</ele>
      </trkpt>
      <trkpt lat="43.90424" lon="-1.06606">
        <ele>80.2</ele>
      </trkpt>
      <trkpt lat="43.90499" lon="-1.06658">
        <ele>81</ele>
      </trkpt>
      <trkpt lat="43.90555" lon="-1.06739">
        <ele>80</ele>
      </trkpt>
      <trkpt lat="43.90574" lon="-1.06761">
        <ele>80</ele>
      </trkpt>
      <trkpt lat="43.90597" lon="-1.06782">
        <ele>80</ele>
      </trkpt>
      <trkpt lat="43.90636" lon="-1.06822">
        <ele>80</ele>
      </trkpt>
      <trkpt lat="43.90653" lon="-1.06837">
        <ele>79.5</ele>
      </trkpt>
      <trkpt lat="43.9066" lon="-1.06856">
        <ele>79.2</ele>
      </trkpt>
      <trkpt lat="43.90713" lon="-1.06919">
        <ele>79</ele>
      </trkpt>
      <trkpt lat="43.90723" lon="-1.06958">
        <ele>79</ele>
      </trkpt>
      <trkpt lat="43.90743" lon="-1.07003">
        <ele>79</ele>
      </trkpt>
      <trkpt lat="43.9077" lon="-1.07071">
        <ele>79</ele>
      </trkpt>
      <trkpt lat="43.90777" lon="-1.07123">
        <ele>78.4</ele>
      </trkpt>
      <trkpt lat="43.90771" lon="-1.07158">
        <ele>78.3</ele>
      </trkpt>
      <trkpt lat="43.90749" lon="-1.07218">
        <ele>78</ele>
      </trkpt>
      <trkpt lat="43.90735" lon="-1.07269">
        <ele>78</ele>
      </trkpt>
      <trkpt lat="43.90816" lon="-1.07301">
        <ele>78</ele>
      </trkpt>
      <trkpt lat="43.90896" lon="-1.07333">
        <ele>78</ele>
      </trkpt>
      <trkpt lat="43.91057" lon="-1.07397">
        <ele>78.3</ele>
      </trkpt>
      <trkpt lat="43.91121" lon="-1.07423">
        <ele>78.6</ele>
      </trkpt>
      <trkpt lat="43.91248" lon="-1.07475">
        <ele>78.9</ele>
      </trkpt>
      <trkpt lat="43.91284" lon="-1.07485">
        <ele>77.9</ele>
      </trkpt>
      <trkpt lat="43.91326" lon="-1.07529">
        <ele>75.1</ele>
      </trkpt>
      <trkpt lat="43.91362" lon="-1.07549">
        <ele>75.4</ele>
      </trkpt>
      <trkpt lat="43.91424" lon="-1.07566">
        <ele>78</ele>
      </trkpt>
      <trkpt lat="43.91486" lon="-1.07584">
        <ele>78.5</ele>
      </trkpt>
      <trkpt lat="43.91548" lon="-1.07601">
        <ele>78.4</ele>
      </trkpt>
      <trkpt lat="43.91609" lon="-1.07618">
        <ele>78.2</ele>
      </trkpt>
      <trkpt lat="43.91697" lon="-1.07642">
        <ele>78.1</ele>
      </trkpt>
      <trkpt lat="43.91873" lon="-1.07689">
        <ele>78</ele>
      </trkpt>
      <trkpt lat="43.91962" lon="-1.07713">
        <ele>78.2</ele>
      </trkpt>
      <trkpt lat="43.92035" lon="-1.07736">
        <ele>78.1</ele>
      </trkpt>
      <trkpt lat="43.92109" lon="-1.07759">
        <ele>78</ele>
      </trkpt>
      <trkpt lat="43.922" lon="-1.0776">
        <ele>78</ele>
      </trkpt>
      <trkpt lat="43.92291" lon="-1.0776">
        <ele>78.7</ele>
      </trkpt>
      <trkpt lat="43.92382" lon="-1.07761">
        <ele>78.7</ele>
      </trkpt>
      <trkpt lat="43.92432" lon="-1.07772">
        <ele>78.6</ele>
      </trkpt>
      <trkpt lat="43.92482" lon="-1.07783">
        <ele>79</ele>
      </trkpt>
      <trkpt lat="43.9255" lon="-1.07799">
        <ele>78.8</ele>
      </trkpt>
      <trkpt lat="43.92618" lon="-1.07814">
        <ele>78.7</ele>
      </trkpt>
      <trkpt lat="43.92686" lon="-1.07829">
        <ele>78.8</ele>
      </trkpt>
      <trkpt lat="43.92739" lon="-1.07846">
        <ele>78.2</ele>
      </trkpt>
      <trkpt lat="43.92783" lon="-1.07873">
        <ele>78.4</ele>
      </trkpt>
      <trkpt lat="43.92826" lon="-1.07899">
        <ele>79</ele>
      </trkpt>
      <trkpt lat="43.92903" lon="-1.07944">
        <ele>79</ele>
      </trkpt>
      <trkpt lat="43.92981" lon="-1.07989">
        <ele>79</ele>
      </trkpt>
      <trkpt lat="43.93008" lon="-1.08005">
        <ele>79</ele>
      </trkpt>
      <trkpt lat="43.9305" lon="-1.08022">
        <ele>79</ele>
      </trkpt>
      <trkpt lat="43.93077" lon="-1.08013">
        <ele>79</ele>
      </trkpt>
      <trkpt lat="43.93161" lon="-1.07983">
        <ele>80</ele>
      </trkpt>
      <trkpt lat="43.93231" lon="-1.07961">
        <ele>80</ele>
      </trkpt>
      <trkpt lat="43.93301" lon="-1.0794">
        <ele>80</ele>
      </trkpt>
      <trkpt lat="43.93355" lon="-1.07916">
        <ele>80</ele>
      </trkpt>
      <trkpt lat="43.934" lon="-1.07913">
        <ele>80.5</ele>
      </trkpt>
      <trkpt lat="43.93438" lon="-1.0793">
        <ele>80.4</ele>
      </trkpt>
      <trkpt lat="43.93483" lon="-1.07969">
        <ele>80.9</ele>
      </trkpt>
      <trkpt lat="43.93617" lon="-1.08058">
        <ele>80.9</ele>
      </trkpt>
      <trkpt lat="43.93687" lon="-1.08102">
        <ele>81</ele>
      </trkpt>
      <trkpt lat="43.93826" lon="-1.0819">
        <ele>80</ele>
      </trkpt>
      <trkpt lat="43.93991" lon="-1.08291">
        <ele>80.4</ele>
      </trkpt>
      <trkpt lat="43.94037" lon="-1.08306">
        <ele>80</ele>
      </trkpt>
      <trkpt lat="43.94085" lon="-1.08303">
        <ele>80.1</ele>
      </trkpt>
      <trkpt lat="43.94123" lon="-1.08272">
        <ele>80.1</ele>
      </trkpt>
      <trkpt lat="43.94151" lon="-1.08241">
        <ele>80.1</ele>
      </trkpt>
      <trkpt lat="43.94192" lon="-1.08202">
        <ele>81.4</ele>
      </trkpt>
      <trkpt lat="43.94228" lon="-1.08196">
        <ele>82.9</ele>
      </trkpt>
      <trkpt lat="43.94271" lon="-1.08209">
        <ele>82.3</ele>
      </trkpt>
      <trkpt lat="43.9431" lon="-1.08252">
        <ele>84.9</ele>
      </trkpt>
      <trkpt lat="43.94348" lon="-1.08306">
        <ele>82.1</ele>
      </trkpt>
      <trkpt lat="43.9439" lon="-1.08366">
        <ele>84</ele>
      </trkpt>
      <trkpt lat="43.94434" lon="-1.08404">
        <ele>81</ele>
      </trkpt>
      <trkpt lat="43.94483" lon="-1.08436">
        <ele>80.5</ele>
      </trkpt>
      <trkpt lat="43.94633" lon="-1.08514">
        <ele>79</ele>
      </trkpt>
      <trkpt lat="43.94708" lon="-1.08552">
        <ele>79</ele>
      </trkpt>
      <trkpt lat="43.94786" lon="-1.08592">
        <ele>78.8</ele>
      </trkpt>
      <trkpt lat="43.94864" lon="-1.08632">
        <ele>78.7</ele>
      </trkpt>
      <trkpt lat="43.94941" lon="-1.08672">
        <ele>78</ele>
      </trkpt>
      <trkpt lat="43.95003" lon="-1.08712">
        <ele>77.1</ele>
      </trkpt>
      <trkpt lat="43.95079" lon="-1.08758">
        <ele>78</ele>
      </trkpt>
      <trkpt lat="43.95232" lon="-1.08848">
        <ele>77</ele>
      </trkpt>
      <trkpt lat="43.95306" lon="-1.0889">
        <ele>77</ele>
      </trkpt>
      <trkpt lat="43.9538" lon="-1.08933">
        <ele>77</ele>
      </trkpt>
      <trkpt lat="43.95454" lon="-1.08975">
        <ele>76.9</ele>
      </trkpt>
      <trkpt lat="43.95528" lon="-1.09017">
        <ele>76</ele>
      </trkpt>
      <trkpt lat="43.95602" lon="-1.0906">
        <ele>76</ele>
      </trkpt>
      <trkpt lat="43.95736" lon="-1.09139">
        <ele>76</ele>
      </trkpt>
      <trkpt lat="43.9587" lon="-1.09218">
        <ele>76</ele>
      </trkpt>
      <trkpt lat="43.95922" lon="-1.0925">
        <ele>76</ele>
      </trkpt>
      <trkpt lat="43.95955" lon="-1.09289">
        <ele>75.7</ele>
      </trkpt>
      <trkpt lat="43.96024" lon="-1.0937">
        <ele>75.6</ele>
      </trkpt>
      <trkpt lat="43.96075" lon="-1.0946">
        <ele>75</ele>
      </trkpt>
      <trkpt lat="43.96101" lon="-1.09484">
        <ele>75</ele>
      </trkpt>
      <trkpt lat="43.96139" lon="-1.09513">
        <ele>75</ele>
      </trkpt>
      <trkpt lat="43.96151" lon="-1.09516">
        <ele>75</ele>
      </trkpt>
      <trkpt lat="43.9621" lon="-1.09532">
        <ele>75</ele>
      </trkpt>
      <trkpt lat="43.96222" lon="-1.09533">
        <ele>75</ele>
      </trkpt>
      <trkpt lat="43.96257" lon="-1.09538">
        <ele>75</ele>
      </trkpt>
      <trkpt lat="43.96293" lon="-1.09542">
        <ele>74.7</ele>
      </trkpt>
      <trkpt lat="43.96305" lon="-1.09544">
        <ele>74.5</ele>
      </trkpt>
      <trkpt lat="43.96317" lon="-1.09546">
        <ele>74.6</ele>
      </trkpt>
      <trkpt lat="43.96354" lon="-1.09552">
        <ele>74.9</ele>
      </trkpt>
      <trkpt lat="43.96379" lon="-1.09556">
        <ele>74.4</ele>
      </trkpt>
      <trkpt lat="43.96391" lon="-1.09561">
        <ele>74.2</ele>
      </trkpt>
      <trkpt lat="43.96426" lon="-1.09574">
        <ele>74</ele>
      </trkpt>
      <trkpt lat="43.96449" lon="-1.09583">
        <ele>74</ele>
      </trkpt>
      <trkpt lat="43.9652" lon="-1.09616">
        <ele>74</ele>
      </trkpt>
      <trkpt lat="43.96532" lon="-1.09621">
        <ele>73.9</ele>
      </trkpt>
      <trkpt lat="43.96573" lon="-1.09626">
        <ele>72.1</ele>
      </trkpt>
      <trkpt lat="43.96584" lon="-1.09623">
        <ele>71.4</ele>
      </trkpt>
      <trkpt lat="43.96605" lon="-1.09617">
        <ele>69.6</ele>
      </trkpt>
      <trkpt lat="43.96615" lon="-1.09609">
        <ele>68.5</ele>
      </trkpt>
      <trkpt lat="43.96625" lon="-1.09601">
        <ele>69.1</ele>
      </trkpt>
      <trkpt lat="43.96635" lon="-1.09593">
        <ele>68.1</ele>
      </trkpt>
      <trkpt lat="43.96645" lon="-1.09585">
        <ele>65.8</ele>
      </trkpt>
      <trkpt lat="43.96666" lon="-1.09568">
        <ele>63.5</ele>
      </trkpt>
      <trkpt lat="43.96699" lon="-1.09543">
        <ele>61.5</ele>
      </trkpt>
      <trkpt lat="43.9671" lon="-1.09535">
        <ele>61.1</ele>
      </trkpt>
      <trkpt lat="43.96732" lon="-1.0952">
        <ele>60.7</ele>
      </trkpt>
      <trkpt lat="43.96748" lon="-1.0951">
        <ele>60.4</ele>
      </trkpt>
      <trkpt lat="43.96752" lon="-1.09507">
        <ele>60.2</ele>
      </trkpt>
      <trkpt lat="43.96755" lon="-1.09506">
        <ele>60</ele>
      </trkpt>
      <trkpt lat="43.96778" lon="-1.09499">
        <ele>59</ele>
      </trkpt>
      <trkpt lat="43.96836" lon="-1.0948">
        <ele>60</ele>
      </trkpt>
      <trkpt lat="43.96839" lon="-1.09479">
        <ele>60</ele>
      </trkpt>
      <trkpt lat="43.96874" lon="-1.09464">
        <ele>61.1</ele>
      </trkpt>
      <trkpt lat="43.96877" lon="-1.09463">
        <ele>61.4</ele>
      </trkpt>
      <trkpt lat="43.9688" lon="-1.09461">
        <ele>61.7</ele>
      </trkpt>
      <trkpt lat="43.96883" lon="-1.0946">
        <ele>62.1</ele>
      </trkpt>
      <trkpt lat="43.96885" lon="-1.09459">
        <ele>62.5</ele>
      </trkpt>
      <trkpt lat="43.96896" lon="-1.09454">
        <ele>63.5</ele>
      </trkpt>
      <trkpt lat="43.9691" lon="-1.09446">
        <ele>64.6</ele>
      </trkpt>
      <trkpt lat="43.96914" lon="-1.09444">
        <ele>64.9</ele>
      </trkpt>
      <trkpt lat="43.96925" lon="-1.09431">
        <ele>67.8</ele>
      </trkpt>
      <trkpt lat="43.9694" lon="-1.09413">
        <ele>70.6</ele>
      </trkpt>
      <trkpt lat="43.96948" lon="-1.09403">
        <ele>72.2</ele>
      </trkpt>
      <trkpt lat="43.96951" lon="-1.09399">
        <ele>72.8</ele>
      </trkpt>
      <trkpt lat="43.96956" lon="-1.09391">
        <ele>74</ele>
      </trkpt>
      <trkpt lat="43.96961" lon="-1.09383">
        <ele>75.2</ele>
      </trkpt>
      <trkpt lat="43.96972" lon="-1.09367">
        <ele>76.9</ele>
      </trkpt>
      <trkpt lat="43.96973" lon="-1.09362">
        <ele>77</ele>
      </trkpt>
      <trkpt lat="43.96996" lon="-1.09285">
        <ele>76.4</ele>
      </trkpt>
      <trkpt lat="43.96998" lon="-1.0928">
        <ele>76.2</ele>
      </trkpt>
      <trkpt lat="43.96999" lon="-1.09276">
        <ele>76</ele>
      </trkpt>
      <trkpt lat="43.97005" lon="-1.09262">
        <ele>75.8</ele>
      </trkpt>
      <trkpt lat="43.97008" lon="-1.09256">
        <ele>75.7</ele>
      </trkpt>
      <trkpt lat="43.9704" lon="-1.09189">
        <ele>75.2</ele>
      </trkpt>
      <trkpt lat="43.97041" lon="-1.09186">
        <ele>75.2</ele>
      </trkpt>
      <trkpt lat="43.97053" lon="-1.09186">
        <ele>74.5</ele>
      </trkpt>
      <trkpt lat="43.97056" lon="-1.09186">
        <ele>74.3</ele>
      </trkpt>
      <trkpt lat="43.97059" lon="-1.09187">
        <ele>74.3</ele>
      </trkpt>
      <trkpt lat="43.97076" lon="-1.09187">
        <ele>74.1</ele>
      </trkpt>
      <trkpt lat="43.97099" lon="-1.09188">
        <ele>74</ele>
      </trkpt>
      <trkpt lat="43.97101" lon="-1.09188">
        <ele>74</ele>
      </trkpt>
      <trkpt lat="43.97104" lon="-1.09188">
        <ele>74</ele>
      </trkpt>
      <trkpt lat="43.97116" lon="-1.09188">
        <ele>74</ele>
      </trkpt>
      <trkpt lat="43.97127" lon="-1.09189">
        <ele>74.1</ele>
      </trkpt>
      <trkpt lat="43.97133" lon="-1.09189">
        <ele>74.2</ele>
      </trkpt>
      <trkpt lat="43.97135" lon="-1.09189">
        <ele>74.2</ele>
      </trkpt>
      <trkpt lat="43.97172" lon="-1.0919">
        <ele>74.3</ele>
      </trkpt>
      <trkpt lat="43.9724" lon="-1.09182">
        <ele>76.3</ele>
      </trkpt>
      <trkpt lat="43.97274" lon="-1.09176">
        <ele>76.3</ele>
      </trkpt>
      <trkpt lat="43.97308" lon="-1.09171">
        <ele>76</ele>
      </trkpt>
      <trkpt lat="43.97377" lon="-1.09161">
        <ele>74.6</ele>
      </trkpt>
      <trkpt lat="43.97411" lon="-1.0916">
        <ele>73.7</ele>
      </trkpt>
      <trkpt lat="43.97444" lon="-1.09159">
        <ele>73.6</ele>
      </trkpt>
      <trkpt lat="43.97482" lon="-1.09152">
        <ele>74.5</ele>
      </trkpt>
      <trkpt lat="43.97594" lon="-1.09132">
        <ele>77.2</ele>
      </trkpt>
      <trkpt lat="43.97669" lon="-1.09119">
        <ele>75.9</ele>
      </trkpt>
      <trkpt lat="43.97709" lon="-1.09109">
        <ele>75.1</ele>
      </trkpt>
      <trkpt lat="43.97743" lon="-1.09092">
        <ele>75.2</ele>
      </trkpt>
      <trkpt lat="43.97773" lon="-1.09073">
        <ele>75.4</ele>
      </trkpt>
      <trkpt lat="43.97833" lon="-1.09034">
        <ele>76</ele>
      </trkpt>
      <trkpt lat="43.97894" lon="-1.08995">
        <ele>76</ele>
      </trkpt>
      <trkpt lat="43.97924" lon="-1.08975">
        <ele>76</ele>
      </trkpt>
      <trkpt lat="43.98022" lon="-1.08919">
        <ele>76</ele>
      </trkpt>
      <trkpt lat="43.98084" lon="-1.08896">
        <ele>76</ele>
      </trkpt>
      <trkpt lat="43.98117" lon="-1.08887">
        <ele>76</ele>
      </trkpt>
      <trkpt lat="43.98214" lon="-1.0886">
        <ele>76</ele>
      </trkpt>
      <trkpt lat="43.98279" lon="-1.08842">
        <ele>76.3</ele>
      </trkpt>
      <trkpt lat="43.98366" lon="-1.08823">
        <ele>76.1</ele>
      </trkpt>
      <trkpt lat="43.98468" lon="-1.08796">
        <ele>75.7</ele>
      </trkpt>
      <trkpt lat="43.98501" lon="-1.08787">
        <ele>76</ele>
      </trkpt>
      <trkpt lat="43.98495" lon="-1.08759">
        <ele>75.9</ele>
      </trkpt>
      <trkpt lat="43.98488" lon="-1.08731">
        <ele>76</ele>
      </trkpt>
      <trkpt lat="43.98498" lon="-1.08715">
        <ele>76</ele>
      </trkpt>
      <trkpt lat="43.98528" lon="-1.08686">
        <ele>76</ele>
      </trkpt>
      <trkpt lat="43.9854" lon="-1.08664">
        <ele>76</ele>
      </trkpt>
      <trkpt lat="43.98552" lon="-1.08642">
        <ele>76</ele>
      </trkpt>
      <trkpt lat="43.9856" lon="-1.08613">
        <ele>76</ele>
      </trkpt>
      <trkpt lat="43.98567" lon="-1.08583">
        <ele>76</ele>
      </trkpt>
      <trkpt lat="43.98571" lon="-1.08538">
        <ele>76</ele>
      </trkpt>
      <trkpt lat="43.98577" lon="-1.08449">
        <ele>76.8</ele>
      </trkpt>
      <trkpt lat="43.98581" lon="-1.08404">
        <ele>77</ele>
      </trkpt>
      <trkpt lat="43.98583" lon="-1.08368">
        <ele>77</ele>
      </trkpt>
      <trkpt lat="43.98585" lon="-1.08332">
        <ele>77</ele>
      </trkpt>
      <trkpt lat="43.98587" lon="-1.08296">
        <ele>77</ele>
      </trkpt>
      <trkpt lat="43.9859" lon="-1.08254">
        <ele>77</ele>
      </trkpt>
      <trkpt lat="43.98604" lon="-1.08206">
        <ele>77.6</ele>
      </trkpt>
      <trkpt lat="43.98596" lon="-1.08168">
        <ele>78</ele>
      </trkpt>
      <trkpt lat="43.9858" lon="-1.08131">
        <ele>78</ele>
      </trkpt>
      <trkpt lat="43.98602" lon="-1.08106">
        <ele>78</ele>
      </trkpt>
      <trkpt lat="43.98624" lon="-1.08081">
        <ele>77.6</ele>
      </trkpt>
      <trkpt lat="43.98631" lon="-1.0806">
        <ele>77.9</ele>
      </trkpt>
      <trkpt lat="43.98636" lon="-1.08051">
        <ele>78</ele>
      </trkpt>
      <trkpt lat="43.98665" lon="-1.08026">
        <ele>78</ele>
      </trkpt>
      <trkpt lat="43.98684" lon="-1.0801">
        <ele>78</ele>
      </trkpt>
      <trkpt lat="43.98693" lon="-1.07988">
        <ele>78</ele>
      </trkpt>
      <trkpt lat="43.9873" lon="-1.07983">
        <ele>78</ele>
      </trkpt>
      <trkpt lat="43.98767" lon="-1.07978">
        <ele>78</ele>
      </trkpt>
      <trkpt lat="43.98789" lon="-1.07969">
        <ele>78</ele>
      </trkpt>
      <trkpt lat="43.9881" lon="-1.0796">
        <ele>78</ele>
      </trkpt>
      <trkpt lat="43.98836" lon="-1.07944">
        <ele>78</ele>
      </trkpt>
      <trkpt lat="43.98862" lon="-1.07928">
        <ele>78</ele>
      </trkpt>
      <trkpt lat="43.98883" lon="-1.07917">
        <ele>78</ele>
      </trkpt>
      <trkpt lat="43.99052" lon="-1.07845">
        <ele>78</ele>
      </trkpt>
      <trkpt lat="43.99086" lon="-1.07831">
        <ele>78</ele>
      </trkpt>
      <trkpt lat="43.9912" lon="-1.07816">
        <ele>78.6</ele>
      </trkpt>
      <trkpt lat="43.99224" lon="-1.07772">
        <ele>79</ele>
      </trkpt>
      <trkpt lat="43.99294" lon="-1.07742">
        <ele>78.6</ele>
      </trkpt>
      <trkpt lat="43.99327" lon="-1.07729">
        <ele>79.8</ele>
      </trkpt>
      <trkpt lat="43.9936" lon="-1.07715">
        <ele>79.7</ele>
      </trkpt>
      <trkpt lat="43.9939" lon="-1.077">
        <ele>79.8</ele>
      </trkpt>
      <trkpt lat="43.99449" lon="-1.07669">
        <ele>78.1</ele>
      </trkpt>
      <trkpt lat="43.99478" lon="-1.07654">
        <ele>78.6</ele>
      </trkpt>
      <trkpt lat="43.99513" lon="-1.07632">
        <ele>79.6</ele>
      </trkpt>
      <trkpt lat="43.99547" lon="-1.07611">
        <ele>79.6</ele>
      </trkpt>
      <trkpt lat="43.99646" lon="-1.07538">
        <ele>78</ele>
      </trkpt>
      <trkpt lat="43.99713" lon="-1.07492">
        <ele>78.7</ele>
      </trkpt>
      <trkpt lat="43.99747" lon="-1.07469">
        <ele>79.9</ele>
      </trkpt>
      <trkpt lat="43.99915" lon="-1.07352">
        <ele>77.1</ele>
      </trkpt>
      <trkpt lat="43.9998" lon="-1.07307">
        <ele>77</ele>
      </trkpt>
      <trkpt lat="44.00013" lon="-1.07284">
        <ele>77.4</ele>
      </trkpt>
      <trkpt lat="44.0011" lon="-1.07216">
        <ele>77.2</ele>
      </trkpt>
      <trkpt lat="44.00135" lon="-1.07201">
        <ele>77.1</ele>
      </trkpt>
      <trkpt lat="44.00184" lon="-1.07172">
        <ele>77.3</ele>
      </trkpt>
      <trkpt lat="44.00247" lon="-1.07141">
        <ele>77</ele>
      </trkpt>
      <trkpt lat="44.00283" lon="-1.07124">
        <ele>77.1</ele>
      </trkpt>
      <trkpt lat="44.00319" lon="-1.07106">
        <ele>77</ele>
      </trkpt>
      <trkpt lat="44.00345" lon="-1.07102">
        <ele>77</ele>
      </trkpt>
      <trkpt lat="44.0037" lon="-1.07097">
        <ele>77</ele>
      </trkpt>
      <trkpt lat="44.00402" lon="-1.07094">
        <ele>77</ele>
      </trkpt>
      <trkpt lat="44.00434" lon="-1.07091">
        <ele>77</ele>
      </trkpt>
      <trkpt lat="44.00461" lon="-1.07089">
        <ele>77</ele>
      </trkpt>
      <trkpt lat="44.00489" lon="-1.07086">
        <ele>76.4</ele>
      </trkpt>
      <trkpt lat="44.00556" lon="-1.07088">
        <ele>76</ele>
      </trkpt>
      <trkpt lat="44.0059" lon="-1.07089">
        <ele>76</ele>
      </trkpt>
      <trkpt lat="44.00596" lon="-1.07049">
        <ele>76</ele>
      </trkpt>
      <trkpt lat="44.00603" lon="-1.07008">
        <ele>76</ele>
      </trkpt>
      <trkpt lat="44.0061" lon="-1.06967">
        <ele>76.2</ele>
      </trkpt>
      <trkpt lat="44.00629" lon="-1.06943">
        <ele>76.3</ele>
      </trkpt>
      <trkpt lat="44.00639" lon="-1.06923">
        <ele>76</ele>
      </trkpt>
      <trkpt lat="44.00645" lon="-1.06889">
        <ele>76</ele>
      </trkpt>
      <trkpt lat="44.00666" lon="-1.06913">
        <ele>76</ele>
      </trkpt>
      <trkpt lat="44.00708" lon="-1.06961">
        <ele>76.3</ele>
      </trkpt>
      <trkpt lat="44.00724" lon="-1.06977">
        <ele>76</ele>
      </trkpt>
      <trkpt lat="44.0074" lon="-1.06993">
        <ele>76</ele>
      </trkpt>
      <trkpt lat="44.00763" lon="-1.07017">
        <ele>75.5</ele>
      </trkpt>
      <trkpt lat="44.00787" lon="-1.0704">
        <ele>75.1</ele>
      </trkpt>
      <trkpt lat="44.00805" lon="-1.07068">
        <ele>75</ele>
      </trkpt>
      <trkpt lat="44.00823" lon="-1.07095">
        <ele>75.5</ele>
      </trkpt>
      <trkpt lat="44.00845" lon="-1.07137">
        <ele>75</ele>
      </trkpt>
      <trkpt lat="44.00866" lon="-1.07178">
        <ele>75</ele>
      </trkpt>
      <trkpt lat="44.0088" lon="-1.07212">
        <ele>75</ele>
      </trkpt>
      <trkpt lat="44.00894" lon="-1.07246">
        <ele>74.3</ele>
      </trkpt>
      <trkpt lat="44.00913" lon="-1.07293">
        <ele>74.1</ele>
      </trkpt>
      <trkpt lat="44.00933" lon="-1.07339">
        <ele>74.3</ele>
      </trkpt>
      <trkpt lat="44.00948" lon="-1.07369">
        <ele>74</ele>
      </trkpt>
      <trkpt lat="44.00971" lon="-1.07401">
        <ele>74</ele>
      </trkpt>
      <trkpt lat="44.00993" lon="-1.07376">
        <ele>72.9</ele>
      </trkpt>
      <trkpt lat="44.01009" lon="-1.0734">
        <ele>72.6</ele>
      </trkpt>
      <trkpt lat="44.01016" lon="-1.07309">
        <ele>73.4</ele>
      </trkpt>
      <trkpt lat="44.01024" lon="-1.07279">
        <ele>69.8</ele>
      </trkpt>
      <trkpt lat="44.01043" lon="-1.07261">
        <ele>66.7</ele>
      </trkpt>
      <trkpt lat="44.01067" lon="-1.07277">
        <ele>64.8</ele>
      </trkpt>
      <trkpt lat="44.01094" lon="-1.07311">
        <ele>62.8</ele>
      </trkpt>
      <trkpt lat="44.0112" lon="-1.07344">
        <ele>61.3</ele>
      </trkpt>
      <trkpt lat="44.01136" lon="-1.07368">
        <ele>60.8</ele>
      </trkpt>
      <trkpt lat="44.01152" lon="-1.07392">
        <ele>60.6</ele>
      </trkpt>
      <trkpt lat="44.01172" lon="-1.07397">
        <ele>57</ele>
      </trkpt>
      <trkpt lat="44.0119" lon="-1.07386">
        <ele>54</ele>
      </trkpt>
      <trkpt lat="44.01208" lon="-1.07341">
        <ele>53.3</ele>
      </trkpt>
      <trkpt lat="44.01236" lon="-1.07258">
        <ele>60.4</ele>
      </trkpt>
      <trkpt lat="44.01262" lon="-1.07178">
        <ele>68.4</ele>
      </trkpt>
      <trkpt lat="44.01288" lon="-1.07102">
        <ele>73.5</ele>
      </trkpt>
      <trkpt lat="44.013" lon="-1.07064">
        <ele>72.4</ele>
      </trkpt>
      <trkpt lat="44.0131" lon="-1.07034">
        <ele>74.6</ele>
      </trkpt>
      <trkpt lat="44.01336" lon="-1.07021">
        <ele>72.8</ele>
      </trkpt>
      <trkpt lat="44.01365" lon="-1.07031">
        <ele>73.4</ele>
      </trkpt>
      <trkpt lat="44.01397" lon="-1.07038">
        <ele>73</ele>
      </trkpt>
      <trkpt lat="44.01429" lon="-1.07045">
        <ele>73.3</ele>
      </trkpt>
      <trkpt lat="44.01495" lon="-1.07062">
        <ele>73.2</ele>
      </trkpt>
      <trkpt lat="44.01594" lon="-1.07088">
        <ele>72.7</ele>
      </trkpt>
      <trkpt lat="44.01627" lon="-1.07096">
        <ele>72.2</ele>
      </trkpt>
      <trkpt lat="44.01654" lon="-1.07104">
        <ele>71.6</ele>
      </trkpt>
      <trkpt lat="44.0168" lon="-1.07112">
        <ele>71.5</ele>
      </trkpt>
      <trkpt lat="44.01707" lon="-1.0712">
        <ele>72</ele>
      </trkpt>
      <trkpt lat="44.01768" lon="-1.07136">
        <ele>71.4</ele>
      </trkpt>
      <trkpt lat="44.01798" lon="-1.07144">
        <ele>71.8</ele>
      </trkpt>
      <trkpt lat="44.01876" lon="-1.07152">
        <ele>70.8</ele>
      </trkpt>
      <trkpt lat="44.01993" lon="-1.07166">
        <ele>70.8</ele>
      </trkpt>
      <trkpt lat="44.02071" lon="-1.07175">
        <ele>70.4</ele>
      </trkpt>
      <trkpt lat="44.02101" lon="-1.07178">
        <ele>69.7</ele>
      </trkpt>
      <trkpt lat="44.02161" lon="-1.07186">
        <ele>69.3</ele>
      </trkpt>
      <trkpt lat="44.02192" lon="-1.0719">
        <ele>69.2</ele>
      </trkpt>
      <trkpt lat="44.0229" lon="-1.07202">
        <ele>68.2</ele>
      </trkpt>
      <trkpt lat="44.02356" lon="-1.0721">
        <ele>68.4</ele>
      </trkpt>
      <trkpt lat="44.02466" lon="-1.07219">
        <ele>67.1</ele>
      </trkpt>
      <trkpt lat="44.02454" lon="-1.07178">
        <ele>68</ele>
      </trkpt>
      <trkpt lat="44.02431" lon="-1.07097">
        <ele>68.5</ele>
      </trkpt>
      <trkpt lat="44.0242" lon="-1.07062">
        <ele>69</ele>
      </trkpt>
      <trkpt lat="44.0241" lon="-1.07028">
        <ele>69</ele>
      </trkpt>
      <trkpt lat="44.02387" lon="-1.06936">
        <ele>69.3</ele>
      </trkpt>
      <trkpt lat="44.0238" lon="-1.06892">
        <ele>69.7</ele>
      </trkpt>
      <trkpt lat="44.02381" lon="-1.06862">
        <ele>69</ele>
      </trkpt>
      <trkpt lat="44.02383" lon="-1.06832">
        <ele>69.2</ele>
      </trkpt>
      <trkpt lat="44.02387" lon="-1.06789">
        <ele>69</ele>
      </trkpt>
      <trkpt lat="44.02386" lon="-1.06727">
        <ele>69.7</ele>
      </trkpt>
      <trkpt lat="44.0238" lon="-1.06677">
        <ele>70</ele>
      </trkpt>
      <trkpt lat="44.02368" lon="-1.06639">
        <ele>70</ele>
      </trkpt>
      <trkpt lat="44.02374" lon="-1.06602">
        <ele>70</ele>
      </trkpt>
      <trkpt lat="44.02375" lon="-1.06565">
        <ele>70</ele>
      </trkpt>
      <trkpt lat="44.0238" lon="-1.06534">
        <ele>70</ele>
      </trkpt>
      <trkpt lat="44.02386" lon="-1.06502">
        <ele>70</ele>
      </trkpt>
      <trkpt lat="44.02389" lon="-1.06438">
        <ele>70</ele>
      </trkpt>
      <trkpt lat="44.0239" lon="-1.06399">
        <ele>70</ele>
      </trkpt>
      <trkpt lat="44.0239" lon="-1.0636">
        <ele>70</ele>
      </trkpt>
      <trkpt lat="44.02399" lon="-1.06317">
        <ele>70</ele>
      </trkpt>
      <trkpt lat="44.0241" lon="-1.06292">
        <ele>70</ele>
      </trkpt>
      <trkpt lat="44.0242" lon="-1.06267">
        <ele>70</ele>
      </trkpt>
      <trkpt lat="44.02436" lon="-1.06236">
        <ele>70</ele>
      </trkpt>
      <trkpt lat="44.02452" lon="-1.06205">
        <ele>70</ele>
      </trkpt>
      <trkpt lat="44.02471" lon="-1.06164">
        <ele>70</ele>
      </trkpt>
      <trkpt lat="44.02473" lon="-1.0613">
        <ele>70</ele>
      </trkpt>
      <trkpt lat="44.02471" lon="-1.061">
        <ele>70</ele>
      </trkpt>
      <trkpt lat="44.02469" lon="-1.06069">
        <ele>70</ele>
      </trkpt>
      <trkpt lat="44.02467" lon="-1.06036">
        <ele>70</ele>
      </trkpt>
      <trkpt lat="44.02464" lon="-1.06003">
        <ele>70.3</ele>
      </trkpt>
      <trkpt lat="44.02469" lon="-1.05969">
        <ele>70.1</ele>
      </trkpt>
      <trkpt lat="44.02475" lon="-1.05936">
        <ele>70.6</ele>
      </trkpt>
      <trkpt lat="44.02473" lon="-1.05888">
        <ele>70</ele>
      </trkpt>
      <trkpt lat="44.02476" lon="-1.05855">
        <ele>70.2</ele>
      </trkpt>
      <trkpt lat="44.02479" lon="-1.05822">
        <ele>70.5</ele>
      </trkpt>
      <trkpt lat="44.02509" lon="-1.05834">
        <ele>70</ele>
      </trkpt>
      <trkpt lat="44.02571" lon="-1.05857">
        <ele>69.5</ele>
      </trkpt>
      <trkpt lat="44.02598" lon="-1.05867">
        <ele>69</ele>
      </trkpt>
      <trkpt lat="44.02624" lon="-1.05878">
        <ele>69</ele>
      </trkpt>
      <trkpt lat="44.02651" lon="-1.05888">
        <ele>69</ele>
      </trkpt>
      <trkpt lat="44.0268" lon="-1.05892">
        <ele>68.5</ele>
      </trkpt>
      <trkpt lat="44.0271" lon="-1.05896">
        <ele>68.4</ele>
      </trkpt>
      <trkpt lat="44.0272" lon="-1.05901">
        <ele>68.5</ele>
      </trkpt>
      <trkpt lat="44.02741" lon="-1.0591">
        <ele>68.6</ele>
      </trkpt>
      <trkpt lat="44.02761" lon="-1.05924">
        <ele>68.4</ele>
      </trkpt>
      <trkpt lat="44.02771" lon="-1.05932">
        <ele>68.1</ele>
      </trkpt>
      <trkpt lat="44.02782" lon="-1.05941">
        <ele>68</ele>
      </trkpt>
      <trkpt lat="44.02792" lon="-1.05949">
        <ele>67.9</ele>
      </trkpt>
      <trkpt lat="44.02802" lon="-1.05957">
        <ele>67.6</ele>
      </trkpt>
      <trkpt lat="44.02813" lon="-1.05964">
        <ele>67.5</ele>
      </trkpt>
      <trkpt lat="44.02836" lon="-1.05978">
        <ele>67.8</ele>
      </trkpt>
      <trkpt lat="44.02859" lon="-1.05992">
        <ele>67.3</ele>
      </trkpt>
      <trkpt lat="44.02871" lon="-1.05999">
        <ele>67</ele>
      </trkpt>
      <trkpt lat="44.0288" lon="-1.06006">
        <ele>67</ele>
      </trkpt>
      <trkpt lat="44.0289" lon="-1.06014">
        <ele>67</ele>
      </trkpt>
      <trkpt lat="44.029" lon="-1.06021">
        <ele>67</ele>
      </trkpt>
      <trkpt lat="44.0292" lon="-1.06047">
        <ele>67</ele>
      </trkpt>
      <trkpt lat="44.0293" lon="-1.0606">
        <ele>66.9</ele>
      </trkpt>
      <trkpt lat="44.02939" lon="-1.06073">
        <ele>66.5</ele>
      </trkpt>
      <trkpt lat="44.02948" lon="-1.06086">
        <ele>66.1</ele>
      </trkpt>
      <trkpt lat="44.02965" lon="-1.06112">
        <ele>66.2</ele>
      </trkpt>
      <trkpt lat="44.03008" lon="-1.06145">
        <ele>65.9</ele>
      </trkpt>
      <trkpt lat="44.0302" lon="-1.06152">
        <ele>65.7</ele>
      </trkpt>
      <trkpt lat="44.03046" lon="-1.06166">
        <ele>65</ele>
      </trkpt>
      <trkpt lat="44.03059" lon="-1.06173">
        <ele>65</ele>
      </trkpt>
      <trkpt lat="44.03069" lon="-1.0618">
        <ele>65</ele>
      </trkpt>
      <trkpt lat="44.03091" lon="-1.06195">
        <ele>65</ele>
      </trkpt>
      <trkpt lat="44.03101" lon="-1.06202">
        <ele>65</ele>
      </trkpt>
      <trkpt lat="44.03113" lon="-1.06208">
        <ele>65</ele>
      </trkpt>
      <trkpt lat="44.03136" lon="-1.06221">
        <ele>65</ele>
      </trkpt>
      <trkpt lat="44.03157" lon="-1.06228">
        <ele>64.3</ele>
      </trkpt>
      <trkpt lat="44.03215" lon="-1.06251">
        <ele>63</ele>
      </trkpt>
      <trkpt lat="44.03265" lon="-1.0627">
        <ele>63</ele>
      </trkpt>
      <trkpt lat="44.03277" lon="-1.06274">
        <ele>63</ele>
      </trkpt>
      <trkpt lat="44.03311" lon="-1.0629">
        <ele>62</ele>
      </trkpt>
      <trkpt lat="44.03322" lon="-1.06296">
        <ele>62</ele>
      </trkpt>
      <trkpt lat="44.03345" lon="-1.06306">
        <ele>62</ele>
      </trkpt>
      <trkpt lat="44.03382" lon="-1.06308">
        <ele>62</ele>
      </trkpt>
      <trkpt lat="44.03393" lon="-1.0631">
        <ele>62</ele>
      </trkpt>
      <trkpt lat="44.03404" lon="-1.06312">
        <ele>62</ele>
      </trkpt>
      <trkpt lat="44.03427" lon="-1.06317">
        <ele>61.6</ele>
      </trkpt>
      <trkpt lat="44.03439" lon="-1.06322">
        <ele>61.2</ele>
      </trkpt>
      <trkpt lat="44.03463" lon="-1.06331">
        <ele>61</ele>
      </trkpt>
      <trkpt lat="44.03488" lon="-1.06341">
        <ele>61.4</ele>
      </trkpt>
      <trkpt lat="44.035" lon="-1.06346">
        <ele>61.5</ele>
      </trkpt>
      <trkpt lat="44.0354" lon="-1.06348">
        <ele>61.5</ele>
      </trkpt>
      <trkpt lat="44.03589" lon="-1.06368">
        <ele>60.9</ele>
      </trkpt>
      <trkpt lat="44.03615" lon="-1.06371">
        <ele>60.3</ele>
      </trkpt>
      <trkpt lat="44.03628" lon="-1.06372">
        <ele>60.2</ele>
      </trkpt>
      <trkpt lat="44.03638" lon="-1.06371">
        <ele>60</ele>
      </trkpt>
      <trkpt lat="44.0366" lon="-1.0637">
        <ele>60</ele>
      </trkpt>
      <trkpt lat="44.03671" lon="-1.06369">
        <ele>60</ele>
      </trkpt>
      <trkpt lat="44.03684" lon="-1.06371">
        <ele>60</ele>
      </trkpt>
      <trkpt lat="44.03735" lon="-1.06381">
        <ele>60</ele>
      </trkpt>
      <trkpt lat="44.03761" lon="-1.06386">
        <ele>60.4</ele>
      </trkpt>
      <trkpt lat="44.03774" lon="-1.0639">
        <ele>60.8</ele>
      </trkpt>
      <trkpt lat="44.038" lon="-1.06397">
        <ele>60.1</ele>
      </trkpt>
      <trkpt lat="44.03827" lon="-1.06403">
        <ele>59.6</ele>
      </trkpt>
      <trkpt lat="44.0384" lon="-1.06407">
        <ele>59.5</ele>
      </trkpt>
      <trkpt lat="44.03858" lon="-1.06407">
        <ele>59.9</ele>
      </trkpt>
      <trkpt lat="44.03868" lon="-1.06407">
        <ele>59.8</ele>
      </trkpt>
      <trkpt lat="44.03895" lon="-1.06406">
        <ele>59.3</ele>
      </trkpt>
      <trkpt lat="44.03923" lon="-1.06404">
        <ele>59</ele>
      </trkpt>
      <trkpt lat="44.03959" lon="-1.06408">
        <ele>59</ele>
      </trkpt>
      <trkpt lat="44.03983" lon="-1.06411">
        <ele>59</ele>
      </trkpt>
      <trkpt lat="44.03996" lon="-1.06413">
        <ele>59</ele>
      </trkpt>
      <trkpt lat="44.0402" lon="-1.06417">
        <ele>58.3</ele>
      </trkpt>
      <trkpt lat="44.04033" lon="-1.06419">
        <ele>57.8</ele>
      </trkpt>
      <trkpt lat="44.04085" lon="-1.06439">
        <ele>57</ele>
      </trkpt>
      <trkpt lat="44.04092" lon="-1.06448">
        <ele>57</ele>
      </trkpt>
      <trkpt lat="44.04106" lon="-1.06467">
        <ele>57</ele>
      </trkpt>
      <trkpt lat="44.04116" lon="-1.06479">
        <ele>57</ele>
      </trkpt>
      <trkpt lat="44.04158" lon="-1.06526">
        <ele>56.3</ele>
      </trkpt>
      <trkpt lat="44.04179" lon="-1.0655">
        <ele>56.5</ele>
      </trkpt>
      <trkpt lat="44.04202" lon="-1.06562">
        <ele>56.4</ele>
      </trkpt>
      <trkpt lat="44.04235" lon="-1.06574">
        <ele>56.8</ele>
      </trkpt>
      <trkpt lat="44.04245" lon="-1.06579">
        <ele>56.9</ele>
      </trkpt>
      <trkpt lat="44.04264" lon="-1.0659">
        <ele>56.6</ele>
      </trkpt>
      <trkpt lat="44.04285" lon="-1.06604">
        <ele>56.5</ele>
      </trkpt>
      <trkpt lat="44.04296" lon="-1.06611">
        <ele>56.3</ele>
      </trkpt>
      <trkpt lat="44.04306" lon="-1.06619">
        <ele>56</ele>
      </trkpt>
      <trkpt lat="44.04337" lon="-1.06641">
        <ele>56</ele>
      </trkpt>
      <trkpt lat="44.04356" lon="-1.06654">
        <ele>56</ele>
      </trkpt>
      <trkpt lat="44.04366" lon="-1.0666">
        <ele>56</ele>
      </trkpt>
      <trkpt lat="44.04401" lon="-1.06685">
        <ele>55.6</ele>
      </trkpt>
      <trkpt lat="44.04413" lon="-1.06693">
        <ele>55.1</ele>
      </trkpt>
      <trkpt lat="44.04424" lon="-1.06701">
        <ele>55</ele>
      </trkpt>
      <trkpt lat="44.04436" lon="-1.06709">
        <ele>55</ele>
      </trkpt>
      <trkpt lat="44.04458" lon="-1.06726">
        <ele>55</ele>
      </trkpt>
      <trkpt lat="44.0447" lon="-1.06734">
        <ele>55</ele>
      </trkpt>
      <trkpt lat="44.04489" lon="-1.06758">
        <ele>54.4</ele>
      </trkpt>
      <trkpt lat="44.04498" lon="-1.06769">
        <ele>54.1</ele>
      </trkpt>
      <trkpt lat="44.04507" lon="-1.0678">
        <ele>54</ele>
      </trkpt>
      <trkpt lat="44.04525" lon="-1.06801">
        <ele>54</ele>
      </trkpt>
      <trkpt lat="44.04537" lon="-1.06808">
        <ele>54</ele>
      </trkpt>
      <trkpt lat="44.04564" lon="-1.06833">
        <ele>54</ele>
      </trkpt>
      <trkpt lat="44.04572" lon="-1.06842">
        <ele>54</ele>
      </trkpt>
      <trkpt lat="44.04588" lon="-1.06858">
        <ele>54</ele>
      </trkpt>
      <trkpt lat="44.04625" lon="-1.06872">
        <ele>54</ele>
      </trkpt>
      <trkpt lat="44.04636" lon="-1.06879">
        <ele>54</ele>
      </trkpt>
      <trkpt lat="44.04695" lon="-1.06912">
        <ele>54</ele>
      </trkpt>
      <trkpt lat="44.04732" lon="-1.06936">
        <ele>54</ele>
      </trkpt>
      <trkpt lat="44.04757" lon="-1.06951">
        <ele>54</ele>
      </trkpt>
      <trkpt lat="44.04767" lon="-1.06957">
        <ele>54</ele>
      </trkpt>
      <trkpt lat="44.04787" lon="-1.06967">
        <ele>53.7</ele>
      </trkpt>
      <trkpt lat="44.04813" lon="-1.06976">
        <ele>53</ele>
      </trkpt>
      <trkpt lat="44.04826" lon="-1.0698">
        <ele>53</ele>
      </trkpt>
      <trkpt lat="44.04839" lon="-1.06984">
        <ele>53</ele>
      </trkpt>
      <trkpt lat="44.04865" lon="-1.06993">
        <ele>53</ele>
      </trkpt>
      <trkpt lat="44.04885" lon="-1.07006">
        <ele>52.8</ele>
      </trkpt>
      <trkpt lat="44.04895" lon="-1.07012">
        <ele>52.4</ele>
      </trkpt>
      <trkpt lat="44.04904" lon="-1.07019">
        <ele>52.1</ele>
      </trkpt>
      <trkpt lat="44.04929" lon="-1.07033">
        <ele>52</ele>
      </trkpt>
      <trkpt lat="44.04954" lon="-1.07048">
        <ele>51.5</ele>
      </trkpt>
      <trkpt lat="44.04967" lon="-1.07055">
        <ele>51.2</ele>
      </trkpt>
      <trkpt lat="44.04979" lon="-1.07063">
        <ele>50.9</ele>
      </trkpt>
      <trkpt lat="44.04988" lon="-1.07072">
        <ele>51.1</ele>
      </trkpt>
      <trkpt lat="44.05006" lon="-1.0709">
        <ele>52</ele>
      </trkpt>
      <trkpt lat="44.05015" lon="-1.071">
        <ele>52</ele>
      </trkpt>
      <trkpt lat="44.05041" lon="-1.07138">
        <ele>52</ele>
      </trkpt>
      <trkpt lat="44.05047" lon="-1.07151">
        <ele>51.7</ele>
      </trkpt>
      <trkpt lat="44.05053" lon="-1.07163">
        <ele>51.2</ele>
      </trkpt>
      <trkpt lat="44.05059" lon="-1.07175">
        <ele>51.3</ele>
      </trkpt>
      <trkpt lat="44.05065" lon="-1.07188">
        <ele>51.5</ele>
      </trkpt>
      <trkpt lat="44.05078" lon="-1.07188">
        <ele>51.1</ele>
      </trkpt>
      <trkpt lat="44.05091" lon="-1.07188">
        <ele>51</ele>
      </trkpt>
      <trkpt lat="44.05116" lon="-1.07189">
        <ele>51</ele>
      </trkpt>
      <trkpt lat="44.05129" lon="-1.07189">
        <ele>51.1</ele>
      </trkpt>
      <trkpt lat="44.05142" lon="-1.07189">
        <ele>51.2</ele>
      </trkpt>
      <trkpt lat="44.05154" lon="-1.07189">
        <ele>51.3</ele>
      </trkpt>
      <trkpt lat="44.05167" lon="-1.07189">
        <ele>51.4</ele>
      </trkpt>
      <trkpt lat="44.0518" lon="-1.0719">
        <ele>51.7</ele>
      </trkpt>
      <trkpt lat="44.05192" lon="-1.07191">
        <ele>52.1</ele>
      </trkpt>
      <trkpt lat="44.0523" lon="-1.07193">
        <ele>51</ele>
      </trkpt>
      <trkpt lat="44.05237" lon="-1.07197">
        <ele>50.1</ele>
      </trkpt>
      <trkpt lat="44.05281" lon="-1.07221">
        <ele>45.1</ele>
      </trkpt>
      <trkpt lat="44.05288" lon="-1.07226">
        <ele>44.4</ele>
      </trkpt>
      <trkpt lat="44.05304" lon="-1.07235">
        <ele>43.2</ele>
      </trkpt>
      <trkpt lat="44.05311" lon="-1.07239">
        <ele>42.4</ele>
      </trkpt>
      <trkpt lat="44.05319" lon="-1.07244">
        <ele>41.8</ele>
      </trkpt>
      <trkpt lat="44.05327" lon="-1.07244">
        <ele>41.3</ele>
      </trkpt>
      <trkpt lat="44.05343" lon="-1.07244">
        <ele>40.1</ele>
      </trkpt>
      <trkpt lat="44.05352" lon="-1.07244">
        <ele>39.4</ele>
      </trkpt>
      <trkpt lat="44.05359" lon="-1.07242">
        <ele>38.7</ele>
      </trkpt>
      <trkpt lat="44.0538" lon="-1.07237">
        <ele>37.4</ele>
      </trkpt>
      <trkpt lat="44.05388" lon="-1.07236">
        <ele>37</ele>
      </trkpt>
      <trkpt lat="44.05394" lon="-1.07232">
        <ele>36.7</ele>
      </trkpt>
      <trkpt lat="44.05408" lon="-1.07224">
        <ele>36.7</ele>
      </trkpt>
      <trkpt lat="44.05422" lon="-1.07215">
        <ele>36.3</ele>
      </trkpt>
      <trkpt lat="44.05429" lon="-1.07211">
        <ele>36</ele>
      </trkpt>
      <trkpt lat="44.05443" lon="-1.07204">
        <ele>36.3</ele>
      </trkpt>
      <trkpt lat="44.0548" lon="-1.07186">
        <ele>39.8</ele>
      </trkpt>
      <trkpt lat="44.05488" lon="-1.07182">
        <ele>40.3</ele>
      </trkpt>
      <trkpt lat="44.05512" lon="-1.07176">
        <ele>42</ele>
      </trkpt>
      <trkpt lat="44.05528" lon="-1.07171">
        <ele>43.2</ele>
      </trkpt>
      <trkpt lat="44.05536" lon="-1.07169">
        <ele>43.4</ele>
      </trkpt>
      <trkpt lat="44.05585" lon="-1.07157">
        <ele>45.3</ele>
      </trkpt>
      <trkpt lat="44.05592" lon="-1.07155">
        <ele>45.3</ele>
      </trkpt>
      <trkpt lat="44.05627" lon="-1.07145">
        <ele>44.4</ele>
      </trkpt>
      <trkpt lat="44.05648" lon="-1.07139">
        <ele>44.3</ele>
      </trkpt>
      <trkpt lat="44.05729" lon="-1.07116">
        <ele>46.1</ele>
      </trkpt>
      <trkpt lat="44.05749" lon="-1.0711">
        <ele>47</ele>
      </trkpt>
      <trkpt lat="44.0576" lon="-1.07107">
        <ele>47</ele>
      </trkpt>
      <trkpt lat="44.0577" lon="-1.07104">
        <ele>46.8</ele>
      </trkpt>
      <trkpt lat="44.05844" lon="-1.07081">
        <ele>45.7</ele>
      </trkpt>
      <trkpt lat="44.05902" lon="-1.07062">
        <ele>43.6</ele>
      </trkpt>
      <trkpt lat="44.05922" lon="-1.07055">
        <ele>41.6</ele>
      </trkpt>
      <trkpt lat="44.06013" lon="-1.07013">
        <ele>34.5</ele>
      </trkpt>
      <trkpt lat="44.06022" lon="-1.07008">
        <ele>33.9</ele>
      </trkpt>
      <trkpt lat="44.06042" lon="-1.06999">
        <ele>35</ele>
      </trkpt>
      <trkpt lat="44.0608" lon="-1.06981">
        <ele>35.9</ele>
      </trkpt>
      <trkpt lat="44.06119" lon="-1.06962">
        <ele>38.4</ele>
      </trkpt>
      <trkpt lat="44.06138" lon="-1.06953">
        <ele>39.7</ele>
      </trkpt>
      <trkpt lat="44.06121" lon="-1.06887">
        <ele>39.7</ele>
      </trkpt>
      <trkpt lat="44.06109" lon="-1.06837">
        <ele>38.7</ele>
      </trkpt>
      <trkpt lat="44.06103" lon="-1.06752">
        <ele>35.7</ele>
      </trkpt>
      <trkpt lat="44.06099" lon="-1.06647">
        <ele>34.1</ele>
      </trkpt>
      <trkpt lat="44.06097" lon="-1.06593">
        <ele>34.3</ele>
      </trkpt>
      <trkpt lat="44.06095" lon="-1.06531">
        <ele>36</ele>
      </trkpt>
      <trkpt lat="44.0608" lon="-1.06447">
        <ele>37</ele>
      </trkpt>
      <trkpt lat="44.0627" lon="-1.06211">
        <ele>47.6</ele>
      </trkpt>
      <trkpt lat="44.06287" lon="-1.06187">
        <ele>47.1</ele>
      </trkpt>
      <trkpt lat="44.06287" lon="-1.06158">
        <ele>47.6</ele>
      </trkpt>
      <trkpt lat="44.06282" lon="-1.06127">
        <ele>48.1</ele>
      </trkpt>
      <trkpt lat="44.06281" lon="-1.06059">
        <ele>47.4</ele>
      </trkpt>
      <trkpt lat="44.06281" lon="-1.06007">
        <ele>48</ele>
      </trkpt>
      <trkpt lat="44.06287" lon="-1.05954">
        <ele>49.2</ele>
      </trkpt>
      <trkpt lat="44.063" lon="-1.05919">
        <ele>49.2</ele>
      </trkpt>
      <trkpt lat="44.06327" lon="-1.05867">
        <ele>50</ele>
      </trkpt>
      <trkpt lat="44.06386" lon="-1.05747">
        <ele>51</ele>
      </trkpt>
      <trkpt lat="44.0643" lon="-1.05657">
        <ele>51</ele>
      </trkpt>
      <trkpt lat="44.06446" lon="-1.05593">
        <ele>51</ele>
      </trkpt>
      <trkpt lat="44.06473" lon="-1.05479">
        <ele>52</ele>
      </trkpt>
      <trkpt lat="44.06521" lon="-1.05292">
        <ele>53</ele>
      </trkpt>
      <trkpt lat="44.06573" lon="-1.0532">
        <ele>53</ele>
      </trkpt>
      <trkpt lat="44.06595" lon="-1.05344">
        <ele>52.8</ele>
      </trkpt>
      <trkpt lat="44.06627" lon="-1.05363">
        <ele>52.4</ele>
      </trkpt>
      <trkpt lat="44.06658" lon="-1.05357">
        <ele>52.7</ele>
      </trkpt>
      <trkpt lat="44.06682" lon="-1.0536">
        <ele>53</ele>
      </trkpt>
      <trkpt lat="44.06723" lon="-1.05338">
        <ele>53</ele>
      </trkpt>
      <trkpt lat="44.06773" lon="-1.05318">
        <ele>54.5</ele>
      </trkpt>
      <trkpt lat="44.06867" lon="-1.05297">
        <ele>54</ele>
      </trkpt>
      <trkpt lat="44.06909" lon="-1.05249">
        <ele>54</ele>
      </trkpt>
      <trkpt lat="44.07003" lon="-1.05137">
        <ele>55</ele>
      </trkpt>
      <trkpt lat="44.07057" lon="-1.05012">
        <ele>56</ele>
      </trkpt>
      <trkpt lat="44.07128" lon="-1.0486">
        <ele>57</ele>
      </trkpt>
      <trkpt lat="44.07173" lon="-1.04827">
        <ele>57</ele>
      </trkpt>
      <trkpt lat="44.07185" lon="-1.04818">
        <ele>56.6</ele>
      </trkpt>
      <trkpt lat="44.07199" lon="-1.04796">
        <ele>56.3</ele>
      </trkpt>
      <trkpt lat="44.07215" lon="-1.04755">
        <ele>56.3</ele>
      </trkpt>
      <trkpt lat="44.07248" lon="-1.04699">
        <ele>56.1</ele>
      </trkpt>
      <trkpt lat="44.07278" lon="-1.04594">
        <ele>57</ele>
      </trkpt>
      <trkpt lat="44.07299" lon="-1.04543">
        <ele>56.2</ele>
      </trkpt>
      <trkpt lat="44.07324" lon="-1.04512">
        <ele>56.9</ele>
      </trkpt>
      <trkpt lat="44.07352" lon="-1.04482">
        <ele>57</ele>
      </trkpt>
      <trkpt lat="44.07384" lon="-1.04441">
        <ele>57.2</ele>
      </trkpt>
      <trkpt lat="44.07405" lon="-1.04395">
        <ele>57.6</ele>
      </trkpt>
      <trkpt lat="44.0743" lon="-1.04341">
        <ele>57.9</ele>
      </trkpt>
      <trkpt lat="44.07468" lon="-1.04272">
        <ele>58.9</ele>
      </trkpt>
      <trkpt lat="44.07503" lon="-1.04223">
        <ele>60</ele>
      </trkpt>
      <trkpt lat="44.07532" lon="-1.0419">
        <ele>60</ele>
      </trkpt>
      <trkpt lat="44.07554" lon="-1.041">
        <ele>59.9</ele>
      </trkpt>
      <trkpt lat="44.0758" lon="-1.0404">
        <ele>59</ele>
      </trkpt>
      <trkpt lat="44.07605" lon="-1.03991">
        <ele>59.4</ele>
      </trkpt>
      <trkpt lat="44.07628" lon="-1.03939">
        <ele>60</ele>
      </trkpt>
      <trkpt lat="44.07636" lon="-1.03898">
        <ele>60</ele>
      </trkpt>
      <trkpt lat="44.07651" lon="-1.03823">
        <ele>60.8</ele>
      </trkpt>
      <trkpt lat="44.07678" lon="-1.03748">
        <ele>60.5</ele>
      </trkpt>
      <trkpt lat="44.07698" lon="-1.03691">
        <ele>62</ele>
      </trkpt>
      <trkpt lat="44.07719" lon="-1.03676">
        <ele>62</ele>
      </trkpt>
      <trkpt lat="44.07732" lon="-1.03637">
        <ele>62</ele>
      </trkpt>
      <trkpt lat="44.07743" lon="-1.03588">
        <ele>62</ele>
      </trkpt>
      <trkpt lat="44.0775" lon="-1.03556">
        <ele>63</ele>
      </trkpt>
      <trkpt lat="44.07771" lon="-1.03503">
        <ele>63</ele>
      </trkpt>
      <trkpt lat="44.07798" lon="-1.03447">
        <ele>63</ele>
      </trkpt>
      <trkpt lat="44.07821" lon="-1.03409">
        <ele>63.1</ele>
      </trkpt>
      <trkpt lat="44.07853" lon="-1.03387">
        <ele>63.3</ele>
      </trkpt>
      <trkpt lat="44.07869" lon="-1.03358">
        <ele>63.7</ele>
      </trkpt>
      <trkpt lat="44.07894" lon="-1.0331">
        <ele>64</ele>
      </trkpt>
      <trkpt lat="44.07923" lon="-1.03265">
        <ele>64</ele>
      </trkpt>
      <trkpt lat="44.08008" lon="-1.03135">
        <ele>65</ele>
      </trkpt>
      <trkpt lat="44.08078" lon="-1.03016">
        <ele>65</ele>
      </trkpt>
      <trkpt lat="44.08112" lon="-1.02968">
        <ele>65.2</ele>
      </trkpt>
      <trkpt lat="44.08145" lon="-1.0292">
        <ele>65</ele>
      </trkpt>
      <trkpt lat="44.08161" lon="-1.02876">
        <ele>65.7</ele>
      </trkpt>
      <trkpt lat="44.08171" lon="-1.02852">
        <ele>66</ele>
      </trkpt>
      <trkpt lat="44.08197" lon="-1.02808">
        <ele>66</ele>
      </trkpt>
      <trkpt lat="44.08221" lon="-1.02753">
        <ele>66</ele>
      </trkpt>
      <trkpt lat="44.08229" lon="-1.02704">
        <ele>66.7</ele>
      </trkpt>
      <trkpt lat="44.08238" lon="-1.02633">
        <ele>67</ele>
      </trkpt>
      <trkpt lat="44.08255" lon="-1.02584">
        <ele>67</ele>
      </trkpt>
      <trkpt lat="44.08285" lon="-1.02535">
        <ele>67</ele>
      </trkpt>
      <trkpt lat="44.08304" lon="-1.02482">
        <ele>67.1</ele>
      </trkpt>
      <trkpt lat="44.08336" lon="-1.02415">
        <ele>68</ele>
      </trkpt>
      <trkpt lat="44.08357" lon="-1.02361">
        <ele>68</ele>
      </trkpt>
      <trkpt lat="44.08362" lon="-1.02287">
        <ele>68.7</ele>
      </trkpt>
      <trkpt lat="44.08374" lon="-1.02234">
        <ele>69.5</ele>
      </trkpt>
      <trkpt lat="44.08391" lon="-1.02175">
        <ele>69.1</ele>
      </trkpt>
      <trkpt lat="44.08412" lon="-1.0212">
        <ele>69</ele>
      </trkpt>
      <trkpt lat="44.08424" lon="-1.02069">
        <ele>70</ele>
      </trkpt>
      <trkpt lat="44.08443" lon="-1.01992">
        <ele>69.3</ele>
      </trkpt>
      <trkpt lat="44.08503" lon="-1.02053">
        <ele>69</ele>
      </trkpt>
      <trkpt lat="44.08549" lon="-1.02089">
        <ele>69.1</ele>
      </trkpt>
      <trkpt lat="44.08639" lon="-1.02193">
        <ele>60.1</ele>
      </trkpt>
      <trkpt lat="44.08659" lon="-1.02224">
        <ele>55.7</ele>
      </trkpt>
      <trkpt lat="44.08678" lon="-1.02243">
        <ele>52.9</ele>
      </trkpt>
      <trkpt lat="44.08692" lon="-1.02267">
        <ele>52</ele>
      </trkpt>
      <trkpt lat="44.08681" lon="-1.02297">
        <ele>51.5</ele>
      </trkpt>
      <trkpt lat="44.08677" lon="-1.02355">
        <ele>54.3</ele>
      </trkpt>
      <trkpt lat="44.08681" lon="-1.02388">
        <ele>57.5</ele>
      </trkpt>
      <trkpt lat="44.08717" lon="-1.02421">
        <ele>64.6</ele>
      </trkpt>
      <trkpt lat="44.08739" lon="-1.02427">
        <ele>66.9</ele>
      </trkpt>
      <trkpt lat="44.08764" lon="-1.02426">
        <ele>68.9</ele>
      </trkpt>
      <trkpt lat="44.08803" lon="-1.0248">
        <ele>68.7</ele>
      </trkpt>
      <trkpt lat="44.08876" lon="-1.02466">
        <ele>69</ele>
      </trkpt>
      <trkpt lat="44.08967" lon="-1.0248">
        <ele>69</ele>
      </trkpt>
      <trkpt lat="44.09045" lon="-1.02519">
        <ele>69</ele>
      </trkpt>
      <trkpt lat="44.09115" lon="-1.02559">
        <ele>69</ele>
      </trkpt>
      <trkpt lat="44.09156" lon="-1.02571">
        <ele>69</ele>
      </trkpt>
      <trkpt lat="44.0922" lon="-1.02585">
        <ele>69</ele>
      </trkpt>
      <trkpt lat="44.09295" lon="-1.02615">
        <ele>69</ele>
      </trkpt>
      <trkpt lat="44.09314" lon="-1.02616">
        <ele>69</ele>
      </trkpt>
      <trkpt lat="44.09353" lon="-1.02598">
        <ele>69</ele>
      </trkpt>
      <trkpt lat="44.09406" lon="-1.0258">
        <ele>69.7</ele>
      </trkpt>
      <trkpt lat="44.09457" lon="-1.02579">
        <ele>70</ele>
      </trkpt>
      <trkpt lat="44.09503" lon="-1.02571">
        <ele>70.4</ele>
      </trkpt>
      <trkpt lat="44.09548" lon="-1.02572">
        <ele>70.8</ele>
      </trkpt>
      <trkpt lat="44.09583" lon="-1.02595">
        <ele>71</ele>
      </trkpt>
      <trkpt lat="44.09583" lon="-1.02636">
        <ele>71</ele>
      </trkpt>
      <trkpt lat="44.09602" lon="-1.02703">
        <ele>70.7</ele>
      </trkpt>
      <trkpt lat="44.09604" lon="-1.02768">
        <ele>70</ele>
      </trkpt>
      <trkpt lat="44.09697" lon="-1.02649">
        <ele>71</ele>
      </trkpt>
      <trkpt lat="44.0984" lon="-1.02469">
        <ele>73</ele>
      </trkpt>
      <trkpt lat="44.09998" lon="-1.02278">
        <ele>74</ele>
      </trkpt>
      <trkpt lat="44.10187" lon="-1.02039">
        <ele>75</ele>
      </trkpt>
      <trkpt lat="44.10322" lon="-1.01872">
        <ele>75.8</ele>
      </trkpt>
      <trkpt lat="44.107" lon="-1.014">
        <ele>76.1</ele>
      </trkpt>
      <trkpt lat="44.10893" lon="-1.01157">
        <ele>76.7</ele>
      </trkpt>
      <trkpt lat="44.11079" lon="-1.0091">
        <ele>77</ele>
      </trkpt>
      <trkpt lat="44.11113" lon="-1.00877">
        <ele>77</ele>
      </trkpt>
      <trkpt lat="44.11239" lon="-1.00719">
        <ele>76.5</ele>
      </trkpt>
      <trkpt lat="44.11578" lon="-1.00286">
        <ele>77</ele>
      </trkpt>
      <trkpt lat="44.11928" lon="-0.99846">
        <ele>77</ele>
      </trkpt>
      <trkpt lat="44.12157" lon="-0.99558">
        <ele>77</ele>
      </trkpt>
      <trkpt lat="44.12306" lon="-0.99368">
        <ele>77</ele>
      </trkpt>
      <trkpt lat="44.12664" lon="-0.9886">
        <ele>77</ele>
      </trkpt>
      <trkpt lat="44.1273" lon="-0.98762">
        <ele>77</ele>
      </trkpt>
      <trkpt lat="44.12912" lon="-0.98492">
        <ele>77</ele>
      </trkpt>
      <trkpt lat="44.13173" lon="-0.98106">
        <ele>77.2</ele>
      </trkpt>
      <trkpt lat="44.13254" lon="-0.98071">
        <ele>77.3</ele>
      </trkpt>
      <trkpt lat="44.13315" lon="-0.98046">
        <ele>76.9</ele>
      </trkpt>
      <trkpt lat="44.13389" lon="-0.98003">
        <ele>76.1</ele>
      </trkpt>
      <trkpt lat="44.1348" lon="-0.9794">
        <ele>76.1</ele>
      </trkpt>
      <trkpt lat="44.13552" lon="-0.9788">
        <ele>76.2</ele>
      </trkpt>
      <trkpt lat="44.13613" lon="-0.97819">
        <ele>76</ele>
      </trkpt>
      <trkpt lat="44.13683" lon="-0.97741">
        <ele>76.3</ele>
      </trkpt>
      <trkpt lat="44.1376" lon="-0.97646">
        <ele>76.5</ele>
      </trkpt>
      <trkpt lat="44.13895" lon="-0.9749">
        <ele>76.3</ele>
      </trkpt>
      <trkpt lat="44.13964" lon="-0.97412">
        <ele>76.2</ele>
      </trkpt>
      <trkpt lat="44.14022" lon="-0.97351">
        <ele>76.3</ele>
      </trkpt>
      <trkpt lat="44.14115" lon="-0.97251">
        <ele>76</ele>
      </trkpt>
      <trkpt lat="44.14182" lon="-0.97197">
        <ele>76</ele>
      </trkpt>
      <trkpt lat="44.14234" lon="-0.97155">
        <ele>76</ele>
      </trkpt>
      <trkpt lat="44.14305" lon="-0.97109">
        <ele>76</ele>
      </trkpt>
      <trkpt lat="44.14462" lon="-0.97009">
        <ele>75.7</ele>
      </trkpt>
      <trkpt lat="44.14506" lon="-0.9698">
        <ele>75.4</ele>
      </trkpt>
      <trkpt lat="44.14565" lon="-0.96932">
        <ele>73.3</ele>
      </trkpt>
      <trkpt lat="44.14607" lon="-0.96963">
        <ele>72.3</ele>
      </trkpt>
      <trkpt lat="44.14649" lon="-0.97003">
        <ele>77.6</ele>
      </trkpt>
      <trkpt lat="44.14667" lon="-0.97023">
        <ele>78.2</ele>
      </trkpt>
      <trkpt lat="44.14693" lon="-0.97006">
        <ele>76.8</ele>
      </trkpt>
      <trkpt lat="44.14735" lon="-0.96981">
        <ele>73.8</ele>
      </trkpt>
      <trkpt lat="44.14763" lon="-0.96948">
        <ele>73.1</ele>
      </trkpt>
      <trkpt lat="44.14782" lon="-0.96893">
        <ele>74.3</ele>
      </trkpt>
      <trkpt lat="44.14787" lon="-0.96831">
        <ele>72.3</ele>
      </trkpt>
      <trkpt lat="44.14799" lon="-0.96753">
        <ele>72.8</ele>
      </trkpt>
      <trkpt lat="44.14817" lon="-0.96674">
        <ele>74.5</ele>
      </trkpt>
      <trkpt lat="44.14849" lon="-0.96601">
        <ele>74.5</ele>
      </trkpt>
      <trkpt lat="44.14919" lon="-0.96466">
        <ele>75.8</ele>
      </trkpt>
      <trkpt lat="44.14943" lon="-0.96424">
        <ele>76</ele>
      </trkpt>
      <trkpt lat="44.15038" lon="-0.96283">
        <ele>76</ele>
      </trkpt>
      <trkpt lat="44.15115" lon="-0.96188">
        <ele>76.1</ele>
      </trkpt>
      <trkpt lat="44.1518" lon="-0.96114">
        <ele>77</ele>
      </trkpt>
      <trkpt lat="44.15267" lon="-0.96042">
        <ele>76.7</ele>
      </trkpt>
      <trkpt lat="44.15391" lon="-0.95969">
        <ele>77.1</ele>
      </trkpt>
      <trkpt lat="44.15511" lon="-0.95897">
        <ele>77</ele>
      </trkpt>
      <trkpt lat="44.15781" lon="-0.95741">
        <ele>77</ele>
      </trkpt>
      <trkpt lat="44.1619" lon="-0.95496">
        <ele>77.1</ele>
      </trkpt>
      <trkpt lat="44.1665" lon="-0.95223">
        <ele>77</ele>
      </trkpt>
      <trkpt lat="44.17062" lon="-0.94976">
        <ele>77</ele>
      </trkpt>
      <trkpt lat="44.17264" lon="-0.94859">
        <ele>77</ele>
      </trkpt>
      <trkpt lat="44.17671" lon="-0.94612">
        <ele>77</ele>
      </trkpt>
      <trkpt lat="44.18174" lon="-0.94318">
        <ele>76.6</ele>
      </trkpt>
      <trkpt lat="44.18199" lon="-0.94315">
        <ele>76.7</ele>
      </trkpt>
      <trkpt lat="44.18219" lon="-0.94341">
        <ele>76.9</ele>
      </trkpt>
      <trkpt lat="44.18231" lon="-0.94383">
        <ele>76.1</ele>
      </trkpt>
      <trkpt lat="44.18252" lon="-0.94407">
        <ele>76.7</ele>
      </trkpt>
      <trkpt lat="44.18274" lon="-0.94413">
        <ele>76.9</ele>
      </trkpt>
      <trkpt lat="44.18298" lon="-0.94402">
        <ele>76.5</ele>
      </trkpt>
      <trkpt lat="44.18234" lon="-0.94189">
        <ele>78.3</ele>
      </trkpt>
      <trkpt lat="44.18188" lon="-0.94041">
        <ele>77</ele>
      </trkpt>
      <trkpt lat="44.18249" lon="-0.9401">
        <ele>77</ele>
      </trkpt>
      <trkpt lat="44.18281" lon="-0.9401">
        <ele>77</ele>
      </trkpt>
      <trkpt lat="44.18314" lon="-0.94016">
        <ele>77</ele>
      </trkpt>
      <trkpt lat="44.18365" lon="-0.9405">
        <ele>76.9</ele>
      </trkpt>
      <trkpt lat="44.18402" lon="-0.94066">
        <ele>76</ele>
      </trkpt>
      <trkpt lat="44.18438" lon="-0.94058">
        <ele>76.8</ele>
      </trkpt>
      <trkpt lat="44.18483" lon="-0.94042">
        <ele>76.2</ele>
      </trkpt>
      <trkpt lat="44.18792" lon="-0.93859">
        <ele>76</ele>
      </trkpt>
      <trkpt lat="44.18997" lon="-0.93732">
        <ele>75.4</ele>
      </trkpt>
      <trkpt lat="44.19716" lon="-0.93298">
        <ele>74</ele>
      </trkpt>
      <trkpt lat="44.19781" lon="-0.9326">
        <ele>74</ele>
      </trkpt>
      <trkpt lat="44.19801" lon="-0.93247">
        <ele>74</ele>
      </trkpt>
      <trkpt lat="44.19821" lon="-0.93217">
        <ele>74</ele>
      </trkpt>
      <trkpt lat="44.19831" lon="-0.93178">
        <ele>74</ele>
      </trkpt>
      <trkpt lat="44.19912" lon="-0.92833">
        <ele>74</ele>
      </trkpt>
      <trkpt lat="44.19987" lon="-0.92504">
        <ele>74</ele>
      </trkpt>
      <trkpt lat="44.20003" lon="-0.92459">
        <ele>74</ele>
      </trkpt>
      <trkpt lat="44.20028" lon="-0.92417">
        <ele>74</ele>
      </trkpt>
      <trkpt lat="44.20057" lon="-0.92394">
        <ele>74</ele>
      </trkpt>
      <trkpt lat="44.20097" lon="-0.92374">
        <ele>73.8</ele>
      </trkpt>
      <trkpt lat="44.20131" lon="-0.92369">
        <ele>73.4</ele>
      </trkpt>
      <trkpt lat="44.20168" lon="-0.92386">
        <ele>74</ele>
      </trkpt>
      <trkpt lat="44.20286" lon="-0.92459">
        <ele>73.2</ele>
      </trkpt>
      <trkpt lat="44.20284" lon="-0.92492">
        <ele>73.1</ele>
      </trkpt>
      <trkpt lat="44.20294" lon="-0.92511">
        <ele>73</ele>
      </trkpt>
      <trkpt lat="44.20314" lon="-0.92523">
        <ele>72.7</ele>
      </trkpt>
      <trkpt lat="44.20331" lon="-0.92524">
        <ele>72.2</ele>
      </trkpt>
      <trkpt lat="44.20345" lon="-0.92502">
        <ele>72.6</ele>
      </trkpt>
      <trkpt lat="44.20446" lon="-0.92557">
        <ele>72</ele>
      </trkpt>
      <trkpt lat="44.20484" lon="-0.9257">
        <ele>72</ele>
      </trkpt>
      <trkpt lat="44.20662" lon="-0.92549">
        <ele>71</ele>
      </trkpt>
      <trkpt lat="44.2071" lon="-0.92539">
        <ele>69.7</ele>
      </trkpt>
      <trkpt lat="44.2073" lon="-0.92549">
        <ele>69.8</ele>
      </trkpt>
      <trkpt lat="44.20793" lon="-0.92604">
        <ele>69.5</ele>
      </trkpt>
      <trkpt lat="44.20848" lon="-0.92651">
        <ele>69.7</ele>
      </trkpt>
      <trkpt lat="44.20877" lon="-0.92644">
        <ele>69.2</ele>
      </trkpt>
      <trkpt lat="44.20902" lon="-0.92623">
        <ele>69</ele>
      </trkpt>
      <trkpt lat="44.20939" lon="-0.92563">
        <ele>69</ele>
      </trkpt>
      <trkpt lat="44.20968" lon="-0.92526">
        <ele>69</ele>
      </trkpt>
      <trkpt lat="44.21072" lon="-0.92376">
        <ele>70</ele>
      </trkpt>
      <trkpt lat="44.21089" lon="-0.92352">
        <ele>70</ele>
      </trkpt>
      <trkpt lat="44.21122" lon="-0.92311">
        <ele>69.7</ele>
      </trkpt>
      <trkpt lat="44.2117" lon="-0.92237">
        <ele>69.9</ele>
      </trkpt>
      <trkpt lat="44.21209" lon="-0.92229">
        <ele>69</ele>
      </trkpt>
      <trkpt lat="44.21206" lon="-0.92175">
        <ele>69.5</ele>
      </trkpt>
      <trkpt lat="44.21221" lon="-0.92144">
        <ele>67.6</ele>
      </trkpt>
      <trkpt lat="44.21236" lon="-0.92123">
        <ele>69.1</ele>
      </trkpt>
      <trkpt lat="44.21262" lon="-0.9211">
        <ele>69</ele>
      </trkpt>
      <trkpt lat="44.21279" lon="-0.92088">
        <ele>69</ele>
      </trkpt>
      <trkpt lat="44.213" lon="-0.92087">
        <ele>69</ele>
      </trkpt>
      <trkpt lat="44.21335" lon="-0.92062">
        <ele>69</ele>
      </trkpt>
      <trkpt lat="44.21358" lon="-0.92045">
        <ele>69</ele>
      </trkpt>
      <trkpt lat="44.21415" lon="-0.92011">
        <ele>69.1</ele>
      </trkpt>
      <trkpt lat="44.21447" lon="-0.9199">
        <ele>68.3</ele>
      </trkpt>
      <trkpt lat="44.21485" lon="-0.91986">
        <ele>68</ele>
      </trkpt>
      <trkpt lat="44.21517" lon="-0.92">
        <ele>68</ele>
      </trkpt>
      <trkpt lat="44.21551" lon="-0.92021">
        <ele>68</ele>
      </trkpt>
      <trkpt lat="44.21598" lon="-0.92017">
        <ele>67.4</ele>
      </trkpt>
      <trkpt lat="44.21636" lon="-0.92005">
        <ele>68.7</ele>
      </trkpt>
      <trkpt lat="44.21669" lon="-0.91988">
        <ele>69</ele>
      </trkpt>
      <trkpt lat="44.21721" lon="-0.91956">
        <ele>70</ele>
      </trkpt>
      <trkpt lat="44.21761" lon="-0.91612">
        <ele>70.6</ele>
      </trkpt>
      <trkpt lat="44.21842" lon="-0.91571">
        <ele>70.3</ele>
      </trkpt>
      <trkpt lat="44.21873" lon="-0.91557">
        <ele>70</ele>
      </trkpt>
      <trkpt lat="44.21886" lon="-0.91543">
        <ele>70</ele>
      </trkpt>
      <trkpt lat="44.21913" lon="-0.91501">
        <ele>70</ele>
      </trkpt>
      <trkpt lat="44.21966" lon="-0.91407">
        <ele>71.1</ele>
      </trkpt>
      <trkpt lat="44.22052" lon="-0.91279">
        <ele>72</ele>
      </trkpt>
      <trkpt lat="44.2207" lon="-0.91245">
        <ele>71</ele>
      </trkpt>
      <trkpt lat="44.22147" lon="-0.90951">
        <ele>71.8</ele>
      </trkpt>
      <trkpt lat="44.22197" lon="-0.90772">
        <ele>72</ele>
      </trkpt>
      <trkpt lat="44.22303" lon="-0.90401">
        <ele>72</ele>
      </trkpt>
      <trkpt lat="44.22321" lon="-0.90348">
        <ele>72</ele>
      </trkpt>
      <trkpt lat="44.22393" lon="-0.90243">
        <ele>72</ele>
      </trkpt>
      <trkpt lat="44.225" lon="-0.90077">
        <ele>71.2</ele>
      </trkpt>
      <trkpt lat="44.22574" lon="-0.89957">
        <ele>72</ele>
      </trkpt>
      <trkpt lat="44.22723" lon="-0.89748">
        <ele>73</ele>
      </trkpt>
      <trkpt lat="44.22765" lon="-0.89684">
        <ele>72.4</ele>
      </trkpt>
      <trkpt lat="44.23144" lon="-0.89159">
        <ele>73</ele>
      </trkpt>
      <trkpt lat="44.23407" lon="-0.88792">
        <ele>72.7</ele>
      </trkpt>
      <trkpt lat="44.23857" lon="-0.88168">
        <ele>72</ele>
      </trkpt>
      <trkpt lat="44.23921" lon="-0.88078">
        <ele>73</ele>
      </trkpt>
      <trkpt lat="44.2413" lon="-0.87788">
        <ele>72.3</ele>
      </trkpt>
      <trkpt lat="44.24216" lon="-0.8767">
        <ele>72.7</ele>
      </trkpt>
      <trkpt lat="44.24626" lon="-0.87093">
        <ele>72.2</ele>
      </trkpt>
      <trkpt lat="44.24852" lon="-0.86782">
        <ele>72</ele>
      </trkpt>
      <trkpt lat="44.25116" lon="-0.86426">
        <ele>71.3</ele>
      </trkpt>
      <trkpt lat="44.25605" lon="-0.85744">
        <ele>71</ele>
      </trkpt>
      <trkpt lat="44.25946" lon="-0.85274">
        <ele>70.8</ele>
      </trkpt>
      <trkpt lat="44.26271" lon="-0.84836">
        <ele>69.8</ele>
      </trkpt>
      <trkpt lat="44.26296" lon="-0.84784">
        <ele>69.4</ele>
      </trkpt>
      <trkpt lat="44.26493" lon="-0.84514">
        <ele>69</ele>
      </trkpt>
      <trkpt lat="44.26635" lon="-0.84324">
        <ele>69</ele>
      </trkpt>
      <trkpt lat="44.26853" lon="-0.84022">
        <ele>68</ele>
      </trkpt>
      <trkpt lat="44.26993" lon="-0.83823">
        <ele>68</ele>
      </trkpt>
      <trkpt lat="44.27079" lon="-0.83695">
        <ele>68</ele>
      </trkpt>
      <trkpt lat="44.27246" lon="-0.83452">
        <ele>67</ele>
      </trkpt>
      <trkpt lat="44.27455" lon="-0.83151">
        <ele>67</ele>
      </trkpt>
      <trkpt lat="44.27557" lon="-0.83001">
        <ele>67</ele>
      </trkpt>
      <trkpt lat="44.27626" lon="-0.82901">
        <ele>67</ele>
      </trkpt>
      <trkpt lat="44.27649" lon="-0.82867">
        <ele>66.1</ele>
      </trkpt>
      <trkpt lat="44.2766" lon="-0.8283">
        <ele>66</ele>
      </trkpt>
      <trkpt lat="44.27708" lon="-0.82592">
        <ele>66</ele>
      </trkpt>
      <trkpt lat="44.27717" lon="-0.82533">
        <ele>66</ele>
      </trkpt>
      <trkpt lat="44.27728" lon="-0.8246">
        <ele>66</ele>
      </trkpt>
      <trkpt lat="44.27741" lon="-0.82342">
        <ele>66</ele>
      </trkpt>
      <trkpt lat="44.27755" lon="-0.82277">
        <ele>66</ele>
      </trkpt>
      <trkpt lat="44.2777" lon="-0.82192">
        <ele>66</ele>
      </trkpt>
      <trkpt lat="44.27779" lon="-0.82161">
        <ele>66</ele>
      </trkpt>
      <trkpt lat="44.27798" lon="-0.82125">
        <ele>66</ele>
      </trkpt>
      <trkpt lat="44.27812" lon="-0.82108">
        <ele>66</ele>
      </trkpt>
      <trkpt lat="44.27879" lon="-0.82017">
        <ele>66</ele>
      </trkpt>
      <trkpt lat="44.27925" lon="-0.81963">
        <ele>65.5</ele>
      </trkpt>
      <trkpt lat="44.27989" lon="-0.8189">
        <ele>66</ele>
      </trkpt>
      <trkpt lat="44.28072" lon="-0.81799">
        <ele>66</ele>
      </trkpt>
      <trkpt lat="44.28129" lon="-0.81732">
        <ele>65.1</ele>
      </trkpt>
      <trkpt lat="44.2813" lon="-0.81732">
        <ele>65.1</ele>
      </trkpt>
      <trkpt lat="44.28166" lon="-0.81693">
        <ele>65</ele>
      </trkpt>
      <trkpt lat="44.28167" lon="-0.81691">
        <ele>65</ele>
      </trkpt>
      <trkpt lat="44.28177" lon="-0.81669">
        <ele>65</ele>
      </trkpt>
      <trkpt lat="44.28206" lon="-0.81601">
        <ele>65</ele>
      </trkpt>
      <trkpt lat="44.28207" lon="-0.816">
        <ele>65</ele>
      </trkpt>
      <trkpt lat="44.28208" lon="-0.81598">
        <ele>65</ele>
      </trkpt>
      <trkpt lat="44.28245" lon="-0.81518">
        <ele>65</ele>
      </trkpt>
      <trkpt lat="44.28247" lon="-0.81513">
        <ele>65</ele>
      </trkpt>
      <trkpt lat="44.28248" lon="-0.81514">
        <ele>65</ele>
      </trkpt>
      <trkpt lat="44.28283" lon="-0.81559">
        <ele>65</ele>
      </trkpt>
      <trkpt lat="44.28286" lon="-0.81562">
        <ele>65</ele>
      </trkpt>
      <trkpt lat="44.28288" lon="-0.81567">
        <ele>65</ele>
      </trkpt>
      <trkpt lat="44.28289" lon="-0.81571">
        <ele>65</ele>
      </trkpt>
      <trkpt lat="44.28293" lon="-0.8158">
        <ele>65</ele>
      </trkpt>
      <trkpt lat="44.28296" lon="-0.81586">
        <ele>65</ele>
      </trkpt>
      <trkpt lat="44.283" lon="-0.81597">
        <ele>65</ele>
      </trkpt>
      <trkpt lat="44.28302" lon="-0.81602">
        <ele>65</ele>
      </trkpt>
      <trkpt lat="44.28304" lon="-0.81606">
        <ele>65</ele>
      </trkpt>
      <trkpt lat="44.2835" lon="-0.81594">
        <ele>65</ele>
      </trkpt>
      <trkpt lat="44.28353" lon="-0.81593">
        <ele>65</ele>
      </trkpt>
      <trkpt lat="44.28376" lon="-0.81575">
        <ele>65</ele>
      </trkpt>
      <trkpt lat="44.28435" lon="-0.81525">
        <ele>65</ele>
      </trkpt>
      <trkpt lat="44.28489" lon="-0.8147">
        <ele>64.9</ele>
      </trkpt>
      <trkpt lat="44.28543" lon="-0.81415">
        <ele>64</ele>
      </trkpt>
      <trkpt lat="44.28599" lon="-0.81325">
        <ele>64</ele>
      </trkpt>
      <trkpt lat="44.28632" lon="-0.81252">
        <ele>64</ele>
      </trkpt>
      <trkpt lat="44.28664" lon="-0.81179">
        <ele>64</ele>
      </trkpt>
      <trkpt lat="44.28686" lon="-0.81143">
        <ele>64</ele>
      </trkpt>
      <trkpt lat="44.28724" lon="-0.81083">
        <ele>64</ele>
      </trkpt>
      <trkpt lat="44.28765" lon="-0.81033">
        <ele>64</ele>
      </trkpt>
      <trkpt lat="44.28853" lon="-0.80889">
        <ele>63</ele>
      </trkpt>
      <trkpt lat="44.28883" lon="-0.80835">
        <ele>63</ele>
      </trkpt>
      <trkpt lat="44.28914" lon="-0.8078">
        <ele>61.1</ele>
      </trkpt>
      <trkpt lat="44.2895" lon="-0.80756">
        <ele>59.6</ele>
      </trkpt>
      <trkpt lat="44.28987" lon="-0.80733">
        <ele>57.2</ele>
      </trkpt>
      <trkpt lat="44.29033" lon="-0.80669">
        <ele>60.5</ele>
      </trkpt>
      <trkpt lat="44.29062" lon="-0.80603">
        <ele>63</ele>
      </trkpt>
      <trkpt lat="44.29091" lon="-0.80538">
        <ele>63</ele>
      </trkpt>
      <trkpt lat="44.29131" lon="-0.80481">
        <ele>63</ele>
      </trkpt>
      <trkpt lat="44.29172" lon="-0.80424">
        <ele>62.4</ele>
      </trkpt>
      <trkpt lat="44.29228" lon="-0.8037">
        <ele>64.3</ele>
      </trkpt>
      <trkpt lat="44.29285" lon="-0.80317">
        <ele>64.2</ele>
      </trkpt>
      <trkpt lat="44.29344" lon="-0.80217">
        <ele>62.9</ele>
      </trkpt>
      <trkpt lat="44.2936" lon="-0.80177">
        <ele>62</ele>
      </trkpt>
      <trkpt lat="44.29485" lon="-0.79877">
        <ele>61</ele>
      </trkpt>
      <trkpt lat="44.29522" lon="-0.798">
        <ele>61</ele>
      </trkpt>
      <trkpt lat="44.29569" lon="-0.7965">
        <ele>60.2</ele>
      </trkpt>
      <trkpt lat="44.29592" lon="-0.79576">
        <ele>60</ele>
      </trkpt>
      <trkpt lat="44.29661" lon="-0.79447">
        <ele>60</ele>
      </trkpt>
      <trkpt lat="44.29702" lon="-0.79375">
        <ele>61.2</ele>
      </trkpt>
      <trkpt lat="44.29742" lon="-0.79302">
        <ele>61</ele>
      </trkpt>
      <trkpt lat="44.29782" lon="-0.7923">
        <ele>59.9</ele>
      </trkpt>
      <trkpt lat="44.29822" lon="-0.79158">
        <ele>59</ele>
      </trkpt>
      <trkpt lat="44.29863" lon="-0.79086">
        <ele>59</ele>
      </trkpt>
      <trkpt lat="44.29899" lon="-0.79019">
        <ele>58.6</ele>
      </trkpt>
      <trkpt lat="44.30043" lon="-0.78752">
        <ele>57.5</ele>
      </trkpt>
      <trkpt lat="44.30079" lon="-0.78685">
        <ele>57.1</ele>
      </trkpt>
      <trkpt lat="44.3011" lon="-0.78628">
        <ele>57</ele>
      </trkpt>
      <trkpt lat="44.30173" lon="-0.78513">
        <ele>56.6</ele>
      </trkpt>
      <trkpt lat="44.30188" lon="-0.78495">
        <ele>56.8</ele>
      </trkpt>
      <trkpt lat="44.30231" lon="-0.7846">
        <ele>57</ele>
      </trkpt>
      <trkpt lat="44.30274" lon="-0.78425">
        <ele>57</ele>
      </trkpt>
      <trkpt lat="44.30317" lon="-0.78379">
        <ele>57</ele>
      </trkpt>
      <trkpt lat="44.30366" lon="-0.78334">
        <ele>57</ele>
      </trkpt>
      <trkpt lat="44.30414" lon="-0.78288">
        <ele>56.9</ele>
      </trkpt>
      <trkpt lat="44.30561" lon="-0.78147">
        <ele>56</ele>
      </trkpt>
      <trkpt lat="44.3061" lon="-0.781">
        <ele>56</ele>
      </trkpt>
      <trkpt lat="44.30615" lon="-0.78093">
        <ele>56</ele>
      </trkpt>
      <trkpt lat="44.30643" lon="-0.78044">
        <ele>56</ele>
      </trkpt>
      <trkpt lat="44.30651" lon="-0.7803">
        <ele>56</ele>
      </trkpt>
      <trkpt lat="44.30659" lon="-0.78016">
        <ele>56</ele>
      </trkpt>
      <trkpt lat="44.30663" lon="-0.78008">
        <ele>56</ele>
      </trkpt>
      <trkpt lat="44.30668" lon="-0.78002">
        <ele>56</ele>
      </trkpt>
      <trkpt lat="44.30682" lon="-0.77981">
        <ele>56</ele>
      </trkpt>
      <trkpt lat="44.30691" lon="-0.77967">
        <ele>56</ele>
      </trkpt>
      <trkpt lat="44.30696" lon="-0.7796">
        <ele>56</ele>
      </trkpt>
      <trkpt lat="44.307" lon="-0.77953">
        <ele>56</ele>
      </trkpt>
      <trkpt lat="44.30705" lon="-0.77946">
        <ele>56</ele>
      </trkpt>
      <trkpt lat="44.30725" lon="-0.77911">
        <ele>55.9</ele>
      </trkpt>
      <trkpt lat="44.30745" lon="-0.77877">
        <ele>54.4</ele>
      </trkpt>
      <trkpt lat="44.30749" lon="-0.7787">
        <ele>54.1</ele>
      </trkpt>
      <trkpt lat="44.30773" lon="-0.77861">
        <ele>53.1</ele>
      </trkpt>
      <trkpt lat="44.30791" lon="-0.77854">
        <ele>52.6</ele>
      </trkpt>
      <trkpt lat="44.30797" lon="-0.77851">
        <ele>52.5</ele>
      </trkpt>
      <trkpt lat="44.30809" lon="-0.77846">
        <ele>52.6</ele>
      </trkpt>
      <trkpt lat="44.30824" lon="-0.77835">
        <ele>53.3</ele>
      </trkpt>
      <trkpt lat="44.30829" lon="-0.77831">
        <ele>53.8</ele>
      </trkpt>
      <trkpt lat="44.30834" lon="-0.77824">
        <ele>54.3</ele>
      </trkpt>
      <trkpt lat="44.30843" lon="-0.77811">
        <ele>55.1</ele>
      </trkpt>
      <trkpt lat="44.30852" lon="-0.77798">
        <ele>55.8</ele>
      </trkpt>
      <trkpt lat="44.30856" lon="-0.77791">
        <ele>55.9</ele>
      </trkpt>
      <trkpt lat="44.30799" lon="-0.77705">
        <ele>55.8</ele>
      </trkpt>
      <trkpt lat="44.30802" lon="-0.77654">
        <ele>56</ele>
      </trkpt>
      <trkpt lat="44.30778" lon="-0.77549">
        <ele>56.8</ele>
      </trkpt>
      <trkpt lat="44.30743" lon="-0.7741">
        <ele>55.7</ele>
      </trkpt>
      <trkpt lat="44.30754" lon="-0.77307">
        <ele>56</ele>
      </trkpt>
      <trkpt lat="44.30767" lon="-0.77212">
        <ele>56</ele>
      </trkpt>
      <trkpt lat="44.30765" lon="-0.77168">
        <ele>56.6</ele>
      </trkpt>
      <trkpt lat="44.30753" lon="-0.77116">
        <ele>56</ele>
      </trkpt>
      <trkpt lat="44.3074" lon="-0.77063">
        <ele>55.1</ele>
      </trkpt>
      <trkpt lat="44.30745" lon="-0.77037">
        <ele>54.9</ele>
      </trkpt>
      <trkpt lat="44.30754" lon="-0.77021">
        <ele>55</ele>
      </trkpt>
      <trkpt lat="44.30778" lon="-0.76997">
        <ele>55.1</ele>
      </trkpt>
      <trkpt lat="44.30802" lon="-0.76969">
        <ele>56</ele>
      </trkpt>
      <trkpt lat="44.30842" lon="-0.76928">
        <ele>56.3</ele>
      </trkpt>
      <trkpt lat="44.3091" lon="-0.76957">
        <ele>56</ele>
      </trkpt>
      <trkpt lat="44.30944" lon="-0.76633">
        <ele>55</ele>
      </trkpt>
      <trkpt lat="44.30955" lon="-0.76511">
        <ele>55</ele>
      </trkpt>
      <trkpt lat="44.30974" lon="-0.76334">
        <ele>55</ele>
      </trkpt>
      <trkpt lat="44.30985" lon="-0.76316">
        <ele>54.2</ele>
      </trkpt>
      <trkpt lat="44.30988" lon="-0.76281">
        <ele>53.1</ele>
      </trkpt>
      <trkpt lat="44.3099" lon="-0.76241">
        <ele>52.8</ele>
      </trkpt>
      <trkpt lat="44.30988" lon="-0.76185">
        <ele>50.9</ele>
      </trkpt>
      <trkpt lat="44.30998" lon="-0.76142">
        <ele>49.1</ele>
      </trkpt>
      <trkpt lat="44.31003" lon="-0.76089">
        <ele>47.8</ele>
      </trkpt>
      <trkpt lat="44.31005" lon="-0.76028">
        <ele>46.9</ele>
      </trkpt>
      <trkpt lat="44.31024" lon="-0.76073">
        <ele>46.3</ele>
      </trkpt>
      <trkpt lat="44.31033" lon="-0.76024">
        <ele>46.7</ele>
      </trkpt>
      <trkpt lat="44.31062" lon="-0.75942">
        <ele>40.4</ele>
      </trkpt>
      <trkpt lat="44.31084" lon="-0.7589">
        <ele>35.1</ele>
      </trkpt>
      <trkpt lat="44.31123" lon="-0.75836">
        <ele>38</ele>
      </trkpt>
      <trkpt lat="44.3118" lon="-0.75773">
        <ele>42.2</ele>
      </trkpt>
      <trkpt lat="44.31302" lon="-0.75667">
        <ele>48.8</ele>
      </trkpt>
      <trkpt lat="44.31341" lon="-0.7563">
        <ele>53</ele>
      </trkpt>
      <trkpt lat="44.31358" lon="-0.756">
        <ele>54.1</ele>
      </trkpt>
      <trkpt lat="44.31421" lon="-0.75454">
        <ele>56</ele>
      </trkpt>
      <trkpt lat="44.31582" lon="-0.75085">
        <ele>56</ele>
      </trkpt>
      <trkpt lat="44.31617" lon="-0.75002">
        <ele>56</ele>
      </trkpt>
      <trkpt lat="44.31873" lon="-0.74423">
        <ele>56</ele>
      </trkpt>
      <trkpt lat="44.32001" lon="-0.74139">
        <ele>55</ele>
      </trkpt>
      <trkpt lat="44.32015" lon="-0.74086">
        <ele>54.9</ele>
      </trkpt>
      <trkpt lat="44.32022" lon="-0.74031">
        <ele>52.3</ele>
      </trkpt>
      <trkpt lat="44.32023" lon="-0.73979">
        <ele>50.1</ele>
      </trkpt>
      <trkpt lat="44.32017" lon="-0.73929">
        <ele>46.8</ele>
      </trkpt>
      <trkpt lat="44.32012" lon="-0.73889">
        <ele>44.9</ele>
      </trkpt>
      <trkpt lat="44.32008" lon="-0.73818">
        <ele>49.7</ele>
      </trkpt>
      <trkpt lat="44.3205" lon="-0.7381">
        <ele>51.7</ele>
      </trkpt>
      <trkpt lat="44.32088" lon="-0.73798">
        <ele>53.5</ele>
      </trkpt>
      <trkpt lat="44.3215" lon="-0.73758">
        <ele>53.2</ele>
      </trkpt>
      <trkpt lat="44.32192" lon="-0.73745">
        <ele>53.2</ele>
      </trkpt>
      <trkpt lat="44.32244" lon="-0.73736">
        <ele>55.8</ele>
      </trkpt>
      <trkpt lat="44.32601" lon="-0.73641">
        <ele>55</ele>
      </trkpt>
      <trkpt lat="44.32872" lon="-0.73569">
        <ele>54.5</ele>
      </trkpt>
      <trkpt lat="44.3301" lon="-0.73506">
        <ele>54</ele>
      </trkpt>
      <trkpt lat="44.33107" lon="-0.73463">
        <ele>54.1</ele>
      </trkpt>
      <trkpt lat="44.3322" lon="-0.73401">
        <ele>54</ele>
      </trkpt>
      <trkpt lat="44.33314" lon="-0.73348">
        <ele>54</ele>
      </trkpt>
      <trkpt lat="44.33381" lon="-0.73306">
        <ele>54</ele>
      </trkpt>
      <trkpt lat="44.33458" lon="-0.73258">
        <ele>54</ele>
      </trkpt>
      <trkpt lat="44.33513" lon="-0.7323">
        <ele>54</ele>
      </trkpt>
      <trkpt lat="44.33559" lon="-0.7321">
        <ele>54.4</ele>
      </trkpt>
      <trkpt lat="44.33678" lon="-0.73222">
        <ele>54</ele>
      </trkpt>
      <trkpt lat="44.33767" lon="-0.73221">
        <ele>54</ele>
      </trkpt>
      <trkpt lat="44.33806" lon="-0.73526">
        <ele>53</ele>
      </trkpt>
      <trkpt lat="44.33812" lon="-0.73612">
        <ele>53.8</ele>
      </trkpt>
      <trkpt lat="44.33848" lon="-0.73796">
        <ele>53.7</ele>
      </trkpt>
      <trkpt lat="44.33869" lon="-0.73909">
        <ele>53</ele>
      </trkpt>
      <trkpt lat="44.33885" lon="-0.74031">
        <ele>53</ele>
      </trkpt>
      <trkpt lat="44.33892" lon="-0.74077">
        <ele>52.3</ele>
      </trkpt>
      <trkpt lat="44.33907" lon="-0.74119">
        <ele>50.7</ele>
      </trkpt>
      <trkpt lat="44.33943" lon="-0.74193">
        <ele>48</ele>
      </trkpt>
      <trkpt lat="44.33943" lon="-0.74233">
        <ele>49.8</ele>
      </trkpt>
      <trkpt lat="44.3396" lon="-0.74483">
        <ele>53</ele>
      </trkpt>
      <trkpt lat="44.33973" lon="-0.74662">
        <ele>53</ele>
      </trkpt>
      <trkpt lat="44.34034" lon="-0.74908">
        <ele>53</ele>
      </trkpt>
      <trkpt lat="44.34068" lon="-0.75041">
        <ele>52.7</ele>
      </trkpt>
      <trkpt lat="44.34067" lon="-0.75062">
        <ele>52.5</ele>
      </trkpt>
      <trkpt lat="44.34077" lon="-0.75085">
        <ele>53</ele>
      </trkpt>
      <trkpt lat="44.34094" lon="-0.75181">
        <ele>52</ele>
      </trkpt>
      <trkpt lat="44.341" lon="-0.75231">
        <ele>50.7</ele>
      </trkpt>
      <trkpt lat="44.34098" lon="-0.753">
        <ele>45.1</ele>
      </trkpt>
      <trkpt lat="44.34088" lon="-0.75337">
        <ele>42.6</ele>
      </trkpt>
      <trkpt lat="44.34067" lon="-0.75371">
        <ele>40.8</ele>
      </trkpt>
      <trkpt lat="44.34061" lon="-0.75395">
        <ele>38.7</ele>
      </trkpt>
      <trkpt lat="44.34072" lon="-0.75423">
        <ele>36.3</ele>
      </trkpt>
      <trkpt lat="44.34111" lon="-0.75477">
        <ele>32.5</ele>
      </trkpt>
      <trkpt lat="44.34153" lon="-0.75548">
        <ele>34.4</ele>
      </trkpt>
      <trkpt lat="44.34182" lon="-0.75622">
        <ele>43</ele>
      </trkpt>
      <trkpt lat="44.34276" lon="-0.75735">
        <ele>48.5</ele>
      </trkpt>
      <trkpt lat="44.34298" lon="-0.75761">
        <ele>48.8</ele>
      </trkpt>
      <trkpt lat="44.34335" lon="-0.75807">
        <ele>49</ele>
      </trkpt>
      <trkpt lat="44.34397" lon="-0.75885">
        <ele>50.5</ele>
      </trkpt>
      <trkpt lat="44.34428" lon="-0.75905">
        <ele>49.2</ele>
      </trkpt>
      <trkpt lat="44.34519" lon="-0.75939">
        <ele>50.3</ele>
      </trkpt>
      <trkpt lat="44.34591" lon="-0.75964">
        <ele>51.5</ele>
      </trkpt>
      <trkpt lat="44.34666" lon="-0.75991">
        <ele>51.3</ele>
      </trkpt>
      <trkpt lat="44.34941" lon="-0.76085">
        <ele>51</ele>
      </trkpt>
      <trkpt lat="44.35035" lon="-0.76113">
        <ele>51</ele>
      </trkpt>
      <trkpt lat="44.35089" lon="-0.76126">
        <ele>51</ele>
      </trkpt>
      <trkpt lat="44.35157" lon="-0.76126">
        <ele>51</ele>
      </trkpt>
      <trkpt lat="44.35507" lon="-0.76128">
        <ele>50.3</ele>
      </trkpt>
      <trkpt lat="44.35596" lon="-0.76129">
        <ele>50</ele>
      </trkpt>
      <trkpt lat="44.3568" lon="-0.7613">
        <ele>50</ele>
      </trkpt>
      <trkpt lat="44.35733" lon="-0.76139">
        <ele>50.6</ele>
      </trkpt>
      <trkpt lat="44.3576" lon="-0.76126">
        <ele>50.2</ele>
      </trkpt>
      <trkpt lat="44.35794" lon="-0.7613">
        <ele>50.1</ele>
      </trkpt>
      <trkpt lat="44.3586" lon="-0.76144">
        <ele>50</ele>
      </trkpt>
      <trkpt lat="44.35935" lon="-0.76158">
        <ele>50</ele>
      </trkpt>
      <trkpt lat="44.35977" lon="-0.7616">
        <ele>49.8</ele>
      </trkpt>
      <trkpt lat="44.36015" lon="-0.76115">
        <ele>49.9</ele>
      </trkpt>
      <trkpt lat="44.36024" lon="-0.76084">
        <ele>50</ele>
      </trkpt>
      <trkpt lat="44.36034" lon="-0.75973">
        <ele>49.8</ele>
      </trkpt>
      <trkpt lat="44.36037" lon="-0.75931">
        <ele>50</ele>
      </trkpt>
      <trkpt lat="44.36042" lon="-0.75898">
        <ele>50</ele>
      </trkpt>
      <trkpt lat="44.36048" lon="-0.75851">
        <ele>50</ele>
      </trkpt>
      <trkpt lat="44.3606" lon="-0.75789">
        <ele>49.4</ele>
      </trkpt>
      <trkpt lat="44.36119" lon="-0.75699">
        <ele>49</ele>
      </trkpt>
      <trkpt lat="44.36149" lon="-0.75643">
        <ele>49</ele>
      </trkpt>
      <trkpt lat="44.36179" lon="-0.75576">
        <ele>48.5</ele>
      </trkpt>
      <trkpt lat="44.36256" lon="-0.75393">
        <ele>46.4</ele>
      </trkpt>
      <trkpt lat="44.36284" lon="-0.75361">
        <ele>43.3</ele>
      </trkpt>
      <trkpt lat="44.36311" lon="-0.75344">
        <ele>42</ele>
      </trkpt>
      <trkpt lat="44.36342" lon="-0.7534">
        <ele>40.5</ele>
      </trkpt>
      <trkpt lat="44.36376" lon="-0.7535">
        <ele>38.4</ele>
      </trkpt>
      <trkpt lat="44.36487" lon="-0.75395">
        <ele>29.6</ele>
      </trkpt>
      <trkpt lat="44.36693" lon="-0.75475">
        <ele>36.9</ele>
      </trkpt>
      <trkpt lat="44.36746" lon="-0.75503">
        <ele>37.5</ele>
      </trkpt>
      <trkpt lat="44.36837" lon="-0.75552">
        <ele>38.1</ele>
      </trkpt>
      <trkpt lat="44.369" lon="-0.7559">
        <ele>36.2</ele>
      </trkpt>
      <trkpt lat="44.36926" lon="-0.756">
        <ele>34.4</ele>
      </trkpt>
      <trkpt lat="44.36954" lon="-0.75585">
        <ele>32.3</ele>
      </trkpt>
      <trkpt lat="44.36974" lon="-0.75561">
        <ele>33.7</ele>
      </trkpt>
      <trkpt lat="44.36989" lon="-0.75533">
        <ele>33.9</ele>
      </trkpt>
      <trkpt lat="44.37015" lon="-0.75514">
        <ele>32.1</ele>
      </trkpt>
      <trkpt lat="44.37056" lon="-0.75487">
        <ele>27.7</ele>
      </trkpt>
      <trkpt lat="44.37104" lon="-0.75469">
        <ele>33.4</ele>
      </trkpt>
      <trkpt lat="44.37148" lon="-0.75446">
        <ele>36.3</ele>
      </trkpt>
      <trkpt lat="44.37208" lon="-0.75396">
        <ele>38.6</ele>
      </trkpt>
      <trkpt lat="44.37279" lon="-0.7531">
        <ele>44.1</ele>
      </trkpt>
      <trkpt lat="44.37292" lon="-0.75276">
        <ele>47</ele>
      </trkpt>
      <trkpt lat="44.37296" lon="-0.75218">
        <ele>47.7</ele>
      </trkpt>
      <trkpt lat="44.373" lon="-0.75193">
        <ele>47.7</ele>
      </trkpt>
      <trkpt lat="44.3736" lon="-0.75225">
        <ele>47.9</ele>
      </trkpt>
      <trkpt lat="44.37463" lon="-0.75281">
        <ele>47</ele>
      </trkpt>
      <trkpt lat="44.37797" lon="-0.75463">
        <ele>47</ele>
      </trkpt>
      <trkpt lat="44.37876" lon="-0.75505">
        <ele>46.4</ele>
      </trkpt>
      <trkpt lat="44.37954" lon="-0.75482">
        <ele>46</ele>
      </trkpt>
      <trkpt lat="44.37977" lon="-0.75484">
        <ele>46</ele>
      </trkpt>
      <trkpt lat="44.38055" lon="-0.75507">
        <ele>46</ele>
      </trkpt>
      <trkpt lat="44.38144" lon="-0.75534">
        <ele>46</ele>
      </trkpt>
      <trkpt lat="44.38237" lon="-0.75562">
        <ele>46</ele>
      </trkpt>
      <trkpt lat="44.38523" lon="-0.75561">
        <ele>46</ele>
      </trkpt>
      <trkpt lat="44.38603" lon="-0.75561">
        <ele>46.2</ele>
      </trkpt>
      <trkpt lat="44.38643" lon="-0.75564">
        <ele>46</ele>
      </trkpt>
      <trkpt lat="44.38705" lon="-0.7558">
        <ele>46</ele>
      </trkpt>
      <trkpt lat="44.38953" lon="-0.75581">
        <ele>46</ele>
      </trkpt>
      <trkpt lat="44.39264" lon="-0.75587">
        <ele>45.5</ele>
      </trkpt>
      <trkpt lat="44.39274" lon="-0.75789">
        <ele>45</ele>
      </trkpt>
      <trkpt lat="44.39295" lon="-0.7615">
        <ele>45</ele>
      </trkpt>
      <trkpt lat="44.39302" lon="-0.76271">
        <ele>45</ele>
      </trkpt>
      <trkpt lat="44.393" lon="-0.76312">
        <ele>45</ele>
      </trkpt>
      <trkpt lat="44.39296" lon="-0.76391">
        <ele>45</ele>
      </trkpt>
      <trkpt lat="44.39288" lon="-0.76478">
        <ele>45</ele>
      </trkpt>
      <trkpt lat="44.39276" lon="-0.76556">
        <ele>45</ele>
      </trkpt>
      <trkpt lat="44.39276" lon="-0.76589">
        <ele>45</ele>
      </trkpt>
      <trkpt lat="44.39286" lon="-0.76642">
        <ele>44.3</ele>
      </trkpt>
      <trkpt lat="44.3932" lon="-0.76741">
        <ele>44.1</ele>
      </trkpt>
      <trkpt lat="44.39363" lon="-0.76868">
        <ele>44.9</ele>
      </trkpt>
      <trkpt lat="44.39399" lon="-0.7697">
        <ele>45</ele>
      </trkpt>
      <trkpt lat="44.39415" lon="-0.77037">
        <ele>44.1</ele>
      </trkpt>
      <trkpt lat="44.39429" lon="-0.77096">
        <ele>44.5</ele>
      </trkpt>
      <trkpt lat="44.39447" lon="-0.77143">
        <ele>44</ele>
      </trkpt>
      <trkpt lat="44.39469" lon="-0.77184">
        <ele>44</ele>
      </trkpt>
      <trkpt lat="44.39512" lon="-0.7723">
        <ele>44</ele>
      </trkpt>
      <trkpt lat="44.3955" lon="-0.77275">
        <ele>44</ele>
      </trkpt>
      <trkpt lat="44.39576" lon="-0.77341">
        <ele>44</ele>
      </trkpt>
      <trkpt lat="44.39595" lon="-0.77367">
        <ele>44</ele>
      </trkpt>
      <trkpt lat="44.39615" lon="-0.77383">
        <ele>43.9</ele>
      </trkpt>
      <trkpt lat="44.39636" lon="-0.77382">
        <ele>43.3</ele>
      </trkpt>
      <trkpt lat="44.39668" lon="-0.77367">
        <ele>43.2</ele>
      </trkpt>
      <trkpt lat="44.39691" lon="-0.77366">
        <ele>43</ele>
      </trkpt>
      <trkpt lat="44.39725" lon="-0.77378">
        <ele>43</ele>
      </trkpt>
      <trkpt lat="44.39775" lon="-0.77406">
        <ele>43</ele>
      </trkpt>
      <trkpt lat="44.39841" lon="-0.77441">
        <ele>43</ele>
      </trkpt>
      <trkpt lat="44.39893" lon="-0.77465">
        <ele>43</ele>
      </trkpt>
      <trkpt lat="44.39932" lon="-0.77486">
        <ele>43.8</ele>
      </trkpt>
      <trkpt lat="44.39977" lon="-0.77498">
        <ele>44</ele>
      </trkpt>
      <trkpt lat="44.40049" lon="-0.77577">
        <ele>43.2</ele>
      </trkpt>
      <trkpt lat="44.4008" lon="-0.77618">
        <ele>42.3</ele>
      </trkpt>
      <trkpt lat="44.40143" lon="-0.77659">
        <ele>42.2</ele>
      </trkpt>
      <trkpt lat="44.40203" lon="-0.77696">
        <ele>41.7</ele>
      </trkpt>
      <trkpt lat="44.40254" lon="-0.77703">
        <ele>42</ele>
      </trkpt>
      <trkpt lat="44.40298" lon="-0.77711">
        <ele>42</ele>
      </trkpt>
      <trkpt lat="44.40323" lon="-0.77729">
        <ele>42.6</ele>
      </trkpt>
      <trkpt lat="44.40352" lon="-0.7777">
        <ele>42</ele>
      </trkpt>
      <trkpt lat="44.40322" lon="-0.77804">
        <ele>40.9</ele>
      </trkpt>
      <trkpt lat="44.40271" lon="-0.77832">
        <ele>37.6</ele>
      </trkpt>
      <trkpt lat="44.40251" lon="-0.77858">
        <ele>33.5</ele>
      </trkpt>
      <trkpt lat="44.40249" lon="-0.77885">
        <ele>31</ele>
      </trkpt>
      <trkpt lat="44.40249" lon="-0.78014">
        <ele>26</ele>
      </trkpt>
      <trkpt lat="44.40251" lon="-0.78054">
        <ele>27</ele>
      </trkpt>
      <trkpt lat="44.40261" lon="-0.78079">
        <ele>26.4</ele>
      </trkpt>
      <trkpt lat="44.40299" lon="-0.78156">
        <ele>29.9</ele>
      </trkpt>
      <trkpt lat="44.40323" lon="-0.78207">
        <ele>34.4</ele>
      </trkpt>
      <trkpt lat="44.40318" lon="-0.78289">
        <ele>41.2</ele>
      </trkpt>
      <trkpt lat="44.403" lon="-0.78326">
        <ele>41</ele>
      </trkpt>
      <trkpt lat="44.40236" lon="-0.78348">
        <ele>41</ele>
      </trkpt>
      <trkpt lat="44.40185" lon="-0.78355">
        <ele>41</ele>
      </trkpt>
      <trkpt lat="44.40148" lon="-0.78397">
        <ele>40.8</ele>
      </trkpt>
      <trkpt lat="44.40133" lon="-0.78436">
        <ele>39.5</ele>
      </trkpt>
      <trkpt lat="44.40132" lon="-0.7849">
        <ele>36</ele>
      </trkpt>
      <trkpt lat="44.40139" lon="-0.78554">
        <ele>40</ele>
      </trkpt>
      <trkpt lat="44.40138" lon="-0.78592">
        <ele>41.3</ele>
      </trkpt>
      <trkpt lat="44.40132" lon="-0.78614">
        <ele>42</ele>
      </trkpt>
      <trkpt lat="44.40114" lon="-0.78688">
        <ele>42</ele>
      </trkpt>
      <trkpt lat="44.40155" lon="-0.78709">
        <ele>42.2</ele>
      </trkpt>
      <trkpt lat="44.40184" lon="-0.78731">
        <ele>42</ele>
      </trkpt>
      <trkpt lat="44.40188" lon="-0.78769">
        <ele>42</ele>
      </trkpt>
      <trkpt lat="44.40197" lon="-0.78813">
        <ele>42.1</ele>
      </trkpt>
      <trkpt lat="44.40208" lon="-0.78841">
        <ele>42.6</ele>
      </trkpt>
      <trkpt lat="44.40229" lon="-0.78867">
        <ele>42.8</ele>
      </trkpt>
      <trkpt lat="44.40237" lon="-0.78884">
        <ele>42.9</ele>
      </trkpt>
      <trkpt lat="44.40239" lon="-0.78903">
        <ele>43</ele>
      </trkpt>
      <trkpt lat="44.4024" lon="-0.78934">
        <ele>43</ele>
      </trkpt>
      <trkpt lat="44.40256" lon="-0.7898">
        <ele>43</ele>
      </trkpt>
      <trkpt lat="44.40275" lon="-0.79052">
        <ele>43</ele>
      </trkpt>
      <trkpt lat="44.40295" lon="-0.79132">
        <ele>43</ele>
      </trkpt>
      <trkpt lat="44.40309" lon="-0.79195">
        <ele>43</ele>
      </trkpt>
      <trkpt lat="44.40324" lon="-0.79263">
        <ele>43</ele>
      </trkpt>
      <trkpt lat="44.40345" lon="-0.79347">
        <ele>43</ele>
      </trkpt>
      <trkpt lat="44.40374" lon="-0.79454">
        <ele>43.6</ele>
      </trkpt>
      <trkpt lat="44.40383" lon="-0.79497">
        <ele>43.2</ele>
      </trkpt>
      <trkpt lat="44.40399" lon="-0.79608">
        <ele>43.4</ele>
      </trkpt>
      <trkpt lat="44.40422" lon="-0.79692">
        <ele>44</ele>
      </trkpt>
      <trkpt lat="44.40449" lon="-0.79801">
        <ele>43</ele>
      </trkpt>
      <trkpt lat="44.4048" lon="-0.7994">
        <ele>44</ele>
      </trkpt>
      <trkpt lat="44.40504" lon="-0.80024">
        <ele>44</ele>
      </trkpt>
      <trkpt lat="44.40522" lon="-0.80062">
        <ele>44</ele>
      </trkpt>
      <trkpt lat="44.40539" lon="-0.8012">
        <ele>44</ele>
      </trkpt>
      <trkpt lat="44.40555" lon="-0.80164">
        <ele>44</ele>
      </trkpt>
      <trkpt lat="44.4058" lon="-0.80215">
        <ele>41.4</ele>
      </trkpt>
      <trkpt lat="44.40599" lon="-0.80263">
        <ele>39.8</ele>
      </trkpt>
      <trkpt lat="44.4061" lon="-0.80322">
        <ele>37.3</ele>
      </trkpt>
      <trkpt lat="44.40606" lon="-0.80363">
        <ele>41.7</ele>
      </trkpt>
      <trkpt lat="44.40597" lon="-0.80385">
        <ele>43.4</ele>
      </trkpt>
      <trkpt lat="44.40584" lon="-0.80428">
        <ele>44</ele>
      </trkpt>
      <trkpt lat="44.40578" lon="-0.80478">
        <ele>44</ele>
      </trkpt>
      <trkpt lat="44.40577" lon="-0.80521">
        <ele>44</ele>
      </trkpt>
      <trkpt lat="44.40583" lon="-0.80584">
        <ele>44</ele>
      </trkpt>
      <trkpt lat="44.40591" lon="-0.80655">
        <ele>43.7</ele>
      </trkpt>
      <trkpt lat="44.40594" lon="-0.80755">
        <ele>42.1</ele>
      </trkpt>
      <trkpt lat="44.40599" lon="-0.80826">
        <ele>43.6</ele>
      </trkpt>
      <trkpt lat="44.40607" lon="-0.8093">
        <ele>44</ele>
      </trkpt>
      <trkpt lat="44.40608" lon="-0.80995">
        <ele>44.8</ele>
      </trkpt>
      <trkpt lat="44.4061" lon="-0.81117">
        <ele>45</ele>
      </trkpt>
      <trkpt lat="44.40607" lon="-0.81196">
        <ele>45</ele>
      </trkpt>
      <trkpt lat="44.40605" lon="-0.81298">
        <ele>44.8</ele>
      </trkpt>
      <trkpt lat="44.40607" lon="-0.81404">
        <ele>45</ele>
      </trkpt>
      <trkpt lat="44.40611" lon="-0.81477">
        <ele>44.7</ele>
      </trkpt>
      <trkpt lat="44.40616" lon="-0.81606">
        <ele>45</ele>
      </trkpt>
      <trkpt lat="44.40619" lon="-0.81689">
        <ele>44.6</ele>
      </trkpt>
      <trkpt lat="44.4063" lon="-0.81771">
        <ele>45</ele>
      </trkpt>
      <trkpt lat="44.40512" lon="-0.81764">
        <ele>45</ele>
      </trkpt>
      <trkpt lat="44.40367" lon="-0.81785">
        <ele>45</ele>
      </trkpt>
      <trkpt lat="44.40277" lon="-0.8182">
        <ele>45</ele>
      </trkpt>
      <trkpt lat="44.40183" lon="-0.81865">
        <ele>46</ele>
      </trkpt>
      <trkpt lat="44.40074" lon="-0.81865">
        <ele>46</ele>
      </trkpt>
      <trkpt lat="44.40029" lon="-0.81872">
        <ele>46</ele>
      </trkpt>
      <trkpt lat="44.39857" lon="-0.81853">
        <ele>47</ele>
      </trkpt>
      <trkpt lat="44.39819" lon="-0.81867">
        <ele>47</ele>
      </trkpt>
      <trkpt lat="44.4016" lon="-0.821">
        <ele>50</ele>
      </trkpt>
      <trkpt lat="44.40824" lon="-0.82554">
        <ele>45</ele>
      </trkpt>
      <trkpt lat="44.41885" lon="-0.82115">
        <ele>44.9</ele>
      </trkpt>
      <trkpt lat="44.41936" lon="-0.82119">
        <ele>44</ele>
      </trkpt>
      <trkpt lat="44.42012" lon="-0.82083">
        <ele>43.6</ele>
      </trkpt>
      <trkpt lat="44.42031" lon="-0.82071">
        <ele>43.5</ele>
      </trkpt>
      <trkpt lat="44.42101" lon="-0.82041">
        <ele>44.2</ele>
      </trkpt>
      <trkpt lat="44.42107" lon="-0.82038">
        <ele>44.1</ele>
      </trkpt>
      <trkpt lat="44.42138" lon="-0.82025">
        <ele>44.1</ele>
      </trkpt>
      <trkpt lat="44.42141" lon="-0.82024">
        <ele>44.1</ele>
      </trkpt>
      <trkpt lat="44.42153" lon="-0.82019">
        <ele>44.3</ele>
      </trkpt>
      <trkpt lat="44.42176" lon="-0.82009">
        <ele>44.4</ele>
      </trkpt>
      <trkpt lat="44.42181" lon="-0.82007">
        <ele>44.4</ele>
      </trkpt>
      <trkpt lat="44.42221" lon="-0.81991">
        <ele>44</ele>
      </trkpt>
      <trkpt lat="44.42227" lon="-0.81988">
        <ele>44</ele>
      </trkpt>
      <trkpt lat="44.42238" lon="-0.81984">
        <ele>44</ele>
      </trkpt>
      <trkpt lat="44.42243" lon="-0.81982">
        <ele>44</ele>
      </trkpt>
      <trkpt lat="44.42249" lon="-0.8198">
        <ele>44</ele>
      </trkpt>
      <trkpt lat="44.42261" lon="-0.81975">
        <ele>44</ele>
      </trkpt>
      <trkpt lat="44.42267" lon="-0.81972">
        <ele>44</ele>
      </trkpt>
      <trkpt lat="44.42276" lon="-0.8197">
        <ele>44</ele>
      </trkpt>
      <trkpt lat="44.4228" lon="-0.81969">
        <ele>44</ele>
      </trkpt>
      <trkpt lat="44.42303" lon="-0.81964">
        <ele>44</ele>
      </trkpt>
      <trkpt lat="44.42303" lon="-0.81972">
        <ele>44</ele>
      </trkpt>
      <trkpt lat="44.42306" lon="-0.82145">
        <ele>44</ele>
      </trkpt>
      <trkpt lat="44.42306" lon="-0.82153">
        <ele>44</ele>
      </trkpt>
      <trkpt lat="44.42308" lon="-0.82219">
        <ele>44</ele>
      </trkpt>
      <trkpt lat="44.42308" lon="-0.82228">
        <ele>44</ele>
      </trkpt>
      <trkpt lat="44.42309" lon="-0.82236">
        <ele>44</ele>
      </trkpt>
      <trkpt lat="44.42309" lon="-0.82244">
        <ele>44</ele>
      </trkpt>
      <trkpt lat="44.4231" lon="-0.82276">
        <ele>44</ele>
      </trkpt>
      <trkpt lat="44.4231" lon="-0.82292">
        <ele>44</ele>
      </trkpt>
      <trkpt lat="44.42313" lon="-0.82378">
        <ele>44</ele>
      </trkpt>
      <trkpt lat="44.42313" lon="-0.82386">
        <ele>44</ele>
      </trkpt>
      <trkpt lat="44.42315" lon="-0.8246">
        <ele>44</ele>
      </trkpt>
      <trkpt lat="44.42316" lon="-0.82513">
        <ele>44</ele>
      </trkpt>
      <trkpt lat="44.42317" lon="-0.82539">
        <ele>44</ele>
      </trkpt>
      <trkpt lat="44.42317" lon="-0.82548">
        <ele>44</ele>
      </trkpt>
      <trkpt lat="44.42317" lon="-0.82556">
        <ele>44</ele>
      </trkpt>
      <trkpt lat="44.42321" lon="-0.82688">
        <ele>44</ele>
      </trkpt>
      <trkpt lat="44.42323" lon="-0.82762">
        <ele>44</ele>
      </trkpt>
      <trkpt lat="44.42324" lon="-0.82827">
        <ele>44</ele>
      </trkpt>
      <trkpt lat="44.42325" lon="-0.82877">
        <ele>44</ele>
      </trkpt>
      <trkpt lat="44.42326" lon="-0.82886">
        <ele>44</ele>
      </trkpt>
      <trkpt lat="44.42326" lon="-0.82893">
        <ele>44</ele>
      </trkpt>
      <trkpt lat="44.42327" lon="-0.82899">
        <ele>44</ele>
      </trkpt>
      <trkpt lat="44.42328" lon="-0.82913">
        <ele>44</ele>
      </trkpt>
      <trkpt lat="44.4233" lon="-0.82927">
        <ele>44</ele>
      </trkpt>
      <trkpt lat="44.42331" lon="-0.82934">
        <ele>44</ele>
      </trkpt>
      <trkpt lat="44.42332" lon="-0.82941">
        <ele>44</ele>
      </trkpt>
      <trkpt lat="44.42333" lon="-0.82948">
        <ele>44</ele>
      </trkpt>
      <trkpt lat="44.42348" lon="-0.83008">
        <ele>44</ele>
      </trkpt>
      <trkpt lat="44.4235" lon="-0.83015">
        <ele>44</ele>
      </trkpt>
      <trkpt lat="44.42352" lon="-0.83022">
        <ele>44</ele>
      </trkpt>
      <trkpt lat="44.42354" lon="-0.83029">
        <ele>44</ele>
      </trkpt>
      <trkpt lat="44.42358" lon="-0.83044">
        <ele>44.5</ele>
      </trkpt>
      <trkpt lat="44.42363" lon="-0.83062">
        <ele>44.7</ele>
      </trkpt>
      <trkpt lat="44.42365" lon="-0.83068">
        <ele>44.5</ele>
      </trkpt>
      <trkpt lat="44.4237" lon="-0.83088">
        <ele>44</ele>
      </trkpt>
      <trkpt lat="44.42372" lon="-0.83095">
        <ele>44</ele>
      </trkpt>
      <trkpt lat="44.42373" lon="-0.83102">
        <ele>44</ele>
      </trkpt>
      <trkpt lat="44.42381" lon="-0.83146">
        <ele>44</ele>
      </trkpt>
      <trkpt lat="44.42383" lon="-0.83163">
        <ele>44</ele>
      </trkpt>
      <trkpt lat="44.42387" lon="-0.83188">
        <ele>44</ele>
      </trkpt>
      <trkpt lat="44.42388" lon="-0.83196">
        <ele>44.1</ele>
      </trkpt>
      <trkpt lat="44.42389" lon="-0.83203">
        <ele>44.3</ele>
      </trkpt>
      <trkpt lat="44.42389" lon="-0.8321">
        <ele>44.6</ele>
      </trkpt>
      <trkpt lat="44.42389" lon="-0.83217">
        <ele>44.8</ele>
      </trkpt>
      <trkpt lat="44.42389" lon="-0.83227">
        <ele>44.8</ele>
      </trkpt>
      <trkpt lat="44.42388" lon="-0.83239">
        <ele>44.4</ele>
      </trkpt>
      <trkpt lat="44.42387" lon="-0.83247">
        <ele>44.2</ele>
      </trkpt>
      <trkpt lat="44.42384" lon="-0.83262">
        <ele>44.2</ele>
      </trkpt>
      <trkpt lat="44.42382" lon="-0.83269">
        <ele>44.3</ele>
      </trkpt>
      <trkpt lat="44.42379" lon="-0.83277">
        <ele>44.4</ele>
      </trkpt>
      <trkpt lat="44.42382" lon="-0.83277">
        <ele>44.2</ele>
      </trkpt>
      <trkpt lat="44.42403" lon="-0.83275">
        <ele>44</ele>
      </trkpt>
      <trkpt lat="44.42417" lon="-0.83276">
        <ele>44</ele>
      </trkpt>
      <trkpt lat="44.4245" lon="-0.83276">
        <ele>44.2</ele>
      </trkpt>
      <trkpt lat="44.42536" lon="-0.83277">
        <ele>44</ele>
      </trkpt>
      <trkpt lat="44.42711" lon="-0.83278">
        <ele>44</ele>
      </trkpt>
      <trkpt lat="44.42811" lon="-0.83279">
        <ele>44</ele>
      </trkpt>
      <trkpt lat="44.42952" lon="-0.8328">
        <ele>44</ele>
      </trkpt>
      <trkpt lat="44.43047" lon="-0.83282">
        <ele>43.7</ele>
      </trkpt>
      <trkpt lat="44.43068" lon="-0.83282">
        <ele>44</ele>
      </trkpt>
      <trkpt lat="44.43108" lon="-0.83282">
        <ele>43.9</ele>
      </trkpt>
      <trkpt lat="44.43169" lon="-0.83282">
        <ele>43.2</ele>
      </trkpt>
      <trkpt lat="44.43186" lon="-0.83283">
        <ele>43.7</ele>
      </trkpt>
      <trkpt lat="44.43202" lon="-0.83283">
        <ele>43.8</ele>
      </trkpt>
      <trkpt lat="44.43236" lon="-0.83284">
        <ele>43.2</ele>
      </trkpt>
      <trkpt lat="44.43245" lon="-0.83284">
        <ele>43.2</ele>
      </trkpt>
      <trkpt lat="44.433" lon="-0.8328">
        <ele>43</ele>
      </trkpt>
      <trkpt lat="44.43319" lon="-0.83277">
        <ele>43</ele>
      </trkpt>
      <trkpt lat="44.43338" lon="-0.83275">
        <ele>43</ele>
      </trkpt>
      <trkpt lat="44.4343" lon="-0.8326">
        <ele>43.3</ele>
      </trkpt>
      <trkpt lat="44.43501" lon="-0.83249">
        <ele>43</ele>
      </trkpt>
      <trkpt lat="44.43558" lon="-0.8324">
        <ele>43</ele>
      </trkpt>
      <trkpt lat="44.43594" lon="-0.83235">
        <ele>43</ele>
      </trkpt>
      <trkpt lat="44.43613" lon="-0.83232">
        <ele>43</ele>
      </trkpt>
      <trkpt lat="44.43668" lon="-0.83224">
        <ele>43</ele>
      </trkpt>
      <trkpt lat="44.43685" lon="-0.83221">
        <ele>43</ele>
      </trkpt>
      <trkpt lat="44.43774" lon="-0.83207">
        <ele>43</ele>
      </trkpt>
      <trkpt lat="44.43777" lon="-0.83207">
        <ele>43</ele>
      </trkpt>
      <trkpt lat="44.43782" lon="-0.83206">
        <ele>43</ele>
      </trkpt>
      <trkpt lat="44.438" lon="-0.83203">
        <ele>43</ele>
      </trkpt>
      <trkpt lat="44.43854" lon="-0.83194">
        <ele>43</ele>
      </trkpt>
      <trkpt lat="44.43889" lon="-0.83189">
        <ele>43</ele>
      </trkpt>
      <trkpt lat="44.43929" lon="-0.83182">
        <ele>42.2</ele>
      </trkpt>
      <trkpt lat="44.43945" lon="-0.8318">
        <ele>42</ele>
      </trkpt>
      <trkpt lat="44.43961" lon="-0.83177">
        <ele>42.6</ele>
      </trkpt>
      <trkpt lat="44.44076" lon="-0.83159">
        <ele>42.3</ele>
      </trkpt>
      <trkpt lat="44.4414" lon="-0.83149">
        <ele>42</ele>
      </trkpt>
      <trkpt lat="44.44161" lon="-0.83145">
        <ele>42.2</ele>
      </trkpt>
      <trkpt lat="44.44182" lon="-0.83142">
        <ele>42.6</ele>
      </trkpt>
      <trkpt lat="44.44187" lon="-0.83141">
        <ele>42.7</ele>
      </trkpt>
      <trkpt lat="44.44228" lon="-0.83136">
        <ele>42</ele>
      </trkpt>
      <trkpt lat="44.44249" lon="-0.83133">
        <ele>42</ele>
      </trkpt>
      <trkpt lat="44.44288" lon="-0.83127">
        <ele>42</ele>
      </trkpt>
      <trkpt lat="44.44308" lon="-0.83123">
        <ele>42</ele>
      </trkpt>
      <trkpt lat="44.4432" lon="-0.83121">
        <ele>42.2</ele>
      </trkpt>
      <trkpt lat="44.44332" lon="-0.83119">
        <ele>42.3</ele>
      </trkpt>
      <trkpt lat="44.44346" lon="-0.83117">
        <ele>42.5</ele>
      </trkpt>
      <trkpt lat="44.44372" lon="-0.83113">
        <ele>42.6</ele>
      </trkpt>
      <trkpt lat="44.44386" lon="-0.83111">
        <ele>42.1</ele>
      </trkpt>
      <trkpt lat="44.44399" lon="-0.83109">
        <ele>42</ele>
      </trkpt>
      <trkpt lat="44.44417" lon="-0.83106">
        <ele>42</ele>
      </trkpt>
      <trkpt lat="44.44454" lon="-0.831">
        <ele>42</ele>
      </trkpt>
      <trkpt lat="44.44472" lon="-0.83097">
        <ele>42</ele>
      </trkpt>
      <trkpt lat="44.44529" lon="-0.83087">
        <ele>42</ele>
      </trkpt>
      <trkpt lat="44.44549" lon="-0.83084">
        <ele>42</ele>
      </trkpt>
      <trkpt lat="44.44587" lon="-0.83077">
        <ele>42</ele>
      </trkpt>
      <trkpt lat="44.44606" lon="-0.83074">
        <ele>42</ele>
      </trkpt>
      <trkpt lat="44.44644" lon="-0.83068">
        <ele>42</ele>
      </trkpt>
      <trkpt lat="44.44664" lon="-0.83065">
        <ele>42</ele>
      </trkpt>
      <trkpt lat="44.4476" lon="-0.83049">
        <ele>42</ele>
      </trkpt>
      <trkpt lat="44.44799" lon="-0.83043">
        <ele>41.6</ele>
      </trkpt>
      <trkpt lat="44.44928" lon="-0.83023">
        <ele>41</ele>
      </trkpt>
      <trkpt lat="44.44988" lon="-0.83014">
        <ele>41</ele>
      </trkpt>
      <trkpt lat="44.45028" lon="-0.83008">
        <ele>41</ele>
      </trkpt>
      <trkpt lat="44.45046" lon="-0.83006">
        <ele>41</ele>
      </trkpt>
      <trkpt lat="44.45101" lon="-0.82998">
        <ele>41</ele>
      </trkpt>
      <trkpt lat="44.452" lon="-0.82984">
        <ele>41</ele>
      </trkpt>
      <trkpt lat="44.45219" lon="-0.82981">
        <ele>41</ele>
      </trkpt>
      <trkpt lat="44.45255" lon="-0.82976">
        <ele>41</ele>
      </trkpt>
      <trkpt lat="44.45274" lon="-0.82973">
        <ele>41</ele>
      </trkpt>
      <trkpt lat="44.45311" lon="-0.82968">
        <ele>41</ele>
      </trkpt>
      <trkpt lat="44.4538" lon="-0.82958">
        <ele>41</ele>
      </trkpt>
      <trkpt lat="44.45481" lon="-0.82943">
        <ele>40.4</ele>
      </trkpt>
      <trkpt lat="44.45503" lon="-0.82943">
        <ele>40.9</ele>
      </trkpt>
      <trkpt lat="44.45518" lon="-0.82943">
        <ele>40.4</ele>
      </trkpt>
      <trkpt lat="44.45528" lon="-0.82945">
        <ele>40</ele>
      </trkpt>
      <trkpt lat="44.45539" lon="-0.82946">
        <ele>40.1</ele>
      </trkpt>
      <trkpt lat="44.45545" lon="-0.82948">
        <ele>40.1</ele>
      </trkpt>
      <trkpt lat="44.45559" lon="-0.82954">
        <ele>40.4</ele>
      </trkpt>
      <trkpt lat="44.45563" lon="-0.82955">
        <ele>40.5</ele>
      </trkpt>
      <trkpt lat="44.45567" lon="-0.82957">
        <ele>40.7</ele>
      </trkpt>
      <trkpt lat="44.45648" lon="-0.83">
        <ele>40</ele>
      </trkpt>
      <trkpt lat="44.45688" lon="-0.83021">
        <ele>40.4</ele>
      </trkpt>
      <trkpt lat="44.45708" lon="-0.83031">
        <ele>40.5</ele>
      </trkpt>
      <trkpt lat="44.45725" lon="-0.83041">
        <ele>40.5</ele>
      </trkpt>
      <trkpt lat="44.4576" lon="-0.8306">
        <ele>40</ele>
      </trkpt>
      <trkpt lat="44.45792" lon="-0.83077">
        <ele>40</ele>
      </trkpt>
      <trkpt lat="44.45825" lon="-0.83095">
        <ele>40</ele>
      </trkpt>
      <trkpt lat="44.45861" lon="-0.83115">
        <ele>40</ele>
      </trkpt>
      <trkpt lat="44.45891" lon="-0.83131">
        <ele>40</ele>
      </trkpt>
      <trkpt lat="44.45906" lon="-0.83139">
        <ele>40</ele>
      </trkpt>
      <trkpt lat="44.4603" lon="-0.83205">
        <ele>40</ele>
      </trkpt>
      <trkpt lat="44.46065" lon="-0.83224">
        <ele>40</ele>
      </trkpt>
      <trkpt lat="44.46089" lon="-0.83237">
        <ele>40</ele>
      </trkpt>
      <trkpt lat="44.46132" lon="-0.8326">
        <ele>39.9</ele>
      </trkpt>
      <trkpt lat="44.46153" lon="-0.83272">
        <ele>40</ele>
      </trkpt>
      <trkpt lat="44.46167" lon="-0.8328">
        <ele>40</ele>
      </trkpt>
      <trkpt lat="44.46204" lon="-0.83297">
        <ele>40</ele>
      </trkpt>
      <trkpt lat="44.46225" lon="-0.83305">
        <ele>39.9</ele>
      </trkpt>
      <trkpt lat="44.46226" lon="-0.83305">
        <ele>39.9</ele>
      </trkpt>
      <trkpt lat="44.46249" lon="-0.8331">
        <ele>39.2</ele>
      </trkpt>
      <trkpt lat="44.46289" lon="-0.83311">
        <ele>39.5</ele>
      </trkpt>
      <trkpt lat="44.46306" lon="-0.83311">
        <ele>40</ele>
      </trkpt>
      <trkpt lat="44.46323" lon="-0.8331">
        <ele>39.4</ele>
      </trkpt>
      <trkpt lat="44.46345" lon="-0.8331">
        <ele>39.4</ele>
      </trkpt>
      <trkpt lat="44.46366" lon="-0.83309">
        <ele>39.8</ele>
      </trkpt>
      <trkpt lat="44.46469" lon="-0.83307">
        <ele>39</ele>
      </trkpt>
      <trkpt lat="44.46507" lon="-0.83306">
        <ele>39</ele>
      </trkpt>
      <trkpt lat="44.46564" lon="-0.83305">
        <ele>39</ele>
      </trkpt>
      <trkpt lat="44.46583" lon="-0.83305">
        <ele>39</ele>
      </trkpt>
      <trkpt lat="44.46603" lon="-0.83305">
        <ele>39</ele>
      </trkpt>
      <trkpt lat="44.46617" lon="-0.83305">
        <ele>39</ele>
      </trkpt>
      <trkpt lat="44.46619" lon="-0.83289">
        <ele>39</ele>
      </trkpt>
      <trkpt lat="44.46626" lon="-0.83234">
        <ele>38.7</ele>
      </trkpt>
      <trkpt lat="44.46643" lon="-0.83098">
        <ele>38.5</ele>
      </trkpt>
      <trkpt lat="44.46651" lon="-0.8303">
        <ele>39</ele>
      </trkpt>
      <trkpt lat="44.46669" lon="-0.82891">
        <ele>38.1</ele>
      </trkpt>
      <trkpt lat="44.46674" lon="-0.82845">
        <ele>38.8</ele>
      </trkpt>
      <trkpt lat="44.46681" lon="-0.82787">
        <ele>38.2</ele>
      </trkpt>
      <trkpt lat="44.46694" lon="-0.8268">
        <ele>38</ele>
      </trkpt>
      <trkpt lat="44.46709" lon="-0.82567">
        <ele>38.2</ele>
      </trkpt>
      <trkpt lat="44.4672" lon="-0.82472">
        <ele>38</ele>
      </trkpt>
      <trkpt lat="44.46726" lon="-0.82425">
        <ele>38</ele>
      </trkpt>
      <trkpt lat="44.46743" lon="-0.82292">
        <ele>37.4</ele>
      </trkpt>
      <trkpt lat="44.46762" lon="-0.82132">
        <ele>38.2</ele>
      </trkpt>
      <trkpt lat="44.4678" lon="-0.81984">
        <ele>38</ele>
      </trkpt>
      <trkpt lat="44.46798" lon="-0.81834">
        <ele>39.2</ele>
      </trkpt>
      <trkpt lat="44.46819" lon="-0.81664">
        <ele>37</ele>
      </trkpt>
      <trkpt lat="44.4684" lon="-0.81491">
        <ele>37</ele>
      </trkpt>
      <trkpt lat="44.46845" lon="-0.81444">
        <ele>37</ele>
      </trkpt>
      <trkpt lat="44.46862" lon="-0.81305">
        <ele>37</ele>
      </trkpt>
      <trkpt lat="44.46865" lon="-0.81279">
        <ele>36.9</ele>
      </trkpt>
      <trkpt lat="44.46872" lon="-0.81223">
        <ele>36</ele>
      </trkpt>
      <trkpt lat="44.46885" lon="-0.81111">
        <ele>36</ele>
      </trkpt>
      <trkpt lat="44.46904" lon="-0.80955">
        <ele>36</ele>
      </trkpt>
      <trkpt lat="44.46922" lon="-0.80834">
        <ele>34.2</ele>
      </trkpt>
      <trkpt lat="44.46932" lon="-0.80776">
        <ele>32.3</ele>
      </trkpt>
      <trkpt lat="44.46948" lon="-0.80671">
        <ele>26</ele>
      </trkpt>
      <trkpt lat="44.46962" lon="-0.80584">
        <ele>24</ele>
      </trkpt>
      <trkpt lat="44.46975" lon="-0.80497">
        <ele>24.1</ele>
      </trkpt>
      <trkpt lat="44.46983" lon="-0.80449">
        <ele>25</ele>
      </trkpt>
      <trkpt lat="44.46985" lon="-0.80433">
        <ele>25</ele>
      </trkpt>
      <trkpt lat="44.47002" lon="-0.80431">
        <ele>25</ele>
      </trkpt>
      <trkpt lat="44.47008" lon="-0.80432">
        <ele>25</ele>
      </trkpt>
      <trkpt lat="44.47013" lon="-0.80432">
        <ele>25</ele>
      </trkpt>
      <trkpt lat="44.47022" lon="-0.80433">
        <ele>25</ele>
      </trkpt>
      <trkpt lat="44.47031" lon="-0.80434">
        <ele>25</ele>
      </trkpt>
      <trkpt lat="44.47042" lon="-0.80436">
        <ele>25</ele>
      </trkpt>
      <trkpt lat="44.47053" lon="-0.80438">
        <ele>25</ele>
      </trkpt>
      <trkpt lat="44.47061" lon="-0.80439">
        <ele>25</ele>
      </trkpt>
      <trkpt lat="44.4707" lon="-0.8044">
        <ele>25</ele>
      </trkpt>
      <trkpt lat="44.47087" lon="-0.80442">
        <ele>24.9</ele>
      </trkpt>
      <trkpt lat="44.47105" lon="-0.80444">
        <ele>24.2</ele>
      </trkpt>
      <trkpt lat="44.47125" lon="-0.80445">
        <ele>24</ele>
      </trkpt>
      <trkpt lat="44.47204" lon="-0.80438">
        <ele>24.4</ele>
      </trkpt>
      <trkpt lat="44.4725" lon="-0.80433">
        <ele>24</ele>
      </trkpt>
      <trkpt lat="44.47261" lon="-0.80432">
        <ele>24</ele>
      </trkpt>
      <trkpt lat="44.47272" lon="-0.80432">
        <ele>24</ele>
      </trkpt>
      <trkpt lat="44.47283" lon="-0.80432">
        <ele>24</ele>
      </trkpt>
      <trkpt lat="44.47288" lon="-0.80434">
        <ele>24</ele>
      </trkpt>
      <trkpt lat="44.47307" lon="-0.80445">
        <ele>24</ele>
      </trkpt>
      <trkpt lat="44.47316" lon="-0.80452">
        <ele>24</ele>
      </trkpt>
      <trkpt lat="44.47363" lon="-0.80479">
        <ele>22.1</ele>
      </trkpt>
      <trkpt lat="44.47402" lon="-0.80501">
        <ele>19.5</ele>
      </trkpt>
      <trkpt lat="44.47411" lon="-0.80506">
        <ele>19.2</ele>
      </trkpt>
      <trkpt lat="44.47417" lon="-0.80514">
        <ele>19</ele>
      </trkpt>
      <trkpt lat="44.47422" lon="-0.8052">
        <ele>19</ele>
      </trkpt>
      <trkpt lat="44.47427" lon="-0.80525">
        <ele>19</ele>
      </trkpt>
      <trkpt lat="44.4743" lon="-0.80534">
        <ele>19</ele>
      </trkpt>
      <trkpt lat="44.47433" lon="-0.80543">
        <ele>19</ele>
      </trkpt>
      <trkpt lat="44.47435" lon="-0.8055">
        <ele>19</ele>
      </trkpt>
      <trkpt lat="44.47438" lon="-0.80557">
        <ele>19</ele>
      </trkpt>
      <trkpt lat="44.47441" lon="-0.80565">
        <ele>19</ele>
      </trkpt>
      <trkpt lat="44.47444" lon="-0.80572">
        <ele>19</ele>
      </trkpt>
      <trkpt lat="44.47453" lon="-0.8059">
        <ele>19.6</ele>
      </trkpt>
      <trkpt lat="44.47457" lon="-0.80599">
        <ele>20.2</ele>
      </trkpt>
      <trkpt lat="44.47469" lon="-0.80619">
        <ele>20.9</ele>
      </trkpt>
      <trkpt lat="44.47479" lon="-0.80633">
        <ele>21.5</ele>
      </trkpt>
      <trkpt lat="44.47485" lon="-0.80639">
        <ele>22</ele>
      </trkpt>
      <trkpt lat="44.47491" lon="-0.80644">
        <ele>22.4</ele>
      </trkpt>
      <trkpt lat="44.47503" lon="-0.80652">
        <ele>23</ele>
      </trkpt>
      <trkpt lat="44.47512" lon="-0.80656">
        <ele>23.4</ele>
      </trkpt>
      <trkpt lat="44.47532" lon="-0.80665">
        <ele>23.9</ele>
      </trkpt>
      <trkpt lat="44.47542" lon="-0.80669">
        <ele>24</ele>
      </trkpt>
      <trkpt lat="44.47553" lon="-0.80673">
        <ele>24</ele>
      </trkpt>
      <trkpt lat="44.4756" lon="-0.80676">
        <ele>24</ele>
      </trkpt>
      <trkpt lat="44.47575" lon="-0.80683">
        <ele>24</ele>
      </trkpt>
      <trkpt lat="44.47585" lon="-0.80688">
        <ele>23.9</ele>
      </trkpt>
      <trkpt lat="44.47598" lon="-0.80694">
        <ele>23.5</ele>
      </trkpt>
      <trkpt lat="44.47614" lon="-0.80701">
        <ele>23.1</ele>
      </trkpt>
      <trkpt lat="44.47622" lon="-0.80705">
        <ele>22.9</ele>
      </trkpt>
      <trkpt lat="44.47637" lon="-0.80711">
        <ele>22.8</ele>
      </trkpt>
      <trkpt lat="44.47644" lon="-0.80714">
        <ele>23.1</ele>
      </trkpt>
      <trkpt lat="44.47652" lon="-0.80716">
        <ele>23.3</ele>
      </trkpt>
      <trkpt lat="44.47661" lon="-0.80719">
        <ele>23.5</ele>
      </trkpt>
      <trkpt lat="44.47726" lon="-0.80727">
        <ele>23.3</ele>
      </trkpt>
      <trkpt lat="44.47732" lon="-0.80727">
        <ele>23.4</ele>
      </trkpt>
      <trkpt lat="44.47746" lon="-0.8073">
        <ele>23.8</ele>
      </trkpt>
      <trkpt lat="44.47758" lon="-0.80734">
        <ele>24.1</ele>
      </trkpt>
      <trkpt lat="44.47805" lon="-0.80756">
        <ele>23</ele>
      </trkpt>
      <trkpt lat="44.47814" lon="-0.8076">
        <ele>23</ele>
      </trkpt>
      <trkpt lat="44.47866" lon="-0.80789">
        <ele>22</ele>
      </trkpt>
      <trkpt lat="44.47914" lon="-0.80816">
        <ele>21.7</ele>
      </trkpt>
      <trkpt lat="44.47932" lon="-0.80825">
        <ele>20.3</ele>
      </trkpt>
      <trkpt lat="44.47956" lon="-0.80838">
        <ele>20.3</ele>
      </trkpt>
      <trkpt lat="44.47963" lon="-0.80843">
        <ele>21.1</ele>
      </trkpt>
      <trkpt lat="44.4797" lon="-0.80848">
        <ele>21.8</ele>
      </trkpt>
      <trkpt lat="44.47977" lon="-0.80853">
        <ele>22.1</ele>
      </trkpt>
      <trkpt lat="44.47996" lon="-0.80864">
        <ele>22.1</ele>
      </trkpt>
      <trkpt lat="44.48006" lon="-0.8087">
        <ele>22.5</ele>
      </trkpt>
      <trkpt lat="44.48015" lon="-0.80876">
        <ele>22.8</ele>
      </trkpt>
      <trkpt lat="44.48015" lon="-0.80876">
        <ele>22.8</ele>
      </trkpt>
      <trkpt lat="44.48033" lon="-0.80886">
        <ele>22.8</ele>
      </trkpt>
      <trkpt lat="44.48069" lon="-0.80906">
        <ele>22</ele>
      </trkpt>
      <trkpt lat="44.48088" lon="-0.80918">
        <ele>22</ele>
      </trkpt>
      <trkpt lat="44.48097" lon="-0.80922">
        <ele>22.2</ele>
      </trkpt>
      <trkpt lat="44.48106" lon="-0.80926">
        <ele>22.3</ele>
      </trkpt>
      <trkpt lat="44.48113" lon="-0.80928">
        <ele>22.4</ele>
      </trkpt>
      <trkpt lat="44.48121" lon="-0.80929">
        <ele>22.3</ele>
      </trkpt>
      <trkpt lat="44.48128" lon="-0.8093">
        <ele>22.2</ele>
      </trkpt>
      <trkpt lat="44.48135" lon="-0.80931">
        <ele>22.1</ele>
      </trkpt>
      <trkpt lat="44.48141" lon="-0.80931">
        <ele>22</ele>
      </trkpt>
      <trkpt lat="44.48147" lon="-0.80931">
        <ele>22.2</ele>
      </trkpt>
      <trkpt lat="44.48203" lon="-0.8093">
        <ele>22</ele>
      </trkpt>
      <trkpt lat="44.48215" lon="-0.8093">
        <ele>22</ele>
      </trkpt>
      <trkpt lat="44.48237" lon="-0.8093">
        <ele>22</ele>
      </trkpt>
      <trkpt lat="44.4826" lon="-0.80929">
        <ele>22</ele>
      </trkpt>
      <trkpt lat="44.48271" lon="-0.80928">
        <ele>22</ele>
      </trkpt>
      <trkpt lat="44.48282" lon="-0.80928">
        <ele>22</ele>
      </trkpt>
      <trkpt lat="44.48293" lon="-0.80927">
        <ele>22</ele>
      </trkpt>
      <trkpt lat="44.48303" lon="-0.80927">
        <ele>22</ele>
      </trkpt>
      <trkpt lat="44.48321" lon="-0.80926">
        <ele>21.6</ele>
      </trkpt>
      <trkpt lat="44.48338" lon="-0.80927">
        <ele>21.4</ele>
      </trkpt>
      <trkpt lat="44.48353" lon="-0.80928">
        <ele>21.4</ele>
      </trkpt>
      <trkpt lat="44.48361" lon="-0.80929">
        <ele>21.4</ele>
      </trkpt>
      <trkpt lat="44.4838" lon="-0.80931">
        <ele>21.5</ele>
      </trkpt>
      <trkpt lat="44.48399" lon="-0.80933">
        <ele>21.4</ele>
      </trkpt>
      <trkpt lat="44.48449" lon="-0.80943">
        <ele>21</ele>
      </trkpt>
      <trkpt lat="44.48471" lon="-0.80949">
        <ele>21.2</ele>
      </trkpt>
      <trkpt lat="44.48528" lon="-0.80968">
        <ele>21</ele>
      </trkpt>
      <trkpt lat="44.4858" lon="-0.80985">
        <ele>21</ele>
      </trkpt>
      <trkpt lat="44.48591" lon="-0.80988">
        <ele>21</ele>
      </trkpt>
      <trkpt lat="44.48607" lon="-0.80992">
        <ele>21</ele>
      </trkpt>
      <trkpt lat="44.48614" lon="-0.80994">
        <ele>21</ele>
      </trkpt>
      <trkpt lat="44.48628" lon="-0.80997">
        <ele>20.9</ele>
      </trkpt>
      <trkpt lat="44.48666" lon="-0.81002">
        <ele>21</ele>
      </trkpt>
      <trkpt lat="44.48687" lon="-0.81004">
        <ele>20.3</ele>
      </trkpt>
      <trkpt lat="44.48708" lon="-0.81007">
        <ele>20.5</ele>
      </trkpt>
      <trkpt lat="44.48718" lon="-0.81008">
        <ele>20.9</ele>
      </trkpt>
      <trkpt lat="44.48727" lon="-0.8101">
        <ele>20.8</ele>
      </trkpt>
      <trkpt lat="44.48744" lon="-0.81013">
        <ele>20.2</ele>
      </trkpt>
      <trkpt lat="44.48753" lon="-0.81015">
        <ele>20</ele>
      </trkpt>
      <trkpt lat="44.48759" lon="-0.81017">
        <ele>20</ele>
      </trkpt>
      <trkpt lat="44.48765" lon="-0.8102">
        <ele>20</ele>
      </trkpt>
      <trkpt lat="44.48775" lon="-0.81028">
        <ele>20</ele>
      </trkpt>
      <trkpt lat="44.48781" lon="-0.81035">
        <ele>20</ele>
      </trkpt>
      <trkpt lat="44.48787" lon="-0.81043">
        <ele>20</ele>
      </trkpt>
      <trkpt lat="44.48791" lon="-0.8105">
        <ele>20</ele>
      </trkpt>
      <trkpt lat="44.48794" lon="-0.81057">
        <ele>20</ele>
      </trkpt>
      <trkpt lat="44.48797" lon="-0.81065">
        <ele>20</ele>
      </trkpt>
      <trkpt lat="44.488" lon="-0.81079">
        <ele>20</ele>
      </trkpt>
      <trkpt lat="44.48804" lon="-0.81089">
        <ele>20</ele>
      </trkpt>
      <trkpt lat="44.48806" lon="-0.81094">
        <ele>20</ele>
      </trkpt>
      <trkpt lat="44.48813" lon="-0.81106">
        <ele>20</ele>
      </trkpt>
      <trkpt lat="44.4882" lon="-0.81114">
        <ele>20.1</ele>
      </trkpt>
      <trkpt lat="44.48827" lon="-0.8112">
        <ele>20.3</ele>
      </trkpt>
      <trkpt lat="44.48834" lon="-0.81126">
        <ele>20.6</ele>
      </trkpt>
      <trkpt lat="44.48841" lon="-0.81131">
        <ele>20.7</ele>
      </trkpt>
      <trkpt lat="44.48849" lon="-0.81136">
        <ele>20.9</ele>
      </trkpt>
      <trkpt lat="44.48865" lon="-0.81143">
        <ele>20.9</ele>
      </trkpt>
      <trkpt lat="44.48872" lon="-0.81146">
        <ele>20.7</ele>
      </trkpt>
      <trkpt lat="44.48911" lon="-0.81158">
        <ele>20.7</ele>
      </trkpt>
      <trkpt lat="44.48921" lon="-0.81161">
        <ele>20.7</ele>
      </trkpt>
      <trkpt lat="44.4893" lon="-0.81164">
        <ele>20.5</ele>
      </trkpt>
      <trkpt lat="44.4894" lon="-0.81167">
        <ele>20.2</ele>
      </trkpt>
      <trkpt lat="44.4895" lon="-0.8117">
        <ele>20.1</ele>
      </trkpt>
      <trkpt lat="44.4896" lon="-0.81173">
        <ele>20.2</ele>
      </trkpt>
      <trkpt lat="44.49" lon="-0.81184">
        <ele>20.6</ele>
      </trkpt>
      <trkpt lat="44.49011" lon="-0.81187">
        <ele>20.4</ele>
      </trkpt>
      <trkpt lat="44.49017" lon="-0.81189">
        <ele>20.3</ele>
      </trkpt>
      <trkpt lat="44.49024" lon="-0.8119">
        <ele>20.1</ele>
      </trkpt>
      <trkpt lat="44.49041" lon="-0.81194">
        <ele>20</ele>
      </trkpt>
      <trkpt lat="44.49051" lon="-0.81195">
        <ele>20</ele>
      </trkpt>
      <trkpt lat="44.49059" lon="-0.81193">
        <ele>19.8</ele>
      </trkpt>
      <trkpt lat="44.49068" lon="-0.81189">
        <ele>19.4</ele>
      </trkpt>
      <trkpt lat="44.49077" lon="-0.81182">
        <ele>18.8</ele>
      </trkpt>
      <trkpt lat="44.49109" lon="-0.81152">
        <ele>17.5</ele>
      </trkpt>
      <trkpt lat="44.49111" lon="-0.81142">
        <ele>17.1</ele>
      </trkpt>
      <trkpt lat="44.49128" lon="-0.81057">
        <ele>16.6</ele>
      </trkpt>
      <trkpt lat="44.49153" lon="-0.8093">
        <ele>16.5</ele>
      </trkpt>
      <trkpt lat="44.49184" lon="-0.80774">
        <ele>16.7</ele>
      </trkpt>
      <trkpt lat="44.49199" lon="-0.80701">
        <ele>18</ele>
      </trkpt>
      <trkpt lat="44.49201" lon="-0.8069">
        <ele>17.6</ele>
      </trkpt>
      <trkpt lat="44.49202" lon="-0.80687">
        <ele>17.5</ele>
      </trkpt>
      <trkpt lat="44.49203" lon="-0.80678">
        <ele>17.1</ele>
      </trkpt>
      <trkpt lat="44.49207" lon="-0.8066">
        <ele>16.1</ele>
      </trkpt>
      <trkpt lat="44.49219" lon="-0.80603">
        <ele>16.8</ele>
      </trkpt>
      <trkpt lat="44.49221" lon="-0.80593">
        <ele>17.8</ele>
      </trkpt>
      <trkpt lat="44.49223" lon="-0.80583">
        <ele>19</ele>
      </trkpt>
      <trkpt lat="44.49229" lon="-0.80553">
        <ele>18.4</ele>
      </trkpt>
      <trkpt lat="44.49232" lon="-0.80538">
        <ele>17.5</ele>
      </trkpt>
      <trkpt lat="44.49233" lon="-0.8053">
        <ele>17.1</ele>
      </trkpt>
      <trkpt lat="44.49233" lon="-0.8053">
        <ele>17.1</ele>
      </trkpt>
      <trkpt lat="44.49236" lon="-0.80515">
        <ele>17</ele>
      </trkpt>
      <trkpt lat="44.49237" lon="-0.80508">
        <ele>17</ele>
      </trkpt>
      <trkpt lat="44.49239" lon="-0.80493">
        <ele>16.9</ele>
      </trkpt>
      <trkpt lat="44.4924" lon="-0.80486">
        <ele>16.8</ele>
      </trkpt>
      <trkpt lat="44.4924" lon="-0.80479">
        <ele>16.7</ele>
      </trkpt>
      <trkpt lat="44.4924" lon="-0.80463">
        <ele>16.9</ele>
      </trkpt>
      <trkpt lat="44.4924" lon="-0.80441">
        <ele>17.2</ele>
      </trkpt>
      <trkpt lat="44.49239" lon="-0.80435">
        <ele>17</ele>
      </trkpt>
      <trkpt lat="44.49238" lon="-0.80429">
        <ele>16.8</ele>
      </trkpt>
      <trkpt lat="44.49236" lon="-0.80417">
        <ele>16.5</ele>
      </trkpt>
      <trkpt lat="44.49232" lon="-0.80398">
        <ele>16.6</ele>
      </trkpt>
      <trkpt lat="44.49229" lon="-0.80389">
        <ele>16.7</ele>
      </trkpt>
      <trkpt lat="44.49227" lon="-0.8038">
        <ele>17.1</ele>
      </trkpt>
      <trkpt lat="44.49225" lon="-0.80374">
        <ele>17.4</ele>
      </trkpt>
      <trkpt lat="44.49214" lon="-0.80333">
        <ele>16</ele>
      </trkpt>
      <trkpt lat="44.49211" lon="-0.80324">
        <ele>16</ele>
      </trkpt>
      <trkpt lat="44.49209" lon="-0.80314">
        <ele>16</ele>
      </trkpt>
      <trkpt lat="44.49206" lon="-0.80304">
        <ele>16.1</ele>
      </trkpt>
      <trkpt lat="44.49203" lon="-0.80295">
        <ele>16.5</ele>
      </trkpt>
      <trkpt lat="44.49165" lon="-0.80158">
        <ele>17.7</ele>
      </trkpt>
      <trkpt lat="44.49121" lon="-0.79998">
        <ele>17.1</ele>
      </trkpt>
      <trkpt lat="44.49108" lon="-0.7995">
        <ele>18</ele>
      </trkpt>
      <trkpt lat="44.49078" lon="-0.79842">
        <ele>23.8</ele>
      </trkpt>
      <trkpt lat="44.49075" lon="-0.79833">
        <ele>25.2</ele>
      </trkpt>
      <trkpt lat="44.49073" lon="-0.79825">
        <ele>25.8</ele>
      </trkpt>
      <trkpt lat="44.49068" lon="-0.79808">
        <ele>26.4</ele>
      </trkpt>
      <trkpt lat="44.49066" lon="-0.79799">
        <ele>26.4</ele>
      </trkpt>
      <trkpt lat="44.49063" lon="-0.79787">
        <ele>26.1</ele>
      </trkpt>
      <trkpt lat="44.49062" lon="-0.79781">
        <ele>25.7</ele>
      </trkpt>
      <trkpt lat="44.49061" lon="-0.79775">
        <ele>25.4</ele>
      </trkpt>
      <trkpt lat="44.4906" lon="-0.79763">
        <ele>24.8</ele>
      </trkpt>
      <trkpt lat="44.49059" lon="-0.79755">
        <ele>24.3</ele>
      </trkpt>
      <trkpt lat="44.49059" lon="-0.79747">
        <ele>24</ele>
      </trkpt>
      <trkpt lat="44.49058" lon="-0.79685">
        <ele>25.2</ele>
      </trkpt>
      <trkpt lat="44.49062" lon="-0.79677">
        <ele>25.3</ele>
      </trkpt>
      <trkpt lat="44.4908" lon="-0.7964">
        <ele>25.2</ele>
      </trkpt>
      <trkpt lat="44.49082" lon="-0.79632">
        <ele>25.1</ele>
      </trkpt>
      <trkpt lat="44.49104" lon="-0.79578">
        <ele>23.3</ele>
      </trkpt>
      <trkpt lat="44.49108" lon="-0.7957">
        <ele>23.4</ele>
      </trkpt>
      <trkpt lat="44.49114" lon="-0.79553">
        <ele>23.6</ele>
      </trkpt>
      <trkpt lat="44.49118" lon="-0.79543">
        <ele>23.2</ele>
      </trkpt>
      <trkpt lat="44.49126" lon="-0.79524">
        <ele>23</ele>
      </trkpt>
      <trkpt lat="44.49141" lon="-0.79486">
        <ele>23.2</ele>
      </trkpt>
      <trkpt lat="44.49145" lon="-0.79476">
        <ele>23.2</ele>
      </trkpt>
      <trkpt lat="44.49157" lon="-0.79448">
        <ele>22.6</ele>
      </trkpt>
      <trkpt lat="44.49165" lon="-0.79429">
        <ele>23.2</ele>
      </trkpt>
      <trkpt lat="44.49197" lon="-0.7935">
        <ele>24.1</ele>
      </trkpt>
      <trkpt lat="44.49226" lon="-0.79279">
        <ele>25.1</ele>
      </trkpt>
      <trkpt lat="44.4923" lon="-0.79269">
        <ele>25.3</ele>
      </trkpt>
      <trkpt lat="44.49234" lon="-0.79259">
        <ele>25.4</ele>
      </trkpt>
      <trkpt lat="44.49242" lon="-0.7924">
        <ele>26</ele>
      </trkpt>
      <trkpt lat="44.49248" lon="-0.79224">
        <ele>26.8</ele>
      </trkpt>
      <trkpt lat="44.49258" lon="-0.792">
        <ele>28.4</ele>
      </trkpt>
      <trkpt lat="44.49264" lon="-0.79184">
        <ele>29.6</ele>
      </trkpt>
      <trkpt lat="44.49267" lon="-0.79176">
        <ele>30.1</ele>
      </trkpt>
      <trkpt lat="44.4927" lon="-0.79169">
        <ele>30.6</ele>
      </trkpt>
      <trkpt lat="44.49311" lon="-0.79171">
        <ele>32.4</ele>
      </trkpt>
      <trkpt lat="44.49315" lon="-0.79181">
        <ele>33.2</ele>
      </trkpt>
      <trkpt lat="44.4933" lon="-0.79273">
        <ele>34.8</ele>
      </trkpt>
      <trkpt lat="44.4933" lon="-0.79282">
        <ele>34.8</ele>
      </trkpt>
      <trkpt lat="44.49329" lon="-0.79291">
        <ele>34.7</ele>
      </trkpt>
      <trkpt lat="44.49325" lon="-0.79297">
        <ele>34.4</ele>
      </trkpt>
      <trkpt lat="44.49319" lon="-0.79302">
        <ele>34</ele>
      </trkpt>
      <trkpt lat="44.49315" lon="-0.79304">
        <ele>33.7</ele>
      </trkpt>
      <trkpt lat="44.49308" lon="-0.79306">
        <ele>33.1</ele>
      </trkpt>
      <trkpt lat="44.49299" lon="-0.79307">
        <ele>32.5</ele>
      </trkpt>
      <trkpt lat="44.4929" lon="-0.79308">
        <ele>31.9</ele>
      </trkpt>
      <trkpt lat="44.49283" lon="-0.79309">
        <ele>31.4</ele>
      </trkpt>
      <trkpt lat="44.49277" lon="-0.7931">
        <ele>30.8</ele>
      </trkpt>
      <trkpt lat="44.49274" lon="-0.79312">
        <ele>30.4</ele>
      </trkpt>
      <trkpt lat="44.49271" lon="-0.79317">
        <ele>30.1</ele>
      </trkpt>
      <trkpt lat="44.49267" lon="-0.79325">
        <ele>29.7</ele>
      </trkpt>
      <trkpt lat="44.49266" lon="-0.79331">
        <ele>29.7</ele>
      </trkpt>
      <trkpt lat="44.49265" lon="-0.79339">
        <ele>29.3</ele>
      </trkpt>
      <trkpt lat="44.49265" lon="-0.79348">
        <ele>28.8</ele>
      </trkpt>
      <trkpt lat="44.49253" lon="-0.79379">
        <ele>26.6</ele>
      </trkpt>
      <trkpt lat="44.49259" lon="-0.79385">
        <ele>26.8</ele>
      </trkpt>
      <trkpt lat="44.49264" lon="-0.79388">
        <ele>27.1</ele>
      </trkpt>
      <trkpt lat="44.49272" lon="-0.79393">
        <ele>27.3</ele>
      </trkpt>
      <trkpt lat="44.4929" lon="-0.79403">
        <ele>27.2</ele>
      </trkpt>
      <trkpt lat="44.49342" lon="-0.79427">
        <ele>26.8</ele>
      </trkpt>
      <trkpt lat="44.4935" lon="-0.79431">
        <ele>26.3</ele>
      </trkpt>
      <trkpt lat="44.49358" lon="-0.79434">
        <ele>25.8</ele>
      </trkpt>
      <trkpt lat="44.49366" lon="-0.79438">
        <ele>25.4</ele>
      </trkpt>
      <trkpt lat="44.49373" lon="-0.79442">
        <ele>25.2</ele>
      </trkpt>
      <trkpt lat="44.49381" lon="-0.79445">
        <ele>25.4</ele>
      </trkpt>
      <trkpt lat="44.49394" lon="-0.79451">
        <ele>25.6</ele>
      </trkpt>
      <trkpt lat="44.49401" lon="-0.79453">
        <ele>25.7</ele>
      </trkpt>
      <trkpt lat="44.49406" lon="-0.79453">
        <ele>25.8</ele>
      </trkpt>
      <trkpt lat="44.49409" lon="-0.79451">
        <ele>25.9</ele>
      </trkpt>
      <trkpt lat="44.49415" lon="-0.79445">
        <ele>26</ele>
      </trkpt>
      <trkpt lat="44.49419" lon="-0.79438">
        <ele>26.6</ele>
      </trkpt>
      <trkpt lat="44.49428" lon="-0.79422">
        <ele>28.9</ele>
      </trkpt>
      <trkpt lat="44.49432" lon="-0.79415">
        <ele>29.9</ele>
      </trkpt>
      <trkpt lat="44.49436" lon="-0.79407">
        <ele>30.5</ele>
      </trkpt>
      <trkpt lat="44.4944" lon="-0.79398">
        <ele>30.5</ele>
      </trkpt>
      <trkpt lat="44.49443" lon="-0.79388">
        <ele>30</ele>
      </trkpt>
      <trkpt lat="44.49445" lon="-0.79382">
        <ele>30.7</ele>
      </trkpt>
      <trkpt lat="44.49446" lon="-0.79373">
        <ele>31.5</ele>
      </trkpt>
      <trkpt lat="44.49447" lon="-0.79366">
        <ele>32</ele>
      </trkpt>
      <trkpt lat="44.49446" lon="-0.79356">
        <ele>32.5</ele>
      </trkpt>
      <trkpt lat="44.49443" lon="-0.79346">
        <ele>33</ele>
      </trkpt>
      <trkpt lat="44.4944" lon="-0.79336">
        <ele>33.8</ele>
      </trkpt>
      <trkpt lat="44.49439" lon="-0.79328">
        <ele>34.2</ele>
      </trkpt>
      <trkpt lat="44.49439" lon="-0.79323">
        <ele>34.5</ele>
      </trkpt>
      <trkpt lat="44.4944" lon="-0.79317">
        <ele>34.7</ele>
      </trkpt>
      <trkpt lat="44.49443" lon="-0.79318">
        <ele>34.6</ele>
      </trkpt>
      <trkpt lat="44.49447" lon="-0.79323">
        <ele>34.5</ele>
      </trkpt>
      <trkpt lat="44.49458" lon="-0.79341">
        <ele>34.7</ele>
      </trkpt>
      <trkpt lat="44.49473" lon="-0.79355">
        <ele>36.1</ele>
      </trkpt>
      <trkpt lat="44.4948" lon="-0.79357">
        <ele>36.8</ele>
      </trkpt>
      <trkpt lat="44.49486" lon="-0.79358">
        <ele>37.4</ele>
      </trkpt>
      <trkpt lat="44.49492" lon="-0.7936">
        <ele>38.1</ele>
      </trkpt>
      <trkpt lat="44.49501" lon="-0.79364">
        <ele>39.1</ele>
      </trkpt>
      <trkpt lat="44.49507" lon="-0.79368">
        <ele>39.2</ele>
      </trkpt>
      <trkpt lat="44.49513" lon="-0.79374">
        <ele>39.5</ele>
      </trkpt>
      <trkpt lat="44.49517" lon="-0.7938">
        <ele>39.7</ele>
      </trkpt>
      <trkpt lat="44.4952" lon="-0.79385">
        <ele>39.9</ele>
      </trkpt>
      <trkpt lat="44.49523" lon="-0.79391">
        <ele>39.9</ele>
      </trkpt>
      <trkpt lat="44.49526" lon="-0.79397">
        <ele>39.7</ele>
      </trkpt>
      <trkpt lat="44.49531" lon="-0.79405">
        <ele>39.4</ele>
      </trkpt>
      <trkpt lat="44.49537" lon="-0.79413">
        <ele>39.1</ele>
      </trkpt>
      <trkpt lat="44.49543" lon="-0.79419">
        <ele>39</ele>
      </trkpt>
      <trkpt lat="44.49551" lon="-0.79422">
        <ele>39.2</ele>
      </trkpt>
      <trkpt lat="44.49596" lon="-0.79429">
        <ele>40.4</ele>
      </trkpt>
      <trkpt lat="44.49638" lon="-0.79431">
        <ele>41.5</ele>
      </trkpt>
      <trkpt lat="44.49647" lon="-0.79431">
        <ele>41.8</ele>
      </trkpt>
      <trkpt lat="44.49656" lon="-0.79432">
        <ele>42.1</ele>
      </trkpt>
      <trkpt lat="44.49665" lon="-0.79436">
        <ele>42.3</ele>
      </trkpt>
      <trkpt lat="44.49691" lon="-0.79448">
        <ele>42.9</ele>
      </trkpt>
      <trkpt lat="44.49694" lon="-0.7945">
        <ele>43</ele>
      </trkpt>
      <trkpt lat="44.49734" lon="-0.79458">
        <ele>42.9</ele>
      </trkpt>
      <trkpt lat="44.4974" lon="-0.79459">
        <ele>43.3</ele>
      </trkpt>
      <trkpt lat="44.49746" lon="-0.79459">
        <ele>43.7</ele>
      </trkpt>
      <trkpt lat="44.49751" lon="-0.79459">
        <ele>44</ele>
      </trkpt>
      <trkpt lat="44.49756" lon="-0.7946">
        <ele>44</ele>
      </trkpt>
      <trkpt lat="44.49762" lon="-0.79462">
        <ele>44</ele>
      </trkpt>
      <trkpt lat="44.49778" lon="-0.79469">
        <ele>44</ele>
      </trkpt>
      <trkpt lat="44.49784" lon="-0.79471">
        <ele>44</ele>
      </trkpt>
      <trkpt lat="44.4979" lon="-0.79474">
        <ele>44</ele>
      </trkpt>
      <trkpt lat="44.49801" lon="-0.79474">
        <ele>44.1</ele>
      </trkpt>
      <trkpt lat="44.49808" lon="-0.79471">
        <ele>44.1</ele>
      </trkpt>
      <trkpt lat="44.49813" lon="-0.79467">
        <ele>44.4</ele>
      </trkpt>
      <trkpt lat="44.49822" lon="-0.79476">
        <ele>44.6</ele>
      </trkpt>
      <trkpt lat="44.49826" lon="-0.79493">
        <ele>44.4</ele>
      </trkpt>
      <trkpt lat="44.4984" lon="-0.79501">
        <ele>44</ele>
      </trkpt>
      <trkpt lat="44.49847" lon="-0.79505">
        <ele>44</ele>
      </trkpt>
      <trkpt lat="44.49875" lon="-0.79521">
        <ele>43.5</ele>
      </trkpt>
      <trkpt lat="44.49899" lon="-0.79534">
        <ele>43</ele>
      </trkpt>
      <trkpt lat="44.49916" lon="-0.79542">
        <ele>43</ele>
      </trkpt>
      <trkpt lat="44.49924" lon="-0.79546">
        <ele>43.1</ele>
      </trkpt>
      <trkpt lat="44.49939" lon="-0.79555">
        <ele>43</ele>
      </trkpt>
      <trkpt lat="44.49947" lon="-0.79559">
        <ele>43.1</ele>
      </trkpt>
      <trkpt lat="44.49954" lon="-0.79564">
        <ele>43.2</ele>
      </trkpt>
      <trkpt lat="44.49959" lon="-0.79567">
        <ele>43.3</ele>
      </trkpt>
      <trkpt lat="44.49964" lon="-0.79571">
        <ele>43.3</ele>
      </trkpt>
      <trkpt lat="44.49969" lon="-0.79575">
        <ele>43.3</ele>
      </trkpt>
      <trkpt lat="44.49977" lon="-0.79578">
        <ele>43.2</ele>
      </trkpt>
      <trkpt lat="44.49985" lon="-0.79578">
        <ele>43.2</ele>
      </trkpt>
      <trkpt lat="44.5" lon="-0.79579">
        <ele>43.2</ele>
      </trkpt>
      <trkpt lat="44.50018" lon="-0.79578">
        <ele>43.7</ele>
      </trkpt>
      <trkpt lat="44.50026" lon="-0.79578">
        <ele>43.9</ele>
      </trkpt>
      <trkpt lat="44.50034" lon="-0.79577">
        <ele>43.8</ele>
      </trkpt>
      <trkpt lat="44.50035" lon="-0.79577">
        <ele>43.8</ele>
      </trkpt>
      <trkpt lat="44.50042" lon="-0.79576">
        <ele>43.6</ele>
      </trkpt>
      <trkpt lat="44.50047" lon="-0.79575">
        <ele>43.5</ele>
      </trkpt>
      <trkpt lat="44.50052" lon="-0.79574">
        <ele>43.4</ele>
      </trkpt>
      <trkpt lat="44.50099" lon="-0.79555">
        <ele>44</ele>
      </trkpt>
      <trkpt lat="44.50116" lon="-0.79548">
        <ele>43.8</ele>
      </trkpt>
      <trkpt lat="44.50124" lon="-0.79545">
        <ele>43.5</ele>
      </trkpt>
      <trkpt lat="44.5013" lon="-0.79542">
        <ele>43.3</ele>
      </trkpt>
      <trkpt lat="44.50136" lon="-0.7954">
        <ele>43.1</ele>
      </trkpt>
      <trkpt lat="44.50145" lon="-0.79536">
        <ele>43</ele>
      </trkpt>
      <trkpt lat="44.50154" lon="-0.79531">
        <ele>43</ele>
      </trkpt>
      <trkpt lat="44.50162" lon="-0.79528">
        <ele>43</ele>
      </trkpt>
      <trkpt lat="44.50179" lon="-0.79522">
        <ele>43</ele>
      </trkpt>
      <trkpt lat="44.50186" lon="-0.79519">
        <ele>43</ele>
      </trkpt>
      <trkpt lat="44.50193" lon="-0.79517">
        <ele>43</ele>
      </trkpt>
      <trkpt lat="44.502" lon="-0.79515">
        <ele>43.1</ele>
      </trkpt>
      <trkpt lat="44.50205" lon="-0.79514">
        <ele>43.2</ele>
      </trkpt>
      <trkpt lat="44.5021" lon="-0.79514">
        <ele>43.3</ele>
      </trkpt>
      <trkpt lat="44.50216" lon="-0.79514">
        <ele>43.4</ele>
      </trkpt>
      <trkpt lat="44.50221" lon="-0.79514">
        <ele>43.5</ele>
      </trkpt>
      <trkpt lat="44.5023" lon="-0.79514">
        <ele>43.3</ele>
      </trkpt>
      <trkpt lat="44.50239" lon="-0.79515">
        <ele>43.2</ele>
      </trkpt>
      <trkpt lat="44.50247" lon="-0.79515">
        <ele>43</ele>
      </trkpt>
      <trkpt lat="44.50278" lon="-0.79514">
        <ele>43</ele>
      </trkpt>
      <trkpt lat="44.50287" lon="-0.79513">
        <ele>43</ele>
      </trkpt>
      <trkpt lat="44.50292" lon="-0.79512">
        <ele>43</ele>
      </trkpt>
      <trkpt lat="44.50297" lon="-0.79511">
        <ele>43</ele>
      </trkpt>
      <trkpt lat="44.50303" lon="-0.7951">
        <ele>43</ele>
      </trkpt>
      <trkpt lat="44.50308" lon="-0.79508">
        <ele>43</ele>
      </trkpt>
      <trkpt lat="44.50314" lon="-0.79507">
        <ele>42.9</ele>
      </trkpt>
      <trkpt lat="44.50319" lon="-0.79506">
        <ele>42.9</ele>
      </trkpt>
      <trkpt lat="44.50328" lon="-0.79505">
        <ele>42.9</ele>
      </trkpt>
      <trkpt lat="44.50336" lon="-0.79504">
        <ele>42.9</ele>
      </trkpt>
      <trkpt lat="44.50345" lon="-0.79504">
        <ele>42.9</ele>
      </trkpt>
      <trkpt lat="44.50354" lon="-0.79504">
        <ele>43</ele>
      </trkpt>
      <trkpt lat="44.50372" lon="-0.79504">
        <ele>43</ele>
      </trkpt>
      <trkpt lat="44.50392" lon="-0.79503">
        <ele>43</ele>
      </trkpt>
      <trkpt lat="44.5041" lon="-0.79503">
        <ele>43</ele>
      </trkpt>
      <trkpt lat="44.50417" lon="-0.79502">
        <ele>43</ele>
      </trkpt>
      <trkpt lat="44.50423" lon="-0.79502">
        <ele>43.2</ele>
      </trkpt>
      <trkpt lat="44.50432" lon="-0.79501">
        <ele>43.5</ele>
      </trkpt>
      <trkpt lat="44.5044" lon="-0.795">
        <ele>43.8</ele>
      </trkpt>
      <trkpt lat="44.50448" lon="-0.79498">
        <ele>44</ele>
      </trkpt>
      <trkpt lat="44.50456" lon="-0.79497">
        <ele>44</ele>
      </trkpt>
      <trkpt lat="44.50462" lon="-0.79497">
        <ele>44</ele>
      </trkpt>
      <trkpt lat="44.50468" lon="-0.79496">
        <ele>44</ele>
      </trkpt>
      <trkpt lat="44.50473" lon="-0.79496">
        <ele>44</ele>
      </trkpt>
      <trkpt lat="44.50479" lon="-0.79496">
        <ele>44</ele>
      </trkpt>
      <trkpt lat="44.5049" lon="-0.79496">
        <ele>44</ele>
      </trkpt>
      <trkpt lat="44.50498" lon="-0.79497">
        <ele>44</ele>
      </trkpt>
      <trkpt lat="44.50506" lon="-0.79498">
        <ele>44</ele>
      </trkpt>
      <trkpt lat="44.50515" lon="-0.795">
        <ele>44</ele>
      </trkpt>
      <trkpt lat="44.50525" lon="-0.79501">
        <ele>44</ele>
      </trkpt>
      <trkpt lat="44.5056" lon="-0.79503">
        <ele>44</ele>
      </trkpt>
      <trkpt lat="44.50569" lon="-0.79503">
        <ele>44</ele>
      </trkpt>
      <trkpt lat="44.50587" lon="-0.79503">
        <ele>43.8</ele>
      </trkpt>
      <trkpt lat="44.50607" lon="-0.79503">
        <ele>43.1</ele>
      </trkpt>
      <trkpt lat="44.50624" lon="-0.79503">
        <ele>43</ele>
      </trkpt>
      <trkpt lat="44.50628" lon="-0.79503">
        <ele>43</ele>
      </trkpt>
      <trkpt lat="44.50633" lon="-0.79503">
        <ele>43</ele>
      </trkpt>
      <trkpt lat="44.50638" lon="-0.79503">
        <ele>43</ele>
      </trkpt>
      <trkpt lat="44.50645" lon="-0.79504">
        <ele>43</ele>
      </trkpt>
      <trkpt lat="44.50651" lon="-0.79505">
        <ele>43</ele>
      </trkpt>
      <trkpt lat="44.50663" lon="-0.79508">
        <ele>43</ele>
      </trkpt>
      <trkpt lat="44.5067" lon="-0.79512">
        <ele>43</ele>
      </trkpt>
      <trkpt lat="44.50678" lon="-0.79516">
        <ele>43</ele>
      </trkpt>
      <trkpt lat="44.50684" lon="-0.79518">
        <ele>43</ele>
      </trkpt>
      <trkpt lat="44.50689" lon="-0.7952">
        <ele>43</ele>
      </trkpt>
      <trkpt lat="44.50689" lon="-0.79518">
        <ele>43</ele>
      </trkpt>
      <trkpt lat="44.50688" lon="-0.79505">
        <ele>43</ele>
      </trkpt>
      <trkpt lat="44.50686" lon="-0.7948">
        <ele>43.2</ele>
      </trkpt>
      <trkpt lat="44.50684" lon="-0.79442">
        <ele>44</ele>
      </trkpt>
      <trkpt lat="44.50683" lon="-0.7943">
        <ele>44</ele>
      </trkpt>
      <trkpt lat="44.50679" lon="-0.79379">
        <ele>44.7</ele>
      </trkpt>
      <trkpt lat="44.50679" lon="-0.79366">
        <ele>44.9</ele>
      </trkpt>
      <trkpt lat="44.50677" lon="-0.79338">
        <ele>45</ele>
      </trkpt>
      <trkpt lat="44.50677" lon="-0.79326">
        <ele>45</ele>
      </trkpt>
      <trkpt lat="44.50677" lon="-0.79316">
        <ele>45</ele>
      </trkpt>
      <trkpt lat="44.50678" lon="-0.79309">
        <ele>45</ele>
      </trkpt>
      <trkpt lat="44.50679" lon="-0.79301">
        <ele>45.1</ele>
      </trkpt>
      <trkpt lat="44.50681" lon="-0.79291">
        <ele>45.3</ele>
      </trkpt>
      <trkpt lat="44.50682" lon="-0.79281">
        <ele>45.4</ele>
      </trkpt>
      <trkpt lat="44.50682" lon="-0.79281">
        <ele>45.4</ele>
      </trkpt>
      <trkpt lat="44.50686" lon="-0.79259">
        <ele>45.8</ele>
      </trkpt>
      <trkpt lat="44.50687" lon="-0.79257">
        <ele>45.8</ele>
      </trkpt>
      <trkpt lat="44.50687" lon="-0.79254">
        <ele>45.9</ele>
      </trkpt>
      <trkpt lat="44.50688" lon="-0.79252">
        <ele>46</ele>
      </trkpt>
      <trkpt lat="44.50691" lon="-0.79236">
        <ele>46</ele>
      </trkpt>
      <trkpt lat="44.50692" lon="-0.79225">
        <ele>46</ele>
      </trkpt>
      <trkpt lat="44.50693" lon="-0.79223">
        <ele>46</ele>
      </trkpt>
      <trkpt lat="44.50694" lon="-0.79218">
        <ele>46</ele>
      </trkpt>
      <trkpt lat="44.50696" lon="-0.79205">
        <ele>46</ele>
      </trkpt>
      <trkpt lat="44.50696" lon="-0.79203">
        <ele>46</ele>
      </trkpt>
      <trkpt lat="44.50701" lon="-0.7918">
        <ele>46</ele>
      </trkpt>
      <trkpt lat="44.50701" lon="-0.79177">
        <ele>46</ele>
      </trkpt>
      <trkpt lat="44.50702" lon="-0.79174">
        <ele>46</ele>
      </trkpt>
      <trkpt lat="44.50706" lon="-0.7915">
        <ele>46</ele>
      </trkpt>
      <trkpt lat="44.50707" lon="-0.79143">
        <ele>46</ele>
      </trkpt>
      <trkpt lat="44.50714" lon="-0.79107">
        <ele>46</ele>
      </trkpt>
      <trkpt lat="44.50721" lon="-0.79064">
        <ele>46</ele>
      </trkpt>
      <trkpt lat="44.50722" lon="-0.79061">
        <ele>46</ele>
      </trkpt>
      <trkpt lat="44.50723" lon="-0.79059">
        <ele>46</ele>
      </trkpt>
      <trkpt lat="44.50724" lon="-0.79055">
        <ele>46</ele>
      </trkpt>
      <trkpt lat="44.50724" lon="-0.79053">
        <ele>46.1</ele>
      </trkpt>
      <trkpt lat="44.50725" lon="-0.79052">
        <ele>46.1</ele>
      </trkpt>
      <trkpt lat="44.50727" lon="-0.79047">
        <ele>46.3</ele>
      </trkpt>
      <trkpt lat="44.50728" lon="-0.79045">
        <ele>46.3</ele>
      </trkpt>
      <trkpt lat="44.5073" lon="-0.7904">
        <ele>46.4</ele>
      </trkpt>
      <trkpt lat="44.50736" lon="-0.79032">
        <ele>46.5</ele>
      </trkpt>
      <trkpt lat="44.50739" lon="-0.79028">
        <ele>46.4</ele>
      </trkpt>
      <trkpt lat="44.5074" lon="-0.79026">
        <ele>46.4</ele>
      </trkpt>
      <trkpt lat="44.50741" lon="-0.79025">
        <ele>46.4</ele>
      </trkpt>
      <trkpt lat="44.50744" lon="-0.79022">
        <ele>46.4</ele>
      </trkpt>
      <trkpt lat="44.50747" lon="-0.79019">
        <ele>46.4</ele>
      </trkpt>
      <trkpt lat="44.50777" lon="-0.78995">
        <ele>46.2</ele>
      </trkpt>
      <trkpt lat="44.50778" lon="-0.78994">
        <ele>46.2</ele>
      </trkpt>
      <trkpt lat="44.50789" lon="-0.78985">
        <ele>46.7</ele>
      </trkpt>
      <trkpt lat="44.50792" lon="-0.78982">
        <ele>46.8</ele>
      </trkpt>
      <trkpt lat="44.50803" lon="-0.78973">
        <ele>47</ele>
      </trkpt>
      <trkpt lat="44.50806" lon="-0.78971">
        <ele>47</ele>
      </trkpt>
      <trkpt lat="44.50815" lon="-0.78968">
        <ele>47</ele>
      </trkpt>
      <trkpt lat="44.50818" lon="-0.78967">
        <ele>47</ele>
      </trkpt>
      <trkpt lat="44.5082" lon="-0.78966">
        <ele>47</ele>
      </trkpt>
      <trkpt lat="44.50823" lon="-0.78966">
        <ele>47</ele>
      </trkpt>
      <trkpt lat="44.50825" lon="-0.78966">
        <ele>47</ele>
      </trkpt>
      <trkpt lat="44.50827" lon="-0.78966">
        <ele>47</ele>
      </trkpt>
      <trkpt lat="44.50828" lon="-0.78966">
        <ele>47</ele>
      </trkpt>
      <trkpt lat="44.5083" lon="-0.78965">
        <ele>47</ele>
      </trkpt>
      <trkpt lat="44.50834" lon="-0.78965">
        <ele>47</ele>
      </trkpt>
      <trkpt lat="44.50836" lon="-0.78964">
        <ele>46.9</ele>
      </trkpt>
      <trkpt lat="44.50837" lon="-0.78963">
        <ele>46.9</ele>
      </trkpt>
      <trkpt lat="44.50839" lon="-0.78962">
        <ele>46.8</ele>
      </trkpt>
      <trkpt lat="44.50841" lon="-0.78961">
        <ele>46.7</ele>
      </trkpt>
      <trkpt lat="44.50842" lon="-0.78959">
        <ele>46.7</ele>
      </trkpt>
      <trkpt lat="44.50845" lon="-0.78955">
        <ele>46.6</ele>
      </trkpt>
      <trkpt lat="44.50846" lon="-0.78953">
        <ele>46.5</ele>
      </trkpt>
      <trkpt lat="44.50847" lon="-0.7895">
        <ele>46.5</ele>
      </trkpt>
      <trkpt lat="44.50848" lon="-0.78945">
        <ele>46.5</ele>
      </trkpt>
      <trkpt lat="44.50848" lon="-0.78942">
        <ele>46.5</ele>
      </trkpt>
      <trkpt lat="44.50849" lon="-0.7894">
        <ele>46.5</ele>
      </trkpt>
      <trkpt lat="44.50849" lon="-0.78935">
        <ele>46.5</ele>
      </trkpt>
      <trkpt lat="44.50848" lon="-0.78926">
        <ele>46.5</ele>
      </trkpt>
      <trkpt lat="44.50848" lon="-0.78924">
        <ele>46.5</ele>
      </trkpt>
      <trkpt lat="44.50846" lon="-0.78917">
        <ele>46.5</ele>
      </trkpt>
      <trkpt lat="44.50845" lon="-0.78913">
        <ele>46.6</ele>
      </trkpt>
      <trkpt lat="44.50844" lon="-0.78911">
        <ele>46.6</ele>
      </trkpt>
      <trkpt lat="44.50843" lon="-0.78908">
        <ele>46.7</ele>
      </trkpt>
      <trkpt lat="44.50842" lon="-0.78906">
        <ele>46.7</ele>
      </trkpt>
      <trkpt lat="44.5084" lon="-0.78902">
        <ele>46.7</ele>
      </trkpt>
      <trkpt lat="44.50839" lon="-0.78897">
        <ele>46.8</ele>
      </trkpt>
      <trkpt lat="44.50833" lon="-0.78877">
        <ele>46.6</ele>
      </trkpt>
      <trkpt lat="44.50832" lon="-0.78874">
        <ele>46.5</ele>
      </trkpt>
      <trkpt lat="44.50832" lon="-0.78873">
        <ele>46.5</ele>
      </trkpt>
      <trkpt lat="44.50831" lon="-0.78872">
        <ele>46.4</ele>
      </trkpt>
      <trkpt lat="44.5083" lon="-0.78867">
        <ele>46.3</ele>
      </trkpt>
      <trkpt lat="44.50829" lon="-0.78862">
        <ele>46.2</ele>
      </trkpt>
      <trkpt lat="44.50829" lon="-0.7886">
        <ele>46.2</ele>
      </trkpt>
      <trkpt lat="44.50828" lon="-0.78858">
        <ele>46.2</ele>
      </trkpt>
      <trkpt lat="44.50827" lon="-0.78848">
        <ele>46.2</ele>
      </trkpt>
      <trkpt lat="44.50826" lon="-0.78844">
        <ele>46.3</ele>
      </trkpt>
      <trkpt lat="44.50826" lon="-0.78841">
        <ele>46.3</ele>
      </trkpt>
      <trkpt lat="44.50826" lon="-0.78839">
        <ele>46.3</ele>
      </trkpt>
      <trkpt lat="44.50825" lon="-0.78837">
        <ele>46.3</ele>
      </trkpt>
      <trkpt lat="44.50822" lon="-0.78818">
        <ele>46.4</ele>
      </trkpt>
      <trkpt lat="44.50821" lon="-0.78812">
        <ele>46.4</ele>
      </trkpt>
      <trkpt lat="44.50819" lon="-0.78803">
        <ele>46.6</ele>
      </trkpt>
      <trkpt lat="44.50818" lon="-0.78796">
        <ele>46.7</ele>
      </trkpt>
      <trkpt lat="44.50816" lon="-0.78787">
        <ele>46.9</ele>
      </trkpt>
      <trkpt lat="44.50815" lon="-0.78784">
        <ele>46.9</ele>
      </trkpt>
      <trkpt lat="44.50804" lon="-0.78738">
        <ele>47.4</ele>
      </trkpt>
      <trkpt lat="44.50803" lon="-0.78735">
        <ele>47.6</ele>
      </trkpt>
      <trkpt lat="44.50801" lon="-0.78725">
        <ele>47.9</ele>
      </trkpt>
      <trkpt lat="44.50798" lon="-0.78712">
        <ele>48</ele>
      </trkpt>
      <trkpt lat="44.50795" lon="-0.787">
        <ele>48</ele>
      </trkpt>
      <trkpt lat="44.50792" lon="-0.78683">
        <ele>48</ele>
      </trkpt>
      <trkpt lat="44.50791" lon="-0.7868">
        <ele>48</ele>
      </trkpt>
      <trkpt lat="44.50789" lon="-0.78672">
        <ele>48</ele>
      </trkpt>
      <trkpt lat="44.50789" lon="-0.7867">
        <ele>48</ele>
      </trkpt>
      <trkpt lat="44.50788" lon="-0.78667">
        <ele>48</ele>
      </trkpt>
      <trkpt lat="44.50779" lon="-0.78657">
        <ele>48</ele>
      </trkpt>
      <trkpt lat="44.50768" lon="-0.78634">
        <ele>48</ele>
      </trkpt>
      <trkpt lat="44.50763" lon="-0.78621">
        <ele>48</ele>
      </trkpt>
      <trkpt lat="44.50764" lon="-0.78608">
        <ele>48</ele>
      </trkpt>
      <trkpt lat="44.50717" lon="-0.78575">
        <ele>48.6</ele>
      </trkpt>
      <trkpt lat="44.50703" lon="-0.78566">
        <ele>48.6</ele>
      </trkpt>
      <trkpt lat="44.50694" lon="-0.7856">
        <ele>48.9</ele>
      </trkpt>
      <trkpt lat="44.50685" lon="-0.7855">
        <ele>49.3</ele>
      </trkpt>
      <trkpt lat="44.50675" lon="-0.78533">
        <ele>49.7</ele>
      </trkpt>
      <trkpt lat="44.50661" lon="-0.78505">
        <ele>50</ele>
      </trkpt>
      <trkpt lat="44.50647" lon="-0.78474">
        <ele>50</ele>
      </trkpt>
      <trkpt lat="44.50626" lon="-0.78424">
        <ele>50.1</ele>
      </trkpt>
      <trkpt lat="44.50612" lon="-0.78386">
        <ele>50.9</ele>
      </trkpt>
      <trkpt lat="44.50592" lon="-0.78335">
        <ele>50.7</ele>
      </trkpt>
      <trkpt lat="44.50579" lon="-0.783">
        <ele>50.8</ele>
      </trkpt>
      <trkpt lat="44.50563" lon="-0.78262">
        <ele>50.7</ele>
      </trkpt>
      <trkpt lat="44.5055" lon="-0.78233">
        <ele>50.3</ele>
      </trkpt>
      <trkpt lat="44.50537" lon="-0.78205">
        <ele>50</ele>
      </trkpt>
      <trkpt lat="44.50525" lon="-0.78182">
        <ele>50</ele>
      </trkpt>
      <trkpt lat="44.50516" lon="-0.78165">
        <ele>50</ele>
      </trkpt>
      <trkpt lat="44.50509" lon="-0.78152">
        <ele>50</ele>
      </trkpt>
      <trkpt lat="44.50498" lon="-0.78136">
        <ele>50</ele>
      </trkpt>
      <trkpt lat="44.50469" lon="-0.78105">
        <ele>50</ele>
      </trkpt>
      <trkpt lat="44.50453" lon="-0.78092">
        <ele>50</ele>
      </trkpt>
      <trkpt lat="44.50443" lon="-0.78086">
        <ele>50</ele>
      </trkpt>
      <trkpt lat="44.50434" lon="-0.78081">
        <ele>50</ele>
      </trkpt>
      <trkpt lat="44.50426" lon="-0.78078">
        <ele>50</ele>
      </trkpt>
      <trkpt lat="44.50419" lon="-0.78075">
        <ele>50</ele>
      </trkpt>
      <trkpt lat="44.50411" lon="-0.78073">
        <ele>50</ele>
      </trkpt>
      <trkpt lat="44.50407" lon="-0.78063">
        <ele>50</ele>
      </trkpt>
      <trkpt lat="44.50398" lon="-0.78032">
        <ele>50</ele>
      </trkpt>
      <trkpt lat="44.50389" lon="-0.78014">
        <ele>50</ele>
      </trkpt>
      <trkpt lat="44.50378" lon="-0.7798">
        <ele>50</ele>
      </trkpt>
      <trkpt lat="44.50368" lon="-0.77944">
        <ele>50</ele>
      </trkpt>
      <trkpt lat="44.5036" lon="-0.77907">
        <ele>50</ele>
      </trkpt>
      <trkpt lat="44.5035" lon="-0.77868">
        <ele>50</ele>
      </trkpt>
      <trkpt lat="44.50341" lon="-0.77836">
        <ele>50</ele>
      </trkpt>
      <trkpt lat="44.50324" lon="-0.77777">
        <ele>49</ele>
      </trkpt>
      <trkpt lat="44.50317" lon="-0.77752">
        <ele>49</ele>
      </trkpt>
      <trkpt lat="44.50312" lon="-0.7773">
        <ele>49.2</ele>
      </trkpt>
      <trkpt lat="44.50301" lon="-0.77668">
        <ele>48.1</ele>
      </trkpt>
      <trkpt lat="44.50297" lon="-0.77624">
        <ele>49.2</ele>
      </trkpt>
      <trkpt lat="44.50294" lon="-0.7759">
        <ele>49.9</ele>
      </trkpt>
      <trkpt lat="44.50291" lon="-0.77535">
        <ele>50</ele>
      </trkpt>
      <trkpt lat="44.50289" lon="-0.77513">
        <ele>50.5</ele>
      </trkpt>
      <trkpt lat="44.50289" lon="-0.77495">
        <ele>51</ele>
      </trkpt>
      <trkpt lat="44.5029" lon="-0.77473">
        <ele>51</ele>
      </trkpt>
      <trkpt lat="44.50291" lon="-0.77441">
        <ele>51.5</ele>
      </trkpt>
      <trkpt lat="44.50297" lon="-0.77341">
        <ele>51.7</ele>
      </trkpt>
      <trkpt lat="44.50299" lon="-0.77316">
        <ele>51.3</ele>
      </trkpt>
      <trkpt lat="44.50305" lon="-0.77239">
        <ele>52</ele>
      </trkpt>
      <trkpt lat="44.50308" lon="-0.7722">
        <ele>52</ele>
      </trkpt>
      <trkpt lat="44.50312" lon="-0.77192">
        <ele>52</ele>
      </trkpt>
      <trkpt lat="44.50315" lon="-0.77183">
        <ele>51.9</ele>
      </trkpt>
      <trkpt lat="44.50318" lon="-0.77145">
        <ele>51.6</ele>
      </trkpt>
      <trkpt lat="44.50318" lon="-0.77133">
        <ele>51.6</ele>
      </trkpt>
      <trkpt lat="44.50318" lon="-0.77121">
        <ele>51.6</ele>
      </trkpt>
      <trkpt lat="44.50321" lon="-0.77111">
        <ele>51.5</ele>
      </trkpt>
      <trkpt lat="44.50327" lon="-0.77094">
        <ele>51.2</ele>
      </trkpt>
      <trkpt lat="44.50332" lon="-0.77076">
        <ele>51</ele>
      </trkpt>
      <trkpt lat="44.50335" lon="-0.77064">
        <ele>51</ele>
      </trkpt>
      <trkpt lat="44.50337" lon="-0.77056">
        <ele>51</ele>
      </trkpt>
      <trkpt lat="44.50338" lon="-0.7704">
        <ele>51</ele>
      </trkpt>
      <trkpt lat="44.5034" lon="-0.77023">
        <ele>51</ele>
      </trkpt>
      <trkpt lat="44.50349" lon="-0.7698">
        <ele>51</ele>
      </trkpt>
      <trkpt lat="44.50354" lon="-0.7696">
        <ele>51</ele>
      </trkpt>
      <trkpt lat="44.50367" lon="-0.76901">
        <ele>51</ele>
      </trkpt>
      <trkpt lat="44.50369" lon="-0.76892">
        <ele>51</ele>
      </trkpt>
      <trkpt lat="44.50368" lon="-0.76878">
        <ele>51</ele>
      </trkpt>
      <trkpt lat="44.50369" lon="-0.76866">
        <ele>51</ele>
      </trkpt>
      <trkpt lat="44.50378" lon="-0.76808">
        <ele>51</ele>
      </trkpt>
      <trkpt lat="44.50388" lon="-0.76746">
        <ele>51</ele>
      </trkpt>
      <trkpt lat="44.50393" lon="-0.76711">
        <ele>51.2</ele>
      </trkpt>
      <trkpt lat="44.50398" lon="-0.76688">
        <ele>51.5</ele>
      </trkpt>
      <trkpt lat="44.50398" lon="-0.76648">
        <ele>52</ele>
      </trkpt>
      <trkpt lat="44.50398" lon="-0.76641">
        <ele>52</ele>
      </trkpt>
      <trkpt lat="44.50399" lon="-0.7663">
        <ele>52</ele>
      </trkpt>
      <trkpt lat="44.504" lon="-0.76628">
        <ele>52</ele>
      </trkpt>
      <trkpt lat="44.50406" lon="-0.76604">
        <ele>52</ele>
      </trkpt>
      <trkpt lat="44.50428" lon="-0.76513">
        <ele>52</ele>
      </trkpt>
      <trkpt lat="44.50443" lon="-0.76444">
        <ele>52</ele>
      </trkpt>
      <trkpt lat="44.50458" lon="-0.76368">
        <ele>53</ele>
      </trkpt>
      <trkpt lat="44.50464" lon="-0.76309">
        <ele>53</ele>
      </trkpt>
      <trkpt lat="44.50467" lon="-0.76286">
        <ele>53</ele>
      </trkpt>
      <trkpt lat="44.5047" lon="-0.76277">
        <ele>53</ele>
      </trkpt>
      <trkpt lat="44.50474" lon="-0.76265">
        <ele>53</ele>
      </trkpt>
      <trkpt lat="44.50478" lon="-0.76247">
        <ele>53</ele>
      </trkpt>
      <trkpt lat="44.5048" lon="-0.76237">
        <ele>53</ele>
      </trkpt>
      <trkpt lat="44.5048" lon="-0.76218">
        <ele>53</ele>
      </trkpt>
      <trkpt lat="44.50481" lon="-0.762">
        <ele>53</ele>
      </trkpt>
      <trkpt lat="44.50484" lon="-0.76179">
        <ele>53</ele>
      </trkpt>
      <trkpt lat="44.50489" lon="-0.76157">
        <ele>53</ele>
      </trkpt>
      <trkpt lat="44.50494" lon="-0.76142">
        <ele>53</ele>
      </trkpt>
      <trkpt lat="44.505" lon="-0.76105">
        <ele>53</ele>
      </trkpt>
      <trkpt lat="44.50498" lon="-0.76083">
        <ele>53</ele>
      </trkpt>
      <trkpt lat="44.50515" lon="-0.76081">
        <ele>53</ele>
      </trkpt>
      <trkpt lat="44.50518" lon="-0.76069">
        <ele>53</ele>
      </trkpt>
      <trkpt lat="44.50512" lon="-0.76027">
        <ele>54</ele>
      </trkpt>
      <trkpt lat="44.50506" lon="-0.75964">
        <ele>54.1</ele>
      </trkpt>
      <trkpt lat="44.50503" lon="-0.75936">
        <ele>54.1</ele>
      </trkpt>
      <trkpt lat="44.505" lon="-0.7589">
        <ele>54</ele>
      </trkpt>
      <trkpt lat="44.50491" lon="-0.75746">
        <ele>55</ele>
      </trkpt>
      <trkpt lat="44.50478" lon="-0.7568">
        <ele>55.6</ele>
      </trkpt>
      <trkpt lat="44.50466" lon="-0.75631">
        <ele>56</ele>
      </trkpt>
      <trkpt lat="44.50463" lon="-0.75618">
        <ele>56</ele>
      </trkpt>
      <trkpt lat="44.5046" lon="-0.75592">
        <ele>56</ele>
      </trkpt>
      <trkpt lat="44.50459" lon="-0.75579">
        <ele>56.1</ele>
      </trkpt>
      <trkpt lat="44.50458" lon="-0.75562">
        <ele>56.4</ele>
      </trkpt>
      <trkpt lat="44.50459" lon="-0.75552">
        <ele>56.5</ele>
      </trkpt>
      <trkpt lat="44.50461" lon="-0.75538">
        <ele>56.4</ele>
      </trkpt>
      <trkpt lat="44.50463" lon="-0.75524">
        <ele>56.3</ele>
      </trkpt>
      <trkpt lat="44.50469" lon="-0.75503">
        <ele>56.1</ele>
      </trkpt>
      <trkpt lat="44.50477" lon="-0.75474">
        <ele>56</ele>
      </trkpt>
      <trkpt lat="44.50487" lon="-0.75436">
        <ele>56</ele>
      </trkpt>
      <trkpt lat="44.50493" lon="-0.75411">
        <ele>56</ele>
      </trkpt>
      <trkpt lat="44.50508" lon="-0.75349">
        <ele>56.1</ele>
      </trkpt>
      <trkpt lat="44.50524" lon="-0.75289">
        <ele>57</ele>
      </trkpt>
      <trkpt lat="44.50537" lon="-0.75239">
        <ele>57</ele>
      </trkpt>
      <trkpt lat="44.50544" lon="-0.75213">
        <ele>57</ele>
      </trkpt>
      <trkpt lat="44.50547" lon="-0.75203">
        <ele>57</ele>
      </trkpt>
      <trkpt lat="44.50553" lon="-0.75167">
        <ele>57.1</ele>
      </trkpt>
      <trkpt lat="44.5055" lon="-0.75143">
        <ele>57.9</ele>
      </trkpt>
      <trkpt lat="44.50545" lon="-0.75127">
        <ele>58</ele>
      </trkpt>
      <trkpt lat="44.50537" lon="-0.75094">
        <ele>58</ele>
      </trkpt>
      <trkpt lat="44.50533" lon="-0.75074">
        <ele>58</ele>
      </trkpt>
      <trkpt lat="44.50527" lon="-0.75042">
        <ele>58</ele>
      </trkpt>
      <trkpt lat="44.50527" lon="-0.75034">
        <ele>58</ele>
      </trkpt>
      <trkpt lat="44.50527" lon="-0.75024">
        <ele>58</ele>
      </trkpt>
      <trkpt lat="44.50528" lon="-0.75008">
        <ele>58</ele>
      </trkpt>
      <trkpt lat="44.5053" lon="-0.74993">
        <ele>58</ele>
      </trkpt>
      <trkpt lat="44.50531" lon="-0.74978">
        <ele>58</ele>
      </trkpt>
      <trkpt lat="44.50531" lon="-0.7497">
        <ele>58</ele>
      </trkpt>
      <trkpt lat="44.50531" lon="-0.74954">
        <ele>58</ele>
      </trkpt>
      <trkpt lat="44.50529" lon="-0.74909">
        <ele>58</ele>
      </trkpt>
      <trkpt lat="44.50526" lon="-0.74833">
        <ele>58</ele>
      </trkpt>
      <trkpt lat="44.50524" lon="-0.74816">
        <ele>58</ele>
      </trkpt>
      <trkpt lat="44.50522" lon="-0.74794">
        <ele>58</ele>
      </trkpt>
      <trkpt lat="44.50519" lon="-0.74764">
        <ele>58</ele>
      </trkpt>
      <trkpt lat="44.50517" lon="-0.74735">
        <ele>58</ele>
      </trkpt>
      <trkpt lat="44.50517" lon="-0.74705">
        <ele>58</ele>
      </trkpt>
      <trkpt lat="44.50517" lon="-0.74684">
        <ele>58.1</ele>
      </trkpt>
      <trkpt lat="44.50515" lon="-0.74657">
        <ele>58.4</ele>
      </trkpt>
      <trkpt lat="44.50513" lon="-0.74617">
        <ele>58.5</ele>
      </trkpt>
      <trkpt lat="44.50512" lon="-0.7456">
        <ele>58.6</ele>
      </trkpt>
      <trkpt lat="44.50511" lon="-0.74518">
        <ele>58.9</ele>
      </trkpt>
      <trkpt lat="44.50511" lon="-0.74496">
        <ele>58.6</ele>
      </trkpt>
      <trkpt lat="44.50514" lon="-0.74407">
        <ele>59</ele>
      </trkpt>
      <trkpt lat="44.50515" lon="-0.74368">
        <ele>59</ele>
      </trkpt>
      <trkpt lat="44.50517" lon="-0.74341">
        <ele>59.4</ele>
      </trkpt>
      <trkpt lat="44.50518" lon="-0.74317">
        <ele>59.5</ele>
      </trkpt>
      <trkpt lat="44.50519" lon="-0.74284">
        <ele>59.8</ele>
      </trkpt>
      <trkpt lat="44.50517" lon="-0.7423">
        <ele>60</ele>
      </trkpt>
      <trkpt lat="44.50515" lon="-0.7418">
        <ele>60</ele>
      </trkpt>
      <trkpt lat="44.50513" lon="-0.74141">
        <ele>60</ele>
      </trkpt>
      <trkpt lat="44.50518" lon="-0.74096">
        <ele>60</ele>
      </trkpt>
      <trkpt lat="44.50517" lon="-0.74087">
        <ele>60</ele>
      </trkpt>
      <trkpt lat="44.50517" lon="-0.74064">
        <ele>60.4</ele>
      </trkpt>
      <trkpt lat="44.50513" lon="-0.74023">
        <ele>60.5</ele>
      </trkpt>
      <trkpt lat="44.50512" lon="-0.74011">
        <ele>60.4</ele>
      </trkpt>
      <trkpt lat="44.50512" lon="-0.73994">
        <ele>60.4</ele>
      </trkpt>
      <trkpt lat="44.50512" lon="-0.7398">
        <ele>60.4</ele>
      </trkpt>
      <trkpt lat="44.50513" lon="-0.73963">
        <ele>60.5</ele>
      </trkpt>
      <trkpt lat="44.50514" lon="-0.73914">
        <ele>60.5</ele>
      </trkpt>
      <trkpt lat="44.50513" lon="-0.73891">
        <ele>61</ele>
      </trkpt>
      <trkpt lat="44.50512" lon="-0.73885">
        <ele>61</ele>
      </trkpt>
      <trkpt lat="44.5051" lon="-0.73861">
        <ele>61</ele>
      </trkpt>
      <trkpt lat="44.50512" lon="-0.73838">
        <ele>61</ele>
      </trkpt>
      <trkpt lat="44.50514" lon="-0.73819">
        <ele>61</ele>
      </trkpt>
      <trkpt lat="44.50523" lon="-0.73796">
        <ele>61</ele>
      </trkpt>
      <trkpt lat="44.50527" lon="-0.7378">
        <ele>61</ele>
      </trkpt>
      <trkpt lat="44.50529" lon="-0.73698">
        <ele>61</ele>
      </trkpt>
      <trkpt lat="44.50529" lon="-0.7368">
        <ele>61</ele>
      </trkpt>
      <trkpt lat="44.5053" lon="-0.73668">
        <ele>61</ele>
      </trkpt>
      <trkpt lat="44.50529" lon="-0.73651">
        <ele>61</ele>
      </trkpt>
      <trkpt lat="44.50532" lon="-0.73605">
        <ele>61</ele>
      </trkpt>
      <trkpt lat="44.50535" lon="-0.73561">
        <ele>61</ele>
      </trkpt>
      <trkpt lat="44.50536" lon="-0.73531">
        <ele>61</ele>
      </trkpt>
      <trkpt lat="44.50538" lon="-0.73509">
        <ele>61</ele>
      </trkpt>
      <trkpt lat="44.5054" lon="-0.73496">
        <ele>61</ele>
      </trkpt>
      <trkpt lat="44.50542" lon="-0.73492">
        <ele>61</ele>
      </trkpt>
      <trkpt lat="44.50543" lon="-0.73466">
        <ele>61</ele>
      </trkpt>
      <trkpt lat="44.50543" lon="-0.7341">
        <ele>61</ele>
      </trkpt>
      <trkpt lat="44.50544" lon="-0.73375">
        <ele>61</ele>
      </trkpt>
      <trkpt lat="44.50544" lon="-0.73347">
        <ele>61</ele>
      </trkpt>
      <trkpt lat="44.50546" lon="-0.73324">
        <ele>61</ele>
      </trkpt>
      <trkpt lat="44.50549" lon="-0.73278">
        <ele>61</ele>
      </trkpt>
      <trkpt lat="44.50553" lon="-0.73223">
        <ele>61</ele>
      </trkpt>
      <trkpt lat="44.50555" lon="-0.73202">
        <ele>61</ele>
      </trkpt>
      <trkpt lat="44.50556" lon="-0.73164">
        <ele>61</ele>
      </trkpt>
      <trkpt lat="44.50556" lon="-0.7314">
        <ele>61</ele>
      </trkpt>
      <trkpt lat="44.50557" lon="-0.73123">
        <ele>61.5</ele>
      </trkpt>
      <trkpt lat="44.50559" lon="-0.73099">
        <ele>61.9</ele>
      </trkpt>
      <trkpt lat="44.5056" lon="-0.73082">
        <ele>61.9</ele>
      </trkpt>
      <trkpt lat="44.50562" lon="-0.73063">
        <ele>61.9</ele>
      </trkpt>
      <trkpt lat="44.50566" lon="-0.73044">
        <ele>62</ele>
      </trkpt>
      <trkpt lat="44.50574" lon="-0.72989">
        <ele>62</ele>
      </trkpt>
      <trkpt lat="44.50576" lon="-0.72962">
        <ele>62</ele>
      </trkpt>
      <trkpt lat="44.50579" lon="-0.72937">
        <ele>62</ele>
      </trkpt>
      <trkpt lat="44.50592" lon="-0.72866">
        <ele>62</ele>
      </trkpt>
      <trkpt lat="44.506" lon="-0.72824">
        <ele>62</ele>
      </trkpt>
      <trkpt lat="44.50608" lon="-0.72794">
        <ele>62</ele>
      </trkpt>
      <trkpt lat="44.50614" lon="-0.72768">
        <ele>62</ele>
      </trkpt>
      <trkpt lat="44.50621" lon="-0.72718">
        <ele>62.1</ele>
      </trkpt>
      <trkpt lat="44.50626" lon="-0.72683">
        <ele>62.7</ele>
      </trkpt>
      <trkpt lat="44.50629" lon="-0.72652">
        <ele>63</ele>
      </trkpt>
      <trkpt lat="44.50631" lon="-0.72632">
        <ele>63</ele>
      </trkpt>
      <trkpt lat="44.50632" lon="-0.72613">
        <ele>63</ele>
      </trkpt>
      <trkpt lat="44.50632" lon="-0.72594">
        <ele>63.1</ele>
      </trkpt>
      <trkpt lat="44.50631" lon="-0.72582">
        <ele>63.3</ele>
      </trkpt>
      <trkpt lat="44.50627" lon="-0.72569">
        <ele>63.7</ele>
      </trkpt>
      <trkpt lat="44.5062" lon="-0.72557">
        <ele>64</ele>
      </trkpt>
      <trkpt lat="44.50615" lon="-0.72548">
        <ele>63.7</ele>
      </trkpt>
      <trkpt lat="44.50609" lon="-0.72539">
        <ele>63.5</ele>
      </trkpt>
      <trkpt lat="44.50616" lon="-0.7253">
        <ele>63.1</ele>
      </trkpt>
      <trkpt lat="44.50623" lon="-0.72522">
        <ele>63.2</ele>
      </trkpt>
      <trkpt lat="44.5063" lon="-0.72515">
        <ele>63.5</ele>
      </trkpt>
      <trkpt lat="44.50639" lon="-0.72511">
        <ele>63.6</ele>
      </trkpt>
      <trkpt lat="44.50655" lon="-0.72505">
        <ele>63.9</ele>
      </trkpt>
      <trkpt lat="44.50673" lon="-0.72499">
        <ele>64</ele>
      </trkpt>
      <trkpt lat="44.50716" lon="-0.72481">
        <ele>64</ele>
      </trkpt>
      <trkpt lat="44.50778" lon="-0.72456">
        <ele>64.6</ele>
      </trkpt>
      <trkpt lat="44.50802" lon="-0.72447">
        <ele>65</ele>
      </trkpt>
      <trkpt lat="44.50809" lon="-0.72446">
        <ele>65.1</ele>
      </trkpt>
      <trkpt lat="44.50857" lon="-0.72426">
        <ele>66</ele>
      </trkpt>
      <trkpt lat="44.50872" lon="-0.72419">
        <ele>66.4</ele>
      </trkpt>
      <trkpt lat="44.50885" lon="-0.7241">
        <ele>66.9</ele>
      </trkpt>
      <trkpt lat="44.50897" lon="-0.72402">
        <ele>67.1</ele>
      </trkpt>
      <trkpt lat="44.50908" lon="-0.72393">
        <ele>67.1</ele>
      </trkpt>
      <trkpt lat="44.50944" lon="-0.72356">
        <ele>67</ele>
      </trkpt>
      <trkpt lat="44.50983" lon="-0.72316">
        <ele>66</ele>
      </trkpt>
      <trkpt lat="44.51028" lon="-0.72267">
        <ele>65</ele>
      </trkpt>
      <trkpt lat="44.51038" lon="-0.72255">
        <ele>65</ele>
      </trkpt>
      <trkpt lat="44.51046" lon="-0.72246">
        <ele>65</ele>
      </trkpt>
      <trkpt lat="44.51057" lon="-0.72232">
        <ele>65</ele>
      </trkpt>
      <trkpt lat="44.51062" lon="-0.72217">
        <ele>64.6</ele>
      </trkpt>
      <trkpt lat="44.51065" lon="-0.72203">
        <ele>64.2</ele>
      </trkpt>
      <trkpt lat="44.51069" lon="-0.72179">
        <ele>64.3</ele>
      </trkpt>
      <trkpt lat="44.51077" lon="-0.72145">
        <ele>64.2</ele>
      </trkpt>
      <trkpt lat="44.5108" lon="-0.72133">
        <ele>64.1</ele>
      </trkpt>
      <trkpt lat="44.51086" lon="-0.72127">
        <ele>63.9</ele>
      </trkpt>
      <trkpt lat="44.51092" lon="-0.72122">
        <ele>63.5</ele>
      </trkpt>
      <trkpt lat="44.51108" lon="-0.72118">
        <ele>62.9</ele>
      </trkpt>
      <trkpt lat="44.51122" lon="-0.72115">
        <ele>62.5</ele>
      </trkpt>
      <trkpt lat="44.51131" lon="-0.72111">
        <ele>62.3</ele>
      </trkpt>
      <trkpt lat="44.51144" lon="-0.72104">
        <ele>61.8</ele>
      </trkpt>
      <trkpt lat="44.51149" lon="-0.72093">
        <ele>61.6</ele>
      </trkpt>
      <trkpt lat="44.51152" lon="-0.7207">
        <ele>61.5</ele>
      </trkpt>
      <trkpt lat="44.51153" lon="-0.72036">
        <ele>61.5</ele>
      </trkpt>
      <trkpt lat="44.51153" lon="-0.72033">
        <ele>61.5</ele>
      </trkpt>
      <trkpt lat="44.51154" lon="-0.72015">
        <ele>61.4</ele>
      </trkpt>
      <trkpt lat="44.51156" lon="-0.71995">
        <ele>61.5</ele>
      </trkpt>
      <trkpt lat="44.51154" lon="-0.71933">
        <ele>62</ele>
      </trkpt>
      <trkpt lat="44.5115" lon="-0.71854">
        <ele>62.7</ele>
      </trkpt>
      <trkpt lat="44.5115" lon="-0.71823">
        <ele>63</ele>
      </trkpt>
      <trkpt lat="44.51149" lon="-0.71787">
        <ele>63</ele>
      </trkpt>
      <trkpt lat="44.51145" lon="-0.71766">
        <ele>63</ele>
      </trkpt>
      <trkpt lat="44.51144" lon="-0.71752">
        <ele>63</ele>
      </trkpt>
      <trkpt lat="44.51143" lon="-0.71734">
        <ele>63</ele>
      </trkpt>
      <trkpt lat="44.51145" lon="-0.71717">
        <ele>63</ele>
      </trkpt>
      <trkpt lat="44.51147" lon="-0.71706">
        <ele>63</ele>
      </trkpt>
      <trkpt lat="44.51151" lon="-0.71687">
        <ele>63</ele>
      </trkpt>
      <trkpt lat="44.51155" lon="-0.71656">
        <ele>63</ele>
      </trkpt>
      <trkpt lat="44.51158" lon="-0.71584">
        <ele>63</ele>
      </trkpt>
      <trkpt lat="44.51162" lon="-0.71517">
        <ele>62.2</ele>
      </trkpt>
      <trkpt lat="44.51163" lon="-0.71424">
        <ele>62</ele>
      </trkpt>
      <trkpt lat="44.51162" lon="-0.71406">
        <ele>61.7</ele>
      </trkpt>
      <trkpt lat="44.5116" lon="-0.71394">
        <ele>61.4</ele>
      </trkpt>
      <trkpt lat="44.51158" lon="-0.7138">
        <ele>61.3</ele>
      </trkpt>
      <trkpt lat="44.51157" lon="-0.71362">
        <ele>61.4</ele>
      </trkpt>
      <trkpt lat="44.51155" lon="-0.71343">
        <ele>61.4</ele>
      </trkpt>
      <trkpt lat="44.51155" lon="-0.71328">
        <ele>61.3</ele>
      </trkpt>
      <trkpt lat="44.51155" lon="-0.71312">
        <ele>61.1</ele>
      </trkpt>
      <trkpt lat="44.51155" lon="-0.71296">
        <ele>60.8</ele>
      </trkpt>
      <trkpt lat="44.51154" lon="-0.71282">
        <ele>60.5</ele>
      </trkpt>
      <trkpt lat="44.51153" lon="-0.71271">
        <ele>60.4</ele>
      </trkpt>
      <trkpt lat="44.51151" lon="-0.71263">
        <ele>60.3</ele>
      </trkpt>
      <trkpt lat="44.5115" lon="-0.71255">
        <ele>60.1</ele>
      </trkpt>
      <trkpt lat="44.51148" lon="-0.71249">
        <ele>60</ele>
      </trkpt>
      <trkpt lat="44.51125" lon="-0.71191">
        <ele>59.9</ele>
      </trkpt>
      <trkpt lat="44.51063" lon="-0.71043">
        <ele>60</ele>
      </trkpt>
      <trkpt lat="44.51011" lon="-0.70918">
        <ele>60.6</ele>
      </trkpt>
      <trkpt lat="44.5098" lon="-0.70837">
        <ele>60.7</ele>
      </trkpt>
      <trkpt lat="44.50944" lon="-0.70752">
        <ele>62</ele>
      </trkpt>
      <trkpt lat="44.50912" lon="-0.70638">
        <ele>63.2</ele>
      </trkpt>
      <trkpt lat="44.50901" lon="-0.70592">
        <ele>63</ele>
      </trkpt>
      <trkpt lat="44.50895" lon="-0.7054">
        <ele>63</ele>
      </trkpt>
      <trkpt lat="44.50884" lon="-0.70477">
        <ele>63</ele>
      </trkpt>
      <trkpt lat="44.50865" lon="-0.70395">
        <ele>63</ele>
      </trkpt>
      <trkpt lat="44.50858" lon="-0.7036">
        <ele>64</ele>
      </trkpt>
      <trkpt lat="44.50851" lon="-0.70327">
        <ele>63.9</ele>
      </trkpt>
      <trkpt lat="44.50833" lon="-0.70226">
        <ele>63</ele>
      </trkpt>
      <trkpt lat="44.50814" lon="-0.70159">
        <ele>61.9</ele>
      </trkpt>
      <trkpt lat="44.50797" lon="-0.70061">
        <ele>62.4</ele>
      </trkpt>
      <trkpt lat="44.50786" lon="-0.6998">
        <ele>62.9</ele>
      </trkpt>
      <trkpt lat="44.50774" lon="-0.69943">
        <ele>62.3</ele>
      </trkpt>
      <trkpt lat="44.50739" lon="-0.69849">
        <ele>62.9</ele>
      </trkpt>
      <trkpt lat="44.507" lon="-0.69725">
        <ele>62.9</ele>
      </trkpt>
      <trkpt lat="44.50669" lon="-0.69614">
        <ele>63</ele>
      </trkpt>
      <trkpt lat="44.50669" lon="-0.69612">
        <ele>63</ele>
      </trkpt>
      <trkpt lat="44.50671" lon="-0.6959">
        <ele>63</ele>
      </trkpt>
      <trkpt lat="44.50674" lon="-0.69506">
        <ele>63.8</ele>
      </trkpt>
      <trkpt lat="44.50679" lon="-0.69449">
        <ele>64.1</ele>
      </trkpt>
      <trkpt lat="44.50686" lon="-0.6943">
        <ele>63.6</ele>
      </trkpt>
      <trkpt lat="44.50701" lon="-0.69413">
        <ele>63.2</ele>
      </trkpt>
      <trkpt lat="44.50706" lon="-0.69394">
        <ele>63.4</ele>
      </trkpt>
      <trkpt lat="44.50708" lon="-0.69374">
        <ele>63.8</ele>
      </trkpt>
      <trkpt lat="44.50702" lon="-0.69342">
        <ele>64</ele>
      </trkpt>
      <trkpt lat="44.50698" lon="-0.69315">
        <ele>63.4</ele>
      </trkpt>
      <trkpt lat="44.50701" lon="-0.69215">
        <ele>64.2</ele>
      </trkpt>
      <trkpt lat="44.50706" lon="-0.69167">
        <ele>65</ele>
      </trkpt>
      <trkpt lat="44.50709" lon="-0.69102">
        <ele>64.8</ele>
      </trkpt>
      <trkpt lat="44.50708" lon="-0.69067">
        <ele>64.8</ele>
      </trkpt>
      <trkpt lat="44.50694" lon="-0.68986">
        <ele>65</ele>
      </trkpt>
      <trkpt lat="44.50683" lon="-0.68934">
        <ele>65</ele>
      </trkpt>
      <trkpt lat="44.5068" lon="-0.68908">
        <ele>65</ele>
      </trkpt>
      <trkpt lat="44.50678" lon="-0.68889">
        <ele>65</ele>
      </trkpt>
      <trkpt lat="44.50679" lon="-0.68868">
        <ele>65</ele>
      </trkpt>
      <trkpt lat="44.50677" lon="-0.68853">
        <ele>65</ele>
      </trkpt>
      <trkpt lat="44.50672" lon="-0.68811">
        <ele>65</ele>
      </trkpt>
      <trkpt lat="44.50673" lon="-0.68796">
        <ele>65.1</ele>
      </trkpt>
      <trkpt lat="44.50674" lon="-0.68783">
        <ele>65.2</ele>
      </trkpt>
      <trkpt lat="44.50671" lon="-0.68754">
        <ele>65.2</ele>
      </trkpt>
      <trkpt lat="44.50648" lon="-0.68635">
        <ele>66.1</ele>
      </trkpt>
      <trkpt lat="44.50634" lon="-0.68553">
        <ele>66.8</ele>
      </trkpt>
      <trkpt lat="44.5063" lon="-0.6853">
        <ele>66.7</ele>
      </trkpt>
      <trkpt lat="44.50633" lon="-0.68467">
        <ele>67.8</ele>
      </trkpt>
      <trkpt lat="44.50633" lon="-0.68451">
        <ele>67.8</ele>
      </trkpt>
      <trkpt lat="44.50623" lon="-0.68387">
        <ele>67.9</ele>
      </trkpt>
      <trkpt lat="44.50618" lon="-0.68324">
        <ele>67.8</ele>
      </trkpt>
      <trkpt lat="44.50612" lon="-0.68199">
        <ele>69</ele>
      </trkpt>
      <trkpt lat="44.5061" lon="-0.68128">
        <ele>68.6</ele>
      </trkpt>
      <trkpt lat="44.50613" lon="-0.68098">
        <ele>68.3</ele>
      </trkpt>
      <trkpt lat="44.50623" lon="-0.68052">
        <ele>69.7</ele>
      </trkpt>
      <trkpt lat="44.50625" lon="-0.68022">
        <ele>70</ele>
      </trkpt>
      <trkpt lat="44.50623" lon="-0.67996">
        <ele>70.3</ele>
      </trkpt>
      <trkpt lat="44.50616" lon="-0.67953">
        <ele>69.7</ele>
      </trkpt>
      <trkpt lat="44.50619" lon="-0.67929">
        <ele>69.9</ele>
      </trkpt>
      <trkpt lat="44.50626" lon="-0.67858">
        <ele>70.1</ele>
      </trkpt>
      <trkpt lat="44.50633" lon="-0.67807">
        <ele>69.9</ele>
      </trkpt>
      <trkpt lat="44.50632" lon="-0.67766">
        <ele>70.3</ele>
      </trkpt>
      <trkpt lat="44.50619" lon="-0.67701">
        <ele>71.7</ele>
      </trkpt>
      <trkpt lat="44.50607" lon="-0.67675">
        <ele>72.3</ele>
      </trkpt>
      <trkpt lat="44.50596" lon="-0.67649">
        <ele>73</ele>
      </trkpt>
      <trkpt lat="44.50568" lon="-0.67607">
        <ele>71.9</ele>
      </trkpt>
      <trkpt lat="44.50553" lon="-0.67583">
        <ele>71.3</ele>
      </trkpt>
      <trkpt lat="44.50547" lon="-0.67565">
        <ele>71.2</ele>
      </trkpt>
      <trkpt lat="44.50524" lon="-0.67487">
        <ele>70.1</ele>
      </trkpt>
      <trkpt lat="44.50492" lon="-0.67428">
        <ele>70.1</ele>
      </trkpt>
      <trkpt lat="44.50476" lon="-0.67404">
        <ele>70</ele>
      </trkpt>
      <trkpt lat="44.50457" lon="-0.67376">
        <ele>70.3</ele>
      </trkpt>
      <trkpt lat="44.50446" lon="-0.67348">
        <ele>70</ele>
      </trkpt>
      <trkpt lat="44.50435" lon="-0.6729">
        <ele>71</ele>
      </trkpt>
      <trkpt lat="44.50406" lon="-0.67146">
        <ele>70.8</ele>
      </trkpt>
      <trkpt lat="44.50401" lon="-0.67124">
        <ele>71.2</ele>
      </trkpt>
      <trkpt lat="44.50394" lon="-0.671">
        <ele>71.3</ele>
      </trkpt>
      <trkpt lat="44.50383" lon="-0.67059">
        <ele>71.2</ele>
      </trkpt>
      <trkpt lat="44.50374" lon="-0.66966">
        <ele>71.1</ele>
      </trkpt>
      <trkpt lat="44.50361" lon="-0.66818">
        <ele>71</ele>
      </trkpt>
      <trkpt lat="44.50355" lon="-0.66757">
        <ele>71.2</ele>
      </trkpt>
      <trkpt lat="44.50354" lon="-0.66704">
        <ele>70.7</ele>
      </trkpt>
      <trkpt lat="44.50343" lon="-0.66668">
        <ele>70.7</ele>
      </trkpt>
      <trkpt lat="44.50334" lon="-0.66625">
        <ele>71</ele>
      </trkpt>
      <trkpt lat="44.50327" lon="-0.66599">
        <ele>71.2</ele>
      </trkpt>
      <trkpt lat="44.50315" lon="-0.66575">
        <ele>71.7</ele>
      </trkpt>
      <trkpt lat="44.50282" lon="-0.66545">
        <ele>71.9</ele>
      </trkpt>
      <trkpt lat="44.50255" lon="-0.6652">
        <ele>72.9</ele>
      </trkpt>
      <trkpt lat="44.50241" lon="-0.66506">
        <ele>72.7</ele>
      </trkpt>
      <trkpt lat="44.50226" lon="-0.66476">
        <ele>72</ele>
      </trkpt>
      <trkpt lat="44.50209" lon="-0.6643">
        <ele>72</ele>
      </trkpt>
      <trkpt lat="44.50187" lon="-0.66383">
        <ele>72.3</ele>
      </trkpt>
      <trkpt lat="44.50167" lon="-0.66332">
        <ele>72</ele>
      </trkpt>
      <trkpt lat="44.50153" lon="-0.66294">
        <ele>72.5</ele>
      </trkpt>
      <trkpt lat="44.50141" lon="-0.66269">
        <ele>72.6</ele>
      </trkpt>
      <trkpt lat="44.50178" lon="-0.66242">
        <ele>71.9</ele>
      </trkpt>
      <trkpt lat="44.50226" lon="-0.6621">
        <ele>71.5</ele>
      </trkpt>
      <trkpt lat="44.50265" lon="-0.66185">
        <ele>70.3</ele>
      </trkpt>
      <trkpt lat="44.50301" lon="-0.66158">
        <ele>70</ele>
      </trkpt>
      <trkpt lat="44.50326" lon="-0.66147">
        <ele>70</ele>
      </trkpt>
      <trkpt lat="44.50357" lon="-0.66126">
        <ele>69.5</ele>
      </trkpt>
      <trkpt lat="44.50373" lon="-0.66114">
        <ele>69.9</ele>
      </trkpt>
      <trkpt lat="44.50377" lon="-0.66109">
        <ele>70</ele>
      </trkpt>
      <trkpt lat="44.50378" lon="-0.66103">
        <ele>70</ele>
      </trkpt>
      <trkpt lat="44.50375" lon="-0.66095">
        <ele>70</ele>
      </trkpt>
      <trkpt lat="44.50357" lon="-0.66107">
        <ele>70</ele>
      </trkpt>
      <trkpt lat="44.50332" lon="-0.66114">
        <ele>70</ele>
      </trkpt>
      <trkpt lat="44.50308" lon="-0.66116">
        <ele>70</ele>
      </trkpt>
      <trkpt lat="44.50281" lon="-0.66133">
        <ele>70</ele>
      </trkpt>
      <trkpt lat="44.50232" lon="-0.66158">
        <ele>70.6</ele>
      </trkpt>
      <trkpt lat="44.50197" lon="-0.66175">
        <ele>70.7</ele>
      </trkpt>
      <trkpt lat="44.50185" lon="-0.66176">
        <ele>71</ele>
      </trkpt>
      <trkpt lat="44.50173" lon="-0.66174">
        <ele>71.5</ele>
      </trkpt>
      <trkpt lat="44.50163" lon="-0.66166">
        <ele>72</ele>
      </trkpt>
      <trkpt lat="44.50146" lon="-0.66152">
        <ele>72</ele>
      </trkpt>
      <trkpt lat="44.50124" lon="-0.66133">
        <ele>73.1</ele>
      </trkpt>
      <trkpt lat="44.50096" lon="-0.66109">
        <ele>74</ele>
      </trkpt>
      <trkpt lat="44.50069" lon="-0.66087">
        <ele>73.4</ele>
      </trkpt>
      <trkpt lat="44.50055" lon="-0.66078">
        <ele>73.2</ele>
      </trkpt>
      <trkpt lat="44.50049" lon="-0.66077">
        <ele>73.2</ele>
      </trkpt>
      <trkpt lat="44.5004" lon="-0.66077">
        <ele>73.2</ele>
      </trkpt>
      <trkpt lat="44.50031" lon="-0.6608">
        <ele>73.1</ele>
      </trkpt>
      <trkpt lat="44.50012" lon="-0.66092">
        <ele>73.6</ele>
      </trkpt>
      <trkpt lat="44.49994" lon="-0.66106">
        <ele>73.7</ele>
      </trkpt>
      <trkpt lat="44.49971" lon="-0.66117">
        <ele>73</ele>
      </trkpt>
      <trkpt lat="44.49962" lon="-0.66124">
        <ele>73</ele>
      </trkpt>
      <trkpt lat="44.49944" lon="-0.66136">
        <ele>73</ele>
      </trkpt>
      <trkpt lat="44.49926" lon="-0.66146">
        <ele>73</ele>
      </trkpt>
      <trkpt lat="44.49907" lon="-0.66149">
        <ele>73</ele>
      </trkpt>
      <trkpt lat="44.49879" lon="-0.66147">
        <ele>73</ele>
      </trkpt>
      <trkpt lat="44.49805" lon="-0.66123">
        <ele>74</ele>
      </trkpt>
      <trkpt lat="44.49779" lon="-0.66115">
        <ele>74</ele>
      </trkpt>
      <trkpt lat="44.49767" lon="-0.66108">
        <ele>73.9</ele>
      </trkpt>
      <trkpt lat="44.49755" lon="-0.66098">
        <ele>73.9</ele>
      </trkpt>
      <trkpt lat="44.49744" lon="-0.66083">
        <ele>74</ele>
      </trkpt>
      <trkpt lat="44.4973" lon="-0.66061">
        <ele>74.4</ele>
      </trkpt>
      <trkpt lat="44.49722" lon="-0.6605">
        <ele>74.8</ele>
      </trkpt>
      <trkpt lat="44.49707" lon="-0.66034">
        <ele>74.5</ele>
      </trkpt>
      <trkpt lat="44.49693" lon="-0.66016">
        <ele>74.6</ele>
      </trkpt>
      <trkpt lat="44.49665" lon="-0.65964">
        <ele>74</ele>
      </trkpt>
      <trkpt lat="44.49664" lon="-0.6594">
        <ele>74</ele>
      </trkpt>
      <trkpt lat="44.49664" lon="-0.65877">
        <ele>74</ele>
      </trkpt>
      <trkpt lat="44.49664" lon="-0.65852">
        <ele>74</ele>
      </trkpt>
      <trkpt lat="44.49665" lon="-0.65809">
        <ele>74.8</ele>
      </trkpt>
      <trkpt lat="44.49665" lon="-0.65741">
        <ele>74</ele>
      </trkpt>
      <trkpt lat="44.49664" lon="-0.65728">
        <ele>74</ele>
      </trkpt>
      <trkpt lat="44.49662" lon="-0.65688">
        <ele>74.2</ele>
      </trkpt>
      <trkpt lat="44.49653" lon="-0.65604">
        <ele>74.6</ele>
      </trkpt>
      <trkpt lat="44.4965" lon="-0.65556">
        <ele>75.4</ele>
      </trkpt>
      <trkpt lat="44.49652" lon="-0.65526">
        <ele>74.9</ele>
      </trkpt>
      <trkpt lat="44.49669" lon="-0.65492">
        <ele>74.1</ele>
      </trkpt>
      <trkpt lat="44.49691" lon="-0.6547">
        <ele>74</ele>
      </trkpt>
      <trkpt lat="44.49709" lon="-0.65453">
        <ele>74.3</ele>
      </trkpt>
      <trkpt lat="44.49744" lon="-0.65408">
        <ele>72.7</ele>
      </trkpt>
      <trkpt lat="44.49751" lon="-0.65396">
        <ele>72.3</ele>
      </trkpt>
      <trkpt lat="44.49752" lon="-0.65393">
        <ele>72.2</ele>
      </trkpt>
      <trkpt lat="44.49752" lon="-0.65391">
        <ele>72.2</ele>
      </trkpt>
      <trkpt lat="44.49755" lon="-0.6537">
        <ele>72.1</ele>
      </trkpt>
      <trkpt lat="44.49755" lon="-0.65342">
        <ele>71.4</ele>
      </trkpt>
      <trkpt lat="44.49754" lon="-0.65332">
        <ele>71.2</ele>
      </trkpt>
      <trkpt lat="44.49754" lon="-0.65295">
        <ele>71.3</ele>
      </trkpt>
      <trkpt lat="44.49761" lon="-0.65252">
        <ele>71.4</ele>
      </trkpt>
      <trkpt lat="44.49772" lon="-0.65199">
        <ele>70.6</ele>
      </trkpt>
      <trkpt lat="44.49784" lon="-0.65148">
        <ele>71.2</ele>
      </trkpt>
      <trkpt lat="44.49783" lon="-0.65133">
        <ele>71.5</ele>
      </trkpt>
      <trkpt lat="44.49778" lon="-0.651">
        <ele>71.4</ele>
      </trkpt>
      <trkpt lat="44.49772" lon="-0.65069">
        <ele>72.3</ele>
      </trkpt>
      <trkpt lat="44.49763" lon="-0.65036">
        <ele>72.4</ele>
      </trkpt>
      <trkpt lat="44.49745" lon="-0.64985">
        <ele>71</ele>
      </trkpt>
      <trkpt lat="44.49737" lon="-0.64957">
        <ele>71</ele>
      </trkpt>
      <trkpt lat="44.49725" lon="-0.64911">
        <ele>71</ele>
      </trkpt>
      <trkpt lat="44.49717" lon="-0.64869">
        <ele>71</ele>
      </trkpt>
      <trkpt lat="44.49699" lon="-0.64865">
        <ele>71</ele>
      </trkpt>
      <trkpt lat="44.49672" lon="-0.64859">
        <ele>70.9</ele>
      </trkpt>
      <trkpt lat="44.49666" lon="-0.64814">
        <ele>70</ele>
      </trkpt>
      <trkpt lat="44.49667" lon="-0.64806">
        <ele>70</ele>
      </trkpt>
      <trkpt lat="44.49673" lon="-0.64792">
        <ele>70.4</ele>
      </trkpt>
      <trkpt lat="44.49672" lon="-0.64779">
        <ele>70.6</ele>
      </trkpt>
      <trkpt lat="44.49653" lon="-0.64733">
        <ele>69.9</ele>
      </trkpt>
      <trkpt lat="44.49633" lon="-0.6466">
        <ele>69.8</ele>
      </trkpt>
      <trkpt lat="44.49614" lon="-0.64596">
        <ele>69.8</ele>
      </trkpt>
      <trkpt lat="44.49595" lon="-0.64529">
        <ele>69.2</ele>
      </trkpt>
      <trkpt lat="44.4959" lon="-0.64514">
        <ele>69.5</ele>
      </trkpt>
      <trkpt lat="44.49569" lon="-0.64451">
        <ele>70.9</ele>
      </trkpt>
      <trkpt lat="44.49557" lon="-0.64429">
        <ele>70.9</ele>
      </trkpt>
      <trkpt lat="44.49548" lon="-0.64386">
        <ele>70.9</ele>
      </trkpt>
      <trkpt lat="44.49551" lon="-0.64388">
        <ele>71</ele>
      </trkpt>
      <trkpt lat="44.49554" lon="-0.64389">
        <ele>71</ele>
      </trkpt>
      <trkpt lat="44.49552" lon="-0.64372">
        <ele>70.5</ele>
      </trkpt>
      <trkpt lat="44.4955" lon="-0.64359">
        <ele>70.2</ele>
      </trkpt>
      <trkpt lat="44.49543" lon="-0.64337">
        <ele>70.4</ele>
      </trkpt>
      <trkpt lat="44.49538" lon="-0.64317">
        <ele>70.4</ele>
      </trkpt>
      <trkpt lat="44.49534" lon="-0.64261">
        <ele>70.5</ele>
      </trkpt>
      <trkpt lat="44.49533" lon="-0.64203">
        <ele>70.5</ele>
      </trkpt>
      <trkpt lat="44.49529" lon="-0.64118">
        <ele>70.2</ele>
      </trkpt>
      <trkpt lat="44.49527" lon="-0.64095">
        <ele>70</ele>
      </trkpt>
      <trkpt lat="44.49526" lon="-0.64082">
        <ele>70.1</ele>
      </trkpt>
      <trkpt lat="44.49523" lon="-0.64059">
        <ele>70.9</ele>
      </trkpt>
      <trkpt lat="44.49522" lon="-0.64046">
        <ele>70.7</ele>
      </trkpt>
      <trkpt lat="44.49526" lon="-0.6403">
        <ele>70.2</ele>
      </trkpt>
      <trkpt lat="44.49532" lon="-0.64018">
        <ele>70.1</ele>
      </trkpt>
      <trkpt lat="44.4954" lon="-0.64012">
        <ele>69.7</ele>
      </trkpt>
      <trkpt lat="44.49548" lon="-0.64013">
        <ele>69.1</ele>
      </trkpt>
      <trkpt lat="44.49559" lon="-0.64012">
        <ele>68.6</ele>
      </trkpt>
      <trkpt lat="44.49598" lon="-0.63998">
        <ele>69</ele>
      </trkpt>
      <trkpt lat="44.49671" lon="-0.63964">
        <ele>68.2</ele>
      </trkpt>
      <trkpt lat="44.49676" lon="-0.63917">
        <ele>68.3</ele>
      </trkpt>
      <trkpt lat="44.49678" lon="-0.63887">
        <ele>68</ele>
      </trkpt>
      <trkpt lat="44.49664" lon="-0.63825">
        <ele>68.3</ele>
      </trkpt>
      <trkpt lat="44.49657" lon="-0.63805">
        <ele>69</ele>
      </trkpt>
      <trkpt lat="44.49655" lon="-0.63803">
        <ele>68.9</ele>
      </trkpt>
      <trkpt lat="44.49775" lon="-0.63753">
        <ele>68.9</ele>
      </trkpt>
      <trkpt lat="44.49809" lon="-0.63741">
        <ele>68.9</ele>
      </trkpt>
      <trkpt lat="44.49797" lon="-0.63631">
        <ele>70</ele>
      </trkpt>
      <trkpt lat="44.49791" lon="-0.63586">
        <ele>70</ele>
      </trkpt>
      <trkpt lat="44.4979" lon="-0.63578">
        <ele>70.1</ele>
      </trkpt>
      <trkpt lat="44.49789" lon="-0.63514">
        <ele>71.9</ele>
      </trkpt>
      <trkpt lat="44.49791" lon="-0.63485">
        <ele>73</ele>
      </trkpt>
      <trkpt lat="44.49793" lon="-0.63475">
        <ele>73.5</ele>
      </trkpt>
      <trkpt lat="44.49796" lon="-0.63463">
        <ele>73.9</ele>
      </trkpt>
      <trkpt lat="44.49805" lon="-0.63426">
        <ele>72.4</ele>
      </trkpt>
      <trkpt lat="44.49811" lon="-0.63407">
        <ele>71.7</ele>
      </trkpt>
      <trkpt lat="44.49824" lon="-0.6339">
        <ele>70.7</ele>
      </trkpt>
      <trkpt lat="44.49836" lon="-0.63377">
        <ele>70.3</ele>
      </trkpt>
      <trkpt lat="44.49863" lon="-0.63354">
        <ele>70.2</ele>
      </trkpt>
      <trkpt lat="44.49875" lon="-0.63344">
        <ele>70.1</ele>
      </trkpt>
      <trkpt lat="44.49893" lon="-0.63325">
        <ele>69.9</ele>
      </trkpt>
      <trkpt lat="44.49913" lon="-0.63302">
        <ele>69.9</ele>
      </trkpt>
      <trkpt lat="44.49924" lon="-0.63287">
        <ele>69.6</ele>
      </trkpt>
      <trkpt lat="44.49934" lon="-0.63276">
        <ele>70.1</ele>
      </trkpt>
      <trkpt lat="44.49942" lon="-0.63273">
        <ele>70.5</ele>
      </trkpt>
      <trkpt lat="44.49953" lon="-0.63274">
        <ele>70.3</ele>
      </trkpt>
      <trkpt lat="44.49958" lon="-0.63273">
        <ele>69.9</ele>
      </trkpt>
      <trkpt lat="44.49972" lon="-0.63259">
        <ele>69.7</ele>
      </trkpt>
      <trkpt lat="44.49982" lon="-0.63243">
        <ele>69.5</ele>
      </trkpt>
      <trkpt lat="44.49983" lon="-0.63235">
        <ele>69.3</ele>
      </trkpt>
      <trkpt lat="44.49982" lon="-0.63229">
        <ele>69.1</ele>
      </trkpt>
      <trkpt lat="44.49986" lon="-0.63216">
        <ele>68.9</ele>
      </trkpt>
      <trkpt lat="44.5" lon="-0.63191">
        <ele>68.9</ele>
      </trkpt>
      <trkpt lat="44.50007" lon="-0.6317">
        <ele>68.3</ele>
      </trkpt>
      <trkpt lat="44.50038" lon="-0.63122">
        <ele>68.6</ele>
      </trkpt>
      <trkpt lat="44.50054" lon="-0.63091">
        <ele>69.7</ele>
      </trkpt>
      <trkpt lat="44.50077" lon="-0.63103">
        <ele>69.8</ele>
      </trkpt>
      <trkpt lat="44.50127" lon="-0.63128">
        <ele>70.7</ele>
      </trkpt>
      <trkpt lat="44.50219" lon="-0.63176">
        <ele>69.1</ele>
      </trkpt>
      <trkpt lat="44.50234" lon="-0.63111">
        <ele>69</ele>
      </trkpt>
      <trkpt lat="44.50249" lon="-0.63045">
        <ele>69</ele>
      </trkpt>
      <trkpt lat="44.50259" lon="-0.63013">
        <ele>69</ele>
      </trkpt>
      <trkpt lat="44.50271" lon="-0.63003">
        <ele>69</ele>
      </trkpt>
      <trkpt lat="44.50353" lon="-0.62992">
        <ele>69</ele>
      </trkpt>
      <trkpt lat="44.50445" lon="-0.62976">
        <ele>69</ele>
      </trkpt>
      <trkpt lat="44.50452" lon="-0.62972">
        <ele>69</ele>
      </trkpt>
      <trkpt lat="44.50456" lon="-0.62959">
        <ele>69.2</ele>
      </trkpt>
      <trkpt lat="44.5046" lon="-0.6293">
        <ele>69.3</ele>
      </trkpt>
      <trkpt lat="44.50464" lon="-0.62895">
        <ele>69</ele>
      </trkpt>
      <trkpt lat="44.5047" lon="-0.62884">
        <ele>69</ele>
      </trkpt>
      <trkpt lat="44.50492" lon="-0.62872">
        <ele>69.3</ele>
      </trkpt>
      <trkpt lat="44.50503" lon="-0.6286">
        <ele>69</ele>
      </trkpt>
      <trkpt lat="44.50508" lon="-0.62841">
        <ele>69.2</ele>
      </trkpt>
      <trkpt lat="44.50531" lon="-0.62715">
        <ele>69</ele>
      </trkpt>
      <trkpt lat="44.50533" lon="-0.62686">
        <ele>69</ele>
      </trkpt>
      <trkpt lat="44.50533" lon="-0.62629">
        <ele>69.2</ele>
      </trkpt>
      <trkpt lat="44.50531" lon="-0.62601">
        <ele>69.5</ele>
      </trkpt>
      <trkpt lat="44.50527" lon="-0.62583">
        <ele>70</ele>
      </trkpt>
      <trkpt lat="44.50525" lon="-0.62573">
        <ele>70.3</ele>
      </trkpt>
      <trkpt lat="44.50517" lon="-0.62556">
        <ele>70.6</ele>
      </trkpt>
      <trkpt lat="44.50496" lon="-0.62523">
        <ele>70.1</ele>
      </trkpt>
      <trkpt lat="44.50478" lon="-0.625">
        <ele>70.2</ele>
      </trkpt>
      <trkpt lat="44.50473" lon="-0.62486">
        <ele>70</ele>
      </trkpt>
      <trkpt lat="44.50465" lon="-0.62437">
        <ele>70.5</ele>
      </trkpt>
      <trkpt lat="44.50459" lon="-0.62388">
        <ele>70.1</ele>
      </trkpt>
      <trkpt lat="44.50457" lon="-0.6237">
        <ele>69.9</ele>
      </trkpt>
      <trkpt lat="44.50455" lon="-0.62348">
        <ele>70</ele>
      </trkpt>
      <trkpt lat="44.50442" lon="-0.62313">
        <ele>69.9</ele>
      </trkpt>
      <trkpt lat="44.5043" lon="-0.62282">
        <ele>69.5</ele>
      </trkpt>
      <trkpt lat="44.50412" lon="-0.62254">
        <ele>69.7</ele>
      </trkpt>
      <trkpt lat="44.50396" lon="-0.62237">
        <ele>69.6</ele>
      </trkpt>
      <trkpt lat="44.50381" lon="-0.62233">
        <ele>69.6</ele>
      </trkpt>
      <trkpt lat="44.50366" lon="-0.62232">
        <ele>69.7</ele>
      </trkpt>
      <trkpt lat="44.50352" lon="-0.62237">
        <ele>69.6</ele>
      </trkpt>
      <trkpt lat="44.50331" lon="-0.62249">
        <ele>70</ele>
      </trkpt>
      <trkpt lat="44.503" lon="-0.62266">
        <ele>70</ele>
      </trkpt>
      <trkpt lat="44.50277" lon="-0.62277">
        <ele>70</ele>
      </trkpt>
      <trkpt lat="44.50267" lon="-0.62274">
        <ele>70</ele>
      </trkpt>
      <trkpt lat="44.50252" lon="-0.62254">
        <ele>70</ele>
      </trkpt>
      <trkpt lat="44.5023" lon="-0.62223">
        <ele>70</ele>
      </trkpt>
      <trkpt lat="44.50214" lon="-0.62185">
        <ele>69.8</ele>
      </trkpt>
      <trkpt lat="44.50201" lon="-0.62149">
        <ele>70</ele>
      </trkpt>
      <trkpt lat="44.50193" lon="-0.62116">
        <ele>70</ele>
      </trkpt>
      <trkpt lat="44.50191" lon="-0.62092">
        <ele>70</ele>
      </trkpt>
      <trkpt lat="44.50191" lon="-0.62051">
        <ele>70.3</ele>
      </trkpt>
      <trkpt lat="44.50189" lon="-0.62019">
        <ele>70.5</ele>
      </trkpt>
      <trkpt lat="44.50181" lon="-0.61978">
        <ele>69.8</ele>
      </trkpt>
      <trkpt lat="44.50169" lon="-0.61934">
        <ele>70.4</ele>
      </trkpt>
      <trkpt lat="44.50164" lon="-0.61905">
        <ele>70.8</ele>
      </trkpt>
      <trkpt lat="44.5016" lon="-0.61883">
        <ele>70.4</ele>
      </trkpt>
      <trkpt lat="44.50149" lon="-0.61853">
        <ele>69.7</ele>
      </trkpt>
      <trkpt lat="44.50134" lon="-0.61843">
        <ele>70.2</ele>
      </trkpt>
      <trkpt lat="44.50115" lon="-0.61826">
        <ele>70.3</ele>
      </trkpt>
      <trkpt lat="44.50094" lon="-0.61801">
        <ele>70.4</ele>
      </trkpt>
      <trkpt lat="44.50079" lon="-0.6179">
        <ele>70.6</ele>
      </trkpt>
      <trkpt lat="44.50058" lon="-0.61788">
        <ele>71</ele>
      </trkpt>
      <trkpt lat="44.50048" lon="-0.61787">
        <ele>71</ele>
      </trkpt>
      <trkpt lat="44.50025" lon="-0.61787">
        <ele>71.1</ele>
      </trkpt>
      <trkpt lat="44.49997" lon="-0.61783">
        <ele>72</ele>
      </trkpt>
      <trkpt lat="44.49946" lon="-0.61767">
        <ele>73</ele>
      </trkpt>
      <trkpt lat="44.49926" lon="-0.61758">
        <ele>72.8</ele>
      </trkpt>
      <trkpt lat="44.49898" lon="-0.61739">
        <ele>71.9</ele>
      </trkpt>
      <trkpt lat="44.49885" lon="-0.6173">
        <ele>71.8</ele>
      </trkpt>
      <trkpt lat="44.49851" lon="-0.61703">
        <ele>71.5</ele>
      </trkpt>
      <trkpt lat="44.49818" lon="-0.61683">
        <ele>71.6</ele>
      </trkpt>
      <trkpt lat="44.49783" lon="-0.61672">
        <ele>70.9</ele>
      </trkpt>
      <trkpt lat="44.49752" lon="-0.61659">
        <ele>71.7</ele>
      </trkpt>
      <trkpt lat="44.49729" lon="-0.61645">
        <ele>71.3</ele>
      </trkpt>
      <trkpt lat="44.49696" lon="-0.6163">
        <ele>72</ele>
      </trkpt>
      <trkpt lat="44.49685" lon="-0.61626">
        <ele>71.6</ele>
      </trkpt>
      <trkpt lat="44.49668" lon="-0.61624">
        <ele>71.1</ele>
      </trkpt>
      <trkpt lat="44.49665" lon="-0.61624">
        <ele>71.1</ele>
      </trkpt>
      <trkpt lat="44.49655" lon="-0.61621">
        <ele>71.4</ele>
      </trkpt>
      <trkpt lat="44.4964" lon="-0.61616">
        <ele>71.8</ele>
      </trkpt>
      <trkpt lat="44.49629" lon="-0.61614">
        <ele>72.2</ele>
      </trkpt>
      <trkpt lat="44.49599" lon="-0.6161">
        <ele>73</ele>
      </trkpt>
      <trkpt lat="44.49593" lon="-0.61614">
        <ele>72.9</ele>
      </trkpt>
      <trkpt lat="44.49569" lon="-0.61631">
        <ele>73</ele>
      </trkpt>
      <trkpt lat="44.4955" lon="-0.61641">
        <ele>72.7</ele>
      </trkpt>
      <trkpt lat="44.49546" lon="-0.61642">
        <ele>72.7</ele>
      </trkpt>
      <trkpt lat="44.4953" lon="-0.61645">
        <ele>72.9</ele>
      </trkpt>
      <trkpt lat="44.49513" lon="-0.61653">
        <ele>73.3</ele>
      </trkpt>
      <trkpt lat="44.49499" lon="-0.6167">
        <ele>72.9</ele>
      </trkpt>
      <trkpt lat="44.49483" lon="-0.61702">
        <ele>73.2</ele>
      </trkpt>
      <trkpt lat="44.49472" lon="-0.61728">
        <ele>74</ele>
      </trkpt>
      <trkpt lat="44.49454" lon="-0.6175">
        <ele>74</ele>
      </trkpt>
      <trkpt lat="44.4943" lon="-0.6176">
        <ele>74.8</ele>
      </trkpt>
      <trkpt lat="44.49414" lon="-0.61772">
        <ele>74.6</ele>
      </trkpt>
      <trkpt lat="44.49388" lon="-0.61792">
        <ele>74.5</ele>
      </trkpt>
      <trkpt lat="44.49379" lon="-0.61804">
        <ele>73.8</ele>
      </trkpt>
      <trkpt lat="44.49357" lon="-0.6184">
        <ele>73.9</ele>
      </trkpt>
      <trkpt lat="44.49329" lon="-0.6188">
        <ele>74.5</ele>
      </trkpt>
      <trkpt lat="44.49292" lon="-0.61929">
        <ele>73.7</ele>
      </trkpt>
      <trkpt lat="44.49271" lon="-0.61959">
        <ele>73.8</ele>
      </trkpt>
      <trkpt lat="44.49256" lon="-0.61967">
        <ele>74.6</ele>
      </trkpt>
      <trkpt lat="44.49237" lon="-0.61976">
        <ele>75</ele>
      </trkpt>
      <trkpt lat="44.49188" lon="-0.62001">
        <ele>75</ele>
      </trkpt>
      <trkpt lat="44.49181" lon="-0.62005">
        <ele>75.2</ele>
      </trkpt>
      <trkpt lat="44.49172" lon="-0.6201">
        <ele>75.1</ele>
      </trkpt>
      <trkpt lat="44.49143" lon="-0.62027">
        <ele>75.9</ele>
      </trkpt>
      <trkpt lat="44.49128" lon="-0.62039">
        <ele>75.5</ele>
      </trkpt>
      <trkpt lat="44.49119" lon="-0.62058">
        <ele>75.4</ele>
      </trkpt>
      <trkpt lat="44.49116" lon="-0.62078">
        <ele>75.3</ele>
      </trkpt>
      <trkpt lat="44.49115" lon="-0.62101">
        <ele>75.6</ele>
      </trkpt>
      <trkpt lat="44.49113" lon="-0.62121">
        <ele>75.9</ele>
      </trkpt>
      <trkpt lat="44.49101" lon="-0.62142">
        <ele>76.4</ele>
      </trkpt>
      <trkpt lat="44.49085" lon="-0.62154">
        <ele>77</ele>
      </trkpt>
      <trkpt lat="44.49061" lon="-0.62168">
        <ele>77</ele>
      </trkpt>
      <trkpt lat="44.49042" lon="-0.62185">
        <ele>77</ele>
      </trkpt>
      <trkpt lat="44.49036" lon="-0.6219">
        <ele>77</ele>
      </trkpt>
      <trkpt lat="44.49019" lon="-0.62204">
        <ele>77</ele>
      </trkpt>
      <trkpt lat="44.49006" lon="-0.62207">
        <ele>77</ele>
      </trkpt>
      <trkpt lat="44.48995" lon="-0.62206">
        <ele>77</ele>
      </trkpt>
      <trkpt lat="44.48976" lon="-0.62199">
        <ele>77</ele>
      </trkpt>
      <trkpt lat="44.48973" lon="-0.62197">
        <ele>77</ele>
      </trkpt>
      <trkpt lat="44.48955" lon="-0.62186">
        <ele>76.8</ele>
      </trkpt>
      <trkpt lat="44.48941" lon="-0.62177">
        <ele>76.6</ele>
      </trkpt>
      <trkpt lat="44.48924" lon="-0.62174">
        <ele>77.4</ele>
      </trkpt>
      <trkpt lat="44.48908" lon="-0.62179">
        <ele>78</ele>
      </trkpt>
      <trkpt lat="44.48896" lon="-0.62184">
        <ele>77.9</ele>
      </trkpt>
      <trkpt lat="44.48879" lon="-0.62189">
        <ele>78</ele>
      </trkpt>
      <trkpt lat="44.48857" lon="-0.62196">
        <ele>78</ele>
      </trkpt>
      <trkpt lat="44.48843" lon="-0.62195">
        <ele>78</ele>
      </trkpt>
      <trkpt lat="44.4883" lon="-0.62191">
        <ele>77.9</ele>
      </trkpt>
      <trkpt lat="44.48817" lon="-0.6218">
        <ele>77.4</ele>
      </trkpt>
      <trkpt lat="44.48803" lon="-0.62169">
        <ele>77.1</ele>
      </trkpt>
      <trkpt lat="44.48784" lon="-0.62151">
        <ele>77.6</ele>
      </trkpt>
      <trkpt lat="44.48746" lon="-0.62114">
        <ele>78</ele>
      </trkpt>
      <trkpt lat="44.48709" lon="-0.62078">
        <ele>78.3</ele>
      </trkpt>
      <trkpt lat="44.4869" lon="-0.62061">
        <ele>78.7</ele>
      </trkpt>
      <trkpt lat="44.48672" lon="-0.62046">
        <ele>77.9</ele>
      </trkpt>
      <trkpt lat="44.48655" lon="-0.62031">
        <ele>77.1</ele>
      </trkpt>
      <trkpt lat="44.48639" lon="-0.62018">
        <ele>77.4</ele>
      </trkpt>
      <trkpt lat="44.48623" lon="-0.62">
        <ele>77.4</ele>
      </trkpt>
      <trkpt lat="44.48607" lon="-0.61982">
        <ele>77.5</ele>
      </trkpt>
      <trkpt lat="44.4857" lon="-0.61953">
        <ele>77.4</ele>
      </trkpt>
      <trkpt lat="44.48552" lon="-0.61938">
        <ele>77.3</ele>
      </trkpt>
      <trkpt lat="44.48533" lon="-0.61923">
        <ele>77.8</ele>
      </trkpt>
      <trkpt lat="44.48514" lon="-0.61909">
        <ele>78</ele>
      </trkpt>
      <trkpt lat="44.48496" lon="-0.61895">
        <ele>78</ele>
      </trkpt>
      <trkpt lat="44.48458" lon="-0.61867">
        <ele>78.5</ele>
      </trkpt>
      <trkpt lat="44.484" lon="-0.61821">
        <ele>79</ele>
      </trkpt>
      <trkpt lat="44.48321" lon="-0.61755">
        <ele>79</ele>
      </trkpt>
      <trkpt lat="44.48283" lon="-0.61714">
        <ele>79.6</ele>
      </trkpt>
      <trkpt lat="44.48264" lon="-0.61694">
        <ele>79.5</ele>
      </trkpt>
      <trkpt lat="44.48247" lon="-0.61675">
        <ele>79.3</ele>
      </trkpt>
      <trkpt lat="44.48214" lon="-0.61637">
        <ele>80</ele>
      </trkpt>
      <trkpt lat="44.48142" lon="-0.61538">
        <ele>80.6</ele>
      </trkpt>
      <trkpt lat="44.48114" lon="-0.61498">
        <ele>80.1</ele>
      </trkpt>
      <trkpt lat="44.481" lon="-0.61478">
        <ele>80.9</ele>
      </trkpt>
      <trkpt lat="44.48059" lon="-0.61425">
        <ele>81</ele>
      </trkpt>
      <trkpt lat="44.48025" lon="-0.6138">
        <ele>81.9</ele>
      </trkpt>
      <trkpt lat="44.48009" lon="-0.61359">
        <ele>81.4</ele>
      </trkpt>
      <trkpt lat="44.47944" lon="-0.61271">
        <ele>82</ele>
      </trkpt>
      <trkpt lat="44.47912" lon="-0.61227">
        <ele>81.9</ele>
      </trkpt>
      <trkpt lat="44.47897" lon="-0.61205">
        <ele>82</ele>
      </trkpt>
      <trkpt lat="44.47835" lon="-0.61118">
        <ele>82</ele>
      </trkpt>
      <trkpt lat="44.4782" lon="-0.61098">
        <ele>82</ele>
      </trkpt>
      <trkpt lat="44.47805" lon="-0.61077">
        <ele>82</ele>
      </trkpt>
      <trkpt lat="44.4779" lon="-0.61057">
        <ele>82.5</ele>
      </trkpt>
      <trkpt lat="44.47775" lon="-0.61037">
        <ele>82.3</ele>
      </trkpt>
      <trkpt lat="44.4776" lon="-0.61017">
        <ele>82.4</ele>
      </trkpt>
      <trkpt lat="44.47733" lon="-0.60978">
        <ele>82.4</ele>
      </trkpt>
      <trkpt lat="44.47711" lon="-0.60947">
        <ele>82.9</ele>
      </trkpt>
      <trkpt lat="44.47684" lon="-0.60913">
        <ele>82.7</ele>
      </trkpt>
      <trkpt lat="44.47652" lon="-0.60875">
        <ele>83</ele>
      </trkpt>
      <trkpt lat="44.47636" lon="-0.60847">
        <ele>82.9</ele>
      </trkpt>
      <trkpt lat="44.47624" lon="-0.60824">
        <ele>83</ele>
      </trkpt>
      <trkpt lat="44.47611" lon="-0.608">
        <ele>83</ele>
      </trkpt>
      <trkpt lat="44.47599" lon="-0.60777">
        <ele>83</ele>
      </trkpt>
      <trkpt lat="44.47589" lon="-0.60758">
        <ele>83</ele>
      </trkpt>
      <trkpt lat="44.47578" lon="-0.60739">
        <ele>83</ele>
      </trkpt>
      <trkpt lat="44.47562" lon="-0.60716">
        <ele>83</ele>
      </trkpt>
      <trkpt lat="44.47494" lon="-0.60623">
        <ele>83.4</ele>
      </trkpt>
      <trkpt lat="44.47475" lon="-0.60589">
        <ele>83.8</ele>
      </trkpt>
      <trkpt lat="44.47471" lon="-0.60581">
        <ele>84</ele>
      </trkpt>
      <trkpt lat="44.47436" lon="-0.60536">
        <ele>84.7</ele>
      </trkpt>
      <trkpt lat="44.47397" lon="-0.60486">
        <ele>84</ele>
      </trkpt>
      <trkpt lat="44.47386" lon="-0.6047">
        <ele>84.2</ele>
      </trkpt>
      <trkpt lat="44.47375" lon="-0.60453">
        <ele>84.8</ele>
      </trkpt>
      <trkpt lat="44.47361" lon="-0.60433">
        <ele>85</ele>
      </trkpt>
      <trkpt lat="44.47347" lon="-0.60413">
        <ele>85</ele>
      </trkpt>
      <trkpt lat="44.4734" lon="-0.60406">
        <ele>85</ele>
      </trkpt>
      <trkpt lat="44.47331" lon="-0.60405">
        <ele>85</ele>
      </trkpt>
      <trkpt lat="44.47326" lon="-0.60408">
        <ele>85</ele>
      </trkpt>
      <trkpt lat="44.47318" lon="-0.60409">
        <ele>85</ele>
      </trkpt>
      <trkpt lat="44.47313" lon="-0.60404">
        <ele>85</ele>
      </trkpt>
      <trkpt lat="44.4731" lon="-0.60397">
        <ele>85</ele>
      </trkpt>
      <trkpt lat="44.47305" lon="-0.60385">
        <ele>85</ele>
      </trkpt>
      <trkpt lat="44.47299" lon="-0.60375">
        <ele>84.9</ele>
      </trkpt>
      <trkpt lat="44.47283" lon="-0.60355">
        <ele>85</ele>
      </trkpt>
      <trkpt lat="44.47265" lon="-0.60331">
        <ele>85</ele>
      </trkpt>
      <trkpt lat="44.47257" lon="-0.60323">
        <ele>84.9</ele>
      </trkpt>
      <trkpt lat="44.47245" lon="-0.60313">
        <ele>85</ele>
      </trkpt>
      <trkpt lat="44.47236" lon="-0.60307">
        <ele>85</ele>
      </trkpt>
      <trkpt lat="44.47231" lon="-0.60296">
        <ele>85.1</ele>
      </trkpt>
      <trkpt lat="44.47227" lon="-0.60288">
        <ele>85.1</ele>
      </trkpt>
      <trkpt lat="44.47221" lon="-0.60271">
        <ele>84.7</ele>
      </trkpt>
      <trkpt lat="44.47212" lon="-0.60264">
        <ele>84.5</ele>
      </trkpt>
      <trkpt lat="44.47207" lon="-0.6027">
        <ele>84.7</ele>
      </trkpt>
      <trkpt lat="44.47198" lon="-0.6028">
        <ele>85</ele>
      </trkpt>
      <trkpt lat="44.47164" lon="-0.60232">
        <ele>84</ele>
      </trkpt>
      <trkpt lat="44.47112" lon="-0.60162">
        <ele>84</ele>
      </trkpt>
      <trkpt lat="44.47069" lon="-0.60104">
        <ele>84.1</ele>
      </trkpt>
      <trkpt lat="44.47012" lon="-0.60026">
        <ele>84.6</ele>
      </trkpt>
      <trkpt lat="44.46997" lon="-0.60007">
        <ele>85</ele>
      </trkpt>
      <trkpt lat="44.46986" lon="-0.59991">
        <ele>84.8</ele>
      </trkpt>
      <trkpt lat="44.46962" lon="-0.59958">
        <ele>84.9</ele>
      </trkpt>
      <trkpt lat="44.46948" lon="-0.59939">
        <ele>84.8</ele>
      </trkpt>
      <trkpt lat="44.46934" lon="-0.5992">
        <ele>83.8</ele>
      </trkpt>
      <trkpt lat="44.4691" lon="-0.59887">
        <ele>83.8</ele>
      </trkpt>
      <trkpt lat="44.4688" lon="-0.59845">
        <ele>83.4</ele>
      </trkpt>
      <trkpt lat="44.46812" lon="-0.59753">
        <ele>84</ele>
      </trkpt>
      <trkpt lat="44.46796" lon="-0.59732">
        <ele>83.3</ele>
      </trkpt>
      <trkpt lat="44.46764" lon="-0.59688">
        <ele>83.5</ele>
      </trkpt>
      <trkpt lat="44.46731" lon="-0.59643">
        <ele>84</ele>
      </trkpt>
      <trkpt lat="44.46666" lon="-0.59553">
        <ele>84.1</ele>
      </trkpt>
      <trkpt lat="44.46631" lon="-0.59507">
        <ele>84.9</ele>
      </trkpt>
      <trkpt lat="44.46617" lon="-0.59487">
        <ele>84.6</ele>
      </trkpt>
      <trkpt lat="44.46589" lon="-0.59449">
        <ele>85</ele>
      </trkpt>
      <trkpt lat="44.46575" lon="-0.5943">
        <ele>85</ele>
      </trkpt>
      <trkpt lat="44.46559" lon="-0.59409">
        <ele>85</ele>
      </trkpt>
      <trkpt lat="44.46544" lon="-0.59388">
        <ele>85</ele>
      </trkpt>
      <trkpt lat="44.46528" lon="-0.59367">
        <ele>85</ele>
      </trkpt>
      <trkpt lat="44.46481" lon="-0.59301">
        <ele>85</ele>
      </trkpt>
      <trkpt lat="44.46466" lon="-0.5928">
        <ele>85</ele>
      </trkpt>
      <trkpt lat="44.46451" lon="-0.59259">
        <ele>85</ele>
      </trkpt>
      <trkpt lat="44.46405" lon="-0.59197">
        <ele>86</ele>
      </trkpt>
      <trkpt lat="44.4639" lon="-0.59176">
        <ele>86</ele>
      </trkpt>
      <trkpt lat="44.46375" lon="-0.59156">
        <ele>86</ele>
      </trkpt>
      <trkpt lat="44.46316" lon="-0.59074">
        <ele>86</ele>
      </trkpt>
      <trkpt lat="44.46255" lon="-0.58991">
        <ele>86</ele>
      </trkpt>
      <trkpt lat="44.46184" lon="-0.58893">
        <ele>86</ele>
      </trkpt>
      <trkpt lat="44.46167" lon="-0.5887">
        <ele>86</ele>
      </trkpt>
      <trkpt lat="44.46133" lon="-0.58824">
        <ele>86</ele>
      </trkpt>
      <trkpt lat="44.46116" lon="-0.588">
        <ele>86</ele>
      </trkpt>
      <trkpt lat="44.46102" lon="-0.58781">
        <ele>86</ele>
      </trkpt>
      <trkpt lat="44.46088" lon="-0.58761">
        <ele>86</ele>
      </trkpt>
      <trkpt lat="44.46073" lon="-0.58742">
        <ele>86.3</ele>
      </trkpt>
      <trkpt lat="44.45995" lon="-0.58635">
        <ele>86.1</ele>
      </trkpt>
      <trkpt lat="44.45934" lon="-0.58552">
        <ele>86</ele>
      </trkpt>
      <trkpt lat="44.45919" lon="-0.58531">
        <ele>86</ele>
      </trkpt>
      <trkpt lat="44.45904" lon="-0.5851">
        <ele>86.8</ele>
      </trkpt>
      <trkpt lat="44.45841" lon="-0.58423">
        <ele>86.2</ele>
      </trkpt>
      <trkpt lat="44.45824" lon="-0.584">
        <ele>86</ele>
      </trkpt>
      <trkpt lat="44.45808" lon="-0.58378">
        <ele>86</ele>
      </trkpt>
      <trkpt lat="44.4576" lon="-0.58313">
        <ele>86</ele>
      </trkpt>
      <trkpt lat="44.45743" lon="-0.58289">
        <ele>86</ele>
      </trkpt>
      <trkpt lat="44.45726" lon="-0.58265">
        <ele>86</ele>
      </trkpt>
      <trkpt lat="44.45708" lon="-0.58242">
        <ele>86</ele>
      </trkpt>
      <trkpt lat="44.45691" lon="-0.58219">
        <ele>86.1</ele>
      </trkpt>
      <trkpt lat="44.45658" lon="-0.58173">
        <ele>86</ele>
      </trkpt>
      <trkpt lat="44.45614" lon="-0.58112">
        <ele>86.1</ele>
      </trkpt>
      <trkpt lat="44.45572" lon="-0.58055">
        <ele>86</ele>
      </trkpt>
      <trkpt lat="44.45485" lon="-0.57937">
        <ele>86</ele>
      </trkpt>
      <trkpt lat="44.45461" lon="-0.57903">
        <ele>86</ele>
      </trkpt>
      <trkpt lat="44.45439" lon="-0.57874">
        <ele>86.1</ele>
      </trkpt>
      <trkpt lat="44.45364" lon="-0.57771">
        <ele>86</ele>
      </trkpt>
      <trkpt lat="44.45354" lon="-0.57756">
        <ele>85.8</ele>
      </trkpt>
      <trkpt lat="44.45345" lon="-0.57742">
        <ele>85.6</ele>
      </trkpt>
      <trkpt lat="44.45321" lon="-0.57705">
        <ele>85.8</ele>
      </trkpt>
      <trkpt lat="44.45291" lon="-0.57654">
        <ele>85.5</ele>
      </trkpt>
      <trkpt lat="44.45285" lon="-0.57642">
        <ele>85.3</ele>
      </trkpt>
      <trkpt lat="44.45282" lon="-0.57636">
        <ele>85.2</ele>
      </trkpt>
      <trkpt lat="44.45251" lon="-0.57626">
        <ele>86</ele>
      </trkpt>
      <trkpt lat="44.45244" lon="-0.57623">
        <ele>85.9</ele>
      </trkpt>
      <trkpt lat="44.45237" lon="-0.57621">
        <ele>85.8</ele>
      </trkpt>
      <trkpt lat="44.45218" lon="-0.57617">
        <ele>85.7</ele>
      </trkpt>
      <trkpt lat="44.45175" lon="-0.57613">
        <ele>85</ele>
      </trkpt>
      <trkpt lat="44.45159" lon="-0.57612">
        <ele>85</ele>
      </trkpt>
      <trkpt lat="44.45138" lon="-0.5761">
        <ele>85</ele>
      </trkpt>
      <trkpt lat="44.45128" lon="-0.5761">
        <ele>85</ele>
      </trkpt>
      <trkpt lat="44.45119" lon="-0.57612">
        <ele>85</ele>
      </trkpt>
      <trkpt lat="44.45113" lon="-0.57612">
        <ele>85</ele>
      </trkpt>
      <trkpt lat="44.45108" lon="-0.57613">
        <ele>84.8</ele>
      </trkpt>
      <trkpt lat="44.45098" lon="-0.57616">
        <ele>84.4</ele>
      </trkpt>
      <trkpt lat="44.45089" lon="-0.57619">
        <ele>84.1</ele>
      </trkpt>
      <trkpt lat="44.45087" lon="-0.5762">
        <ele>84.1</ele>
      </trkpt>
      <trkpt lat="44.45033" lon="-0.5764">
        <ele>84</ele>
      </trkpt>
      <trkpt lat="44.45003" lon="-0.57651">
        <ele>84</ele>
      </trkpt>
      <trkpt lat="44.44982" lon="-0.57642">
        <ele>84</ele>
      </trkpt>
      <trkpt lat="44.44967" lon="-0.57637">
        <ele>84</ele>
      </trkpt>
      <trkpt lat="44.44936" lon="-0.57655">
        <ele>83.3</ele>
      </trkpt>
      <trkpt lat="44.44884" lon="-0.57676">
        <ele>83</ele>
      </trkpt>
      <trkpt lat="44.44848" lon="-0.57686">
        <ele>82.5</ele>
      </trkpt>
      <trkpt lat="44.44839" lon="-0.57687">
        <ele>82.2</ele>
      </trkpt>
      <trkpt lat="44.44789" lon="-0.57697">
        <ele>81</ele>
      </trkpt>
      <trkpt lat="44.44783" lon="-0.57698">
        <ele>81</ele>
      </trkpt>
      <trkpt lat="44.44777" lon="-0.577">
        <ele>81</ele>
      </trkpt>
      <trkpt lat="44.4477" lon="-0.57701">
        <ele>80.7</ele>
      </trkpt>
      <trkpt lat="44.44764" lon="-0.57703">
        <ele>80.5</ele>
      </trkpt>
      <trkpt lat="44.44757" lon="-0.57705">
        <ele>80.2</ele>
      </trkpt>
      <trkpt lat="44.4475" lon="-0.57708">
        <ele>80</ele>
      </trkpt>
      <trkpt lat="44.44725" lon="-0.57716">
        <ele>80</ele>
      </trkpt>
      <trkpt lat="44.44697" lon="-0.57726">
        <ele>79.1</ele>
      </trkpt>
      <trkpt lat="44.44689" lon="-0.57728">
        <ele>79</ele>
      </trkpt>
      <trkpt lat="44.44681" lon="-0.57731">
        <ele>79</ele>
      </trkpt>
      <trkpt lat="44.44673" lon="-0.57733">
        <ele>79</ele>
      </trkpt>
      <trkpt lat="44.44665" lon="-0.57735">
        <ele>79</ele>
      </trkpt>
      <trkpt lat="44.44658" lon="-0.57737">
        <ele>79</ele>
      </trkpt>
      <trkpt lat="44.4465" lon="-0.57739">
        <ele>79</ele>
      </trkpt>
      <trkpt lat="44.4464" lon="-0.57741">
        <ele>79</ele>
      </trkpt>
      <trkpt lat="44.44567" lon="-0.57758">
        <ele>78</ele>
      </trkpt>
      <trkpt lat="44.44555" lon="-0.57761">
        <ele>78</ele>
      </trkpt>
      <trkpt lat="44.44551" lon="-0.57762">
        <ele>77.9</ele>
      </trkpt>
      <trkpt lat="44.44544" lon="-0.57763">
        <ele>77.8</ele>
      </trkpt>
      <trkpt lat="44.44531" lon="-0.57764">
        <ele>77.5</ele>
      </trkpt>
      <trkpt lat="44.44522" lon="-0.57765">
        <ele>77.4</ele>
      </trkpt>
      <trkpt lat="44.44513" lon="-0.57766">
        <ele>77.2</ele>
      </trkpt>
      <trkpt lat="44.44508" lon="-0.57766">
        <ele>77.1</ele>
      </trkpt>
      <trkpt lat="44.44499" lon="-0.57767">
        <ele>77</ele>
      </trkpt>
      <trkpt lat="44.44493" lon="-0.57767">
        <ele>76.8</ele>
      </trkpt>
      <trkpt lat="44.44487" lon="-0.57768">
        <ele>76.5</ele>
      </trkpt>
      <trkpt lat="44.44482" lon="-0.57769">
        <ele>76.3</ele>
      </trkpt>
      <trkpt lat="44.44476" lon="-0.57769">
        <ele>76.2</ele>
      </trkpt>
      <trkpt lat="44.4447" lon="-0.57771">
        <ele>75.9</ele>
      </trkpt>
      <trkpt lat="44.44464" lon="-0.57772">
        <ele>75.7</ele>
      </trkpt>
      <trkpt lat="44.44454" lon="-0.57776">
        <ele>75.4</ele>
      </trkpt>
      <trkpt lat="44.44442" lon="-0.57782">
        <ele>74.9</ele>
      </trkpt>
      <trkpt lat="44.44387" lon="-0.5781">
        <ele>74</ele>
      </trkpt>
      <trkpt lat="44.44372" lon="-0.57818">
        <ele>74</ele>
      </trkpt>
      <trkpt lat="44.44357" lon="-0.57827">
        <ele>74</ele>
      </trkpt>
      <trkpt lat="44.4428" lon="-0.57869">
        <ele>73.7</ele>
      </trkpt>
      <trkpt lat="44.44224" lon="-0.579">
        <ele>73</ele>
      </trkpt>
      <trkpt lat="44.44153" lon="-0.57938">
        <ele>73</ele>
      </trkpt>
      <trkpt lat="44.44146" lon="-0.57942">
        <ele>73</ele>
      </trkpt>
      <trkpt lat="44.44137" lon="-0.57947">
        <ele>72.9</ele>
      </trkpt>
      <trkpt lat="44.44121" lon="-0.57956">
        <ele>72.6</ele>
      </trkpt>
      <trkpt lat="44.44099" lon="-0.57968">
        <ele>72.5</ele>
      </trkpt>
      <trkpt lat="44.44088" lon="-0.57974">
        <ele>72.8</ele>
      </trkpt>
      <trkpt lat="44.44081" lon="-0.5798">
        <ele>73</ele>
      </trkpt>
      <trkpt lat="44.44072" lon="-0.57989">
        <ele>72.8</ele>
      </trkpt>
      <trkpt lat="44.44047" lon="-0.5802">
        <ele>72.6</ele>
      </trkpt>
      <trkpt lat="44.44039" lon="-0.58029">
        <ele>72.4</ele>
      </trkpt>
      <trkpt lat="44.44031" lon="-0.58038">
        <ele>72.1</ele>
      </trkpt>
      <trkpt lat="44.43981" lon="-0.58098">
        <ele>72.3</ele>
      </trkpt>
      <trkpt lat="44.43967" lon="-0.58114">
        <ele>72</ele>
      </trkpt>
      <trkpt lat="44.43964" lon="-0.58118">
        <ele>72</ele>
      </trkpt>
      <trkpt lat="44.43949" lon="-0.58136">
        <ele>72</ele>
      </trkpt>
      <trkpt lat="44.43933" lon="-0.58154">
        <ele>71.8</ele>
      </trkpt>
      <trkpt lat="44.43925" lon="-0.58163">
        <ele>71.4</ele>
      </trkpt>
      <trkpt lat="44.43906" lon="-0.58188">
        <ele>71.6</ele>
      </trkpt>
      <trkpt lat="44.43893" lon="-0.58204">
        <ele>71.1</ele>
      </trkpt>
      <trkpt lat="44.43888" lon="-0.58212">
        <ele>71</ele>
      </trkpt>
      <trkpt lat="44.43876" lon="-0.58228">
        <ele>71.1</ele>
      </trkpt>
      <trkpt lat="44.43863" lon="-0.58246">
        <ele>71.8</ele>
      </trkpt>
      <trkpt lat="44.43856" lon="-0.58256">
        <ele>72</ele>
      </trkpt>
      <trkpt lat="44.43849" lon="-0.58265">
        <ele>72</ele>
      </trkpt>
      <trkpt lat="44.43836" lon="-0.58284">
        <ele>72</ele>
      </trkpt>
      <trkpt lat="44.43829" lon="-0.58294">
        <ele>72</ele>
      </trkpt>
      <trkpt lat="44.43802" lon="-0.58328">
        <ele>71.2</ele>
      </trkpt>
      <trkpt lat="44.43796" lon="-0.58337">
        <ele>71</ele>
      </trkpt>
      <trkpt lat="44.43753" lon="-0.58392">
        <ele>71.9</ele>
      </trkpt>
      <trkpt lat="44.43747" lon="-0.584">
        <ele>72</ele>
      </trkpt>
      <trkpt lat="44.43735" lon="-0.58416">
        <ele>72</ele>
      </trkpt>
      <trkpt lat="44.4372" lon="-0.58434">
        <ele>72</ele>
      </trkpt>
      <trkpt lat="44.43713" lon="-0.58444">
        <ele>72</ele>
      </trkpt>
      <trkpt lat="44.43706" lon="-0.58452">
        <ele>72</ele>
      </trkpt>
      <trkpt lat="44.43699" lon="-0.58461">
        <ele>72</ele>
      </trkpt>
      <trkpt lat="44.43695" lon="-0.58465">
        <ele>72</ele>
      </trkpt>
      <trkpt lat="44.4369" lon="-0.5847">
        <ele>72</ele>
      </trkpt>
      <trkpt lat="44.43685" lon="-0.58475">
        <ele>72</ele>
      </trkpt>
      <trkpt lat="44.4368" lon="-0.5848">
        <ele>72</ele>
      </trkpt>
      <trkpt lat="44.43664" lon="-0.58491">
        <ele>72</ele>
      </trkpt>
      <trkpt lat="44.43622" lon="-0.58514">
        <ele>72</ele>
      </trkpt>
      <trkpt lat="44.43566" lon="-0.58542">
        <ele>72</ele>
      </trkpt>
      <trkpt lat="44.43522" lon="-0.58564">
        <ele>71.2</ele>
      </trkpt>
      <trkpt lat="44.4351" lon="-0.5857">
        <ele>71.6</ele>
      </trkpt>
      <trkpt lat="44.435" lon="-0.58576">
        <ele>72</ele>
      </trkpt>
      <trkpt lat="44.43492" lon="-0.58583">
        <ele>72</ele>
      </trkpt>
      <trkpt lat="44.43483" lon="-0.5859">
        <ele>72</ele>
      </trkpt>
      <trkpt lat="44.43476" lon="-0.58599">
        <ele>72</ele>
      </trkpt>
      <trkpt lat="44.4347" lon="-0.58608">
        <ele>72</ele>
      </trkpt>
      <trkpt lat="44.43464" lon="-0.58617">
        <ele>72</ele>
      </trkpt>
      <trkpt lat="44.43437" lon="-0.58659">
        <ele>72.3</ele>
      </trkpt>
      <trkpt lat="44.4343" lon="-0.5867">
        <ele>72.5</ele>
      </trkpt>
      <trkpt lat="44.43427" lon="-0.58667">
        <ele>72.6</ele>
      </trkpt>
      <trkpt lat="44.43423" lon="-0.58664">
        <ele>72.8</ele>
      </trkpt>
      <trkpt lat="44.43416" lon="-0.58655">
        <ele>73</ele>
      </trkpt>
      <trkpt lat="44.43411" lon="-0.58648">
        <ele>72.8</ele>
      </trkpt>
      <trkpt lat="44.43407" lon="-0.58641">
        <ele>72.6</ele>
      </trkpt>
      <trkpt lat="44.43404" lon="-0.58636">
        <ele>72.5</ele>
      </trkpt>
      <trkpt lat="44.43402" lon="-0.58631">
        <ele>72.5</ele>
      </trkpt>
      <trkpt lat="44.43399" lon="-0.58621">
        <ele>72.5</ele>
      </trkpt>
      <trkpt lat="44.43399" lon="-0.58614">
        <ele>72.6</ele>
      </trkpt>
      <trkpt lat="44.43398" lon="-0.58606">
        <ele>72.7</ele>
      </trkpt>
      <trkpt lat="44.43398" lon="-0.58598">
        <ele>72.7</ele>
      </trkpt>
      <trkpt lat="44.43398" lon="-0.58589">
        <ele>72.7</ele>
      </trkpt>
      <trkpt lat="44.43396" lon="-0.58583">
        <ele>72.7</ele>
      </trkpt>
      <trkpt lat="44.43394" lon="-0.58576">
        <ele>72.6</ele>
      </trkpt>
      <trkpt lat="44.43391" lon="-0.58569">
        <ele>72.4</ele>
      </trkpt>
      <trkpt lat="44.43389" lon="-0.58562">
        <ele>72.2</ele>
      </trkpt>
      <trkpt lat="44.43363" lon="-0.58527">
        <ele>72.1</ele>
      </trkpt>
      <trkpt lat="44.43359" lon="-0.58523">
        <ele>72.1</ele>
      </trkpt>
      <trkpt lat="44.43351" lon="-0.58513">
        <ele>72.4</ele>
      </trkpt>
      <trkpt lat="44.43341" lon="-0.58503">
        <ele>72.7</ele>
      </trkpt>
      <trkpt lat="44.43336" lon="-0.58497">
        <ele>72.9</ele>
      </trkpt>
      <trkpt lat="44.43332" lon="-0.58493">
        <ele>73</ele>
      </trkpt>
      <trkpt lat="44.43328" lon="-0.5849">
        <ele>73</ele>
      </trkpt>
      <trkpt lat="44.43322" lon="-0.58485">
        <ele>73</ele>
      </trkpt>
      <trkpt lat="44.43316" lon="-0.58482">
        <ele>73</ele>
      </trkpt>
      <trkpt lat="44.43301" lon="-0.58458">
        <ele>73</ele>
      </trkpt>
      <trkpt lat="44.43285" lon="-0.58425">
        <ele>73</ele>
      </trkpt>
      <trkpt lat="44.43263" lon="-0.58388">
        <ele>73</ele>
      </trkpt>
      <trkpt lat="44.43257" lon="-0.58375">
        <ele>73</ele>
      </trkpt>
      <trkpt lat="44.43254" lon="-0.58368">
        <ele>73</ele>
      </trkpt>
      <trkpt lat="44.43239" lon="-0.58339">
        <ele>72.9</ele>
      </trkpt>
      <trkpt lat="44.43234" lon="-0.58331">
        <ele>73</ele>
      </trkpt>
      <trkpt lat="44.43228" lon="-0.58326">
        <ele>73</ele>
      </trkpt>
      <trkpt lat="44.43224" lon="-0.58324">
        <ele>73</ele>
      </trkpt>
      <trkpt lat="44.43221" lon="-0.58321">
        <ele>73</ele>
      </trkpt>
      <trkpt lat="44.43217" lon="-0.5832">
        <ele>73</ele>
      </trkpt>
      <trkpt lat="44.43213" lon="-0.58318">
        <ele>73</ele>
      </trkpt>
      <trkpt lat="44.43207" lon="-0.58316">
        <ele>73</ele>
      </trkpt>
      <trkpt lat="44.43202" lon="-0.58314">
        <ele>73</ele>
      </trkpt>
      <trkpt lat="44.43196" lon="-0.58312">
        <ele>73</ele>
      </trkpt>
      <trkpt lat="44.43191" lon="-0.58311">
        <ele>73.1</ele>
      </trkpt>
      <trkpt lat="44.43186" lon="-0.58309">
        <ele>73.3</ele>
      </trkpt>
      <trkpt lat="44.43176" lon="-0.58304">
        <ele>73.6</ele>
      </trkpt>
      <trkpt lat="44.43171" lon="-0.58301">
        <ele>73.7</ele>
      </trkpt>
      <trkpt lat="44.43167" lon="-0.58296">
        <ele>73.7</ele>
      </trkpt>
      <trkpt lat="44.43163" lon="-0.58286">
        <ele>73.3</ele>
      </trkpt>
      <trkpt lat="44.43159" lon="-0.58271">
        <ele>73</ele>
      </trkpt>
      <trkpt lat="44.43148" lon="-0.58231">
        <ele>73</ele>
      </trkpt>
      <trkpt lat="44.43116" lon="-0.58128">
        <ele>73</ele>
      </trkpt>
      <trkpt lat="44.43113" lon="-0.5812">
        <ele>73</ele>
      </trkpt>
      <trkpt lat="44.43111" lon="-0.58113">
        <ele>73</ele>
      </trkpt>
      <trkpt lat="44.43109" lon="-0.58107">
        <ele>73</ele>
      </trkpt>
      <trkpt lat="44.43106" lon="-0.58097">
        <ele>73</ele>
      </trkpt>
      <trkpt lat="44.43104" lon="-0.58088">
        <ele>73</ele>
      </trkpt>
      <trkpt lat="44.43103" lon="-0.58079">
        <ele>73</ele>
      </trkpt>
      <trkpt lat="44.43101" lon="-0.5807">
        <ele>73</ele>
      </trkpt>
      <trkpt lat="44.431" lon="-0.5806">
        <ele>73</ele>
      </trkpt>
      <trkpt lat="44.43087" lon="-0.57987">
        <ele>72.9</ele>
      </trkpt>
      <trkpt lat="44.43081" lon="-0.57934">
        <ele>73</ele>
      </trkpt>
      <trkpt lat="44.43081" lon="-0.57927">
        <ele>73</ele>
      </trkpt>
      <trkpt lat="44.4308" lon="-0.57917">
        <ele>73</ele>
      </trkpt>
      <trkpt lat="44.43079" lon="-0.57907">
        <ele>73.1</ele>
      </trkpt>
      <trkpt lat="44.43077" lon="-0.57898">
        <ele>73.1</ele>
      </trkpt>
      <trkpt lat="44.43076" lon="-0.57889">
        <ele>73.3</ele>
      </trkpt>
      <trkpt lat="44.43073" lon="-0.57872">
        <ele>73.2</ele>
      </trkpt>
      <trkpt lat="44.43071" lon="-0.57863">
        <ele>73</ele>
      </trkpt>
      <trkpt lat="44.43069" lon="-0.57854">
        <ele>73</ele>
      </trkpt>
      <trkpt lat="44.43064" lon="-0.57834">
        <ele>73</ele>
      </trkpt>
      <trkpt lat="44.43062" lon="-0.57816">
        <ele>73</ele>
      </trkpt>
      <trkpt lat="44.43061" lon="-0.57807">
        <ele>73</ele>
      </trkpt>
      <trkpt lat="44.4306" lon="-0.57798">
        <ele>73</ele>
      </trkpt>
      <trkpt lat="44.43059" lon="-0.5779">
        <ele>73.1</ele>
      </trkpt>
      <trkpt lat="44.43058" lon="-0.57783">
        <ele>73.1</ele>
      </trkpt>
      <trkpt lat="44.43057" lon="-0.57775">
        <ele>73.1</ele>
      </trkpt>
      <trkpt lat="44.43056" lon="-0.57767">
        <ele>73.4</ele>
      </trkpt>
      <trkpt lat="44.43054" lon="-0.57758">
        <ele>73.7</ele>
      </trkpt>
      <trkpt lat="44.43052" lon="-0.57749">
        <ele>74</ele>
      </trkpt>
      <trkpt lat="44.43049" lon="-0.57739">
        <ele>73.7</ele>
      </trkpt>
      <trkpt lat="44.43046" lon="-0.57729">
        <ele>73.5</ele>
      </trkpt>
      <trkpt lat="44.43045" lon="-0.57723">
        <ele>73.4</ele>
      </trkpt>
      <trkpt lat="44.43043" lon="-0.57718">
        <ele>73.4</ele>
      </trkpt>
      <trkpt lat="44.43041" lon="-0.57708">
        <ele>73.3</ele>
      </trkpt>
      <trkpt lat="44.43039" lon="-0.57699">
        <ele>73.1</ele>
      </trkpt>
      <trkpt lat="44.43035" lon="-0.57674">
        <ele>73</ele>
      </trkpt>
      <trkpt lat="44.43024" lon="-0.57629">
        <ele>73</ele>
      </trkpt>
      <trkpt lat="44.43021" lon="-0.57616">
        <ele>73.2</ele>
      </trkpt>
      <trkpt lat="44.43019" lon="-0.57609">
        <ele>73.3</ele>
      </trkpt>
      <trkpt lat="44.43015" lon="-0.57594">
        <ele>73.5</ele>
      </trkpt>
      <trkpt lat="44.43013" lon="-0.57586">
        <ele>73.5</ele>
      </trkpt>
      <trkpt lat="44.43012" lon="-0.57578">
        <ele>73.5</ele>
      </trkpt>
      <trkpt lat="44.43009" lon="-0.57562">
        <ele>73.2</ele>
      </trkpt>
      <trkpt lat="44.43007" lon="-0.57553">
        <ele>73.1</ele>
      </trkpt>
      <trkpt lat="44.43006" lon="-0.57544">
        <ele>73.4</ele>
      </trkpt>
      <trkpt lat="44.43004" lon="-0.57535">
        <ele>73.7</ele>
      </trkpt>
      <trkpt lat="44.43003" lon="-0.57528">
        <ele>74</ele>
      </trkpt>
      <trkpt lat="44.43" lon="-0.57513">
        <ele>74</ele>
      </trkpt>
      <trkpt lat="44.42997" lon="-0.57498">
        <ele>74</ele>
      </trkpt>
      <trkpt lat="44.42993" lon="-0.57488">
        <ele>73.9</ele>
      </trkpt>
      <trkpt lat="44.42991" lon="-0.57484">
        <ele>73.8</ele>
      </trkpt>
      <trkpt lat="44.42988" lon="-0.57479">
        <ele>73.7</ele>
      </trkpt>
      <trkpt lat="44.42986" lon="-0.57471">
        <ele>73.5</ele>
      </trkpt>
      <trkpt lat="44.42985" lon="-0.57463">
        <ele>73.7</ele>
      </trkpt>
      <trkpt lat="44.42986" lon="-0.57458">
        <ele>73.7</ele>
      </trkpt>
      <trkpt lat="44.43" lon="-0.57423">
        <ele>74</ele>
      </trkpt>
      <trkpt lat="44.43003" lon="-0.57417">
        <ele>74</ele>
      </trkpt>
      <trkpt lat="44.43006" lon="-0.57411">
        <ele>74</ele>
      </trkpt>
      <trkpt lat="44.43009" lon="-0.57407">
        <ele>74</ele>
      </trkpt>
      <trkpt lat="44.43012" lon="-0.57402">
        <ele>74</ele>
      </trkpt>
      <trkpt lat="44.43015" lon="-0.57399">
        <ele>74</ele>
      </trkpt>
      <trkpt lat="44.43018" lon="-0.57395">
        <ele>74</ele>
      </trkpt>
      <trkpt lat="44.43021" lon="-0.57389">
        <ele>74</ele>
      </trkpt>
      <trkpt lat="44.43026" lon="-0.57381">
        <ele>74</ele>
      </trkpt>
      <trkpt lat="44.43029" lon="-0.57372">
        <ele>74</ele>
      </trkpt>
      <trkpt lat="44.43033" lon="-0.57356">
        <ele>74</ele>
      </trkpt>
      <trkpt lat="44.43036" lon="-0.57348">
        <ele>74</ele>
      </trkpt>
      <trkpt lat="44.43039" lon="-0.57332">
        <ele>74</ele>
      </trkpt>
      <trkpt lat="44.43054" lon="-0.57277">
        <ele>74</ele>
      </trkpt>
      <trkpt lat="44.43056" lon="-0.5727">
        <ele>74</ele>
      </trkpt>
      <trkpt lat="44.43058" lon="-0.57261">
        <ele>73.9</ele>
      </trkpt>
      <trkpt lat="44.43059" lon="-0.57253">
        <ele>73.9</ele>
      </trkpt>
      <trkpt lat="44.43059" lon="-0.57246">
        <ele>73.8</ele>
      </trkpt>
      <trkpt lat="44.43059" lon="-0.57242">
        <ele>73.6</ele>
      </trkpt>
      <trkpt lat="44.43058" lon="-0.57233">
        <ele>73.3</ele>
      </trkpt>
      <trkpt lat="44.43051" lon="-0.57223">
        <ele>73.2</ele>
      </trkpt>
      <trkpt lat="44.43023" lon="-0.57196">
        <ele>74</ele>
      </trkpt>
      <trkpt lat="44.43017" lon="-0.57191">
        <ele>74</ele>
      </trkpt>
      <trkpt lat="44.43011" lon="-0.57186">
        <ele>74</ele>
      </trkpt>
      <trkpt lat="44.43006" lon="-0.57183">
        <ele>74</ele>
      </trkpt>
      <trkpt lat="44.43" lon="-0.5718">
        <ele>74</ele>
      </trkpt>
      <trkpt lat="44.42993" lon="-0.57177">
        <ele>74.2</ele>
      </trkpt>
      <trkpt lat="44.42985" lon="-0.57176">
        <ele>74.4</ele>
      </trkpt>
      <trkpt lat="44.4298" lon="-0.57177">
        <ele>74.4</ele>
      </trkpt>
      <trkpt lat="44.42976" lon="-0.57178">
        <ele>74.5</ele>
      </trkpt>
      <trkpt lat="44.42971" lon="-0.57179">
        <ele>74.5</ele>
      </trkpt>
      <trkpt lat="44.42967" lon="-0.57181">
        <ele>74.5</ele>
      </trkpt>
      <trkpt lat="44.4296" lon="-0.57184">
        <ele>74.4</ele>
      </trkpt>
      <trkpt lat="44.42954" lon="-0.57184">
        <ele>74.4</ele>
      </trkpt>
      <trkpt lat="44.42948" lon="-0.57182">
        <ele>74.4</ele>
      </trkpt>
      <trkpt lat="44.42942" lon="-0.57179">
        <ele>74.4</ele>
      </trkpt>
      <trkpt lat="44.42939" lon="-0.57174">
        <ele>74.4</ele>
      </trkpt>
      <trkpt lat="44.42935" lon="-0.57169">
        <ele>74.2</ele>
      </trkpt>
      <trkpt lat="44.4293" lon="-0.57162">
        <ele>73.9</ele>
      </trkpt>
      <trkpt lat="44.42925" lon="-0.57155">
        <ele>73.6</ele>
      </trkpt>
      <trkpt lat="44.4292" lon="-0.57149">
        <ele>73.2</ele>
      </trkpt>
      <trkpt lat="44.42914" lon="-0.57145">
        <ele>73</ele>
      </trkpt>
      <trkpt lat="44.42906" lon="-0.57144">
        <ele>73</ele>
      </trkpt>
      <trkpt lat="44.42901" lon="-0.57143">
        <ele>73</ele>
      </trkpt>
      <trkpt lat="44.42896" lon="-0.57143">
        <ele>73</ele>
      </trkpt>
      <trkpt lat="44.42888" lon="-0.57142">
        <ele>73</ele>
      </trkpt>
      <trkpt lat="44.42879" lon="-0.57138">
        <ele>73</ele>
      </trkpt>
      <trkpt lat="44.42875" lon="-0.57135">
        <ele>73.1</ele>
      </trkpt>
      <trkpt lat="44.4287" lon="-0.57133">
        <ele>73.2</ele>
      </trkpt>
      <trkpt lat="44.42866" lon="-0.57129">
        <ele>73.4</ele>
      </trkpt>
      <trkpt lat="44.42861" lon="-0.57125">
        <ele>73.5</ele>
      </trkpt>
      <trkpt lat="44.42856" lon="-0.5712">
        <ele>73.6</ele>
      </trkpt>
      <trkpt lat="44.42851" lon="-0.57115">
        <ele>73.6</ele>
      </trkpt>
      <trkpt lat="44.42847" lon="-0.57109">
        <ele>73.5</ele>
      </trkpt>
      <trkpt lat="44.42843" lon="-0.57103">
        <ele>73.5</ele>
      </trkpt>
      <trkpt lat="44.42837" lon="-0.57097">
        <ele>73.6</ele>
      </trkpt>
      <trkpt lat="44.42831" lon="-0.57094">
        <ele>73.6</ele>
      </trkpt>
      <trkpt lat="44.42825" lon="-0.57092">
        <ele>73.7</ele>
      </trkpt>
      <trkpt lat="44.4282" lon="-0.57091">
        <ele>73.7</ele>
      </trkpt>
      <trkpt lat="44.42808" lon="-0.57089">
        <ele>73.8</ele>
      </trkpt>
      <trkpt lat="44.42787" lon="-0.57094">
        <ele>73.9</ele>
      </trkpt>
      <trkpt lat="44.42744" lon="-0.57089">
        <ele>73.8</ele>
      </trkpt>
      <trkpt lat="44.42733" lon="-0.57087">
        <ele>73.4</ele>
      </trkpt>
      <trkpt lat="44.42727" lon="-0.57086">
        <ele>73.2</ele>
      </trkpt>
      <trkpt lat="44.42722" lon="-0.57084">
        <ele>73</ele>
      </trkpt>
      <trkpt lat="44.4271" lon="-0.57076">
        <ele>73.6</ele>
      </trkpt>
      <trkpt lat="44.42689" lon="-0.5706">
        <ele>74</ele>
      </trkpt>
      <trkpt lat="44.42649" lon="-0.57032">
        <ele>74.1</ele>
      </trkpt>
      <trkpt lat="44.42617" lon="-0.5701">
        <ele>74</ele>
      </trkpt>
      <trkpt lat="44.42589" lon="-0.56991">
        <ele>74</ele>
      </trkpt>
      <trkpt lat="44.42541" lon="-0.56956">
        <ele>74</ele>
      </trkpt>
      <trkpt lat="44.42494" lon="-0.56922">
        <ele>74</ele>
      </trkpt>
      <trkpt lat="44.42473" lon="-0.56909">
        <ele>74</ele>
      </trkpt>
      <trkpt lat="44.42459" lon="-0.56901">
        <ele>73.7</ele>
      </trkpt>
      <trkpt lat="44.42439" lon="-0.56895">
        <ele>73.2</ele>
      </trkpt>
      <trkpt lat="44.42419" lon="-0.56889">
        <ele>73</ele>
      </trkpt>
      <trkpt lat="44.42399" lon="-0.56883">
        <ele>73.1</ele>
      </trkpt>
      <trkpt lat="44.42364" lon="-0.56873">
        <ele>73.5</ele>
      </trkpt>
      <trkpt lat="44.42352" lon="-0.56869">
        <ele>73.2</ele>
      </trkpt>
      <trkpt lat="44.42347" lon="-0.56867">
        <ele>73.1</ele>
      </trkpt>
      <trkpt lat="44.42302" lon="-0.56853">
        <ele>73</ele>
      </trkpt>
      <trkpt lat="44.42278" lon="-0.56847">
        <ele>73</ele>
      </trkpt>
      <trkpt lat="44.42238" lon="-0.56837">
        <ele>73</ele>
      </trkpt>
      <trkpt lat="44.42212" lon="-0.56832">
        <ele>73</ele>
      </trkpt>
      <trkpt lat="44.42193" lon="-0.56829">
        <ele>73</ele>
      </trkpt>
      <trkpt lat="44.42178" lon="-0.56826">
        <ele>73</ele>
      </trkpt>
      <trkpt lat="44.42171" lon="-0.56824">
        <ele>73</ele>
      </trkpt>
      <trkpt lat="44.42163" lon="-0.56822">
        <ele>73</ele>
      </trkpt>
      <trkpt lat="44.42156" lon="-0.56818">
        <ele>73</ele>
      </trkpt>
      <trkpt lat="44.42149" lon="-0.56813">
        <ele>73</ele>
      </trkpt>
      <trkpt lat="44.42142" lon="-0.56806">
        <ele>73</ele>
      </trkpt>
      <trkpt lat="44.42128" lon="-0.56787">
        <ele>72.6</ele>
      </trkpt>
      <trkpt lat="44.42115" lon="-0.56768">
        <ele>72.9</ele>
      </trkpt>
      <trkpt lat="44.42108" lon="-0.56757">
        <ele>73</ele>
      </trkpt>
      <trkpt lat="44.42095" lon="-0.56739">
        <ele>72.8</ele>
      </trkpt>
      <trkpt lat="44.42084" lon="-0.56727">
        <ele>73</ele>
      </trkpt>
      <trkpt lat="44.42072" lon="-0.56718">
        <ele>73</ele>
      </trkpt>
      <trkpt lat="44.42057" lon="-0.56708">
        <ele>73</ele>
      </trkpt>
      <trkpt lat="44.41997" lon="-0.56671">
        <ele>73</ele>
      </trkpt>
      <trkpt lat="44.41954" lon="-0.56646">
        <ele>73</ele>
      </trkpt>
      <trkpt lat="44.41928" lon="-0.5663">
        <ele>73</ele>
      </trkpt>
      <trkpt lat="44.41909" lon="-0.56617">
        <ele>73</ele>
      </trkpt>
      <trkpt lat="44.41898" lon="-0.56608">
        <ele>73</ele>
      </trkpt>
      <trkpt lat="44.41823" lon="-0.5653">
        <ele>73</ele>
      </trkpt>
      <trkpt lat="44.4178" lon="-0.56486">
        <ele>73</ele>
      </trkpt>
      <trkpt lat="44.4176" lon="-0.56469">
        <ele>73</ele>
      </trkpt>
      <trkpt lat="44.41743" lon="-0.56451">
        <ele>73</ele>
      </trkpt>
      <trkpt lat="44.41724" lon="-0.5643">
        <ele>73</ele>
      </trkpt>
      <trkpt lat="44.41715" lon="-0.56419">
        <ele>73</ele>
      </trkpt>
      <trkpt lat="44.41706" lon="-0.56406">
        <ele>73</ele>
      </trkpt>
      <trkpt lat="44.41695" lon="-0.5639">
        <ele>73</ele>
      </trkpt>
      <trkpt lat="44.41686" lon="-0.56374">
        <ele>73</ele>
      </trkpt>
      <trkpt lat="44.41674" lon="-0.56355">
        <ele>73</ele>
      </trkpt>
      <trkpt lat="44.41669" lon="-0.5635">
        <ele>73</ele>
      </trkpt>
      <trkpt lat="44.41663" lon="-0.56344">
        <ele>72.9</ele>
      </trkpt>
      <trkpt lat="44.4165" lon="-0.56336">
        <ele>72.9</ele>
      </trkpt>
      <trkpt lat="44.41577" lon="-0.56301">
        <ele>73</ele>
      </trkpt>
      <trkpt lat="44.4153" lon="-0.56279">
        <ele>73.1</ele>
      </trkpt>
      <trkpt lat="44.41496" lon="-0.56262">
        <ele>73</ele>
      </trkpt>
      <trkpt lat="44.41486" lon="-0.56257">
        <ele>73</ele>
      </trkpt>
      <trkpt lat="44.41477" lon="-0.56249">
        <ele>73</ele>
      </trkpt>
      <trkpt lat="44.41469" lon="-0.56242">
        <ele>73</ele>
      </trkpt>
      <trkpt lat="44.41463" lon="-0.56236">
        <ele>73</ele>
      </trkpt>
      <trkpt lat="44.41457" lon="-0.5623">
        <ele>73</ele>
      </trkpt>
      <trkpt lat="44.41452" lon="-0.56226">
        <ele>73</ele>
      </trkpt>
      <trkpt lat="44.41445" lon="-0.56225">
        <ele>73</ele>
      </trkpt>
      <trkpt lat="44.41439" lon="-0.56226">
        <ele>73</ele>
      </trkpt>
      <trkpt lat="44.41432" lon="-0.56227">
        <ele>73</ele>
      </trkpt>
      <trkpt lat="44.41425" lon="-0.56229">
        <ele>73</ele>
      </trkpt>
      <trkpt lat="44.41357" lon="-0.56254">
        <ele>72.1</ele>
      </trkpt>
      <trkpt lat="44.41315" lon="-0.56269">
        <ele>72.3</ele>
      </trkpt>
      <trkpt lat="44.41254" lon="-0.56292">
        <ele>72</ele>
      </trkpt>
      <trkpt lat="44.41206" lon="-0.56309">
        <ele>72</ele>
      </trkpt>
      <trkpt lat="44.41167" lon="-0.56323">
        <ele>72.4</ele>
      </trkpt>
      <trkpt lat="44.41142" lon="-0.56333">
        <ele>72.9</ele>
      </trkpt>
      <trkpt lat="44.41117" lon="-0.5634">
        <ele>73</ele>
      </trkpt>
      <trkpt lat="44.41109" lon="-0.56342">
        <ele>73</ele>
      </trkpt>
      <trkpt lat="44.41102" lon="-0.56343">
        <ele>72.9</ele>
      </trkpt>
      <trkpt lat="44.41088" lon="-0.56341">
        <ele>72.8</ele>
      </trkpt>
      <trkpt lat="44.41067" lon="-0.56337">
        <ele>72.9</ele>
      </trkpt>
      <trkpt lat="44.41056" lon="-0.56335">
        <ele>72.9</ele>
      </trkpt>
      <trkpt lat="44.41009" lon="-0.56326">
        <ele>72.1</ele>
      </trkpt>
      <trkpt lat="44.40938" lon="-0.56311">
        <ele>72.8</ele>
      </trkpt>
      <trkpt lat="44.40915" lon="-0.56308">
        <ele>72</ele>
      </trkpt>
      <trkpt lat="44.40864" lon="-0.56297">
        <ele>72.4</ele>
      </trkpt>
      <trkpt lat="44.40829" lon="-0.5629">
        <ele>72.5</ele>
      </trkpt>
      <trkpt lat="44.40813" lon="-0.56285">
        <ele>72.4</ele>
      </trkpt>
      <trkpt lat="44.40824" lon="-0.56247">
        <ele>73</ele>
      </trkpt>
      <trkpt lat="44.40831" lon="-0.5622">
        <ele>72.9</ele>
      </trkpt>
      <trkpt lat="44.40839" lon="-0.56195">
        <ele>73</ele>
      </trkpt>
      <trkpt lat="44.40845" lon="-0.56171">
        <ele>72.5</ele>
      </trkpt>
      <trkpt lat="44.40849" lon="-0.56153">
        <ele>72.6</ele>
      </trkpt>
      <trkpt lat="44.40852" lon="-0.5613">
        <ele>72.5</ele>
      </trkpt>
      <trkpt lat="44.40854" lon="-0.56112">
        <ele>72</ele>
      </trkpt>
      <trkpt lat="44.40857" lon="-0.56066">
        <ele>72.3</ele>
      </trkpt>
      <trkpt lat="44.40858" lon="-0.56043">
        <ele>72</ele>
      </trkpt>
      <trkpt lat="44.4086" lon="-0.56012">
        <ele>72</ele>
      </trkpt>
      <trkpt lat="44.40864" lon="-0.55957">
        <ele>72.5</ele>
      </trkpt>
      <trkpt lat="44.4087" lon="-0.5587">
        <ele>72.8</ele>
      </trkpt>
      <trkpt lat="44.40873" lon="-0.55835">
        <ele>73</ele>
      </trkpt>
      <trkpt lat="44.40882" lon="-0.55695">
        <ele>72.8</ele>
      </trkpt>
      <trkpt lat="44.40887" lon="-0.5562">
        <ele>72.9</ele>
      </trkpt>
      <trkpt lat="44.40894" lon="-0.55549">
        <ele>72.8</ele>
      </trkpt>
      <trkpt lat="44.40896" lon="-0.55532">
        <ele>72.7</ele>
      </trkpt>
      <trkpt lat="44.40899" lon="-0.5552">
        <ele>72.6</ele>
      </trkpt>
      <trkpt lat="44.40902" lon="-0.5551">
        <ele>72.5</ele>
      </trkpt>
      <trkpt lat="44.40906" lon="-0.55497">
        <ele>72.6</ele>
      </trkpt>
      <trkpt lat="44.40913" lon="-0.55477">
        <ele>72.2</ele>
      </trkpt>
      <trkpt lat="44.40935" lon="-0.55415">
        <ele>72.4</ele>
      </trkpt>
      <trkpt lat="44.40945" lon="-0.55392">
        <ele>72.9</ele>
      </trkpt>
      <trkpt lat="44.40953" lon="-0.55368">
        <ele>72.5</ele>
      </trkpt>
      <trkpt lat="44.40957" lon="-0.5535">
        <ele>72.7</ele>
      </trkpt>
      <trkpt lat="44.40961" lon="-0.5533">
        <ele>73</ele>
      </trkpt>
      <trkpt lat="44.40968" lon="-0.55293">
        <ele>72.5</ele>
      </trkpt>
      <trkpt lat="44.40977" lon="-0.55232">
        <ele>73</ele>
      </trkpt>
      <trkpt lat="44.40992" lon="-0.55138">
        <ele>72.7</ele>
      </trkpt>
      <trkpt lat="44.41001" lon="-0.55076">
        <ele>73</ele>
      </trkpt>
      <trkpt lat="44.41015" lon="-0.54992">
        <ele>72.4</ele>
      </trkpt>
      <trkpt lat="44.41023" lon="-0.54937">
        <ele>72</ele>
      </trkpt>
      <trkpt lat="44.41028" lon="-0.54905">
        <ele>72</ele>
      </trkpt>
      <trkpt lat="44.41032" lon="-0.54891">
        <ele>72</ele>
      </trkpt>
      <trkpt lat="44.41035" lon="-0.54879">
        <ele>72</ele>
      </trkpt>
      <trkpt lat="44.41039" lon="-0.54864">
        <ele>72</ele>
      </trkpt>
      <trkpt lat="44.41045" lon="-0.54851">
        <ele>72</ele>
      </trkpt>
      <trkpt lat="44.41052" lon="-0.54836">
        <ele>72</ele>
      </trkpt>
      <trkpt lat="44.41061" lon="-0.5482">
        <ele>72</ele>
      </trkpt>
      <trkpt lat="44.41088" lon="-0.5477">
        <ele>72</ele>
      </trkpt>
      <trkpt lat="44.41095" lon="-0.54759">
        <ele>72</ele>
      </trkpt>
      <trkpt lat="44.41112" lon="-0.54731">
        <ele>72</ele>
      </trkpt>
      <trkpt lat="44.41151" lon="-0.54663">
        <ele>72</ele>
      </trkpt>
      <trkpt lat="44.41177" lon="-0.54617">
        <ele>72</ele>
      </trkpt>
      <trkpt lat="44.41225" lon="-0.54533">
        <ele>72</ele>
      </trkpt>
      <trkpt lat="44.41248" lon="-0.54495">
        <ele>72</ele>
      </trkpt>
      <trkpt lat="44.41316" lon="-0.54379">
        <ele>72</ele>
      </trkpt>
      <trkpt lat="44.41373" lon="-0.5428">
        <ele>72</ele>
      </trkpt>
      <trkpt lat="44.41424" lon="-0.5419">
        <ele>72</ele>
      </trkpt>
      <trkpt lat="44.41432" lon="-0.54176">
        <ele>72</ele>
      </trkpt>
      <trkpt lat="44.41469" lon="-0.54113">
        <ele>71.2</ele>
      </trkpt>
      <trkpt lat="44.41504" lon="-0.54053">
        <ele>72</ele>
      </trkpt>
      <trkpt lat="44.41523" lon="-0.54023">
        <ele>72</ele>
      </trkpt>
      <trkpt lat="44.41545" lon="-0.5404">
        <ele>71.4</ele>
      </trkpt>
      <trkpt lat="44.41574" lon="-0.54062">
        <ele>71</ele>
      </trkpt>
      <trkpt lat="44.41591" lon="-0.5407">
        <ele>71.3</ele>
      </trkpt>
      <trkpt lat="44.41605" lon="-0.54073">
        <ele>71.8</ele>
      </trkpt>
      <trkpt lat="44.41619" lon="-0.54071">
        <ele>71.9</ele>
      </trkpt>
      <trkpt lat="44.41633" lon="-0.54066">
        <ele>71.5</ele>
      </trkpt>
      <trkpt lat="44.41648" lon="-0.54065">
        <ele>71.5</ele>
      </trkpt>
      <trkpt lat="44.41665" lon="-0.54065">
        <ele>72</ele>
      </trkpt>
      <trkpt lat="44.41677" lon="-0.54065">
        <ele>72</ele>
      </trkpt>
      <trkpt lat="44.41694" lon="-0.54062">
        <ele>72</ele>
      </trkpt>
      <trkpt lat="44.41704" lon="-0.54061">
        <ele>72</ele>
      </trkpt>
      <trkpt lat="44.41738" lon="-0.54053">
        <ele>72</ele>
      </trkpt>
      <trkpt lat="44.41749" lon="-0.54048">
        <ele>72</ele>
      </trkpt>
      <trkpt lat="44.41756" lon="-0.54043">
        <ele>71.9</ele>
      </trkpt>
      <trkpt lat="44.41769" lon="-0.54036">
        <ele>71.8</ele>
      </trkpt>
      <trkpt lat="44.41798" lon="-0.54022">
        <ele>72</ele>
      </trkpt>
      <trkpt lat="44.41821" lon="-0.54008">
        <ele>72</ele>
      </trkpt>
      <trkpt lat="44.41844" lon="-0.53991">
        <ele>72</ele>
      </trkpt>
      <trkpt lat="44.41869" lon="-0.5398">
        <ele>72</ele>
      </trkpt>
      <trkpt lat="44.41886" lon="-0.53973">
        <ele>72</ele>
      </trkpt>
      <trkpt lat="44.419" lon="-0.53966">
        <ele>72</ele>
      </trkpt>
      <trkpt lat="44.41917" lon="-0.53955">
        <ele>72</ele>
      </trkpt>
      <trkpt lat="44.41938" lon="-0.53942">
        <ele>72.8</ele>
      </trkpt>
      <trkpt lat="44.4195" lon="-0.53938">
        <ele>73</ele>
      </trkpt>
      <trkpt lat="44.41963" lon="-0.53931">
        <ele>73</ele>
      </trkpt>
      <trkpt lat="44.41972" lon="-0.53921">
        <ele>73</ele>
      </trkpt>
      <trkpt lat="44.41982" lon="-0.53912">
        <ele>73.4</ele>
      </trkpt>
      <trkpt lat="44.41993" lon="-0.53908">
        <ele>73.8</ele>
      </trkpt>
      <trkpt lat="44.42007" lon="-0.53902">
        <ele>73.9</ele>
      </trkpt>
      <trkpt lat="44.4203" lon="-0.53901">
        <ele>73.4</ele>
      </trkpt>
      <trkpt lat="44.42048" lon="-0.53901">
        <ele>73.1</ele>
      </trkpt>
      <trkpt lat="44.4207" lon="-0.539">
        <ele>73</ele>
      </trkpt>
      <trkpt lat="44.4209" lon="-0.53898">
        <ele>72.9</ele>
      </trkpt>
      <trkpt lat="44.42109" lon="-0.53898">
        <ele>72.7</ele>
      </trkpt>
      <trkpt lat="44.42132" lon="-0.53899">
        <ele>72.5</ele>
      </trkpt>
      <trkpt lat="44.42152" lon="-0.53897">
        <ele>72.1</ele>
      </trkpt>
      <trkpt lat="44.42167" lon="-0.5389">
        <ele>72</ele>
      </trkpt>
      <trkpt lat="44.42183" lon="-0.53887">
        <ele>72</ele>
      </trkpt>
      <trkpt lat="44.42194" lon="-0.53884">
        <ele>72.2</ele>
      </trkpt>
      <trkpt lat="44.42207" lon="-0.53882">
        <ele>72.1</ele>
      </trkpt>
      <trkpt lat="44.42234" lon="-0.53881">
        <ele>71.9</ele>
      </trkpt>
      <trkpt lat="44.4228" lon="-0.53868">
        <ele>72</ele>
      </trkpt>
      <trkpt lat="44.42312" lon="-0.53859">
        <ele>71.8</ele>
      </trkpt>
      <trkpt lat="44.42433" lon="-0.53833">
        <ele>70.4</ele>
      </trkpt>
      <trkpt lat="44.42497" lon="-0.53813">
        <ele>71</ele>
      </trkpt>
      <trkpt lat="44.42519" lon="-0.53813">
        <ele>71</ele>
      </trkpt>
      <trkpt lat="44.42527" lon="-0.53798">
        <ele>71</ele>
      </trkpt>
      <trkpt lat="44.42544" lon="-0.53762">
        <ele>71.9</ele>
      </trkpt>
      <trkpt lat="44.42559" lon="-0.53727">
        <ele>72.2</ele>
      </trkpt>
      <trkpt lat="44.42564" lon="-0.53717">
        <ele>72</ele>
      </trkpt>
      <trkpt lat="44.42574" lon="-0.53694">
        <ele>72</ele>
      </trkpt>
      <trkpt lat="44.42585" lon="-0.53666">
        <ele>72</ele>
      </trkpt>
      <trkpt lat="44.42588" lon="-0.53654">
        <ele>72</ele>
      </trkpt>
      <trkpt lat="44.42593" lon="-0.53639">
        <ele>72</ele>
      </trkpt>
      <trkpt lat="44.42602" lon="-0.53618">
        <ele>71.5</ele>
      </trkpt>
      <trkpt lat="44.42611" lon="-0.53599">
        <ele>71</ele>
      </trkpt>
      <trkpt lat="44.42613" lon="-0.53593">
        <ele>71.1</ele>
      </trkpt>
      <trkpt lat="44.42616" lon="-0.53584">
        <ele>71.2</ele>
      </trkpt>
      <trkpt lat="44.42616" lon="-0.53566">
        <ele>71.2</ele>
      </trkpt>
      <trkpt lat="44.42616" lon="-0.53563">
        <ele>71.2</ele>
      </trkpt>
      <trkpt lat="44.42614" lon="-0.53547">
        <ele>71.1</ele>
      </trkpt>
      <trkpt lat="44.4261" lon="-0.53527">
        <ele>71.1</ele>
      </trkpt>
      <trkpt lat="44.42609" lon="-0.53523">
        <ele>71.1</ele>
      </trkpt>
      <trkpt lat="44.42605" lon="-0.53506">
        <ele>71</ele>
      </trkpt>
      <trkpt lat="44.42604" lon="-0.53496">
        <ele>71.1</ele>
      </trkpt>
      <trkpt lat="44.42605" lon="-0.53475">
        <ele>71.7</ele>
      </trkpt>
      <trkpt lat="44.42606" lon="-0.53445">
        <ele>71.8</ele>
      </trkpt>
      <trkpt lat="44.42607" lon="-0.53407">
        <ele>71.9</ele>
      </trkpt>
      <trkpt lat="44.42607" lon="-0.5337">
        <ele>72</ele>
      </trkpt>
      <trkpt lat="44.42607" lon="-0.53339">
        <ele>72</ele>
      </trkpt>
      <trkpt lat="44.42604" lon="-0.53313">
        <ele>72</ele>
      </trkpt>
      <trkpt lat="44.42601" lon="-0.53279">
        <ele>72</ele>
      </trkpt>
      <trkpt lat="44.42599" lon="-0.53258">
        <ele>71.3</ele>
      </trkpt>
      <trkpt lat="44.42595" lon="-0.53173">
        <ele>71.1</ele>
      </trkpt>
      <trkpt lat="44.42593" lon="-0.5313">
        <ele>70.2</ele>
      </trkpt>
      <trkpt lat="44.4259" lon="-0.53069">
        <ele>70.1</ele>
      </trkpt>
      <trkpt lat="44.42588" lon="-0.53022">
        <ele>70.2</ele>
      </trkpt>
      <trkpt lat="44.42587" lon="-0.52995">
        <ele>70.3</ele>
      </trkpt>
      <trkpt lat="44.42583" lon="-0.52968">
        <ele>70</ele>
      </trkpt>
      <trkpt lat="44.4258" lon="-0.52957">
        <ele>70</ele>
      </trkpt>
      <trkpt lat="44.42575" lon="-0.52934">
        <ele>70.1</ele>
      </trkpt>
      <trkpt lat="44.42571" lon="-0.52911">
        <ele>70.6</ele>
      </trkpt>
      <trkpt lat="44.42569" lon="-0.52887">
        <ele>71.5</ele>
      </trkpt>
      <trkpt lat="44.42568" lon="-0.52855">
        <ele>71.1</ele>
      </trkpt>
      <trkpt lat="44.42567" lon="-0.52823">
        <ele>71.6</ele>
      </trkpt>
      <trkpt lat="44.42568" lon="-0.52792">
        <ele>71.3</ele>
      </trkpt>
      <trkpt lat="44.4257" lon="-0.52754">
        <ele>70.1</ele>
      </trkpt>
      <trkpt lat="44.42573" lon="-0.52704">
        <ele>70</ele>
      </trkpt>
      <trkpt lat="44.42576" lon="-0.5265">
        <ele>70</ele>
      </trkpt>
      <trkpt lat="44.42578" lon="-0.52597">
        <ele>70</ele>
      </trkpt>
      <trkpt lat="44.4258" lon="-0.52556">
        <ele>70</ele>
      </trkpt>
      <trkpt lat="44.42583" lon="-0.52508">
        <ele>70</ele>
      </trkpt>
      <trkpt lat="44.42587" lon="-0.52481">
        <ele>69.3</ele>
      </trkpt>
      <trkpt lat="44.42594" lon="-0.52418">
        <ele>69</ele>
      </trkpt>
      <trkpt lat="44.42598" lon="-0.52378">
        <ele>69</ele>
      </trkpt>
      <trkpt lat="44.42599" lon="-0.52373">
        <ele>69</ele>
      </trkpt>
      <trkpt lat="44.426" lon="-0.52356">
        <ele>69</ele>
      </trkpt>
      <trkpt lat="44.42601" lon="-0.52337">
        <ele>69</ele>
      </trkpt>
      <trkpt lat="44.42601" lon="-0.52315">
        <ele>69</ele>
      </trkpt>
      <trkpt lat="44.426" lon="-0.52289">
        <ele>68.7</ele>
      </trkpt>
      <trkpt lat="44.42597" lon="-0.52245">
        <ele>69</ele>
      </trkpt>
      <trkpt lat="44.42595" lon="-0.52208">
        <ele>68.8</ele>
      </trkpt>
      <trkpt lat="44.42594" lon="-0.52169">
        <ele>68.6</ele>
      </trkpt>
      <trkpt lat="44.42592" lon="-0.52137">
        <ele>68</ele>
      </trkpt>
      <trkpt lat="44.42585" lon="-0.52066">
        <ele>67.4</ele>
      </trkpt>
      <trkpt lat="44.42581" lon="-0.52031">
        <ele>67.9</ele>
      </trkpt>
      <trkpt lat="44.42568" lon="-0.5196">
        <ele>68</ele>
      </trkpt>
      <trkpt lat="44.4256" lon="-0.51912">
        <ele>67.1</ele>
      </trkpt>
      <trkpt lat="44.42553" lon="-0.51874">
        <ele>67.1</ele>
      </trkpt>
      <trkpt lat="44.42543" lon="-0.51823">
        <ele>67.8</ele>
      </trkpt>
      <trkpt lat="44.42536" lon="-0.51789">
        <ele>67.7</ele>
      </trkpt>
      <trkpt lat="44.42528" lon="-0.51752">
        <ele>68</ele>
      </trkpt>
      <trkpt lat="44.42521" lon="-0.51717">
        <ele>68</ele>
      </trkpt>
      <trkpt lat="44.42513" lon="-0.51691">
        <ele>68</ele>
      </trkpt>
      <trkpt lat="44.42505" lon="-0.51663">
        <ele>68</ele>
      </trkpt>
      <trkpt lat="44.42486" lon="-0.51611">
        <ele>68.5</ele>
      </trkpt>
      <trkpt lat="44.42475" lon="-0.51583">
        <ele>68.9</ele>
      </trkpt>
      <trkpt lat="44.4247" lon="-0.51563">
        <ele>69</ele>
      </trkpt>
      <trkpt lat="44.42468" lon="-0.51551">
        <ele>68.9</ele>
      </trkpt>
      <trkpt lat="44.42466" lon="-0.51533">
        <ele>68.4</ele>
      </trkpt>
      <trkpt lat="44.42465" lon="-0.51514">
        <ele>68.3</ele>
      </trkpt>
      <trkpt lat="44.42465" lon="-0.51493">
        <ele>68.2</ele>
      </trkpt>
      <trkpt lat="44.42466" lon="-0.51465">
        <ele>68</ele>
      </trkpt>
      <trkpt lat="44.42465" lon="-0.51434">
        <ele>67.9</ele>
      </trkpt>
      <trkpt lat="44.4246" lon="-0.51366">
        <ele>67.9</ele>
      </trkpt>
      <trkpt lat="44.42458" lon="-0.51352">
        <ele>68</ele>
      </trkpt>
      <trkpt lat="44.42455" lon="-0.51329">
        <ele>68.1</ele>
      </trkpt>
      <trkpt lat="44.42457" lon="-0.51296">
        <ele>67.1</ele>
      </trkpt>
      <trkpt lat="44.42455" lon="-0.51252">
        <ele>67</ele>
      </trkpt>
      <trkpt lat="44.42451" lon="-0.51155">
        <ele>67.1</ele>
      </trkpt>
      <trkpt lat="44.42449" lon="-0.51111">
        <ele>67</ele>
      </trkpt>
      <trkpt lat="44.42448" lon="-0.51086">
        <ele>67</ele>
      </trkpt>
      <trkpt lat="44.42447" lon="-0.51041">
        <ele>66</ele>
      </trkpt>
      <trkpt lat="44.42445" lon="-0.50988">
        <ele>66</ele>
      </trkpt>
      <trkpt lat="44.42443" lon="-0.50945">
        <ele>66</ele>
      </trkpt>
      <trkpt lat="44.42442" lon="-0.50898">
        <ele>66</ele>
      </trkpt>
      <trkpt lat="44.42442" lon="-0.50866">
        <ele>66</ele>
      </trkpt>
      <trkpt lat="44.42442" lon="-0.50841">
        <ele>66</ele>
      </trkpt>
      <trkpt lat="44.42442" lon="-0.50837">
        <ele>66</ele>
      </trkpt>
      <trkpt lat="44.42443" lon="-0.50818">
        <ele>66</ele>
      </trkpt>
      <trkpt lat="44.42444" lon="-0.50794">
        <ele>66</ele>
      </trkpt>
      <trkpt lat="44.42448" lon="-0.50722">
        <ele>65.9</ele>
      </trkpt>
      <trkpt lat="44.42452" lon="-0.50644">
        <ele>65.3</ele>
      </trkpt>
      <trkpt lat="44.42454" lon="-0.50581">
        <ele>65</ele>
      </trkpt>
      <trkpt lat="44.42458" lon="-0.505">
        <ele>64</ele>
      </trkpt>
      <trkpt lat="44.42461" lon="-0.50443">
        <ele>64.6</ele>
      </trkpt>
      <trkpt lat="44.42463" lon="-0.50389">
        <ele>64.7</ele>
      </trkpt>
      <trkpt lat="44.42466" lon="-0.50335">
        <ele>64.8</ele>
      </trkpt>
      <trkpt lat="44.42469" lon="-0.50283">
        <ele>64.9</ele>
      </trkpt>
      <trkpt lat="44.42471" lon="-0.50246">
        <ele>64.8</ele>
      </trkpt>
      <trkpt lat="44.42471" lon="-0.50217">
        <ele>64</ele>
      </trkpt>
      <trkpt lat="44.42472" lon="-0.50194">
        <ele>64</ele>
      </trkpt>
      <trkpt lat="44.42471" lon="-0.50171">
        <ele>64.1</ele>
      </trkpt>
      <trkpt lat="44.42468" lon="-0.50141">
        <ele>63.4</ele>
      </trkpt>
      <trkpt lat="44.42463" lon="-0.50089">
        <ele>62.8</ele>
      </trkpt>
      <trkpt lat="44.42452" lon="-0.49968">
        <ele>62</ele>
      </trkpt>
      <trkpt lat="44.42447" lon="-0.49908">
        <ele>62</ele>
      </trkpt>
      <trkpt lat="44.4244" lon="-0.4985">
        <ele>61.1</ele>
      </trkpt>
      <trkpt lat="44.42436" lon="-0.49794">
        <ele>61.3</ele>
      </trkpt>
      <trkpt lat="44.42426" lon="-0.49684">
        <ele>61.3</ele>
      </trkpt>
      <trkpt lat="44.42421" lon="-0.4964">
        <ele>61</ele>
      </trkpt>
      <trkpt lat="44.4242" lon="-0.49624">
        <ele>61</ele>
      </trkpt>
      <trkpt lat="44.42419" lon="-0.4961">
        <ele>61</ele>
      </trkpt>
      <trkpt lat="44.42417" lon="-0.49583">
        <ele>61</ele>
      </trkpt>
      <trkpt lat="44.42417" lon="-0.49573">
        <ele>61</ele>
      </trkpt>
      <trkpt lat="44.42418" lon="-0.49562">
        <ele>61</ele>
      </trkpt>
      <trkpt lat="44.42418" lon="-0.49555">
        <ele>61</ele>
      </trkpt>
      <trkpt lat="44.42422" lon="-0.49537">
        <ele>60.3</ele>
      </trkpt>
      <trkpt lat="44.42428" lon="-0.49521">
        <ele>60</ele>
      </trkpt>
      <trkpt lat="44.42434" lon="-0.49507">
        <ele>60.2</ele>
      </trkpt>
      <trkpt lat="44.4244" lon="-0.49493">
        <ele>60.5</ele>
      </trkpt>
      <trkpt lat="44.42464" lon="-0.49443">
        <ele>60</ele>
      </trkpt>
      <trkpt lat="44.42475" lon="-0.49422">
        <ele>59.9</ele>
      </trkpt>
      <trkpt lat="44.4249" lon="-0.49399">
        <ele>59.8</ele>
      </trkpt>
      <trkpt lat="44.42497" lon="-0.4939">
        <ele>60</ele>
      </trkpt>
      <trkpt lat="44.42504" lon="-0.49382">
        <ele>60</ele>
      </trkpt>
      <trkpt lat="44.42514" lon="-0.4937">
        <ele>60</ele>
      </trkpt>
      <trkpt lat="44.4253" lon="-0.49353">
        <ele>60</ele>
      </trkpt>
      <trkpt lat="44.42536" lon="-0.49346">
        <ele>59.8</ele>
      </trkpt>
      <trkpt lat="44.42542" lon="-0.49338">
        <ele>59.6</ele>
      </trkpt>
      <trkpt lat="44.42585" lon="-0.49288">
        <ele>59</ele>
      </trkpt>
      <trkpt lat="44.42607" lon="-0.49262">
        <ele>58.9</ele>
      </trkpt>
      <trkpt lat="44.42615" lon="-0.49251">
        <ele>59</ele>
      </trkpt>
      <trkpt lat="44.42623" lon="-0.4924">
        <ele>58.8</ele>
      </trkpt>
      <trkpt lat="44.42631" lon="-0.49229">
        <ele>58.8</ele>
      </trkpt>
      <trkpt lat="44.42638" lon="-0.49218">
        <ele>58.8</ele>
      </trkpt>
      <trkpt lat="44.42645" lon="-0.49209">
        <ele>58.4</ele>
      </trkpt>
      <trkpt lat="44.42651" lon="-0.492">
        <ele>58.1</ele>
      </trkpt>
      <trkpt lat="44.42659" lon="-0.49185">
        <ele>58</ele>
      </trkpt>
      <trkpt lat="44.42665" lon="-0.49173">
        <ele>58</ele>
      </trkpt>
      <trkpt lat="44.4267" lon="-0.49162">
        <ele>58</ele>
      </trkpt>
      <trkpt lat="44.42675" lon="-0.4915">
        <ele>58</ele>
      </trkpt>
      <trkpt lat="44.42681" lon="-0.49137">
        <ele>58</ele>
      </trkpt>
      <trkpt lat="44.42686" lon="-0.49124">
        <ele>57.8</ele>
      </trkpt>
      <trkpt lat="44.42694" lon="-0.49102">
        <ele>58</ele>
      </trkpt>
      <trkpt lat="44.42703" lon="-0.49073">
        <ele>57.9</ele>
      </trkpt>
      <trkpt lat="44.42715" lon="-0.49056">
        <ele>57.3</ele>
      </trkpt>
      <trkpt lat="44.42721" lon="-0.49047">
        <ele>57.4</ele>
      </trkpt>
      <trkpt lat="44.42717" lon="-0.49025">
        <ele>58</ele>
      </trkpt>
      <trkpt lat="44.42712" lon="-0.49008">
        <ele>57.7</ele>
      </trkpt>
      <trkpt lat="44.42711" lon="-0.49007">
        <ele>57.7</ele>
      </trkpt>
      <trkpt lat="44.42705" lon="-0.49">
        <ele>57.4</ele>
      </trkpt>
      <trkpt lat="44.42704" lon="-0.48991">
        <ele>57.2</ele>
      </trkpt>
      <trkpt lat="44.42703" lon="-0.48987">
        <ele>57.2</ele>
      </trkpt>
      <trkpt lat="44.42703" lon="-0.48977">
        <ele>57</ele>
      </trkpt>
      <trkpt lat="44.42703" lon="-0.48972">
        <ele>57</ele>
      </trkpt>
      <trkpt lat="44.42703" lon="-0.48967">
        <ele>56.9</ele>
      </trkpt>
      <trkpt lat="44.42702" lon="-0.48957">
        <ele>56.6</ele>
      </trkpt>
      <trkpt lat="44.42702" lon="-0.48952">
        <ele>56.5</ele>
      </trkpt>
      <trkpt lat="44.42702" lon="-0.48948">
        <ele>56.4</ele>
      </trkpt>
      <trkpt lat="44.427" lon="-0.48894">
        <ele>54.2</ele>
      </trkpt>
      <trkpt lat="44.42695" lon="-0.48812">
        <ele>54.6</ele>
      </trkpt>
      <trkpt lat="44.42695" lon="-0.48801">
        <ele>55.4</ele>
      </trkpt>
      <trkpt lat="44.42694" lon="-0.48784">
        <ele>56.6</ele>
      </trkpt>
      <trkpt lat="44.42693" lon="-0.48778">
        <ele>57</ele>
      </trkpt>
      <trkpt lat="44.42693" lon="-0.48773">
        <ele>57</ele>
      </trkpt>
      <trkpt lat="44.42692" lon="-0.48752">
        <ele>57.1</ele>
      </trkpt>
      <trkpt lat="44.4269" lon="-0.48728">
        <ele>57.8</ele>
      </trkpt>
      <trkpt lat="44.42683" lon="-0.48714">
        <ele>58</ele>
      </trkpt>
      <trkpt lat="44.42677" lon="-0.48708">
        <ele>58</ele>
      </trkpt>
      <trkpt lat="44.42664" lon="-0.48691">
        <ele>58</ele>
      </trkpt>
      <trkpt lat="44.42659" lon="-0.48682">
        <ele>58</ele>
      </trkpt>
      <trkpt lat="44.42658" lon="-0.48646">
        <ele>58</ele>
      </trkpt>
      <trkpt lat="44.42669" lon="-0.48621">
        <ele>58</ele>
      </trkpt>
      <trkpt lat="44.42676" lon="-0.48611">
        <ele>58</ele>
      </trkpt>
      <trkpt lat="44.4268" lon="-0.48605">
        <ele>58</ele>
      </trkpt>
      <trkpt lat="44.42685" lon="-0.48598">
        <ele>58</ele>
      </trkpt>
      <trkpt lat="44.42689" lon="-0.48591">
        <ele>58</ele>
      </trkpt>
      <trkpt lat="44.42695" lon="-0.48581">
        <ele>58</ele>
      </trkpt>
      <trkpt lat="44.42699" lon="-0.4857">
        <ele>58</ele>
      </trkpt>
      <trkpt lat="44.42701" lon="-0.48559">
        <ele>58</ele>
      </trkpt>
      <trkpt lat="44.42702" lon="-0.48552">
        <ele>58</ele>
      </trkpt>
      <trkpt lat="44.42704" lon="-0.48546">
        <ele>58</ele>
      </trkpt>
      <trkpt lat="44.42709" lon="-0.48538">
        <ele>58</ele>
      </trkpt>
      <trkpt lat="44.42724" lon="-0.48512">
        <ele>58</ele>
      </trkpt>
      <trkpt lat="44.42752" lon="-0.48464">
        <ele>58</ele>
      </trkpt>
      <trkpt lat="44.42768" lon="-0.48435">
        <ele>58</ele>
      </trkpt>
      <trkpt lat="44.42782" lon="-0.484">
        <ele>58</ele>
      </trkpt>
      <trkpt lat="44.42816" lon="-0.4832">
        <ele>58</ele>
      </trkpt>
      <trkpt lat="44.42821" lon="-0.48311">
        <ele>58</ele>
      </trkpt>
      <trkpt lat="44.42829" lon="-0.48294">
        <ele>58</ele>
      </trkpt>
      <trkpt lat="44.42835" lon="-0.48299">
        <ele>58</ele>
      </trkpt>
      <trkpt lat="44.42841" lon="-0.48303">
        <ele>57.7</ele>
      </trkpt>
      <trkpt lat="44.42843" lon="-0.48304">
        <ele>57.7</ele>
      </trkpt>
      <trkpt lat="44.42845" lon="-0.48304">
        <ele>57.6</ele>
      </trkpt>
      <trkpt lat="44.42845" lon="-0.48302">
        <ele>57.6</ele>
      </trkpt>
      <trkpt lat="44.4285" lon="-0.48291">
        <ele>57.7</ele>
      </trkpt>
      <trkpt lat="44.42855" lon="-0.48279">
        <ele>58</ele>
      </trkpt>
      <trkpt lat="44.4287" lon="-0.48253">
        <ele>57.7</ele>
      </trkpt>
      <trkpt lat="44.42875" lon="-0.48236">
        <ele>57.8</ele>
      </trkpt>
      <trkpt lat="44.42874" lon="-0.48213">
        <ele>58</ele>
      </trkpt>
      <trkpt lat="44.42882" lon="-0.48195">
        <ele>58</ele>
      </trkpt>
      <trkpt lat="44.42888" lon="-0.48178">
        <ele>58</ele>
      </trkpt>
      <trkpt lat="44.42896" lon="-0.48138">
        <ele>57.7</ele>
      </trkpt>
      <trkpt lat="44.42909" lon="-0.48069">
        <ele>57.3</ele>
      </trkpt>
      <trkpt lat="44.42926" lon="-0.4797">
        <ele>56.7</ele>
      </trkpt>
      <trkpt lat="44.42935" lon="-0.47902">
        <ele>56.5</ele>
      </trkpt>
      <trkpt lat="44.42951" lon="-0.47793">
        <ele>56.2</ele>
      </trkpt>
      <trkpt lat="44.42954" lon="-0.47777">
        <ele>56.4</ele>
      </trkpt>
      <trkpt lat="44.42973" lon="-0.47641">
        <ele>56.9</ele>
      </trkpt>
      <trkpt lat="44.42985" lon="-0.47563">
        <ele>56.9</ele>
      </trkpt>
      <trkpt lat="44.43002" lon="-0.47451">
        <ele>56.2</ele>
      </trkpt>
      <trkpt lat="44.43013" lon="-0.47374">
        <ele>55.7</ele>
      </trkpt>
      <trkpt lat="44.43029" lon="-0.47269">
        <ele>56</ele>
      </trkpt>
      <trkpt lat="44.43041" lon="-0.47191">
        <ele>56</ele>
      </trkpt>
      <trkpt lat="44.43054" lon="-0.47104">
        <ele>56.1</ele>
      </trkpt>
      <trkpt lat="44.43068" lon="-0.47002">
        <ele>56.5</ele>
      </trkpt>
      <trkpt lat="44.43083" lon="-0.46905">
        <ele>56</ele>
      </trkpt>
      <trkpt lat="44.43094" lon="-0.46829">
        <ele>56</ele>
      </trkpt>
      <trkpt lat="44.43108" lon="-0.4674">
        <ele>56.1</ele>
      </trkpt>
      <trkpt lat="44.43115" lon="-0.46691">
        <ele>55.7</ele>
      </trkpt>
      <trkpt lat="44.43125" lon="-0.46631">
        <ele>54.5</ele>
      </trkpt>
      <trkpt lat="44.43138" lon="-0.46566">
        <ele>55</ele>
      </trkpt>
      <trkpt lat="44.43148" lon="-0.46527">
        <ele>54.7</ele>
      </trkpt>
      <trkpt lat="44.43164" lon="-0.46467">
        <ele>54.1</ele>
      </trkpt>
      <trkpt lat="44.43185" lon="-0.46401">
        <ele>54.1</ele>
      </trkpt>
      <trkpt lat="44.43208" lon="-0.46338">
        <ele>54</ele>
      </trkpt>
      <trkpt lat="44.43227" lon="-0.46289">
        <ele>54</ele>
      </trkpt>
      <trkpt lat="44.43231" lon="-0.46278">
        <ele>54</ele>
      </trkpt>
      <trkpt lat="44.43264" lon="-0.46195">
        <ele>54</ele>
      </trkpt>
      <trkpt lat="44.43298" lon="-0.46106">
        <ele>53.8</ele>
      </trkpt>
      <trkpt lat="44.43291" lon="-0.46084">
        <ele>53</ele>
      </trkpt>
      <trkpt lat="44.43286" lon="-0.46072">
        <ele>53</ele>
      </trkpt>
      <trkpt lat="44.43279" lon="-0.46055">
        <ele>53</ele>
      </trkpt>
      <trkpt lat="44.43237" lon="-0.4599">
        <ele>52.5</ele>
      </trkpt>
      <trkpt lat="44.43193" lon="-0.45922">
        <ele>54.1</ele>
      </trkpt>
      <trkpt lat="44.43151" lon="-0.45856">
        <ele>55.6</ele>
      </trkpt>
      <trkpt lat="44.43124" lon="-0.45813">
        <ele>56</ele>
      </trkpt>
      <trkpt lat="44.43078" lon="-0.45743">
        <ele>56</ele>
      </trkpt>
      <trkpt lat="44.43061" lon="-0.45717">
        <ele>56</ele>
      </trkpt>
      <trkpt lat="44.4305" lon="-0.45698">
        <ele>56</ele>
      </trkpt>
      <trkpt lat="44.4304" lon="-0.4568">
        <ele>56</ele>
      </trkpt>
      <trkpt lat="44.43004" lon="-0.45639">
        <ele>56</ele>
      </trkpt>
      <trkpt lat="44.42984" lon="-0.45616">
        <ele>56.9</ele>
      </trkpt>
      <trkpt lat="44.42965" lon="-0.45596">
        <ele>57</ele>
      </trkpt>
      <trkpt lat="44.42953" lon="-0.45577">
        <ele>56.9</ele>
      </trkpt>
      <trkpt lat="44.42946" lon="-0.45558">
        <ele>57</ele>
      </trkpt>
      <trkpt lat="44.4294" lon="-0.45538">
        <ele>57</ele>
      </trkpt>
      <trkpt lat="44.42935" lon="-0.45523">
        <ele>57</ele>
      </trkpt>
      <trkpt lat="44.42933" lon="-0.45516">
        <ele>57</ele>
      </trkpt>
      <trkpt lat="44.42931" lon="-0.45509">
        <ele>57</ele>
      </trkpt>
      <trkpt lat="44.42924" lon="-0.45489">
        <ele>57</ele>
      </trkpt>
      <trkpt lat="44.429" lon="-0.45416">
        <ele>57</ele>
      </trkpt>
      <trkpt lat="44.42887" lon="-0.45382">
        <ele>57</ele>
      </trkpt>
      <trkpt lat="44.42885" lon="-0.45377">
        <ele>57</ele>
      </trkpt>
      <trkpt lat="44.42883" lon="-0.4537">
        <ele>57</ele>
      </trkpt>
      <trkpt lat="44.42877" lon="-0.45352">
        <ele>57</ele>
      </trkpt>
      <trkpt lat="44.42862" lon="-0.45301">
        <ele>57</ele>
      </trkpt>
      <trkpt lat="44.42848" lon="-0.45261">
        <ele>57.2</ele>
      </trkpt>
      <trkpt lat="44.42838" lon="-0.45232">
        <ele>57</ele>
      </trkpt>
      <trkpt lat="44.42813" lon="-0.45155">
        <ele>57.7</ele>
      </trkpt>
      <trkpt lat="44.42798" lon="-0.45101">
        <ele>58</ele>
      </trkpt>
      <trkpt lat="44.42794" lon="-0.45092">
        <ele>58</ele>
      </trkpt>
      <trkpt lat="44.42791" lon="-0.45081">
        <ele>58</ele>
      </trkpt>
      <trkpt lat="44.42773" lon="-0.45033">
        <ele>58</ele>
      </trkpt>
      <trkpt lat="44.42751" lon="-0.44986">
        <ele>58</ele>
      </trkpt>
      <trkpt lat="44.42727" lon="-0.44932">
        <ele>58</ele>
      </trkpt>
      <trkpt lat="44.42711" lon="-0.44895">
        <ele>58.4</ele>
      </trkpt>
      <trkpt lat="44.42697" lon="-0.44862">
        <ele>58</ele>
      </trkpt>
      <trkpt lat="44.42682" lon="-0.44831">
        <ele>59</ele>
      </trkpt>
      <trkpt lat="44.4267" lon="-0.44802">
        <ele>59</ele>
      </trkpt>
      <trkpt lat="44.42659" lon="-0.44764">
        <ele>59</ele>
      </trkpt>
      <trkpt lat="44.42647" lon="-0.4472">
        <ele>59</ele>
      </trkpt>
      <trkpt lat="44.42633" lon="-0.44662">
        <ele>59</ele>
      </trkpt>
      <trkpt lat="44.4262" lon="-0.44613">
        <ele>59</ele>
      </trkpt>
      <trkpt lat="44.42604" lon="-0.44553">
        <ele>59</ele>
      </trkpt>
      <trkpt lat="44.42593" lon="-0.44511">
        <ele>59</ele>
      </trkpt>
      <trkpt lat="44.4258" lon="-0.44465">
        <ele>59</ele>
      </trkpt>
      <trkpt lat="44.42569" lon="-0.44416">
        <ele>59</ele>
      </trkpt>
      <trkpt lat="44.42563" lon="-0.44385">
        <ele>58.9</ele>
      </trkpt>
      <trkpt lat="44.42541" lon="-0.4432">
        <ele>58.7</ele>
      </trkpt>
      <trkpt lat="44.42527" lon="-0.44282">
        <ele>59</ele>
      </trkpt>
      <trkpt lat="44.42516" lon="-0.44255">
        <ele>59</ele>
      </trkpt>
      <trkpt lat="44.42505" lon="-0.44232">
        <ele>59</ele>
      </trkpt>
      <trkpt lat="44.42494" lon="-0.44206">
        <ele>59</ele>
      </trkpt>
      <trkpt lat="44.42486" lon="-0.4418">
        <ele>59</ele>
      </trkpt>
      <trkpt lat="44.42482" lon="-0.4416">
        <ele>59</ele>
      </trkpt>
      <trkpt lat="44.42479" lon="-0.44133">
        <ele>59</ele>
      </trkpt>
      <trkpt lat="44.42479" lon="-0.441">
        <ele>59</ele>
      </trkpt>
      <trkpt lat="44.42478" lon="-0.44077">
        <ele>59</ele>
      </trkpt>
      <trkpt lat="44.42475" lon="-0.44051">
        <ele>59</ele>
      </trkpt>
      <trkpt lat="44.42469" lon="-0.44032">
        <ele>59</ele>
      </trkpt>
      <trkpt lat="44.42465" lon="-0.44017">
        <ele>59</ele>
      </trkpt>
      <trkpt lat="44.42488" lon="-0.43966">
        <ele>59</ele>
      </trkpt>
      <trkpt lat="44.42503" lon="-0.43934">
        <ele>59</ele>
      </trkpt>
      <trkpt lat="44.42517" lon="-0.43906">
        <ele>59</ele>
      </trkpt>
      <trkpt lat="44.42531" lon="-0.43875">
        <ele>58.9</ele>
      </trkpt>
      <trkpt lat="44.42543" lon="-0.43845">
        <ele>59</ele>
      </trkpt>
      <trkpt lat="44.42554" lon="-0.43819">
        <ele>59</ele>
      </trkpt>
      <trkpt lat="44.42563" lon="-0.43804">
        <ele>58.8</ele>
      </trkpt>
      <trkpt lat="44.42577" lon="-0.43777">
        <ele>59</ele>
      </trkpt>
      <trkpt lat="44.42593" lon="-0.43736">
        <ele>58</ele>
      </trkpt>
      <trkpt lat="44.42608" lon="-0.43709">
        <ele>58</ele>
      </trkpt>
      <trkpt lat="44.42619" lon="-0.43679">
        <ele>58</ele>
      </trkpt>
      <trkpt lat="44.42638" lon="-0.43637">
        <ele>58</ele>
      </trkpt>
      <trkpt lat="44.42655" lon="-0.43601">
        <ele>58</ele>
      </trkpt>
      <trkpt lat="44.42663" lon="-0.43573">
        <ele>58</ele>
      </trkpt>
      <trkpt lat="44.4268" lon="-0.43541">
        <ele>58</ele>
      </trkpt>
      <trkpt lat="44.42693" lon="-0.43511">
        <ele>58</ele>
      </trkpt>
      <trkpt lat="44.42707" lon="-0.43478">
        <ele>58.8</ele>
      </trkpt>
      <trkpt lat="44.42724" lon="-0.43443">
        <ele>58</ele>
      </trkpt>
      <trkpt lat="44.4274" lon="-0.43413">
        <ele>58</ele>
      </trkpt>
      <trkpt lat="44.42747" lon="-0.43402">
        <ele>58</ele>
      </trkpt>
      <trkpt lat="44.42758" lon="-0.43395">
        <ele>57.8</ele>
      </trkpt>
      <trkpt lat="44.42777" lon="-0.43386">
        <ele>57</ele>
      </trkpt>
      <trkpt lat="44.42802" lon="-0.43375">
        <ele>57</ele>
      </trkpt>
      <trkpt lat="44.42832" lon="-0.43361">
        <ele>57</ele>
      </trkpt>
      <trkpt lat="44.42855" lon="-0.43346">
        <ele>56.5</ele>
      </trkpt>
      <trkpt lat="44.42878" lon="-0.43325">
        <ele>56</ele>
      </trkpt>
      <trkpt lat="44.42901" lon="-0.43304">
        <ele>56.4</ele>
      </trkpt>
      <trkpt lat="44.42927" lon="-0.43283">
        <ele>56.2</ele>
      </trkpt>
      <trkpt lat="44.42946" lon="-0.43268">
        <ele>56.1</ele>
      </trkpt>
      <trkpt lat="44.42952" lon="-0.43263">
        <ele>56.3</ele>
      </trkpt>
      <trkpt lat="44.42976" lon="-0.43239">
        <ele>56.6</ele>
      </trkpt>
      <trkpt lat="44.42997" lon="-0.43217">
        <ele>56</ele>
      </trkpt>
      <trkpt lat="44.43013" lon="-0.432">
        <ele>56</ele>
      </trkpt>
      <trkpt lat="44.43024" lon="-0.43184">
        <ele>56</ele>
      </trkpt>
      <trkpt lat="44.43036" lon="-0.43139">
        <ele>56</ele>
      </trkpt>
      <trkpt lat="44.43044" lon="-0.43112">
        <ele>56</ele>
      </trkpt>
      <trkpt lat="44.43048" lon="-0.43097">
        <ele>56</ele>
      </trkpt>
      <trkpt lat="44.43053" lon="-0.43086">
        <ele>56</ele>
      </trkpt>
      <trkpt lat="44.4307" lon="-0.43055">
        <ele>56</ele>
      </trkpt>
      <trkpt lat="44.43078" lon="-0.43033">
        <ele>56</ele>
      </trkpt>
      <trkpt lat="44.43088" lon="-0.43012">
        <ele>55.8</ele>
      </trkpt>
      <trkpt lat="44.43095" lon="-0.43003">
        <ele>55.6</ele>
      </trkpt>
      <trkpt lat="44.43098" lon="-0.42983">
        <ele>55.5</ele>
      </trkpt>
      <trkpt lat="44.43103" lon="-0.42956">
        <ele>55.1</ele>
      </trkpt>
      <trkpt lat="44.43108" lon="-0.42935">
        <ele>54.7</ele>
      </trkpt>
      <trkpt lat="44.4313" lon="-0.4285">
        <ele>54.1</ele>
      </trkpt>
      <trkpt lat="44.43137" lon="-0.42832">
        <ele>54.1</ele>
      </trkpt>
      <trkpt lat="44.43147" lon="-0.42808">
        <ele>54</ele>
      </trkpt>
      <trkpt lat="44.43154" lon="-0.42789">
        <ele>54</ele>
      </trkpt>
      <trkpt lat="44.4316" lon="-0.4276">
        <ele>54.2</ele>
      </trkpt>
      <trkpt lat="44.43163" lon="-0.42741">
        <ele>54.1</ele>
      </trkpt>
      <trkpt lat="44.43168" lon="-0.42705">
        <ele>53.4</ele>
      </trkpt>
      <trkpt lat="44.43174" lon="-0.4268">
        <ele>53.1</ele>
      </trkpt>
      <trkpt lat="44.4318" lon="-0.42654">
        <ele>53.7</ele>
      </trkpt>
      <trkpt lat="44.43184" lon="-0.4262">
        <ele>54</ele>
      </trkpt>
      <trkpt lat="44.43186" lon="-0.42592">
        <ele>54.5</ele>
      </trkpt>
      <trkpt lat="44.4319" lon="-0.42562">
        <ele>54.2</ele>
      </trkpt>
      <trkpt lat="44.43198" lon="-0.42503">
        <ele>52.1</ele>
      </trkpt>
      <trkpt lat="44.43201" lon="-0.42483">
        <ele>51.9</ele>
      </trkpt>
      <trkpt lat="44.43206" lon="-0.42466">
        <ele>51.5</ele>
      </trkpt>
      <trkpt lat="44.43212" lon="-0.4245">
        <ele>51.1</ele>
      </trkpt>
      <trkpt lat="44.43223" lon="-0.42427">
        <ele>51.6</ele>
      </trkpt>
      <trkpt lat="44.43232" lon="-0.42408">
        <ele>52</ele>
      </trkpt>
      <trkpt lat="44.43239" lon="-0.42391">
        <ele>52</ele>
      </trkpt>
      <trkpt lat="44.43247" lon="-0.42371">
        <ele>52</ele>
      </trkpt>
      <trkpt lat="44.43267" lon="-0.42314">
        <ele>52</ele>
      </trkpt>
      <trkpt lat="44.43272" lon="-0.42288">
        <ele>51.9</ele>
      </trkpt>
      <trkpt lat="44.43278" lon="-0.42258">
        <ele>51.3</ele>
      </trkpt>
      <trkpt lat="44.43285" lon="-0.42233">
        <ele>51.8</ele>
      </trkpt>
      <trkpt lat="44.43292" lon="-0.42213">
        <ele>51.8</ele>
      </trkpt>
      <trkpt lat="44.43315" lon="-0.4215">
        <ele>52.2</ele>
      </trkpt>
      <trkpt lat="44.43322" lon="-0.42135">
        <ele>52.6</ele>
      </trkpt>
      <trkpt lat="44.43327" lon="-0.4212">
        <ele>52.8</ele>
      </trkpt>
      <trkpt lat="44.43338" lon="-0.42077">
        <ele>52</ele>
      </trkpt>
      <trkpt lat="44.43345" lon="-0.42053">
        <ele>52</ele>
      </trkpt>
      <trkpt lat="44.43356" lon="-0.42002">
        <ele>52</ele>
      </trkpt>
      <trkpt lat="44.43363" lon="-0.41965">
        <ele>51.2</ele>
      </trkpt>
      <trkpt lat="44.43367" lon="-0.41929">
        <ele>51.9</ele>
      </trkpt>
      <trkpt lat="44.4337" lon="-0.419">
        <ele>52</ele>
      </trkpt>
      <trkpt lat="44.43373" lon="-0.41883">
        <ele>51.8</ele>
      </trkpt>
      <trkpt lat="44.43379" lon="-0.41863">
        <ele>51.1</ele>
      </trkpt>
      <trkpt lat="44.43388" lon="-0.41844">
        <ele>51</ele>
      </trkpt>
      <trkpt lat="44.43395" lon="-0.4183">
        <ele>51</ele>
      </trkpt>
      <trkpt lat="44.434" lon="-0.41818">
        <ele>51</ele>
      </trkpt>
      <trkpt lat="44.43413" lon="-0.41791">
        <ele>51</ele>
      </trkpt>
      <trkpt lat="44.43424" lon="-0.41763">
        <ele>51</ele>
      </trkpt>
      <trkpt lat="44.43432" lon="-0.4174">
        <ele>51.2</ele>
      </trkpt>
      <trkpt lat="44.43437" lon="-0.41716">
        <ele>51.3</ele>
      </trkpt>
      <trkpt lat="44.4344" lon="-0.41697">
        <ele>51.2</ele>
      </trkpt>
      <trkpt lat="44.43441" lon="-0.4168">
        <ele>51.1</ele>
      </trkpt>
      <trkpt lat="44.43445" lon="-0.41645">
        <ele>51</ele>
      </trkpt>
      <trkpt lat="44.43472" lon="-0.41606">
        <ele>51</ele>
      </trkpt>
      <trkpt lat="44.43498" lon="-0.41572">
        <ele>51</ele>
      </trkpt>
      <trkpt lat="44.43511" lon="-0.41552">
        <ele>51</ele>
      </trkpt>
      <trkpt lat="44.43524" lon="-0.41523">
        <ele>50.1</ele>
      </trkpt>
      <trkpt lat="44.43542" lon="-0.41484">
        <ele>50</ele>
      </trkpt>
      <trkpt lat="44.43564" lon="-0.41435">
        <ele>49.9</ele>
      </trkpt>
      <trkpt lat="44.43586" lon="-0.41387">
        <ele>49.1</ele>
      </trkpt>
      <trkpt lat="44.43606" lon="-0.41342">
        <ele>49.6</ele>
      </trkpt>
      <trkpt lat="44.43641" lon="-0.41261">
        <ele>50.6</ele>
      </trkpt>
      <trkpt lat="44.43668" lon="-0.41193">
        <ele>46.9</ele>
      </trkpt>
      <trkpt lat="44.43673" lon="-0.41182">
        <ele>46</ele>
      </trkpt>
      <trkpt lat="44.43676" lon="-0.41171">
        <ele>45.2</ele>
      </trkpt>
      <trkpt lat="44.43678" lon="-0.41163">
        <ele>44.6</ele>
      </trkpt>
      <trkpt lat="44.43679" lon="-0.41153">
        <ele>44.1</ele>
      </trkpt>
      <trkpt lat="44.43679" lon="-0.41143">
        <ele>43.6</ele>
      </trkpt>
      <trkpt lat="44.43679" lon="-0.4113">
        <ele>42.9</ele>
      </trkpt>
      <trkpt lat="44.43678" lon="-0.41121">
        <ele>42.3</ele>
      </trkpt>
      <trkpt lat="44.43677" lon="-0.41114">
        <ele>41.8</ele>
      </trkpt>
      <trkpt lat="44.43675" lon="-0.41107">
        <ele>41.2</ele>
      </trkpt>
      <trkpt lat="44.43662" lon="-0.41058">
        <ele>39.4</ele>
      </trkpt>
      <trkpt lat="44.43644" lon="-0.40988">
        <ele>46.4</ele>
      </trkpt>
      <trkpt lat="44.43637" lon="-0.40959">
        <ele>47.1</ele>
      </trkpt>
      <trkpt lat="44.43632" lon="-0.40936">
        <ele>47.5</ele>
      </trkpt>
      <trkpt lat="44.43629" lon="-0.40915">
        <ele>48.4</ele>
      </trkpt>
      <trkpt lat="44.4363" lon="-0.40898">
        <ele>48.8</ele>
      </trkpt>
      <trkpt lat="44.43633" lon="-0.40878">
        <ele>49</ele>
      </trkpt>
      <trkpt lat="44.43642" lon="-0.40853">
        <ele>48.9</ele>
      </trkpt>
      <trkpt lat="44.43657" lon="-0.40808">
        <ele>48.3</ele>
      </trkpt>
      <trkpt lat="44.43683" lon="-0.40735">
        <ele>48</ele>
      </trkpt>
      <trkpt lat="44.43687" lon="-0.40722">
        <ele>48</ele>
      </trkpt>
      <trkpt lat="44.43711" lon="-0.40653">
        <ele>49</ele>
      </trkpt>
      <trkpt lat="44.43741" lon="-0.40567">
        <ele>49</ele>
      </trkpt>
      <trkpt lat="44.43755" lon="-0.40527">
        <ele>48.8</ele>
      </trkpt>
      <trkpt lat="44.43778" lon="-0.40463">
        <ele>49</ele>
      </trkpt>
      <trkpt lat="44.43806" lon="-0.40384">
        <ele>48.8</ele>
      </trkpt>
      <trkpt lat="44.43838" lon="-0.40292">
        <ele>48</ele>
      </trkpt>
      <trkpt lat="44.43863" lon="-0.4022">
        <ele>47.9</ele>
      </trkpt>
      <trkpt lat="44.43905" lon="-0.401">
        <ele>47.4</ele>
      </trkpt>
      <trkpt lat="44.4393" lon="-0.40028">
        <ele>47</ele>
      </trkpt>
      <trkpt lat="44.43961" lon="-0.39938">
        <ele>46</ele>
      </trkpt>
      <trkpt lat="44.43965" lon="-0.39926">
        <ele>46</ele>
      </trkpt>
      <trkpt lat="44.43986" lon="-0.39867">
        <ele>46.4</ele>
      </trkpt>
      <trkpt lat="44.44003" lon="-0.39817">
        <ele>46</ele>
      </trkpt>
      <trkpt lat="44.44025" lon="-0.39753">
        <ele>46</ele>
      </trkpt>
      <trkpt lat="44.44046" lon="-0.39694">
        <ele>46.3</ele>
      </trkpt>
      <trkpt lat="44.44057" lon="-0.39664">
        <ele>46.1</ele>
      </trkpt>
      <trkpt lat="44.44068" lon="-0.39639">
        <ele>47</ele>
      </trkpt>
      <trkpt lat="44.44082" lon="-0.39615">
        <ele>46.1</ele>
      </trkpt>
      <trkpt lat="44.44095" lon="-0.39596">
        <ele>46.7</ele>
      </trkpt>
      <trkpt lat="44.441" lon="-0.3959">
        <ele>46.9</ele>
      </trkpt>
      <trkpt lat="44.44118" lon="-0.39568">
        <ele>46.3</ele>
      </trkpt>
      <trkpt lat="44.44139" lon="-0.39546">
        <ele>46.4</ele>
      </trkpt>
      <trkpt lat="44.44192" lon="-0.39488">
        <ele>46.6</ele>
      </trkpt>
      <trkpt lat="44.44233" lon="-0.39446">
        <ele>46</ele>
      </trkpt>
      <trkpt lat="44.44252" lon="-0.39426">
        <ele>46</ele>
      </trkpt>
      <trkpt lat="44.44286" lon="-0.39389">
        <ele>45.7</ele>
      </trkpt>
      <trkpt lat="44.44334" lon="-0.39339">
        <ele>44</ele>
      </trkpt>
      <trkpt lat="44.44333" lon="-0.3933">
        <ele>44</ele>
      </trkpt>
      <trkpt lat="44.44329" lon="-0.39297">
        <ele>44</ele>
      </trkpt>
      <trkpt lat="44.44328" lon="-0.39264">
        <ele>44</ele>
      </trkpt>
      <trkpt lat="44.44322" lon="-0.39199">
        <ele>44</ele>
      </trkpt>
      <trkpt lat="44.44301" lon="-0.39096">
        <ele>44.1</ele>
      </trkpt>
      <trkpt lat="44.44293" lon="-0.39059">
        <ele>44</ele>
      </trkpt>
      <trkpt lat="44.44287" lon="-0.39033">
        <ele>44</ele>
      </trkpt>
      <trkpt lat="44.44281" lon="-0.39006">
        <ele>44.8</ele>
      </trkpt>
      <trkpt lat="44.44276" lon="-0.38976">
        <ele>45</ele>
      </trkpt>
      <trkpt lat="44.44276" lon="-0.38961">
        <ele>45</ele>
      </trkpt>
      <trkpt lat="44.44289" lon="-0.38906">
        <ele>45</ele>
      </trkpt>
      <trkpt lat="44.44302" lon="-0.38873">
        <ele>45</ele>
      </trkpt>
      <trkpt lat="44.44311" lon="-0.3884">
        <ele>45</ele>
      </trkpt>
      <trkpt lat="44.44324" lon="-0.38779">
        <ele>45</ele>
      </trkpt>
      <trkpt lat="44.44337" lon="-0.38724">
        <ele>45</ele>
      </trkpt>
      <trkpt lat="44.44344" lon="-0.3869">
        <ele>44.3</ele>
      </trkpt>
      <trkpt lat="44.44357" lon="-0.38656">
        <ele>44</ele>
      </trkpt>
      <trkpt lat="44.44362" lon="-0.3864">
        <ele>44</ele>
      </trkpt>
      <trkpt lat="44.44366" lon="-0.38616">
        <ele>44</ele>
      </trkpt>
      <trkpt lat="44.44373" lon="-0.38596">
        <ele>44</ele>
      </trkpt>
      <trkpt lat="44.44389" lon="-0.38571">
        <ele>43.6</ele>
      </trkpt>
      <trkpt lat="44.44402" lon="-0.38539">
        <ele>43</ele>
      </trkpt>
      <trkpt lat="44.44411" lon="-0.38507">
        <ele>43</ele>
      </trkpt>
      <trkpt lat="44.44416" lon="-0.38476">
        <ele>42.1</ele>
      </trkpt>
      <trkpt lat="44.44423" lon="-0.38453">
        <ele>42</ele>
      </trkpt>
      <trkpt lat="44.44434" lon="-0.38422">
        <ele>42</ele>
      </trkpt>
      <trkpt lat="44.44443" lon="-0.38388">
        <ele>41.1</ele>
      </trkpt>
      <trkpt lat="44.44449" lon="-0.38366">
        <ele>41.7</ele>
      </trkpt>
      <trkpt lat="44.4445" lon="-0.38353">
        <ele>41.6</ele>
      </trkpt>
      <trkpt lat="44.44449" lon="-0.3832">
        <ele>41</ele>
      </trkpt>
      <trkpt lat="44.44447" lon="-0.38247">
        <ele>41.9</ele>
      </trkpt>
      <trkpt lat="44.4444" lon="-0.38201">
        <ele>41.4</ele>
      </trkpt>
      <trkpt lat="44.44438" lon="-0.3818">
        <ele>41.1</ele>
      </trkpt>
      <trkpt lat="44.44435" lon="-0.38135">
        <ele>41</ele>
      </trkpt>
      <trkpt lat="44.44436" lon="-0.38123">
        <ele>41</ele>
      </trkpt>
      <trkpt lat="44.44444" lon="-0.38109">
        <ele>40.9</ele>
      </trkpt>
      <trkpt lat="44.44462" lon="-0.38091">
        <ele>40.1</ele>
      </trkpt>
      <trkpt lat="44.4447" lon="-0.38084">
        <ele>40</ele>
      </trkpt>
      <trkpt lat="44.44492" lon="-0.38072">
        <ele>40</ele>
      </trkpt>
      <trkpt lat="44.44528" lon="-0.38049">
        <ele>40</ele>
      </trkpt>
      <trkpt lat="44.4455" lon="-0.3803">
        <ele>40</ele>
      </trkpt>
      <trkpt lat="44.44582" lon="-0.38002">
        <ele>40</ele>
      </trkpt>
      <trkpt lat="44.44618" lon="-0.37966">
        <ele>40</ele>
      </trkpt>
      <trkpt lat="44.44641" lon="-0.37942">
        <ele>40</ele>
      </trkpt>
      <trkpt lat="44.44672" lon="-0.37906">
        <ele>40</ele>
      </trkpt>
      <trkpt lat="44.44685" lon="-0.3789">
        <ele>40</ele>
      </trkpt>
      <trkpt lat="44.44695" lon="-0.37879">
        <ele>40</ele>
      </trkpt>
      <trkpt lat="44.44704" lon="-0.37868">
        <ele>39.9</ele>
      </trkpt>
      <trkpt lat="44.44756" lon="-0.37814">
        <ele>39.7</ele>
      </trkpt>
      <trkpt lat="44.44766" lon="-0.37804">
        <ele>40</ele>
      </trkpt>
      <trkpt lat="44.44778" lon="-0.37792">
        <ele>40</ele>
      </trkpt>
      <trkpt lat="44.4479" lon="-0.37782">
        <ele>40</ele>
      </trkpt>
      <trkpt lat="44.44808" lon="-0.37768">
        <ele>40</ele>
      </trkpt>
      <trkpt lat="44.44844" lon="-0.37742">
        <ele>39.4</ele>
      </trkpt>
      <trkpt lat="44.4488" lon="-0.37716">
        <ele>38.9</ele>
      </trkpt>
      <trkpt lat="44.44889" lon="-0.37708">
        <ele>38.5</ele>
      </trkpt>
      <trkpt lat="44.44896" lon="-0.377">
        <ele>38.2</ele>
      </trkpt>
      <trkpt lat="44.44901" lon="-0.3769">
        <ele>37.8</ele>
      </trkpt>
      <trkpt lat="44.44905" lon="-0.37679">
        <ele>37.1</ele>
      </trkpt>
      <trkpt lat="44.44919" lon="-0.37675">
        <ele>36.6</ele>
      </trkpt>
      <trkpt lat="44.44932" lon="-0.3768">
        <ele>37</ele>
      </trkpt>
      <trkpt lat="44.44947" lon="-0.37681">
        <ele>36.9</ele>
      </trkpt>
      <trkpt lat="44.44964" lon="-0.37679">
        <ele>36.2</ele>
      </trkpt>
      <trkpt lat="44.4498" lon="-0.37682">
        <ele>36.1</ele>
      </trkpt>
      <trkpt lat="44.44989" lon="-0.37686">
        <ele>36.4</ele>
      </trkpt>
      <trkpt lat="44.44998" lon="-0.3769">
        <ele>36.7</ele>
      </trkpt>
      <trkpt lat="44.45027" lon="-0.37708">
        <ele>37</ele>
      </trkpt>
      <trkpt lat="44.45055" lon="-0.37726">
        <ele>37.1</ele>
      </trkpt>
      <trkpt lat="44.45068" lon="-0.37735">
        <ele>37.5</ele>
      </trkpt>
      <trkpt lat="44.45081" lon="-0.37744">
        <ele>37.8</ele>
      </trkpt>
      <trkpt lat="44.45095" lon="-0.37753">
        <ele>38</ele>
      </trkpt>
      <trkpt lat="44.45108" lon="-0.37761">
        <ele>38</ele>
      </trkpt>
      <trkpt lat="44.4512" lon="-0.37771">
        <ele>37.6</ele>
      </trkpt>
      <trkpt lat="44.45133" lon="-0.3778">
        <ele>37.2</ele>
      </trkpt>
      <trkpt lat="44.45145" lon="-0.37789">
        <ele>37</ele>
      </trkpt>
      <trkpt lat="44.45157" lon="-0.37797">
        <ele>37</ele>
      </trkpt>
      <trkpt lat="44.4517" lon="-0.37804">
        <ele>36.9</ele>
      </trkpt>
      <trkpt lat="44.4518" lon="-0.37811">
        <ele>36.6</ele>
      </trkpt>
      <trkpt lat="44.45187" lon="-0.37814">
        <ele>36.5</ele>
      </trkpt>
      <trkpt lat="44.45195" lon="-0.37817">
        <ele>36.4</ele>
      </trkpt>
      <trkpt lat="44.45205" lon="-0.37818">
        <ele>36.3</ele>
      </trkpt>
      <trkpt lat="44.45245" lon="-0.37821">
        <ele>36</ele>
      </trkpt>
      <trkpt lat="44.45259" lon="-0.37822">
        <ele>35.9</ele>
      </trkpt>
      <trkpt lat="44.45274" lon="-0.37823">
        <ele>35.7</ele>
      </trkpt>
      <trkpt lat="44.4529" lon="-0.37823">
        <ele>35.6</ele>
      </trkpt>
      <trkpt lat="44.45338" lon="-0.37824">
        <ele>35.7</ele>
      </trkpt>
      <trkpt lat="44.4535" lon="-0.37819">
        <ele>35.5</ele>
      </trkpt>
      <trkpt lat="44.45352" lon="-0.37817">
        <ele>35.4</ele>
      </trkpt>
      <trkpt lat="44.45357" lon="-0.37808">
        <ele>35.1</ele>
      </trkpt>
      <trkpt lat="44.45369" lon="-0.37788">
        <ele>35</ele>
      </trkpt>
      <trkpt lat="44.45381" lon="-0.37772">
        <ele>34.9</ele>
      </trkpt>
      <trkpt lat="44.45393" lon="-0.37756">
        <ele>35</ele>
      </trkpt>
      <trkpt lat="44.45404" lon="-0.3774">
        <ele>34.8</ele>
      </trkpt>
      <trkpt lat="44.45412" lon="-0.37732">
        <ele>34.9</ele>
      </trkpt>
      <trkpt lat="44.4542" lon="-0.37724">
        <ele>35</ele>
      </trkpt>
      <trkpt lat="44.45428" lon="-0.37718">
        <ele>34.9</ele>
      </trkpt>
      <trkpt lat="44.45437" lon="-0.37712">
        <ele>34.6</ele>
      </trkpt>
      <trkpt lat="44.4544" lon="-0.37653">
        <ele>34</ele>
      </trkpt>
      <trkpt lat="44.45446" lon="-0.37568">
        <ele>33</ele>
      </trkpt>
      <trkpt lat="44.4545" lon="-0.3751">
        <ele>33</ele>
      </trkpt>
      <trkpt lat="44.45451" lon="-0.37491">
        <ele>33</ele>
      </trkpt>
      <trkpt lat="44.45451" lon="-0.37485">
        <ele>33</ele>
      </trkpt>
      <trkpt lat="44.45452" lon="-0.37472">
        <ele>33</ele>
      </trkpt>
      <trkpt lat="44.45455" lon="-0.374">
        <ele>33</ele>
      </trkpt>
      <trkpt lat="44.45455" lon="-0.37394">
        <ele>33</ele>
      </trkpt>
      <trkpt lat="44.45455" lon="-0.37389">
        <ele>33</ele>
      </trkpt>
      <trkpt lat="44.45464" lon="-0.37375">
        <ele>33</ele>
      </trkpt>
      <trkpt lat="44.45474" lon="-0.37364">
        <ele>33</ele>
      </trkpt>
      <trkpt lat="44.45487" lon="-0.37364">
        <ele>33</ele>
      </trkpt>
      <trkpt lat="44.45491" lon="-0.37364">
        <ele>33</ele>
      </trkpt>
      <trkpt lat="44.45496" lon="-0.37363">
        <ele>33</ele>
      </trkpt>
      <trkpt lat="44.45529" lon="-0.37348">
        <ele>33</ele>
      </trkpt>
      <trkpt lat="44.4558" lon="-0.37321">
        <ele>32.9</ele>
      </trkpt>
      <trkpt lat="44.45584" lon="-0.37318">
        <ele>33</ele>
      </trkpt>
      <trkpt lat="44.45602" lon="-0.37308">
        <ele>32.4</ele>
      </trkpt>
      <trkpt lat="44.45611" lon="-0.37303">
        <ele>32</ele>
      </trkpt>
      <trkpt lat="44.45615" lon="-0.373">
        <ele>32</ele>
      </trkpt>
      <trkpt lat="44.45629" lon="-0.37292">
        <ele>32</ele>
      </trkpt>
      <trkpt lat="44.45637" lon="-0.37287">
        <ele>32</ele>
      </trkpt>
      <trkpt lat="44.45642" lon="-0.37284">
        <ele>32</ele>
      </trkpt>
      <trkpt lat="44.4565" lon="-0.37279">
        <ele>32</ele>
      </trkpt>
      <trkpt lat="44.45655" lon="-0.37277">
        <ele>32</ele>
      </trkpt>
      <trkpt lat="44.4566" lon="-0.37276">
        <ele>32</ele>
      </trkpt>
      <trkpt lat="44.45664" lon="-0.37277">
        <ele>32</ele>
      </trkpt>
      <trkpt lat="44.45671" lon="-0.37277">
        <ele>32</ele>
      </trkpt>
      <trkpt lat="44.45677" lon="-0.37278">
        <ele>32</ele>
      </trkpt>
      <trkpt lat="44.45682" lon="-0.3728">
        <ele>32</ele>
      </trkpt>
      <trkpt lat="44.45686" lon="-0.37281">
        <ele>32</ele>
      </trkpt>
      <trkpt lat="44.4569" lon="-0.37282">
        <ele>32</ele>
      </trkpt>
      <trkpt lat="44.45698" lon="-0.37284">
        <ele>32</ele>
      </trkpt>
      <trkpt lat="44.45702" lon="-0.37285">
        <ele>31.9</ele>
      </trkpt>
      <trkpt lat="44.45705" lon="-0.37285">
        <ele>31.9</ele>
      </trkpt>
      <trkpt lat="44.45721" lon="-0.37283">
        <ele>31.8</ele>
      </trkpt>
      <trkpt lat="44.45731" lon="-0.3728">
        <ele>31.6</ele>
      </trkpt>
      <trkpt lat="44.45744" lon="-0.37277">
        <ele>31.2</ele>
      </trkpt>
      <trkpt lat="44.45746" lon="-0.37276">
        <ele>31.2</ele>
      </trkpt>
      <trkpt lat="44.45749" lon="-0.37275">
        <ele>31</ele>
      </trkpt>
      <trkpt lat="44.45789" lon="-0.37274">
        <ele>31</ele>
      </trkpt>
      <trkpt lat="44.45792" lon="-0.37275">
        <ele>31</ele>
      </trkpt>
      <trkpt lat="44.45793" lon="-0.37278">
        <ele>31</ele>
      </trkpt>
      <trkpt lat="44.45793" lon="-0.37282">
        <ele>30.9</ele>
      </trkpt>
      <trkpt lat="44.45794" lon="-0.37287">
        <ele>30.8</ele>
      </trkpt>
      <trkpt lat="44.45794" lon="-0.37291">
        <ele>30.7</ele>
      </trkpt>
      <trkpt lat="44.45801" lon="-0.37291">
        <ele>30.6</ele>
      </trkpt>
      <trkpt lat="44.45819" lon="-0.3729">
        <ele>30.6</ele>
      </trkpt>
      <trkpt lat="44.45831" lon="-0.37289">
        <ele>30.6</ele>
      </trkpt>
      <trkpt lat="44.45835" lon="-0.37289">
        <ele>30.6</ele>
      </trkpt>
      <trkpt lat="44.45854" lon="-0.37288">
        <ele>30.2</ele>
      </trkpt>
      <trkpt lat="44.45865" lon="-0.37287">
        <ele>30.1</ele>
      </trkpt>
      <trkpt lat="44.45872" lon="-0.37286">
        <ele>30.4</ele>
      </trkpt>
      <trkpt lat="44.45873" lon="-0.37291">
        <ele>30.4</ele>
      </trkpt>
      <trkpt lat="44.45874" lon="-0.37298">
        <ele>30.5</ele>
      </trkpt>
      <trkpt lat="44.45877" lon="-0.37304">
        <ele>30.6</ele>
      </trkpt>
      <trkpt lat="44.45881" lon="-0.37306">
        <ele>30.7</ele>
      </trkpt>
      <trkpt lat="44.45885" lon="-0.37307">
        <ele>30.8</ele>
      </trkpt>
      <trkpt lat="44.45887" lon="-0.37307">
        <ele>30.9</ele>
      </trkpt>
      <trkpt lat="44.4589" lon="-0.37307">
        <ele>31</ele>
      </trkpt>
      <trkpt lat="44.45894" lon="-0.37307">
        <ele>31.1</ele>
      </trkpt>
      <trkpt lat="44.45898" lon="-0.37306">
        <ele>31.3</ele>
      </trkpt>
      <trkpt lat="44.45935" lon="-0.37294">
        <ele>29.8</ele>
      </trkpt>
      <trkpt lat="44.45935" lon="-0.37292">
        <ele>29.8</ele>
      </trkpt>
      <trkpt lat="44.45935" lon="-0.3729">
        <ele>29.8</ele>
      </trkpt>
      <trkpt lat="44.45935" lon="-0.37287">
        <ele>29.9</ele>
      </trkpt>
      <trkpt lat="44.45932" lon="-0.37273">
        <ele>30</ele>
      </trkpt>
      <trkpt lat="44.45931" lon="-0.37269">
        <ele>30</ele>
      </trkpt>
      <trkpt lat="44.4593" lon="-0.37266">
        <ele>29.9</ele>
      </trkpt>
      <trkpt lat="44.45929" lon="-0.37259">
        <ele>29.7</ele>
      </trkpt>
      <trkpt lat="44.45928" lon="-0.37257">
        <ele>29.7</ele>
      </trkpt>
      <trkpt lat="44.45926" lon="-0.37248">
        <ele>29.7</ele>
      </trkpt>
      <trkpt lat="44.45909" lon="-0.37201">
        <ele>30.2</ele>
      </trkpt>
      <trkpt lat="44.45895" lon="-0.3717">
        <ele>30</ele>
      </trkpt>
      <trkpt lat="44.45893" lon="-0.37167">
        <ele>30</ele>
      </trkpt>
      <trkpt lat="44.45888" lon="-0.37161">
        <ele>30</ele>
      </trkpt>
      <trkpt lat="44.45887" lon="-0.37159">
        <ele>30</ele>
      </trkpt>
      <trkpt lat="44.45885" lon="-0.37156">
        <ele>30</ele>
      </trkpt>
      <trkpt lat="44.45884" lon="-0.37154">
        <ele>30</ele>
      </trkpt>
      <trkpt lat="44.45878" lon="-0.37141">
        <ele>30</ele>
      </trkpt>
      <trkpt lat="44.4587" lon="-0.37123">
        <ele>30</ele>
      </trkpt>
      <trkpt lat="44.45874" lon="-0.37056">
        <ele>31</ele>
      </trkpt>
      <trkpt lat="44.45876" lon="-0.37052">
        <ele>30.9</ele>
      </trkpt>
      <trkpt lat="44.45878" lon="-0.37047">
        <ele>30.8</ele>
      </trkpt>
      <trkpt lat="44.45904" lon="-0.37004">
        <ele>30.4</ele>
      </trkpt>
      <trkpt lat="44.4593" lon="-0.36963">
        <ele>29.4</ele>
      </trkpt>
      <trkpt lat="44.45932" lon="-0.36958">
        <ele>29.1</ele>
      </trkpt>
      <trkpt lat="44.45935" lon="-0.36955">
        <ele>29</ele>
      </trkpt>
      <trkpt lat="44.45939" lon="-0.36949">
        <ele>28.5</ele>
      </trkpt>
      <trkpt lat="44.45942" lon="-0.36946">
        <ele>28.2</ele>
      </trkpt>
      <trkpt lat="44.45947" lon="-0.36939">
        <ele>27.4</ele>
      </trkpt>
      <trkpt lat="44.45954" lon="-0.36931">
        <ele>26.2</ele>
      </trkpt>
      <trkpt lat="44.45957" lon="-0.36927">
        <ele>25.6</ele>
      </trkpt>
      <trkpt lat="44.4596" lon="-0.36924">
        <ele>25</ele>
      </trkpt>
      <trkpt lat="44.45963" lon="-0.36921">
        <ele>24.5</ele>
      </trkpt>
      <trkpt lat="44.45966" lon="-0.36917">
        <ele>23.7</ele>
      </trkpt>
      <trkpt lat="44.45973" lon="-0.3691">
        <ele>22.8</ele>
      </trkpt>
      <trkpt lat="44.45983" lon="-0.36899">
        <ele>23.7</ele>
      </trkpt>
      <trkpt lat="44.45988" lon="-0.36893">
        <ele>24.7</ele>
      </trkpt>
      <trkpt lat="44.45991" lon="-0.36889">
        <ele>25.4</ele>
      </trkpt>
      <trkpt lat="44.46003" lon="-0.36909">
        <ele>24.9</ele>
      </trkpt>
      <trkpt lat="44.46015" lon="-0.36928">
        <ele>23.7</ele>
      </trkpt>
      <trkpt lat="44.46031" lon="-0.36936">
        <ele>23.1</ele>
      </trkpt>
      <trkpt lat="44.46047" lon="-0.36944">
        <ele>24.1</ele>
      </trkpt>
      <trkpt lat="44.46066" lon="-0.36952">
        <ele>24</ele>
      </trkpt>
      <trkpt lat="44.46085" lon="-0.3696">
        <ele>23.4</ele>
      </trkpt>
      <trkpt lat="44.46113" lon="-0.3698">
        <ele>23.9</ele>
      </trkpt>
      <trkpt lat="44.46168" lon="-0.37019">
        <ele>23.6</ele>
      </trkpt>
      <trkpt lat="44.46194" lon="-0.37029">
        <ele>23.8</ele>
      </trkpt>
      <trkpt lat="44.46213" lon="-0.37019">
        <ele>23.5</ele>
      </trkpt>
      <trkpt lat="44.46232" lon="-0.3701">
        <ele>23.3</ele>
      </trkpt>
      <trkpt lat="44.46259" lon="-0.37002">
        <ele>24.1</ele>
      </trkpt>
      <trkpt lat="44.46285" lon="-0.3701">
        <ele>24.7</ele>
      </trkpt>
      <trkpt lat="44.46302" lon="-0.37024">
        <ele>25</ele>
      </trkpt>
      <trkpt lat="44.46319" lon="-0.37038">
        <ele>24.1</ele>
      </trkpt>
      <trkpt lat="44.46342" lon="-0.37056">
        <ele>23.9</ele>
      </trkpt>
      <trkpt lat="44.46374" lon="-0.3706">
        <ele>23.9</ele>
      </trkpt>
      <trkpt lat="44.46412" lon="-0.37066">
        <ele>24.4</ele>
      </trkpt>
      <trkpt lat="44.46447" lon="-0.37079">
        <ele>24.2</ele>
      </trkpt>
      <trkpt lat="44.46465" lon="-0.3709">
        <ele>23.7</ele>
      </trkpt>
      <trkpt lat="44.46482" lon="-0.37102">
        <ele>24.5</ele>
      </trkpt>
      <trkpt lat="44.46497" lon="-0.37115">
        <ele>24.6</ele>
      </trkpt>
      <trkpt lat="44.46513" lon="-0.37128">
        <ele>24.1</ele>
      </trkpt>
      <trkpt lat="44.46525" lon="-0.37144">
        <ele>23.8</ele>
      </trkpt>
      <trkpt lat="44.46537" lon="-0.3716">
        <ele>24.2</ele>
      </trkpt>
      <trkpt lat="44.46546" lon="-0.37182">
        <ele>23.5</ele>
      </trkpt>
      <trkpt lat="44.46555" lon="-0.37205">
        <ele>23.6</ele>
      </trkpt>
      <trkpt lat="44.46605" lon="-0.37321">
        <ele>23</ele>
      </trkpt>
      <trkpt lat="44.46626" lon="-0.37332">
        <ele>24.1</ele>
      </trkpt>
      <trkpt lat="44.46646" lon="-0.37344">
        <ele>23.8</ele>
      </trkpt>
      <trkpt lat="44.46667" lon="-0.37355">
        <ele>24.2</ele>
      </trkpt>
      <trkpt lat="44.46687" lon="-0.37365">
        <ele>23.9</ele>
      </trkpt>
      <trkpt lat="44.46692" lon="-0.37408">
        <ele>23.8</ele>
      </trkpt>
      <trkpt lat="44.467" lon="-0.37441">
        <ele>22.6</ele>
      </trkpt>
      <trkpt lat="44.46707" lon="-0.37473">
        <ele>22.8</ele>
      </trkpt>
      <trkpt lat="44.4672" lon="-0.37514">
        <ele>23</ele>
      </trkpt>
      <trkpt lat="44.46728" lon="-0.37549">
        <ele>22.8</ele>
      </trkpt>
      <trkpt lat="44.46732" lon="-0.37582">
        <ele>22.1</ele>
      </trkpt>
      <trkpt lat="44.46736" lon="-0.37615">
        <ele>22</ele>
      </trkpt>
      <trkpt lat="44.46737" lon="-0.37639">
        <ele>22.6</ele>
      </trkpt>
      <trkpt lat="44.46738" lon="-0.37663">
        <ele>22.3</ele>
      </trkpt>
      <trkpt lat="44.46741" lon="-0.3769">
        <ele>23</ele>
      </trkpt>
      <trkpt lat="44.46745" lon="-0.37717">
        <ele>23.6</ele>
      </trkpt>
      <trkpt lat="44.46751" lon="-0.37751">
        <ele>23.9</ele>
      </trkpt>
      <trkpt lat="44.46763" lon="-0.37774">
        <ele>23.1</ele>
      </trkpt>
      <trkpt lat="44.46772" lon="-0.37791">
        <ele>23.4</ele>
      </trkpt>
      <trkpt lat="44.4678" lon="-0.37811">
        <ele>23.8</ele>
      </trkpt>
      <trkpt lat="44.46788" lon="-0.37831">
        <ele>23.4</ele>
      </trkpt>
      <trkpt lat="44.46796" lon="-0.37863">
        <ele>22.7</ele>
      </trkpt>
      <trkpt lat="44.46805" lon="-0.37896">
        <ele>23.7</ele>
      </trkpt>
      <trkpt lat="44.46818" lon="-0.37928">
        <ele>22.5</ele>
      </trkpt>
      <trkpt lat="44.46836" lon="-0.37957">
        <ele>22.2</ele>
      </trkpt>
      <trkpt lat="44.46855" lon="-0.37985">
        <ele>22.5</ele>
      </trkpt>
      <trkpt lat="44.46872" lon="-0.38018">
        <ele>22.5</ele>
      </trkpt>
      <trkpt lat="44.46883" lon="-0.38042">
        <ele>22.8</ele>
      </trkpt>
      <trkpt lat="44.46902" lon="-0.38061">
        <ele>22.6</ele>
      </trkpt>
      <trkpt lat="44.46923" lon="-0.38076">
        <ele>23.2</ele>
      </trkpt>
      <trkpt lat="44.4694" lon="-0.38076">
        <ele>23.6</ele>
      </trkpt>
      <trkpt lat="44.46956" lon="-0.38077">
        <ele>23.1</ele>
      </trkpt>
      <trkpt lat="44.46987" lon="-0.38066">
        <ele>22.2</ele>
      </trkpt>
      <trkpt lat="44.47007" lon="-0.38057">
        <ele>22.7</ele>
      </trkpt>
      <trkpt lat="44.47027" lon="-0.38047">
        <ele>22.3</ele>
      </trkpt>
      <trkpt lat="44.47052" lon="-0.38045">
        <ele>22.4</ele>
      </trkpt>
      <trkpt lat="44.47083" lon="-0.38051">
        <ele>23</ele>
      </trkpt>
      <trkpt lat="44.47113" lon="-0.38062">
        <ele>22.1</ele>
      </trkpt>
      <trkpt lat="44.47125" lon="-0.38066">
        <ele>21.5</ele>
      </trkpt>
      <trkpt lat="44.47149" lon="-0.38075">
        <ele>21</ele>
      </trkpt>
      <trkpt lat="44.47161" lon="-0.3808">
        <ele>21.6</ele>
      </trkpt>
      <trkpt lat="44.47185" lon="-0.38089">
        <ele>22.1</ele>
      </trkpt>
      <trkpt lat="44.47209" lon="-0.38098">
        <ele>21.2</ele>
      </trkpt>
      <trkpt lat="44.47221" lon="-0.38103">
        <ele>20.9</ele>
      </trkpt>
      <trkpt lat="44.47234" lon="-0.38107">
        <ele>21.4</ele>
      </trkpt>
      <trkpt lat="44.47259" lon="-0.38116">
        <ele>22.1</ele>
      </trkpt>
      <trkpt lat="44.4731" lon="-0.38134">
        <ele>21.3</ele>
      </trkpt>
      <trkpt lat="44.47361" lon="-0.38145">
        <ele>22.3</ele>
      </trkpt>
      <trkpt lat="44.47373" lon="-0.38146">
        <ele>22.2</ele>
      </trkpt>
      <trkpt lat="44.47397" lon="-0.38148">
        <ele>22</ele>
      </trkpt>
      <trkpt lat="44.47409" lon="-0.38149">
        <ele>21.7</ele>
      </trkpt>
      <trkpt lat="44.47418" lon="-0.38146">
        <ele>22</ele>
      </trkpt>
      <trkpt lat="44.47427" lon="-0.38143">
        <ele>22.1</ele>
      </trkpt>
      <trkpt lat="44.47439" lon="-0.38139">
        <ele>22.2</ele>
      </trkpt>
      <trkpt lat="44.47473" lon="-0.38127">
        <ele>20.8</ele>
      </trkpt>
      <trkpt lat="44.47483" lon="-0.38124">
        <ele>20.9</ele>
      </trkpt>
      <trkpt lat="44.47504" lon="-0.38119">
        <ele>21.2</ele>
      </trkpt>
      <trkpt lat="44.47515" lon="-0.38121">
        <ele>21.2</ele>
      </trkpt>
      <trkpt lat="44.47527" lon="-0.38122">
        <ele>21.2</ele>
      </trkpt>
      <trkpt lat="44.47537" lon="-0.38124">
        <ele>20.9</ele>
      </trkpt>
      <trkpt lat="44.47548" lon="-0.38126">
        <ele>20.6</ele>
      </trkpt>
      <trkpt lat="44.47559" lon="-0.38122">
        <ele>20.9</ele>
      </trkpt>
      <trkpt lat="44.4757" lon="-0.38118">
        <ele>21.4</ele>
      </trkpt>
      <trkpt lat="44.47581" lon="-0.38108">
        <ele>22</ele>
      </trkpt>
      <trkpt lat="44.47592" lon="-0.38097">
        <ele>21.5</ele>
      </trkpt>
      <trkpt lat="44.47613" lon="-0.38052">
        <ele>21.9</ele>
      </trkpt>
      <trkpt lat="44.47624" lon="-0.38029">
        <ele>20.7</ele>
      </trkpt>
      <trkpt lat="44.47629" lon="-0.38018">
        <ele>20.5</ele>
      </trkpt>
      <trkpt lat="44.47632" lon="-0.38006">
        <ele>20.9</ele>
      </trkpt>
      <trkpt lat="44.47635" lon="-0.37995">
        <ele>21.3</ele>
      </trkpt>
      <trkpt lat="44.47639" lon="-0.37988">
        <ele>21.4</ele>
      </trkpt>
      <trkpt lat="44.47646" lon="-0.37985">
        <ele>21.3</ele>
      </trkpt>
      <trkpt lat="44.47653" lon="-0.37982">
        <ele>21.3</ele>
      </trkpt>
      <trkpt lat="44.47664" lon="-0.37988">
        <ele>20.4</ele>
      </trkpt>
      <trkpt lat="44.47675" lon="-0.37989">
        <ele>20.4</ele>
      </trkpt>
      <trkpt lat="44.47685" lon="-0.3799">
        <ele>20.5</ele>
      </trkpt>
      <trkpt lat="44.47697" lon="-0.3799">
        <ele>20.7</ele>
      </trkpt>
      <trkpt lat="44.47708" lon="-0.3799">
        <ele>20.7</ele>
      </trkpt>
      <trkpt lat="44.47719" lon="-0.37988">
        <ele>20.9</ele>
      </trkpt>
      <trkpt lat="44.4773" lon="-0.37985">
        <ele>20.9</ele>
      </trkpt>
      <trkpt lat="44.47743" lon="-0.37986">
        <ele>20.6</ele>
      </trkpt>
      <trkpt lat="44.47757" lon="-0.37987">
        <ele>20.7</ele>
      </trkpt>
      <trkpt lat="44.47769" lon="-0.37988">
        <ele>21.1</ele>
      </trkpt>
      <trkpt lat="44.47807" lon="-0.37992">
        <ele>21.3</ele>
      </trkpt>
      <trkpt lat="44.47856" lon="-0.37997">
        <ele>21.3</ele>
      </trkpt>
      <trkpt lat="44.47869" lon="-0.37997">
        <ele>20.9</ele>
      </trkpt>
      <trkpt lat="44.47929" lon="-0.37996">
        <ele>20.3</ele>
      </trkpt>
      <trkpt lat="44.47959" lon="-0.37994">
        <ele>20.7</ele>
      </trkpt>
      <trkpt lat="44.47972" lon="-0.37998">
        <ele>21</ele>
      </trkpt>
      <trkpt lat="44.48" lon="-0.38024">
        <ele>21</ele>
      </trkpt>
      <trkpt lat="44.48009" lon="-0.38033">
        <ele>20.7</ele>
      </trkpt>
      <trkpt lat="44.4802" lon="-0.38051">
        <ele>20.5</ele>
      </trkpt>
      <trkpt lat="44.48023" lon="-0.38065">
        <ele>20.5</ele>
      </trkpt>
      <trkpt lat="44.48026" lon="-0.38078">
        <ele>20.2</ele>
      </trkpt>
      <trkpt lat="44.48029" lon="-0.38086">
        <ele>20.1</ele>
      </trkpt>
      <trkpt lat="44.48037" lon="-0.38093">
        <ele>20.8</ele>
      </trkpt>
      <trkpt lat="44.48053" lon="-0.38108">
        <ele>21.1</ele>
      </trkpt>
      <trkpt lat="44.48056" lon="-0.38122">
        <ele>21.4</ele>
      </trkpt>
      <trkpt lat="44.48066" lon="-0.38132">
        <ele>21.5</ele>
      </trkpt>
      <trkpt lat="44.48076" lon="-0.38143">
        <ele>21.3</ele>
      </trkpt>
      <trkpt lat="44.48086" lon="-0.38154">
        <ele>21.5</ele>
      </trkpt>
      <trkpt lat="44.48096" lon="-0.38165">
        <ele>21.5</ele>
      </trkpt>
      <trkpt lat="44.48104" lon="-0.38172">
        <ele>21.3</ele>
      </trkpt>
      <trkpt lat="44.4812" lon="-0.38186">
        <ele>21.7</ele>
      </trkpt>
      <trkpt lat="44.48129" lon="-0.38189">
        <ele>21.8</ele>
      </trkpt>
      <trkpt lat="44.48137" lon="-0.38192">
        <ele>21.9</ele>
      </trkpt>
      <trkpt lat="44.48146" lon="-0.38195">
        <ele>21.9</ele>
      </trkpt>
      <trkpt lat="44.48154" lon="-0.38204">
        <ele>21.7</ele>
      </trkpt>
      <trkpt lat="44.48189" lon="-0.38239">
        <ele>21.3</ele>
      </trkpt>
      <trkpt lat="44.48198" lon="-0.38249">
        <ele>21.2</ele>
      </trkpt>
      <trkpt lat="44.48207" lon="-0.38258">
        <ele>21</ele>
      </trkpt>
      <trkpt lat="44.48228" lon="-0.3828">
        <ele>20.9</ele>
      </trkpt>
      <trkpt lat="44.48239" lon="-0.38291">
        <ele>20.6</ele>
      </trkpt>
      <trkpt lat="44.48249" lon="-0.38303">
        <ele>20.9</ele>
      </trkpt>
      <trkpt lat="44.4827" lon="-0.38325">
        <ele>20.8</ele>
      </trkpt>
      <trkpt lat="44.48281" lon="-0.38328">
        <ele>21</ele>
      </trkpt>
      <trkpt lat="44.48292" lon="-0.38331">
        <ele>21</ele>
      </trkpt>
      <trkpt lat="44.48311" lon="-0.38329">
        <ele>21</ele>
      </trkpt>
      <trkpt lat="44.48321" lon="-0.38328">
        <ele>21</ele>
      </trkpt>
      <trkpt lat="44.48342" lon="-0.38326">
        <ele>21.2</ele>
      </trkpt>
      <trkpt lat="44.48355" lon="-0.38326">
        <ele>21.6</ele>
      </trkpt>
      <trkpt lat="44.48365" lon="-0.38328">
        <ele>21.7</ele>
      </trkpt>
      <trkpt lat="44.48388" lon="-0.38336">
        <ele>21</ele>
      </trkpt>
      <trkpt lat="44.48399" lon="-0.38342">
        <ele>21</ele>
      </trkpt>
      <trkpt lat="44.4841" lon="-0.38348">
        <ele>21</ele>
      </trkpt>
      <trkpt lat="44.4842" lon="-0.38352">
        <ele>21</ele>
      </trkpt>
      <trkpt lat="44.48439" lon="-0.38361">
        <ele>21</ele>
      </trkpt>
      <trkpt lat="44.4845" lon="-0.38361">
        <ele>21</ele>
      </trkpt>
      <trkpt lat="44.4846" lon="-0.38362">
        <ele>21</ele>
      </trkpt>
      <trkpt lat="44.4847" lon="-0.38359">
        <ele>21</ele>
      </trkpt>
      <trkpt lat="44.48479" lon="-0.38356">
        <ele>20.6</ele>
      </trkpt>
      <trkpt lat="44.48488" lon="-0.38351">
        <ele>20.2</ele>
      </trkpt>
      <trkpt lat="44.48498" lon="-0.38347">
        <ele>20.1</ele>
      </trkpt>
      <trkpt lat="44.48509" lon="-0.3834">
        <ele>20.6</ele>
      </trkpt>
      <trkpt lat="44.48551" lon="-0.3832">
        <ele>20.1</ele>
      </trkpt>
      <trkpt lat="44.48558" lon="-0.38314">
        <ele>20.3</ele>
      </trkpt>
      <trkpt lat="44.48566" lon="-0.38309">
        <ele>20.2</ele>
      </trkpt>
      <trkpt lat="44.48573" lon="-0.38301">
        <ele>19.9</ele>
      </trkpt>
      <trkpt lat="44.4858" lon="-0.38293">
        <ele>20</ele>
      </trkpt>
      <trkpt lat="44.48592" lon="-0.38274">
        <ele>20.4</ele>
      </trkpt>
      <trkpt lat="44.48599" lon="-0.3826">
        <ele>19.9</ele>
      </trkpt>
      <trkpt lat="44.48606" lon="-0.38247">
        <ele>19.5</ele>
      </trkpt>
      <trkpt lat="44.48633" lon="-0.38201">
        <ele>20</ele>
      </trkpt>
      <trkpt lat="44.48647" lon="-0.38176">
        <ele>20.5</ele>
      </trkpt>
      <trkpt lat="44.48652" lon="-0.38168">
        <ele>20.5</ele>
      </trkpt>
      <trkpt lat="44.48662" lon="-0.38162">
        <ele>20.3</ele>
      </trkpt>
      <trkpt lat="44.48693" lon="-0.38145">
        <ele>20.6</ele>
      </trkpt>
      <trkpt lat="44.48703" lon="-0.38139">
        <ele>20.4</ele>
      </trkpt>
      <trkpt lat="44.48713" lon="-0.38134">
        <ele>19.9</ele>
      </trkpt>
      <trkpt lat="44.48723" lon="-0.38129">
        <ele>19.7</ele>
      </trkpt>
      <trkpt lat="44.48733" lon="-0.38119">
        <ele>20.3</ele>
      </trkpt>
      <trkpt lat="44.48754" lon="-0.381">
        <ele>20.3</ele>
      </trkpt>
      <trkpt lat="44.48764" lon="-0.38088">
        <ele>20</ele>
      </trkpt>
      <trkpt lat="44.48773" lon="-0.38077">
        <ele>19.5</ele>
      </trkpt>
      <trkpt lat="44.48783" lon="-0.38065">
        <ele>19.7</ele>
      </trkpt>
      <trkpt lat="44.48792" lon="-0.38054">
        <ele>19.6</ele>
      </trkpt>
      <trkpt lat="44.48803" lon="-0.38049">
        <ele>19.6</ele>
      </trkpt>
      <trkpt lat="44.48815" lon="-0.38044">
        <ele>19.7</ele>
      </trkpt>
      <trkpt lat="44.48846" lon="-0.38035">
        <ele>20.3</ele>
      </trkpt>
      <trkpt lat="44.48856" lon="-0.38033">
        <ele>20.6</ele>
      </trkpt>
      <trkpt lat="44.48892" lon="-0.38027">
        <ele>20</ele>
      </trkpt>
      <trkpt lat="44.48904" lon="-0.38025">
        <ele>20.1</ele>
      </trkpt>
      <trkpt lat="44.48928" lon="-0.3802">
        <ele>20</ele>
      </trkpt>
      <trkpt lat="44.4895" lon="-0.38015">
        <ele>19.8</ele>
      </trkpt>
      <trkpt lat="44.48961" lon="-0.38013">
        <ele>19.8</ele>
      </trkpt>
      <trkpt lat="44.48969" lon="-0.38007">
        <ele>20.3</ele>
      </trkpt>
      <trkpt lat="44.48977" lon="-0.38001">
        <ele>20.6</ele>
      </trkpt>
      <trkpt lat="44.48983" lon="-0.3799">
        <ele>20.4</ele>
      </trkpt>
      <trkpt lat="44.48995" lon="-0.37969">
        <ele>20.3</ele>
      </trkpt>
      <trkpt lat="44.49004" lon="-0.3794">
        <ele>20.5</ele>
      </trkpt>
      <trkpt lat="44.49009" lon="-0.37925">
        <ele>19.7</ele>
      </trkpt>
      <trkpt lat="44.49011" lon="-0.3791">
        <ele>19.2</ele>
      </trkpt>
      <trkpt lat="44.49014" lon="-0.37894">
        <ele>19</ele>
      </trkpt>
      <trkpt lat="44.49019" lon="-0.37863">
        <ele>19.3</ele>
      </trkpt>
      <trkpt lat="44.49023" lon="-0.37851">
        <ele>19.5</ele>
      </trkpt>
      <trkpt lat="44.49028" lon="-0.37839">
        <ele>19.8</ele>
      </trkpt>
      <trkpt lat="44.49036" lon="-0.37827">
        <ele>19.6</ele>
      </trkpt>
      <trkpt lat="44.49044" lon="-0.37816">
        <ele>19.5</ele>
      </trkpt>
      <trkpt lat="44.49052" lon="-0.37804">
        <ele>19.4</ele>
      </trkpt>
      <trkpt lat="44.49079" lon="-0.37743">
        <ele>20</ele>
      </trkpt>
      <trkpt lat="44.49093" lon="-0.37712">
        <ele>19.2</ele>
      </trkpt>
      <trkpt lat="44.491" lon="-0.37697">
        <ele>19</ele>
      </trkpt>
      <trkpt lat="44.49123" lon="-0.37683">
        <ele>20.1</ele>
      </trkpt>
      <trkpt lat="44.49134" lon="-0.37681">
        <ele>20.1</ele>
      </trkpt>
      <trkpt lat="44.49145" lon="-0.37679">
        <ele>20</ele>
      </trkpt>
      <trkpt lat="44.49157" lon="-0.37679">
        <ele>19.8</ele>
      </trkpt>
      <trkpt lat="44.49183" lon="-0.3768">
        <ele>19.8</ele>
      </trkpt>
      <trkpt lat="44.49192" lon="-0.37683">
        <ele>19.9</ele>
      </trkpt>
      <trkpt lat="44.49218" lon="-0.37682">
        <ele>20.8</ele>
      </trkpt>
      <trkpt lat="44.49238" lon="-0.3767">
        <ele>20.9</ele>
      </trkpt>
      <trkpt lat="44.49249" lon="-0.37664">
        <ele>20.9</ele>
      </trkpt>
      <trkpt lat="44.49259" lon="-0.3766">
        <ele>20.7</ele>
      </trkpt>
      <trkpt lat="44.4927" lon="-0.37655">
        <ele>20.6</ele>
      </trkpt>
      <trkpt lat="44.49292" lon="-0.37646">
        <ele>20</ele>
      </trkpt>
      <trkpt lat="44.49302" lon="-0.37641">
        <ele>19.9</ele>
      </trkpt>
      <trkpt lat="44.49312" lon="-0.37635">
        <ele>19.8</ele>
      </trkpt>
      <trkpt lat="44.49322" lon="-0.37629">
        <ele>19.8</ele>
      </trkpt>
      <trkpt lat="44.49355" lon="-0.37588">
        <ele>20.7</ele>
      </trkpt>
      <trkpt lat="44.4935" lon="-0.37576">
        <ele>20.5</ele>
      </trkpt>
      <trkpt lat="44.49345" lon="-0.37563">
        <ele>20.5</ele>
      </trkpt>
      <trkpt lat="44.4934" lon="-0.37555">
        <ele>20.7</ele>
      </trkpt>
      <trkpt lat="44.49335" lon="-0.37549">
        <ele>20.9</ele>
      </trkpt>
      <trkpt lat="44.49332" lon="-0.37543">
        <ele>21</ele>
      </trkpt>
      <trkpt lat="44.49327" lon="-0.37528">
        <ele>20.8</ele>
      </trkpt>
      <trkpt lat="44.49324" lon="-0.37517">
        <ele>20.9</ele>
      </trkpt>
      <trkpt lat="44.49323" lon="-0.37512">
        <ele>21.1</ele>
      </trkpt>
      <trkpt lat="44.49322" lon="-0.37507">
        <ele>21.2</ele>
      </trkpt>
      <trkpt lat="44.49322" lon="-0.37503">
        <ele>21.3</ele>
      </trkpt>
      <trkpt lat="44.49321" lon="-0.3749">
        <ele>22.3</ele>
      </trkpt>
      <trkpt lat="44.4932" lon="-0.37482">
        <ele>23.1</ele>
      </trkpt>
      <trkpt lat="44.49321" lon="-0.37471">
        <ele>24.1</ele>
      </trkpt>
      <trkpt lat="44.49324" lon="-0.37443">
        <ele>26.4</ele>
      </trkpt>
      <trkpt lat="44.49328" lon="-0.37415">
        <ele>27.3</ele>
      </trkpt>
      <trkpt lat="44.4933" lon="-0.37392">
        <ele>28.9</ele>
      </trkpt>
      <trkpt lat="44.49329" lon="-0.37372">
        <ele>29.7</ele>
      </trkpt>
      <trkpt lat="44.49323" lon="-0.37349">
        <ele>30.3</ele>
      </trkpt>
      <trkpt lat="44.49314" lon="-0.37324">
        <ele>30.5</ele>
      </trkpt>
      <trkpt lat="44.49303" lon="-0.37285">
        <ele>31</ele>
      </trkpt>
      <trkpt lat="44.49297" lon="-0.37262">
        <ele>31</ele>
      </trkpt>
      <trkpt lat="44.49327" lon="-0.37251">
        <ele>31</ele>
      </trkpt>
      <trkpt lat="44.4933" lon="-0.37252">
        <ele>31</ele>
      </trkpt>
      <trkpt lat="44.49335" lon="-0.37257">
        <ele>30.9</ele>
      </trkpt>
      <trkpt lat="44.4934" lon="-0.37266">
        <ele>30.8</ele>
      </trkpt>
      <trkpt lat="44.49349" lon="-0.37273">
        <ele>30.4</ele>
      </trkpt>
      <trkpt lat="44.49373" lon="-0.37265">
        <ele>29.8</ele>
      </trkpt>
      <trkpt lat="44.49398" lon="-0.37258">
        <ele>29.5</ele>
      </trkpt>
      <trkpt lat="44.49428" lon="-0.3725">
        <ele>30</ele>
      </trkpt>
      <trkpt lat="44.49478" lon="-0.37235">
        <ele>30.9</ele>
      </trkpt>
      <trkpt lat="44.49483" lon="-0.37231">
        <ele>30.9</ele>
      </trkpt>
      <trkpt lat="44.49485" lon="-0.37225">
        <ele>30.9</ele>
      </trkpt>
      <trkpt lat="44.49483" lon="-0.37217">
        <ele>31</ele>
      </trkpt>
      <trkpt lat="44.49479" lon="-0.372">
        <ele>31</ele>
      </trkpt>
      <trkpt lat="44.49477" lon="-0.37189">
        <ele>31.2</ele>
      </trkpt>
      <trkpt lat="44.49478" lon="-0.37182">
        <ele>31.4</ele>
      </trkpt>
      <trkpt lat="44.4948" lon="-0.37178">
        <ele>31.4</ele>
      </trkpt>
      <trkpt lat="44.49482" lon="-0.37175">
        <ele>31.4</ele>
      </trkpt>
      <trkpt lat="44.49519" lon="-0.37149">
        <ele>31.6</ele>
      </trkpt>
      <trkpt lat="44.49556" lon="-0.37128">
        <ele>32</ele>
      </trkpt>
      <trkpt lat="44.49583" lon="-0.37113">
        <ele>31.9</ele>
      </trkpt>
      <trkpt lat="44.49583" lon="-0.37075">
        <ele>32</ele>
      </trkpt>
      <trkpt lat="44.49586" lon="-0.37056">
        <ele>32</ele>
      </trkpt>
      <trkpt lat="44.49617" lon="-0.37033">
        <ele>32</ele>
      </trkpt>
      <trkpt lat="44.49644" lon="-0.37015">
        <ele>32.4</ele>
      </trkpt>
      <trkpt lat="44.49644" lon="-0.36994">
        <ele>32.8</ele>
      </trkpt>
      <trkpt lat="44.49679" lon="-0.36969">
        <ele>32.1</ele>
      </trkpt>
      <trkpt lat="44.49701" lon="-0.36946">
        <ele>32</ele>
      </trkpt>
      <trkpt lat="44.49736" lon="-0.3695">
        <ele>32</ele>
      </trkpt>
      <trkpt lat="44.49744" lon="-0.36976">
        <ele>31.9</ele>
      </trkpt>
      <trkpt lat="44.49765" lon="-0.37057">
        <ele>30.4</ele>
      </trkpt>
      <trkpt lat="44.49778" lon="-0.37098">
        <ele>30</ele>
      </trkpt>
      <trkpt lat="44.49778" lon="-0.37101">
        <ele>30</ele>
      </trkpt>
      <trkpt lat="44.49793" lon="-0.37147">
        <ele>29.5</ele>
      </trkpt>
      <trkpt lat="44.49802" lon="-0.37168">
        <ele>29.1</ele>
      </trkpt>
      <trkpt lat="44.49817" lon="-0.372">
        <ele>28.8</ele>
      </trkpt>
      <trkpt lat="44.4982" lon="-0.372">
        <ele>28.8</ele>
      </trkpt>
      <trkpt lat="44.49826" lon="-0.37199">
        <ele>28.8</ele>
      </trkpt>
      <trkpt lat="44.49834" lon="-0.37192">
        <ele>29</ele>
      </trkpt>
      <trkpt lat="44.49848" lon="-0.37181">
        <ele>28.5</ele>
      </trkpt>
      <trkpt lat="44.49854" lon="-0.37177">
        <ele>28.3</ele>
      </trkpt>
      <trkpt lat="44.4986" lon="-0.37172">
        <ele>28</ele>
      </trkpt>
      <trkpt lat="44.49869" lon="-0.37166">
        <ele>27.7</ele>
      </trkpt>
      <trkpt lat="44.49887" lon="-0.3716">
        <ele>27.3</ele>
      </trkpt>
      <trkpt lat="44.49906" lon="-0.37155">
        <ele>27.8</ele>
      </trkpt>
      <trkpt lat="44.49919" lon="-0.37153">
        <ele>28.1</ele>
      </trkpt>
      <trkpt lat="44.49931" lon="-0.3715">
        <ele>28.5</ele>
      </trkpt>
      <trkpt lat="44.49947" lon="-0.37145">
        <ele>28.9</ele>
      </trkpt>
      <trkpt lat="44.49956" lon="-0.37133">
        <ele>28.7</ele>
      </trkpt>
      <trkpt lat="44.49959" lon="-0.37116">
        <ele>28.9</ele>
      </trkpt>
      <trkpt lat="44.4996" lon="-0.37088">
        <ele>29</ele>
      </trkpt>
      <trkpt lat="44.49961" lon="-0.37063">
        <ele>29</ele>
      </trkpt>
      <trkpt lat="44.49965" lon="-0.37048">
        <ele>29</ele>
      </trkpt>
      <trkpt lat="44.49972" lon="-0.37034">
        <ele>29</ele>
      </trkpt>
      <trkpt lat="44.49987" lon="-0.37031">
        <ele>29</ele>
      </trkpt>
      <trkpt lat="44.50017" lon="-0.37032">
        <ele>29</ele>
      </trkpt>
      <trkpt lat="44.50042" lon="-0.37031">
        <ele>29.5</ele>
      </trkpt>
      <trkpt lat="44.50079" lon="-0.37025">
        <ele>29.2</ele>
      </trkpt>
      <trkpt lat="44.50107" lon="-0.37017">
        <ele>29.1</ele>
      </trkpt>
      <trkpt lat="44.50114" lon="-0.37012">
        <ele>29</ele>
      </trkpt>
      <trkpt lat="44.50118" lon="-0.37">
        <ele>29</ele>
      </trkpt>
      <trkpt lat="44.5011" lon="-0.36868">
        <ele>31</ele>
      </trkpt>
      <trkpt lat="44.50111" lon="-0.36859">
        <ele>31.1</ele>
      </trkpt>
      <trkpt lat="44.50114" lon="-0.36853">
        <ele>31.3</ele>
      </trkpt>
      <trkpt lat="44.50118" lon="-0.36849">
        <ele>31.4</ele>
      </trkpt>
      <trkpt lat="44.50149" lon="-0.36843">
        <ele>31.7</ele>
      </trkpt>
      <trkpt lat="44.50159" lon="-0.36839">
        <ele>31.8</ele>
      </trkpt>
      <trkpt lat="44.50163" lon="-0.36816">
        <ele>32.6</ele>
      </trkpt>
      <trkpt lat="44.50175" lon="-0.36791">
        <ele>32.9</ele>
      </trkpt>
      <trkpt lat="44.50181" lon="-0.36794">
        <ele>32.7</ele>
      </trkpt>
      <trkpt lat="44.50187" lon="-0.36797">
        <ele>32.5</ele>
      </trkpt>
      <trkpt lat="44.50205" lon="-0.36808">
        <ele>32</ele>
      </trkpt>
      <trkpt lat="44.50223" lon="-0.36815">
        <ele>31.7</ele>
      </trkpt>
      <trkpt lat="44.50239" lon="-0.36821">
        <ele>31.8</ele>
      </trkpt>
      <trkpt lat="44.50241" lon="-0.36821">
        <ele>31.8</ele>
      </trkpt>
      <trkpt lat="44.50272" lon="-0.3683">
        <ele>32</ele>
      </trkpt>
      <trkpt lat="44.50291" lon="-0.36834">
        <ele>32</ele>
      </trkpt>
      <trkpt lat="44.50304" lon="-0.36835">
        <ele>31.9</ele>
      </trkpt>
      <trkpt lat="44.50314" lon="-0.36834">
        <ele>32</ele>
      </trkpt>
      <trkpt lat="44.50328" lon="-0.36832">
        <ele>32</ele>
      </trkpt>
      <trkpt lat="44.50326" lon="-0.36811">
        <ele>32.6</ele>
      </trkpt>
      <trkpt lat="44.50323" lon="-0.36765">
        <ele>33.2</ele>
      </trkpt>
      <trkpt lat="44.5032" lon="-0.36702">
        <ele>34.9</ele>
      </trkpt>
      <trkpt lat="44.5032" lon="-0.36683">
        <ele>35.4</ele>
      </trkpt>
      <trkpt lat="44.50322" lon="-0.36658">
        <ele>36.3</ele>
      </trkpt>
      <trkpt lat="44.50325" lon="-0.36631">
        <ele>37</ele>
      </trkpt>
      <trkpt lat="44.50328" lon="-0.36616">
        <ele>37</ele>
      </trkpt>
      <trkpt lat="44.50334" lon="-0.36592">
        <ele>37</ele>
      </trkpt>
      <trkpt lat="44.50341" lon="-0.36568">
        <ele>37</ele>
      </trkpt>
      <trkpt lat="44.50357" lon="-0.36531">
        <ele>37</ele>
      </trkpt>
      <trkpt lat="44.50364" lon="-0.36511">
        <ele>37.5</ele>
      </trkpt>
      <trkpt lat="44.50368" lon="-0.36495">
        <ele>37.8</ele>
      </trkpt>
      <trkpt lat="44.50374" lon="-0.36457">
        <ele>38</ele>
      </trkpt>
      <trkpt lat="44.50379" lon="-0.3642">
        <ele>38.9</ele>
      </trkpt>
      <trkpt lat="44.50385" lon="-0.36383">
        <ele>39</ele>
      </trkpt>
      <trkpt lat="44.5039" lon="-0.36358">
        <ele>39.1</ele>
      </trkpt>
      <trkpt lat="44.50391" lon="-0.36356">
        <ele>39.3</ele>
      </trkpt>
      <trkpt lat="44.50398" lon="-0.3634">
        <ele>40.1</ele>
      </trkpt>
      <trkpt lat="44.50404" lon="-0.36329">
        <ele>40.7</ele>
      </trkpt>
      <trkpt lat="44.50411" lon="-0.3632">
        <ele>41.3</ele>
      </trkpt>
      <trkpt lat="44.50416" lon="-0.36311">
        <ele>41.8</ele>
      </trkpt>
      <trkpt lat="44.50417" lon="-0.36303">
        <ele>42</ele>
      </trkpt>
      <trkpt lat="44.50417" lon="-0.36296">
        <ele>42</ele>
      </trkpt>
      <trkpt lat="44.50416" lon="-0.36284">
        <ele>42</ele>
      </trkpt>
      <trkpt lat="44.50412" lon="-0.36271">
        <ele>41.9</ele>
      </trkpt>
      <trkpt lat="44.50399" lon="-0.36238">
        <ele>42.4</ele>
      </trkpt>
      <trkpt lat="44.50384" lon="-0.36218">
        <ele>42.8</ele>
      </trkpt>
      <trkpt lat="44.50375" lon="-0.3621">
        <ele>42.7</ele>
      </trkpt>
      <trkpt lat="44.5037" lon="-0.36186">
        <ele>43.3</ele>
      </trkpt>
      <trkpt lat="44.50365" lon="-0.36133">
        <ele>44.2</ele>
      </trkpt>
      <trkpt lat="44.50366" lon="-0.3611">
        <ele>45</ele>
      </trkpt>
      <trkpt lat="44.50366" lon="-0.36095">
        <ele>45</ele>
      </trkpt>
      <trkpt lat="44.50366" lon="-0.3608">
        <ele>45.1</ele>
      </trkpt>
      <trkpt lat="44.50363" lon="-0.36055">
        <ele>45.9</ele>
      </trkpt>
      <trkpt lat="44.50361" lon="-0.36025">
        <ele>46</ele>
      </trkpt>
      <trkpt lat="44.5036" lon="-0.35978">
        <ele>46</ele>
      </trkpt>
      <trkpt lat="44.50359" lon="-0.3594">
        <ele>46.2</ele>
      </trkpt>
      <trkpt lat="44.50359" lon="-0.35919">
        <ele>46.9</ele>
      </trkpt>
      <trkpt lat="44.50361" lon="-0.35881">
        <ele>47</ele>
      </trkpt>
      <trkpt lat="44.50365" lon="-0.35839">
        <ele>47</ele>
      </trkpt>
      <trkpt lat="44.50369" lon="-0.35807">
        <ele>47</ele>
      </trkpt>
      <trkpt lat="44.50372" lon="-0.35773">
        <ele>47.1</ele>
      </trkpt>
      <trkpt lat="44.50377" lon="-0.35714">
        <ele>48.1</ele>
      </trkpt>
      <trkpt lat="44.50377" lon="-0.35693">
        <ele>48.4</ele>
      </trkpt>
      <trkpt lat="44.50376" lon="-0.35679">
        <ele>48.5</ele>
      </trkpt>
      <trkpt lat="44.50375" lon="-0.35666">
        <ele>48.5</ele>
      </trkpt>
      <trkpt lat="44.50369" lon="-0.35633">
        <ele>48.7</ele>
      </trkpt>
      <trkpt lat="44.50366" lon="-0.35609">
        <ele>48.8</ele>
      </trkpt>
      <trkpt lat="44.50363" lon="-0.35583">
        <ele>49</ele>
      </trkpt>
      <trkpt lat="44.50359" lon="-0.35549">
        <ele>49.1</ele>
      </trkpt>
      <trkpt lat="44.50353" lon="-0.35491">
        <ele>49.3</ele>
      </trkpt>
      <trkpt lat="44.50347" lon="-0.3546">
        <ele>49.5</ele>
      </trkpt>
      <trkpt lat="44.50344" lon="-0.3544">
        <ele>49.8</ele>
      </trkpt>
      <trkpt lat="44.50344" lon="-0.35433">
        <ele>50</ele>
      </trkpt>
      <trkpt lat="44.50344" lon="-0.35427">
        <ele>50.2</ele>
      </trkpt>
      <trkpt lat="44.50347" lon="-0.35421">
        <ele>50.4</ele>
      </trkpt>
      <trkpt lat="44.5035" lon="-0.35416">
        <ele>50.4</ele>
      </trkpt>
      <trkpt lat="44.50355" lon="-0.35412">
        <ele>50.2</ele>
      </trkpt>
      <trkpt lat="44.50369" lon="-0.35401">
        <ele>49.9</ele>
      </trkpt>
      <trkpt lat="44.50398" lon="-0.35385">
        <ele>49.7</ele>
      </trkpt>
      <trkpt lat="44.5042" lon="-0.35378">
        <ele>49</ele>
      </trkpt>
      <trkpt lat="44.50444" lon="-0.35372">
        <ele>49</ele>
      </trkpt>
      <trkpt lat="44.50456" lon="-0.35369">
        <ele>48.6</ele>
      </trkpt>
      <trkpt lat="44.50464" lon="-0.35365">
        <ele>48.3</ele>
      </trkpt>
      <trkpt lat="44.50475" lon="-0.3536">
        <ele>48</ele>
      </trkpt>
      <trkpt lat="44.50511" lon="-0.35338">
        <ele>47</ele>
      </trkpt>
      <trkpt lat="44.50533" lon="-0.35324">
        <ele>46.8</ele>
      </trkpt>
      <trkpt lat="44.50551" lon="-0.35312">
        <ele>46.2</ele>
      </trkpt>
      <trkpt lat="44.50572" lon="-0.35302">
        <ele>46.1</ele>
      </trkpt>
      <trkpt lat="44.50586" lon="-0.35341">
        <ele>45.9</ele>
      </trkpt>
      <trkpt lat="44.50609" lon="-0.35402">
        <ele>45.1</ele>
      </trkpt>
      <trkpt lat="44.50613" lon="-0.35414">
        <ele>44.9</ele>
      </trkpt>
      <trkpt lat="44.50617" lon="-0.35426">
        <ele>44.8</ele>
      </trkpt>
      <trkpt lat="44.50622" lon="-0.35443">
        <ele>44.6</ele>
      </trkpt>
      <trkpt lat="44.50624" lon="-0.35452">
        <ele>44.5</ele>
      </trkpt>
      <trkpt lat="44.50627" lon="-0.35462">
        <ele>44.4</ele>
      </trkpt>
      <trkpt lat="44.50629" lon="-0.35469">
        <ele>44.4</ele>
      </trkpt>
      <trkpt lat="44.5063" lon="-0.35478">
        <ele>44.3</ele>
      </trkpt>
      <trkpt lat="44.50635" lon="-0.35501">
        <ele>44.1</ele>
      </trkpt>
      <trkpt lat="44.50639" lon="-0.35524">
        <ele>43.1</ele>
      </trkpt>
      <trkpt lat="44.50664" lon="-0.35504">
        <ele>43.1</ele>
      </trkpt>
      <trkpt lat="44.50682" lon="-0.35494">
        <ele>43.1</ele>
      </trkpt>
      <trkpt lat="44.50696" lon="-0.35491">
        <ele>42.9</ele>
      </trkpt>
      <trkpt lat="44.5071" lon="-0.35495">
        <ele>42.5</ele>
      </trkpt>
      <trkpt lat="44.50728" lon="-0.35506">
        <ele>42</ele>
      </trkpt>
      <trkpt lat="44.50796" lon="-0.35565">
        <ele>41.2</ele>
      </trkpt>
      <trkpt lat="44.50833" lon="-0.35597">
        <ele>40</ele>
      </trkpt>
      <trkpt lat="44.50894" lon="-0.35641">
        <ele>38.1</ele>
      </trkpt>
      <trkpt lat="44.50914" lon="-0.35649">
        <ele>38</ele>
      </trkpt>
      <trkpt lat="44.50946" lon="-0.35658">
        <ele>37</ele>
      </trkpt>
      <trkpt lat="44.50965" lon="-0.35669">
        <ele>36.3</ele>
      </trkpt>
      <trkpt lat="44.50981" lon="-0.35677">
        <ele>35.8</ele>
      </trkpt>
      <trkpt lat="44.50996" lon="-0.3568">
        <ele>35.5</ele>
      </trkpt>
      <trkpt lat="44.51015" lon="-0.35681">
        <ele>34.2</ele>
      </trkpt>
      <trkpt lat="44.51025" lon="-0.35706">
        <ele>33.3</ele>
      </trkpt>
      <trkpt lat="44.51034" lon="-0.35733">
        <ele>32.5</ele>
      </trkpt>
      <trkpt lat="44.51053" lon="-0.35787">
        <ele>31.1</ele>
      </trkpt>
      <trkpt lat="44.51063" lon="-0.35828">
        <ele>31</ele>
      </trkpt>
      <trkpt lat="44.51072" lon="-0.35873">
        <ele>32</ele>
      </trkpt>
      <trkpt lat="44.51073" lon="-0.35886">
        <ele>32.4</ele>
      </trkpt>
      <trkpt lat="44.51073" lon="-0.35892">
        <ele>32.6</ele>
      </trkpt>
      <trkpt lat="44.51073" lon="-0.35897">
        <ele>32.7</ele>
      </trkpt>
      <trkpt lat="44.51073" lon="-0.35908">
        <ele>32.9</ele>
      </trkpt>
      <trkpt lat="44.51073" lon="-0.35914">
        <ele>33</ele>
      </trkpt>
      <trkpt lat="44.51072" lon="-0.35923">
        <ele>33.1</ele>
      </trkpt>
      <trkpt lat="44.51068" lon="-0.35954">
        <ele>33.7</ele>
      </trkpt>
      <trkpt lat="44.51079" lon="-0.35958">
        <ele>35.7</ele>
      </trkpt>
      <trkpt lat="44.51093" lon="-0.35944">
        <ele>37.3</ele>
      </trkpt>
      <trkpt lat="44.51095" lon="-0.35942">
        <ele>37.6</ele>
      </trkpt>
      <trkpt lat="44.511" lon="-0.3594">
        <ele>38.4</ele>
      </trkpt>
      <trkpt lat="44.51103" lon="-0.35939">
        <ele>38.8</ele>
      </trkpt>
      <trkpt lat="44.51105" lon="-0.35938">
        <ele>39.1</ele>
      </trkpt>
      <trkpt lat="44.51108" lon="-0.35937">
        <ele>39.5</ele>
      </trkpt>
      <trkpt lat="44.51111" lon="-0.35937">
        <ele>39.9</ele>
      </trkpt>
      <trkpt lat="44.51118" lon="-0.35938">
        <ele>40.6</ele>
      </trkpt>
      <trkpt lat="44.51122" lon="-0.35939">
        <ele>41.1</ele>
      </trkpt>
      <trkpt lat="44.51122" lon="-0.35952">
        <ele>41.4</ele>
      </trkpt>
      <trkpt lat="44.51122" lon="-0.35963">
        <ele>41.8</ele>
      </trkpt>
      <trkpt lat="44.51122" lon="-0.35969">
        <ele>42</ele>
      </trkpt>
      <trkpt lat="44.51122" lon="-0.35974">
        <ele>42.2</ele>
      </trkpt>
      <trkpt lat="44.51123" lon="-0.35978">
        <ele>42.3</ele>
      </trkpt>
      <trkpt lat="44.51124" lon="-0.35984">
        <ele>42.4</ele>
      </trkpt>
      <trkpt lat="44.51125" lon="-0.35988">
        <ele>42.5</ele>
      </trkpt>
      <trkpt lat="44.51127" lon="-0.35993">
        <ele>42.7</ele>
      </trkpt>
      <trkpt lat="44.51131" lon="-0.36002">
        <ele>43.2</ele>
      </trkpt>
      <trkpt lat="44.51136" lon="-0.36014">
        <ele>43.8</ele>
      </trkpt>
      <trkpt lat="44.51138" lon="-0.36019">
        <ele>43.9</ele>
      </trkpt>
      <trkpt lat="44.5114" lon="-0.36024">
        <ele>44.1</ele>
      </trkpt>
      <trkpt lat="44.51141" lon="-0.36029">
        <ele>44.1</ele>
      </trkpt>
      <trkpt lat="44.51142" lon="-0.36034">
        <ele>44.2</ele>
      </trkpt>
      <trkpt lat="44.51142" lon="-0.36039">
        <ele>44.2</ele>
      </trkpt>
      <trkpt lat="44.51145" lon="-0.36068">
        <ele>44.5</ele>
      </trkpt>
      <trkpt lat="44.51177" lon="-0.36058">
        <ele>46.8</ele>
      </trkpt>
      <trkpt lat="44.51231" lon="-0.36044">
        <ele>49.7</ele>
      </trkpt>
      <trkpt lat="44.51235" lon="-0.36046">
        <ele>49.9</ele>
      </trkpt>
      <trkpt lat="44.51237" lon="-0.36048">
        <ele>50.1</ele>
      </trkpt>
      <trkpt lat="44.51239" lon="-0.36049">
        <ele>50.2</ele>
      </trkpt>
      <trkpt lat="44.51243" lon="-0.36054">
        <ele>50.5</ele>
      </trkpt>
      <trkpt lat="44.51247" lon="-0.36062">
        <ele>50.6</ele>
      </trkpt>
      <trkpt lat="44.51252" lon="-0.36074">
        <ele>50.4</ele>
      </trkpt>
      <trkpt lat="44.51254" lon="-0.3608">
        <ele>50.4</ele>
      </trkpt>
      <trkpt lat="44.51256" lon="-0.36084">
        <ele>50.5</ele>
      </trkpt>
      <trkpt lat="44.51266" lon="-0.36077">
        <ele>51.2</ele>
      </trkpt>
      <trkpt lat="44.51304" lon="-0.36055">
        <ele>53</ele>
      </trkpt>
      <trkpt lat="44.51348" lon="-0.36029">
        <ele>57</ele>
      </trkpt>
      <trkpt lat="44.5137" lon="-0.36016">
        <ele>59.3</ele>
      </trkpt>
      <trkpt lat="44.5139" lon="-0.36005">
        <ele>62</ele>
      </trkpt>
      <trkpt lat="44.51442" lon="-0.35978">
        <ele>66.9</ele>
      </trkpt>
      <trkpt lat="44.51444" lon="-0.35978">
        <ele>67</ele>
      </trkpt>
      <trkpt lat="44.51445" lon="-0.35978">
        <ele>66.9</ele>
      </trkpt>
      <trkpt lat="44.51446" lon="-0.35979">
        <ele>66.8</ele>
      </trkpt>
      <trkpt lat="44.51447" lon="-0.35982">
        <ele>66.7</ele>
      </trkpt>
      <trkpt lat="44.51449" lon="-0.35988">
        <ele>66.5</ele>
      </trkpt>
      <trkpt lat="44.51459" lon="-0.36034">
        <ele>65.3</ele>
      </trkpt>
      <trkpt lat="44.51459" lon="-0.36038">
        <ele>65.1</ele>
      </trkpt>
      <trkpt lat="44.51459" lon="-0.36041">
        <ele>65</ele>
      </trkpt>
      <trkpt lat="44.51459" lon="-0.36045">
        <ele>64.9</ele>
      </trkpt>
      <trkpt lat="44.51461" lon="-0.36069">
        <ele>64</ele>
      </trkpt>
      <trkpt lat="44.51485" lon="-0.36138">
        <ele>61.1</ele>
      </trkpt>
      <trkpt lat="44.51506" lon="-0.36123">
        <ele>61.2</ele>
      </trkpt>
      <trkpt lat="44.51512" lon="-0.36119">
        <ele>60.9</ele>
      </trkpt>
      <trkpt lat="44.51516" lon="-0.36117">
        <ele>60.8</ele>
      </trkpt>
      <trkpt lat="44.5152" lon="-0.36116">
        <ele>60.5</ele>
      </trkpt>
      <trkpt lat="44.51523" lon="-0.36116">
        <ele>60.3</ele>
      </trkpt>
      <trkpt lat="44.51524" lon="-0.36117">
        <ele>60.2</ele>
      </trkpt>
      <trkpt lat="44.51526" lon="-0.36119">
        <ele>60.1</ele>
      </trkpt>
      <trkpt lat="44.51537" lon="-0.36153">
        <ele>59.1</ele>
      </trkpt>
      <trkpt lat="44.51546" lon="-0.36182">
        <ele>58.5</ele>
      </trkpt>
      <trkpt lat="44.5155" lon="-0.36199">
        <ele>58.1</ele>
      </trkpt>
      <trkpt lat="44.51551" lon="-0.36204">
        <ele>57.8</ele>
      </trkpt>
      <trkpt lat="44.51551" lon="-0.36209">
        <ele>57.6</ele>
      </trkpt>
      <trkpt lat="44.51551" lon="-0.36215">
        <ele>57.4</ele>
      </trkpt>
      <trkpt lat="44.51551" lon="-0.36221">
        <ele>57.2</ele>
      </trkpt>
      <trkpt lat="44.51551" lon="-0.36233">
        <ele>57.1</ele>
      </trkpt>
      <trkpt lat="44.51549" lon="-0.36245">
        <ele>57</ele>
      </trkpt>
      <trkpt lat="44.51547" lon="-0.36258">
        <ele>56.5</ele>
      </trkpt>
      <trkpt lat="44.51544" lon="-0.36271">
        <ele>55.8</ele>
      </trkpt>
      <trkpt lat="44.5154" lon="-0.36284">
        <ele>55.2</ele>
      </trkpt>
      <trkpt lat="44.51538" lon="-0.36288">
        <ele>55</ele>
      </trkpt>
      <trkpt lat="44.51536" lon="-0.36291">
        <ele>54.9</ele>
      </trkpt>
      <trkpt lat="44.51534" lon="-0.36294">
        <ele>54.8</ele>
      </trkpt>
      <trkpt lat="44.5153" lon="-0.36296">
        <ele>54.6</ele>
      </trkpt>
      <trkpt lat="44.51521" lon="-0.36303">
        <ele>54</ele>
      </trkpt>
      <trkpt lat="44.51507" lon="-0.36311">
        <ele>53</ele>
      </trkpt>
      <trkpt lat="44.51491" lon="-0.36319">
        <ele>51.5</ele>
      </trkpt>
      <trkpt lat="44.51485" lon="-0.36323">
        <ele>51</ele>
      </trkpt>
      <trkpt lat="44.51474" lon="-0.36328">
        <ele>50.3</ele>
      </trkpt>
      <trkpt lat="44.51462" lon="-0.36334">
        <ele>49.2</ele>
      </trkpt>
      <trkpt lat="44.51455" lon="-0.36338">
        <ele>48.5</ele>
      </trkpt>
      <trkpt lat="44.51443" lon="-0.36346">
        <ele>47.5</ele>
      </trkpt>
      <trkpt lat="44.51435" lon="-0.36353">
        <ele>46.9</ele>
      </trkpt>
      <trkpt lat="44.51428" lon="-0.36359">
        <ele>46.5</ele>
      </trkpt>
      <trkpt lat="44.51422" lon="-0.36362">
        <ele>46.2</ele>
      </trkpt>
      <trkpt lat="44.51419" lon="-0.36363">
        <ele>46</ele>
      </trkpt>
      <trkpt lat="44.51411" lon="-0.36366">
        <ele>45.4</ele>
      </trkpt>
      <trkpt lat="44.51408" lon="-0.36367">
        <ele>45.2</ele>
      </trkpt>
      <trkpt lat="44.51403" lon="-0.36369">
        <ele>44.7</ele>
      </trkpt>
      <trkpt lat="44.51395" lon="-0.36371">
        <ele>44.1</ele>
      </trkpt>
      <trkpt lat="44.51383" lon="-0.36376">
        <ele>43.4</ele>
      </trkpt>
      <trkpt lat="44.51372" lon="-0.36382">
        <ele>43.3</ele>
      </trkpt>
      <trkpt lat="44.51367" lon="-0.36384">
        <ele>43.2</ele>
      </trkpt>
      <trkpt lat="44.51362" lon="-0.36386">
        <ele>43.1</ele>
      </trkpt>
      <trkpt lat="44.51357" lon="-0.36389">
        <ele>43.1</ele>
      </trkpt>
      <trkpt lat="44.51337" lon="-0.364">
        <ele>43.4</ele>
      </trkpt>
      <trkpt lat="44.51315" lon="-0.36414">
        <ele>44.4</ele>
      </trkpt>
      <trkpt lat="44.5131" lon="-0.36417">
        <ele>44.7</ele>
      </trkpt>
      <trkpt lat="44.513" lon="-0.36426">
        <ele>45.1</ele>
      </trkpt>
      <trkpt lat="44.5129" lon="-0.36471">
        <ele>45.6</ele>
      </trkpt>
      <trkpt lat="44.51287" lon="-0.36496">
        <ele>46</ele>
      </trkpt>
      <trkpt lat="44.51285" lon="-0.3653">
        <ele>45.7</ele>
      </trkpt>
      <trkpt lat="44.51285" lon="-0.36558">
        <ele>46</ele>
      </trkpt>
      <trkpt lat="44.51284" lon="-0.36582">
        <ele>45.8</ele>
      </trkpt>
      <trkpt lat="44.51282" lon="-0.36603">
        <ele>45.7</ele>
      </trkpt>
      <trkpt lat="44.5128" lon="-0.36616">
        <ele>45.8</ele>
      </trkpt>
      <trkpt lat="44.51278" lon="-0.36627">
        <ele>46</ele>
      </trkpt>
      <trkpt lat="44.51276" lon="-0.36639">
        <ele>46.1</ele>
      </trkpt>
      <trkpt lat="44.51275" lon="-0.36648">
        <ele>46.1</ele>
      </trkpt>
      <trkpt lat="44.51275" lon="-0.36669">
        <ele>46.1</ele>
      </trkpt>
      <trkpt lat="44.51282" lon="-0.36663">
        <ele>45.7</ele>
      </trkpt>
      <trkpt lat="44.51292" lon="-0.36655">
        <ele>44.9</ele>
      </trkpt>
      <trkpt lat="44.51302" lon="-0.36649">
        <ele>44.2</ele>
      </trkpt>
      <trkpt lat="44.51315" lon="-0.36644">
        <ele>42.7</ele>
      </trkpt>
      <trkpt lat="44.51332" lon="-0.36638">
        <ele>40.3</ele>
      </trkpt>
      <trkpt lat="44.51344" lon="-0.36633">
        <ele>39.3</ele>
      </trkpt>
      <trkpt lat="44.51354" lon="-0.36625">
        <ele>38.3</ele>
      </trkpt>
      <trkpt lat="44.51362" lon="-0.3662">
        <ele>37.6</ele>
      </trkpt>
      <trkpt lat="44.5138" lon="-0.36606">
        <ele>35.7</ele>
      </trkpt>
      <trkpt lat="44.51389" lon="-0.36601">
        <ele>34.7</ele>
      </trkpt>
      <trkpt lat="44.51396" lon="-0.36599">
        <ele>34.2</ele>
      </trkpt>
      <trkpt lat="44.51405" lon="-0.36599">
        <ele>33.5</ele>
      </trkpt>
      <trkpt lat="44.51434" lon="-0.36602">
        <ele>31.5</ele>
      </trkpt>
      <trkpt lat="44.51482" lon="-0.36609">
        <ele>28.9</ele>
      </trkpt>
      <trkpt lat="44.51515" lon="-0.36614">
        <ele>28</ele>
      </trkpt>
      <trkpt lat="44.51533" lon="-0.36617">
        <ele>27.6</ele>
      </trkpt>
      <trkpt lat="44.51549" lon="-0.36622">
        <ele>27.1</ele>
      </trkpt>
      <trkpt lat="44.5159" lon="-0.36636">
        <ele>25.9</ele>
      </trkpt>
      <trkpt lat="44.5161" lon="-0.36641">
        <ele>25</ele>
      </trkpt>
      <trkpt lat="44.51625" lon="-0.36628">
        <ele>24.9</ele>
      </trkpt>
      <trkpt lat="44.51646" lon="-0.36615">
        <ele>24.6</ele>
      </trkpt>
      <trkpt lat="44.51662" lon="-0.36605">
        <ele>24.6</ele>
      </trkpt>
      <trkpt lat="44.51692" lon="-0.36583">
        <ele>25.1</ele>
      </trkpt>
      <trkpt lat="44.51699" lon="-0.36578">
        <ele>25.1</ele>
      </trkpt>
      <trkpt lat="44.51729" lon="-0.36556">
        <ele>25.5</ele>
      </trkpt>
      <trkpt lat="44.5176" lon="-0.36528">
        <ele>26.2</ele>
      </trkpt>
      <trkpt lat="44.51777" lon="-0.36515">
        <ele>26.4</ele>
      </trkpt>
      <trkpt lat="44.51792" lon="-0.36505">
        <ele>26.1</ele>
      </trkpt>
      <trkpt lat="44.51808" lon="-0.36495">
        <ele>25.4</ele>
      </trkpt>
      <trkpt lat="44.51833" lon="-0.36477">
        <ele>23.9</ele>
      </trkpt>
      <trkpt lat="44.51845" lon="-0.36469">
        <ele>23.9</ele>
      </trkpt>
      <trkpt lat="44.51855" lon="-0.3646">
        <ele>24</ele>
      </trkpt>
      <trkpt lat="44.51864" lon="-0.36451">
        <ele>23.5</ele>
      </trkpt>
      <trkpt lat="44.51869" lon="-0.36446">
        <ele>23.1</ele>
      </trkpt>
      <trkpt lat="44.51878" lon="-0.36436">
        <ele>22.8</ele>
      </trkpt>
      <trkpt lat="44.5189" lon="-0.36419">
        <ele>22.8</ele>
      </trkpt>
      <trkpt lat="44.51883" lon="-0.36404">
        <ele>24.2</ele>
      </trkpt>
      <trkpt lat="44.51879" lon="-0.36392">
        <ele>25.2</ele>
      </trkpt>
      <trkpt lat="44.51876" lon="-0.36382">
        <ele>26.1</ele>
      </trkpt>
      <trkpt lat="44.5187" lon="-0.36356">
        <ele>27.8</ele>
      </trkpt>
      <trkpt lat="44.51856" lon="-0.36305">
        <ele>29.5</ele>
      </trkpt>
      <trkpt lat="44.51838" lon="-0.36249">
        <ele>31.5</ele>
      </trkpt>
      <trkpt lat="44.51835" lon="-0.36239">
        <ele>31.8</ele>
      </trkpt>
      <trkpt lat="44.51832" lon="-0.36229">
        <ele>32.1</ele>
      </trkpt>
      <trkpt lat="44.5183" lon="-0.36219">
        <ele>32.4</ele>
      </trkpt>
      <trkpt lat="44.51828" lon="-0.36211">
        <ele>32.6</ele>
      </trkpt>
      <trkpt lat="44.51826" lon="-0.36201">
        <ele>32.8</ele>
      </trkpt>
      <trkpt lat="44.51824" lon="-0.36189">
        <ele>33</ele>
      </trkpt>
      <trkpt lat="44.51821" lon="-0.36168">
        <ele>33.3</ele>
      </trkpt>
      <trkpt lat="44.51812" lon="-0.36106">
        <ele>33.3</ele>
      </trkpt>
      <trkpt lat="44.51809" lon="-0.36085">
        <ele>33.6</ele>
      </trkpt>
      <trkpt lat="44.51795" lon="-0.36003">
        <ele>33.6</ele>
      </trkpt>
      <trkpt lat="44.5179" lon="-0.35979">
        <ele>34.5</ele>
      </trkpt>
      <trkpt lat="44.51789" lon="-0.35975">
        <ele>34.6</ele>
      </trkpt>
      <trkpt lat="44.51787" lon="-0.35971">
        <ele>34.7</ele>
      </trkpt>
      <trkpt lat="44.51784" lon="-0.35964">
        <ele>34.8</ele>
      </trkpt>
      <trkpt lat="44.51782" lon="-0.35957">
        <ele>34.9</ele>
      </trkpt>
      <trkpt lat="44.5178" lon="-0.35948">
        <ele>34.9</ele>
      </trkpt>
      <trkpt lat="44.51776" lon="-0.35931">
        <ele>35.2</ele>
      </trkpt>
      <trkpt lat="44.51772" lon="-0.35908">
        <ele>35.6</ele>
      </trkpt>
      <trkpt lat="44.51769" lon="-0.35886">
        <ele>35.7</ele>
      </trkpt>
      <trkpt lat="44.51767" lon="-0.35874">
        <ele>36</ele>
      </trkpt>
      <trkpt lat="44.51766" lon="-0.35865">
        <ele>36.2</ele>
      </trkpt>
      <trkpt lat="44.51764" lon="-0.35855">
        <ele>36.4</ele>
      </trkpt>
      <trkpt lat="44.51762" lon="-0.35847">
        <ele>36.5</ele>
      </trkpt>
      <trkpt lat="44.51757" lon="-0.35834">
        <ele>36.5</ele>
      </trkpt>
      <trkpt lat="44.51752" lon="-0.3582">
        <ele>36.9</ele>
      </trkpt>
      <trkpt lat="44.51746" lon="-0.35805">
        <ele>37.3</ele>
      </trkpt>
      <trkpt lat="44.51745" lon="-0.35801">
        <ele>37.4</ele>
      </trkpt>
      <trkpt lat="44.51744" lon="-0.35797">
        <ele>37.5</ele>
      </trkpt>
      <trkpt lat="44.51742" lon="-0.3579">
        <ele>37.5</ele>
      </trkpt>
      <trkpt lat="44.51742" lon="-0.35786">
        <ele>37.6</ele>
      </trkpt>
      <trkpt lat="44.51742" lon="-0.35783">
        <ele>37.6</ele>
      </trkpt>
      <trkpt lat="44.51743" lon="-0.35778">
        <ele>37.5</ele>
      </trkpt>
      <trkpt lat="44.51744" lon="-0.35775">
        <ele>37.5</ele>
      </trkpt>
      <trkpt lat="44.51745" lon="-0.35771">
        <ele>37.6</ele>
      </trkpt>
      <trkpt lat="44.51749" lon="-0.35764">
        <ele>37.6</ele>
      </trkpt>
      <trkpt lat="44.51752" lon="-0.35759">
        <ele>37.7</ele>
      </trkpt>
      <trkpt lat="44.51755" lon="-0.35755">
        <ele>38</ele>
      </trkpt>
      <trkpt lat="44.51757" lon="-0.35752">
        <ele>38.2</ele>
      </trkpt>
      <trkpt lat="44.51759" lon="-0.35749">
        <ele>38.4</ele>
      </trkpt>
      <trkpt lat="44.51761" lon="-0.35747">
        <ele>38.5</ele>
      </trkpt>
      <trkpt lat="44.51763" lon="-0.35743">
        <ele>38.7</ele>
      </trkpt>
      <trkpt lat="44.51764" lon="-0.3574">
        <ele>38.9</ele>
      </trkpt>
      <trkpt lat="44.51764" lon="-0.35736">
        <ele>39</ele>
      </trkpt>
      <trkpt lat="44.51764" lon="-0.35733">
        <ele>39.1</ele>
      </trkpt>
      <trkpt lat="44.51764" lon="-0.35728">
        <ele>39.3</ele>
      </trkpt>
      <trkpt lat="44.51763" lon="-0.35723">
        <ele>39.4</ele>
      </trkpt>
      <trkpt lat="44.51761" lon="-0.35715">
        <ele>39.7</ele>
      </trkpt>
      <trkpt lat="44.51755" lon="-0.35695">
        <ele>40.4</ele>
      </trkpt>
      <trkpt lat="44.51752" lon="-0.3568">
        <ele>40.6</ele>
      </trkpt>
      <trkpt lat="44.51752" lon="-0.35677">
        <ele>40.7</ele>
      </trkpt>
      <trkpt lat="44.51752" lon="-0.35669">
        <ele>41</ele>
      </trkpt>
      <trkpt lat="44.51752" lon="-0.35665">
        <ele>41.1</ele>
      </trkpt>
      <trkpt lat="44.51753" lon="-0.35661">
        <ele>41.1</ele>
      </trkpt>
      <trkpt lat="44.51754" lon="-0.35659">
        <ele>41.2</ele>
      </trkpt>
      <trkpt lat="44.51755" lon="-0.35657">
        <ele>41.2</ele>
      </trkpt>
      <trkpt lat="44.51757" lon="-0.35654">
        <ele>41.4</ele>
      </trkpt>
      <trkpt lat="44.51759" lon="-0.35653">
        <ele>41.5</ele>
      </trkpt>
      <trkpt lat="44.51762" lon="-0.35651">
        <ele>41.7</ele>
      </trkpt>
      <trkpt lat="44.51771" lon="-0.35645">
        <ele>42.3</ele>
      </trkpt>
      <trkpt lat="44.51798" lon="-0.3563">
        <ele>43.3</ele>
      </trkpt>
      <trkpt lat="44.51836" lon="-0.35608">
        <ele>44.2</ele>
      </trkpt>
      <trkpt lat="44.51881" lon="-0.35581">
        <ele>46.1</ele>
      </trkpt>
      <trkpt lat="44.51933" lon="-0.35548">
        <ele>47.7</ele>
      </trkpt>
      <trkpt lat="44.5197" lon="-0.35525">
        <ele>48</ele>
      </trkpt>
      <trkpt lat="44.51993" lon="-0.35513">
        <ele>48</ele>
      </trkpt>
      <trkpt lat="44.51997" lon="-0.35511">
        <ele>48</ele>
      </trkpt>
      <trkpt lat="44.52001" lon="-0.35509">
        <ele>48</ele>
      </trkpt>
      <trkpt lat="44.52003" lon="-0.35508">
        <ele>48.1</ele>
      </trkpt>
      <trkpt lat="44.52011" lon="-0.35512">
        <ele>48.2</ele>
      </trkpt>
      <trkpt lat="44.52011" lon="-0.35515">
        <ele>48.2</ele>
      </trkpt>
      <trkpt lat="44.52011" lon="-0.35519">
        <ele>48.1</ele>
      </trkpt>
      <trkpt lat="44.52016" lon="-0.35519">
        <ele>48.2</ele>
      </trkpt>
      <trkpt lat="44.52034" lon="-0.35516">
        <ele>48.6</ele>
      </trkpt>
      <trkpt lat="44.52039" lon="-0.35515">
        <ele>48.7</ele>
      </trkpt>
      <trkpt lat="44.52046" lon="-0.35513">
        <ele>48.8</ele>
      </trkpt>
      <trkpt lat="44.52069" lon="-0.35504">
        <ele>49.1</ele>
      </trkpt>
      <trkpt lat="44.52132" lon="-0.35479">
        <ele>47.1</ele>
      </trkpt>
      <trkpt lat="44.52155" lon="-0.35467">
        <ele>46.1</ele>
      </trkpt>
      <trkpt lat="44.52198" lon="-0.35448">
        <ele>46.8</ele>
      </trkpt>
      <trkpt lat="44.52202" lon="-0.35446">
        <ele>46.9</ele>
      </trkpt>
      <trkpt lat="44.52205" lon="-0.35444">
        <ele>47</ele>
      </trkpt>
      <trkpt lat="44.52208" lon="-0.35441">
        <ele>47.2</ele>
      </trkpt>
      <trkpt lat="44.5221" lon="-0.35439">
        <ele>47.3</ele>
      </trkpt>
      <trkpt lat="44.52214" lon="-0.35432">
        <ele>47.6</ele>
      </trkpt>
      <trkpt lat="44.52216" lon="-0.35427">
        <ele>47.8</ele>
      </trkpt>
      <trkpt lat="44.52218" lon="-0.35423">
        <ele>47.9</ele>
      </trkpt>
      <trkpt lat="44.5222" lon="-0.3542">
        <ele>47.9</ele>
      </trkpt>
      <trkpt lat="44.52222" lon="-0.35417">
        <ele>48</ele>
      </trkpt>
      <trkpt lat="44.52225" lon="-0.35415">
        <ele>48.2</ele>
      </trkpt>
      <trkpt lat="44.5223" lon="-0.35413">
        <ele>48.4</ele>
      </trkpt>
      <trkpt lat="44.52236" lon="-0.35412">
        <ele>48.7</ele>
      </trkpt>
      <trkpt lat="44.52254" lon="-0.3541">
        <ele>49.5</ele>
      </trkpt>
      <trkpt lat="44.52252" lon="-0.35404">
        <ele>49.6</ele>
      </trkpt>
      <trkpt lat="44.52234" lon="-0.35356">
        <ele>50.6</ele>
      </trkpt>
      <trkpt lat="44.52201" lon="-0.35273">
        <ele>51</ele>
      </trkpt>
      <trkpt lat="44.52193" lon="-0.35251">
        <ele>51</ele>
      </trkpt>
      <trkpt lat="44.5219" lon="-0.35239">
        <ele>51.3</ele>
      </trkpt>
      <trkpt lat="44.52189" lon="-0.3523">
        <ele>51.6</ele>
      </trkpt>
      <trkpt lat="44.52183" lon="-0.35203">
        <ele>51.9</ele>
      </trkpt>
      <trkpt lat="44.52171" lon="-0.35136">
        <ele>53</ele>
      </trkpt>
      <trkpt lat="44.52162" lon="-0.35086">
        <ele>53</ele>
      </trkpt>
      <trkpt lat="44.5216" lon="-0.35073">
        <ele>53.1</ele>
      </trkpt>
      <trkpt lat="44.52149" lon="-0.3501">
        <ele>53.6</ele>
      </trkpt>
      <trkpt lat="44.52145" lon="-0.34986">
        <ele>53.9</ele>
      </trkpt>
      <trkpt lat="44.52143" lon="-0.34968">
        <ele>54.1</ele>
      </trkpt>
      <trkpt lat="44.52149" lon="-0.34967">
        <ele>54.1</ele>
      </trkpt>
      <trkpt lat="44.52154" lon="-0.34966">
        <ele>54.1</ele>
      </trkpt>
      <trkpt lat="44.52266" lon="-0.34952">
        <ele>54.1</ele>
      </trkpt>
      <trkpt lat="44.52277" lon="-0.3495">
        <ele>54</ele>
      </trkpt>
      <trkpt lat="44.52283" lon="-0.34949">
        <ele>54</ele>
      </trkpt>
      <trkpt lat="44.52288" lon="-0.34948">
        <ele>54</ele>
      </trkpt>
      <trkpt lat="44.52305" lon="-0.34941">
        <ele>54</ele>
      </trkpt>
      <trkpt lat="44.5234" lon="-0.34928">
        <ele>54</ele>
      </trkpt>
      <trkpt lat="44.52428" lon="-0.34894">
        <ele>53.5</ele>
      </trkpt>
      <trkpt lat="44.52444" lon="-0.34896">
        <ele>53</ele>
      </trkpt>
      <trkpt lat="44.52446" lon="-0.34924">
        <ele>52.6</ele>
      </trkpt>
      <trkpt lat="44.52448" lon="-0.34939">
        <ele>52</ele>
      </trkpt>
      <trkpt lat="44.52457" lon="-0.34997">
        <ele>51.1</ele>
      </trkpt>
      <trkpt lat="44.52462" lon="-0.35026">
        <ele>50.4</ele>
      </trkpt>
      <trkpt lat="44.52467" lon="-0.35049">
        <ele>49.6</ele>
      </trkpt>
      <trkpt lat="44.52468" lon="-0.35057">
        <ele>49.4</ele>
      </trkpt>
      <trkpt lat="44.52471" lon="-0.35074">
        <ele>49.7</ele>
      </trkpt>
      <trkpt lat="44.52471" lon="-0.35075">
        <ele>49.8</ele>
      </trkpt>
      <trkpt lat="44.52473" lon="-0.35089">
        <ele>49.9</ele>
      </trkpt>
      <trkpt lat="44.52476" lon="-0.35105">
        <ele>49.6</ele>
      </trkpt>
      <trkpt lat="44.52477" lon="-0.35115">
        <ele>49.6</ele>
      </trkpt>
      <trkpt lat="44.52479" lon="-0.35127">
        <ele>49.8</ele>
      </trkpt>
      <trkpt lat="44.52482" lon="-0.35138">
        <ele>49.9</ele>
      </trkpt>
      <trkpt lat="44.52484" lon="-0.35148">
        <ele>49.7</ele>
      </trkpt>
      <trkpt lat="44.52487" lon="-0.35159">
        <ele>49.5</ele>
      </trkpt>
      <trkpt lat="44.52498" lon="-0.35202">
        <ele>49.2</ele>
      </trkpt>
      <trkpt lat="44.52509" lon="-0.35247">
        <ele>47.7</ele>
      </trkpt>
      <trkpt lat="44.52525" lon="-0.35306">
        <ele>47.3</ele>
      </trkpt>
      <trkpt lat="44.52528" lon="-0.35322">
        <ele>47.5</ele>
      </trkpt>
      <trkpt lat="44.52532" lon="-0.35336">
        <ele>47.5</ele>
      </trkpt>
      <trkpt lat="44.52544" lon="-0.35386">
        <ele>47.7</ele>
      </trkpt>
      <trkpt lat="44.52566" lon="-0.35471">
        <ele>47.8</ele>
      </trkpt>
      <trkpt lat="44.52578" lon="-0.35519">
        <ele>47.4</ele>
      </trkpt>
      <trkpt lat="44.52584" lon="-0.35547">
        <ele>47.7</ele>
      </trkpt>
      <trkpt lat="44.52599" lon="-0.35604">
        <ele>48.2</ele>
      </trkpt>
      <trkpt lat="44.52616" lon="-0.35672">
        <ele>47</ele>
      </trkpt>
      <trkpt lat="44.52639" lon="-0.35666">
        <ele>46</ele>
      </trkpt>
      <trkpt lat="44.52665" lon="-0.35665">
        <ele>43.3</ele>
      </trkpt>
      <trkpt lat="44.52684" lon="-0.35671">
        <ele>41.8</ele>
      </trkpt>
      <trkpt lat="44.52702" lon="-0.3568">
        <ele>40.2</ele>
      </trkpt>
      <trkpt lat="44.52723" lon="-0.35699">
        <ele>37.9</ele>
      </trkpt>
      <trkpt lat="44.52746" lon="-0.35723">
        <ele>36.3</ele>
      </trkpt>
      <trkpt lat="44.52774" lon="-0.35764">
        <ele>33.4</ele>
      </trkpt>
      <trkpt lat="44.52786" lon="-0.35793">
        <ele>32</ele>
      </trkpt>
      <trkpt lat="44.52791" lon="-0.35826">
        <ele>31.6</ele>
      </trkpt>
      <trkpt lat="44.52792" lon="-0.35834">
        <ele>31.5</ele>
      </trkpt>
      <trkpt lat="44.52792" lon="-0.35842">
        <ele>31.5</ele>
      </trkpt>
      <trkpt lat="44.52793" lon="-0.35851">
        <ele>31.4</ele>
      </trkpt>
      <trkpt lat="44.52793" lon="-0.35859">
        <ele>31.4</ele>
      </trkpt>
      <trkpt lat="44.52793" lon="-0.35867">
        <ele>31.3</ele>
      </trkpt>
      <trkpt lat="44.52794" lon="-0.35876">
        <ele>31.3</ele>
      </trkpt>
      <trkpt lat="44.52795" lon="-0.35886">
        <ele>31.2</ele>
      </trkpt>
      <trkpt lat="44.52796" lon="-0.35897">
        <ele>30.8</ele>
      </trkpt>
      <trkpt lat="44.52801" lon="-0.35927">
        <ele>29.6</ele>
      </trkpt>
      <trkpt lat="44.52802" lon="-0.35934">
        <ele>29.5</ele>
      </trkpt>
      <trkpt lat="44.52804" lon="-0.35942">
        <ele>29.3</ele>
      </trkpt>
      <trkpt lat="44.52805" lon="-0.35949">
        <ele>29</ele>
      </trkpt>
      <trkpt lat="44.52807" lon="-0.35956">
        <ele>28.9</ele>
      </trkpt>
      <trkpt lat="44.52808" lon="-0.35964">
        <ele>28.7</ele>
      </trkpt>
      <trkpt lat="44.52809" lon="-0.35978">
        <ele>28.4</ele>
      </trkpt>
      <trkpt lat="44.52813" lon="-0.36047">
        <ele>26.1</ele>
      </trkpt>
      <trkpt lat="44.52808" lon="-0.36068">
        <ele>24.9</ele>
      </trkpt>
      <trkpt lat="44.52815" lon="-0.36076">
        <ele>23.2</ele>
      </trkpt>
      <trkpt lat="44.52821" lon="-0.3608">
        <ele>22.2</ele>
      </trkpt>
      <trkpt lat="44.52829" lon="-0.36085">
        <ele>21.3</ele>
      </trkpt>
      <trkpt lat="44.52836" lon="-0.36089">
        <ele>20.8</ele>
      </trkpt>
      <trkpt lat="44.52844" lon="-0.36093">
        <ele>20.5</ele>
      </trkpt>
      <trkpt lat="44.52851" lon="-0.36096">
        <ele>20.3</ele>
      </trkpt>
      <trkpt lat="44.52858" lon="-0.36099">
        <ele>20</ele>
      </trkpt>
      <trkpt lat="44.52866" lon="-0.36102">
        <ele>19.6</ele>
      </trkpt>
      <trkpt lat="44.52876" lon="-0.36106">
        <ele>19.3</ele>
      </trkpt>
      <trkpt lat="44.52893" lon="-0.36111">
        <ele>18.8</ele>
      </trkpt>
      <trkpt lat="44.52901" lon="-0.36114">
        <ele>18.5</ele>
      </trkpt>
      <trkpt lat="44.52922" lon="-0.36122">
        <ele>18</ele>
      </trkpt>
      <trkpt lat="44.5295" lon="-0.36133">
        <ele>18</ele>
      </trkpt>
      <trkpt lat="44.52957" lon="-0.36136">
        <ele>18</ele>
      </trkpt>
      <trkpt lat="44.52963" lon="-0.3614">
        <ele>18</ele>
      </trkpt>
      <trkpt lat="44.52969" lon="-0.36145">
        <ele>17.8</ele>
      </trkpt>
      <trkpt lat="44.52982" lon="-0.36157">
        <ele>17.6</ele>
      </trkpt>
      <trkpt lat="44.53062" lon="-0.36233">
        <ele>16.9</ele>
      </trkpt>
      <trkpt lat="44.53077" lon="-0.36246">
        <ele>16.9</ele>
      </trkpt>
      <trkpt lat="44.53094" lon="-0.36258">
        <ele>16.5</ele>
      </trkpt>
      <trkpt lat="44.53101" lon="-0.36262">
        <ele>16.2</ele>
      </trkpt>
      <trkpt lat="44.53108" lon="-0.36266">
        <ele>16</ele>
      </trkpt>
      <trkpt lat="44.53114" lon="-0.36268">
        <ele>16</ele>
      </trkpt>
      <trkpt lat="44.53121" lon="-0.3627">
        <ele>16</ele>
      </trkpt>
      <trkpt lat="44.53135" lon="-0.36272">
        <ele>16</ele>
      </trkpt>
      <trkpt lat="44.53147" lon="-0.36273">
        <ele>16</ele>
      </trkpt>
      <trkpt lat="44.53153" lon="-0.36273">
        <ele>16</ele>
      </trkpt>
      <trkpt lat="44.53161" lon="-0.36274">
        <ele>16</ele>
      </trkpt>
      <trkpt lat="44.53167" lon="-0.36274">
        <ele>16</ele>
      </trkpt>
      <trkpt lat="44.53187" lon="-0.36277">
        <ele>16</ele>
      </trkpt>
      <trkpt lat="44.53217" lon="-0.36285">
        <ele>16</ele>
      </trkpt>
      <trkpt lat="44.53224" lon="-0.36293">
        <ele>16</ele>
      </trkpt>
      <trkpt lat="44.5326" lon="-0.36307">
        <ele>16</ele>
      </trkpt>
      <trkpt lat="44.53284" lon="-0.36318">
        <ele>15.8</ele>
      </trkpt>
      <trkpt lat="44.53292" lon="-0.36321">
        <ele>15.5</ele>
      </trkpt>
      <trkpt lat="44.53299" lon="-0.36321">
        <ele>15.3</ele>
      </trkpt>
      <trkpt lat="44.53308" lon="-0.36321">
        <ele>15</ele>
      </trkpt>
      <trkpt lat="44.53315" lon="-0.3632">
        <ele>15.2</ele>
      </trkpt>
      <trkpt lat="44.53323" lon="-0.36318">
        <ele>15.4</ele>
      </trkpt>
      <trkpt lat="44.53331" lon="-0.36314">
        <ele>15.6</ele>
      </trkpt>
      <trkpt lat="44.53337" lon="-0.36311">
        <ele>15.7</ele>
      </trkpt>
      <trkpt lat="44.53345" lon="-0.36304">
        <ele>15.6</ele>
      </trkpt>
      <trkpt lat="44.53354" lon="-0.36297">
        <ele>15.5</ele>
      </trkpt>
      <trkpt lat="44.53362" lon="-0.3629">
        <ele>15.5</ele>
      </trkpt>
      <trkpt lat="44.5337" lon="-0.36285">
        <ele>15.8</ele>
      </trkpt>
      <trkpt lat="44.53378" lon="-0.36279">
        <ele>15.9</ele>
      </trkpt>
      <trkpt lat="44.53396" lon="-0.36267">
        <ele>16</ele>
      </trkpt>
      <trkpt lat="44.53405" lon="-0.36261">
        <ele>16</ele>
      </trkpt>
      <trkpt lat="44.53414" lon="-0.36257">
        <ele>16</ele>
      </trkpt>
      <trkpt lat="44.53424" lon="-0.36251">
        <ele>16</ele>
      </trkpt>
      <trkpt lat="44.53433" lon="-0.36244">
        <ele>16</ele>
      </trkpt>
      <trkpt lat="44.53442" lon="-0.36237">
        <ele>16</ele>
      </trkpt>
      <trkpt lat="44.53452" lon="-0.36227">
        <ele>16.2</ele>
      </trkpt>
      <trkpt lat="44.5348" lon="-0.36204">
        <ele>17.2</ele>
      </trkpt>
      <trkpt lat="44.53489" lon="-0.36198">
        <ele>17.5</ele>
      </trkpt>
      <trkpt lat="44.53496" lon="-0.36194">
        <ele>17.8</ele>
      </trkpt>
      <trkpt lat="44.53503" lon="-0.3619">
        <ele>18</ele>
      </trkpt>
      <trkpt lat="44.53511" lon="-0.36188">
        <ele>18</ele>
      </trkpt>
      <trkpt lat="44.53515" lon="-0.36187">
        <ele>18</ele>
      </trkpt>
      <trkpt lat="44.53519" lon="-0.36186">
        <ele>18</ele>
      </trkpt>
      <trkpt lat="44.53546" lon="-0.36176">
        <ele>17.8</ele>
      </trkpt>
      <trkpt lat="44.53569" lon="-0.36167">
        <ele>18</ele>
      </trkpt>
      <trkpt lat="44.53603" lon="-0.36149">
        <ele>18.6</ele>
      </trkpt>
      <trkpt lat="44.53645" lon="-0.36122">
        <ele>19.6</ele>
      </trkpt>
      <trkpt lat="44.53666" lon="-0.36109">
        <ele>20</ele>
      </trkpt>
      <trkpt lat="44.53673" lon="-0.36106">
        <ele>20</ele>
      </trkpt>
      <trkpt lat="44.53678" lon="-0.36105">
        <ele>20</ele>
      </trkpt>
      <trkpt lat="44.53682" lon="-0.36106">
        <ele>20</ele>
      </trkpt>
      <trkpt lat="44.5369" lon="-0.3611">
        <ele>20</ele>
      </trkpt>
      <trkpt lat="44.53695" lon="-0.3611">
        <ele>20</ele>
      </trkpt>
      <trkpt lat="44.53699" lon="-0.3611">
        <ele>20</ele>
      </trkpt>
      <trkpt lat="44.53711" lon="-0.36108">
        <ele>20.1</ele>
      </trkpt>
      <trkpt lat="44.53728" lon="-0.36103">
        <ele>20.3</ele>
      </trkpt>
      <trkpt lat="44.53764" lon="-0.36094">
        <ele>20.4</ele>
      </trkpt>
      <trkpt lat="44.53801" lon="-0.36087">
        <ele>20</ele>
      </trkpt>
      <trkpt lat="44.53813" lon="-0.36084">
        <ele>20</ele>
      </trkpt>
      <trkpt lat="44.53853" lon="-0.36077">
        <ele>19.9</ele>
      </trkpt>
      <trkpt lat="44.53881" lon="-0.36069">
        <ele>19.8</ele>
      </trkpt>
      <trkpt lat="44.5391" lon="-0.36063">
        <ele>20</ele>
      </trkpt>
      <trkpt lat="44.53936" lon="-0.36055">
        <ele>21.7</ele>
      </trkpt>
      <trkpt lat="44.53952" lon="-0.36049">
        <ele>22.4</ele>
      </trkpt>
      <trkpt lat="44.53963" lon="-0.36043">
        <ele>22.6</ele>
      </trkpt>
      <trkpt lat="44.53973" lon="-0.36039">
        <ele>22.6</ele>
      </trkpt>
      <trkpt lat="44.53986" lon="-0.36036">
        <ele>22.2</ele>
      </trkpt>
      <trkpt lat="44.53994" lon="-0.36035">
        <ele>22</ele>
      </trkpt>
      <trkpt lat="44.54" lon="-0.36037">
        <ele>21.7</ele>
      </trkpt>
      <trkpt lat="44.54" lon="-0.36043">
        <ele>21.5</ele>
      </trkpt>
      <trkpt lat="44.54004" lon="-0.36055">
        <ele>21.3</ele>
      </trkpt>
      <trkpt lat="44.54007" lon="-0.36064">
        <ele>20.9</ele>
      </trkpt>
      <trkpt lat="44.54009" lon="-0.36067">
        <ele>20.8</ele>
      </trkpt>
      <trkpt lat="44.54013" lon="-0.3607">
        <ele>20.8</ele>
      </trkpt>
      <trkpt lat="44.54016" lon="-0.36073">
        <ele>20.9</ele>
      </trkpt>
      <trkpt lat="44.5402" lon="-0.36076">
        <ele>20.9</ele>
      </trkpt>
      <trkpt lat="44.54024" lon="-0.36079">
        <ele>21.1</ele>
      </trkpt>
      <trkpt lat="44.54028" lon="-0.3608">
        <ele>21.2</ele>
      </trkpt>
      <trkpt lat="44.54033" lon="-0.36081">
        <ele>21.3</ele>
      </trkpt>
      <trkpt lat="44.54038" lon="-0.36081">
        <ele>21.5</ele>
      </trkpt>
      <trkpt lat="44.54049" lon="-0.36081">
        <ele>21.9</ele>
      </trkpt>
      <trkpt lat="44.5406" lon="-0.36084">
        <ele>22.1</ele>
      </trkpt>
      <trkpt lat="44.54068" lon="-0.3609">
        <ele>21.7</ele>
      </trkpt>
      <trkpt lat="44.54078" lon="-0.361">
        <ele>21</ele>
      </trkpt>
      <trkpt lat="44.54085" lon="-0.36104">
        <ele>20.7</ele>
      </trkpt>
      <trkpt lat="44.54095" lon="-0.36107">
        <ele>20.4</ele>
      </trkpt>
      <trkpt lat="44.54105" lon="-0.36108">
        <ele>20.2</ele>
      </trkpt>
      <trkpt lat="44.54123" lon="-0.36109">
        <ele>20.5</ele>
      </trkpt>
      <trkpt lat="44.5415" lon="-0.36113">
        <ele>20.4</ele>
      </trkpt>
      <trkpt lat="44.54184" lon="-0.3612">
        <ele>19.3</ele>
      </trkpt>
      <trkpt lat="44.54205" lon="-0.36124">
        <ele>19.3</ele>
      </trkpt>
      <trkpt lat="44.54223" lon="-0.36123">
        <ele>20.3</ele>
      </trkpt>
      <trkpt lat="44.54239" lon="-0.36119">
        <ele>20.7</ele>
      </trkpt>
      <trkpt lat="44.54263" lon="-0.3611">
        <ele>21.1</ele>
      </trkpt>
      <trkpt lat="44.54276" lon="-0.36104">
        <ele>20.6</ele>
      </trkpt>
      <trkpt lat="44.54285" lon="-0.36099">
        <ele>20.1</ele>
      </trkpt>
      <trkpt lat="44.5429" lon="-0.36096">
        <ele>19.8</ele>
      </trkpt>
      <trkpt lat="44.543" lon="-0.36091">
        <ele>19.4</ele>
      </trkpt>
      <trkpt lat="44.54306" lon="-0.36089">
        <ele>19.2</ele>
      </trkpt>
      <trkpt lat="44.54309" lon="-0.36088">
        <ele>19.3</ele>
      </trkpt>
      <trkpt lat="44.54314" lon="-0.36088">
        <ele>19.4</ele>
      </trkpt>
      <trkpt lat="44.54318" lon="-0.36087">
        <ele>19.4</ele>
      </trkpt>
      <trkpt lat="44.54326" lon="-0.36088">
        <ele>19.3</ele>
      </trkpt>
      <trkpt lat="44.54332" lon="-0.36087">
        <ele>19.3</ele>
      </trkpt>
      <trkpt lat="44.54339" lon="-0.36087">
        <ele>19.4</ele>
      </trkpt>
      <trkpt lat="44.544" lon="-0.36073">
        <ele>18.1</ele>
      </trkpt>
      <trkpt lat="44.54417" lon="-0.36067">
        <ele>18.3</ele>
      </trkpt>
      <trkpt lat="44.54436" lon="-0.36058">
        <ele>19</ele>
      </trkpt>
      <trkpt lat="44.54469" lon="-0.36043">
        <ele>18.5</ele>
      </trkpt>
      <trkpt lat="44.54495" lon="-0.36035">
        <ele>18.2</ele>
      </trkpt>
      <trkpt lat="44.54504" lon="-0.3603">
        <ele>18.4</ele>
      </trkpt>
      <trkpt lat="44.54512" lon="-0.36025">
        <ele>18.3</ele>
      </trkpt>
      <trkpt lat="44.54525" lon="-0.36014">
        <ele>18.6</ele>
      </trkpt>
      <trkpt lat="44.5453" lon="-0.36008">
        <ele>19</ele>
      </trkpt>
      <trkpt lat="44.54541" lon="-0.36">
        <ele>19.5</ele>
      </trkpt>
      <trkpt lat="44.54582" lon="-0.35975">
        <ele>18.8</ele>
      </trkpt>
      <trkpt lat="44.54594" lon="-0.35968">
        <ele>18.4</ele>
      </trkpt>
      <trkpt lat="44.54603" lon="-0.35964">
        <ele>18.1</ele>
      </trkpt>
      <trkpt lat="44.54606" lon="-0.35963">
        <ele>18</ele>
      </trkpt>
      <trkpt lat="44.54612" lon="-0.35961">
        <ele>17.8</ele>
      </trkpt>
      <trkpt lat="44.54621" lon="-0.35997">
        <ele>15.4</ele>
      </trkpt>
      <trkpt lat="44.54622" lon="-0.36002">
        <ele>15.1</ele>
      </trkpt>
      <trkpt lat="44.54622" lon="-0.36008">
        <ele>14.9</ele>
      </trkpt>
      <trkpt lat="44.54621" lon="-0.36012">
        <ele>14.7</ele>
      </trkpt>
      <trkpt lat="44.54619" lon="-0.36021">
        <ele>14.4</ele>
      </trkpt>
      <trkpt lat="44.54613" lon="-0.3604">
        <ele>14</ele>
      </trkpt>
      <trkpt lat="44.54605" lon="-0.36063">
        <ele>14</ele>
      </trkpt>
      <trkpt lat="44.54603" lon="-0.36069">
        <ele>14</ele>
      </trkpt>
      <trkpt lat="44.54602" lon="-0.36073">
        <ele>14</ele>
      </trkpt>
      <trkpt lat="44.54602" lon="-0.36077">
        <ele>14</ele>
      </trkpt>
      <trkpt lat="44.54604" lon="-0.36082">
        <ele>14</ele>
      </trkpt>
      <trkpt lat="44.54605" lon="-0.36085">
        <ele>13.9</ele>
      </trkpt>
      <trkpt lat="44.5461" lon="-0.36088">
        <ele>13.6</ele>
      </trkpt>
      <trkpt lat="44.54618" lon="-0.36092">
        <ele>13.5</ele>
      </trkpt>
      <trkpt lat="44.54631" lon="-0.36096">
        <ele>13.7</ele>
      </trkpt>
      <trkpt lat="44.54665" lon="-0.36109">
        <ele>14</ele>
      </trkpt>
      <trkpt lat="44.54706" lon="-0.36126">
        <ele>13.8</ele>
      </trkpt>
      <trkpt lat="44.54717" lon="-0.36129">
        <ele>13.5</ele>
      </trkpt>
      <trkpt lat="44.54722" lon="-0.36127">
        <ele>13.4</ele>
      </trkpt>
      <trkpt lat="44.54731" lon="-0.36115">
        <ele>13.4</ele>
      </trkpt>
      <trkpt lat="44.54746" lon="-0.36087">
        <ele>12.9</ele>
      </trkpt>
      <trkpt lat="44.54748" lon="-0.36081">
        <ele>13.1</ele>
      </trkpt>
      <trkpt lat="44.54749" lon="-0.36072">
        <ele>13.4</ele>
      </trkpt>
      <trkpt lat="44.54745" lon="-0.36053">
        <ele>14</ele>
      </trkpt>
      <trkpt lat="44.54744" lon="-0.3604">
        <ele>14</ele>
      </trkpt>
      <trkpt lat="44.54744" lon="-0.3603">
        <ele>14</ele>
      </trkpt>
      <trkpt lat="44.54744" lon="-0.36018">
        <ele>14</ele>
      </trkpt>
      <trkpt lat="44.54745" lon="-0.36002">
        <ele>14</ele>
      </trkpt>
      <trkpt lat="44.54763" lon="-0.35944">
        <ele>14</ele>
      </trkpt>
      <trkpt lat="44.54765" lon="-0.35934">
        <ele>14.4</ele>
      </trkpt>
      <trkpt lat="44.54765" lon="-0.35925">
        <ele>14.7</ele>
      </trkpt>
      <trkpt lat="44.54764" lon="-0.35916">
        <ele>15</ele>
      </trkpt>
      <trkpt lat="44.54751" lon="-0.35881">
        <ele>17.3</ele>
      </trkpt>
      <trkpt lat="44.54746" lon="-0.35872">
        <ele>17.8</ele>
      </trkpt>
      <trkpt lat="44.54742" lon="-0.35869">
        <ele>18</ele>
      </trkpt>
      <trkpt lat="44.54748" lon="-0.35862">
        <ele>18</ele>
      </trkpt>
      <trkpt lat="44.54774" lon="-0.35835">
        <ele>18.1</ele>
      </trkpt>
      <trkpt lat="44.54782" lon="-0.35828">
        <ele>18.1</ele>
      </trkpt>
      <trkpt lat="44.54789" lon="-0.35821">
        <ele>18.2</ele>
      </trkpt>
      <trkpt lat="44.5479" lon="-0.35821">
        <ele>18.2</ele>
      </trkpt>
      <trkpt lat="44.54796" lon="-0.35816">
        <ele>18.4</ele>
      </trkpt>
      <trkpt lat="44.54809" lon="-0.35808">
        <ele>18.8</ele>
      </trkpt>
      <trkpt lat="44.54869" lon="-0.35775">
        <ele>18.5</ele>
      </trkpt>
      <trkpt lat="44.54877" lon="-0.35773">
        <ele>18</ele>
      </trkpt>
      <trkpt lat="44.54895" lon="-0.35769">
        <ele>17.6</ele>
      </trkpt>
      <trkpt lat="44.54908" lon="-0.35767">
        <ele>17.5</ele>
      </trkpt>
      <trkpt lat="44.54914" lon="-0.35768">
        <ele>17.4</ele>
      </trkpt>
      <trkpt lat="44.5492" lon="-0.35769">
        <ele>17.2</ele>
      </trkpt>
      <trkpt lat="44.54926" lon="-0.35772">
        <ele>16.9</ele>
      </trkpt>
      <trkpt lat="44.54933" lon="-0.35774">
        <ele>16.6</ele>
      </trkpt>
      <trkpt lat="44.54942" lon="-0.35778">
        <ele>16.1</ele>
      </trkpt>
      <trkpt lat="44.54951" lon="-0.35781">
        <ele>15.7</ele>
      </trkpt>
      <trkpt lat="44.54956" lon="-0.35783">
        <ele>15.5</ele>
      </trkpt>
      <trkpt lat="44.54957" lon="-0.35784">
        <ele>15.4</ele>
      </trkpt>
      <trkpt lat="44.5496" lon="-0.35785">
        <ele>15.3</ele>
      </trkpt>
      <trkpt lat="44.54969" lon="-0.35788">
        <ele>15.1</ele>
      </trkpt>
      <trkpt lat="44.54978" lon="-0.35788">
        <ele>14.9</ele>
      </trkpt>
      <trkpt lat="44.54985" lon="-0.35786">
        <ele>14.9</ele>
      </trkpt>
      <trkpt lat="44.54992" lon="-0.35785">
        <ele>14.8</ele>
      </trkpt>
      <trkpt lat="44.55026" lon="-0.35759">
        <ele>15</ele>
      </trkpt>
      <trkpt lat="44.55071" lon="-0.35723">
        <ele>14.9</ele>
      </trkpt>
      <trkpt lat="44.55084" lon="-0.35712">
        <ele>15.1</ele>
      </trkpt>
      <trkpt lat="44.5509" lon="-0.35706">
        <ele>15.4</ele>
      </trkpt>
      <trkpt lat="44.55096" lon="-0.35699">
        <ele>15.4</ele>
      </trkpt>
      <trkpt lat="44.55108" lon="-0.35684">
        <ele>15.4</ele>
      </trkpt>
      <trkpt lat="44.55113" lon="-0.35676">
        <ele>15.9</ele>
      </trkpt>
      <trkpt lat="44.55118" lon="-0.35668">
        <ele>16.3</ele>
      </trkpt>
      <trkpt lat="44.55124" lon="-0.35661">
        <ele>16.5</ele>
      </trkpt>
      <trkpt lat="44.55129" lon="-0.35654">
        <ele>16.6</ele>
      </trkpt>
      <trkpt lat="44.55137" lon="-0.35647">
        <ele>16.6</ele>
      </trkpt>
      <trkpt lat="44.55143" lon="-0.35642">
        <ele>16.6</ele>
      </trkpt>
      <trkpt lat="44.55155" lon="-0.35633">
        <ele>16.9</ele>
      </trkpt>
      <trkpt lat="44.55179" lon="-0.35615">
        <ele>16.8</ele>
      </trkpt>
      <trkpt lat="44.55224" lon="-0.35582">
        <ele>17.9</ele>
      </trkpt>
      <trkpt lat="44.5526" lon="-0.35562">
        <ele>17.7</ele>
      </trkpt>
      <trkpt lat="44.5528" lon="-0.35554">
        <ele>18</ele>
      </trkpt>
      <trkpt lat="44.55288" lon="-0.35551">
        <ele>17.9</ele>
      </trkpt>
      <trkpt lat="44.55295" lon="-0.35546">
        <ele>18.2</ele>
      </trkpt>
      <trkpt lat="44.55301" lon="-0.35538">
        <ele>18.8</ele>
      </trkpt>
      <trkpt lat="44.55312" lon="-0.3552">
        <ele>19.9</ele>
      </trkpt>
      <trkpt lat="44.55317" lon="-0.35513">
        <ele>20</ele>
      </trkpt>
      <trkpt lat="44.55321" lon="-0.35506">
        <ele>20.1</ele>
      </trkpt>
      <trkpt lat="44.55326" lon="-0.35499">
        <ele>20.3</ele>
      </trkpt>
      <trkpt lat="44.55327" lon="-0.35498">
        <ele>20.3</ele>
      </trkpt>
      <trkpt lat="44.55333" lon="-0.35492">
        <ele>20.3</ele>
      </trkpt>
      <trkpt lat="44.55343" lon="-0.35484">
        <ele>20.4</ele>
      </trkpt>
      <trkpt lat="44.55359" lon="-0.35473">
        <ele>20.1</ele>
      </trkpt>
      <trkpt lat="44.55421" lon="-0.35429">
        <ele>19</ele>
      </trkpt>
      <trkpt lat="44.55426" lon="-0.35427">
        <ele>19.1</ele>
      </trkpt>
      <trkpt lat="44.55433" lon="-0.35426">
        <ele>18.9</ele>
      </trkpt>
      <trkpt lat="44.5544" lon="-0.35428">
        <ele>18.7</ele>
      </trkpt>
      <trkpt lat="44.55457" lon="-0.35441">
        <ele>18.1</ele>
      </trkpt>
      <trkpt lat="44.55465" lon="-0.35448">
        <ele>17.7</ele>
      </trkpt>
      <trkpt lat="44.55472" lon="-0.35455">
        <ele>17.2</ele>
      </trkpt>
      <trkpt lat="44.55491" lon="-0.35465">
        <ele>17</ele>
      </trkpt>
      <trkpt lat="44.55502" lon="-0.35469">
        <ele>17.1</ele>
      </trkpt>
      <trkpt lat="44.55514" lon="-0.35469">
        <ele>17.2</ele>
      </trkpt>
      <trkpt lat="44.5554" lon="-0.35466">
        <ele>17.5</ele>
      </trkpt>
      <trkpt lat="44.55549" lon="-0.35464">
        <ele>17.6</ele>
      </trkpt>
      <trkpt lat="44.55557" lon="-0.35463">
        <ele>17.5</ele>
      </trkpt>
      <trkpt lat="44.55573" lon="-0.3546">
        <ele>16.8</ele>
      </trkpt>
      <trkpt lat="44.55597" lon="-0.35457">
        <ele>16.8</ele>
      </trkpt>
      <trkpt lat="44.55605" lon="-0.35455">
        <ele>17.1</ele>
      </trkpt>
      <trkpt lat="44.55615" lon="-0.35451">
        <ele>17.9</ele>
      </trkpt>
      <trkpt lat="44.5562" lon="-0.35447">
        <ele>18.6</ele>
      </trkpt>
      <trkpt lat="44.55625" lon="-0.35442">
        <ele>19.1</ele>
      </trkpt>
      <trkpt lat="44.55643" lon="-0.35424">
        <ele>20.5</ele>
      </trkpt>
      <trkpt lat="44.55649" lon="-0.35418">
        <ele>20.9</ele>
      </trkpt>
      <trkpt lat="44.55662" lon="-0.35404">
        <ele>21</ele>
      </trkpt>
      <trkpt lat="44.55669" lon="-0.35397">
        <ele>21</ele>
      </trkpt>
      <trkpt lat="44.55674" lon="-0.3539">
        <ele>21</ele>
      </trkpt>
      <trkpt lat="44.5568" lon="-0.35386">
        <ele>21</ele>
      </trkpt>
      <trkpt lat="44.55692" lon="-0.35378">
        <ele>21</ele>
      </trkpt>
      <trkpt lat="44.55703" lon="-0.35372">
        <ele>20.6</ele>
      </trkpt>
      <trkpt lat="44.55713" lon="-0.3537">
        <ele>20.1</ele>
      </trkpt>
      <trkpt lat="44.5572" lon="-0.35372">
        <ele>19.7</ele>
      </trkpt>
      <trkpt lat="44.55737" lon="-0.35374">
        <ele>19</ele>
      </trkpt>
      <trkpt lat="44.55752" lon="-0.35376">
        <ele>18.5</ele>
      </trkpt>
      <trkpt lat="44.55759" lon="-0.35377">
        <ele>18.4</ele>
      </trkpt>
      <trkpt lat="44.55766" lon="-0.35378">
        <ele>18.4</ele>
      </trkpt>
      <trkpt lat="44.55773" lon="-0.35379">
        <ele>18.4</ele>
      </trkpt>
      <trkpt lat="44.55781" lon="-0.35389">
        <ele>18</ele>
      </trkpt>
      <trkpt lat="44.55794" lon="-0.35413">
        <ele>15.3</ele>
      </trkpt>
      <trkpt lat="44.55799" lon="-0.35423">
        <ele>14.1</ele>
      </trkpt>
      <trkpt lat="44.55855" lon="-0.35578">
        <ele>9.7</ele>
      </trkpt>
      <trkpt lat="44.55862" lon="-0.35598">
        <ele>11.7</ele>
      </trkpt>
      <trkpt lat="44.55866" lon="-0.35608">
        <ele>13.2</ele>
      </trkpt>
      <trkpt lat="44.55871" lon="-0.3562">
        <ele>13.5</ele>
      </trkpt>
      <trkpt lat="44.55879" lon="-0.35643">
        <ele>14.1</ele>
      </trkpt>
      <trkpt lat="44.55888" lon="-0.35666">
        <ele>15</ele>
      </trkpt>
      <trkpt lat="44.55893" lon="-0.35677">
        <ele>15.4</ele>
      </trkpt>
      <trkpt lat="44.559" lon="-0.35698">
        <ele>16.1</ele>
      </trkpt>
      <trkpt lat="44.55903" lon="-0.35709">
        <ele>16.3</ele>
      </trkpt>
      <trkpt lat="44.55913" lon="-0.35741">
        <ele>17.4</ele>
      </trkpt>
      <trkpt lat="44.55927" lon="-0.35735">
        <ele>17.1</ele>
      </trkpt>
      <trkpt lat="44.55949" lon="-0.35723">
        <ele>17</ele>
      </trkpt>
      <trkpt lat="44.55963" lon="-0.35714">
        <ele>16.7</ele>
      </trkpt>
      <trkpt lat="44.5597" lon="-0.35709">
        <ele>16.5</ele>
      </trkpt>
      <trkpt lat="44.55978" lon="-0.35703">
        <ele>16.5</ele>
      </trkpt>
      <trkpt lat="44.55994" lon="-0.35692">
        <ele>16.7</ele>
      </trkpt>
      <trkpt lat="44.56034" lon="-0.35649">
        <ele>16</ele>
      </trkpt>
      <trkpt lat="44.5604" lon="-0.35641">
        <ele>16</ele>
      </trkpt>
      <trkpt lat="44.56059" lon="-0.35616">
        <ele>15.6</ele>
      </trkpt>
      <trkpt lat="44.56072" lon="-0.356">
        <ele>16</ele>
      </trkpt>
      <trkpt lat="44.56084" lon="-0.35583">
        <ele>17</ele>
      </trkpt>
      <trkpt lat="44.56091" lon="-0.35575">
        <ele>16.7</ele>
      </trkpt>
      <trkpt lat="44.5613" lon="-0.35522">
        <ele>17.2</ele>
      </trkpt>
      <trkpt lat="44.56136" lon="-0.35514">
        <ele>16.9</ele>
      </trkpt>
      <trkpt lat="44.56141" lon="-0.35507">
        <ele>16.6</ele>
      </trkpt>
      <trkpt lat="44.56159" lon="-0.35484">
        <ele>16.4</ele>
      </trkpt>
      <trkpt lat="44.5617" lon="-0.35472">
        <ele>17.1</ele>
      </trkpt>
      <trkpt lat="44.56175" lon="-0.35466">
        <ele>17</ele>
      </trkpt>
      <trkpt lat="44.56182" lon="-0.35458">
        <ele>17.1</ele>
      </trkpt>
      <trkpt lat="44.56188" lon="-0.3545">
        <ele>17.4</ele>
      </trkpt>
      <trkpt lat="44.56196" lon="-0.35443">
        <ele>17.9</ele>
      </trkpt>
      <trkpt lat="44.5621" lon="-0.35428">
        <ele>17.1</ele>
      </trkpt>
      <trkpt lat="44.56224" lon="-0.35413">
        <ele>16.9</ele>
      </trkpt>
      <trkpt lat="44.56231" lon="-0.35406">
        <ele>16.9</ele>
      </trkpt>
      <trkpt lat="44.56272" lon="-0.35361">
        <ele>16.8</ele>
      </trkpt>
      <trkpt lat="44.56275" lon="-0.35355">
        <ele>16.5</ele>
      </trkpt>
      <trkpt lat="44.5628" lon="-0.35344">
        <ele>15.9</ele>
      </trkpt>
      <trkpt lat="44.56282" lon="-0.35334">
        <ele>15.4</ele>
      </trkpt>
      <trkpt lat="44.56284" lon="-0.35324">
        <ele>14.7</ele>
      </trkpt>
      <trkpt lat="44.56292" lon="-0.35308">
        <ele>14.2</ele>
      </trkpt>
      <trkpt lat="44.563" lon="-0.35296">
        <ele>14.1</ele>
      </trkpt>
      <trkpt lat="44.5631" lon="-0.35285">
        <ele>13</ele>
      </trkpt>
      <trkpt lat="44.56323" lon="-0.35276">
        <ele>12</ele>
      </trkpt>
      <trkpt lat="44.56346" lon="-0.35261">
        <ele>11.8</ele>
      </trkpt>
      <trkpt lat="44.56369" lon="-0.3524">
        <ele>12.4</ele>
      </trkpt>
      <trkpt lat="44.5638" lon="-0.35223">
        <ele>13.7</ele>
      </trkpt>
      <trkpt lat="44.56393" lon="-0.35194">
        <ele>13.5</ele>
      </trkpt>
      <trkpt lat="44.56401" lon="-0.35178">
        <ele>13.5</ele>
      </trkpt>
      <trkpt lat="44.56416" lon="-0.35162">
        <ele>14.1</ele>
      </trkpt>
      <trkpt lat="44.56437" lon="-0.35139">
        <ele>14.6</ele>
      </trkpt>
      <trkpt lat="44.56462" lon="-0.3509">
        <ele>15.1</ele>
      </trkpt>
      <trkpt lat="44.56468" lon="-0.35051">
        <ele>13.1</ele>
      </trkpt>
      <trkpt lat="44.56477" lon="-0.35027">
        <ele>12.1</ele>
      </trkpt>
      <trkpt lat="44.56493" lon="-0.34993">
        <ele>14</ele>
      </trkpt>
      <trkpt lat="44.56513" lon="-0.3496">
        <ele>14.2</ele>
      </trkpt>
      <trkpt lat="44.56537" lon="-0.34903">
        <ele>13.8</ele>
      </trkpt>
      <trkpt lat="44.56555" lon="-0.34844">
        <ele>14.7</ele>
      </trkpt>
      <trkpt lat="44.56568" lon="-0.34786">
        <ele>13.5</ele>
      </trkpt>
      <trkpt lat="44.56566" lon="-0.34755">
        <ele>12.9</ele>
      </trkpt>
      <trkpt lat="44.56562" lon="-0.34697">
        <ele>12</ele>
      </trkpt>
      <trkpt lat="44.56568" lon="-0.34673">
        <ele>12.1</ele>
      </trkpt>
      <trkpt lat="44.56599" lon="-0.34614">
        <ele>12.5</ele>
      </trkpt>
      <trkpt lat="44.56619" lon="-0.34542">
        <ele>10.3</ele>
      </trkpt>
      <trkpt lat="44.56652" lon="-0.34463">
        <ele>10.2</ele>
      </trkpt>
      <trkpt lat="44.56663" lon="-0.34444">
        <ele>9.4</ele>
      </trkpt>
      <trkpt lat="44.56686" lon="-0.34434">
        <ele>10.2</ele>
      </trkpt>
      <trkpt lat="44.56705" lon="-0.34424">
        <ele>10.4</ele>
      </trkpt>
      <trkpt lat="44.56744" lon="-0.34387">
        <ele>11</ele>
      </trkpt>
      <trkpt lat="44.56775" lon="-0.34362">
        <ele>10</ele>
      </trkpt>
      <trkpt lat="44.56804" lon="-0.3435">
        <ele>10.6</ele>
      </trkpt>
      <trkpt lat="44.56852" lon="-0.34324">
        <ele>10.3</ele>
      </trkpt>
      <trkpt lat="44.56895" lon="-0.34283">
        <ele>11</ele>
      </trkpt>
      <trkpt lat="44.5692" lon="-0.34252">
        <ele>11</ele>
      </trkpt>
      <trkpt lat="44.56955" lon="-0.34219">
        <ele>11</ele>
      </trkpt>
      <trkpt lat="44.56968" lon="-0.34192">
        <ele>11</ele>
      </trkpt>
      <trkpt lat="44.57001" lon="-0.34149">
        <ele>11</ele>
      </trkpt>
      <trkpt lat="44.5702" lon="-0.34124">
        <ele>11</ele>
      </trkpt>
      <trkpt lat="44.57044" lon="-0.34101">
        <ele>14.5</ele>
      </trkpt>
      <trkpt lat="44.57062" lon="-0.34091">
        <ele>17.2</ele>
      </trkpt>
      <trkpt lat="44.57073" lon="-0.34064">
        <ele>17.6</ele>
      </trkpt>
      <trkpt lat="44.57074" lon="-0.34059">
        <ele>17.6</ele>
      </trkpt>
      <trkpt lat="44.57087" lon="-0.33998">
        <ele>16.2</ele>
      </trkpt>
      <trkpt lat="44.57089" lon="-0.3399">
        <ele>16.5</ele>
      </trkpt>
      <trkpt lat="44.57094" lon="-0.33977">
        <ele>16.9</ele>
      </trkpt>
      <trkpt lat="44.57108" lon="-0.33947">
        <ele>17.7</ele>
      </trkpt>
      <trkpt lat="44.57111" lon="-0.33945">
        <ele>18</ele>
      </trkpt>
      <trkpt lat="44.57141" lon="-0.33842">
        <ele>16.1</ele>
      </trkpt>
      <trkpt lat="44.5715" lon="-0.33801">
        <ele>15.4</ele>
      </trkpt>
      <trkpt lat="44.57158" lon="-0.3375">
        <ele>15.7</ele>
      </trkpt>
      <trkpt lat="44.57168" lon="-0.33714">
        <ele>15.7</ele>
      </trkpt>
      <trkpt lat="44.57185" lon="-0.3367">
        <ele>15.1</ele>
      </trkpt>
      <trkpt lat="44.57202" lon="-0.33636">
        <ele>14.9</ele>
      </trkpt>
      <trkpt lat="44.57223" lon="-0.33602">
        <ele>14.7</ele>
      </trkpt>
      <trkpt lat="44.57246" lon="-0.33562">
        <ele>14.9</ele>
      </trkpt>
      <trkpt lat="44.5728" lon="-0.33508">
        <ele>15</ele>
      </trkpt>
      <trkpt lat="44.57288" lon="-0.33489">
        <ele>15.2</ele>
      </trkpt>
      <trkpt lat="44.57303" lon="-0.33452">
        <ele>15.9</ele>
      </trkpt>
      <trkpt lat="44.57317" lon="-0.33411">
        <ele>15.4</ele>
      </trkpt>
      <trkpt lat="44.57325" lon="-0.33391">
        <ele>15.7</ele>
      </trkpt>
      <trkpt lat="44.57354" lon="-0.33338">
        <ele>16</ele>
      </trkpt>
      <trkpt lat="44.57373" lon="-0.33303">
        <ele>16</ele>
      </trkpt>
      <trkpt lat="44.57383" lon="-0.33282">
        <ele>16</ele>
      </trkpt>
      <trkpt lat="44.57392" lon="-0.3326">
        <ele>16</ele>
      </trkpt>
      <trkpt lat="44.57406" lon="-0.33224">
        <ele>16</ele>
      </trkpt>
      <trkpt lat="44.57404" lon="-0.33223">
        <ele>16</ele>
      </trkpt>
      <trkpt lat="44.57403" lon="-0.33221">
        <ele>16</ele>
      </trkpt>
      <trkpt lat="44.57392" lon="-0.33213">
        <ele>16</ele>
      </trkpt>
      <trkpt lat="44.57357" lon="-0.33182">
        <ele>15.4</ele>
      </trkpt>
      <trkpt lat="44.5734" lon="-0.33164">
        <ele>15.2</ele>
      </trkpt>
      <trkpt lat="44.57331" lon="-0.33151">
        <ele>14.8</ele>
      </trkpt>
      <trkpt lat="44.57324" lon="-0.33135">
        <ele>14</ele>
      </trkpt>
      <trkpt lat="44.57315" lon="-0.33104">
        <ele>13</ele>
      </trkpt>
      <trkpt lat="44.57305" lon="-0.33067">
        <ele>10.3</ele>
      </trkpt>
      <trkpt lat="44.57302" lon="-0.33053">
        <ele>9.1</ele>
      </trkpt>
      <trkpt lat="44.57298" lon="-0.33033">
        <ele>9.8</ele>
      </trkpt>
      <trkpt lat="44.57294" lon="-0.33013">
        <ele>10</ele>
      </trkpt>
      <trkpt lat="44.57289" lon="-0.32991">
        <ele>10.2</ele>
      </trkpt>
      <trkpt lat="44.57281" lon="-0.32954">
        <ele>10.9</ele>
      </trkpt>
      <trkpt lat="44.57275" lon="-0.32924">
        <ele>10.2</ele>
      </trkpt>
      <trkpt lat="44.57267" lon="-0.32889">
        <ele>10</ele>
      </trkpt>
      <trkpt lat="44.57261" lon="-0.3286">
        <ele>10</ele>
      </trkpt>
      <trkpt lat="44.57252" lon="-0.32819">
        <ele>10.9</ele>
      </trkpt>
      <trkpt lat="44.57239" lon="-0.32755">
        <ele>10.1</ele>
      </trkpt>
      <trkpt lat="44.57227" lon="-0.32696">
        <ele>10</ele>
      </trkpt>
      <trkpt lat="44.5722" lon="-0.32672">
        <ele>9.9</ele>
      </trkpt>
      <trkpt lat="44.57214" lon="-0.32653">
        <ele>9.7</ele>
      </trkpt>
      <trkpt lat="44.5721" lon="-0.32645">
        <ele>9.6</ele>
      </trkpt>
      <trkpt lat="44.57204" lon="-0.32631">
        <ele>9.7</ele>
      </trkpt>
      <trkpt lat="44.5717" lon="-0.32563">
        <ele>10.6</ele>
      </trkpt>
      <trkpt lat="44.57128" lon="-0.32479">
        <ele>10.1</ele>
      </trkpt>
      <trkpt lat="44.57124" lon="-0.32472">
        <ele>10</ele>
      </trkpt>
      <trkpt lat="44.57119" lon="-0.32462">
        <ele>10.4</ele>
      </trkpt>
      <trkpt lat="44.57109" lon="-0.32437">
        <ele>12</ele>
      </trkpt>
      <trkpt lat="44.57106" lon="-0.32426">
        <ele>12.3</ele>
      </trkpt>
      <trkpt lat="44.57105" lon="-0.32421">
        <ele>12.5</ele>
      </trkpt>
      <trkpt lat="44.57109" lon="-0.32419">
        <ele>12.2</ele>
      </trkpt>
      <trkpt lat="44.57121" lon="-0.32418">
        <ele>11.6</ele>
      </trkpt>
      <trkpt lat="44.57131" lon="-0.32419">
        <ele>11.2</ele>
      </trkpt>
      <trkpt lat="44.57137" lon="-0.32417">
        <ele>11</ele>
      </trkpt>
      <trkpt lat="44.57154" lon="-0.32404">
        <ele>11.1</ele>
      </trkpt>
      <trkpt lat="44.57166" lon="-0.32392">
        <ele>11.7</ele>
      </trkpt>
      <trkpt lat="44.57178" lon="-0.32375">
        <ele>12.1</ele>
      </trkpt>
      <trkpt lat="44.57186" lon="-0.32358">
        <ele>12.6</ele>
      </trkpt>
      <trkpt lat="44.57194" lon="-0.32343">
        <ele>13.7</ele>
      </trkpt>
      <trkpt lat="44.57202" lon="-0.32328">
        <ele>14</ele>
      </trkpt>
      <trkpt lat="44.57213" lon="-0.32316">
        <ele>14</ele>
      </trkpt>
      <trkpt lat="44.57227" lon="-0.32302">
        <ele>14.3</ele>
      </trkpt>
      <trkpt lat="44.57248" lon="-0.32283">
        <ele>14.9</ele>
      </trkpt>
      <trkpt lat="44.57255" lon="-0.32279">
        <ele>15</ele>
      </trkpt>
      <trkpt lat="44.57273" lon="-0.32265">
        <ele>13.7</ele>
      </trkpt>
      <trkpt lat="44.57288" lon="-0.32255">
        <ele>14.3</ele>
      </trkpt>
      <trkpt lat="44.57296" lon="-0.3225">
        <ele>14.6</ele>
      </trkpt>
      <trkpt lat="44.57305" lon="-0.32248">
        <ele>14.1</ele>
      </trkpt>
      <trkpt lat="44.57338" lon="-0.32235">
        <ele>11.9</ele>
      </trkpt>
      <trkpt lat="44.57372" lon="-0.32218">
        <ele>11.7</ele>
      </trkpt>
      <trkpt lat="44.57386" lon="-0.32212">
        <ele>11.6</ele>
      </trkpt>
      <trkpt lat="44.57398" lon="-0.32206">
        <ele>11.8</ele>
      </trkpt>
      <trkpt lat="44.5741" lon="-0.32196">
        <ele>12.3</ele>
      </trkpt>
      <trkpt lat="44.57415" lon="-0.32189">
        <ele>12.3</ele>
      </trkpt>
      <trkpt lat="44.57418" lon="-0.32181">
        <ele>12.3</ele>
      </trkpt>
      <trkpt lat="44.57422" lon="-0.32172">
        <ele>12.3</ele>
      </trkpt>
      <trkpt lat="44.57423" lon="-0.32167">
        <ele>12.3</ele>
      </trkpt>
      <trkpt lat="44.57443" lon="-0.32151">
        <ele>10.7</ele>
      </trkpt>
      <trkpt lat="44.57463" lon="-0.32136">
        <ele>10.4</ele>
      </trkpt>
      <trkpt lat="44.5749" lon="-0.32088">
        <ele>10.7</ele>
      </trkpt>
      <trkpt lat="44.57495" lon="-0.32078">
        <ele>10.7</ele>
      </trkpt>
      <trkpt lat="44.57515" lon="-0.32039">
        <ele>11.9</ele>
      </trkpt>
      <trkpt lat="44.57529" lon="-0.32038">
        <ele>11.8</ele>
      </trkpt>
      <trkpt lat="44.57539" lon="-0.32026">
        <ele>11.5</ele>
      </trkpt>
      <trkpt lat="44.57554" lon="-0.31983">
        <ele>10.8</ele>
      </trkpt>
      <trkpt lat="44.57589" lon="-0.31937">
        <ele>9.2</ele>
      </trkpt>
      <trkpt lat="44.57613" lon="-0.31903">
        <ele>9</ele>
      </trkpt>
      <trkpt lat="44.57627" lon="-0.31864">
        <ele>8.9</ele>
      </trkpt>
      <trkpt lat="44.5764" lon="-0.31828">
        <ele>9</ele>
      </trkpt>
      <trkpt lat="44.57661" lon="-0.31802">
        <ele>9</ele>
      </trkpt>
      <trkpt lat="44.57694" lon="-0.31767">
        <ele>9</ele>
      </trkpt>
      <trkpt lat="44.57708" lon="-0.31741">
        <ele>8.5</ele>
      </trkpt>
      <trkpt lat="44.57723" lon="-0.31698">
        <ele>9</ele>
      </trkpt>
      <trkpt lat="44.57747" lon="-0.31653">
        <ele>8.9</ele>
      </trkpt>
      <trkpt lat="44.57767" lon="-0.31626">
        <ele>8.7</ele>
      </trkpt>
      <trkpt lat="44.57807" lon="-0.31603">
        <ele>8.7</ele>
      </trkpt>
      <trkpt lat="44.57875" lon="-0.31567">
        <ele>8</ele>
      </trkpt>
      <trkpt lat="44.57909" lon="-0.31543">
        <ele>8</ele>
      </trkpt>
      <trkpt lat="44.57959" lon="-0.31496">
        <ele>8</ele>
      </trkpt>
      <trkpt lat="44.57994" lon="-0.31454">
        <ele>8</ele>
      </trkpt>
      <trkpt lat="44.5806" lon="-0.31359">
        <ele>8</ele>
      </trkpt>
      <trkpt lat="44.5813" lon="-0.31273">
        <ele>8</ele>
      </trkpt>
      <trkpt lat="44.58162" lon="-0.31246">
        <ele>7.9</ele>
      </trkpt>
      <trkpt lat="44.58211" lon="-0.31212">
        <ele>8</ele>
      </trkpt>
      <trkpt lat="44.58227" lon="-0.31172">
        <ele>7.8</ele>
      </trkpt>
      <trkpt lat="44.58246" lon="-0.31123">
        <ele>7.9</ele>
      </trkpt>
      <trkpt lat="44.5826" lon="-0.31104">
        <ele>7.8</ele>
      </trkpt>
      <trkpt lat="44.58278" lon="-0.31105">
        <ele>8</ele>
      </trkpt>
      <trkpt lat="44.58302" lon="-0.31106">
        <ele>8</ele>
      </trkpt>
      <trkpt lat="44.5832" lon="-0.31103">
        <ele>7.5</ele>
      </trkpt>
      <trkpt lat="44.58362" lon="-0.31081">
        <ele>7</ele>
      </trkpt>
      <trkpt lat="44.58393" lon="-0.31089">
        <ele>7</ele>
      </trkpt>
      <trkpt lat="44.58414" lon="-0.3109">
        <ele>7</ele>
      </trkpt>
      <trkpt lat="44.58461" lon="-0.31077">
        <ele>6.8</ele>
      </trkpt>
      <trkpt lat="44.58484" lon="-0.31075">
        <ele>6.8</ele>
      </trkpt>
      <trkpt lat="44.58508" lon="-0.31081">
        <ele>7</ele>
      </trkpt>
      <trkpt lat="44.58527" lon="-0.31085">
        <ele>7</ele>
      </trkpt>
      <trkpt lat="44.58558" lon="-0.31079">
        <ele>7</ele>
      </trkpt>
      <trkpt lat="44.58628" lon="-0.31111">
        <ele>7</ele>
      </trkpt>
      <trkpt lat="44.5868" lon="-0.31128">
        <ele>7</ele>
      </trkpt>
      <trkpt lat="44.58713" lon="-0.3113">
        <ele>7</ele>
      </trkpt>
      <trkpt lat="44.58734" lon="-0.31139">
        <ele>7</ele>
      </trkpt>
      <trkpt lat="44.58777" lon="-0.31168">
        <ele>6.9</ele>
      </trkpt>
      <trkpt lat="44.58814" lon="-0.31185">
        <ele>6.5</ele>
      </trkpt>
      <trkpt lat="44.58856" lon="-0.31197">
        <ele>6.9</ele>
      </trkpt>
      <trkpt lat="44.58919" lon="-0.31229">
        <ele>6.7</ele>
      </trkpt>
      <trkpt lat="44.58999" lon="-0.31257">
        <ele>6.3</ele>
      </trkpt>
      <trkpt lat="44.59063" lon="-0.31276">
        <ele>7</ele>
      </trkpt>
      <trkpt lat="44.59105" lon="-0.31301">
        <ele>6.7</ele>
      </trkpt>
      <trkpt lat="44.5922" lon="-0.31358">
        <ele>6.2</ele>
      </trkpt>
      <trkpt lat="44.5924" lon="-0.31358">
        <ele>6.2</ele>
      </trkpt>
      <trkpt lat="44.59258" lon="-0.31358">
        <ele>6.3</ele>
      </trkpt>
      <trkpt lat="44.59281" lon="-0.31341">
        <ele>8.6</ele>
      </trkpt>
      <trkpt lat="44.593" lon="-0.31309">
        <ele>7</ele>
      </trkpt>
      <trkpt lat="44.59314" lon="-0.31259">
        <ele>9.2</ele>
      </trkpt>
      <trkpt lat="44.59338" lon="-0.31206">
        <ele>7.4</ele>
      </trkpt>
      <trkpt lat="44.59358" lon="-0.31165">
        <ele>6.2</ele>
      </trkpt>
      <trkpt lat="44.59413" lon="-0.31109">
        <ele>6.9</ele>
      </trkpt>
      <trkpt lat="44.59439" lon="-0.31084">
        <ele>7.6</ele>
      </trkpt>
      <trkpt lat="44.59484" lon="-0.31014">
        <ele>6.4</ele>
      </trkpt>
      <trkpt lat="44.59529" lon="-0.30942">
        <ele>7.8</ele>
      </trkpt>
      <trkpt lat="44.5953" lon="-0.30926">
        <ele>6.7</ele>
      </trkpt>
      <trkpt lat="44.5953" lon="-0.30907">
        <ele>6.4</ele>
      </trkpt>
      <trkpt lat="44.59525" lon="-0.30887">
        <ele>6.9</ele>
      </trkpt>
      <trkpt lat="44.59524" lon="-0.30867">
        <ele>7.4</ele>
      </trkpt>
      <trkpt lat="44.59529" lon="-0.30846">
        <ele>6.9</ele>
      </trkpt>
      <trkpt lat="44.59546" lon="-0.30824">
        <ele>6.4</ele>
      </trkpt>
      <trkpt lat="44.59527" lon="-0.30809">
        <ele>6</ele>
      </trkpt>
      <trkpt lat="44.5952" lon="-0.30803">
        <ele>5.7</ele>
      </trkpt>
      <trkpt lat="44.59497" lon="-0.30775">
        <ele>5.9</ele>
      </trkpt>
      <trkpt lat="44.59539" lon="-0.307">
        <ele>5.1</ele>
      </trkpt>
      <trkpt lat="44.59546" lon="-0.30686">
        <ele>5.2</ele>
      </trkpt>
      <trkpt lat="44.59575" lon="-0.30625">
        <ele>5.7</ele>
      </trkpt>
      <trkpt lat="44.59598" lon="-0.30566">
        <ele>5.8</ele>
      </trkpt>
      <trkpt lat="44.59608" lon="-0.3054">
        <ele>7.6</ele>
      </trkpt>
      <trkpt lat="44.59613" lon="-0.30514">
        <ele>8.4</ele>
      </trkpt>
      <trkpt lat="44.59547" lon="-0.30471">
        <ele>8.2</ele>
      </trkpt>
      <trkpt lat="44.59501" lon="-0.30442">
        <ele>9.1</ele>
      </trkpt>
      <trkpt lat="44.59522" lon="-0.30382">
        <ele>6.8</ele>
      </trkpt>
      <trkpt lat="44.59536" lon="-0.30342">
        <ele>7.8</ele>
      </trkpt>
      <trkpt lat="44.59575" lon="-0.3037">
        <ele>7</ele>
      </trkpt>
      <trkpt lat="44.59627" lon="-0.30406">
        <ele>7.7</ele>
      </trkpt>
      <trkpt lat="44.59687" lon="-0.30448">
        <ele>7.9</ele>
      </trkpt>
      <trkpt lat="44.59707" lon="-0.30461">
        <ele>7.2</ele>
      </trkpt>
      <trkpt lat="44.5973" lon="-0.30483">
        <ele>6.8</ele>
      </trkpt>
      <trkpt lat="44.59735" lon="-0.30485">
        <ele>6.6</ele>
      </trkpt>
      <trkpt lat="44.5974" lon="-0.30486">
        <ele>6.4</ele>
      </trkpt>
      <trkpt lat="44.59746" lon="-0.30483">
        <ele>6.3</ele>
      </trkpt>
      <trkpt lat="44.59753" lon="-0.30476">
        <ele>6.6</ele>
      </trkpt>
      <trkpt lat="44.59762" lon="-0.3046">
        <ele>6.6</ele>
      </trkpt>
      <trkpt lat="44.59782" lon="-0.30421">
        <ele>6.5</ele>
      </trkpt>
      <trkpt lat="44.59788" lon="-0.30408">
        <ele>6.1</ele>
      </trkpt>
      <trkpt lat="44.59821" lon="-0.30346">
        <ele>8</ele>
      </trkpt>
      <trkpt lat="44.59853" lon="-0.30285">
        <ele>8</ele>
      </trkpt>
      <trkpt lat="44.59903" lon="-0.30179">
        <ele>7.8</ele>
      </trkpt>
      <trkpt lat="44.59942" lon="-0.30097">
        <ele>8</ele>
      </trkpt>
      <trkpt lat="44.59942" lon="-0.30087">
        <ele>8</ele>
      </trkpt>
      <trkpt lat="44.59943" lon="-0.30077">
        <ele>7.8</ele>
      </trkpt>
      <trkpt lat="44.59945" lon="-0.30072">
        <ele>7.6</ele>
      </trkpt>
      <trkpt lat="44.59967" lon="-0.30032">
        <ele>6.1</ele>
      </trkpt>
      <trkpt lat="44.59968" lon="-0.30025">
        <ele>5.5</ele>
      </trkpt>
      <trkpt lat="44.59967" lon="-0.3002">
        <ele>4.7</ele>
      </trkpt>
      <trkpt lat="44.59965" lon="-0.30015">
        <ele>4.3</ele>
      </trkpt>
      <trkpt lat="44.59962" lon="-0.30011">
        <ele>4.2</ele>
      </trkpt>
      <trkpt lat="44.59886" lon="-0.29958">
        <ele>5.1</ele>
      </trkpt>
      <trkpt lat="44.59838" lon="-0.29929">
        <ele>4.6</ele>
      </trkpt>
      <trkpt lat="44.59774" lon="-0.29897">
        <ele>5.2</ele>
      </trkpt>
      <trkpt lat="44.59665" lon="-0.29859">
        <ele>6.7</ele>
      </trkpt>
      <trkpt lat="44.59628" lon="-0.29844">
        <ele>6.4</ele>
      </trkpt>
      <trkpt lat="44.59494" lon="-0.29788">
        <ele>5.5</ele>
      </trkpt>
      <trkpt lat="44.59464" lon="-0.29787">
        <ele>6.9</ele>
      </trkpt>
      <trkpt lat="44.5944" lon="-0.29778">
        <ele>7.2</ele>
      </trkpt>
      <trkpt lat="44.594" lon="-0.29762">
        <ele>6.3</ele>
      </trkpt>
      <trkpt lat="44.59352" lon="-0.29751">
        <ele>8</ele>
      </trkpt>
      <trkpt lat="44.5934" lon="-0.29751">
        <ele>8</ele>
      </trkpt>
      <trkpt lat="44.5932" lon="-0.29769">
        <ele>8</ele>
      </trkpt>
      <trkpt lat="44.59252" lon="-0.29715">
        <ele>8.6</ele>
      </trkpt>
      <trkpt lat="44.59181" lon="-0.29658">
        <ele>7.3</ele>
      </trkpt>
      <trkpt lat="44.59136" lon="-0.29622">
        <ele>7.8</ele>
      </trkpt>
      <trkpt lat="44.59087" lon="-0.29583">
        <ele>7.6</ele>
      </trkpt>
      <trkpt lat="44.59009" lon="-0.29524">
        <ele>6.8</ele>
      </trkpt>
      <trkpt lat="44.58988" lon="-0.29507">
        <ele>6.3</ele>
      </trkpt>
      <trkpt lat="44.58976" lon="-0.29497">
        <ele>6.9</ele>
      </trkpt>
      <trkpt lat="44.58944" lon="-0.29474">
        <ele>7.1</ele>
      </trkpt>
      <trkpt lat="44.58936" lon="-0.29466">
        <ele>6.2</ele>
      </trkpt>
      <trkpt lat="44.58932" lon="-0.29461">
        <ele>5.9</ele>
      </trkpt>
      <trkpt lat="44.589" lon="-0.29447">
        <ele>7.6</ele>
      </trkpt>
      <trkpt lat="44.58888" lon="-0.29443">
        <ele>7.8</ele>
      </trkpt>
      <trkpt lat="44.58866" lon="-0.29429">
        <ele>8</ele>
      </trkpt>
      <trkpt lat="44.58834" lon="-0.29408">
        <ele>7.7</ele>
      </trkpt>
      <trkpt lat="44.58825" lon="-0.29402">
        <ele>7.1</ele>
      </trkpt>
      <trkpt lat="44.58806" lon="-0.29392">
        <ele>7.8</ele>
      </trkpt>
      <trkpt lat="44.5879" lon="-0.29385">
        <ele>7.8</ele>
      </trkpt>
      <trkpt lat="44.5878" lon="-0.29381">
        <ele>7.5</ele>
      </trkpt>
      <trkpt lat="44.58765" lon="-0.29379">
        <ele>7</ele>
      </trkpt>
      <trkpt lat="44.58754" lon="-0.29377">
        <ele>6.5</ele>
      </trkpt>
      <trkpt lat="44.58744" lon="-0.29379">
        <ele>6.6</ele>
      </trkpt>
      <trkpt lat="44.58739" lon="-0.2938">
        <ele>6.7</ele>
      </trkpt>
      <trkpt lat="44.58727" lon="-0.29383">
        <ele>6.8</ele>
      </trkpt>
      <trkpt lat="44.58715" lon="-0.29384">
        <ele>7.1</ele>
      </trkpt>
      <trkpt lat="44.58709" lon="-0.29384">
        <ele>7.1</ele>
      </trkpt>
      <trkpt lat="44.58703" lon="-0.29383">
        <ele>7.1</ele>
      </trkpt>
      <trkpt lat="44.58699" lon="-0.29382">
        <ele>7</ele>
      </trkpt>
      <trkpt lat="44.58676" lon="-0.29377">
        <ele>6.9</ele>
      </trkpt>
      <trkpt lat="44.58667" lon="-0.29375">
        <ele>6.9</ele>
      </trkpt>
      <trkpt lat="44.5866" lon="-0.29372">
        <ele>6.9</ele>
      </trkpt>
      <trkpt lat="44.58623" lon="-0.29359">
        <ele>7.6</ele>
      </trkpt>
      <trkpt lat="44.586" lon="-0.29342">
        <ele>6.1</ele>
      </trkpt>
      <trkpt lat="44.58579" lon="-0.29324">
        <ele>6.1</ele>
      </trkpt>
      <trkpt lat="44.58565" lon="-0.29319">
        <ele>7.4</ele>
      </trkpt>
      <trkpt lat="44.58562" lon="-0.29316">
        <ele>7.5</ele>
      </trkpt>
      <trkpt lat="44.58546" lon="-0.29296">
        <ele>7.3</ele>
      </trkpt>
      <trkpt lat="44.5852" lon="-0.29256">
        <ele>7.3</ele>
      </trkpt>
      <trkpt lat="44.58516" lon="-0.2925">
        <ele>7.3</ele>
      </trkpt>
      <trkpt lat="44.58496" lon="-0.29217">
        <ele>6.4</ele>
      </trkpt>
      <trkpt lat="44.58464" lon="-0.29172">
        <ele>7.4</ele>
      </trkpt>
      <trkpt lat="44.58451" lon="-0.29145">
        <ele>7</ele>
      </trkpt>
      <trkpt lat="44.58438" lon="-0.29117">
        <ele>6.8</ele>
      </trkpt>
      <trkpt lat="44.5842" lon="-0.29088">
        <ele>7.4</ele>
      </trkpt>
      <trkpt lat="44.58392" lon="-0.29045">
        <ele>8.1</ele>
      </trkpt>
      <trkpt lat="44.58377" lon="-0.29023">
        <ele>7.7</ele>
      </trkpt>
      <trkpt lat="44.58363" lon="-0.29004">
        <ele>8.6</ele>
      </trkpt>
      <trkpt lat="44.58276" lon="-0.28839">
        <ele>8</ele>
      </trkpt>
      <trkpt lat="44.5826" lon="-0.28804">
        <ele>8.6</ele>
      </trkpt>
      <trkpt lat="44.58243" lon="-0.28784">
        <ele>8.2</ele>
      </trkpt>
      <trkpt lat="44.5821" lon="-0.28748">
        <ele>8</ele>
      </trkpt>
      <trkpt lat="44.58147" lon="-0.28684">
        <ele>8.4</ele>
      </trkpt>
      <trkpt lat="44.58184" lon="-0.2861">
        <ele>7</ele>
      </trkpt>
      <trkpt lat="44.58179" lon="-0.28599">
        <ele>6.3</ele>
      </trkpt>
      <trkpt lat="44.58147" lon="-0.28575">
        <ele>6.9</ele>
      </trkpt>
      <trkpt lat="44.58109" lon="-0.28551">
        <ele>6.4</ele>
      </trkpt>
      <trkpt lat="44.58039" lon="-0.28534">
        <ele>6.4</ele>
      </trkpt>
      <trkpt lat="44.58011" lon="-0.28533">
        <ele>6</ele>
      </trkpt>
      <trkpt lat="44.5797" lon="-0.28554">
        <ele>6.6</ele>
      </trkpt>
      <trkpt lat="44.57907" lon="-0.28593">
        <ele>6.1</ele>
      </trkpt>
      <trkpt lat="44.57862" lon="-0.28634">
        <ele>8.2</ele>
      </trkpt>
      <trkpt lat="44.5783" lon="-0.28656">
        <ele>7.1</ele>
      </trkpt>
      <trkpt lat="44.57772" lon="-0.28663">
        <ele>6.8</ele>
      </trkpt>
      <trkpt lat="44.57729" lon="-0.28666">
        <ele>7.8</ele>
      </trkpt>
      <trkpt lat="44.57687" lon="-0.28643">
        <ele>6.6</ele>
      </trkpt>
      <trkpt lat="44.57648" lon="-0.28621">
        <ele>7.5</ele>
      </trkpt>
      <trkpt lat="44.57608" lon="-0.28577">
        <ele>7.5</ele>
      </trkpt>
      <trkpt lat="44.57564" lon="-0.2851">
        <ele>7.7</ele>
      </trkpt>
      <trkpt lat="44.57535" lon="-0.28461">
        <ele>7.8</ele>
      </trkpt>
      <trkpt lat="44.57512" lon="-0.28427">
        <ele>7.2</ele>
      </trkpt>
      <trkpt lat="44.57476" lon="-0.28397">
        <ele>7.9</ele>
      </trkpt>
      <trkpt lat="44.5746" lon="-0.28384">
        <ele>7.9</ele>
      </trkpt>
      <trkpt lat="44.57427" lon="-0.28352">
        <ele>7.5</ele>
      </trkpt>
      <trkpt lat="44.57363" lon="-0.28291">
        <ele>7.8</ele>
      </trkpt>
      <trkpt lat="44.57346" lon="-0.28268">
        <ele>7.9</ele>
      </trkpt>
      <trkpt lat="44.57332" lon="-0.28226">
        <ele>6.5</ele>
      </trkpt>
      <trkpt lat="44.57321" lon="-0.28128">
        <ele>6.2</ele>
      </trkpt>
      <trkpt lat="44.57328" lon="-0.28084">
        <ele>6.5</ele>
      </trkpt>
      <trkpt lat="44.57357" lon="-0.28008">
        <ele>6.6</ele>
      </trkpt>
      <trkpt lat="44.57377" lon="-0.27983">
        <ele>5.7</ele>
      </trkpt>
      <trkpt lat="44.57386" lon="-0.27971">
        <ele>4.5</ele>
      </trkpt>
      <trkpt lat="44.57427" lon="-0.27883">
        <ele>6.8</ele>
      </trkpt>
      <trkpt lat="44.57433" lon="-0.2786">
        <ele>6.6</ele>
      </trkpt>
      <trkpt lat="44.57434" lon="-0.27829">
        <ele>5.9</ele>
      </trkpt>
      <trkpt lat="44.57428" lon="-0.27783">
        <ele>7</ele>
      </trkpt>
      <trkpt lat="44.57417" lon="-0.27746">
        <ele>7.6</ele>
      </trkpt>
      <trkpt lat="44.57384" lon="-0.27664">
        <ele>7.2</ele>
      </trkpt>
      <trkpt lat="44.57351" lon="-0.27583">
        <ele>6.9</ele>
      </trkpt>
      <trkpt lat="44.5732" lon="-0.27493">
        <ele>6.8</ele>
      </trkpt>
      <trkpt lat="44.57301" lon="-0.27432">
        <ele>7.8</ele>
      </trkpt>
      <trkpt lat="44.57299" lon="-0.27394">
        <ele>6.8</ele>
      </trkpt>
      <trkpt lat="44.573" lon="-0.27374">
        <ele>6.2</ele>
      </trkpt>
      <trkpt lat="44.57296" lon="-0.27353">
        <ele>6.1</ele>
      </trkpt>
      <trkpt lat="44.5728" lon="-0.27312">
        <ele>7.7</ele>
      </trkpt>
      <trkpt lat="44.57264" lon="-0.27285">
        <ele>7.5</ele>
      </trkpt>
      <trkpt lat="44.57249" lon="-0.27269">
        <ele>7.9</ele>
      </trkpt>
      <trkpt lat="44.57233" lon="-0.27252">
        <ele>7.6</ele>
      </trkpt>
      <trkpt lat="44.57204" lon="-0.27217">
        <ele>7</ele>
      </trkpt>
      <trkpt lat="44.57176" lon="-0.2717">
        <ele>7.4</ele>
      </trkpt>
      <trkpt lat="44.57155" lon="-0.27115">
        <ele>6.3</ele>
      </trkpt>
      <trkpt lat="44.5714" lon="-0.27064">
        <ele>8.2</ele>
      </trkpt>
      <trkpt lat="44.57127" lon="-0.27017">
        <ele>6.4</ele>
      </trkpt>
      <trkpt lat="44.57117" lon="-0.26959">
        <ele>8.2</ele>
      </trkpt>
      <trkpt lat="44.57111" lon="-0.26949">
        <ele>8.3</ele>
      </trkpt>
      <trkpt lat="44.57106" lon="-0.26908">
        <ele>7.3</ele>
      </trkpt>
      <trkpt lat="44.57108" lon="-0.26866">
        <ele>7.1</ele>
      </trkpt>
      <trkpt lat="44.57104" lon="-0.26842">
        <ele>5.7</ele>
      </trkpt>
      <trkpt lat="44.57084" lon="-0.26795">
        <ele>7.9</ele>
      </trkpt>
      <trkpt lat="44.57069" lon="-0.26763">
        <ele>6.5</ele>
      </trkpt>
      <trkpt lat="44.57043" lon="-0.26726">
        <ele>6.1</ele>
      </trkpt>
      <trkpt lat="44.57004" lon="-0.26666">
        <ele>7</ele>
      </trkpt>
      <trkpt lat="44.56964" lon="-0.26607">
        <ele>7.7</ele>
      </trkpt>
      <trkpt lat="44.56927" lon="-0.26556">
        <ele>6.6</ele>
      </trkpt>
      <trkpt lat="44.56894" lon="-0.26502">
        <ele>6.3</ele>
      </trkpt>
      <trkpt lat="44.56833" lon="-0.26407">
        <ele>5.6</ele>
      </trkpt>
      <trkpt lat="44.56809" lon="-0.26367">
        <ele>6.3</ele>
      </trkpt>
      <trkpt lat="44.56797" lon="-0.26351">
        <ele>5.6</ele>
      </trkpt>
      <trkpt lat="44.56775" lon="-0.26322">
        <ele>5.7</ele>
      </trkpt>
      <trkpt lat="44.56714" lon="-0.26245">
        <ele>5.6</ele>
      </trkpt>
      <trkpt lat="44.56637" lon="-0.26139">
        <ele>7</ele>
      </trkpt>
      <trkpt lat="44.56597" lon="-0.26094">
        <ele>6.2</ele>
      </trkpt>
      <trkpt lat="44.56562" lon="-0.26061">
        <ele>6.7</ele>
      </trkpt>
      <trkpt lat="44.56535" lon="-0.26037">
        <ele>7</ele>
      </trkpt>
      <trkpt lat="44.565" lon="-0.25988">
        <ele>7</ele>
      </trkpt>
      <trkpt lat="44.56443" lon="-0.2591">
        <ele>6.2</ele>
      </trkpt>
      <trkpt lat="44.56425" lon="-0.25889">
        <ele>5.9</ele>
      </trkpt>
      <trkpt lat="44.56394" lon="-0.25855">
        <ele>5.7</ele>
      </trkpt>
      <trkpt lat="44.56383" lon="-0.25844">
        <ele>5.6</ele>
      </trkpt>
      <trkpt lat="44.56373" lon="-0.25837">
        <ele>6</ele>
      </trkpt>
      <trkpt lat="44.56347" lon="-0.25817">
        <ele>6.3</ele>
      </trkpt>
      <trkpt lat="44.56338" lon="-0.25805">
        <ele>6.5</ele>
      </trkpt>
      <trkpt lat="44.56325" lon="-0.25792">
        <ele>6.3</ele>
      </trkpt>
      <trkpt lat="44.56315" lon="-0.25784">
        <ele>6.8</ele>
      </trkpt>
      <trkpt lat="44.56302" lon="-0.25775">
        <ele>7.6</ele>
      </trkpt>
      <trkpt lat="44.56294" lon="-0.25776">
        <ele>7.8</ele>
      </trkpt>
      <trkpt lat="44.56288" lon="-0.25779">
        <ele>8</ele>
      </trkpt>
      <trkpt lat="44.56278" lon="-0.25786">
        <ele>8.3</ele>
      </trkpt>
      <trkpt lat="44.56267" lon="-0.25764">
        <ele>8.2</ele>
      </trkpt>
      <trkpt lat="44.56253" lon="-0.2573">
        <ele>7.7</ele>
      </trkpt>
      <trkpt lat="44.56242" lon="-0.25713">
        <ele>7.4</ele>
      </trkpt>
      <trkpt lat="44.56213" lon="-0.25669">
        <ele>8.2</ele>
      </trkpt>
      <trkpt lat="44.56199" lon="-0.25652">
        <ele>8.5</ele>
      </trkpt>
      <trkpt lat="44.56153" lon="-0.25598">
        <ele>8.1</ele>
      </trkpt>
      <trkpt lat="44.56138" lon="-0.25582">
        <ele>8.7</ele>
      </trkpt>
      <trkpt lat="44.56127" lon="-0.25571">
        <ele>8.6</ele>
      </trkpt>
      <trkpt lat="44.56127" lon="-0.25591">
        <ele>11.3</ele>
      </trkpt>
      <trkpt lat="44.56129" lon="-0.25615">
        <ele>13.4</ele>
      </trkpt>
      <trkpt lat="44.56129" lon="-0.25622">
        <ele>14.2</ele>
      </trkpt>
      <trkpt lat="44.56127" lon="-0.25632">
        <ele>15.2</ele>
      </trkpt>
      <trkpt lat="44.5612" lon="-0.25644">
        <ele>16</ele>
      </trkpt>
      <trkpt lat="44.56112" lon="-0.25656">
        <ele>16</ele>
      </trkpt>
      <trkpt lat="44.56094" lon="-0.25677">
        <ele>17.8</ele>
      </trkpt>
      <trkpt lat="44.56086" lon="-0.25687">
        <ele>18.8</ele>
      </trkpt>
      <trkpt lat="44.56076" lon="-0.25697">
        <ele>19.9</ele>
      </trkpt>
      <trkpt lat="44.56054" lon="-0.25657">
        <ele>20.7</ele>
      </trkpt>
      <trkpt lat="44.56041" lon="-0.25632">
        <ele>20.9</ele>
      </trkpt>
      <trkpt lat="44.56036" lon="-0.25621">
        <ele>20.9</ele>
      </trkpt>
      <trkpt lat="44.56013" lon="-0.25575">
        <ele>20.9</ele>
      </trkpt>
      <trkpt lat="44.55972" lon="-0.25501">
        <ele>21</ele>
      </trkpt>
      <trkpt lat="44.55968" lon="-0.25494">
        <ele>20.8</ele>
      </trkpt>
      <trkpt lat="44.55957" lon="-0.25475">
        <ele>20.6</ele>
      </trkpt>
      <trkpt lat="44.55947" lon="-0.2546">
        <ele>20.4</ele>
      </trkpt>
      <trkpt lat="44.55939" lon="-0.25449">
        <ele>20.3</ele>
      </trkpt>
      <trkpt lat="44.55908" lon="-0.25406">
        <ele>18.9</ele>
      </trkpt>
      <trkpt lat="44.55884" lon="-0.25373">
        <ele>18.6</ele>
      </trkpt>
      <trkpt lat="44.55815" lon="-0.25274">
        <ele>15.4</ele>
      </trkpt>
      <trkpt lat="44.5579" lon="-0.25235">
        <ele>18.6</ele>
      </trkpt>
      <trkpt lat="44.55786" lon="-0.25229">
        <ele>18.5</ele>
      </trkpt>
      <trkpt lat="44.55778" lon="-0.25213">
        <ele>17.3</ele>
      </trkpt>
      <trkpt lat="44.55765" lon="-0.25189">
        <ele>15.9</ele>
      </trkpt>
      <trkpt lat="44.55745" lon="-0.25148">
        <ele>14.1</ele>
      </trkpt>
      <trkpt lat="44.55727" lon="-0.25102">
        <ele>13.9</ele>
      </trkpt>
      <trkpt lat="44.55713" lon="-0.25063">
        <ele>13.5</ele>
      </trkpt>
      <trkpt lat="44.557" lon="-0.25014">
        <ele>13.4</ele>
      </trkpt>
      <trkpt lat="44.55696" lon="-0.25002">
        <ele>13.9</ele>
      </trkpt>
      <trkpt lat="44.55693" lon="-0.24992">
        <ele>13.8</ele>
      </trkpt>
      <trkpt lat="44.55682" lon="-0.24965">
        <ele>14.5</ele>
      </trkpt>
      <trkpt lat="44.55667" lon="-0.24933">
        <ele>16</ele>
      </trkpt>
      <trkpt lat="44.55663" lon="-0.24923">
        <ele>16</ele>
      </trkpt>
      <trkpt lat="44.55656" lon="-0.24903">
        <ele>15.7</ele>
      </trkpt>
      <trkpt lat="44.55652" lon="-0.24892">
        <ele>15.6</ele>
      </trkpt>
      <trkpt lat="44.55633" lon="-0.24831">
        <ele>15.1</ele>
      </trkpt>
      <trkpt lat="44.55624" lon="-0.248">
        <ele>14.4</ele>
      </trkpt>
      <trkpt lat="44.55616" lon="-0.24769">
        <ele>13.9</ele>
      </trkpt>
      <trkpt lat="44.55614" lon="-0.24758">
        <ele>13.3</ele>
      </trkpt>
      <trkpt lat="44.55614" lon="-0.24749">
        <ele>12.7</ele>
      </trkpt>
      <trkpt lat="44.55612" lon="-0.24674">
        <ele>11.1</ele>
      </trkpt>
      <trkpt lat="44.55612" lon="-0.24669">
        <ele>10.9</ele>
      </trkpt>
      <trkpt lat="44.55612" lon="-0.24659">
        <ele>10.5</ele>
      </trkpt>
      <trkpt lat="44.55612" lon="-0.24628">
        <ele>9.9</ele>
      </trkpt>
      <trkpt lat="44.55612" lon="-0.24618">
        <ele>9.9</ele>
      </trkpt>
      <trkpt lat="44.55614" lon="-0.2461">
        <ele>9.8</ele>
      </trkpt>
      <trkpt lat="44.55615" lon="-0.24608">
        <ele>9.7</ele>
      </trkpt>
      <trkpt lat="44.55616" lon="-0.24603">
        <ele>9.6</ele>
      </trkpt>
      <trkpt lat="44.55618" lon="-0.24597">
        <ele>9.4</ele>
      </trkpt>
      <trkpt lat="44.55619" lon="-0.2459">
        <ele>9.2</ele>
      </trkpt>
      <trkpt lat="44.55619" lon="-0.24579">
        <ele>9.1</ele>
      </trkpt>
      <trkpt lat="44.55613" lon="-0.24544">
        <ele>9.8</ele>
      </trkpt>
      <trkpt lat="44.55609" lon="-0.24527">
        <ele>10.2</ele>
      </trkpt>
      <trkpt lat="44.55592" lon="-0.24451">
        <ele>10.8</ele>
      </trkpt>
      <trkpt lat="44.5558" lon="-0.24397">
        <ele>11.2</ele>
      </trkpt>
      <trkpt lat="44.55568" lon="-0.24343">
        <ele>10.7</ele>
      </trkpt>
      <trkpt lat="44.55581" lon="-0.24335">
        <ele>10.1</ele>
      </trkpt>
      <trkpt lat="44.55595" lon="-0.24326">
        <ele>9.7</ele>
      </trkpt>
      <trkpt lat="44.55631" lon="-0.24302">
        <ele>9</ele>
      </trkpt>
      <trkpt lat="44.5564" lon="-0.24293">
        <ele>8.9</ele>
      </trkpt>
      <trkpt lat="44.55646" lon="-0.24286">
        <ele>8.5</ele>
      </trkpt>
      <trkpt lat="44.5565" lon="-0.24279">
        <ele>8.2</ele>
      </trkpt>
      <trkpt lat="44.55654" lon="-0.2427">
        <ele>8.1</ele>
      </trkpt>
      <trkpt lat="44.55667" lon="-0.24235">
        <ele>8.6</ele>
      </trkpt>
      <trkpt lat="44.55686" lon="-0.24162">
        <ele>8.4</ele>
      </trkpt>
      <trkpt lat="44.55693" lon="-0.24129">
        <ele>9</ele>
      </trkpt>
      <trkpt lat="44.55695" lon="-0.24115">
        <ele>9</ele>
      </trkpt>
      <trkpt lat="44.55695" lon="-0.241">
        <ele>9</ele>
      </trkpt>
      <trkpt lat="44.55694" lon="-0.24084">
        <ele>9</ele>
      </trkpt>
      <trkpt lat="44.55692" lon="-0.24069">
        <ele>9</ele>
      </trkpt>
      <trkpt lat="44.55688" lon="-0.24023">
        <ele>9.5</ele>
      </trkpt>
      <trkpt lat="44.55683" lon="-0.23964">
        <ele>8.4</ele>
      </trkpt>
      <trkpt lat="44.55678" lon="-0.23933">
        <ele>8.9</ele>
      </trkpt>
      <trkpt lat="44.55673" lon="-0.23909">
        <ele>9.1</ele>
      </trkpt>
      <trkpt lat="44.5567" lon="-0.239">
        <ele>9.4</ele>
      </trkpt>
      <trkpt lat="44.5566" lon="-0.23873">
        <ele>8.9</ele>
      </trkpt>
      <trkpt lat="44.55645" lon="-0.23844">
        <ele>9.2</ele>
      </trkpt>
      <trkpt lat="44.55627" lon="-0.23819">
        <ele>9.8</ele>
      </trkpt>
      <trkpt lat="44.55612" lon="-0.23806">
        <ele>10</ele>
      </trkpt>
      <trkpt lat="44.55608" lon="-0.23804">
        <ele>9.8</ele>
      </trkpt>
      <trkpt lat="44.55594" lon="-0.23795">
        <ele>9.3</ele>
      </trkpt>
      <trkpt lat="44.55576" lon="-0.23788">
        <ele>9.6</ele>
      </trkpt>
      <trkpt lat="44.55559" lon="-0.23783">
        <ele>9.8</ele>
      </trkpt>
      <trkpt lat="44.55545" lon="-0.23782">
        <ele>9.9</ele>
      </trkpt>
      <trkpt lat="44.55522" lon="-0.23783">
        <ele>9.8</ele>
      </trkpt>
      <trkpt lat="44.55502" lon="-0.23785">
        <ele>9.5</ele>
      </trkpt>
      <trkpt lat="44.55482" lon="-0.23791">
        <ele>9.7</ele>
      </trkpt>
      <trkpt lat="44.55485" lon="-0.23772">
        <ele>10.6</ele>
      </trkpt>
      <trkpt lat="44.55491" lon="-0.23742">
        <ele>10.2</ele>
      </trkpt>
      <trkpt lat="44.55491" lon="-0.23734">
        <ele>10.1</ele>
      </trkpt>
      <trkpt lat="44.55491" lon="-0.23721">
        <ele>10</ele>
      </trkpt>
      <trkpt lat="44.55489" lon="-0.23706">
        <ele>10.2</ele>
      </trkpt>
      <trkpt lat="44.55484" lon="-0.23666">
        <ele>10.7</ele>
      </trkpt>
      <trkpt lat="44.55482" lon="-0.23609">
        <ele>10.3</ele>
      </trkpt>
      <trkpt lat="44.55482" lon="-0.23525">
        <ele>9.6</ele>
      </trkpt>
      <trkpt lat="44.5548" lon="-0.23487">
        <ele>9.5</ele>
      </trkpt>
      <trkpt lat="44.55478" lon="-0.23374">
        <ele>8.8</ele>
      </trkpt>
      <trkpt lat="44.5548" lon="-0.23324">
        <ele>8.8</ele>
      </trkpt>
      <trkpt lat="44.55488" lon="-0.23193">
        <ele>9</ele>
      </trkpt>
      <trkpt lat="44.5549" lon="-0.23159">
        <ele>9</ele>
      </trkpt>
      <trkpt lat="44.5549" lon="-0.23151">
        <ele>9</ele>
      </trkpt>
      <trkpt lat="44.55489" lon="-0.23144">
        <ele>9</ele>
      </trkpt>
      <trkpt lat="44.55484" lon="-0.23137">
        <ele>9</ele>
      </trkpt>
      <trkpt lat="44.5543" lon="-0.23101">
        <ele>9.3</ele>
      </trkpt>
      <trkpt lat="44.55425" lon="-0.23099">
        <ele>9.4</ele>
      </trkpt>
      <trkpt lat="44.55419" lon="-0.23098">
        <ele>9.5</ele>
      </trkpt>
      <trkpt lat="44.55382" lon="-0.231">
        <ele>10</ele>
      </trkpt>
      <trkpt lat="44.55332" lon="-0.23104">
        <ele>11.1</ele>
      </trkpt>
      <trkpt lat="44.55314" lon="-0.23105">
        <ele>12.4</ele>
      </trkpt>
      <trkpt lat="44.55315" lon="-0.23027">
        <ele>11.3</ele>
      </trkpt>
      <trkpt lat="44.55316" lon="-0.23004">
        <ele>10.7</ele>
      </trkpt>
      <trkpt lat="44.55321" lon="-0.22975">
        <ele>10.4</ele>
      </trkpt>
      <trkpt lat="44.55322" lon="-0.22973">
        <ele>10.4</ele>
      </trkpt>
      <trkpt lat="44.55324" lon="-0.22964">
        <ele>10.3</ele>
      </trkpt>
      <trkpt lat="44.55334" lon="-0.22931">
        <ele>10</ele>
      </trkpt>
      <trkpt lat="44.55342" lon="-0.2291">
        <ele>10.2</ele>
      </trkpt>
      <trkpt lat="44.55361" lon="-0.22914">
        <ele>10.9</ele>
      </trkpt>
      <trkpt lat="44.55383" lon="-0.22915">
        <ele>10.2</ele>
      </trkpt>
      <trkpt lat="44.55419" lon="-0.22914">
        <ele>9.8</ele>
      </trkpt>
      <trkpt lat="44.55483" lon="-0.22905">
        <ele>8.8</ele>
      </trkpt>
      <trkpt lat="44.55534" lon="-0.22896">
        <ele>9</ele>
      </trkpt>
      <trkpt lat="44.5555" lon="-0.2289">
        <ele>9</ele>
      </trkpt>
      <trkpt lat="44.55582" lon="-0.22876">
        <ele>9</ele>
      </trkpt>
      <trkpt lat="44.55599" lon="-0.22871">
        <ele>9.4</ele>
      </trkpt>
      <trkpt lat="44.55626" lon="-0.22866">
        <ele>9.4</ele>
      </trkpt>
      <trkpt lat="44.55661" lon="-0.2286">
        <ele>9</ele>
      </trkpt>
      <trkpt lat="44.55699" lon="-0.22854">
        <ele>9.7</ele>
      </trkpt>
      <trkpt lat="44.55721" lon="-0.22848">
        <ele>9.5</ele>
      </trkpt>
      <trkpt lat="44.55758" lon="-0.22828">
        <ele>9.8</ele>
      </trkpt>
      <trkpt lat="44.55798" lon="-0.22807">
        <ele>9.3</ele>
      </trkpt>
      <trkpt lat="44.55834" lon="-0.22791">
        <ele>9</ele>
      </trkpt>
      <trkpt lat="44.55885" lon="-0.22773">
        <ele>10</ele>
      </trkpt>
      <trkpt lat="44.55893" lon="-0.2277">
        <ele>9.6</ele>
      </trkpt>
      <trkpt lat="44.55897" lon="-0.22766">
        <ele>9.1</ele>
      </trkpt>
      <trkpt lat="44.55901" lon="-0.22761">
        <ele>8.7</ele>
      </trkpt>
      <trkpt lat="44.55928" lon="-0.2264">
        <ele>8.8</ele>
      </trkpt>
      <trkpt lat="44.55943" lon="-0.22566">
        <ele>9.6</ele>
      </trkpt>
      <trkpt lat="44.55955" lon="-0.22513">
        <ele>9.4</ele>
      </trkpt>
      <trkpt lat="44.55963" lon="-0.22478">
        <ele>9.3</ele>
      </trkpt>
      <trkpt lat="44.55967" lon="-0.22453">
        <ele>9.2</ele>
      </trkpt>
      <trkpt lat="44.55971" lon="-0.22418">
        <ele>9.9</ele>
      </trkpt>
      <trkpt lat="44.55976" lon="-0.22393">
        <ele>9.7</ele>
      </trkpt>
      <trkpt lat="44.55988" lon="-0.22343">
        <ele>9.4</ele>
      </trkpt>
      <trkpt lat="44.55994" lon="-0.22308">
        <ele>9</ele>
      </trkpt>
      <trkpt lat="44.56001" lon="-0.22258">
        <ele>9.6</ele>
      </trkpt>
      <trkpt lat="44.56006" lon="-0.22207">
        <ele>9.3</ele>
      </trkpt>
      <trkpt lat="44.56011" lon="-0.22172">
        <ele>8.8</ele>
      </trkpt>
      <trkpt lat="44.56019" lon="-0.22125">
        <ele>8.6</ele>
      </trkpt>
      <trkpt lat="44.56034" lon="-0.22055">
        <ele>9.1</ele>
      </trkpt>
      <trkpt lat="44.56043" lon="-0.22015">
        <ele>8.3</ele>
      </trkpt>
      <trkpt lat="44.56054" lon="-0.21976">
        <ele>8.9</ele>
      </trkpt>
      <trkpt lat="44.56062" lon="-0.21945">
        <ele>9.1</ele>
      </trkpt>
      <trkpt lat="44.56066" lon="-0.21927">
        <ele>8.7</ele>
      </trkpt>
      <trkpt lat="44.56074" lon="-0.21889">
        <ele>10</ele>
      </trkpt>
      <trkpt lat="44.56077" lon="-0.21873">
        <ele>9.6</ele>
      </trkpt>
      <trkpt lat="44.5608" lon="-0.21861">
        <ele>9.1</ele>
      </trkpt>
      <trkpt lat="44.56082" lon="-0.21844">
        <ele>9.1</ele>
      </trkpt>
      <trkpt lat="44.56086" lon="-0.21778">
        <ele>9.8</ele>
      </trkpt>
      <trkpt lat="44.5609" lon="-0.21708">
        <ele>9.5</ele>
      </trkpt>
      <trkpt lat="44.56094" lon="-0.21665">
        <ele>9.6</ele>
      </trkpt>
      <trkpt lat="44.56096" lon="-0.21642">
        <ele>9.5</ele>
      </trkpt>
      <trkpt lat="44.561" lon="-0.21617">
        <ele>8.8</ele>
      </trkpt>
      <trkpt lat="44.56113" lon="-0.21533">
        <ele>8.9</ele>
      </trkpt>
      <trkpt lat="44.56119" lon="-0.21503">
        <ele>9.4</ele>
      </trkpt>
      <trkpt lat="44.56124" lon="-0.21475">
        <ele>9.1</ele>
      </trkpt>
      <trkpt lat="44.5613" lon="-0.21452">
        <ele>9.1</ele>
      </trkpt>
      <trkpt lat="44.56136" lon="-0.21433">
        <ele>9.1</ele>
      </trkpt>
      <trkpt lat="44.56144" lon="-0.21411">
        <ele>8.8</ele>
      </trkpt>
      <trkpt lat="44.56159" lon="-0.21368">
        <ele>9</ele>
      </trkpt>
      <trkpt lat="44.56175" lon="-0.2131">
        <ele>8.7</ele>
      </trkpt>
      <trkpt lat="44.56181" lon="-0.21283">
        <ele>8.5</ele>
      </trkpt>
      <trkpt lat="44.56186" lon="-0.2126">
        <ele>8.7</ele>
      </trkpt>
      <trkpt lat="44.5619" lon="-0.21236">
        <ele>8.6</ele>
      </trkpt>
      <trkpt lat="44.56194" lon="-0.21208">
        <ele>8.5</ele>
      </trkpt>
      <trkpt lat="44.56198" lon="-0.21173">
        <ele>8.9</ele>
      </trkpt>
      <trkpt lat="44.56201" lon="-0.21139">
        <ele>8.8</ele>
      </trkpt>
      <trkpt lat="44.56203" lon="-0.21107">
        <ele>8.7</ele>
      </trkpt>
      <trkpt lat="44.56202" lon="-0.21084">
        <ele>8.7</ele>
      </trkpt>
      <trkpt lat="44.56201" lon="-0.21065">
        <ele>9.3</ele>
      </trkpt>
      <trkpt lat="44.56198" lon="-0.21047">
        <ele>9.7</ele>
      </trkpt>
      <trkpt lat="44.56194" lon="-0.21023">
        <ele>10</ele>
      </trkpt>
      <trkpt lat="44.56189" lon="-0.20968">
        <ele>10</ele>
      </trkpt>
      <trkpt lat="44.56185" lon="-0.20922">
        <ele>10</ele>
      </trkpt>
      <trkpt lat="44.56183" lon="-0.20867">
        <ele>10</ele>
      </trkpt>
      <trkpt lat="44.5618" lon="-0.20822">
        <ele>10</ele>
      </trkpt>
      <trkpt lat="44.56177" lon="-0.20783">
        <ele>10</ele>
      </trkpt>
      <trkpt lat="44.56173" lon="-0.20753">
        <ele>10</ele>
      </trkpt>
      <trkpt lat="44.56165" lon="-0.20707">
        <ele>10</ele>
      </trkpt>
      <trkpt lat="44.5616" lon="-0.20684">
        <ele>10</ele>
      </trkpt>
      <trkpt lat="44.56146" lon="-0.20656">
        <ele>10</ele>
      </trkpt>
      <trkpt lat="44.56134" lon="-0.20631">
        <ele>10</ele>
      </trkpt>
      <trkpt lat="44.56123" lon="-0.20608">
        <ele>10</ele>
      </trkpt>
      <trkpt lat="44.56115" lon="-0.20592">
        <ele>10</ele>
      </trkpt>
      <trkpt lat="44.56112" lon="-0.20577">
        <ele>10</ele>
      </trkpt>
      <trkpt lat="44.56113" lon="-0.20564">
        <ele>10</ele>
      </trkpt>
      <trkpt lat="44.56114" lon="-0.20553">
        <ele>10</ele>
      </trkpt>
      <trkpt lat="44.56119" lon="-0.20524">
        <ele>10</ele>
      </trkpt>
      <trkpt lat="44.56119" lon="-0.2051">
        <ele>10</ele>
      </trkpt>
      <trkpt lat="44.56118" lon="-0.20501">
        <ele>10</ele>
      </trkpt>
      <trkpt lat="44.56116" lon="-0.20494">
        <ele>10</ele>
      </trkpt>
      <trkpt lat="44.56113" lon="-0.20488">
        <ele>10</ele>
      </trkpt>
      <trkpt lat="44.56109" lon="-0.20483">
        <ele>10.1</ele>
      </trkpt>
      <trkpt lat="44.56096" lon="-0.20476">
        <ele>10.5</ele>
      </trkpt>
      <trkpt lat="44.5609" lon="-0.20471">
        <ele>10.8</ele>
      </trkpt>
      <trkpt lat="44.56086" lon="-0.20463">
        <ele>11.2</ele>
      </trkpt>
      <trkpt lat="44.56084" lon="-0.20453">
        <ele>11.7</ele>
      </trkpt>
      <trkpt lat="44.56084" lon="-0.20445">
        <ele>11.9</ele>
      </trkpt>
      <trkpt lat="44.56087" lon="-0.204">
        <ele>12.4</ele>
      </trkpt>
      <trkpt lat="44.56086" lon="-0.20371">
        <ele>12.8</ele>
      </trkpt>
      <trkpt lat="44.56097" lon="-0.20383">
        <ele>12</ele>
      </trkpt>
      <trkpt lat="44.56112" lon="-0.20398">
        <ele>10.7</ele>
      </trkpt>
      <trkpt lat="44.56122" lon="-0.20406">
        <ele>10.2</ele>
      </trkpt>
      <trkpt lat="44.56129" lon="-0.2041">
        <ele>10.1</ele>
      </trkpt>
      <trkpt lat="44.56136" lon="-0.20412">
        <ele>10</ele>
      </trkpt>
      <trkpt lat="44.56146" lon="-0.20414">
        <ele>10</ele>
      </trkpt>
      <trkpt lat="44.5616" lon="-0.20413">
        <ele>10</ele>
      </trkpt>
      <trkpt lat="44.5618" lon="-0.20411">
        <ele>10</ele>
      </trkpt>
      <trkpt lat="44.56207" lon="-0.20408">
        <ele>10</ele>
      </trkpt>
      <trkpt lat="44.56227" lon="-0.20408">
        <ele>9.8</ele>
      </trkpt>
      <trkpt lat="44.56241" lon="-0.20408">
        <ele>9.3</ele>
      </trkpt>
      <trkpt lat="44.56248" lon="-0.20408">
        <ele>9.1</ele>
      </trkpt>
      <trkpt lat="44.56253" lon="-0.2041">
        <ele>8.9</ele>
      </trkpt>
      <trkpt lat="44.56257" lon="-0.20412">
        <ele>8.7</ele>
      </trkpt>
      <trkpt lat="44.56263" lon="-0.20419">
        <ele>8.5</ele>
      </trkpt>
      <trkpt lat="44.56265" lon="-0.20428">
        <ele>8.4</ele>
      </trkpt>
      <trkpt lat="44.56268" lon="-0.20445">
        <ele>8.3</ele>
      </trkpt>
      <trkpt lat="44.5627" lon="-0.20465">
        <ele>7.7</ele>
      </trkpt>
      <trkpt lat="44.56271" lon="-0.20494">
        <ele>7.5</ele>
      </trkpt>
      <trkpt lat="44.56271" lon="-0.20515">
        <ele>8.3</ele>
      </trkpt>
      <trkpt lat="44.56274" lon="-0.20575">
        <ele>9</ele>
      </trkpt>
      <trkpt lat="44.56275" lon="-0.20595">
        <ele>9</ele>
      </trkpt>
      <trkpt lat="44.56279" lon="-0.20609">
        <ele>9</ele>
      </trkpt>
      <trkpt lat="44.56284" lon="-0.20617">
        <ele>8.8</ele>
      </trkpt>
      <trkpt lat="44.56289" lon="-0.20623">
        <ele>8.8</ele>
      </trkpt>
      <trkpt lat="44.56296" lon="-0.20627">
        <ele>8.7</ele>
      </trkpt>
      <trkpt lat="44.56305" lon="-0.2063">
        <ele>8.7</ele>
      </trkpt>
      <trkpt lat="44.56321" lon="-0.20633">
        <ele>8.9</ele>
      </trkpt>
      <trkpt lat="44.5634" lon="-0.20638">
        <ele>9</ele>
      </trkpt>
      <trkpt lat="44.56355" lon="-0.20645">
        <ele>9.2</ele>
      </trkpt>
      <trkpt lat="44.56372" lon="-0.20653">
        <ele>9.7</ele>
      </trkpt>
      <trkpt lat="44.56408" lon="-0.20669">
        <ele>9.4</ele>
      </trkpt>
      <trkpt lat="44.5644" lon="-0.20687">
        <ele>10</ele>
      </trkpt>
      <trkpt lat="44.56457" lon="-0.20695">
        <ele>9.6</ele>
      </trkpt>
      <trkpt lat="44.56476" lon="-0.20704">
        <ele>9.2</ele>
      </trkpt>
      <trkpt lat="44.56486" lon="-0.20708">
        <ele>9.2</ele>
      </trkpt>
      <trkpt lat="44.56506" lon="-0.20715">
        <ele>8.4</ele>
      </trkpt>
      <trkpt lat="44.56515" lon="-0.20677">
        <ele>7.5</ele>
      </trkpt>
      <trkpt lat="44.56517" lon="-0.20637">
        <ele>7</ele>
      </trkpt>
      <trkpt lat="44.56516" lon="-0.20554">
        <ele>7.2</ele>
      </trkpt>
      <trkpt lat="44.56508" lon="-0.20398">
        <ele>8.7</ele>
      </trkpt>
      <trkpt lat="44.56501" lon="-0.20287">
        <ele>9.3</ele>
      </trkpt>
      <trkpt lat="44.56493" lon="-0.20192">
        <ele>9.2</ele>
      </trkpt>
      <trkpt lat="44.56486" lon="-0.20073">
        <ele>9.5</ele>
      </trkpt>
      <trkpt lat="44.5648" lon="-0.19982">
        <ele>9.1</ele>
      </trkpt>
      <trkpt lat="44.56472" lon="-0.1989">
        <ele>10</ele>
      </trkpt>
      <trkpt lat="44.56463" lon="-0.19784">
        <ele>8</ele>
      </trkpt>
      <trkpt lat="44.56456" lon="-0.19672">
        <ele>7.5</ele>
      </trkpt>
      <trkpt lat="44.56455" lon="-0.1951">
        <ele>7.4</ele>
      </trkpt>
      <trkpt lat="44.56452" lon="-0.1943">
        <ele>8.1</ele>
      </trkpt>
      <trkpt lat="44.56455" lon="-0.1931">
        <ele>7.6</ele>
      </trkpt>
      <trkpt lat="44.56459" lon="-0.19273">
        <ele>6.9</ele>
      </trkpt>
      <trkpt lat="44.56462" lon="-0.19254">
        <ele>6.7</ele>
      </trkpt>
      <trkpt lat="44.56466" lon="-0.19239">
        <ele>6.8</ele>
      </trkpt>
      <trkpt lat="44.56467" lon="-0.19205">
        <ele>8.6</ele>
      </trkpt>
      <trkpt lat="44.56466" lon="-0.19185">
        <ele>9.2</ele>
      </trkpt>
      <trkpt lat="44.56467" lon="-0.19161">
        <ele>9.3</ele>
      </trkpt>
      <trkpt lat="44.56471" lon="-0.19122">
        <ele>9.4</ele>
      </trkpt>
      <trkpt lat="44.5648" lon="-0.19054">
        <ele>8</ele>
      </trkpt>
      <trkpt lat="44.56483" lon="-0.19035">
        <ele>8.2</ele>
      </trkpt>
      <trkpt lat="44.56483" lon="-0.19014">
        <ele>9.1</ele>
      </trkpt>
      <trkpt lat="44.56482" lon="-0.19002">
        <ele>9.6</ele>
      </trkpt>
      <trkpt lat="44.56483" lon="-0.18985">
        <ele>9.6</ele>
      </trkpt>
      <trkpt lat="44.56487" lon="-0.1896">
        <ele>9.7</ele>
      </trkpt>
      <trkpt lat="44.56491" lon="-0.1895">
        <ele>9.9</ele>
      </trkpt>
      <trkpt lat="44.56496" lon="-0.18942">
        <ele>10</ele>
      </trkpt>
      <trkpt lat="44.56505" lon="-0.18909">
        <ele>8.5</ele>
      </trkpt>
      <trkpt lat="44.56513" lon="-0.1887">
        <ele>7.3</ele>
      </trkpt>
      <trkpt lat="44.56519" lon="-0.18804">
        <ele>9.4</ele>
      </trkpt>
      <trkpt lat="44.56526" lon="-0.18755">
        <ele>9.2</ele>
      </trkpt>
      <trkpt lat="44.56539" lon="-0.18709">
        <ele>7.6</ele>
      </trkpt>
      <trkpt lat="44.56568" lon="-0.18605">
        <ele>7.8</ele>
      </trkpt>
      <trkpt lat="44.56592" lon="-0.18514">
        <ele>8.2</ele>
      </trkpt>
      <trkpt lat="44.56615" lon="-0.18441">
        <ele>9.1</ele>
      </trkpt>
      <trkpt lat="44.56633" lon="-0.18388">
        <ele>7.6</ele>
      </trkpt>
      <trkpt lat="44.56648" lon="-0.18328">
        <ele>7.8</ele>
      </trkpt>
      <trkpt lat="44.56654" lon="-0.18302">
        <ele>6.4</ele>
      </trkpt>
      <trkpt lat="44.56661" lon="-0.18272">
        <ele>6.8</ele>
      </trkpt>
      <trkpt lat="44.56668" lon="-0.18234">
        <ele>8.8</ele>
      </trkpt>
      <trkpt lat="44.56679" lon="-0.18176">
        <ele>7.1</ele>
      </trkpt>
      <trkpt lat="44.56686" lon="-0.18123">
        <ele>8</ele>
      </trkpt>
      <trkpt lat="44.56695" lon="-0.18051">
        <ele>9.8</ele>
      </trkpt>
      <trkpt lat="44.56698" lon="-0.18018">
        <ele>9.1</ele>
      </trkpt>
      <trkpt lat="44.567" lon="-0.17974">
        <ele>8.7</ele>
      </trkpt>
      <trkpt lat="44.56698" lon="-0.17956">
        <ele>7.6</ele>
      </trkpt>
      <trkpt lat="44.56696" lon="-0.17949">
        <ele>7.3</ele>
      </trkpt>
      <trkpt lat="44.56693" lon="-0.17947">
        <ele>7.5</ele>
      </trkpt>
      <trkpt lat="44.56682" lon="-0.17939">
        <ele>8.4</ele>
      </trkpt>
      <trkpt lat="44.56675" lon="-0.1793">
        <ele>9.4</ele>
      </trkpt>
      <trkpt lat="44.56669" lon="-0.1792">
        <ele>10.5</ele>
      </trkpt>
      <trkpt lat="44.56667" lon="-0.17903">
        <ele>11</ele>
      </trkpt>
      <trkpt lat="44.56665" lon="-0.17886">
        <ele>10.7</ele>
      </trkpt>
      <trkpt lat="44.56663" lon="-0.17871">
        <ele>9.3</ele>
      </trkpt>
      <trkpt lat="44.56649" lon="-0.17844">
        <ele>9.2</ele>
      </trkpt>
      <trkpt lat="44.5664" lon="-0.17815">
        <ele>10.2</ele>
      </trkpt>
      <trkpt lat="44.56634" lon="-0.17801">
        <ele>9.6</ele>
      </trkpt>
      <trkpt lat="44.56621" lon="-0.17787">
        <ele>9.7</ele>
      </trkpt>
      <trkpt lat="44.56616" lon="-0.17777">
        <ele>10.2</ele>
      </trkpt>
      <trkpt lat="44.56608" lon="-0.17729">
        <ele>9.5</ele>
      </trkpt>
      <trkpt lat="44.56607" lon="-0.17723">
        <ele>9.2</ele>
      </trkpt>
      <trkpt lat="44.56604" lon="-0.17719">
        <ele>8.9</ele>
      </trkpt>
      <trkpt lat="44.56599" lon="-0.17717">
        <ele>9.1</ele>
      </trkpt>
      <trkpt lat="44.5653" lon="-0.17711">
        <ele>10.9</ele>
      </trkpt>
      <trkpt lat="44.56524" lon="-0.17707">
        <ele>10.9</ele>
      </trkpt>
      <trkpt lat="44.5652" lon="-0.17704">
        <ele>10.7</ele>
      </trkpt>
      <trkpt lat="44.56454" lon="-0.17696">
        <ele>10</ele>
      </trkpt>
      <trkpt lat="44.56429" lon="-0.17691">
        <ele>10</ele>
      </trkpt>
      <trkpt lat="44.5638" lon="-0.17675">
        <ele>10.2</ele>
      </trkpt>
      <trkpt lat="44.56365" lon="-0.17672">
        <ele>10.7</ele>
      </trkpt>
      <trkpt lat="44.56358" lon="-0.1767">
        <ele>10.9</ele>
      </trkpt>
      <trkpt lat="44.5635" lon="-0.17671">
        <ele>10.9</ele>
      </trkpt>
      <trkpt lat="44.56343" lon="-0.17676">
        <ele>10.7</ele>
      </trkpt>
      <trkpt lat="44.56298" lon="-0.1774">
        <ele>10.1</ele>
      </trkpt>
      <trkpt lat="44.56241" lon="-0.17714">
        <ele>10.5</ele>
      </trkpt>
      <trkpt lat="44.56185" lon="-0.17689">
        <ele>10</ele>
      </trkpt>
      <trkpt lat="44.5611" lon="-0.17665">
        <ele>10.1</ele>
      </trkpt>
      <trkpt lat="44.56056" lon="-0.17649">
        <ele>10.6</ele>
      </trkpt>
      <trkpt lat="44.56034" lon="-0.17638">
        <ele>9.4</ele>
      </trkpt>
      <trkpt lat="44.56024" lon="-0.17629">
        <ele>9.8</ele>
      </trkpt>
      <trkpt lat="44.56021" lon="-0.17625">
        <ele>10.4</ele>
      </trkpt>
      <trkpt lat="44.56017" lon="-0.17627">
        <ele>10.7</ele>
      </trkpt>
      <trkpt lat="44.5602" lon="-0.17697">
        <ele>9.9</ele>
      </trkpt>
      <trkpt lat="44.56018" lon="-0.17751">
        <ele>10.7</ele>
      </trkpt>
      <trkpt lat="44.56014" lon="-0.17793">
        <ele>11</ele>
      </trkpt>
      <trkpt lat="44.56004" lon="-0.17837">
        <ele>11.6</ele>
      </trkpt>
      <trkpt lat="44.55986" lon="-0.17899">
        <ele>13.4</ele>
      </trkpt>
      <trkpt lat="44.5597" lon="-0.17912">
        <ele>14.8</ele>
      </trkpt>
      <trkpt lat="44.55959" lon="-0.17914">
        <ele>16</ele>
      </trkpt>
      <trkpt lat="44.55949" lon="-0.17915">
        <ele>16.8</ele>
      </trkpt>
      <trkpt lat="44.55914" lon="-0.17915">
        <ele>19.7</ele>
      </trkpt>
      <trkpt lat="44.55895" lon="-0.17913">
        <ele>20.8</ele>
      </trkpt>
      <trkpt lat="44.55884" lon="-0.17909">
        <ele>21.2</ele>
      </trkpt>
      <trkpt lat="44.55865" lon="-0.17894">
        <ele>20.7</ele>
      </trkpt>
      <trkpt lat="44.55845" lon="-0.17883">
        <ele>20.4</ele>
      </trkpt>
      <trkpt lat="44.55833" lon="-0.17879">
        <ele>19.9</ele>
      </trkpt>
      <trkpt lat="44.55824" lon="-0.17879">
        <ele>20.2</ele>
      </trkpt>
      <trkpt lat="44.55801" lon="-0.1788">
        <ele>20.3</ele>
      </trkpt>
      <trkpt lat="44.55775" lon="-0.17874">
        <ele>20.2</ele>
      </trkpt>
      <trkpt lat="44.55745" lon="-0.17861">
        <ele>18.9</ele>
      </trkpt>
      <trkpt lat="44.55708" lon="-0.17842">
        <ele>20.7</ele>
      </trkpt>
      <trkpt lat="44.55667" lon="-0.17814">
        <ele>19.6</ele>
      </trkpt>
      <trkpt lat="44.5566" lon="-0.17809">
        <ele>19.8</ele>
      </trkpt>
      <trkpt lat="44.55656" lon="-0.17807">
        <ele>20</ele>
      </trkpt>
      <trkpt lat="44.5565" lon="-0.17807">
        <ele>20.4</ele>
      </trkpt>
      <trkpt lat="44.55643" lon="-0.17809">
        <ele>21.1</ele>
      </trkpt>
      <trkpt lat="44.55634" lon="-0.17764">
        <ele>26.5</ele>
      </trkpt>
      <trkpt lat="44.55633" lon="-0.17744">
        <ele>30.5</ele>
      </trkpt>
      <trkpt lat="44.5563" lon="-0.17708">
        <ele>33.5</ele>
      </trkpt>
      <trkpt lat="44.55621" lon="-0.17684">
        <ele>34.5</ele>
      </trkpt>
      <trkpt lat="44.55615" lon="-0.17647">
        <ele>34.9</ele>
      </trkpt>
      <trkpt lat="44.55607" lon="-0.17559">
        <ele>36</ele>
      </trkpt>
      <trkpt lat="44.55605" lon="-0.17532">
        <ele>36</ele>
      </trkpt>
      <trkpt lat="44.55605" lon="-0.17521">
        <ele>36</ele>
      </trkpt>
      <trkpt lat="44.55607" lon="-0.17505">
        <ele>36</ele>
      </trkpt>
      <trkpt lat="44.55612" lon="-0.17487">
        <ele>36.5</ele>
      </trkpt>
      <trkpt lat="44.55639" lon="-0.17406">
        <ele>36</ele>
      </trkpt>
      <trkpt lat="44.55666" lon="-0.17342">
        <ele>35.7</ele>
      </trkpt>
      <trkpt lat="44.55675" lon="-0.17309">
        <ele>35.4</ele>
      </trkpt>
      <trkpt lat="44.55679" lon="-0.17289">
        <ele>34.8</ele>
      </trkpt>
      <trkpt lat="44.5568" lon="-0.17258">
        <ele>34.9</ele>
      </trkpt>
      <trkpt lat="44.55684" lon="-0.17177">
        <ele>34.4</ele>
      </trkpt>
      <trkpt lat="44.55684" lon="-0.17144">
        <ele>34.4</ele>
      </trkpt>
      <trkpt lat="44.55679" lon="-0.17111">
        <ele>34.6</ele>
      </trkpt>
      <trkpt lat="44.55675" lon="-0.17091">
        <ele>34.2</ele>
      </trkpt>
      <trkpt lat="44.55673" lon="-0.17082">
        <ele>34</ele>
      </trkpt>
      <trkpt lat="44.55673" lon="-0.17073">
        <ele>34.3</ele>
      </trkpt>
      <trkpt lat="44.55675" lon="-0.17049">
        <ele>34.7</ele>
      </trkpt>
      <trkpt lat="44.55679" lon="-0.17018">
        <ele>34.6</ele>
      </trkpt>
      <trkpt lat="44.55686" lon="-0.16959">
        <ele>33.6</ele>
      </trkpt>
      <trkpt lat="44.55691" lon="-0.16936">
        <ele>33.2</ele>
      </trkpt>
      <trkpt lat="44.55668" lon="-0.16931">
        <ele>34.5</ele>
      </trkpt>
      <trkpt lat="44.55641" lon="-0.16925">
        <ele>34.3</ele>
      </trkpt>
      <trkpt lat="44.55639" lon="-0.16911">
        <ele>34</ele>
      </trkpt>
      <trkpt lat="44.55638" lon="-0.169">
        <ele>34</ele>
      </trkpt>
      <trkpt lat="44.55638" lon="-0.16892">
        <ele>34</ele>
      </trkpt>
      <trkpt lat="44.55639" lon="-0.16884">
        <ele>34</ele>
      </trkpt>
      <trkpt lat="44.55642" lon="-0.16869">
        <ele>33.9</ele>
      </trkpt>
      <trkpt lat="44.55644" lon="-0.16843">
        <ele>33.8</ele>
      </trkpt>
      <trkpt lat="44.55645" lon="-0.16831">
        <ele>33.7</ele>
      </trkpt>
      <trkpt lat="44.55644" lon="-0.16824">
        <ele>33.5</ele>
      </trkpt>
      <trkpt lat="44.5564" lon="-0.16813">
        <ele>33.2</ele>
      </trkpt>
      <trkpt lat="44.55637" lon="-0.16809">
        <ele>33.1</ele>
      </trkpt>
      <trkpt lat="44.55638" lon="-0.16784">
        <ele>32.2</ele>
      </trkpt>
      <trkpt lat="44.55639" lon="-0.16773">
        <ele>31.8</ele>
      </trkpt>
      <trkpt lat="44.55641" lon="-0.16759">
        <ele>31.3</ele>
      </trkpt>
      <trkpt lat="44.55644" lon="-0.16746">
        <ele>31</ele>
      </trkpt>
      <trkpt lat="44.55647" lon="-0.16734">
        <ele>30.8</ele>
      </trkpt>
      <trkpt lat="44.5565" lon="-0.16724">
        <ele>30.6</ele>
      </trkpt>
      <trkpt lat="44.55652" lon="-0.16716">
        <ele>30.2</ele>
      </trkpt>
      <trkpt lat="44.55655" lon="-0.16709">
        <ele>29.7</ele>
      </trkpt>
      <trkpt lat="44.55659" lon="-0.16703">
        <ele>29.1</ele>
      </trkpt>
      <trkpt lat="44.55662" lon="-0.16699">
        <ele>28.6</ele>
      </trkpt>
      <trkpt lat="44.55666" lon="-0.16694">
        <ele>28.1</ele>
      </trkpt>
      <trkpt lat="44.55671" lon="-0.16684">
        <ele>27.9</ele>
      </trkpt>
      <trkpt lat="44.5568" lon="-0.16653">
        <ele>27.8</ele>
      </trkpt>
      <trkpt lat="44.5569" lon="-0.16618">
        <ele>24.6</ele>
      </trkpt>
      <trkpt lat="44.55696" lon="-0.16605">
        <ele>22.9</ele>
      </trkpt>
      <trkpt lat="44.5571" lon="-0.16612">
        <ele>22.5</ele>
      </trkpt>
      <trkpt lat="44.55722" lon="-0.16618">
        <ele>22.8</ele>
      </trkpt>
      <trkpt lat="44.55754" lon="-0.16637">
        <ele>20.7</ele>
      </trkpt>
      <trkpt lat="44.5577" lon="-0.16647">
        <ele>20.4</ele>
      </trkpt>
      <trkpt lat="44.55787" lon="-0.16657">
        <ele>20</ele>
      </trkpt>
      <trkpt lat="44.55793" lon="-0.16662">
        <ele>19.6</ele>
      </trkpt>
      <trkpt lat="44.55797" lon="-0.16666">
        <ele>19.3</ele>
      </trkpt>
      <trkpt lat="44.55804" lon="-0.16665">
        <ele>18.2</ele>
      </trkpt>
      <trkpt lat="44.55837" lon="-0.16627">
        <ele>15.1</ele>
      </trkpt>
      <trkpt lat="44.55859" lon="-0.16599">
        <ele>12.7</ele>
      </trkpt>
      <trkpt lat="44.55915" lon="-0.16528">
        <ele>10.1</ele>
      </trkpt>
      <trkpt lat="44.55927" lon="-0.16517">
        <ele>10</ele>
      </trkpt>
      <trkpt lat="44.55938" lon="-0.16503">
        <ele>10</ele>
      </trkpt>
      <trkpt lat="44.55932" lon="-0.16492">
        <ele>10</ele>
      </trkpt>
      <trkpt lat="44.55917" lon="-0.16466">
        <ele>9.3</ele>
      </trkpt>
      <trkpt lat="44.55902" lon="-0.16429">
        <ele>10.3</ele>
      </trkpt>
      <trkpt lat="44.55893" lon="-0.16405">
        <ele>10.1</ele>
      </trkpt>
      <trkpt lat="44.55888" lon="-0.1639">
        <ele>10</ele>
      </trkpt>
      <trkpt lat="44.55883" lon="-0.16344">
        <ele>10</ele>
      </trkpt>
      <trkpt lat="44.55881" lon="-0.16327">
        <ele>10.2</ele>
      </trkpt>
      <trkpt lat="44.55889" lon="-0.16326">
        <ele>10.3</ele>
      </trkpt>
      <trkpt lat="44.55913" lon="-0.16322">
        <ele>13.7</ele>
      </trkpt>
      <trkpt lat="44.55935" lon="-0.16318">
        <ele>18</ele>
      </trkpt>
      <trkpt lat="44.55936" lon="-0.16317">
        <ele>18.4</ele>
      </trkpt>
      <trkpt lat="44.55937" lon="-0.16315">
        <ele>18.7</ele>
      </trkpt>
      <trkpt lat="44.55937" lon="-0.16313">
        <ele>19.2</ele>
      </trkpt>
      <trkpt lat="44.55936" lon="-0.16311">
        <ele>19.4</ele>
      </trkpt>
      <trkpt lat="44.55929" lon="-0.16292">
        <ele>20.9</ele>
      </trkpt>
      <trkpt lat="44.55919" lon="-0.16251">
        <ele>24.2</ele>
      </trkpt>
      <trkpt lat="44.55919" lon="-0.16247">
        <ele>24.8</ele>
      </trkpt>
      <trkpt lat="44.5592" lon="-0.16243">
        <ele>25.5</ele>
      </trkpt>
      <trkpt lat="44.55923" lon="-0.16237">
        <ele>26.5</ele>
      </trkpt>
      <trkpt lat="44.5593" lon="-0.16222">
        <ele>29</ele>
      </trkpt>
      <trkpt lat="44.55946" lon="-0.16219">
        <ele>30.3</ele>
      </trkpt>
      <trkpt lat="44.55962" lon="-0.16217">
        <ele>30.3</ele>
      </trkpt>
      <trkpt lat="44.55994" lon="-0.16216">
        <ele>29.6</ele>
      </trkpt>
      <trkpt lat="44.56009" lon="-0.16213">
        <ele>29.3</ele>
      </trkpt>
      <trkpt lat="44.56017" lon="-0.1621">
        <ele>29.3</ele>
      </trkpt>
      <trkpt lat="44.56023" lon="-0.16205">
        <ele>29.5</ele>
      </trkpt>
      <trkpt lat="44.56027" lon="-0.16198">
        <ele>29.7</ele>
      </trkpt>
      <trkpt lat="44.56031" lon="-0.1619">
        <ele>30</ele>
      </trkpt>
      <trkpt lat="44.56038" lon="-0.16169">
        <ele>30.6</ele>
      </trkpt>
      <trkpt lat="44.56054" lon="-0.16086">
        <ele>31</ele>
      </trkpt>
      <trkpt lat="44.56063" lon="-0.16024">
        <ele>31.5</ele>
      </trkpt>
      <trkpt lat="44.56067" lon="-0.15974">
        <ele>31.2</ele>
      </trkpt>
      <trkpt lat="44.56072" lon="-0.15913">
        <ele>30.8</ele>
      </trkpt>
      <trkpt lat="44.56077" lon="-0.15874">
        <ele>30.9</ele>
      </trkpt>
      <trkpt lat="44.56082" lon="-0.15849">
        <ele>31.1</ele>
      </trkpt>
      <trkpt lat="44.56102" lon="-0.158">
        <ele>31</ele>
      </trkpt>
      <trkpt lat="44.56143" lon="-0.15709">
        <ele>31.4</ele>
      </trkpt>
      <trkpt lat="44.56148" lon="-0.15701">
        <ele>31.5</ele>
      </trkpt>
      <trkpt lat="44.56152" lon="-0.15698">
        <ele>31.5</ele>
      </trkpt>
      <trkpt lat="44.56157" lon="-0.15693">
        <ele>31.4</ele>
      </trkpt>
      <trkpt lat="44.5618" lon="-0.15647">
        <ele>30</ele>
      </trkpt>
      <trkpt lat="44.56213" lon="-0.15633">
        <ele>28.9</ele>
      </trkpt>
      <trkpt lat="44.56217" lon="-0.15631">
        <ele>28.8</ele>
      </trkpt>
      <trkpt lat="44.56236" lon="-0.15621">
        <ele>27.8</ele>
      </trkpt>
      <trkpt lat="44.56252" lon="-0.15621">
        <ele>27.2</ele>
      </trkpt>
      <trkpt lat="44.56286" lon="-0.1562">
        <ele>25</ele>
      </trkpt>
      <trkpt lat="44.56293" lon="-0.15619">
        <ele>23.4</ele>
      </trkpt>
      <trkpt lat="44.56299" lon="-0.15614">
        <ele>22.4</ele>
      </trkpt>
      <trkpt lat="44.56306" lon="-0.15606">
        <ele>21.6</ele>
      </trkpt>
      <trkpt lat="44.5631" lon="-0.15594">
        <ele>21.1</ele>
      </trkpt>
      <trkpt lat="44.56314" lon="-0.15576">
        <ele>20.3</ele>
      </trkpt>
      <trkpt lat="44.56318" lon="-0.15536">
        <ele>17.6</ele>
      </trkpt>
      <trkpt lat="44.56319" lon="-0.15527">
        <ele>17.2</ele>
      </trkpt>
      <trkpt lat="44.56321" lon="-0.1552">
        <ele>17</ele>
      </trkpt>
      <trkpt lat="44.56324" lon="-0.15516">
        <ele>16.5</ele>
      </trkpt>
      <trkpt lat="44.56327" lon="-0.15514">
        <ele>15.8</ele>
      </trkpt>
      <trkpt lat="44.5633" lon="-0.15514">
        <ele>14.9</ele>
      </trkpt>
      <trkpt lat="44.56355" lon="-0.15517">
        <ele>11.7</ele>
      </trkpt>
      <trkpt lat="44.56353" lon="-0.15559">
        <ele>11.1</ele>
      </trkpt>
      <trkpt lat="44.56352" lon="-0.15593">
        <ele>11.3</ele>
      </trkpt>
      <trkpt lat="44.5635" lon="-0.15624">
        <ele>11</ele>
      </trkpt>
      <trkpt lat="44.56347" lon="-0.15642">
        <ele>10.5</ele>
      </trkpt>
      <trkpt lat="44.56342" lon="-0.15668">
        <ele>10.8</ele>
      </trkpt>
      <trkpt lat="44.56332" lon="-0.15746">
        <ele>15.3</ele>
      </trkpt>
      <trkpt lat="44.56321" lon="-0.15845">
        <ele>19.5</ele>
      </trkpt>
      <trkpt lat="44.56323" lon="-0.15852">
        <ele>18.8</ele>
      </trkpt>
      <trkpt lat="44.5633" lon="-0.15854">
        <ele>16.7</ele>
      </trkpt>
      <trkpt lat="44.56355" lon="-0.15855">
        <ele>6.7</ele>
      </trkpt>
      <trkpt lat="44.56481" lon="-0.15861">
        <ele>3.9</ele>
      </trkpt>
      <trkpt lat="44.56535" lon="-0.15864">
        <ele>16.8</ele>
      </trkpt>
      <trkpt lat="44.56543" lon="-0.15863">
        <ele>17.5</ele>
      </trkpt>
      <trkpt lat="44.5655" lon="-0.1586">
        <ele>18.5</ele>
      </trkpt>
      <trkpt lat="44.56555" lon="-0.15857">
        <ele>18.3</ele>
      </trkpt>
      <trkpt lat="44.56558" lon="-0.15853">
        <ele>17.4</ele>
      </trkpt>
      <trkpt lat="44.56564" lon="-0.15838">
        <ele>15.4</ele>
      </trkpt>
      <trkpt lat="44.56565" lon="-0.15833">
        <ele>15.3</ele>
      </trkpt>
      <trkpt lat="44.56588" lon="-0.15734">
        <ele>13.2</ele>
      </trkpt>
      <trkpt lat="44.56599" lon="-0.15687">
        <ele>11.3</ele>
      </trkpt>
      <trkpt lat="44.56594" lon="-0.15688">
        <ele>11.5</ele>
      </trkpt>
      <trkpt lat="44.5659" lon="-0.15695">
        <ele>11.8</ele>
      </trkpt>
      <trkpt lat="44.56586" lon="-0.15707">
        <ele>12.3</ele>
      </trkpt>
      <trkpt lat="44.56582" lon="-0.15717">
        <ele>12.7</ele>
      </trkpt>
      <trkpt lat="44.56578" lon="-0.15726">
        <ele>12.7</ele>
      </trkpt>
      <trkpt lat="44.56539" lon="-0.15789">
        <ele>9.8</ele>
      </trkpt>
      <trkpt lat="44.56533" lon="-0.15797">
        <ele>9.4</ele>
      </trkpt>
      <trkpt lat="44.56536" lon="-0.15769">
        <ele>9.5</ele>
      </trkpt>
      <trkpt lat="44.56539" lon="-0.15746">
        <ele>9.5</ele>
      </trkpt>
      <trkpt lat="44.56551" lon="-0.15686">
        <ele>10.8</ele>
      </trkpt>
      <trkpt lat="44.56576" lon="-0.15585">
        <ele>10.5</ele>
      </trkpt>
      <trkpt lat="44.56639" lon="-0.15383">
        <ele>11</ele>
      </trkpt>
      <trkpt lat="44.56685" lon="-0.15248">
        <ele>10.6</ele>
      </trkpt>
      <trkpt lat="44.56753" lon="-0.15063">
        <ele>11</ele>
      </trkpt>
      <trkpt lat="44.5678" lon="-0.14984">
        <ele>11</ele>
      </trkpt>
      <trkpt lat="44.56801" lon="-0.14926">
        <ele>10.5</ele>
      </trkpt>
      <trkpt lat="44.5685" lon="-0.14809">
        <ele>10.6</ele>
      </trkpt>
      <trkpt lat="44.56875" lon="-0.14752">
        <ele>10</ele>
      </trkpt>
      <trkpt lat="44.56894" lon="-0.14721">
        <ele>10</ele>
      </trkpt>
      <trkpt lat="44.56916" lon="-0.14669">
        <ele>10</ele>
      </trkpt>
      <trkpt lat="44.56939" lon="-0.14625">
        <ele>10.2</ele>
      </trkpt>
      <trkpt lat="44.56959" lon="-0.14586">
        <ele>10.1</ele>
      </trkpt>
      <trkpt lat="44.56975" lon="-0.14538">
        <ele>10</ele>
      </trkpt>
      <trkpt lat="44.56981" lon="-0.14519">
        <ele>10</ele>
      </trkpt>
      <trkpt lat="44.56993" lon="-0.14489">
        <ele>9.9</ele>
      </trkpt>
      <trkpt lat="44.57018" lon="-0.14453">
        <ele>10.2</ele>
      </trkpt>
      <trkpt lat="44.57038" lon="-0.14423">
        <ele>10</ele>
      </trkpt>
      <trkpt lat="44.57045" lon="-0.1441">
        <ele>10.1</ele>
      </trkpt>
      <trkpt lat="44.57083" lon="-0.14352">
        <ele>10</ele>
      </trkpt>
      <trkpt lat="44.57104" lon="-0.14324">
        <ele>10.3</ele>
      </trkpt>
      <trkpt lat="44.57124" lon="-0.14296">
        <ele>11.2</ele>
      </trkpt>
      <trkpt lat="44.5718" lon="-0.14225">
        <ele>11</ele>
      </trkpt>
      <trkpt lat="44.57218" lon="-0.14186">
        <ele>10.8</ele>
      </trkpt>
      <trkpt lat="44.57265" lon="-0.14143">
        <ele>11.5</ele>
      </trkpt>
      <trkpt lat="44.57309" lon="-0.14106">
        <ele>10.2</ele>
      </trkpt>
      <trkpt lat="44.57328" lon="-0.14095">
        <ele>9.9</ele>
      </trkpt>
      <trkpt lat="44.57345" lon="-0.14089">
        <ele>10.6</ele>
      </trkpt>
      <trkpt lat="44.57385" lon="-0.1406">
        <ele>9.6</ele>
      </trkpt>
      <trkpt lat="44.57399" lon="-0.1405">
        <ele>8.8</ele>
      </trkpt>
      <trkpt lat="44.57415" lon="-0.14044">
        <ele>7.5</ele>
      </trkpt>
      <trkpt lat="44.57448" lon="-0.14031">
        <ele>7.6</ele>
      </trkpt>
      <trkpt lat="44.5748" lon="-0.14022">
        <ele>8.6</ele>
      </trkpt>
      <trkpt lat="44.57515" lon="-0.14017">
        <ele>7.2</ele>
      </trkpt>
      <trkpt lat="44.57551" lon="-0.14015">
        <ele>7.1</ele>
      </trkpt>
      <trkpt lat="44.57584" lon="-0.14014">
        <ele>7.5</ele>
      </trkpt>
      <trkpt lat="44.5762" lon="-0.14015">
        <ele>7.6</ele>
      </trkpt>
      <trkpt lat="44.57659" lon="-0.14021">
        <ele>9</ele>
      </trkpt>
      <trkpt lat="44.57696" lon="-0.14029">
        <ele>10.1</ele>
      </trkpt>
      <trkpt lat="44.57702" lon="-0.14016">
        <ele>9.5</ele>
      </trkpt>
      <trkpt lat="44.5772" lon="-0.13996">
        <ele>9</ele>
      </trkpt>
      <trkpt lat="44.57745" lon="-0.13972">
        <ele>9.9</ele>
      </trkpt>
      <trkpt lat="44.57767" lon="-0.13958">
        <ele>11.7</ele>
      </trkpt>
      <trkpt lat="44.57788" lon="-0.13945">
        <ele>14.2</ele>
      </trkpt>
      <trkpt lat="44.57789" lon="-0.13948">
        <ele>14.7</ele>
      </trkpt>
      <trkpt lat="44.57791" lon="-0.13954">
        <ele>16</ele>
      </trkpt>
      <trkpt lat="44.57784" lon="-0.13963">
        <ele>16</ele>
      </trkpt>
      <trkpt lat="44.5778" lon="-0.1397">
        <ele>16.7</ele>
      </trkpt>
      <trkpt lat="44.57777" lon="-0.13979">
        <ele>17.2</ele>
      </trkpt>
      <trkpt lat="44.57776" lon="-0.13988">
        <ele>17.6</ele>
      </trkpt>
      <trkpt lat="44.57776" lon="-0.13997">
        <ele>18.2</ele>
      </trkpt>
      <trkpt lat="44.57776" lon="-0.14023">
        <ele>17.8</ele>
      </trkpt>
      <trkpt lat="44.57794" lon="-0.1403">
        <ele>18.7</ele>
      </trkpt>
      <trkpt lat="44.57797" lon="-0.14031">
        <ele>18.8</ele>
      </trkpt>
      <trkpt lat="44.57812" lon="-0.14035">
        <ele>19.4</ele>
      </trkpt>
      <trkpt lat="44.57815" lon="-0.14037">
        <ele>19.5</ele>
      </trkpt>
      <trkpt lat="44.57815" lon="-0.1404">
        <ele>19.6</ele>
      </trkpt>
      <trkpt lat="44.57815" lon="-0.14045">
        <ele>19.8</ele>
      </trkpt>
      <trkpt lat="44.57811" lon="-0.1406">
        <ele>19.9</ele>
      </trkpt>
      <trkpt lat="44.57804" lon="-0.14089">
        <ele>19</ele>
      </trkpt>
      <trkpt lat="44.57795" lon="-0.14124">
        <ele>19.2</ele>
      </trkpt>
      <trkpt lat="44.57784" lon="-0.14174">
        <ele>19.2</ele>
      </trkpt>
      <trkpt lat="44.57772" lon="-0.14228">
        <ele>19</ele>
      </trkpt>
      <trkpt lat="44.57769" lon="-0.14244">
        <ele>19</ele>
      </trkpt>
      <trkpt lat="44.57761" lon="-0.14277">
        <ele>19</ele>
      </trkpt>
      <trkpt lat="44.57758" lon="-0.14282">
        <ele>19</ele>
      </trkpt>
      <trkpt lat="44.57762" lon="-0.14286">
        <ele>18.9</ele>
      </trkpt>
      <trkpt lat="44.57767" lon="-0.14293">
        <ele>18.7</ele>
      </trkpt>
      <trkpt lat="44.57771" lon="-0.14294">
        <ele>18.5</ele>
      </trkpt>
      <trkpt lat="44.57793" lon="-0.14293">
        <ele>18.5</ele>
      </trkpt>
      <trkpt lat="44.578" lon="-0.14292">
        <ele>18.5</ele>
      </trkpt>
      <trkpt lat="44.57853" lon="-0.14285">
        <ele>18.4</ele>
      </trkpt>
      <trkpt lat="44.57903" lon="-0.14277">
        <ele>18.1</ele>
      </trkpt>
      <trkpt lat="44.57952" lon="-0.14269">
        <ele>16.8</ele>
      </trkpt>
      <trkpt lat="44.57956" lon="-0.14268">
        <ele>16.7</ele>
      </trkpt>
      <trkpt lat="44.57987" lon="-0.14263">
        <ele>16.3</ele>
      </trkpt>
      <trkpt lat="44.58007" lon="-0.14263">
        <ele>16</ele>
      </trkpt>
      <trkpt lat="44.5802" lon="-0.14265">
        <ele>16</ele>
      </trkpt>
      <trkpt lat="44.58025" lon="-0.14267">
        <ele>16</ele>
      </trkpt>
      <trkpt lat="44.58059" lon="-0.14277">
        <ele>16</ele>
      </trkpt>
      <trkpt lat="44.58092" lon="-0.14288">
        <ele>16.7</ele>
      </trkpt>
      <trkpt lat="44.58102" lon="-0.14292">
        <ele>16.1</ele>
      </trkpt>
      <trkpt lat="44.58121" lon="-0.14242">
        <ele>17.1</ele>
      </trkpt>
      <trkpt lat="44.58129" lon="-0.14218">
        <ele>16.4</ele>
      </trkpt>
      <trkpt lat="44.58178" lon="-0.14085">
        <ele>17.3</ele>
      </trkpt>
      <trkpt lat="44.58183" lon="-0.14071">
        <ele>16.3</ele>
      </trkpt>
      <trkpt lat="44.58227" lon="-0.13948">
        <ele>16.9</ele>
      </trkpt>
      <trkpt lat="44.58291" lon="-0.13773">
        <ele>15.5</ele>
      </trkpt>
      <trkpt lat="44.58326" lon="-0.13674">
        <ele>15</ele>
      </trkpt>
      <trkpt lat="44.58356" lon="-0.13572">
        <ele>16.4</ele>
      </trkpt>
      <trkpt lat="44.58369" lon="-0.13519">
        <ele>19</ele>
      </trkpt>
      <trkpt lat="44.58379" lon="-0.13492">
        <ele>18.6</ele>
      </trkpt>
      <trkpt lat="44.58393" lon="-0.13412">
        <ele>19.8</ele>
      </trkpt>
      <trkpt lat="44.584" lon="-0.1337">
        <ele>21.2</ele>
      </trkpt>
      <trkpt lat="44.58415" lon="-0.1325">
        <ele>20.9</ele>
      </trkpt>
      <trkpt lat="44.58416" lon="-0.13241">
        <ele>20.6</ele>
      </trkpt>
      <trkpt lat="44.58421" lon="-0.13189">
        <ele>20.2</ele>
      </trkpt>
      <trkpt lat="44.58428" lon="-0.13169">
        <ele>17.8</ele>
      </trkpt>
      <trkpt lat="44.58436" lon="-0.13175">
        <ele>17.7</ele>
      </trkpt>
      <trkpt lat="44.58452" lon="-0.1319">
        <ele>19.8</ele>
      </trkpt>
      <trkpt lat="44.58491" lon="-0.13224">
        <ele>27.4</ele>
      </trkpt>
      <trkpt lat="44.58515" lon="-0.13228">
        <ele>27.2</ele>
      </trkpt>
      <trkpt lat="44.58566" lon="-0.13238">
        <ele>29.3</ele>
      </trkpt>
      <trkpt lat="44.58602" lon="-0.13244">
        <ele>31.7</ele>
      </trkpt>
      <trkpt lat="44.58668" lon="-0.13236">
        <ele>31.8</ele>
      </trkpt>
      <trkpt lat="44.58737" lon="-0.13216">
        <ele>31.8</ele>
      </trkpt>
      <trkpt lat="44.58778" lon="-0.132">
        <ele>30</ele>
      </trkpt>
      <trkpt lat="44.58813" lon="-0.13198">
        <ele>32.1</ele>
      </trkpt>
      <trkpt lat="44.58827" lon="-0.13204">
        <ele>31.5</ele>
      </trkpt>
      <trkpt lat="44.58833" lon="-0.13233">
        <ele>35.6</ele>
      </trkpt>
      <trkpt lat="44.58835" lon="-0.13263">
        <ele>40.4</ele>
      </trkpt>
      <trkpt lat="44.58838" lon="-0.13273">
        <ele>41.7</ele>
      </trkpt>
      <trkpt lat="44.58856" lon="-0.13325">
        <ele>46</ele>
      </trkpt>
      <trkpt lat="44.58867" lon="-0.13382">
        <ele>50.3</ele>
      </trkpt>
      <trkpt lat="44.58872" lon="-0.13454">
        <ele>54.4</ele>
      </trkpt>
      <trkpt lat="44.5888" lon="-0.13489">
        <ele>57.2</ele>
      </trkpt>
      <trkpt lat="44.58881" lon="-0.13526">
        <ele>60.5</ele>
      </trkpt>
      <trkpt lat="44.58886" lon="-0.13535">
        <ele>60</ele>
      </trkpt>
      <trkpt lat="44.58907" lon="-0.13523">
        <ele>60.6</ele>
      </trkpt>
      <trkpt lat="44.58967" lon="-0.13511">
        <ele>71.5</ele>
      </trkpt>
      <trkpt lat="44.59005" lon="-0.13496">
        <ele>76.9</ele>
      </trkpt>
      <trkpt lat="44.59016" lon="-0.1351">
        <ele>78.9</ele>
      </trkpt>
      <trkpt lat="44.59019" lon="-0.13529">
        <ele>79.4</ele>
      </trkpt>
      <trkpt lat="44.59041" lon="-0.13608">
        <ele>83.4</ele>
      </trkpt>
      <trkpt lat="44.59043" lon="-0.13615">
        <ele>83.7</ele>
      </trkpt>
      <trkpt lat="44.59075" lon="-0.13729">
        <ele>88.9</ele>
      </trkpt>
      <trkpt lat="44.59079" lon="-0.13747">
        <ele>89.6</ele>
      </trkpt>
      <trkpt lat="44.59072" lon="-0.13748">
        <ele>89.1</ele>
      </trkpt>
      <trkpt lat="44.59063" lon="-0.1375">
        <ele>88.5</ele>
      </trkpt>
      <trkpt lat="44.59056" lon="-0.13753">
        <ele>88.1</ele>
      </trkpt>
      <trkpt lat="44.59019" lon="-0.13771">
        <ele>85.8</ele>
      </trkpt>
      <trkpt lat="44.59008" lon="-0.13777">
        <ele>85.5</ele>
      </trkpt>
      <trkpt lat="44.5897" lon="-0.13804">
        <ele>83.7</ele>
      </trkpt>
      <trkpt lat="44.58923" lon="-0.13835">
        <ele>83.5</ele>
      </trkpt>
      <trkpt lat="44.58913" lon="-0.13841">
        <ele>83.5</ele>
      </trkpt>
      <trkpt lat="44.58922" lon="-0.13871">
        <ele>85.5</ele>
      </trkpt>
      <trkpt lat="44.58933" lon="-0.13956">
        <ele>89.4</ele>
      </trkpt>
      <trkpt lat="44.58935" lon="-0.13969">
        <ele>89.9</ele>
      </trkpt>
      <trkpt lat="44.58938" lon="-0.1398">
        <ele>90</ele>
      </trkpt>
      <trkpt lat="44.58938" lon="-0.13991">
        <ele>90</ele>
      </trkpt>
      <trkpt lat="44.58938" lon="-0.14002">
        <ele>89.9</ele>
      </trkpt>
      <trkpt lat="44.58936" lon="-0.14018">
        <ele>89.1</ele>
      </trkpt>
      <trkpt lat="44.58934" lon="-0.14025">
        <ele>88.7</ele>
      </trkpt>
      <trkpt lat="44.58925" lon="-0.14044">
        <ele>87.4</ele>
      </trkpt>
      <trkpt lat="44.58919" lon="-0.14054">
        <ele>87</ele>
      </trkpt>
      <trkpt lat="44.58936" lon="-0.14053">
        <ele>86.5</ele>
      </trkpt>
      <trkpt lat="44.5894" lon="-0.14053">
        <ele>86.4</ele>
      </trkpt>
      <trkpt lat="44.5896" lon="-0.14051">
        <ele>85.3</ele>
      </trkpt>
      <trkpt lat="44.58982" lon="-0.14049">
        <ele>83.5</ele>
      </trkpt>
      <trkpt lat="44.58978" lon="-0.14063">
        <ele>83.1</ele>
      </trkpt>
      <trkpt lat="44.58976" lon="-0.14088">
        <ele>82.2</ele>
      </trkpt>
      <trkpt lat="44.58974" lon="-0.14139">
        <ele>79.8</ele>
      </trkpt>
      <trkpt lat="44.58975" lon="-0.14153">
        <ele>79.2</ele>
      </trkpt>
      <trkpt lat="44.58979" lon="-0.14168">
        <ele>78.3</ele>
      </trkpt>
      <trkpt lat="44.58986" lon="-0.14191">
        <ele>77.1</ele>
      </trkpt>
      <trkpt lat="44.58993" lon="-0.14211">
        <ele>75.9</ele>
      </trkpt>
      <trkpt lat="44.58997" lon="-0.14229">
        <ele>74.9</ele>
      </trkpt>
      <trkpt lat="44.59" lon="-0.14256">
        <ele>73.8</ele>
      </trkpt>
      <trkpt lat="44.59" lon="-0.14322">
        <ele>69.8</ele>
      </trkpt>
      <trkpt lat="44.59002" lon="-0.14387">
        <ele>66.9</ele>
      </trkpt>
      <trkpt lat="44.59009" lon="-0.14458">
        <ele>67.2</ele>
      </trkpt>
      <trkpt lat="44.59013" lon="-0.14489">
        <ele>68</ele>
      </trkpt>
      <trkpt lat="44.59017" lon="-0.14517">
        <ele>68.6</ele>
      </trkpt>
      <trkpt lat="44.59012" lon="-0.14552">
        <ele>69.7</ele>
      </trkpt>
      <trkpt lat="44.59052" lon="-0.14638">
        <ele>63.2</ele>
      </trkpt>
      <trkpt lat="44.5907" lon="-0.14667">
        <ele>62</ele>
      </trkpt>
      <trkpt lat="44.59089" lon="-0.14683">
        <ele>60</ele>
      </trkpt>
      <trkpt lat="44.59131" lon="-0.14705">
        <ele>50.4</ele>
      </trkpt>
      <trkpt lat="44.59144" lon="-0.14714">
        <ele>47.8</ele>
      </trkpt>
      <trkpt lat="44.59161" lon="-0.14766">
        <ele>43.4</ele>
      </trkpt>
      <trkpt lat="44.59172" lon="-0.1475">
        <ele>43</ele>
      </trkpt>
      <trkpt lat="44.59206" lon="-0.1474">
        <ele>43.7</ele>
      </trkpt>
      <trkpt lat="44.59327" lon="-0.14704">
        <ele>51.3</ele>
      </trkpt>
      <trkpt lat="44.59361" lon="-0.14685">
        <ele>52.3</ele>
      </trkpt>
      <trkpt lat="44.59385" lon="-0.14676">
        <ele>53.4</ele>
      </trkpt>
      <trkpt lat="44.59395" lon="-0.14672">
        <ele>53.8</ele>
      </trkpt>
      <trkpt lat="44.59408" lon="-0.14666">
        <ele>54.3</ele>
      </trkpt>
      <trkpt lat="44.59422" lon="-0.14652">
        <ele>54.3</ele>
      </trkpt>
      <trkpt lat="44.59438" lon="-0.14628">
        <ele>54.1</ele>
      </trkpt>
      <trkpt lat="44.59456" lon="-0.14584">
        <ele>53.9</ele>
      </trkpt>
      <trkpt lat="44.59471" lon="-0.14562">
        <ele>54.2</ele>
      </trkpt>
      <trkpt lat="44.59496" lon="-0.14538">
        <ele>55</ele>
      </trkpt>
      <trkpt lat="44.59542" lon="-0.14506">
        <ele>56</ele>
      </trkpt>
      <trkpt lat="44.59557" lon="-0.14491">
        <ele>56.1</ele>
      </trkpt>
      <trkpt lat="44.59568" lon="-0.14473">
        <ele>56.4</ele>
      </trkpt>
      <trkpt lat="44.59616" lon="-0.14413">
        <ele>58.4</ele>
      </trkpt>
      <trkpt lat="44.59654" lon="-0.14385">
        <ele>61.2</ele>
      </trkpt>
      <trkpt lat="44.59703" lon="-0.14383">
        <ele>63</ele>
      </trkpt>
      <trkpt lat="44.59751" lon="-0.14392">
        <ele>63</ele>
      </trkpt>
      <trkpt lat="44.59795" lon="-0.14387">
        <ele>64.7</ele>
      </trkpt>
      <trkpt lat="44.59819" lon="-0.14386">
        <ele>65.6</ele>
      </trkpt>
      <trkpt lat="44.59843" lon="-0.14385">
        <ele>66.5</ele>
      </trkpt>
      <trkpt lat="44.59869" lon="-0.14383">
        <ele>67.5</ele>
      </trkpt>
      <trkpt lat="44.59903" lon="-0.1438">
        <ele>69.4</ele>
      </trkpt>
      <trkpt lat="44.59927" lon="-0.14379">
        <ele>70.5</ele>
      </trkpt>
      <trkpt lat="44.59936" lon="-0.14359">
        <ele>71.8</ele>
      </trkpt>
      <trkpt lat="44.5994" lon="-0.14328">
        <ele>72.9</ele>
      </trkpt>
      <trkpt lat="44.59941" lon="-0.14293">
        <ele>73.8</ele>
      </trkpt>
      <trkpt lat="44.59943" lon="-0.14218">
        <ele>75.9</ele>
      </trkpt>
      <trkpt lat="44.59944" lon="-0.14151">
        <ele>75.4</ele>
      </trkpt>
      <trkpt lat="44.59945" lon="-0.14119">
        <ele>74.3</ele>
      </trkpt>
      <trkpt lat="44.59946" lon="-0.14099">
        <ele>73.2</ele>
      </trkpt>
      <trkpt lat="44.59947" lon="-0.14082">
        <ele>72.2</ele>
      </trkpt>
      <trkpt lat="44.59952" lon="-0.14078">
        <ele>72.4</ele>
      </trkpt>
      <trkpt lat="44.59967" lon="-0.14059">
        <ele>73.5</ele>
      </trkpt>
      <trkpt lat="44.59989" lon="-0.14026">
        <ele>74.8</ele>
      </trkpt>
      <trkpt lat="44.60034" lon="-0.13956">
        <ele>78</ele>
      </trkpt>
      <trkpt lat="44.60061" lon="-0.13913">
        <ele>78.5</ele>
      </trkpt>
      <trkpt lat="44.60077" lon="-0.13891">
        <ele>79.3</ele>
      </trkpt>
      <trkpt lat="44.60084" lon="-0.13903">
        <ele>80.5</ele>
      </trkpt>
      <trkpt lat="44.60099" lon="-0.13926">
        <ele>82.5</ele>
      </trkpt>
      <trkpt lat="44.60109" lon="-0.1394">
        <ele>83.7</ele>
      </trkpt>
      <trkpt lat="44.60119" lon="-0.13951">
        <ele>84.7</ele>
      </trkpt>
      <trkpt lat="44.60127" lon="-0.13958">
        <ele>85.3</ele>
      </trkpt>
      <trkpt lat="44.6014" lon="-0.13966">
        <ele>86</ele>
      </trkpt>
      <trkpt lat="44.60202" lon="-0.14001">
        <ele>84.9</ele>
      </trkpt>
      <trkpt lat="44.60286" lon="-0.14049">
        <ele>82.8</ele>
      </trkpt>
      <trkpt lat="44.6033" lon="-0.14074">
        <ele>83.1</ele>
      </trkpt>
      <trkpt lat="44.6037" lon="-0.14098">
        <ele>84.3</ele>
      </trkpt>
      <trkpt lat="44.60452" lon="-0.14144">
        <ele>89.3</ele>
      </trkpt>
      <trkpt lat="44.60463" lon="-0.14151">
        <ele>89.9</ele>
      </trkpt>
      <trkpt lat="44.60465" lon="-0.14142">
        <ele>90.3</ele>
      </trkpt>
      <trkpt lat="44.60466" lon="-0.14136">
        <ele>90.7</ele>
      </trkpt>
      <trkpt lat="44.60454" lon="-0.1411">
        <ele>91.1</ele>
      </trkpt>
      <trkpt lat="44.60441" lon="-0.14082">
        <ele>91.6</ele>
      </trkpt>
      <trkpt lat="44.6043" lon="-0.14065">
        <ele>90.8</ele>
      </trkpt>
      <trkpt lat="44.60397" lon="-0.14009">
        <ele>89.1</ele>
      </trkpt>
      <trkpt lat="44.60344" lon="-0.13917">
        <ele>91.6</ele>
      </trkpt>
      <trkpt lat="44.60316" lon="-0.13852">
        <ele>95.1</ele>
      </trkpt>
      <trkpt lat="44.6029" lon="-0.1381">
        <ele>97.2</ele>
      </trkpt>
      <trkpt lat="44.60273" lon="-0.13789">
        <ele>97.3</ele>
      </trkpt>
      <trkpt lat="44.60249" lon="-0.13744">
        <ele>95.9</ele>
      </trkpt>
      <trkpt lat="44.60241" lon="-0.13742">
        <ele>95</ele>
      </trkpt>
      <trkpt lat="44.60185" lon="-0.13648">
        <ele>90.2</ele>
      </trkpt>
      <trkpt lat="44.60113" lon="-0.13527">
        <ele>88.1</ele>
      </trkpt>
      <trkpt lat="44.6008" lon="-0.13477">
        <ele>89.8</ele>
      </trkpt>
      <trkpt lat="44.60056" lon="-0.13457">
        <ele>90.6</ele>
      </trkpt>
      <trkpt lat="44.60012" lon="-0.13384">
        <ele>90.9</ele>
      </trkpt>
      <trkpt lat="44.59959" lon="-0.133">
        <ele>88.8</ele>
      </trkpt>
      <trkpt lat="44.5988" lon="-0.13176">
        <ele>89.8</ele>
      </trkpt>
      <trkpt lat="44.59872" lon="-0.1316">
        <ele>89.1</ele>
      </trkpt>
      <trkpt lat="44.59876" lon="-0.13156">
        <ele>89.4</ele>
      </trkpt>
      <trkpt lat="44.59879" lon="-0.13153">
        <ele>89.6</ele>
      </trkpt>
      <trkpt lat="44.59879" lon="-0.13152">
        <ele>89.6</ele>
      </trkpt>
      <trkpt lat="44.59915" lon="-0.13104">
        <ele>91.9</ele>
      </trkpt>
      <trkpt lat="44.59934" lon="-0.1307">
        <ele>94</ele>
      </trkpt>
      <trkpt lat="44.59946" lon="-0.13039">
        <ele>95.1</ele>
      </trkpt>
      <trkpt lat="44.5995" lon="-0.13027">
        <ele>95.4</ele>
      </trkpt>
      <trkpt lat="44.59958" lon="-0.13011">
        <ele>95</ele>
      </trkpt>
      <trkpt lat="44.59964" lon="-0.13">
        <ele>94.7</ele>
      </trkpt>
      <trkpt lat="44.59971" lon="-0.12991">
        <ele>94.3</ele>
      </trkpt>
      <trkpt lat="44.59978" lon="-0.12984">
        <ele>93.5</ele>
      </trkpt>
      <trkpt lat="44.59984" lon="-0.1298">
        <ele>92.8</ele>
      </trkpt>
      <trkpt lat="44.59992" lon="-0.12973">
        <ele>91.7</ele>
      </trkpt>
      <trkpt lat="44.59999" lon="-0.12969">
        <ele>91</ele>
      </trkpt>
      <trkpt lat="44.60002" lon="-0.12964">
        <ele>90.6</ele>
      </trkpt>
      <trkpt lat="44.60004" lon="-0.12958">
        <ele>90.3</ele>
      </trkpt>
      <trkpt lat="44.60006" lon="-0.12949">
        <ele>90</ele>
      </trkpt>
      <trkpt lat="44.60005" lon="-0.12944">
        <ele>89.8</ele>
      </trkpt>
      <trkpt lat="44.59993" lon="-0.12878">
        <ele>86.9</ele>
      </trkpt>
      <trkpt lat="44.59991" lon="-0.12873">
        <ele>86.7</ele>
      </trkpt>
      <trkpt lat="44.5999" lon="-0.12867">
        <ele>86.5</ele>
      </trkpt>
      <trkpt lat="44.59986" lon="-0.12859">
        <ele>86.3</ele>
      </trkpt>
      <trkpt lat="44.59984" lon="-0.12854">
        <ele>86.3</ele>
      </trkpt>
      <trkpt lat="44.59983" lon="-0.12851">
        <ele>86.3</ele>
      </trkpt>
      <trkpt lat="44.59976" lon="-0.1284">
        <ele>86.2</ele>
      </trkpt>
      <trkpt lat="44.59969" lon="-0.1283">
        <ele>86.1</ele>
      </trkpt>
      <trkpt lat="44.5996" lon="-0.12819">
        <ele>86.1</ele>
      </trkpt>
      <trkpt lat="44.59951" lon="-0.12807">
        <ele>85.7</ele>
      </trkpt>
      <trkpt lat="44.59945" lon="-0.12796">
        <ele>85.3</ele>
      </trkpt>
      <trkpt lat="44.59924" lon="-0.12752">
        <ele>86.1</ele>
      </trkpt>
      <trkpt lat="44.59902" lon="-0.12704">
        <ele>85.7</ele>
      </trkpt>
      <trkpt lat="44.59883" lon="-0.12655">
        <ele>85.9</ele>
      </trkpt>
      <trkpt lat="44.59878" lon="-0.12643">
        <ele>85.9</ele>
      </trkpt>
      <trkpt lat="44.5987" lon="-0.12631">
        <ele>86</ele>
      </trkpt>
      <trkpt lat="44.59869" lon="-0.12629">
        <ele>86</ele>
      </trkpt>
      <trkpt lat="44.59861" lon="-0.12619">
        <ele>86.3</ele>
      </trkpt>
      <trkpt lat="44.59852" lon="-0.1261">
        <ele>86.9</ele>
      </trkpt>
      <trkpt lat="44.59845" lon="-0.12603">
        <ele>87.2</ele>
      </trkpt>
      <trkpt lat="44.59839" lon="-0.12598">
        <ele>87.5</ele>
      </trkpt>
      <trkpt lat="44.59827" lon="-0.12589">
        <ele>87.9</ele>
      </trkpt>
      <trkpt lat="44.59813" lon="-0.12582">
        <ele>88.5</ele>
      </trkpt>
      <trkpt lat="44.59811" lon="-0.1258">
        <ele>88.6</ele>
      </trkpt>
      <trkpt lat="44.5979" lon="-0.12565">
        <ele>90.5</ele>
      </trkpt>
      <trkpt lat="44.59773" lon="-0.12551">
        <ele>91.9</ele>
      </trkpt>
      <trkpt lat="44.59751" lon="-0.12526">
        <ele>94</ele>
      </trkpt>
      <trkpt lat="44.59739" lon="-0.12509">
        <ele>96</ele>
      </trkpt>
      <trkpt lat="44.59727" lon="-0.12492">
        <ele>97.2</ele>
      </trkpt>
      <trkpt lat="44.5972" lon="-0.12478">
        <ele>97.4</ele>
      </trkpt>
      <trkpt lat="44.59714" lon="-0.12461">
        <ele>97.6</ele>
      </trkpt>
      <trkpt lat="44.5971" lon="-0.12446">
        <ele>97.9</ele>
      </trkpt>
      <trkpt lat="44.59705" lon="-0.12426">
        <ele>98.5</ele>
      </trkpt>
      <trkpt lat="44.59701" lon="-0.12407">
        <ele>99.1</ele>
      </trkpt>
      <trkpt lat="44.59697" lon="-0.1238">
        <ele>99.7</ele>
      </trkpt>
      <trkpt lat="44.59694" lon="-0.12361">
        <ele>100</ele>
      </trkpt>
      <trkpt lat="44.5969" lon="-0.12335">
        <ele>100.2</ele>
      </trkpt>
      <trkpt lat="44.59683" lon="-0.12299">
        <ele>100.9</ele>
      </trkpt>
      <trkpt lat="44.59679" lon="-0.1228">
        <ele>101.7</ele>
      </trkpt>
      <trkpt lat="44.59669" lon="-0.12251">
        <ele>102</ele>
      </trkpt>
      <trkpt lat="44.59641" lon="-0.12182">
        <ele>105.4</ele>
      </trkpt>
      <trkpt lat="44.59636" lon="-0.12169">
        <ele>106</ele>
      </trkpt>
      <trkpt lat="44.59612" lon="-0.121">
        <ele>109.4</ele>
      </trkpt>
      <trkpt lat="44.59607" lon="-0.12088">
        <ele>109.8</ele>
      </trkpt>
      <trkpt lat="44.59598" lon="-0.12063">
        <ele>111.4</ele>
      </trkpt>
      <trkpt lat="44.59573" lon="-0.12015">
        <ele>113.4</ele>
      </trkpt>
      <trkpt lat="44.59542" lon="-0.11964">
        <ele>115.1</ele>
      </trkpt>
      <trkpt lat="44.59531" lon="-0.11949">
        <ele>115.1</ele>
      </trkpt>
      <trkpt lat="44.59527" lon="-0.11937">
        <ele>115.8</ele>
      </trkpt>
      <trkpt lat="44.59526" lon="-0.11927">
        <ele>116.9</ele>
      </trkpt>
      <trkpt lat="44.59526" lon="-0.11906">
        <ele>118.4</ele>
      </trkpt>
      <trkpt lat="44.59528" lon="-0.11867">
        <ele>119.8</ele>
      </trkpt>
      <trkpt lat="44.59529" lon="-0.11841">
        <ele>120.8</ele>
      </trkpt>
      <trkpt lat="44.59529" lon="-0.11818">
        <ele>119.4</ele>
      </trkpt>
      <trkpt lat="44.59529" lon="-0.11811">
        <ele>118.6</ele>
      </trkpt>
      <trkpt lat="44.59523" lon="-0.11773">
        <ele>117</ele>
      </trkpt>
      <trkpt lat="44.59499" lon="-0.11629">
        <ele>107.2</ele>
      </trkpt>
      <trkpt lat="44.59487" lon="-0.11567">
        <ele>104.9</ele>
      </trkpt>
      <trkpt lat="44.59494" lon="-0.11571">
        <ele>106.2</ele>
      </trkpt>
      <trkpt lat="44.59565" lon="-0.11563">
        <ele>114.3</ele>
      </trkpt>
      <trkpt lat="44.59603" lon="-0.11562">
        <ele>112.8</ele>
      </trkpt>
      <trkpt lat="44.59612" lon="-0.11559">
        <ele>112</ele>
      </trkpt>
      <trkpt lat="44.59622" lon="-0.11558">
        <ele>109.8</ele>
      </trkpt>
      <trkpt lat="44.59658" lon="-0.1156">
        <ele>101.7</ele>
      </trkpt>
      <trkpt lat="44.59687" lon="-0.11555">
        <ele>96.7</ele>
      </trkpt>
      <trkpt lat="44.59689" lon="-0.11541">
        <ele>94.7</ele>
      </trkpt>
      <trkpt lat="44.59678" lon="-0.115">
        <ele>92</ele>
      </trkpt>
      <trkpt lat="44.59677" lon="-0.11439">
        <ele>91.7</ele>
      </trkpt>
      <trkpt lat="44.59668" lon="-0.114">
        <ele>93.7</ele>
      </trkpt>
      <trkpt lat="44.59671" lon="-0.11383">
        <ele>93.5</ele>
      </trkpt>
      <trkpt lat="44.5967" lon="-0.11337">
        <ele>95.3</ele>
      </trkpt>
      <trkpt lat="44.59663" lon="-0.113">
        <ele>96.7</ele>
      </trkpt>
      <trkpt lat="44.59645" lon="-0.11259">
        <ele>99.3</ele>
      </trkpt>
      <trkpt lat="44.59619" lon="-0.11197">
        <ele>105</ele>
      </trkpt>
      <trkpt lat="44.59599" lon="-0.112">
        <ele>109.1</ele>
      </trkpt>
      <trkpt lat="44.59587" lon="-0.11199">
        <ele>111.4</ele>
      </trkpt>
      <trkpt lat="44.59583" lon="-0.11168">
        <ele>114</ele>
      </trkpt>
      <trkpt lat="44.59557" lon="-0.11045">
        <ele>119.9</ele>
      </trkpt>
      <trkpt lat="44.59549" lon="-0.11023">
        <ele>120.5</ele>
      </trkpt>
      <trkpt lat="44.59544" lon="-0.10927">
        <ele>116.7</ele>
      </trkpt>
      <trkpt lat="44.59555" lon="-0.1092">
        <ele>117.3</ele>
      </trkpt>
      <trkpt lat="44.59574" lon="-0.10914">
        <ele>118.2</ele>
      </trkpt>
      <trkpt lat="44.59585" lon="-0.10912">
        <ele>119</ele>
      </trkpt>
      <trkpt lat="44.59597" lon="-0.10911">
        <ele>119.4</ele>
      </trkpt>
      <trkpt lat="44.5961" lon="-0.1091">
        <ele>119.7</ele>
      </trkpt>
      <trkpt lat="44.59623" lon="-0.10904">
        <ele>118.9</ele>
      </trkpt>
      <trkpt lat="44.59632" lon="-0.109">
        <ele>118.4</ele>
      </trkpt>
      <trkpt lat="44.5964" lon="-0.10891">
        <ele>117.8</ele>
      </trkpt>
      <trkpt lat="44.59655" lon="-0.1088">
        <ele>115.9</ele>
      </trkpt>
      <trkpt lat="44.59663" lon="-0.10876">
        <ele>115</ele>
      </trkpt>
      <trkpt lat="44.5967" lon="-0.10875">
        <ele>114</ele>
      </trkpt>
      <trkpt lat="44.59678" lon="-0.10876">
        <ele>113.1</ele>
      </trkpt>
      <trkpt lat="44.59685" lon="-0.1088">
        <ele>112.3</ele>
      </trkpt>
      <trkpt lat="44.5971" lon="-0.10905">
        <ele>108.5</ele>
      </trkpt>
      <trkpt lat="44.59764" lon="-0.10957">
        <ele>98.5</ele>
      </trkpt>
      <trkpt lat="44.59849" lon="-0.11049">
        <ele>84.4</ele>
      </trkpt>
      <trkpt lat="44.59871" lon="-0.11069">
        <ele>81.4</ele>
      </trkpt>
      <trkpt lat="44.59894" lon="-0.11084">
        <ele>78.2</ele>
      </trkpt>
      <trkpt lat="44.59944" lon="-0.11107">
        <ele>72.1</ele>
      </trkpt>
      <trkpt lat="44.59963" lon="-0.11114">
        <ele>71.1</ele>
      </trkpt>
      <trkpt lat="44.59976" lon="-0.11117">
        <ele>70.4</ele>
      </trkpt>
      <trkpt lat="44.59993" lon="-0.1112">
        <ele>70.3</ele>
      </trkpt>
      <trkpt lat="44.6001" lon="-0.11121">
        <ele>70.4</ele>
      </trkpt>
      <trkpt lat="44.60022" lon="-0.1112">
        <ele>70.6</ele>
      </trkpt>
      <trkpt lat="44.60037" lon="-0.11117">
        <ele>71.1</ele>
      </trkpt>
      <trkpt lat="44.60065" lon="-0.11111">
        <ele>71.3</ele>
      </trkpt>
      <trkpt lat="44.60126" lon="-0.11097">
        <ele>68.2</ele>
      </trkpt>
      <trkpt lat="44.60124" lon="-0.11081">
        <ele>69</ele>
      </trkpt>
      <trkpt lat="44.60122" lon="-0.11047">
        <ele>69.4</ele>
      </trkpt>
      <trkpt lat="44.60122" lon="-0.1101">
        <ele>71</ele>
      </trkpt>
      <trkpt lat="44.60122" lon="-0.10997">
        <ele>71.5</ele>
      </trkpt>
      <trkpt lat="44.60122" lon="-0.10971">
        <ele>72.4</ele>
      </trkpt>
      <trkpt lat="44.60121" lon="-0.10963">
        <ele>72.7</ele>
      </trkpt>
      <trkpt lat="44.60119" lon="-0.10955">
        <ele>72.9</ele>
      </trkpt>
      <trkpt lat="44.60116" lon="-0.10947">
        <ele>73.1</ele>
      </trkpt>
      <trkpt lat="44.60102" lon="-0.10929">
        <ele>74.7</ele>
      </trkpt>
      <trkpt lat="44.60094" lon="-0.10922">
        <ele>75</ele>
      </trkpt>
      <trkpt lat="44.60083" lon="-0.10912">
        <ele>75.4</ele>
      </trkpt>
      <trkpt lat="44.60064" lon="-0.10895">
        <ele>76.9</ele>
      </trkpt>
      <trkpt lat="44.60067" lon="-0.10885">
        <ele>77.2</ele>
      </trkpt>
      <trkpt lat="44.60068" lon="-0.10879">
        <ele>77.6</ele>
      </trkpt>
      <trkpt lat="44.60069" lon="-0.10869">
        <ele>78.1</ele>
      </trkpt>
      <trkpt lat="44.60068" lon="-0.10858">
        <ele>78.7</ele>
      </trkpt>
      <trkpt lat="44.60067" lon="-0.10846">
        <ele>79.1</ele>
      </trkpt>
      <trkpt lat="44.60065" lon="-0.10822">
        <ele>80.2</ele>
      </trkpt>
      <trkpt lat="44.60064" lon="-0.10796">
        <ele>81.3</ele>
      </trkpt>
      <trkpt lat="44.60063" lon="-0.10734">
        <ele>80.4</ele>
      </trkpt>
      <trkpt lat="44.60064" lon="-0.10727">
        <ele>79.9</ele>
      </trkpt>
      <trkpt lat="44.60067" lon="-0.10724">
        <ele>79.4</ele>
      </trkpt>
      <trkpt lat="44.60071" lon="-0.10721">
        <ele>78.7</ele>
      </trkpt>
      <trkpt lat="44.6008" lon="-0.10721">
        <ele>77.4</ele>
      </trkpt>
      <trkpt lat="44.60104" lon="-0.10725">
        <ele>76.3</ele>
      </trkpt>
      <trkpt lat="44.60115" lon="-0.10728">
        <ele>75.7</ele>
      </trkpt>
      <trkpt lat="44.60121" lon="-0.10728">
        <ele>75.3</ele>
      </trkpt>
      <trkpt lat="44.60146" lon="-0.10723">
        <ele>73.7</ele>
      </trkpt>
      <trkpt lat="44.60155" lon="-0.10721">
        <ele>73.4</ele>
      </trkpt>
      <trkpt lat="44.60191" lon="-0.1071">
        <ele>71.7</ele>
      </trkpt>
      <trkpt lat="44.60234" lon="-0.10699">
        <ele>71.1</ele>
      </trkpt>
      <trkpt lat="44.60248" lon="-0.10695">
        <ele>71</ele>
      </trkpt>
      <trkpt lat="44.60262" lon="-0.10692">
        <ele>70.5</ele>
      </trkpt>
      <trkpt lat="44.6028" lon="-0.10684">
        <ele>69.9</ele>
      </trkpt>
      <trkpt lat="44.60282" lon="-0.10682">
        <ele>69.8</ele>
      </trkpt>
      <trkpt lat="44.60287" lon="-0.10675">
        <ele>69.5</ele>
      </trkpt>
      <trkpt lat="44.60288" lon="-0.10669">
        <ele>69.3</ele>
      </trkpt>
      <trkpt lat="44.60287" lon="-0.10653">
        <ele>69</ele>
      </trkpt>
      <trkpt lat="44.60284" lon="-0.10603">
        <ele>67.7</ele>
      </trkpt>
      <trkpt lat="44.60281" lon="-0.1054">
        <ele>65.4</ele>
      </trkpt>
      <trkpt lat="44.6028" lon="-0.10503">
        <ele>64.1</ele>
      </trkpt>
      <trkpt lat="44.6028" lon="-0.105">
        <ele>63.9</ele>
      </trkpt>
      <trkpt lat="44.60282" lon="-0.10497">
        <ele>63.6</ele>
      </trkpt>
      <trkpt lat="44.60285" lon="-0.10494">
        <ele>63.3</ele>
      </trkpt>
      <trkpt lat="44.60299" lon="-0.10493">
        <ele>62.7</ele>
      </trkpt>
      <trkpt lat="44.60316" lon="-0.10493">
        <ele>62.2</ele>
      </trkpt>
      <trkpt lat="44.60335" lon="-0.10492">
        <ele>61.4</ele>
      </trkpt>
      <trkpt lat="44.60367" lon="-0.10489">
        <ele>60.8</ele>
      </trkpt>
      <trkpt lat="44.60411" lon="-0.10481">
        <ele>59.5</ele>
      </trkpt>
      <trkpt lat="44.60434" lon="-0.10477">
        <ele>57.4</ele>
      </trkpt>
      <trkpt lat="44.60442" lon="-0.10476">
        <ele>56.6</ele>
      </trkpt>
      <trkpt lat="44.60447" lon="-0.10467">
        <ele>55.5</ele>
      </trkpt>
      <trkpt lat="44.60446" lon="-0.1044">
        <ele>54.7</ele>
      </trkpt>
      <trkpt lat="44.60449" lon="-0.10421">
        <ele>53.4</ele>
      </trkpt>
      <trkpt lat="44.60459" lon="-0.10388">
        <ele>51.4</ele>
      </trkpt>
      <trkpt lat="44.60472" lon="-0.10352">
        <ele>48.7</ele>
      </trkpt>
      <trkpt lat="44.60481" lon="-0.10319">
        <ele>45.3</ele>
      </trkpt>
      <trkpt lat="44.60477" lon="-0.10306">
        <ele>45.2</ele>
      </trkpt>
      <trkpt lat="44.60474" lon="-0.10295">
        <ele>44.9</ele>
      </trkpt>
      <trkpt lat="44.60473" lon="-0.10288">
        <ele>44.5</ele>
      </trkpt>
      <trkpt lat="44.60473" lon="-0.10282">
        <ele>44.2</ele>
      </trkpt>
      <trkpt lat="44.60473" lon="-0.10275">
        <ele>43.7</ele>
      </trkpt>
      <trkpt lat="44.60473" lon="-0.10267">
        <ele>43.3</ele>
      </trkpt>
      <trkpt lat="44.60476" lon="-0.10236">
        <ele>41.9</ele>
      </trkpt>
      <trkpt lat="44.6048" lon="-0.10202">
        <ele>40.5</ele>
      </trkpt>
      <trkpt lat="44.60491" lon="-0.10128">
        <ele>41</ele>
      </trkpt>
      <trkpt lat="44.60492" lon="-0.10119">
        <ele>41.3</ele>
      </trkpt>
      <trkpt lat="44.60495" lon="-0.10111">
        <ele>41.6</ele>
      </trkpt>
      <trkpt lat="44.60496" lon="-0.10109">
        <ele>41.5</ele>
      </trkpt>
      <trkpt lat="44.60501" lon="-0.10095">
        <ele>41.4</ele>
      </trkpt>
      <trkpt lat="44.60513" lon="-0.10068">
        <ele>41.6</ele>
      </trkpt>
      <trkpt lat="44.60528" lon="-0.10021">
        <ele>40.7</ele>
      </trkpt>
      <trkpt lat="44.60529" lon="-0.10011">
        <ele>40.2</ele>
      </trkpt>
      <trkpt lat="44.60529" lon="-0.09997">
        <ele>39.6</ele>
      </trkpt>
      <trkpt lat="44.60529" lon="-0.09989">
        <ele>39.1</ele>
      </trkpt>
      <trkpt lat="44.60534" lon="-0.09964">
        <ele>37.1</ele>
      </trkpt>
      <trkpt lat="44.60539" lon="-0.09948">
        <ele>36.1</ele>
      </trkpt>
      <trkpt lat="44.6055" lon="-0.09926">
        <ele>33.2</ele>
      </trkpt>
      <trkpt lat="44.60564" lon="-0.09884">
        <ele>29.5</ele>
      </trkpt>
      <trkpt lat="44.60569" lon="-0.09856">
        <ele>27.6</ele>
      </trkpt>
      <trkpt lat="44.60568" lon="-0.09845">
        <ele>26.5</ele>
      </trkpt>
      <trkpt lat="44.60566" lon="-0.09823">
        <ele>25.8</ele>
      </trkpt>
      <trkpt lat="44.6056" lon="-0.0978">
        <ele>24.2</ele>
      </trkpt>
      <trkpt lat="44.60554" lon="-0.09723">
        <ele>19.2</ele>
      </trkpt>
      <trkpt lat="44.60551" lon="-0.097">
        <ele>17.6</ele>
      </trkpt>
      <trkpt lat="44.60594" lon="-0.09718">
        <ele>17.8</ele>
      </trkpt>
      <trkpt lat="44.60612" lon="-0.09743">
        <ele>18.7</ele>
      </trkpt>
      <trkpt lat="44.60634" lon="-0.0978">
        <ele>21</ele>
      </trkpt>
      <trkpt lat="44.60642" lon="-0.09789">
        <ele>21.8</ele>
      </trkpt>
      <trkpt lat="44.60652" lon="-0.09791">
        <ele>22.3</ele>
      </trkpt>
      <trkpt lat="44.6066" lon="-0.09783">
        <ele>23.6</ele>
      </trkpt>
      <trkpt lat="44.6069" lon="-0.09755">
        <ele>30.7</ele>
      </trkpt>
      <trkpt lat="44.607" lon="-0.09766">
        <ele>30</ele>
      </trkpt>
      <trkpt lat="44.60722" lon="-0.09786">
        <ele>31.1</ele>
      </trkpt>
      <trkpt lat="44.60754" lon="-0.09812">
        <ele>32.3</ele>
      </trkpt>
      <trkpt lat="44.60767" lon="-0.09823">
        <ele>32.7</ele>
      </trkpt>
      <trkpt lat="44.6078" lon="-0.09835">
        <ele>34.2</ele>
      </trkpt>
      <trkpt lat="44.60803" lon="-0.09862">
        <ele>37.4</ele>
      </trkpt>
      <trkpt lat="44.60813" lon="-0.09876">
        <ele>39.4</ele>
      </trkpt>
      <trkpt lat="44.60818" lon="-0.09886">
        <ele>40.6</ele>
      </trkpt>
      <trkpt lat="44.60825" lon="-0.09905">
        <ele>40.3</ele>
      </trkpt>
      <trkpt lat="44.60831" lon="-0.09921">
        <ele>41.3</ele>
      </trkpt>
      <trkpt lat="44.60839" lon="-0.09936">
        <ele>43.4</ele>
      </trkpt>
      <trkpt lat="44.60855" lon="-0.09962">
        <ele>45.1</ele>
      </trkpt>
      <trkpt lat="44.60876" lon="-0.09994">
        <ele>46.8</ele>
      </trkpt>
      <trkpt lat="44.60896" lon="-0.1002">
        <ele>48.3</ele>
      </trkpt>
      <trkpt lat="44.60903" lon="-0.09999">
        <ele>49.5</ele>
      </trkpt>
      <trkpt lat="44.60913" lon="-0.09978">
        <ele>49.3</ele>
      </trkpt>
      <trkpt lat="44.60927" lon="-0.09951">
        <ele>50.2</ele>
      </trkpt>
      <trkpt lat="44.60935" lon="-0.09935">
        <ele>50.3</ele>
      </trkpt>
      <trkpt lat="44.60939" lon="-0.09926">
        <ele>50.1</ele>
      </trkpt>
      <trkpt lat="44.60951" lon="-0.09911">
        <ele>49.8</ele>
      </trkpt>
      <trkpt lat="44.60964" lon="-0.09897">
        <ele>49.8</ele>
      </trkpt>
      <trkpt lat="44.60975" lon="-0.09889">
        <ele>50.1</ele>
      </trkpt>
      <trkpt lat="44.60999" lon="-0.09874">
        <ele>49.9</ele>
      </trkpt>
      <trkpt lat="44.61009" lon="-0.0987">
        <ele>49.9</ele>
      </trkpt>
      <trkpt lat="44.61014" lon="-0.09869">
        <ele>49.9</ele>
      </trkpt>
      <trkpt lat="44.6102" lon="-0.09869">
        <ele>50.1</ele>
      </trkpt>
      <trkpt lat="44.61026" lon="-0.0987">
        <ele>50.3</ele>
      </trkpt>
      <trkpt lat="44.61043" lon="-0.09861">
        <ele>50</ele>
      </trkpt>
      <trkpt lat="44.6108" lon="-0.09835">
        <ele>47.4</ele>
      </trkpt>
      <trkpt lat="44.6109" lon="-0.09827">
        <ele>46.9</ele>
      </trkpt>
      <trkpt lat="44.61095" lon="-0.0982">
        <ele>46.7</ele>
      </trkpt>
      <trkpt lat="44.611" lon="-0.09812">
        <ele>46.3</ele>
      </trkpt>
      <trkpt lat="44.61103" lon="-0.09802">
        <ele>45.8</ele>
      </trkpt>
      <trkpt lat="44.61105" lon="-0.09792">
        <ele>45</ele>
      </trkpt>
      <trkpt lat="44.61106" lon="-0.09777">
        <ele>43.9</ele>
      </trkpt>
      <trkpt lat="44.61108" lon="-0.09752">
        <ele>42.2</ele>
      </trkpt>
      <trkpt lat="44.61109" lon="-0.09739">
        <ele>41.7</ele>
      </trkpt>
      <trkpt lat="44.61112" lon="-0.09721">
        <ele>41</ele>
      </trkpt>
      <trkpt lat="44.61117" lon="-0.09699">
        <ele>39.8</ele>
      </trkpt>
      <trkpt lat="44.61124" lon="-0.09675">
        <ele>38.2</ele>
      </trkpt>
      <trkpt lat="44.61132" lon="-0.09652">
        <ele>36.3</ele>
      </trkpt>
      <trkpt lat="44.61147" lon="-0.09611">
        <ele>34.3</ele>
      </trkpt>
      <trkpt lat="44.61157" lon="-0.09586">
        <ele>32</ele>
      </trkpt>
      <trkpt lat="44.61165" lon="-0.09565">
        <ele>29.9</ele>
      </trkpt>
      <trkpt lat="44.61168" lon="-0.09553">
        <ele>28.8</ele>
      </trkpt>
      <trkpt lat="44.6117" lon="-0.09541">
        <ele>28.3</ele>
      </trkpt>
      <trkpt lat="44.6117" lon="-0.0953">
        <ele>27.9</ele>
      </trkpt>
      <trkpt lat="44.6117" lon="-0.09523">
        <ele>27.6</ele>
      </trkpt>
      <trkpt lat="44.61169" lon="-0.0952">
        <ele>27.5</ele>
      </trkpt>
      <trkpt lat="44.61168" lon="-0.09511">
        <ele>27.3</ele>
      </trkpt>
      <trkpt lat="44.61166" lon="-0.09495">
        <ele>26.8</ele>
      </trkpt>
      <trkpt lat="44.6116" lon="-0.09466">
        <ele>26.5</ele>
      </trkpt>
      <trkpt lat="44.61154" lon="-0.09433">
        <ele>26.4</ele>
      </trkpt>
      <trkpt lat="44.6115" lon="-0.09401">
        <ele>24.6</ele>
      </trkpt>
      <trkpt lat="44.61149" lon="-0.09379">
        <ele>23.3</ele>
      </trkpt>
      <trkpt lat="44.61149" lon="-0.09364">
        <ele>23.3</ele>
      </trkpt>
      <trkpt lat="44.61149" lon="-0.09352">
        <ele>22.7</ele>
      </trkpt>
      <trkpt lat="44.6115" lon="-0.09344">
        <ele>22.2</ele>
      </trkpt>
      <trkpt lat="44.61152" lon="-0.0933">
        <ele>21.4</ele>
      </trkpt>
      <trkpt lat="44.61155" lon="-0.09317">
        <ele>20.8</ele>
      </trkpt>
      <trkpt lat="44.61158" lon="-0.09304">
        <ele>20.2</ele>
      </trkpt>
      <trkpt lat="44.61163" lon="-0.09285">
        <ele>19.4</ele>
      </trkpt>
      <trkpt lat="44.6117" lon="-0.09258">
        <ele>18.9</ele>
      </trkpt>
      <trkpt lat="44.61179" lon="-0.09229">
        <ele>18.1</ele>
      </trkpt>
      <trkpt lat="44.61192" lon="-0.0918">
        <ele>17.5</ele>
      </trkpt>
      <trkpt lat="44.61195" lon="-0.0916">
        <ele>16.7</ele>
      </trkpt>
      <trkpt lat="44.61203" lon="-0.09136">
        <ele>16.3</ele>
      </trkpt>
      <trkpt lat="44.61227" lon="-0.09099">
        <ele>16.1</ele>
      </trkpt>
      <trkpt lat="44.61234" lon="-0.0909">
        <ele>16.1</ele>
      </trkpt>
      <trkpt lat="44.61242" lon="-0.09083">
        <ele>16</ele>
      </trkpt>
      <trkpt lat="44.61254" lon="-0.09075">
        <ele>16</ele>
      </trkpt>
      <trkpt lat="44.6126" lon="-0.09071">
        <ele>16</ele>
      </trkpt>
      <trkpt lat="44.6127" lon="-0.09064">
        <ele>16</ele>
      </trkpt>
      <trkpt lat="44.61285" lon="-0.09052">
        <ele>15.6</ele>
      </trkpt>
      <trkpt lat="44.61289" lon="-0.09046">
        <ele>15.4</ele>
      </trkpt>
      <trkpt lat="44.61294" lon="-0.09042">
        <ele>15.2</ele>
      </trkpt>
      <trkpt lat="44.61306" lon="-0.09036">
        <ele>15</ele>
      </trkpt>
      <trkpt lat="44.61314" lon="-0.09037">
        <ele>15</ele>
      </trkpt>
      <trkpt lat="44.61319" lon="-0.0904">
        <ele>15</ele>
      </trkpt>
      <trkpt lat="44.61324" lon="-0.0904">
        <ele>15</ele>
      </trkpt>
      <trkpt lat="44.61335" lon="-0.09039">
        <ele>15</ele>
      </trkpt>
      <trkpt lat="44.6135" lon="-0.09038">
        <ele>14.4</ele>
      </trkpt>
      <trkpt lat="44.61359" lon="-0.09037">
        <ele>14.1</ele>
      </trkpt>
      <trkpt lat="44.61374" lon="-0.09042">
        <ele>14.5</ele>
      </trkpt>
      <trkpt lat="44.61379" lon="-0.09045">
        <ele>14.6</ele>
      </trkpt>
      <trkpt lat="44.61386" lon="-0.09053">
        <ele>14.9</ele>
      </trkpt>
      <trkpt lat="44.61422" lon="-0.09098">
        <ele>16.4</ele>
      </trkpt>
      <trkpt lat="44.61434" lon="-0.09112">
        <ele>16.6</ele>
      </trkpt>
      <trkpt lat="44.61441" lon="-0.09117">
        <ele>16.9</ele>
      </trkpt>
      <trkpt lat="44.61444" lon="-0.09118">
        <ele>17</ele>
      </trkpt>
      <trkpt lat="44.61449" lon="-0.0912">
        <ele>17</ele>
      </trkpt>
      <trkpt lat="44.61454" lon="-0.0912">
        <ele>17</ele>
      </trkpt>
      <trkpt lat="44.61461" lon="-0.09118">
        <ele>17</ele>
      </trkpt>
      <trkpt lat="44.61477" lon="-0.09111">
        <ele>17.2</ele>
      </trkpt>
      <trkpt lat="44.61502" lon="-0.0909">
        <ele>17.3</ele>
      </trkpt>
      <trkpt lat="44.61552" lon="-0.09052">
        <ele>17.2</ele>
      </trkpt>
      <trkpt lat="44.61568" lon="-0.09042">
        <ele>17.5</ele>
      </trkpt>
      <trkpt lat="44.61587" lon="-0.09039">
        <ele>17.4</ele>
      </trkpt>
      <trkpt lat="44.61609" lon="-0.09041">
        <ele>17.5</ele>
      </trkpt>
      <trkpt lat="44.61646" lon="-0.09045">
        <ele>17</ele>
      </trkpt>
      <trkpt lat="44.61733" lon="-0.09025">
        <ele>15.9</ele>
      </trkpt>
      <trkpt lat="44.6177" lon="-0.09008">
        <ele>15</ele>
      </trkpt>
      <trkpt lat="44.6179" lon="-0.08996">
        <ele>14.4</ele>
      </trkpt>
      <trkpt lat="44.61798" lon="-0.08987">
        <ele>14.4</ele>
      </trkpt>
      <trkpt lat="44.61813" lon="-0.0899">
        <ele>14.6</ele>
      </trkpt>
      <trkpt lat="44.61825" lon="-0.08997">
        <ele>15.3</ele>
      </trkpt>
      <trkpt lat="44.61829" lon="-0.09033">
        <ele>17.4</ele>
      </trkpt>
      <trkpt lat="44.61837" lon="-0.091">
        <ele>22.3</ele>
      </trkpt>
      <trkpt lat="44.61838" lon="-0.09107">
        <ele>22.9</ele>
      </trkpt>
      <trkpt lat="44.61839" lon="-0.0911">
        <ele>23.3</ele>
      </trkpt>
      <trkpt lat="44.61868" lon="-0.0921">
        <ele>29.6</ele>
      </trkpt>
      <trkpt lat="44.61897" lon="-0.0931">
        <ele>34.2</ele>
      </trkpt>
      <trkpt lat="44.61901" lon="-0.0933">
        <ele>35.4</ele>
      </trkpt>
      <trkpt lat="44.61903" lon="-0.09349">
        <ele>38.3</ele>
      </trkpt>
      <trkpt lat="44.61904" lon="-0.0939">
        <ele>43.6</ele>
      </trkpt>
      <trkpt lat="44.61906" lon="-0.09459">
        <ele>45.3</ele>
      </trkpt>
      <trkpt lat="44.61906" lon="-0.09483">
        <ele>45.8</ele>
      </trkpt>
      <trkpt lat="44.61907" lon="-0.0956">
        <ele>45.7</ele>
      </trkpt>
      <trkpt lat="44.61908" lon="-0.09601">
        <ele>46.4</ele>
      </trkpt>
      <trkpt lat="44.61908" lon="-0.0962">
        <ele>46.7</ele>
      </trkpt>
      <trkpt lat="44.61906" lon="-0.09638">
        <ele>46.6</ele>
      </trkpt>
      <trkpt lat="44.61903" lon="-0.09655">
        <ele>46.8</ele>
      </trkpt>
      <trkpt lat="44.61891" lon="-0.09701">
        <ele>48</ele>
      </trkpt>
      <trkpt lat="44.61886" lon="-0.09723">
        <ele>48</ele>
      </trkpt>
      <trkpt lat="44.61879" lon="-0.0976">
        <ele>49.3</ele>
      </trkpt>
      <trkpt lat="44.61875" lon="-0.09792">
        <ele>50</ele>
      </trkpt>
      <trkpt lat="44.61873" lon="-0.09814">
        <ele>50.2</ele>
      </trkpt>
      <trkpt lat="44.61871" lon="-0.09844">
        <ele>50.8</ele>
      </trkpt>
      <trkpt lat="44.6187" lon="-0.09858">
        <ele>51</ele>
      </trkpt>
      <trkpt lat="44.61867" lon="-0.09902">
        <ele>51.8</ele>
      </trkpt>
      <trkpt lat="44.61865" lon="-0.09928">
        <ele>51.9</ele>
      </trkpt>
      <trkpt lat="44.61874" lon="-0.09933">
        <ele>51.5</ele>
      </trkpt>
      <trkpt lat="44.61883" lon="-0.09934">
        <ele>51.2</ele>
      </trkpt>
      <trkpt lat="44.61896" lon="-0.09933">
        <ele>50</ele>
      </trkpt>
      <trkpt lat="44.61944" lon="-0.09928">
        <ele>42.4</ele>
      </trkpt>
      <trkpt lat="44.61952" lon="-0.09926">
        <ele>41</ele>
      </trkpt>
      <trkpt lat="44.6196" lon="-0.09923">
        <ele>39.2</ele>
      </trkpt>
      <trkpt lat="44.61967" lon="-0.09921">
        <ele>37.9</ele>
      </trkpt>
      <trkpt lat="44.61976" lon="-0.09917">
        <ele>36.6</ele>
      </trkpt>
      <trkpt lat="44.61983" lon="-0.09916">
        <ele>35.9</ele>
      </trkpt>
      <trkpt lat="44.6199" lon="-0.09918">
        <ele>35</ele>
      </trkpt>
      <trkpt lat="44.61992" lon="-0.09925">
        <ele>34</ele>
      </trkpt>
      <trkpt lat="44.62012" lon="-0.10001">
        <ele>23</ele>
      </trkpt>
      <trkpt lat="44.62023" lon="-0.10015">
        <ele>19.5</ele>
      </trkpt>
      <trkpt lat="44.62028" lon="-0.10017">
        <ele>18.4</ele>
      </trkpt>
      <trkpt lat="44.62037" lon="-0.10034">
        <ele>17</ele>
      </trkpt>
      <trkpt lat="44.62044" lon="-0.10048">
        <ele>16.8</ele>
      </trkpt>
      <trkpt lat="44.62046" lon="-0.10062">
        <ele>17</ele>
      </trkpt>
      <trkpt lat="44.6205" lon="-0.10076">
        <ele>17</ele>
      </trkpt>
      <trkpt lat="44.62058" lon="-0.10087">
        <ele>17</ele>
      </trkpt>
      <trkpt lat="44.62063" lon="-0.10091">
        <ele>17</ele>
      </trkpt>
      <trkpt lat="44.62067" lon="-0.10093">
        <ele>17</ele>
      </trkpt>
      <trkpt lat="44.62108" lon="-0.10112">
        <ele>17</ele>
      </trkpt>
      <trkpt lat="44.62138" lon="-0.10121">
        <ele>17</ele>
      </trkpt>
      <trkpt lat="44.62139" lon="-0.10132">
        <ele>17</ele>
      </trkpt>
      <trkpt lat="44.62192" lon="-0.10121">
        <ele>17.9</ele>
      </trkpt>
      <trkpt lat="44.62205" lon="-0.10119">
        <ele>19.7</ele>
      </trkpt>
      <trkpt lat="44.62215" lon="-0.10158">
        <ele>19.7</ele>
      </trkpt>
      <trkpt lat="44.62254" lon="-0.10123">
        <ele>22.8</ele>
      </trkpt>
      <trkpt lat="44.62283" lon="-0.10095">
        <ele>27.2</ele>
      </trkpt>
      <trkpt lat="44.62308" lon="-0.1009">
        <ele>27.9</ele>
      </trkpt>
      <trkpt lat="44.62329" lon="-0.10067">
        <ele>32.5</ele>
      </trkpt>
      <trkpt lat="44.62353" lon="-0.1002">
        <ele>39.9</ele>
      </trkpt>
      <trkpt lat="44.62369" lon="-0.09986">
        <ele>43.5</ele>
      </trkpt>
      <trkpt lat="44.62397" lon="-0.09943">
        <ele>46.3</ele>
      </trkpt>
      <trkpt lat="44.62403" lon="-0.09936">
        <ele>46.6</ele>
      </trkpt>
      <trkpt lat="44.62408" lon="-0.09931">
        <ele>46.8</ele>
      </trkpt>
      <trkpt lat="44.62418" lon="-0.09924">
        <ele>47</ele>
      </trkpt>
      <trkpt lat="44.62435" lon="-0.09914">
        <ele>47.7</ele>
      </trkpt>
      <trkpt lat="44.62449" lon="-0.09907">
        <ele>48.5</ele>
      </trkpt>
      <trkpt lat="44.62461" lon="-0.09903">
        <ele>49.1</ele>
      </trkpt>
      <trkpt lat="44.62481" lon="-0.09899">
        <ele>50</ele>
      </trkpt>
      <trkpt lat="44.62483" lon="-0.0991">
        <ele>49.6</ele>
      </trkpt>
      <trkpt lat="44.62486" lon="-0.09934">
        <ele>49.5</ele>
      </trkpt>
      <trkpt lat="44.6249" lon="-0.09966">
        <ele>49.3</ele>
      </trkpt>
      <trkpt lat="44.62498" lon="-0.10023">
        <ele>50.7</ele>
      </trkpt>
      <trkpt lat="44.62503" lon="-0.10039">
        <ele>50.4</ele>
      </trkpt>
      <trkpt lat="44.62504" lon="-0.10044">
        <ele>50.2</ele>
      </trkpt>
      <trkpt lat="44.62509" lon="-0.10056">
        <ele>50</ele>
      </trkpt>
      <trkpt lat="44.62518" lon="-0.10073">
        <ele>49.8</ele>
      </trkpt>
      <trkpt lat="44.62547" lon="-0.10122">
        <ele>49.4</ele>
      </trkpt>
      <trkpt lat="44.62561" lon="-0.10147">
        <ele>49.3</ele>
      </trkpt>
      <trkpt lat="44.62572" lon="-0.10171">
        <ele>48.9</ele>
      </trkpt>
      <trkpt lat="44.62586" lon="-0.102">
        <ele>48</ele>
      </trkpt>
      <trkpt lat="44.62601" lon="-0.10234">
        <ele>48.1</ele>
      </trkpt>
      <trkpt lat="44.62623" lon="-0.10281">
        <ele>47.7</ele>
      </trkpt>
      <trkpt lat="44.62632" lon="-0.10297">
        <ele>47.7</ele>
      </trkpt>
      <trkpt lat="44.62639" lon="-0.10306">
        <ele>48</ele>
      </trkpt>
      <trkpt lat="44.62645" lon="-0.10311">
        <ele>47.9</ele>
      </trkpt>
      <trkpt lat="44.62648" lon="-0.10311">
        <ele>48</ele>
      </trkpt>
      <trkpt lat="44.62652" lon="-0.10312">
        <ele>48.2</ele>
      </trkpt>
      <trkpt lat="44.62654" lon="-0.10311">
        <ele>48.4</ele>
      </trkpt>
      <trkpt lat="44.62662" lon="-0.10306">
        <ele>48.8</ele>
      </trkpt>
      <trkpt lat="44.62682" lon="-0.10285">
        <ele>50.9</ele>
      </trkpt>
      <trkpt lat="44.62688" lon="-0.10279">
        <ele>51.5</ele>
      </trkpt>
      <trkpt lat="44.62717" lon="-0.10251">
        <ele>54.8</ele>
      </trkpt>
      <trkpt lat="44.62761" lon="-0.10211">
        <ele>57.7</ele>
      </trkpt>
      <trkpt lat="44.62779" lon="-0.10193">
        <ele>57</ele>
      </trkpt>
      <trkpt lat="44.62788" lon="-0.10183">
        <ele>57</ele>
      </trkpt>
      <trkpt lat="44.62805" lon="-0.10159">
        <ele>55.8</ele>
      </trkpt>
      <trkpt lat="44.62819" lon="-0.10144">
        <ele>55</ele>
      </trkpt>
      <trkpt lat="44.62838" lon="-0.10125">
        <ele>51.8</ele>
      </trkpt>
      <trkpt lat="44.62878" lon="-0.10092">
        <ele>47.4</ele>
      </trkpt>
      <trkpt lat="44.62911" lon="-0.10065">
        <ele>44.2</ele>
      </trkpt>
      <trkpt lat="44.62903" lon="-0.10021">
        <ele>46</ele>
      </trkpt>
      <trkpt lat="44.62907" lon="-0.10004">
        <ele>46</ele>
      </trkpt>
      <trkpt lat="44.62933" lon="-0.09993">
        <ele>46.6</ele>
      </trkpt>
      <trkpt lat="44.62961" lon="-0.0998">
        <ele>47.6</ele>
      </trkpt>
      <trkpt lat="44.62988" lon="-0.09967">
        <ele>48.9</ele>
      </trkpt>
      <trkpt lat="44.62999" lon="-0.09961">
        <ele>49.4</ele>
      </trkpt>
      <trkpt lat="44.63008" lon="-0.09955">
        <ele>49.3</ele>
      </trkpt>
      <trkpt lat="44.63018" lon="-0.09948">
        <ele>49.2</ele>
      </trkpt>
      <trkpt lat="44.63037" lon="-0.09935">
        <ele>48.9</ele>
      </trkpt>
      <trkpt lat="44.6306" lon="-0.09919">
        <ele>48</ele>
      </trkpt>
      <trkpt lat="44.63076" lon="-0.09911">
        <ele>48</ele>
      </trkpt>
      <trkpt lat="44.63089" lon="-0.09906">
        <ele>48.2</ele>
      </trkpt>
      <trkpt lat="44.63114" lon="-0.09897">
        <ele>49.2</ele>
      </trkpt>
      <trkpt lat="44.63131" lon="-0.09892">
        <ele>50.4</ele>
      </trkpt>
      <trkpt lat="44.63144" lon="-0.0989">
        <ele>51.4</ele>
      </trkpt>
      <trkpt lat="44.63152" lon="-0.09892">
        <ele>51.9</ele>
      </trkpt>
      <trkpt lat="44.63164" lon="-0.09896">
        <ele>52.3</ele>
      </trkpt>
      <trkpt lat="44.63176" lon="-0.09902">
        <ele>52.3</ele>
      </trkpt>
      <trkpt lat="44.63187" lon="-0.09905">
        <ele>52.2</ele>
      </trkpt>
      <trkpt lat="44.63201" lon="-0.09906">
        <ele>52</ele>
      </trkpt>
      <trkpt lat="44.63214" lon="-0.09907">
        <ele>51.6</ele>
      </trkpt>
      <trkpt lat="44.6324" lon="-0.09903">
        <ele>50.9</ele>
      </trkpt>
      <trkpt lat="44.63257" lon="-0.09901">
        <ele>50.5</ele>
      </trkpt>
      <trkpt lat="44.63284" lon="-0.09901">
        <ele>49.5</ele>
      </trkpt>
      <trkpt lat="44.63308" lon="-0.09903">
        <ele>48.4</ele>
      </trkpt>
      <trkpt lat="44.6333" lon="-0.09904">
        <ele>47.1</ele>
      </trkpt>
      <trkpt lat="44.6334" lon="-0.09903">
        <ele>46.8</ele>
      </trkpt>
      <trkpt lat="44.63355" lon="-0.09899">
        <ele>46.5</ele>
      </trkpt>
      <trkpt lat="44.63384" lon="-0.09893">
        <ele>45.5</ele>
      </trkpt>
      <trkpt lat="44.63404" lon="-0.0989">
        <ele>45.3</ele>
      </trkpt>
      <trkpt lat="44.63412" lon="-0.09889">
        <ele>45.2</ele>
      </trkpt>
      <trkpt lat="44.63426" lon="-0.0989">
        <ele>45.5</ele>
      </trkpt>
      <trkpt lat="44.63441" lon="-0.09895">
        <ele>45.7</ele>
      </trkpt>
      <trkpt lat="44.63452" lon="-0.09897">
        <ele>46.2</ele>
      </trkpt>
      <trkpt lat="44.63465" lon="-0.09896">
        <ele>47.2</ele>
      </trkpt>
      <trkpt lat="44.63483" lon="-0.09894">
        <ele>47.5</ele>
      </trkpt>
      <trkpt lat="44.6352" lon="-0.09889">
        <ele>47</ele>
      </trkpt>
      <trkpt lat="44.63553" lon="-0.09886">
        <ele>47.1</ele>
      </trkpt>
      <trkpt lat="44.63574" lon="-0.09886">
        <ele>47.8</ele>
      </trkpt>
      <trkpt lat="44.63595" lon="-0.09887">
        <ele>49</ele>
      </trkpt>
      <trkpt lat="44.63605" lon="-0.09888">
        <ele>49.6</ele>
      </trkpt>
      <trkpt lat="44.6362" lon="-0.0989">
        <ele>50.3</ele>
      </trkpt>
      <trkpt lat="44.63628" lon="-0.09889">
        <ele>50.6</ele>
      </trkpt>
      <trkpt lat="44.63642" lon="-0.09885">
        <ele>51.6</ele>
      </trkpt>
      <trkpt lat="44.6366" lon="-0.09878">
        <ele>53.5</ele>
      </trkpt>
      <trkpt lat="44.63713" lon="-0.09855">
        <ele>55.4</ele>
      </trkpt>
      <trkpt lat="44.63755" lon="-0.09834">
        <ele>55.6</ele>
      </trkpt>
      <trkpt lat="44.63783" lon="-0.0982">
        <ele>55.2</ele>
      </trkpt>
      <trkpt lat="44.63809" lon="-0.09809">
        <ele>56.9</ele>
      </trkpt>
      <trkpt lat="44.6382" lon="-0.09802">
        <ele>57.7</ele>
      </trkpt>
      <trkpt lat="44.63825" lon="-0.09795">
        <ele>58.2</ele>
      </trkpt>
      <trkpt lat="44.63829" lon="-0.09788">
        <ele>58.6</ele>
      </trkpt>
      <trkpt lat="44.63832" lon="-0.0978">
        <ele>58.9</ele>
      </trkpt>
      <trkpt lat="44.63835" lon="-0.0977">
        <ele>59.5</ele>
      </trkpt>
      <trkpt lat="44.63838" lon="-0.09742">
        <ele>60.4</ele>
      </trkpt>
      <trkpt lat="44.6384" lon="-0.09716">
        <ele>60</ele>
      </trkpt>
      <trkpt lat="44.63845" lon="-0.09692">
        <ele>58.8</ele>
      </trkpt>
      <trkpt lat="44.6386" lon="-0.09664">
        <ele>55.2</ele>
      </trkpt>
      <trkpt lat="44.63865" lon="-0.09655">
        <ele>54.2</ele>
      </trkpt>
      <trkpt lat="44.63885" lon="-0.09636">
        <ele>50.6</ele>
      </trkpt>
      <trkpt lat="44.63916" lon="-0.09611">
        <ele>50</ele>
      </trkpt>
      <trkpt lat="44.63934" lon="-0.09598">
        <ele>51.6</ele>
      </trkpt>
      <trkpt lat="44.63952" lon="-0.09587">
        <ele>53.3</ele>
      </trkpt>
      <trkpt lat="44.63978" lon="-0.09575">
        <ele>55.8</ele>
      </trkpt>
      <trkpt lat="44.63982" lon="-0.09574">
        <ele>56</ele>
      </trkpt>
      <trkpt lat="44.63985" lon="-0.09575">
        <ele>56.1</ele>
      </trkpt>
      <trkpt lat="44.63985" lon="-0.09569">
        <ele>56.5</ele>
      </trkpt>
      <trkpt lat="44.63985" lon="-0.09568">
        <ele>56.6</ele>
      </trkpt>
      <trkpt lat="44.63985" lon="-0.09562">
        <ele>57</ele>
      </trkpt>
      <trkpt lat="44.63984" lon="-0.09557">
        <ele>57.3</ele>
      </trkpt>
      <trkpt lat="44.63973" lon="-0.09516">
        <ele>58.9</ele>
      </trkpt>
      <trkpt lat="44.63958" lon="-0.09451">
        <ele>62.1</ele>
      </trkpt>
      <trkpt lat="44.64052" lon="-0.09397">
        <ele>64.4</ele>
      </trkpt>
      <trkpt lat="44.64074" lon="-0.09441">
        <ele>61.3</ele>
      </trkpt>
      <trkpt lat="44.64078" lon="-0.09444">
        <ele>61</ele>
      </trkpt>
      <trkpt lat="44.64138" lon="-0.09423">
        <ele>61.8</ele>
      </trkpt>
      <trkpt lat="44.64156" lon="-0.09456">
        <ele>59</ele>
      </trkpt>
      <trkpt lat="44.64174" lon="-0.0944">
        <ele>57</ele>
      </trkpt>
      <trkpt lat="44.64181" lon="-0.09401">
        <ele>56.2</ele>
      </trkpt>
      <trkpt lat="44.64179" lon="-0.0928">
        <ele>59.1</ele>
      </trkpt>
      <trkpt lat="44.64174" lon="-0.09203">
        <ele>61.7</ele>
      </trkpt>
      <trkpt lat="44.64166" lon="-0.09139">
        <ele>63.2</ele>
      </trkpt>
      <trkpt lat="44.64166" lon="-0.09098">
        <ele>65</ele>
      </trkpt>
      <trkpt lat="44.64174" lon="-0.09062">
        <ele>66.8</ele>
      </trkpt>
      <trkpt lat="44.64181" lon="-0.09028">
        <ele>69</ele>
      </trkpt>
      <trkpt lat="44.64117" lon="-0.08901">
        <ele>74.6</ele>
      </trkpt>
      <trkpt lat="44.6411" lon="-0.08847">
        <ele>76.1</ele>
      </trkpt>
      <trkpt lat="44.64104" lon="-0.08775">
        <ele>79.9</ele>
      </trkpt>
      <trkpt lat="44.641" lon="-0.08731">
        <ele>83</ele>
      </trkpt>
      <trkpt lat="44.64101" lon="-0.08703">
        <ele>84.7</ele>
      </trkpt>
      <trkpt lat="44.64114" lon="-0.08662">
        <ele>86</ele>
      </trkpt>
      <trkpt lat="44.64139" lon="-0.08676">
        <ele>85.7</ele>
      </trkpt>
      <trkpt lat="44.64191" lon="-0.08707">
        <ele>84.5</ele>
      </trkpt>
      <trkpt lat="44.64247" lon="-0.0874">
        <ele>83.9</ele>
      </trkpt>
      <trkpt lat="44.64284" lon="-0.08761">
        <ele>82.7</ele>
      </trkpt>
      <trkpt lat="44.64345" lon="-0.08797">
        <ele>81.9</ele>
      </trkpt>
      <trkpt lat="44.64388" lon="-0.08822">
        <ele>81</ele>
      </trkpt>
      <trkpt lat="44.6441" lon="-0.08835">
        <ele>80.2</ele>
      </trkpt>
      <trkpt lat="44.64414" lon="-0.08827">
        <ele>80.3</ele>
      </trkpt>
      <trkpt lat="44.64415" lon="-0.08819">
        <ele>80.5</ele>
      </trkpt>
      <trkpt lat="44.64394" lon="-0.08708">
        <ele>77.5</ele>
      </trkpt>
      <trkpt lat="44.64393" lon="-0.08696">
        <ele>77.1</ele>
      </trkpt>
      <trkpt lat="44.64393" lon="-0.0869">
        <ele>76.8</ele>
      </trkpt>
      <trkpt lat="44.64395" lon="-0.08685">
        <ele>76.4</ele>
      </trkpt>
      <trkpt lat="44.644" lon="-0.08679">
        <ele>75.8</ele>
      </trkpt>
      <trkpt lat="44.64472" lon="-0.08614">
        <ele>71.5</ele>
      </trkpt>
      <trkpt lat="44.64492" lon="-0.08591">
        <ele>70.9</ele>
      </trkpt>
      <trkpt lat="44.64521" lon="-0.08548">
        <ele>70.1</ele>
      </trkpt>
      <trkpt lat="44.64534" lon="-0.08539">
        <ele>70.1</ele>
      </trkpt>
      <trkpt lat="44.64566" lon="-0.08542">
        <ele>71.8</ele>
      </trkpt>
      <trkpt lat="44.64589" lon="-0.08555">
        <ele>73.4</ele>
      </trkpt>
      <trkpt lat="44.64613" lon="-0.08554">
        <ele>75</ele>
      </trkpt>
      <trkpt lat="44.64646" lon="-0.08551">
        <ele>76.3</ele>
      </trkpt>
      <trkpt lat="44.64674" lon="-0.0855">
        <ele>77.2</ele>
      </trkpt>
      <trkpt lat="44.64685" lon="-0.08551">
        <ele>77.5</ele>
      </trkpt>
      <trkpt lat="44.64695" lon="-0.08549">
        <ele>77.8</ele>
      </trkpt>
      <trkpt lat="44.64709" lon="-0.08546">
        <ele>78.2</ele>
      </trkpt>
      <trkpt lat="44.64746" lon="-0.08536">
        <ele>78.9</ele>
      </trkpt>
      <trkpt lat="44.64786" lon="-0.08524">
        <ele>79</ele>
      </trkpt>
      <trkpt lat="44.64816" lon="-0.08514">
        <ele>79.7</ele>
      </trkpt>
      <trkpt lat="44.64831" lon="-0.0851">
        <ele>80</ele>
      </trkpt>
      <trkpt lat="44.64868" lon="-0.08505">
        <ele>80</ele>
      </trkpt>
      <trkpt lat="44.64886" lon="-0.08501">
        <ele>80</ele>
      </trkpt>
      <trkpt lat="44.64894" lon="-0.08502">
        <ele>80.1</ele>
      </trkpt>
      <trkpt lat="44.64902" lon="-0.08504">
        <ele>80.3</ele>
      </trkpt>
      <trkpt lat="44.64909" lon="-0.08508">
        <ele>80.4</ele>
      </trkpt>
      <trkpt lat="44.64942" lon="-0.08523">
        <ele>80.2</ele>
      </trkpt>
      <trkpt lat="44.64983" lon="-0.08541">
        <ele>80.9</ele>
      </trkpt>
      <trkpt lat="44.65004" lon="-0.08548">
        <ele>81.3</ele>
      </trkpt>
      <trkpt lat="44.65012" lon="-0.0855">
        <ele>81.2</ele>
      </trkpt>
      <trkpt lat="44.65023" lon="-0.08549">
        <ele>81.2</ele>
      </trkpt>
      <trkpt lat="44.65065" lon="-0.08542">
        <ele>82.5</ele>
      </trkpt>
      <trkpt lat="44.65071" lon="-0.08535">
        <ele>82.7</ele>
      </trkpt>
      <trkpt lat="44.65066" lon="-0.08508">
        <ele>82.6</ele>
      </trkpt>
      <trkpt lat="44.65065" lon="-0.08445">
        <ele>81.7</ele>
      </trkpt>
      <trkpt lat="44.65069" lon="-0.08388">
        <ele>80</ele>
      </trkpt>
      <trkpt lat="44.65075" lon="-0.08249">
        <ele>76.9</ele>
      </trkpt>
      <trkpt lat="44.65079" lon="-0.0821">
        <ele>74.7</ele>
      </trkpt>
      <trkpt lat="44.65103" lon="-0.08119">
        <ele>72.5</ele>
      </trkpt>
      <trkpt lat="44.65111" lon="-0.0807">
        <ele>72</ele>
      </trkpt>
      <trkpt lat="44.65122" lon="-0.08022">
        <ele>72.5</ele>
      </trkpt>
      <trkpt lat="44.65129" lon="-0.07943">
        <ele>74.3</ele>
      </trkpt>
      <trkpt lat="44.65145" lon="-0.07861">
        <ele>75.7</ele>
      </trkpt>
      <trkpt lat="44.6518" lon="-0.07753">
        <ele>79.8</ele>
      </trkpt>
      <trkpt lat="44.65193" lon="-0.07708">
        <ele>80</ele>
      </trkpt>
      <trkpt lat="44.65201" lon="-0.07711">
        <ele>80.5</ele>
      </trkpt>
      <trkpt lat="44.65214" lon="-0.07695">
        <ele>81.4</ele>
      </trkpt>
      <trkpt lat="44.65237" lon="-0.07661">
        <ele>81.3</ele>
      </trkpt>
      <trkpt lat="44.65274" lon="-0.0761">
        <ele>81.8</ele>
      </trkpt>
      <trkpt lat="44.65288" lon="-0.07601">
        <ele>81.8</ele>
      </trkpt>
      <trkpt lat="44.65307" lon="-0.0759">
        <ele>81.9</ele>
      </trkpt>
      <trkpt lat="44.65328" lon="-0.07583">
        <ele>81.2</ele>
      </trkpt>
      <trkpt lat="44.65343" lon="-0.0758">
        <ele>81.1</ele>
      </trkpt>
      <trkpt lat="44.65362" lon="-0.07578">
        <ele>81.2</ele>
      </trkpt>
      <trkpt lat="44.65381" lon="-0.07578">
        <ele>81.1</ele>
      </trkpt>
      <trkpt lat="44.6542" lon="-0.07574">
        <ele>80.3</ele>
      </trkpt>
      <trkpt lat="44.65433" lon="-0.07571">
        <ele>80.2</ele>
      </trkpt>
      <trkpt lat="44.65463" lon="-0.07552">
        <ele>80</ele>
      </trkpt>
      <trkpt lat="44.6547" lon="-0.07547">
        <ele>80</ele>
      </trkpt>
      <trkpt lat="44.65485" lon="-0.07538">
        <ele>79.7</ele>
      </trkpt>
      <trkpt lat="44.65497" lon="-0.0753">
        <ele>79.2</ele>
      </trkpt>
      <trkpt lat="44.65503" lon="-0.07534">
        <ele>79.1</ele>
      </trkpt>
      <trkpt lat="44.6551" lon="-0.07549">
        <ele>79.4</ele>
      </trkpt>
      <trkpt lat="44.65545" lon="-0.07637">
        <ele>79</ele>
      </trkpt>
      <trkpt lat="44.65574" lon="-0.07707">
        <ele>77.5</ele>
      </trkpt>
      <trkpt lat="44.65586" lon="-0.07731">
        <ele>77</ele>
      </trkpt>
      <trkpt lat="44.65602" lon="-0.07749">
        <ele>77</ele>
      </trkpt>
      <trkpt lat="44.65629" lon="-0.07778">
        <ele>75.7</ele>
      </trkpt>
      <trkpt lat="44.65642" lon="-0.07794">
        <ele>74.7</ele>
      </trkpt>
      <trkpt lat="44.65681" lon="-0.07807">
        <ele>70.9</ele>
      </trkpt>
      <trkpt lat="44.65705" lon="-0.07814">
        <ele>69.4</ele>
      </trkpt>
      <trkpt lat="44.65739" lon="-0.07827">
        <ele>67.7</ele>
      </trkpt>
      <trkpt lat="44.65758" lon="-0.0783">
        <ele>66.5</ele>
      </trkpt>
      <trkpt lat="44.65768" lon="-0.07825">
        <ele>65.9</ele>
      </trkpt>
      <trkpt lat="44.65801" lon="-0.07822">
        <ele>65.1</ele>
      </trkpt>
      <trkpt lat="44.65817" lon="-0.07822">
        <ele>64.8</ele>
      </trkpt>
      <trkpt lat="44.65826" lon="-0.07824">
        <ele>64.5</ele>
      </trkpt>
      <trkpt lat="44.65857" lon="-0.07835">
        <ele>64</ele>
      </trkpt>
      <trkpt lat="44.65879" lon="-0.07846">
        <ele>63.4</ele>
      </trkpt>
      <trkpt lat="44.65888" lon="-0.0785">
        <ele>63</ele>
      </trkpt>
      <trkpt lat="44.65897" lon="-0.07852">
        <ele>63</ele>
      </trkpt>
      <trkpt lat="44.65905" lon="-0.07853">
        <ele>63</ele>
      </trkpt>
      <trkpt lat="44.65918" lon="-0.07853">
        <ele>63</ele>
      </trkpt>
      <trkpt lat="44.65931" lon="-0.07851">
        <ele>62.7</ele>
      </trkpt>
      <trkpt lat="44.65941" lon="-0.07854">
        <ele>62.4</ele>
      </trkpt>
      <trkpt lat="44.65946" lon="-0.07858">
        <ele>62.1</ele>
      </trkpt>
      <trkpt lat="44.65958" lon="-0.07878">
        <ele>62.3</ele>
      </trkpt>
      <trkpt lat="44.65974" lon="-0.07914">
        <ele>61.1</ele>
      </trkpt>
      <trkpt lat="44.6598" lon="-0.07925">
        <ele>60.9</ele>
      </trkpt>
      <trkpt lat="44.65997" lon="-0.07939">
        <ele>60.3</ele>
      </trkpt>
      <trkpt lat="44.66005" lon="-0.07943">
        <ele>60</ele>
      </trkpt>
      <trkpt lat="44.66013" lon="-0.07946">
        <ele>60</ele>
      </trkpt>
      <trkpt lat="44.6602" lon="-0.07945">
        <ele>60</ele>
      </trkpt>
      <trkpt lat="44.66029" lon="-0.07941">
        <ele>59.9</ele>
      </trkpt>
      <trkpt lat="44.66045" lon="-0.07927">
        <ele>59.8</ele>
      </trkpt>
      <trkpt lat="44.66062" lon="-0.07911">
        <ele>59.8</ele>
      </trkpt>
      <trkpt lat="44.6607" lon="-0.07902">
        <ele>59.8</ele>
      </trkpt>
      <trkpt lat="44.66081" lon="-0.07897">
        <ele>59.7</ele>
      </trkpt>
      <trkpt lat="44.66094" lon="-0.07895">
        <ele>59.5</ele>
      </trkpt>
      <trkpt lat="44.66104" lon="-0.07896">
        <ele>59.2</ele>
      </trkpt>
      <trkpt lat="44.66115" lon="-0.07899">
        <ele>59.1</ele>
      </trkpt>
      <trkpt lat="44.66135" lon="-0.07912">
        <ele>59.2</ele>
      </trkpt>
      <trkpt lat="44.66158" lon="-0.07929">
        <ele>59.4</ele>
      </trkpt>
      <trkpt lat="44.66181" lon="-0.07947">
        <ele>59.5</ele>
      </trkpt>
      <trkpt lat="44.66193" lon="-0.07957">
        <ele>59.5</ele>
      </trkpt>
      <trkpt lat="44.66199" lon="-0.07958">
        <ele>59.6</ele>
      </trkpt>
      <trkpt lat="44.66234" lon="-0.07956">
        <ele>60.6</ele>
      </trkpt>
      <trkpt lat="44.66308" lon="-0.0794">
        <ele>63.1</ele>
      </trkpt>
      <trkpt lat="44.66314" lon="-0.07936">
        <ele>63</ele>
      </trkpt>
      <trkpt lat="44.6632" lon="-0.07929">
        <ele>63</ele>
      </trkpt>
      <trkpt lat="44.66323" lon="-0.0792">
        <ele>63.2</ele>
      </trkpt>
      <trkpt lat="44.66335" lon="-0.07857">
        <ele>64.1</ele>
      </trkpt>
      <trkpt lat="44.66343" lon="-0.07811">
        <ele>64.8</ele>
      </trkpt>
      <trkpt lat="44.66347" lon="-0.0778">
        <ele>65</ele>
      </trkpt>
      <trkpt lat="44.6635" lon="-0.07754">
        <ele>64.8</ele>
      </trkpt>
      <trkpt lat="44.66361" lon="-0.07734">
        <ele>64</ele>
      </trkpt>
      <trkpt lat="44.66392" lon="-0.07729">
        <ele>63.8</ele>
      </trkpt>
      <trkpt lat="44.66404" lon="-0.07726">
        <ele>63.9</ele>
      </trkpt>
      <trkpt lat="44.66415" lon="-0.07721">
        <ele>64</ele>
      </trkpt>
      <trkpt lat="44.66433" lon="-0.07708">
        <ele>64.6</ele>
      </trkpt>
      <trkpt lat="44.66496" lon="-0.07657">
        <ele>68.4</ele>
      </trkpt>
      <trkpt lat="44.66549" lon="-0.07609">
        <ele>71.6</ele>
      </trkpt>
      <trkpt lat="44.66578" lon="-0.07585">
        <ele>73.8</ele>
      </trkpt>
      <trkpt lat="44.66585" lon="-0.0758">
        <ele>74.2</ele>
      </trkpt>
      <trkpt lat="44.66594" lon="-0.07577">
        <ele>74.8</ele>
      </trkpt>
      <trkpt lat="44.66604" lon="-0.07577">
        <ele>75.4</ele>
      </trkpt>
      <trkpt lat="44.66661" lon="-0.07581">
        <ele>75.9</ele>
      </trkpt>
      <trkpt lat="44.66686" lon="-0.0758">
        <ele>75.3</ele>
      </trkpt>
      <trkpt lat="44.66704" lon="-0.07577">
        <ele>75</ele>
      </trkpt>
      <trkpt lat="44.66717" lon="-0.07573">
        <ele>75</ele>
      </trkpt>
      <trkpt lat="44.66716" lon="-0.07605">
        <ele>75.2</ele>
      </trkpt>
      <trkpt lat="44.66716" lon="-0.07607">
        <ele>75.2</ele>
      </trkpt>
      <trkpt lat="44.66714" lon="-0.07654">
        <ele>76.4</ele>
      </trkpt>
      <trkpt lat="44.66714" lon="-0.07673">
        <ele>76.7</ele>
      </trkpt>
      <trkpt lat="44.6672" lon="-0.077">
        <ele>76.9</ele>
      </trkpt>
      <trkpt lat="44.6673" lon="-0.07724">
        <ele>75.7</ele>
      </trkpt>
      <trkpt lat="44.66744" lon="-0.07747">
        <ele>75.9</ele>
      </trkpt>
      <trkpt lat="44.66756" lon="-0.07769">
        <ele>76.7</ele>
      </trkpt>
      <trkpt lat="44.66767" lon="-0.07797">
        <ele>76.6</ele>
      </trkpt>
      <trkpt lat="44.66789" lon="-0.07852">
        <ele>76.1</ele>
      </trkpt>
      <trkpt lat="44.66793" lon="-0.07868">
        <ele>75.9</ele>
      </trkpt>
      <trkpt lat="44.66805" lon="-0.07911">
        <ele>75.8</ele>
      </trkpt>
      <trkpt lat="44.66818" lon="-0.07947">
        <ele>76.6</ele>
      </trkpt>
      <trkpt lat="44.66822" lon="-0.07952">
        <ele>76.4</ele>
      </trkpt>
      <trkpt lat="44.6683" lon="-0.07969">
        <ele>76.1</ele>
      </trkpt>
      <trkpt lat="44.66847" lon="-0.08019">
        <ele>75.5</ele>
      </trkpt>
      <trkpt lat="44.66858" lon="-0.08045">
        <ele>74.5</ele>
      </trkpt>
      <trkpt lat="44.66862" lon="-0.08071">
        <ele>74</ele>
      </trkpt>
      <trkpt lat="44.66868" lon="-0.08165">
        <ele>70.3</ele>
      </trkpt>
      <trkpt lat="44.66867" lon="-0.08185">
        <ele>69.6</ele>
      </trkpt>
      <trkpt lat="44.66868" lon="-0.0821">
        <ele>68.1</ele>
      </trkpt>
      <trkpt lat="44.66873" lon="-0.08242">
        <ele>66.4</ele>
      </trkpt>
      <trkpt lat="44.66881" lon="-0.08279">
        <ele>64.6</ele>
      </trkpt>
      <trkpt lat="44.66891" lon="-0.0831">
        <ele>63</ele>
      </trkpt>
      <trkpt lat="44.66903" lon="-0.08343">
        <ele>62.3</ele>
      </trkpt>
      <trkpt lat="44.66919" lon="-0.08387">
        <ele>60.3</ele>
      </trkpt>
      <trkpt lat="44.66923" lon="-0.08408">
        <ele>60</ele>
      </trkpt>
      <trkpt lat="44.66926" lon="-0.08424">
        <ele>59.5</ele>
      </trkpt>
      <trkpt lat="44.66927" lon="-0.08433">
        <ele>59.1</ele>
      </trkpt>
      <trkpt lat="44.66935" lon="-0.0846">
        <ele>58.4</ele>
      </trkpt>
      <trkpt lat="44.66948" lon="-0.08482">
        <ele>57.8</ele>
      </trkpt>
      <trkpt lat="44.66978" lon="-0.08541">
        <ele>58</ele>
      </trkpt>
      <trkpt lat="44.6698" lon="-0.08545">
        <ele>58</ele>
      </trkpt>
      <trkpt lat="44.66996" lon="-0.08576">
        <ele>58.1</ele>
      </trkpt>
      <trkpt lat="44.67" lon="-0.08581">
        <ele>58.1</ele>
      </trkpt>
      <trkpt lat="44.67007" lon="-0.08589">
        <ele>57.9</ele>
      </trkpt>
      <trkpt lat="44.67021" lon="-0.086">
        <ele>57.9</ele>
      </trkpt>
      <trkpt lat="44.6704" lon="-0.08617">
        <ele>57.8</ele>
      </trkpt>
      <trkpt lat="44.67104" lon="-0.0868">
        <ele>55</ele>
      </trkpt>
      <trkpt lat="44.67153" lon="-0.08729">
        <ele>53.3</ele>
      </trkpt>
      <trkpt lat="44.67177" lon="-0.08758">
        <ele>52.6</ele>
      </trkpt>
      <trkpt lat="44.67188" lon="-0.08777">
        <ele>51.3</ele>
      </trkpt>
      <trkpt lat="44.67198" lon="-0.08801">
        <ele>49.2</ele>
      </trkpt>
      <trkpt lat="44.67199" lon="-0.08805">
        <ele>48.9</ele>
      </trkpt>
      <trkpt lat="44.67205" lon="-0.08831">
        <ele>47.3</ele>
      </trkpt>
      <trkpt lat="44.67208" lon="-0.08842">
        <ele>46.5</ele>
      </trkpt>
      <trkpt lat="44.67224" lon="-0.0891">
        <ele>44.4</ele>
      </trkpt>
      <trkpt lat="44.67236" lon="-0.0895">
        <ele>43.2</ele>
      </trkpt>
      <trkpt lat="44.67247" lon="-0.08975">
        <ele>41.9</ele>
      </trkpt>
      <trkpt lat="44.67268" lon="-0.09007">
        <ele>40.3</ele>
      </trkpt>
      <trkpt lat="44.67388" lon="-0.08929">
        <ele>39.6</ele>
      </trkpt>
      <trkpt lat="44.67391" lon="-0.08926">
        <ele>39.7</ele>
      </trkpt>
      <trkpt lat="44.67395" lon="-0.08924">
        <ele>39.8</ele>
      </trkpt>
      <trkpt lat="44.67397" lon="-0.08922">
        <ele>39.9</ele>
      </trkpt>
      <trkpt lat="44.67406" lon="-0.08916">
        <ele>40</ele>
      </trkpt>
      <trkpt lat="44.67412" lon="-0.08912">
        <ele>40.3</ele>
      </trkpt>
      <trkpt lat="44.67419" lon="-0.08903">
        <ele>41.1</ele>
      </trkpt>
      <trkpt lat="44.67422" lon="-0.08899">
        <ele>41.4</ele>
      </trkpt>
      <trkpt lat="44.67423" lon="-0.08894">
        <ele>41.9</ele>
      </trkpt>
      <trkpt lat="44.67424" lon="-0.08889">
        <ele>42.3</ele>
      </trkpt>
      <trkpt lat="44.67424" lon="-0.08884">
        <ele>42.7</ele>
      </trkpt>
      <trkpt lat="44.67424" lon="-0.08878">
        <ele>43.2</ele>
      </trkpt>
      <trkpt lat="44.67422" lon="-0.08867">
        <ele>43.9</ele>
      </trkpt>
      <trkpt lat="44.67419" lon="-0.08854">
        <ele>44.9</ele>
      </trkpt>
      <trkpt lat="44.67416" lon="-0.08842">
        <ele>46.1</ele>
      </trkpt>
      <trkpt lat="44.67409" lon="-0.08825">
        <ele>46.7</ele>
      </trkpt>
      <trkpt lat="44.67389" lon="-0.08777">
        <ele>48</ele>
      </trkpt>
      <trkpt lat="44.67382" lon="-0.08761">
        <ele>48.2</ele>
      </trkpt>
      <trkpt lat="44.67376" lon="-0.08744">
        <ele>48.7</ele>
      </trkpt>
      <trkpt lat="44.67351" lon="-0.08679">
        <ele>50.2</ele>
      </trkpt>
      <trkpt lat="44.67338" lon="-0.08646">
        <ele>50.3</ele>
      </trkpt>
      <trkpt lat="44.67326" lon="-0.08613">
        <ele>50.4</ele>
      </trkpt>
      <trkpt lat="44.67319" lon="-0.08596">
        <ele>50.5</ele>
      </trkpt>
      <trkpt lat="44.67313" lon="-0.08579">
        <ele>50.5</ele>
      </trkpt>
      <trkpt lat="44.67311" lon="-0.0857">
        <ele>50.4</ele>
      </trkpt>
      <trkpt lat="44.6731" lon="-0.08562">
        <ele>50.3</ele>
      </trkpt>
      <trkpt lat="44.6731" lon="-0.08553">
        <ele>50.3</ele>
      </trkpt>
      <trkpt lat="44.67311" lon="-0.08545">
        <ele>50.5</ele>
      </trkpt>
      <trkpt lat="44.67314" lon="-0.08536">
        <ele>50.8</ele>
      </trkpt>
      <trkpt lat="44.67322" lon="-0.08523">
        <ele>51.9</ele>
      </trkpt>
      <trkpt lat="44.67337" lon="-0.08498">
        <ele>54.4</ele>
      </trkpt>
      <trkpt lat="44.67369" lon="-0.08448">
        <ele>57.2</ele>
      </trkpt>
      <trkpt lat="44.67376" lon="-0.08436">
        <ele>57.7</ele>
      </trkpt>
      <trkpt lat="44.67405" lon="-0.08392">
        <ele>60.6</ele>
      </trkpt>
      <trkpt lat="44.6741" lon="-0.08377">
        <ele>61.8</ele>
      </trkpt>
      <trkpt lat="44.67418" lon="-0.08373">
        <ele>62.7</ele>
      </trkpt>
      <trkpt lat="44.67434" lon="-0.08399">
        <ele>63.3</ele>
      </trkpt>
      <trkpt lat="44.67442" lon="-0.08412">
        <ele>63.1</ele>
      </trkpt>
      <trkpt lat="44.67449" lon="-0.08424">
        <ele>63</ele>
      </trkpt>
      <trkpt lat="44.67454" lon="-0.0843">
        <ele>63.2</ele>
      </trkpt>
      <trkpt lat="44.67456" lon="-0.08432">
        <ele>63.3</ele>
      </trkpt>
      <trkpt lat="44.67464" lon="-0.08438">
        <ele>63.6</ele>
      </trkpt>
      <trkpt lat="44.67475" lon="-0.08444">
        <ele>64.1</ele>
      </trkpt>
      <trkpt lat="44.67483" lon="-0.08445">
        <ele>64.4</ele>
      </trkpt>
      <trkpt lat="44.67487" lon="-0.08445">
        <ele>64.5</ele>
      </trkpt>
      <trkpt lat="44.67509" lon="-0.08443">
        <ele>64.7</ele>
      </trkpt>
      <trkpt lat="44.6752" lon="-0.08442">
        <ele>64.3</ele>
      </trkpt>
      <trkpt lat="44.67566" lon="-0.08438">
        <ele>61.2</ele>
      </trkpt>
      <trkpt lat="44.67602" lon="-0.08433">
        <ele>58.3</ele>
      </trkpt>
      <trkpt lat="44.67624" lon="-0.08431">
        <ele>57.3</ele>
      </trkpt>
      <trkpt lat="44.67631" lon="-0.08432">
        <ele>57.1</ele>
      </trkpt>
      <trkpt lat="44.67638" lon="-0.08436">
        <ele>56.6</ele>
      </trkpt>
      <trkpt lat="44.67644" lon="-0.08442">
        <ele>56.4</ele>
      </trkpt>
      <trkpt lat="44.67649" lon="-0.0845">
        <ele>56</ele>
      </trkpt>
      <trkpt lat="44.67656" lon="-0.08463">
        <ele>55.7</ele>
      </trkpt>
      <trkpt lat="44.67662" lon="-0.08477">
        <ele>55.4</ele>
      </trkpt>
      <trkpt lat="44.67669" lon="-0.0849">
        <ele>54.7</ele>
      </trkpt>
      <trkpt lat="44.67676" lon="-0.08504">
        <ele>53.8</ele>
      </trkpt>
      <trkpt lat="44.67684" lon="-0.08518">
        <ele>53.3</ele>
      </trkpt>
      <trkpt lat="44.67691" lon="-0.08527">
        <ele>53</ele>
      </trkpt>
      <trkpt lat="44.67699" lon="-0.08532">
        <ele>52.2</ele>
      </trkpt>
      <trkpt lat="44.67708" lon="-0.08536">
        <ele>51.3</ele>
      </trkpt>
      <trkpt lat="44.67729" lon="-0.08538">
        <ele>50.2</ele>
      </trkpt>
      <trkpt lat="44.6774" lon="-0.08539">
        <ele>49.9</ele>
      </trkpt>
      <trkpt lat="44.67754" lon="-0.0854">
        <ele>49.9</ele>
      </trkpt>
      <trkpt lat="44.67768" lon="-0.08541">
        <ele>50.8</ele>
      </trkpt>
      <trkpt lat="44.67781" lon="-0.08542">
        <ele>51.8</ele>
      </trkpt>
      <trkpt lat="44.6779" lon="-0.08545">
        <ele>52.3</ele>
      </trkpt>
      <trkpt lat="44.678" lon="-0.08548">
        <ele>52.8</ele>
      </trkpt>
      <trkpt lat="44.6781" lon="-0.08556">
        <ele>53.1</ele>
      </trkpt>
      <trkpt lat="44.67872" lon="-0.08609">
        <ele>51.9</ele>
      </trkpt>
      <trkpt lat="44.6788" lon="-0.0862">
        <ele>52</ele>
      </trkpt>
      <trkpt lat="44.67886" lon="-0.08633">
        <ele>52</ele>
      </trkpt>
      <trkpt lat="44.6789" lon="-0.08643">
        <ele>52</ele>
      </trkpt>
      <trkpt lat="44.67894" lon="-0.08652">
        <ele>51.9</ele>
      </trkpt>
      <trkpt lat="44.67899" lon="-0.08663">
        <ele>51.9</ele>
      </trkpt>
      <trkpt lat="44.67904" lon="-0.08672">
        <ele>51.8</ele>
      </trkpt>
      <trkpt lat="44.67912" lon="-0.08677">
        <ele>52</ele>
      </trkpt>
      <trkpt lat="44.6792" lon="-0.08682">
        <ele>51.9</ele>
      </trkpt>
      <trkpt lat="44.67932" lon="-0.08677">
        <ele>52.2</ele>
      </trkpt>
      <trkpt lat="44.67957" lon="-0.08667">
        <ele>53</ele>
      </trkpt>
      <trkpt lat="44.67994" lon="-0.08651">
        <ele>53.8</ele>
      </trkpt>
      <trkpt lat="44.68006" lon="-0.08646">
        <ele>53.6</ele>
      </trkpt>
      <trkpt lat="44.68024" lon="-0.0864">
        <ele>52.4</ele>
      </trkpt>
      <trkpt lat="44.68036" lon="-0.08637">
        <ele>51.6</ele>
      </trkpt>
      <trkpt lat="44.68102" lon="-0.08621">
        <ele>45.9</ele>
      </trkpt>
      <trkpt lat="44.68127" lon="-0.08618">
        <ele>43.2</ele>
      </trkpt>
      <trkpt lat="44.6814" lon="-0.08618">
        <ele>42</ele>
      </trkpt>
      <trkpt lat="44.68148" lon="-0.08619">
        <ele>41.4</ele>
      </trkpt>
      <trkpt lat="44.68153" lon="-0.08619">
        <ele>41</ele>
      </trkpt>
      <trkpt lat="44.6818" lon="-0.0862">
        <ele>40.9</ele>
      </trkpt>
      <trkpt lat="44.6819" lon="-0.08621">
        <ele>41.7</ele>
      </trkpt>
      <trkpt lat="44.68202" lon="-0.08618">
        <ele>42.5</ele>
      </trkpt>
      <trkpt lat="44.68215" lon="-0.08616">
        <ele>43.4</ele>
      </trkpt>
      <trkpt lat="44.68231" lon="-0.08615">
        <ele>44.9</ele>
      </trkpt>
      <trkpt lat="44.6824" lon="-0.08615">
        <ele>45.9</ele>
      </trkpt>
      <trkpt lat="44.68249" lon="-0.08614">
        <ele>47</ele>
      </trkpt>
      <trkpt lat="44.68257" lon="-0.08615">
        <ele>48.1</ele>
      </trkpt>
      <trkpt lat="44.68297" lon="-0.08613">
        <ele>52.4</ele>
      </trkpt>
      <trkpt lat="44.68305" lon="-0.08612">
        <ele>53</ele>
      </trkpt>
      <trkpt lat="44.68312" lon="-0.08612">
        <ele>53.7</ele>
      </trkpt>
      <trkpt lat="44.68321" lon="-0.08617">
        <ele>54.8</ele>
      </trkpt>
      <trkpt lat="44.68363" lon="-0.08673">
        <ele>57.9</ele>
      </trkpt>
      <trkpt lat="44.68402" lon="-0.08728">
        <ele>60.9</ele>
      </trkpt>
      <trkpt lat="44.68412" lon="-0.08742">
        <ele>61.5</ele>
      </trkpt>
      <trkpt lat="44.68421" lon="-0.08757">
        <ele>62.4</ele>
      </trkpt>
      <trkpt lat="44.6843" lon="-0.08771">
        <ele>63.1</ele>
      </trkpt>
      <trkpt lat="44.68439" lon="-0.08782">
        <ele>63.6</ele>
      </trkpt>
      <trkpt lat="44.68448" lon="-0.08794">
        <ele>64.4</ele>
      </trkpt>
      <trkpt lat="44.68457" lon="-0.08805">
        <ele>65.4</ele>
      </trkpt>
      <trkpt lat="44.68466" lon="-0.08817">
        <ele>65.7</ele>
      </trkpt>
      <trkpt lat="44.68475" lon="-0.08829">
        <ele>65.7</ele>
      </trkpt>
      <trkpt lat="44.68492" lon="-0.08852">
        <ele>66.9</ele>
      </trkpt>
      <trkpt lat="44.68538" lon="-0.08915">
        <ele>68.2</ele>
      </trkpt>
      <trkpt lat="44.68556" lon="-0.08941">
        <ele>67.5</ele>
      </trkpt>
      <trkpt lat="44.68566" lon="-0.08953">
        <ele>68.2</ele>
      </trkpt>
      <trkpt lat="44.68593" lon="-0.08993">
        <ele>69.4</ele>
      </trkpt>
      <trkpt lat="44.68602" lon="-0.09006">
        <ele>70.1</ele>
      </trkpt>
      <trkpt lat="44.68607" lon="-0.09012">
        <ele>70.6</ele>
      </trkpt>
      <trkpt lat="44.68632" lon="-0.0898">
        <ele>73.6</ele>
      </trkpt>
      <trkpt lat="44.68683" lon="-0.08918">
        <ele>77.6</ele>
      </trkpt>
      <trkpt lat="44.68711" lon="-0.0889">
        <ele>75.5</ele>
      </trkpt>
      <trkpt lat="44.68728" lon="-0.08875">
        <ele>74.1</ele>
      </trkpt>
      <trkpt lat="44.68738" lon="-0.0887">
        <ele>73</ele>
      </trkpt>
      <trkpt lat="44.68747" lon="-0.08864">
        <ele>71.6</ele>
      </trkpt>
      <trkpt lat="44.68756" lon="-0.08861">
        <ele>70.6</ele>
      </trkpt>
      <trkpt lat="44.68764" lon="-0.08857">
        <ele>70.1</ele>
      </trkpt>
      <trkpt lat="44.68777" lon="-0.08853">
        <ele>69.4</ele>
      </trkpt>
      <trkpt lat="44.68789" lon="-0.08849">
        <ele>68.1</ele>
      </trkpt>
      <trkpt lat="44.68813" lon="-0.0884">
        <ele>64.9</ele>
      </trkpt>
      <trkpt lat="44.68826" lon="-0.08836">
        <ele>62.7</ele>
      </trkpt>
      <trkpt lat="44.68839" lon="-0.0883">
        <ele>61.3</ele>
      </trkpt>
      <trkpt lat="44.68865" lon="-0.08817">
        <ele>60</ele>
      </trkpt>
      <trkpt lat="44.68885" lon="-0.08807">
        <ele>57.5</ele>
      </trkpt>
      <trkpt lat="44.6893" lon="-0.0878">
        <ele>53.6</ele>
      </trkpt>
      <trkpt lat="44.68951" lon="-0.08767">
        <ele>52.2</ele>
      </trkpt>
      <trkpt lat="44.68975" lon="-0.08751">
        <ele>52</ele>
      </trkpt>
      <trkpt lat="44.68997" lon="-0.08733">
        <ele>52</ele>
      </trkpt>
      <trkpt lat="44.69004" lon="-0.08727">
        <ele>52.7</ele>
      </trkpt>
      <trkpt lat="44.69023" lon="-0.08768">
        <ele>55</ele>
      </trkpt>
      <trkpt lat="44.69025" lon="-0.08778">
        <ele>54.7</ele>
      </trkpt>
      <trkpt lat="44.69028" lon="-0.08788">
        <ele>55</ele>
      </trkpt>
      <trkpt lat="44.69029" lon="-0.08798">
        <ele>55.1</ele>
      </trkpt>
      <trkpt lat="44.69031" lon="-0.08808">
        <ele>55.2</ele>
      </trkpt>
      <trkpt lat="44.69034" lon="-0.08828">
        <ele>55.4</ele>
      </trkpt>
      <trkpt lat="44.69036" lon="-0.08844">
        <ele>55.9</ele>
      </trkpt>
      <trkpt lat="44.69039" lon="-0.08858">
        <ele>56.4</ele>
      </trkpt>
    </trkseg>
  </trk>
</gpx>